<?xml version="1.0" encoding="UTF-8" standalone="no" ?>
<gpx xmlns="http://www.topografix.com/GPX/1/1" xmlns:xsi="http://www.w3.org/2001/XMLSchema-instance" xsi:schemaLocation="http://www.topografix.com/GPX/1/1 http://www.topografix.com/GPX/1/1/gpx.xsd" version="1.1" creator="VisuGPX - https://www.visugpx.com">
  <metadata>
    <name>Villefranche 2018- 55 kms</name>
    <desc><![CDATA[Randonnée VTT "La grimpée Villefranchoise" sur 55 Kms.]]></desc>
  </metadata>
  <trk>
    <name><![CDATA[Villefranche 2018- 55 kms_1]]></name>
    <trkseg>
      <trkpt lat="46.39837" lon="2.85693">
        <ele>289.940856</ele>
        <time>2018-10-21T06:24:31Z</time>
      </trkpt>
      <trkpt lat="46.39837" lon="2.85693">
        <ele>289.905639</ele>
        <time>2018-10-21T06:24:32Z</time>
      </trkpt>
      <trkpt lat="46.39833" lon="2.85706">
        <ele>288.3</ele>
        <time>2018-10-21T06:25:48Z</time>
      </trkpt>
      <trkpt lat="46.39832" lon="2.85727">
        <ele>286.6</ele>
        <time>2018-10-21T06:25:57Z</time>
      </trkpt>
      <trkpt lat="46.39838" lon="2.85737">
        <ele>285.8</ele>
        <time>2018-10-21T06:26:01Z</time>
      </trkpt>
      <trkpt lat="46.39842" lon="2.85747">
        <ele>285.2</ele>
        <time>2018-10-21T06:26:04Z</time>
      </trkpt>
      <trkpt lat="46.39846" lon="2.85756">
        <ele>284.7</ele>
        <time>2018-10-21T06:26:07Z</time>
      </trkpt>
      <trkpt lat="46.39851" lon="2.85766">
        <ele>284.2</ele>
        <time>2018-10-21T06:26:10Z</time>
      </trkpt>
      <trkpt lat="46.39855" lon="2.85773">
        <ele>283.9</ele>
        <time>2018-10-21T06:26:12Z</time>
      </trkpt>
      <trkpt lat="46.39858" lon="2.8578">
        <ele>283.6</ele>
        <time>2018-10-21T06:26:14Z</time>
      </trkpt>
      <trkpt lat="46.39862" lon="2.85788">
        <ele>283.3</ele>
        <time>2018-10-21T06:26:16Z</time>
      </trkpt>
      <trkpt lat="46.39866" lon="2.85797">
        <ele>283.1</ele>
        <time>2018-10-21T06:26:18Z</time>
      </trkpt>
      <trkpt lat="46.3987" lon="2.85805">
        <ele>282.8</ele>
        <time>2018-10-21T06:26:20Z</time>
      </trkpt>
      <trkpt lat="46.39874" lon="2.85813">
        <ele>282.6</ele>
        <time>2018-10-21T06:26:22Z</time>
      </trkpt>
      <trkpt lat="46.39878" lon="2.85822">
        <ele>282.4</ele>
        <time>2018-10-21T06:26:24Z</time>
      </trkpt>
      <trkpt lat="46.39882" lon="2.85831">
        <ele>282.2</ele>
        <time>2018-10-21T06:26:26Z</time>
      </trkpt>
      <trkpt lat="46.39887" lon="2.85839">
        <ele>282.1</ele>
        <time>2018-10-21T06:26:28Z</time>
      </trkpt>
      <trkpt lat="46.39891" lon="2.85848">
        <ele>282</ele>
        <time>2018-10-21T06:26:30Z</time>
      </trkpt>
      <trkpt lat="46.39895" lon="2.85857">
        <ele>281.8</ele>
        <time>2018-10-21T06:26:32Z</time>
      </trkpt>
      <trkpt lat="46.399" lon="2.85866">
        <ele>281.7</ele>
        <time>2018-10-21T06:26:34Z</time>
      </trkpt>
      <trkpt lat="46.39904" lon="2.85875">
        <ele>281.6</ele>
        <time>2018-10-21T06:26:36Z</time>
      </trkpt>
      <trkpt lat="46.39908" lon="2.85883">
        <ele>281.6</ele>
        <time>2018-10-21T06:26:38Z</time>
      </trkpt>
      <trkpt lat="46.39913" lon="2.8589">
        <ele>281.6</ele>
        <time>2018-10-21T06:26:40Z</time>
      </trkpt>
      <trkpt lat="46.39918" lon="2.85897">
        <ele>281.6</ele>
        <time>2018-10-21T06:26:42Z</time>
      </trkpt>
      <trkpt lat="46.39923" lon="2.85904">
        <ele>281.7</ele>
        <time>2018-10-21T06:26:44Z</time>
      </trkpt>
      <trkpt lat="46.39928" lon="2.8591">
        <ele>281.8</ele>
        <time>2018-10-21T06:26:46Z</time>
      </trkpt>
      <trkpt lat="46.39934" lon="2.85916">
        <ele>281.9</ele>
        <time>2018-10-21T06:26:48Z</time>
      </trkpt>
      <trkpt lat="46.39937" lon="2.85919">
        <ele>281.9</ele>
        <time>2018-10-21T06:26:49Z</time>
      </trkpt>
      <trkpt lat="46.39947" lon="2.85928">
        <ele>282</ele>
        <time>2018-10-21T06:26:52Z</time>
      </trkpt>
      <trkpt lat="46.39954" lon="2.85934">
        <ele>282</ele>
        <time>2018-10-21T06:26:54Z</time>
      </trkpt>
      <trkpt lat="46.39962" lon="2.8594">
        <ele>281.7</ele>
        <time>2018-10-21T06:26:56Z</time>
      </trkpt>
      <trkpt lat="46.39966" lon="2.85943">
        <ele>281.6</ele>
        <time>2018-10-21T06:26:57Z</time>
      </trkpt>
      <trkpt lat="46.39971" lon="2.85946">
        <ele>281.4</ele>
        <time>2018-10-21T06:26:58Z</time>
      </trkpt>
      <trkpt lat="46.39975" lon="2.85949">
        <ele>281.3</ele>
        <time>2018-10-21T06:26:59Z</time>
      </trkpt>
      <trkpt lat="46.39979" lon="2.85952">
        <ele>281.2</ele>
        <time>2018-10-21T06:27:00Z</time>
      </trkpt>
      <trkpt lat="46.39984" lon="2.85955">
        <ele>281</ele>
        <time>2018-10-21T06:27:01Z</time>
      </trkpt>
      <trkpt lat="46.39988" lon="2.85958">
        <ele>280.9</ele>
        <time>2018-10-21T06:27:02Z</time>
      </trkpt>
      <trkpt lat="46.39993" lon="2.85961">
        <ele>280.7</ele>
        <time>2018-10-21T06:27:03Z</time>
      </trkpt>
      <trkpt lat="46.39996" lon="2.85966">
        <ele>280.6</ele>
        <time>2018-10-21T06:27:04Z</time>
      </trkpt>
      <trkpt lat="46.39997" lon="2.85979">
        <ele>280.4</ele>
        <time>2018-10-21T06:27:06Z</time>
      </trkpt>
      <trkpt lat="46.39992" lon="2.85989">
        <ele>280.1</ele>
        <time>2018-10-21T06:27:08Z</time>
      </trkpt>
      <trkpt lat="46.39988" lon="2.86">
        <ele>279.6</ele>
        <time>2018-10-21T06:27:10Z</time>
      </trkpt>
      <trkpt lat="46.39985" lon="2.86011">
        <ele>279.3</ele>
        <time>2018-10-21T06:27:12Z</time>
      </trkpt>
      <trkpt lat="46.39983" lon="2.86021">
        <ele>279.1</ele>
        <time>2018-10-21T06:27:14Z</time>
      </trkpt>
      <trkpt lat="46.39981" lon="2.86032">
        <ele>279.1</ele>
        <time>2018-10-21T06:27:16Z</time>
      </trkpt>
      <trkpt lat="46.3998" lon="2.86043">
        <ele>279.1</ele>
        <time>2018-10-21T06:27:18Z</time>
      </trkpt>
      <trkpt lat="46.39979" lon="2.86054">
        <ele>279.2</ele>
        <time>2018-10-21T06:27:20Z</time>
      </trkpt>
      <trkpt lat="46.39977" lon="2.86065">
        <ele>279.1</ele>
        <time>2018-10-21T06:27:22Z</time>
      </trkpt>
      <trkpt lat="46.39976" lon="2.86076">
        <ele>279</ele>
        <time>2018-10-21T06:27:24Z</time>
      </trkpt>
      <trkpt lat="46.39976" lon="2.86087">
        <ele>278.7</ele>
        <time>2018-10-21T06:27:26Z</time>
      </trkpt>
      <trkpt lat="46.39977" lon="2.86098">
        <ele>278.6</ele>
        <time>2018-10-21T06:27:28Z</time>
      </trkpt>
      <trkpt lat="46.39978" lon="2.86109">
        <ele>278.5</ele>
        <time>2018-10-21T06:27:30Z</time>
      </trkpt>
      <trkpt lat="46.3998" lon="2.86121">
        <ele>278.5</ele>
        <time>2018-10-21T06:27:32Z</time>
      </trkpt>
      <trkpt lat="46.39981" lon="2.86133">
        <ele>278.4</ele>
        <time>2018-10-21T06:27:34Z</time>
      </trkpt>
      <trkpt lat="46.39983" lon="2.86144">
        <ele>278.4</ele>
        <time>2018-10-21T06:27:36Z</time>
      </trkpt>
      <trkpt lat="46.39984" lon="2.86156">
        <ele>278.5</ele>
        <time>2018-10-21T06:27:38Z</time>
      </trkpt>
      <trkpt lat="46.39985" lon="2.86167">
        <ele>278.6</ele>
        <time>2018-10-21T06:27:40Z</time>
      </trkpt>
      <trkpt lat="46.39986" lon="2.86179">
        <ele>278.6</ele>
        <time>2018-10-21T06:27:42Z</time>
      </trkpt>
      <trkpt lat="46.39988" lon="2.8619">
        <ele>278.6</ele>
        <time>2018-10-21T06:27:44Z</time>
      </trkpt>
      <trkpt lat="46.39989" lon="2.86201">
        <ele>278.6</ele>
        <time>2018-10-21T06:27:46Z</time>
      </trkpt>
      <trkpt lat="46.39992" lon="2.86211">
        <ele>278.7</ele>
        <time>2018-10-21T06:27:48Z</time>
      </trkpt>
      <trkpt lat="46.39994" lon="2.86221">
        <ele>278.7</ele>
        <time>2018-10-21T06:27:50Z</time>
      </trkpt>
      <trkpt lat="46.39995" lon="2.86227">
        <ele>278.8</ele>
        <time>2018-10-21T06:27:51Z</time>
      </trkpt>
      <trkpt lat="46.39996" lon="2.86243">
        <ele>278.9</ele>
        <time>2018-10-21T06:27:54Z</time>
      </trkpt>
      <trkpt lat="46.39997" lon="2.86253">
        <ele>278.9</ele>
        <time>2018-10-21T06:27:56Z</time>
      </trkpt>
      <trkpt lat="46.39998" lon="2.86264">
        <ele>278.9</ele>
        <time>2018-10-21T06:27:58Z</time>
      </trkpt>
      <trkpt lat="46.39999" lon="2.86275">
        <ele>278.8</ele>
        <time>2018-10-21T06:28:00Z</time>
      </trkpt>
      <trkpt lat="46.39998" lon="2.86286">
        <ele>278.7</ele>
        <time>2018-10-21T06:28:02Z</time>
      </trkpt>
      <trkpt lat="46.39998" lon="2.86297">
        <ele>278.6</ele>
        <time>2018-10-21T06:28:04Z</time>
      </trkpt>
      <trkpt lat="46.39995" lon="2.86308">
        <ele>278.3</ele>
        <time>2018-10-21T06:28:06Z</time>
      </trkpt>
      <trkpt lat="46.39991" lon="2.86317">
        <ele>277.9</ele>
        <time>2018-10-21T06:28:08Z</time>
      </trkpt>
      <trkpt lat="46.39987" lon="2.86326">
        <ele>277.4</ele>
        <time>2018-10-21T06:28:10Z</time>
      </trkpt>
      <trkpt lat="46.39982" lon="2.86335">
        <ele>277.1</ele>
        <time>2018-10-21T06:28:12Z</time>
      </trkpt>
      <trkpt lat="46.39978" lon="2.86345">
        <ele>276.8</ele>
        <time>2018-10-21T06:28:14Z</time>
      </trkpt>
      <trkpt lat="46.39975" lon="2.86356">
        <ele>276.4</ele>
        <time>2018-10-21T06:28:16Z</time>
      </trkpt>
      <trkpt lat="46.39973" lon="2.86368">
        <ele>276.1</ele>
        <time>2018-10-21T06:28:18Z</time>
      </trkpt>
      <trkpt lat="46.39971" lon="2.8638">
        <ele>275.8</ele>
        <time>2018-10-21T06:28:20Z</time>
      </trkpt>
      <trkpt lat="46.39969" lon="2.86392">
        <ele>275.5</ele>
        <time>2018-10-21T06:28:22Z</time>
      </trkpt>
      <trkpt lat="46.39966" lon="2.86404">
        <ele>275.3</ele>
        <time>2018-10-21T06:28:24Z</time>
      </trkpt>
      <trkpt lat="46.39963" lon="2.86415">
        <ele>275.1</ele>
        <time>2018-10-21T06:28:26Z</time>
      </trkpt>
      <trkpt lat="46.3996" lon="2.86427">
        <ele>274.9</ele>
        <time>2018-10-21T06:28:28Z</time>
      </trkpt>
      <trkpt lat="46.39957" lon="2.86439">
        <ele>274.5</ele>
        <time>2018-10-21T06:28:30Z</time>
      </trkpt>
      <trkpt lat="46.39954" lon="2.86451">
        <ele>274.2</ele>
        <time>2018-10-21T06:28:32Z</time>
      </trkpt>
      <trkpt lat="46.39953" lon="2.86458">
        <ele>274</ele>
        <time>2018-10-21T06:28:33Z</time>
      </trkpt>
      <trkpt lat="46.39949" lon="2.8647">
        <ele>273.7</ele>
        <time>2018-10-21T06:28:35Z</time>
      </trkpt>
      <trkpt lat="46.39946" lon="2.86482">
        <ele>273.4</ele>
        <time>2018-10-21T06:28:37Z</time>
      </trkpt>
      <trkpt lat="46.39942" lon="2.86493">
        <ele>273</ele>
        <time>2018-10-21T06:28:39Z</time>
      </trkpt>
      <trkpt lat="46.3994" lon="2.86499">
        <ele>272.8</ele>
        <time>2018-10-21T06:28:40Z</time>
      </trkpt>
      <trkpt lat="46.39938" lon="2.86505">
        <ele>272.5</ele>
        <time>2018-10-21T06:28:41Z</time>
      </trkpt>
      <trkpt lat="46.39936" lon="2.86511">
        <ele>272.3</ele>
        <time>2018-10-21T06:28:42Z</time>
      </trkpt>
      <trkpt lat="46.39933" lon="2.86518">
        <ele>272</ele>
        <time>2018-10-21T06:28:43Z</time>
      </trkpt>
      <trkpt lat="46.39931" lon="2.86524">
        <ele>271.8</ele>
        <time>2018-10-21T06:28:44Z</time>
      </trkpt>
      <trkpt lat="46.39928" lon="2.86531">
        <ele>271.6</ele>
        <time>2018-10-21T06:28:45Z</time>
      </trkpt>
      <trkpt lat="46.39926" lon="2.86537">
        <ele>271.4</ele>
        <time>2018-10-21T06:28:46Z</time>
      </trkpt>
      <trkpt lat="46.39924" lon="2.86544">
        <ele>271.1</ele>
        <time>2018-10-21T06:28:47Z</time>
      </trkpt>
      <trkpt lat="46.39922" lon="2.86551">
        <ele>270.9</ele>
        <time>2018-10-21T06:28:48Z</time>
      </trkpt>
      <trkpt lat="46.39919" lon="2.86558">
        <ele>270.6</ele>
        <time>2018-10-21T06:28:49Z</time>
      </trkpt>
      <trkpt lat="46.39916" lon="2.86565">
        <ele>270.3</ele>
        <time>2018-10-21T06:28:50Z</time>
      </trkpt>
      <trkpt lat="46.39914" lon="2.86572">
        <ele>270.1</ele>
        <time>2018-10-21T06:28:51Z</time>
      </trkpt>
      <trkpt lat="46.39911" lon="2.86579">
        <ele>270</ele>
        <time>2018-10-21T06:28:52Z</time>
      </trkpt>
      <trkpt lat="46.39909" lon="2.86585">
        <ele>269.8</ele>
        <time>2018-10-21T06:28:53Z</time>
      </trkpt>
      <trkpt lat="46.39906" lon="2.86591">
        <ele>269.7</ele>
        <time>2018-10-21T06:28:54Z</time>
      </trkpt>
      <trkpt lat="46.39905" lon="2.86598">
        <ele>269.5</ele>
        <time>2018-10-21T06:28:55Z</time>
      </trkpt>
      <trkpt lat="46.39902" lon="2.86605">
        <ele>269.3</ele>
        <time>2018-10-21T06:28:56Z</time>
      </trkpt>
      <trkpt lat="46.399" lon="2.86611">
        <ele>269.1</ele>
        <time>2018-10-21T06:28:57Z</time>
      </trkpt>
      <trkpt lat="46.39897" lon="2.86618">
        <ele>268.8</ele>
        <time>2018-10-21T06:28:58Z</time>
      </trkpt>
      <trkpt lat="46.39895" lon="2.86625">
        <ele>268.6</ele>
        <time>2018-10-21T06:28:59Z</time>
      </trkpt>
      <trkpt lat="46.39892" lon="2.86632">
        <ele>268.3</ele>
        <time>2018-10-21T06:29:00Z</time>
      </trkpt>
      <trkpt lat="46.3989" lon="2.8664">
        <ele>267.9</ele>
        <time>2018-10-21T06:29:01Z</time>
      </trkpt>
      <trkpt lat="46.39887" lon="2.86647">
        <ele>267.4</ele>
        <time>2018-10-21T06:29:02Z</time>
      </trkpt>
      <trkpt lat="46.39884" lon="2.86655">
        <ele>266.7</ele>
        <time>2018-10-21T06:29:03Z</time>
      </trkpt>
      <trkpt lat="46.39881" lon="2.86663">
        <ele>266</ele>
        <time>2018-10-21T06:29:04Z</time>
      </trkpt>
      <trkpt lat="46.39879" lon="2.86672">
        <ele>265.2</ele>
        <time>2018-10-21T06:29:05Z</time>
      </trkpt>
      <trkpt lat="46.39876" lon="2.86681">
        <ele>264.4</ele>
        <time>2018-10-21T06:29:06Z</time>
      </trkpt>
      <trkpt lat="46.39874" lon="2.86692">
        <ele>263.7</ele>
        <time>2018-10-21T06:29:07Z</time>
      </trkpt>
      <trkpt lat="46.39872" lon="2.86702">
        <ele>263</ele>
        <time>2018-10-21T06:29:08Z</time>
      </trkpt>
      <trkpt lat="46.39869" lon="2.86713">
        <ele>262.4</ele>
        <time>2018-10-21T06:29:09Z</time>
      </trkpt>
      <trkpt lat="46.39866" lon="2.86723">
        <ele>261.9</ele>
        <time>2018-10-21T06:29:10Z</time>
      </trkpt>
      <trkpt lat="46.39864" lon="2.86734">
        <ele>261.4</ele>
        <time>2018-10-21T06:29:11Z</time>
      </trkpt>
      <trkpt lat="46.39862" lon="2.86744">
        <ele>260.8</ele>
        <time>2018-10-21T06:29:12Z</time>
      </trkpt>
      <trkpt lat="46.39859" lon="2.86754">
        <ele>260.1</ele>
        <time>2018-10-21T06:29:13Z</time>
      </trkpt>
      <trkpt lat="46.39856" lon="2.86765">
        <ele>259.3</ele>
        <time>2018-10-21T06:29:14Z</time>
      </trkpt>
      <trkpt lat="46.39852" lon="2.86775">
        <ele>258.5</ele>
        <time>2018-10-21T06:29:15Z</time>
      </trkpt>
      <trkpt lat="46.39848" lon="2.86784">
        <ele>257.7</ele>
        <time>2018-10-21T06:29:16Z</time>
      </trkpt>
      <trkpt lat="46.39845" lon="2.86794">
        <ele>256.9</ele>
        <time>2018-10-21T06:29:17Z</time>
      </trkpt>
      <trkpt lat="46.39841" lon="2.86803">
        <ele>256.1</ele>
        <time>2018-10-21T06:29:18Z</time>
      </trkpt>
      <trkpt lat="46.39836" lon="2.86812">
        <ele>255.4</ele>
        <time>2018-10-21T06:29:19Z</time>
      </trkpt>
      <trkpt lat="46.39832" lon="2.86819">
        <ele>254.8</ele>
        <time>2018-10-21T06:29:20Z</time>
      </trkpt>
      <trkpt lat="46.39827" lon="2.86827">
        <ele>254.3</ele>
        <time>2018-10-21T06:29:21Z</time>
      </trkpt>
      <trkpt lat="46.39822" lon="2.86834">
        <ele>253.9</ele>
        <time>2018-10-21T06:29:22Z</time>
      </trkpt>
      <trkpt lat="46.39817" lon="2.8684">
        <ele>253.7</ele>
        <time>2018-10-21T06:29:23Z</time>
      </trkpt>
      <trkpt lat="46.39811" lon="2.86845">
        <ele>253.5</ele>
        <time>2018-10-21T06:29:24Z</time>
      </trkpt>
      <trkpt lat="46.39805" lon="2.86849">
        <ele>253.2</ele>
        <time>2018-10-21T06:29:25Z</time>
      </trkpt>
      <trkpt lat="46.39799" lon="2.86852">
        <ele>253</ele>
        <time>2018-10-21T06:29:26Z</time>
      </trkpt>
      <trkpt lat="46.39793" lon="2.86855">
        <ele>252.6</ele>
        <time>2018-10-21T06:29:27Z</time>
      </trkpt>
      <trkpt lat="46.39788" lon="2.86858">
        <ele>252.4</ele>
        <time>2018-10-21T06:29:28Z</time>
      </trkpt>
      <trkpt lat="46.39783" lon="2.86861">
        <ele>252.1</ele>
        <time>2018-10-21T06:29:29Z</time>
      </trkpt>
      <trkpt lat="46.39778" lon="2.86863">
        <ele>251.9</ele>
        <time>2018-10-21T06:29:30Z</time>
      </trkpt>
      <trkpt lat="46.39774" lon="2.86867">
        <ele>251.9</ele>
        <time>2018-10-21T06:29:31Z</time>
      </trkpt>
      <trkpt lat="46.39766" lon="2.86873">
        <ele>251.9</ele>
        <time>2018-10-21T06:29:33Z</time>
      </trkpt>
      <trkpt lat="46.39758" lon="2.86878">
        <ele>252.2</ele>
        <time>2018-10-21T06:29:35Z</time>
      </trkpt>
      <trkpt lat="46.3975" lon="2.86882">
        <ele>252.7</ele>
        <time>2018-10-21T06:29:37Z</time>
      </trkpt>
      <trkpt lat="46.39743" lon="2.86884">
        <ele>253.2</ele>
        <time>2018-10-21T06:29:39Z</time>
      </trkpt>
      <trkpt lat="46.39735" lon="2.86884">
        <ele>254</ele>
        <time>2018-10-21T06:29:42Z</time>
      </trkpt>
      <trkpt lat="46.39726" lon="2.86884">
        <ele>254.6</ele>
        <time>2018-10-21T06:29:45Z</time>
      </trkpt>
      <trkpt lat="46.39718" lon="2.86884">
        <ele>255.7</ele>
        <time>2018-10-21T06:29:48Z</time>
      </trkpt>
      <trkpt lat="46.3971" lon="2.86886">
        <ele>257</ele>
        <time>2018-10-21T06:29:51Z</time>
      </trkpt>
      <trkpt lat="46.39704" lon="2.86886">
        <ele>258.3</ele>
        <time>2018-10-21T06:29:54Z</time>
      </trkpt>
      <trkpt lat="46.39701" lon="2.86887">
        <ele>259.1</ele>
        <time>2018-10-21T06:29:55Z</time>
      </trkpt>
      <trkpt lat="46.3969" lon="2.86891">
        <ele>261.1</ele>
        <time>2018-10-21T06:29:59Z</time>
      </trkpt>
      <trkpt lat="46.39684" lon="2.86898">
        <ele>261.5</ele>
        <time>2018-10-21T06:30:01Z</time>
      </trkpt>
      <trkpt lat="46.39679" lon="2.86908">
        <ele>261.4</ele>
        <time>2018-10-21T06:30:03Z</time>
      </trkpt>
      <trkpt lat="46.39677" lon="2.86914">
        <ele>261.3</ele>
        <time>2018-10-21T06:30:04Z</time>
      </trkpt>
      <trkpt lat="46.39674" lon="2.8692">
        <ele>261.2</ele>
        <time>2018-10-21T06:30:05Z</time>
      </trkpt>
      <trkpt lat="46.39671" lon="2.86927">
        <ele>261.1</ele>
        <time>2018-10-21T06:30:06Z</time>
      </trkpt>
      <trkpt lat="46.39669" lon="2.86935">
        <ele>260.9</ele>
        <time>2018-10-21T06:30:07Z</time>
      </trkpt>
      <trkpt lat="46.39666" lon="2.86942">
        <ele>260.8</ele>
        <time>2018-10-21T06:30:08Z</time>
      </trkpt>
      <trkpt lat="46.39663" lon="2.8695">
        <ele>260.7</ele>
        <time>2018-10-21T06:30:09Z</time>
      </trkpt>
      <trkpt lat="46.3966" lon="2.86958">
        <ele>260.6</ele>
        <time>2018-10-21T06:30:10Z</time>
      </trkpt>
      <trkpt lat="46.39657" lon="2.86965">
        <ele>260.4</ele>
        <time>2018-10-21T06:30:11Z</time>
      </trkpt>
      <trkpt lat="46.39654" lon="2.86972">
        <ele>260.3</ele>
        <time>2018-10-21T06:30:12Z</time>
      </trkpt>
      <trkpt lat="46.39651" lon="2.86978">
        <ele>260.1</ele>
        <time>2018-10-21T06:30:13Z</time>
      </trkpt>
      <trkpt lat="46.39648" lon="2.86984">
        <ele>260</ele>
        <time>2018-10-21T06:30:14Z</time>
      </trkpt>
      <trkpt lat="46.39644" lon="2.86989">
        <ele>259.9</ele>
        <time>2018-10-21T06:30:15Z</time>
      </trkpt>
      <trkpt lat="46.3964" lon="2.86995">
        <ele>259.8</ele>
        <time>2018-10-21T06:30:16Z</time>
      </trkpt>
      <trkpt lat="46.39637" lon="2.87">
        <ele>259.8</ele>
        <time>2018-10-21T06:30:17Z</time>
      </trkpt>
      <trkpt lat="46.39634" lon="2.87005">
        <ele>259.8</ele>
        <time>2018-10-21T06:30:18Z</time>
      </trkpt>
      <trkpt lat="46.3963" lon="2.8701">
        <ele>259.8</ele>
        <time>2018-10-21T06:30:19Z</time>
      </trkpt>
      <trkpt lat="46.39627" lon="2.87015">
        <ele>259.8</ele>
        <time>2018-10-21T06:30:20Z</time>
      </trkpt>
      <trkpt lat="46.39623" lon="2.87019">
        <ele>259.8</ele>
        <time>2018-10-21T06:30:21Z</time>
      </trkpt>
      <trkpt lat="46.3962" lon="2.87024">
        <ele>259.7</ele>
        <time>2018-10-21T06:30:22Z</time>
      </trkpt>
      <trkpt lat="46.39617" lon="2.87029">
        <ele>259.7</ele>
        <time>2018-10-21T06:30:23Z</time>
      </trkpt>
      <trkpt lat="46.39613" lon="2.87033">
        <ele>259.8</ele>
        <time>2018-10-21T06:30:24Z</time>
      </trkpt>
      <trkpt lat="46.3961" lon="2.87038">
        <ele>259.8</ele>
        <time>2018-10-21T06:30:25Z</time>
      </trkpt>
      <trkpt lat="46.39603" lon="2.87047">
        <ele>259.8</ele>
        <time>2018-10-21T06:30:27Z</time>
      </trkpt>
      <trkpt lat="46.396" lon="2.87052">
        <ele>259.8</ele>
        <time>2018-10-21T06:30:28Z</time>
      </trkpt>
      <trkpt lat="46.39597" lon="2.87057">
        <ele>259.9</ele>
        <time>2018-10-21T06:30:29Z</time>
      </trkpt>
      <trkpt lat="46.39594" lon="2.87063">
        <ele>260</ele>
        <time>2018-10-21T06:30:30Z</time>
      </trkpt>
      <trkpt lat="46.39591" lon="2.87068">
        <ele>260.1</ele>
        <time>2018-10-21T06:30:31Z</time>
      </trkpt>
      <trkpt lat="46.39586" lon="2.87079">
        <ele>260.2</ele>
        <time>2018-10-21T06:30:33Z</time>
      </trkpt>
      <trkpt lat="46.39582" lon="2.8709">
        <ele>260.2</ele>
        <time>2018-10-21T06:30:35Z</time>
      </trkpt>
      <trkpt lat="46.39578" lon="2.87101">
        <ele>260.3</ele>
        <time>2018-10-21T06:30:37Z</time>
      </trkpt>
      <trkpt lat="46.39577" lon="2.87107">
        <ele>260.3</ele>
        <time>2018-10-21T06:30:38Z</time>
      </trkpt>
      <trkpt lat="46.39573" lon="2.87119">
        <ele>260.3</ele>
        <time>2018-10-21T06:30:40Z</time>
      </trkpt>
      <trkpt lat="46.39571" lon="2.87131">
        <ele>260.3</ele>
        <time>2018-10-21T06:30:42Z</time>
      </trkpt>
      <trkpt lat="46.39568" lon="2.87143">
        <ele>260.3</ele>
        <time>2018-10-21T06:30:44Z</time>
      </trkpt>
      <trkpt lat="46.39566" lon="2.87155">
        <ele>260.3</ele>
        <time>2018-10-21T06:30:46Z</time>
      </trkpt>
      <trkpt lat="46.39564" lon="2.87167">
        <ele>260.2</ele>
        <time>2018-10-21T06:30:48Z</time>
      </trkpt>
      <trkpt lat="46.39562" lon="2.87179">
        <ele>260.2</ele>
        <time>2018-10-21T06:30:50Z</time>
      </trkpt>
      <trkpt lat="46.3956" lon="2.8719">
        <ele>260.1</ele>
        <time>2018-10-21T06:30:52Z</time>
      </trkpt>
      <trkpt lat="46.39558" lon="2.87203">
        <ele>260</ele>
        <time>2018-10-21T06:30:54Z</time>
      </trkpt>
      <trkpt lat="46.39557" lon="2.87209">
        <ele>260.1</ele>
        <time>2018-10-21T06:30:55Z</time>
      </trkpt>
      <trkpt lat="46.39556" lon="2.87215">
        <ele>260.1</ele>
        <time>2018-10-21T06:30:56Z</time>
      </trkpt>
      <trkpt lat="46.39554" lon="2.87228">
        <ele>260.1</ele>
        <time>2018-10-21T06:30:58Z</time>
      </trkpt>
      <trkpt lat="46.39552" lon="2.8724">
        <ele>260</ele>
        <time>2018-10-21T06:31:00Z</time>
      </trkpt>
      <trkpt lat="46.39549" lon="2.87252">
        <ele>259.8</ele>
        <time>2018-10-21T06:31:02Z</time>
      </trkpt>
      <trkpt lat="46.39546" lon="2.87264">
        <ele>259.6</ele>
        <time>2018-10-21T06:31:04Z</time>
      </trkpt>
      <trkpt lat="46.39544" lon="2.8727">
        <ele>259.5</ele>
        <time>2018-10-21T06:31:05Z</time>
      </trkpt>
      <trkpt lat="46.39542" lon="2.87276">
        <ele>259.4</ele>
        <time>2018-10-21T06:31:06Z</time>
      </trkpt>
      <trkpt lat="46.39539" lon="2.87288">
        <ele>259.4</ele>
        <time>2018-10-21T06:31:08Z</time>
      </trkpt>
      <trkpt lat="46.39535" lon="2.873">
        <ele>259.4</ele>
        <time>2018-10-21T06:31:10Z</time>
      </trkpt>
      <trkpt lat="46.39532" lon="2.87311">
        <ele>259.4</ele>
        <time>2018-10-21T06:31:12Z</time>
      </trkpt>
      <trkpt lat="46.39528" lon="2.87323">
        <ele>259.4</ele>
        <time>2018-10-21T06:31:14Z</time>
      </trkpt>
      <trkpt lat="46.39525" lon="2.87334">
        <ele>259.6</ele>
        <time>2018-10-21T06:31:16Z</time>
      </trkpt>
      <trkpt lat="46.39521" lon="2.87346">
        <ele>259.6</ele>
        <time>2018-10-21T06:31:18Z</time>
      </trkpt>
      <trkpt lat="46.39517" lon="2.87357">
        <ele>259.6</ele>
        <time>2018-10-21T06:31:20Z</time>
      </trkpt>
      <trkpt lat="46.39513" lon="2.87367">
        <ele>259.6</ele>
        <time>2018-10-21T06:31:22Z</time>
      </trkpt>
      <trkpt lat="46.39508" lon="2.87378">
        <ele>259.7</ele>
        <time>2018-10-21T06:31:24Z</time>
      </trkpt>
      <trkpt lat="46.39504" lon="2.87388">
        <ele>259.8</ele>
        <time>2018-10-21T06:31:26Z</time>
      </trkpt>
      <trkpt lat="46.39499" lon="2.87398">
        <ele>260</ele>
        <time>2018-10-21T06:31:28Z</time>
      </trkpt>
      <trkpt lat="46.39494" lon="2.87408">
        <ele>260</ele>
        <time>2018-10-21T06:31:30Z</time>
      </trkpt>
      <trkpt lat="46.39489" lon="2.87418">
        <ele>260.1</ele>
        <time>2018-10-21T06:31:32Z</time>
      </trkpt>
      <trkpt lat="46.39484" lon="2.87428">
        <ele>260</ele>
        <time>2018-10-21T06:31:34Z</time>
      </trkpt>
      <trkpt lat="46.39479" lon="2.87438">
        <ele>260.1</ele>
        <time>2018-10-21T06:31:36Z</time>
      </trkpt>
      <trkpt lat="46.39474" lon="2.87447">
        <ele>260.4</ele>
        <time>2018-10-21T06:31:38Z</time>
      </trkpt>
      <trkpt lat="46.39469" lon="2.87458">
        <ele>260.7</ele>
        <time>2018-10-21T06:31:40Z</time>
      </trkpt>
      <trkpt lat="46.39464" lon="2.87468">
        <ele>260.9</ele>
        <time>2018-10-21T06:31:42Z</time>
      </trkpt>
      <trkpt lat="46.39459" lon="2.87478">
        <ele>261</ele>
        <time>2018-10-21T06:31:44Z</time>
      </trkpt>
      <trkpt lat="46.39453" lon="2.87489">
        <ele>261</ele>
        <time>2018-10-21T06:31:46Z</time>
      </trkpt>
      <trkpt lat="46.39448" lon="2.87499">
        <ele>260.9</ele>
        <time>2018-10-21T06:31:48Z</time>
      </trkpt>
      <trkpt lat="46.39443" lon="2.87509">
        <ele>260.6</ele>
        <time>2018-10-21T06:31:50Z</time>
      </trkpt>
      <trkpt lat="46.39438" lon="2.87519">
        <ele>260.3</ele>
        <time>2018-10-21T06:31:52Z</time>
      </trkpt>
      <trkpt lat="46.39433" lon="2.87529">
        <ele>260</ele>
        <time>2018-10-21T06:31:54Z</time>
      </trkpt>
      <trkpt lat="46.39428" lon="2.87539">
        <ele>259.9</ele>
        <time>2018-10-21T06:31:56Z</time>
      </trkpt>
      <trkpt lat="46.39426" lon="2.87543">
        <ele>259.8</ele>
        <time>2018-10-21T06:31:57Z</time>
      </trkpt>
      <trkpt lat="46.3942" lon="2.87558">
        <ele>259.2</ele>
        <time>2018-10-21T06:32:00Z</time>
      </trkpt>
      <trkpt lat="46.39415" lon="2.87568">
        <ele>258.7</ele>
        <time>2018-10-21T06:32:02Z</time>
      </trkpt>
      <trkpt lat="46.3941" lon="2.87578">
        <ele>258.3</ele>
        <time>2018-10-21T06:32:04Z</time>
      </trkpt>
      <trkpt lat="46.39407" lon="2.87584">
        <ele>258.2</ele>
        <time>2018-10-21T06:32:05Z</time>
      </trkpt>
      <trkpt lat="46.39405" lon="2.87589">
        <ele>258.1</ele>
        <time>2018-10-21T06:32:06Z</time>
      </trkpt>
      <trkpt lat="46.39402" lon="2.87594">
        <ele>258</ele>
        <time>2018-10-21T06:32:07Z</time>
      </trkpt>
      <trkpt lat="46.39399" lon="2.87599">
        <ele>257.9</ele>
        <time>2018-10-21T06:32:08Z</time>
      </trkpt>
      <trkpt lat="46.39396" lon="2.87604">
        <ele>257.9</ele>
        <time>2018-10-21T06:32:09Z</time>
      </trkpt>
      <trkpt lat="46.39393" lon="2.87609">
        <ele>257.9</ele>
        <time>2018-10-21T06:32:10Z</time>
      </trkpt>
      <trkpt lat="46.3939" lon="2.87614">
        <ele>257.9</ele>
        <time>2018-10-21T06:32:11Z</time>
      </trkpt>
      <trkpt lat="46.39384" lon="2.87624">
        <ele>257.9</ele>
        <time>2018-10-21T06:32:13Z</time>
      </trkpt>
      <trkpt lat="46.39378" lon="2.87633">
        <ele>257.8</ele>
        <time>2018-10-21T06:32:15Z</time>
      </trkpt>
      <trkpt lat="46.39373" lon="2.87643">
        <ele>257.8</ele>
        <time>2018-10-21T06:32:17Z</time>
      </trkpt>
      <trkpt lat="46.39367" lon="2.87652">
        <ele>257.6</ele>
        <time>2018-10-21T06:32:19Z</time>
      </trkpt>
      <trkpt lat="46.39362" lon="2.8766">
        <ele>257.3</ele>
        <time>2018-10-21T06:32:21Z</time>
      </trkpt>
      <trkpt lat="46.39358" lon="2.87668">
        <ele>257</ele>
        <time>2018-10-21T06:32:23Z</time>
      </trkpt>
      <trkpt lat="46.39353" lon="2.87676">
        <ele>256.8</ele>
        <time>2018-10-21T06:32:25Z</time>
      </trkpt>
      <trkpt lat="46.39348" lon="2.87685">
        <ele>256.7</ele>
        <time>2018-10-21T06:32:27Z</time>
      </trkpt>
      <trkpt lat="46.39342" lon="2.87693">
        <ele>258.2</ele>
        <time>2018-10-21T06:32:29Z</time>
      </trkpt>
      <trkpt lat="46.39337" lon="2.87702">
        <ele>260.1</ele>
        <time>2018-10-21T06:32:31Z</time>
      </trkpt>
      <trkpt lat="46.39332" lon="2.8771">
        <ele>261.3</ele>
        <time>2018-10-21T06:32:33Z</time>
      </trkpt>
      <trkpt lat="46.39327" lon="2.87718">
        <ele>261.7</ele>
        <time>2018-10-21T06:32:35Z</time>
      </trkpt>
      <trkpt lat="46.39321" lon="2.87728">
        <ele>261.7</ele>
        <time>2018-10-21T06:32:37Z</time>
      </trkpt>
      <trkpt lat="46.39318" lon="2.87734">
        <ele>261.7</ele>
        <time>2018-10-21T06:32:38Z</time>
      </trkpt>
      <trkpt lat="46.39316" lon="2.8774">
        <ele>261.4</ele>
        <time>2018-10-21T06:32:39Z</time>
      </trkpt>
      <trkpt lat="46.39313" lon="2.87746">
        <ele>261.2</ele>
        <time>2018-10-21T06:32:40Z</time>
      </trkpt>
      <trkpt lat="46.39309" lon="2.87753">
        <ele>261.1</ele>
        <time>2018-10-21T06:32:41Z</time>
      </trkpt>
      <trkpt lat="46.39305" lon="2.87759">
        <ele>261.1</ele>
        <time>2018-10-21T06:32:42Z</time>
      </trkpt>
      <trkpt lat="46.39301" lon="2.87765">
        <ele>261.2</ele>
        <time>2018-10-21T06:32:43Z</time>
      </trkpt>
      <trkpt lat="46.39296" lon="2.87769">
        <ele>260.8</ele>
        <time>2018-10-21T06:32:44Z</time>
      </trkpt>
      <trkpt lat="46.39291" lon="2.87774">
        <ele>260.4</ele>
        <time>2018-10-21T06:32:45Z</time>
      </trkpt>
      <trkpt lat="46.39286" lon="2.87778">
        <ele>260.7</ele>
        <time>2018-10-21T06:32:46Z</time>
      </trkpt>
      <trkpt lat="46.39282" lon="2.87782">
        <ele>260.9</ele>
        <time>2018-10-21T06:32:47Z</time>
      </trkpt>
      <trkpt lat="46.39278" lon="2.87786">
        <ele>261.1</ele>
        <time>2018-10-21T06:32:48Z</time>
      </trkpt>
      <trkpt lat="46.39274" lon="2.87792">
        <ele>260.9</ele>
        <time>2018-10-21T06:32:49Z</time>
      </trkpt>
      <trkpt lat="46.39271" lon="2.87798">
        <ele>260.7</ele>
        <time>2018-10-21T06:32:50Z</time>
      </trkpt>
      <trkpt lat="46.39269" lon="2.87805">
        <ele>260.5</ele>
        <time>2018-10-21T06:32:51Z</time>
      </trkpt>
      <trkpt lat="46.39267" lon="2.87811">
        <ele>260.4</ele>
        <time>2018-10-21T06:32:52Z</time>
      </trkpt>
      <trkpt lat="46.39265" lon="2.87817">
        <ele>260.4</ele>
        <time>2018-10-21T06:32:53Z</time>
      </trkpt>
      <trkpt lat="46.39263" lon="2.87823">
        <ele>260.3</ele>
        <time>2018-10-21T06:32:54Z</time>
      </trkpt>
      <trkpt lat="46.39259" lon="2.87835">
        <ele>260.2</ele>
        <time>2018-10-21T06:32:56Z</time>
      </trkpt>
      <trkpt lat="46.39256" lon="2.87846">
        <ele>260.2</ele>
        <time>2018-10-21T06:32:58Z</time>
      </trkpt>
      <trkpt lat="46.39254" lon="2.87852">
        <ele>260.2</ele>
        <time>2018-10-21T06:32:59Z</time>
      </trkpt>
      <trkpt lat="46.39247" lon="2.87869">
        <ele>260.6</ele>
        <time>2018-10-21T06:33:02Z</time>
      </trkpt>
      <trkpt lat="46.39245" lon="2.87874">
        <ele>260.6</ele>
        <time>2018-10-21T06:33:03Z</time>
      </trkpt>
      <trkpt lat="46.3924" lon="2.87885">
        <ele>260.4</ele>
        <time>2018-10-21T06:33:05Z</time>
      </trkpt>
      <trkpt lat="46.39234" lon="2.87895">
        <ele>260.1</ele>
        <time>2018-10-21T06:33:07Z</time>
      </trkpt>
      <trkpt lat="46.39231" lon="2.879">
        <ele>260</ele>
        <time>2018-10-21T06:33:08Z</time>
      </trkpt>
      <trkpt lat="46.39225" lon="2.87909">
        <ele>259.9</ele>
        <time>2018-10-21T06:33:10Z</time>
      </trkpt>
      <trkpt lat="46.39219" lon="2.87919">
        <ele>260</ele>
        <time>2018-10-21T06:33:12Z</time>
      </trkpt>
      <trkpt lat="46.39214" lon="2.87929">
        <ele>260</ele>
        <time>2018-10-21T06:33:14Z</time>
      </trkpt>
      <trkpt lat="46.3921" lon="2.8794">
        <ele>260.5</ele>
        <time>2018-10-21T06:33:16Z</time>
      </trkpt>
      <trkpt lat="46.39206" lon="2.8795">
        <ele>260.4</ele>
        <time>2018-10-21T06:33:18Z</time>
      </trkpt>
      <trkpt lat="46.39202" lon="2.87961">
        <ele>260.6</ele>
        <time>2018-10-21T06:33:20Z</time>
      </trkpt>
      <trkpt lat="46.39198" lon="2.87972">
        <ele>261.1</ele>
        <time>2018-10-21T06:33:22Z</time>
      </trkpt>
      <trkpt lat="46.39195" lon="2.87983">
        <ele>261.4</ele>
        <time>2018-10-21T06:33:24Z</time>
      </trkpt>
      <trkpt lat="46.39191" lon="2.87993">
        <ele>261.5</ele>
        <time>2018-10-21T06:33:26Z</time>
      </trkpt>
      <trkpt lat="46.39188" lon="2.88004">
        <ele>260.9</ele>
        <time>2018-10-21T06:33:28Z</time>
      </trkpt>
      <trkpt lat="46.39185" lon="2.88015">
        <ele>260.9</ele>
        <time>2018-10-21T06:33:30Z</time>
      </trkpt>
      <trkpt lat="46.39183" lon="2.88027">
        <ele>261.4</ele>
        <time>2018-10-21T06:33:32Z</time>
      </trkpt>
      <trkpt lat="46.39182" lon="2.88038">
        <ele>261.7</ele>
        <time>2018-10-21T06:33:34Z</time>
      </trkpt>
      <trkpt lat="46.39182" lon="2.8805">
        <ele>262</ele>
        <time>2018-10-21T06:33:36Z</time>
      </trkpt>
      <trkpt lat="46.39183" lon="2.88061">
        <ele>262.2</ele>
        <time>2018-10-21T06:33:38Z</time>
      </trkpt>
      <trkpt lat="46.39184" lon="2.88072">
        <ele>262.3</ele>
        <time>2018-10-21T06:33:40Z</time>
      </trkpt>
      <trkpt lat="46.39185" lon="2.88083">
        <ele>262.5</ele>
        <time>2018-10-21T06:33:42Z</time>
      </trkpt>
      <trkpt lat="46.39186" lon="2.88095">
        <ele>262.8</ele>
        <time>2018-10-21T06:33:44Z</time>
      </trkpt>
      <trkpt lat="46.39187" lon="2.88107">
        <ele>262.7</ele>
        <time>2018-10-21T06:33:46Z</time>
      </trkpt>
      <trkpt lat="46.39187" lon="2.88118">
        <ele>262.7</ele>
        <time>2018-10-21T06:33:48Z</time>
      </trkpt>
      <trkpt lat="46.39187" lon="2.8813">
        <ele>262.8</ele>
        <time>2018-10-21T06:33:50Z</time>
      </trkpt>
      <trkpt lat="46.39187" lon="2.88141">
        <ele>264.2</ele>
        <time>2018-10-21T06:33:52Z</time>
      </trkpt>
      <trkpt lat="46.39186" lon="2.88152">
        <ele>264.4</ele>
        <time>2018-10-21T06:33:54Z</time>
      </trkpt>
      <trkpt lat="46.39185" lon="2.88163">
        <ele>265.1</ele>
        <time>2018-10-21T06:33:56Z</time>
      </trkpt>
      <trkpt lat="46.39184" lon="2.88175">
        <ele>265.3</ele>
        <time>2018-10-21T06:33:58Z</time>
      </trkpt>
      <trkpt lat="46.39182" lon="2.88186">
        <ele>265</ele>
        <time>2018-10-21T06:34:00Z</time>
      </trkpt>
      <trkpt lat="46.3918" lon="2.88192">
        <ele>264.8</ele>
        <time>2018-10-21T06:34:01Z</time>
      </trkpt>
      <trkpt lat="46.39177" lon="2.88205">
        <ele>264.9</ele>
        <time>2018-10-21T06:34:03Z</time>
      </trkpt>
      <trkpt lat="46.39176" lon="2.88211">
        <ele>264.9</ele>
        <time>2018-10-21T06:34:04Z</time>
      </trkpt>
      <trkpt lat="46.39174" lon="2.88217">
        <ele>264.8</ele>
        <time>2018-10-21T06:34:05Z</time>
      </trkpt>
      <trkpt lat="46.39171" lon="2.88223">
        <ele>264.7</ele>
        <time>2018-10-21T06:34:06Z</time>
      </trkpt>
      <trkpt lat="46.39169" lon="2.88228">
        <ele>264.9</ele>
        <time>2018-10-21T06:34:07Z</time>
      </trkpt>
      <trkpt lat="46.39166" lon="2.88234">
        <ele>265.1</ele>
        <time>2018-10-21T06:34:08Z</time>
      </trkpt>
      <trkpt lat="46.39162" lon="2.88239">
        <ele>265.2</ele>
        <time>2018-10-21T06:34:09Z</time>
      </trkpt>
      <trkpt lat="46.39159" lon="2.88245">
        <ele>265</ele>
        <time>2018-10-21T06:34:10Z</time>
      </trkpt>
      <trkpt lat="46.39155" lon="2.8825">
        <ele>264.8</ele>
        <time>2018-10-21T06:34:11Z</time>
      </trkpt>
      <trkpt lat="46.3915" lon="2.88255">
        <ele>264.5</ele>
        <time>2018-10-21T06:34:12Z</time>
      </trkpt>
      <trkpt lat="46.39146" lon="2.8826">
        <ele>264.3</ele>
        <time>2018-10-21T06:34:13Z</time>
      </trkpt>
      <trkpt lat="46.39141" lon="2.88264">
        <ele>264.1</ele>
        <time>2018-10-21T06:34:14Z</time>
      </trkpt>
      <trkpt lat="46.39136" lon="2.88268">
        <ele>264</ele>
        <time>2018-10-21T06:34:15Z</time>
      </trkpt>
      <trkpt lat="46.39132" lon="2.88272">
        <ele>263.9</ele>
        <time>2018-10-21T06:34:16Z</time>
      </trkpt>
      <trkpt lat="46.39128" lon="2.88276">
        <ele>263.7</ele>
        <time>2018-10-21T06:34:17Z</time>
      </trkpt>
      <trkpt lat="46.39124" lon="2.88281">
        <ele>263.6</ele>
        <time>2018-10-21T06:34:18Z</time>
      </trkpt>
      <trkpt lat="46.3912" lon="2.88286">
        <ele>263.3</ele>
        <time>2018-10-21T06:34:19Z</time>
      </trkpt>
      <trkpt lat="46.39117" lon="2.88292">
        <ele>263.1</ele>
        <time>2018-10-21T06:34:20Z</time>
      </trkpt>
      <trkpt lat="46.39115" lon="2.88299">
        <ele>263</ele>
        <time>2018-10-21T06:34:21Z</time>
      </trkpt>
      <trkpt lat="46.39113" lon="2.88306">
        <ele>263</ele>
        <time>2018-10-21T06:34:22Z</time>
      </trkpt>
      <trkpt lat="46.39111" lon="2.88313">
        <ele>263.1</ele>
        <time>2018-10-21T06:34:23Z</time>
      </trkpt>
      <trkpt lat="46.3911" lon="2.8832">
        <ele>263</ele>
        <time>2018-10-21T06:34:24Z</time>
      </trkpt>
      <trkpt lat="46.39109" lon="2.88328">
        <ele>263</ele>
        <time>2018-10-21T06:34:25Z</time>
      </trkpt>
      <trkpt lat="46.39108" lon="2.88335">
        <ele>262.6</ele>
        <time>2018-10-21T06:34:26Z</time>
      </trkpt>
      <trkpt lat="46.39108" lon="2.88342">
        <ele>262.3</ele>
        <time>2018-10-21T06:34:27Z</time>
      </trkpt>
      <trkpt lat="46.39107" lon="2.88349">
        <ele>262.1</ele>
        <time>2018-10-21T06:34:28Z</time>
      </trkpt>
      <trkpt lat="46.39107" lon="2.88356">
        <ele>262.1</ele>
        <time>2018-10-21T06:34:29Z</time>
      </trkpt>
      <trkpt lat="46.39106" lon="2.88362">
        <ele>262.1</ele>
        <time>2018-10-21T06:34:30Z</time>
      </trkpt>
      <trkpt lat="46.39106" lon="2.88369">
        <ele>262</ele>
        <time>2018-10-21T06:34:31Z</time>
      </trkpt>
      <trkpt lat="46.39106" lon="2.88376">
        <ele>261.8</ele>
        <time>2018-10-21T06:34:32Z</time>
      </trkpt>
      <trkpt lat="46.39106" lon="2.88383">
        <ele>261.7</ele>
        <time>2018-10-21T06:34:33Z</time>
      </trkpt>
      <trkpt lat="46.39106" lon="2.88389">
        <ele>261.6</ele>
        <time>2018-10-21T06:34:34Z</time>
      </trkpt>
      <trkpt lat="46.39106" lon="2.88396">
        <ele>261.5</ele>
        <time>2018-10-21T06:34:35Z</time>
      </trkpt>
      <trkpt lat="46.39105" lon="2.88402">
        <ele>261.4</ele>
        <time>2018-10-21T06:34:36Z</time>
      </trkpt>
      <trkpt lat="46.39105" lon="2.88409">
        <ele>261.3</ele>
        <time>2018-10-21T06:34:37Z</time>
      </trkpt>
      <trkpt lat="46.39105" lon="2.88422">
        <ele>260.9</ele>
        <time>2018-10-21T06:34:39Z</time>
      </trkpt>
      <trkpt lat="46.39106" lon="2.88434">
        <ele>261.1</ele>
        <time>2018-10-21T06:34:41Z</time>
      </trkpt>
      <trkpt lat="46.39108" lon="2.88445">
        <ele>261.3</ele>
        <time>2018-10-21T06:34:43Z</time>
      </trkpt>
      <trkpt lat="46.39111" lon="2.88454">
        <ele>261.5</ele>
        <time>2018-10-21T06:34:45Z</time>
      </trkpt>
      <trkpt lat="46.39114" lon="2.88464">
        <ele>261.9</ele>
        <time>2018-10-21T06:34:47Z</time>
      </trkpt>
      <trkpt lat="46.39116" lon="2.88472">
        <ele>262.3</ele>
        <time>2018-10-21T06:34:49Z</time>
      </trkpt>
      <trkpt lat="46.39118" lon="2.88483">
        <ele>262.6</ele>
        <time>2018-10-21T06:34:52Z</time>
      </trkpt>
      <trkpt lat="46.39121" lon="2.88494">
        <ele>263.3</ele>
        <time>2018-10-21T06:34:55Z</time>
      </trkpt>
      <trkpt lat="46.39123" lon="2.88507">
        <ele>264.5</ele>
        <time>2018-10-21T06:34:58Z</time>
      </trkpt>
      <trkpt lat="46.39124" lon="2.88516">
        <ele>265.1</ele>
        <time>2018-10-21T06:35:00Z</time>
      </trkpt>
      <trkpt lat="46.39125" lon="2.88525">
        <ele>265.4</ele>
        <time>2018-10-21T06:35:02Z</time>
      </trkpt>
      <trkpt lat="46.39126" lon="2.8853">
        <ele>265.4</ele>
        <time>2018-10-21T06:35:03Z</time>
      </trkpt>
      <trkpt lat="46.39127" lon="2.88543">
        <ele>266</ele>
        <time>2018-10-21T06:35:06Z</time>
      </trkpt>
      <trkpt lat="46.39128" lon="2.88552">
        <ele>266</ele>
        <time>2018-10-21T06:35:08Z</time>
      </trkpt>
      <trkpt lat="46.39129" lon="2.88561">
        <ele>266.3</ele>
        <time>2018-10-21T06:35:10Z</time>
      </trkpt>
      <trkpt lat="46.39129" lon="2.88571">
        <ele>266.7</ele>
        <time>2018-10-21T06:35:12Z</time>
      </trkpt>
      <trkpt lat="46.3913" lon="2.88582">
        <ele>267.1</ele>
        <time>2018-10-21T06:35:14Z</time>
      </trkpt>
      <trkpt lat="46.39131" lon="2.88592">
        <ele>267.4</ele>
        <time>2018-10-21T06:35:16Z</time>
      </trkpt>
      <trkpt lat="46.39132" lon="2.88602">
        <ele>267.6</ele>
        <time>2018-10-21T06:35:18Z</time>
      </trkpt>
      <trkpt lat="46.39133" lon="2.88613">
        <ele>267.1</ele>
        <time>2018-10-21T06:35:20Z</time>
      </trkpt>
      <trkpt lat="46.39134" lon="2.88625">
        <ele>267.5</ele>
        <time>2018-10-21T06:35:22Z</time>
      </trkpt>
      <trkpt lat="46.39135" lon="2.88636">
        <ele>267.7</ele>
        <time>2018-10-21T06:35:24Z</time>
      </trkpt>
      <trkpt lat="46.39135" lon="2.88647">
        <ele>267.8</ele>
        <time>2018-10-21T06:35:26Z</time>
      </trkpt>
      <trkpt lat="46.39135" lon="2.88658">
        <ele>268</ele>
        <time>2018-10-21T06:35:28Z</time>
      </trkpt>
      <trkpt lat="46.39136" lon="2.88669">
        <ele>268</ele>
        <time>2018-10-21T06:35:30Z</time>
      </trkpt>
      <trkpt lat="46.39136" lon="2.8868">
        <ele>268</ele>
        <time>2018-10-21T06:35:32Z</time>
      </trkpt>
      <trkpt lat="46.39136" lon="2.88691">
        <ele>268.7</ele>
        <time>2018-10-21T06:35:34Z</time>
      </trkpt>
      <trkpt lat="46.39136" lon="2.88701">
        <ele>268</ele>
        <time>2018-10-21T06:35:36Z</time>
      </trkpt>
      <trkpt lat="46.39136" lon="2.88712">
        <ele>268</ele>
        <time>2018-10-21T06:35:38Z</time>
      </trkpt>
      <trkpt lat="46.39136" lon="2.88723">
        <ele>268.7</ele>
        <time>2018-10-21T06:35:40Z</time>
      </trkpt>
      <trkpt lat="46.39137" lon="2.88734">
        <ele>269.3</ele>
        <time>2018-10-21T06:35:42Z</time>
      </trkpt>
      <trkpt lat="46.39137" lon="2.88746">
        <ele>269.6</ele>
        <time>2018-10-21T06:35:44Z</time>
      </trkpt>
      <trkpt lat="46.39139" lon="2.88757">
        <ele>269.5</ele>
        <time>2018-10-21T06:35:46Z</time>
      </trkpt>
      <trkpt lat="46.3914" lon="2.88769">
        <ele>269.7</ele>
        <time>2018-10-21T06:35:48Z</time>
      </trkpt>
      <trkpt lat="46.39142" lon="2.8878">
        <ele>270.2</ele>
        <time>2018-10-21T06:35:50Z</time>
      </trkpt>
      <trkpt lat="46.39144" lon="2.88791">
        <ele>270.5</ele>
        <time>2018-10-21T06:35:52Z</time>
      </trkpt>
      <trkpt lat="46.39146" lon="2.88802">
        <ele>270.4</ele>
        <time>2018-10-21T06:35:54Z</time>
      </trkpt>
      <trkpt lat="46.39148" lon="2.88813">
        <ele>270.1</ele>
        <time>2018-10-21T06:35:56Z</time>
      </trkpt>
      <trkpt lat="46.39151" lon="2.88824">
        <ele>270.6</ele>
        <time>2018-10-21T06:35:58Z</time>
      </trkpt>
      <trkpt lat="46.39153" lon="2.88835">
        <ele>270.7</ele>
        <time>2018-10-21T06:36:00Z</time>
      </trkpt>
      <trkpt lat="46.39154" lon="2.88846">
        <ele>270.8</ele>
        <time>2018-10-21T06:36:02Z</time>
      </trkpt>
      <trkpt lat="46.39156" lon="2.88857">
        <ele>271.4</ele>
        <time>2018-10-21T06:36:04Z</time>
      </trkpt>
      <trkpt lat="46.39157" lon="2.88863">
        <ele>271.9</ele>
        <time>2018-10-21T06:36:05Z</time>
      </trkpt>
      <trkpt lat="46.39161" lon="2.8888">
        <ele>272.1</ele>
        <time>2018-10-21T06:36:08Z</time>
      </trkpt>
      <trkpt lat="46.39163" lon="2.88891">
        <ele>272.2</ele>
        <time>2018-10-21T06:36:10Z</time>
      </trkpt>
      <trkpt lat="46.39165" lon="2.88902">
        <ele>272.2</ele>
        <time>2018-10-21T06:36:12Z</time>
      </trkpt>
      <trkpt lat="46.39167" lon="2.88913">
        <ele>272.4</ele>
        <time>2018-10-21T06:36:14Z</time>
      </trkpt>
      <trkpt lat="46.39169" lon="2.88925">
        <ele>272.4</ele>
        <time>2018-10-21T06:36:16Z</time>
      </trkpt>
      <trkpt lat="46.39171" lon="2.88936">
        <ele>272.6</ele>
        <time>2018-10-21T06:36:18Z</time>
      </trkpt>
      <trkpt lat="46.39174" lon="2.88947">
        <ele>272.9</ele>
        <time>2018-10-21T06:36:20Z</time>
      </trkpt>
      <trkpt lat="46.39176" lon="2.88958">
        <ele>273.1</ele>
        <time>2018-10-21T06:36:22Z</time>
      </trkpt>
      <trkpt lat="46.39178" lon="2.88969">
        <ele>273</ele>
        <time>2018-10-21T06:36:24Z</time>
      </trkpt>
      <trkpt lat="46.3918" lon="2.8898">
        <ele>272.6</ele>
        <time>2018-10-21T06:36:26Z</time>
      </trkpt>
      <trkpt lat="46.39183" lon="2.8899">
        <ele>272.7</ele>
        <time>2018-10-21T06:36:28Z</time>
      </trkpt>
      <trkpt lat="46.39184" lon="2.89001">
        <ele>272.9</ele>
        <time>2018-10-21T06:36:30Z</time>
      </trkpt>
      <trkpt lat="46.39187" lon="2.89011">
        <ele>273.2</ele>
        <time>2018-10-21T06:36:32Z</time>
      </trkpt>
      <trkpt lat="46.39188" lon="2.89021">
        <ele>273.5</ele>
        <time>2018-10-21T06:36:34Z</time>
      </trkpt>
      <trkpt lat="46.39192" lon="2.89031">
        <ele>274</ele>
        <time>2018-10-21T06:36:38Z</time>
      </trkpt>
      <trkpt lat="46.39198" lon="2.89035">
        <ele>274</ele>
        <time>2018-10-21T06:36:40Z</time>
      </trkpt>
      <trkpt lat="46.39206" lon="2.89039">
        <ele>273.6</ele>
        <time>2018-10-21T06:36:42Z</time>
      </trkpt>
      <trkpt lat="46.3921" lon="2.89042">
        <ele>273.3</ele>
        <time>2018-10-21T06:36:43Z</time>
      </trkpt>
      <trkpt lat="46.39215" lon="2.89045">
        <ele>272.9</ele>
        <time>2018-10-21T06:36:44Z</time>
      </trkpt>
      <trkpt lat="46.3922" lon="2.89047">
        <ele>272.7</ele>
        <time>2018-10-21T06:36:45Z</time>
      </trkpt>
      <trkpt lat="46.39225" lon="2.89048">
        <ele>272.5</ele>
        <time>2018-10-21T06:36:46Z</time>
      </trkpt>
      <trkpt lat="46.3923" lon="2.89048">
        <ele>272.1</ele>
        <time>2018-10-21T06:36:47Z</time>
      </trkpt>
      <trkpt lat="46.39236" lon="2.89047">
        <ele>271.8</ele>
        <time>2018-10-21T06:36:48Z</time>
      </trkpt>
      <trkpt lat="46.39243" lon="2.89045">
        <ele>271.2</ele>
        <time>2018-10-21T06:36:49Z</time>
      </trkpt>
      <trkpt lat="46.3925" lon="2.89041">
        <ele>270.7</ele>
        <time>2018-10-21T06:36:50Z</time>
      </trkpt>
      <trkpt lat="46.39256" lon="2.89036">
        <ele>270.3</ele>
        <time>2018-10-21T06:36:51Z</time>
      </trkpt>
      <trkpt lat="46.39262" lon="2.89032">
        <ele>269.2</ele>
        <time>2018-10-21T06:36:52Z</time>
      </trkpt>
      <trkpt lat="46.39268" lon="2.89026">
        <ele>268.3</ele>
        <time>2018-10-21T06:36:53Z</time>
      </trkpt>
      <trkpt lat="46.39276" lon="2.89021">
        <ele>267.4</ele>
        <time>2018-10-21T06:36:54Z</time>
      </trkpt>
      <trkpt lat="46.39284" lon="2.89017">
        <ele>266.7</ele>
        <time>2018-10-21T06:36:55Z</time>
      </trkpt>
      <trkpt lat="46.39292" lon="2.89015">
        <ele>266</ele>
        <time>2018-10-21T06:36:56Z</time>
      </trkpt>
      <trkpt lat="46.393" lon="2.89012">
        <ele>265.4</ele>
        <time>2018-10-21T06:36:57Z</time>
      </trkpt>
      <trkpt lat="46.39308" lon="2.89009">
        <ele>265</ele>
        <time>2018-10-21T06:36:58Z</time>
      </trkpt>
      <trkpt lat="46.39316" lon="2.89007">
        <ele>264.4</ele>
        <time>2018-10-21T06:36:59Z</time>
      </trkpt>
      <trkpt lat="46.39324" lon="2.89005">
        <ele>263.9</ele>
        <time>2018-10-21T06:37:00Z</time>
      </trkpt>
      <trkpt lat="46.39332" lon="2.89004">
        <ele>263.2</ele>
        <time>2018-10-21T06:37:01Z</time>
      </trkpt>
      <trkpt lat="46.39339" lon="2.89003">
        <ele>262.6</ele>
        <time>2018-10-21T06:37:02Z</time>
      </trkpt>
      <trkpt lat="46.39346" lon="2.89001">
        <ele>262.5</ele>
        <time>2018-10-21T06:37:03Z</time>
      </trkpt>
      <trkpt lat="46.39352" lon="2.88998">
        <ele>262.4</ele>
        <time>2018-10-21T06:37:04Z</time>
      </trkpt>
      <trkpt lat="46.39358" lon="2.88995">
        <ele>262.4</ele>
        <time>2018-10-21T06:37:05Z</time>
      </trkpt>
      <trkpt lat="46.39363" lon="2.88992">
        <ele>261.9</ele>
        <time>2018-10-21T06:37:06Z</time>
      </trkpt>
      <trkpt lat="46.39369" lon="2.88989">
        <ele>261.5</ele>
        <time>2018-10-21T06:37:07Z</time>
      </trkpt>
      <trkpt lat="46.39374" lon="2.88986">
        <ele>261.5</ele>
        <time>2018-10-21T06:37:08Z</time>
      </trkpt>
      <trkpt lat="46.3938" lon="2.88984">
        <ele>261.6</ele>
        <time>2018-10-21T06:37:09Z</time>
      </trkpt>
      <trkpt lat="46.39386" lon="2.88982">
        <ele>261.6</ele>
        <time>2018-10-21T06:37:10Z</time>
      </trkpt>
      <trkpt lat="46.39392" lon="2.8898">
        <ele>261.7</ele>
        <time>2018-10-21T06:37:11Z</time>
      </trkpt>
      <trkpt lat="46.39398" lon="2.88978">
        <ele>261.7</ele>
        <time>2018-10-21T06:37:12Z</time>
      </trkpt>
      <trkpt lat="46.39403" lon="2.88976">
        <ele>262.1</ele>
        <time>2018-10-21T06:37:13Z</time>
      </trkpt>
      <trkpt lat="46.39408" lon="2.88974">
        <ele>262.3</ele>
        <time>2018-10-21T06:37:14Z</time>
      </trkpt>
      <trkpt lat="46.39414" lon="2.88971">
        <ele>262.3</ele>
        <time>2018-10-21T06:37:15Z</time>
      </trkpt>
      <trkpt lat="46.39419" lon="2.88969">
        <ele>262.4</ele>
        <time>2018-10-21T06:37:16Z</time>
      </trkpt>
      <trkpt lat="46.39423" lon="2.88966">
        <ele>262.4</ele>
        <time>2018-10-21T06:37:17Z</time>
      </trkpt>
      <trkpt lat="46.39428" lon="2.88962">
        <ele>262.4</ele>
        <time>2018-10-21T06:37:18Z</time>
      </trkpt>
      <trkpt lat="46.39431" lon="2.88958">
        <ele>262.4</ele>
        <time>2018-10-21T06:37:19Z</time>
      </trkpt>
      <trkpt lat="46.39437" lon="2.8895">
        <ele>262.9</ele>
        <time>2018-10-21T06:37:21Z</time>
      </trkpt>
      <trkpt lat="46.39444" lon="2.88942">
        <ele>262.8</ele>
        <time>2018-10-21T06:37:24Z</time>
      </trkpt>
      <trkpt lat="46.3945" lon="2.88936">
        <ele>264.6</ele>
        <time>2018-10-21T06:37:27Z</time>
      </trkpt>
      <trkpt lat="46.39456" lon="2.88929">
        <ele>265.7</ele>
        <time>2018-10-21T06:37:30Z</time>
      </trkpt>
      <trkpt lat="46.39463" lon="2.88924">
        <ele>267.1</ele>
        <time>2018-10-21T06:37:33Z</time>
      </trkpt>
      <trkpt lat="46.39471" lon="2.88919">
        <ele>269</ele>
        <time>2018-10-21T06:37:37Z</time>
      </trkpt>
      <trkpt lat="46.39477" lon="2.88913">
        <ele>270.2</ele>
        <time>2018-10-21T06:37:40Z</time>
      </trkpt>
      <trkpt lat="46.39484" lon="2.8891">
        <ele>272.1</ele>
        <time>2018-10-21T06:37:44Z</time>
      </trkpt>
      <trkpt lat="46.39492" lon="2.88904">
        <ele>274.3</ele>
        <time>2018-10-21T06:37:48Z</time>
      </trkpt>
      <trkpt lat="46.39499" lon="2.88899">
        <ele>274.8</ele>
        <time>2018-10-21T06:37:52Z</time>
      </trkpt>
      <trkpt lat="46.39507" lon="2.88893">
        <ele>276.2</ele>
        <time>2018-10-21T06:37:57Z</time>
      </trkpt>
      <trkpt lat="46.39513" lon="2.88887">
        <ele>277.2</ele>
        <time>2018-10-21T06:38:01Z</time>
      </trkpt>
      <trkpt lat="46.3952" lon="2.8888">
        <ele>278.2</ele>
        <time>2018-10-21T06:38:05Z</time>
      </trkpt>
      <trkpt lat="46.39526" lon="2.88873">
        <ele>279.8</ele>
        <time>2018-10-21T06:38:09Z</time>
      </trkpt>
      <trkpt lat="46.39527" lon="2.8887">
        <ele>280.2</ele>
        <time>2018-10-21T06:38:10Z</time>
      </trkpt>
      <trkpt lat="46.39536" lon="2.88856">
        <ele>282.5</ele>
        <time>2018-10-21T06:38:17Z</time>
      </trkpt>
      <trkpt lat="46.39543" lon="2.88848">
        <ele>283.7</ele>
        <time>2018-10-21T06:38:21Z</time>
      </trkpt>
      <trkpt lat="46.39549" lon="2.88841">
        <ele>284.8</ele>
        <time>2018-10-21T06:38:25Z</time>
      </trkpt>
      <trkpt lat="46.39555" lon="2.88835">
        <ele>285.1</ele>
        <time>2018-10-21T06:38:30Z</time>
      </trkpt>
      <trkpt lat="46.39563" lon="2.88833">
        <ele>286.5</ele>
        <time>2018-10-21T06:38:35Z</time>
      </trkpt>
      <trkpt lat="46.39571" lon="2.8883">
        <ele>288.2</ele>
        <time>2018-10-21T06:38:39Z</time>
      </trkpt>
      <trkpt lat="46.39578" lon="2.88828">
        <ele>288.3</ele>
        <time>2018-10-21T06:38:42Z</time>
      </trkpt>
      <trkpt lat="46.39584" lon="2.88824">
        <ele>289.3</ele>
        <time>2018-10-21T06:38:45Z</time>
      </trkpt>
      <trkpt lat="46.39591" lon="2.8882">
        <ele>290.2</ele>
        <time>2018-10-21T06:38:48Z</time>
      </trkpt>
      <trkpt lat="46.39599" lon="2.88817">
        <ele>291.2</ele>
        <time>2018-10-21T06:38:52Z</time>
      </trkpt>
      <trkpt lat="46.39608" lon="2.88814">
        <ele>292.3</ele>
        <time>2018-10-21T06:38:56Z</time>
      </trkpt>
      <trkpt lat="46.39617" lon="2.88813">
        <ele>293.3</ele>
        <time>2018-10-21T06:39:00Z</time>
      </trkpt>
      <trkpt lat="46.39623" lon="2.88811">
        <ele>293.9</ele>
        <time>2018-10-21T06:39:03Z</time>
      </trkpt>
      <trkpt lat="46.39632" lon="2.88808">
        <ele>294.8</ele>
        <time>2018-10-21T06:39:07Z</time>
      </trkpt>
      <trkpt lat="46.39639" lon="2.88806">
        <ele>295.5</ele>
        <time>2018-10-21T06:39:10Z</time>
      </trkpt>
      <trkpt lat="46.39642" lon="2.88806">
        <ele>295.6</ele>
        <time>2018-10-21T06:39:11Z</time>
      </trkpt>
      <trkpt lat="46.39654" lon="2.88802">
        <ele>296.8</ele>
        <time>2018-10-21T06:39:16Z</time>
      </trkpt>
      <trkpt lat="46.39663" lon="2.88799">
        <ele>297.1</ele>
        <time>2018-10-21T06:39:20Z</time>
      </trkpt>
      <trkpt lat="46.39671" lon="2.88796">
        <ele>298.6</ele>
        <time>2018-10-21T06:39:25Z</time>
      </trkpt>
      <trkpt lat="46.39679" lon="2.88793">
        <ele>299.3</ele>
        <time>2018-10-21T06:39:29Z</time>
      </trkpt>
      <trkpt lat="46.39688" lon="2.88794">
        <ele>301</ele>
        <time>2018-10-21T06:39:35Z</time>
      </trkpt>
      <trkpt lat="46.39695" lon="2.8879">
        <ele>302</ele>
        <time>2018-10-21T06:39:42Z</time>
      </trkpt>
      <trkpt lat="46.39702" lon="2.88783">
        <ele>302.6</ele>
        <time>2018-10-21T06:39:46Z</time>
      </trkpt>
      <trkpt lat="46.39709" lon="2.88778">
        <ele>303.2</ele>
        <time>2018-10-21T06:39:49Z</time>
      </trkpt>
      <trkpt lat="46.39716" lon="2.88773">
        <ele>304.5</ele>
        <time>2018-10-21T06:39:52Z</time>
      </trkpt>
      <trkpt lat="46.39723" lon="2.88769">
        <ele>304.3</ele>
        <time>2018-10-21T06:39:55Z</time>
      </trkpt>
      <trkpt lat="46.39731" lon="2.88765">
        <ele>304.2</ele>
        <time>2018-10-21T06:39:58Z</time>
      </trkpt>
      <trkpt lat="46.39737" lon="2.8876">
        <ele>304.7</ele>
        <time>2018-10-21T06:40:01Z</time>
      </trkpt>
      <trkpt lat="46.39743" lon="2.88755">
        <ele>305.9</ele>
        <time>2018-10-21T06:40:04Z</time>
      </trkpt>
      <trkpt lat="46.3975" lon="2.8875">
        <ele>306.8</ele>
        <time>2018-10-21T06:40:07Z</time>
      </trkpt>
      <trkpt lat="46.39757" lon="2.88747">
        <ele>307.8</ele>
        <time>2018-10-21T06:40:10Z</time>
      </trkpt>
      <trkpt lat="46.39765" lon="2.88743">
        <ele>307.7</ele>
        <time>2018-10-21T06:40:13Z</time>
      </trkpt>
      <trkpt lat="46.39767" lon="2.88742">
        <ele>308.1</ele>
        <time>2018-10-21T06:40:14Z</time>
      </trkpt>
      <trkpt lat="46.39779" lon="2.88742">
        <ele>308.4</ele>
        <time>2018-10-21T06:40:19Z</time>
      </trkpt>
      <trkpt lat="46.39786" lon="2.88744">
        <ele>309.8</ele>
        <time>2018-10-21T06:40:22Z</time>
      </trkpt>
      <trkpt lat="46.39795" lon="2.88743">
        <ele>309.8</ele>
        <time>2018-10-21T06:40:25Z</time>
      </trkpt>
      <trkpt lat="46.39803" lon="2.88741">
        <ele>310.3</ele>
        <time>2018-10-21T06:40:28Z</time>
      </trkpt>
      <trkpt lat="46.39811" lon="2.8874">
        <ele>310.8</ele>
        <time>2018-10-21T06:40:31Z</time>
      </trkpt>
      <trkpt lat="46.39819" lon="2.88738">
        <ele>311.2</ele>
        <time>2018-10-21T06:40:34Z</time>
      </trkpt>
      <trkpt lat="46.39827" lon="2.88736">
        <ele>312.1</ele>
        <time>2018-10-21T06:40:37Z</time>
      </trkpt>
      <trkpt lat="46.39835" lon="2.88733">
        <ele>312.1</ele>
        <time>2018-10-21T06:40:40Z</time>
      </trkpt>
      <trkpt lat="46.39841" lon="2.8873">
        <ele>312.3</ele>
        <time>2018-10-21T06:40:42Z</time>
      </trkpt>
      <trkpt lat="46.39848" lon="2.88727">
        <ele>312.6</ele>
        <time>2018-10-21T06:40:44Z</time>
      </trkpt>
      <trkpt lat="46.39856" lon="2.88725">
        <ele>311.9</ele>
        <time>2018-10-21T06:40:46Z</time>
      </trkpt>
      <trkpt lat="46.39864" lon="2.88722">
        <ele>312.2</ele>
        <time>2018-10-21T06:40:48Z</time>
      </trkpt>
      <trkpt lat="46.39872" lon="2.88718">
        <ele>312.3</ele>
        <time>2018-10-21T06:40:50Z</time>
      </trkpt>
      <trkpt lat="46.39876" lon="2.88716">
        <ele>312.3</ele>
        <time>2018-10-21T06:40:51Z</time>
      </trkpt>
      <trkpt lat="46.3988" lon="2.88714">
        <ele>312.4</ele>
        <time>2018-10-21T06:40:52Z</time>
      </trkpt>
      <trkpt lat="46.39885" lon="2.88711">
        <ele>312.5</ele>
        <time>2018-10-21T06:40:53Z</time>
      </trkpt>
      <trkpt lat="46.39889" lon="2.88708">
        <ele>312.6</ele>
        <time>2018-10-21T06:40:54Z</time>
      </trkpt>
      <trkpt lat="46.39893" lon="2.88705">
        <ele>312.7</ele>
        <time>2018-10-21T06:40:55Z</time>
      </trkpt>
      <trkpt lat="46.39898" lon="2.88701">
        <ele>312.8</ele>
        <time>2018-10-21T06:40:56Z</time>
      </trkpt>
      <trkpt lat="46.39902" lon="2.88697">
        <ele>312.2</ele>
        <time>2018-10-21T06:40:57Z</time>
      </trkpt>
      <trkpt lat="46.39907" lon="2.88692">
        <ele>311.8</ele>
        <time>2018-10-21T06:40:58Z</time>
      </trkpt>
      <trkpt lat="46.39911" lon="2.88688">
        <ele>311.7</ele>
        <time>2018-10-21T06:40:59Z</time>
      </trkpt>
      <trkpt lat="46.39916" lon="2.88683">
        <ele>311.7</ele>
        <time>2018-10-21T06:41:00Z</time>
      </trkpt>
      <trkpt lat="46.3992" lon="2.88678">
        <ele>311.6</ele>
        <time>2018-10-21T06:41:01Z</time>
      </trkpt>
      <trkpt lat="46.39925" lon="2.88673">
        <ele>311.3</ele>
        <time>2018-10-21T06:41:02Z</time>
      </trkpt>
      <trkpt lat="46.3993" lon="2.88668">
        <ele>311</ele>
        <time>2018-10-21T06:41:03Z</time>
      </trkpt>
      <trkpt lat="46.39934" lon="2.88663">
        <ele>311</ele>
        <time>2018-10-21T06:41:04Z</time>
      </trkpt>
      <trkpt lat="46.39939" lon="2.88658">
        <ele>310.9</ele>
        <time>2018-10-21T06:41:05Z</time>
      </trkpt>
      <trkpt lat="46.39944" lon="2.88652">
        <ele>310.3</ele>
        <time>2018-10-21T06:41:06Z</time>
      </trkpt>
      <trkpt lat="46.39948" lon="2.88646">
        <ele>309.8</ele>
        <time>2018-10-21T06:41:07Z</time>
      </trkpt>
      <trkpt lat="46.39953" lon="2.8864">
        <ele>309.5</ele>
        <time>2018-10-21T06:41:08Z</time>
      </trkpt>
      <trkpt lat="46.39959" lon="2.88635">
        <ele>309.1</ele>
        <time>2018-10-21T06:41:09Z</time>
      </trkpt>
      <trkpt lat="46.39964" lon="2.8863">
        <ele>308.8</ele>
        <time>2018-10-21T06:41:10Z</time>
      </trkpt>
      <trkpt lat="46.3997" lon="2.88626">
        <ele>308.6</ele>
        <time>2018-10-21T06:41:11Z</time>
      </trkpt>
      <trkpt lat="46.39977" lon="2.88624">
        <ele>308.4</ele>
        <time>2018-10-21T06:41:12Z</time>
      </trkpt>
      <trkpt lat="46.39983" lon="2.88624">
        <ele>308.2</ele>
        <time>2018-10-21T06:41:13Z</time>
      </trkpt>
      <trkpt lat="46.39989" lon="2.88624">
        <ele>307.8</ele>
        <time>2018-10-21T06:41:14Z</time>
      </trkpt>
      <trkpt lat="46.39996" lon="2.88626">
        <ele>307.5</ele>
        <time>2018-10-21T06:41:15Z</time>
      </trkpt>
      <trkpt lat="46.40002" lon="2.88629">
        <ele>307.6</ele>
        <time>2018-10-21T06:41:16Z</time>
      </trkpt>
      <trkpt lat="46.40008" lon="2.88631">
        <ele>307.6</ele>
        <time>2018-10-21T06:41:17Z</time>
      </trkpt>
      <trkpt lat="46.40013" lon="2.88634">
        <ele>307.1</ele>
        <time>2018-10-21T06:41:18Z</time>
      </trkpt>
      <trkpt lat="46.40019" lon="2.88637">
        <ele>306.7</ele>
        <time>2018-10-21T06:41:19Z</time>
      </trkpt>
      <trkpt lat="46.40024" lon="2.8864">
        <ele>306.3</ele>
        <time>2018-10-21T06:41:20Z</time>
      </trkpt>
      <trkpt lat="46.4003" lon="2.88643">
        <ele>306.4</ele>
        <time>2018-10-21T06:41:21Z</time>
      </trkpt>
      <trkpt lat="46.40035" lon="2.88646">
        <ele>306.5</ele>
        <time>2018-10-21T06:41:22Z</time>
      </trkpt>
      <trkpt lat="46.4004" lon="2.88649">
        <ele>306.5</ele>
        <time>2018-10-21T06:41:23Z</time>
      </trkpt>
      <trkpt lat="46.40045" lon="2.88652">
        <ele>306.5</ele>
        <time>2018-10-21T06:41:24Z</time>
      </trkpt>
      <trkpt lat="46.4005" lon="2.88655">
        <ele>306.3</ele>
        <time>2018-10-21T06:41:25Z</time>
      </trkpt>
      <trkpt lat="46.40054" lon="2.88658">
        <ele>306.2</ele>
        <time>2018-10-21T06:41:26Z</time>
      </trkpt>
      <trkpt lat="46.40059" lon="2.88661">
        <ele>306.2</ele>
        <time>2018-10-21T06:41:27Z</time>
      </trkpt>
      <trkpt lat="46.40064" lon="2.88664">
        <ele>306.2</ele>
        <time>2018-10-21T06:41:28Z</time>
      </trkpt>
      <trkpt lat="46.40068" lon="2.88667">
        <ele>306.2</ele>
        <time>2018-10-21T06:41:29Z</time>
      </trkpt>
      <trkpt lat="46.40073" lon="2.8867">
        <ele>306.2</ele>
        <time>2018-10-21T06:41:30Z</time>
      </trkpt>
      <trkpt lat="46.40077" lon="2.88673">
        <ele>306.2</ele>
        <time>2018-10-21T06:41:31Z</time>
      </trkpt>
      <trkpt lat="46.40082" lon="2.88675">
        <ele>306.2</ele>
        <time>2018-10-21T06:41:32Z</time>
      </trkpt>
      <trkpt lat="46.40086" lon="2.88678">
        <ele>306.6</ele>
        <time>2018-10-21T06:41:33Z</time>
      </trkpt>
      <trkpt lat="46.40091" lon="2.8868">
        <ele>307</ele>
        <time>2018-10-21T06:41:34Z</time>
      </trkpt>
      <trkpt lat="46.40095" lon="2.88681">
        <ele>307.1</ele>
        <time>2018-10-21T06:41:35Z</time>
      </trkpt>
      <trkpt lat="46.40104" lon="2.88684">
        <ele>307.2</ele>
        <time>2018-10-21T06:41:37Z</time>
      </trkpt>
      <trkpt lat="46.40112" lon="2.88686">
        <ele>307.3</ele>
        <time>2018-10-21T06:41:39Z</time>
      </trkpt>
      <trkpt lat="46.40117" lon="2.88687">
        <ele>307.2</ele>
        <time>2018-10-21T06:41:40Z</time>
      </trkpt>
      <trkpt lat="46.40121" lon="2.88688">
        <ele>307.2</ele>
        <time>2018-10-21T06:41:41Z</time>
      </trkpt>
      <trkpt lat="46.40126" lon="2.88689">
        <ele>307.3</ele>
        <time>2018-10-21T06:41:42Z</time>
      </trkpt>
      <trkpt lat="46.40131" lon="2.8869">
        <ele>307.4</ele>
        <time>2018-10-21T06:41:43Z</time>
      </trkpt>
      <trkpt lat="46.40136" lon="2.88691">
        <ele>307.3</ele>
        <time>2018-10-21T06:41:44Z</time>
      </trkpt>
      <trkpt lat="46.40141" lon="2.88692">
        <ele>307.3</ele>
        <time>2018-10-21T06:41:45Z</time>
      </trkpt>
      <trkpt lat="46.40146" lon="2.88693">
        <ele>307.2</ele>
        <time>2018-10-21T06:41:46Z</time>
      </trkpt>
      <trkpt lat="46.40151" lon="2.88694">
        <ele>307.3</ele>
        <time>2018-10-21T06:41:47Z</time>
      </trkpt>
      <trkpt lat="46.40156" lon="2.88695">
        <ele>307.5</ele>
        <time>2018-10-21T06:41:48Z</time>
      </trkpt>
      <trkpt lat="46.40161" lon="2.88696">
        <ele>307.4</ele>
        <time>2018-10-21T06:41:49Z</time>
      </trkpt>
      <trkpt lat="46.40165" lon="2.88697">
        <ele>307.3</ele>
        <time>2018-10-21T06:41:50Z</time>
      </trkpt>
      <trkpt lat="46.4017" lon="2.88698">
        <ele>307.3</ele>
        <time>2018-10-21T06:41:51Z</time>
      </trkpt>
      <trkpt lat="46.40175" lon="2.88699">
        <ele>307.3</ele>
        <time>2018-10-21T06:41:52Z</time>
      </trkpt>
      <trkpt lat="46.4018" lon="2.887">
        <ele>307.3</ele>
        <time>2018-10-21T06:41:53Z</time>
      </trkpt>
      <trkpt lat="46.40184" lon="2.88701">
        <ele>307.3</ele>
        <time>2018-10-21T06:41:54Z</time>
      </trkpt>
      <trkpt lat="46.40189" lon="2.88702">
        <ele>307.3</ele>
        <time>2018-10-21T06:41:55Z</time>
      </trkpt>
      <trkpt lat="46.40194" lon="2.88703">
        <ele>307.4</ele>
        <time>2018-10-21T06:41:56Z</time>
      </trkpt>
      <trkpt lat="46.40199" lon="2.88704">
        <ele>307.5</ele>
        <time>2018-10-21T06:41:57Z</time>
      </trkpt>
      <trkpt lat="46.40204" lon="2.88705">
        <ele>307.6</ele>
        <time>2018-10-21T06:41:58Z</time>
      </trkpt>
      <trkpt lat="46.40209" lon="2.88706">
        <ele>307.6</ele>
        <time>2018-10-21T06:41:59Z</time>
      </trkpt>
      <trkpt lat="46.40213" lon="2.88707">
        <ele>307.7</ele>
        <time>2018-10-21T06:42:00Z</time>
      </trkpt>
      <trkpt lat="46.40218" lon="2.88708">
        <ele>307.4</ele>
        <time>2018-10-21T06:42:01Z</time>
      </trkpt>
      <trkpt lat="46.40222" lon="2.88709">
        <ele>307.2</ele>
        <time>2018-10-21T06:42:02Z</time>
      </trkpt>
      <trkpt lat="46.40227" lon="2.8871">
        <ele>307</ele>
        <time>2018-10-21T06:42:03Z</time>
      </trkpt>
      <trkpt lat="46.40232" lon="2.88711">
        <ele>306.9</ele>
        <time>2018-10-21T06:42:04Z</time>
      </trkpt>
      <trkpt lat="46.40236" lon="2.88712">
        <ele>306.9</ele>
        <time>2018-10-21T06:42:05Z</time>
      </trkpt>
      <trkpt lat="46.40241" lon="2.88713">
        <ele>306.7</ele>
        <time>2018-10-21T06:42:06Z</time>
      </trkpt>
      <trkpt lat="46.40245" lon="2.88713">
        <ele>306.6</ele>
        <time>2018-10-21T06:42:07Z</time>
      </trkpt>
      <trkpt lat="46.4025" lon="2.88714">
        <ele>306.6</ele>
        <time>2018-10-21T06:42:08Z</time>
      </trkpt>
      <trkpt lat="46.40254" lon="2.88715">
        <ele>306.6</ele>
        <time>2018-10-21T06:42:09Z</time>
      </trkpt>
      <trkpt lat="46.40259" lon="2.88715">
        <ele>306.6</ele>
        <time>2018-10-21T06:42:10Z</time>
      </trkpt>
      <trkpt lat="46.40263" lon="2.88715">
        <ele>306.8</ele>
        <time>2018-10-21T06:42:11Z</time>
      </trkpt>
      <trkpt lat="46.40268" lon="2.88715">
        <ele>306.9</ele>
        <time>2018-10-21T06:42:12Z</time>
      </trkpt>
      <trkpt lat="46.40272" lon="2.88715">
        <ele>306.7</ele>
        <time>2018-10-21T06:42:13Z</time>
      </trkpt>
      <trkpt lat="46.40277" lon="2.88715">
        <ele>306.5</ele>
        <time>2018-10-21T06:42:14Z</time>
      </trkpt>
      <trkpt lat="46.40282" lon="2.88715">
        <ele>306.3</ele>
        <time>2018-10-21T06:42:15Z</time>
      </trkpt>
      <trkpt lat="46.40287" lon="2.88715">
        <ele>306.2</ele>
        <time>2018-10-21T06:42:16Z</time>
      </trkpt>
      <trkpt lat="46.40291" lon="2.88715">
        <ele>306.1</ele>
        <time>2018-10-21T06:42:17Z</time>
      </trkpt>
      <trkpt lat="46.40296" lon="2.88715">
        <ele>305.8</ele>
        <time>2018-10-21T06:42:18Z</time>
      </trkpt>
      <trkpt lat="46.40301" lon="2.88715">
        <ele>305.5</ele>
        <time>2018-10-21T06:42:19Z</time>
      </trkpt>
      <trkpt lat="46.40305" lon="2.88714">
        <ele>305.5</ele>
        <time>2018-10-21T06:42:20Z</time>
      </trkpt>
      <trkpt lat="46.4031" lon="2.88714">
        <ele>305.5</ele>
        <time>2018-10-21T06:42:21Z</time>
      </trkpt>
      <trkpt lat="46.40315" lon="2.88714">
        <ele>305.5</ele>
        <time>2018-10-21T06:42:22Z</time>
      </trkpt>
      <trkpt lat="46.4032" lon="2.88714">
        <ele>305.1</ele>
        <time>2018-10-21T06:42:23Z</time>
      </trkpt>
      <trkpt lat="46.40325" lon="2.88714">
        <ele>304.8</ele>
        <time>2018-10-21T06:42:24Z</time>
      </trkpt>
      <trkpt lat="46.4033" lon="2.88713">
        <ele>305.1</ele>
        <time>2018-10-21T06:42:25Z</time>
      </trkpt>
      <trkpt lat="46.40334" lon="2.88713">
        <ele>305.4</ele>
        <time>2018-10-21T06:42:26Z</time>
      </trkpt>
      <trkpt lat="46.40339" lon="2.88713">
        <ele>305.4</ele>
        <time>2018-10-21T06:42:27Z</time>
      </trkpt>
      <trkpt lat="46.40344" lon="2.88712">
        <ele>305.4</ele>
        <time>2018-10-21T06:42:28Z</time>
      </trkpt>
      <trkpt lat="46.40349" lon="2.88712">
        <ele>305.4</ele>
        <time>2018-10-21T06:42:29Z</time>
      </trkpt>
      <trkpt lat="46.40354" lon="2.88712">
        <ele>305.2</ele>
        <time>2018-10-21T06:42:30Z</time>
      </trkpt>
      <trkpt lat="46.40358" lon="2.88712">
        <ele>305.1</ele>
        <time>2018-10-21T06:42:31Z</time>
      </trkpt>
      <trkpt lat="46.40363" lon="2.88712">
        <ele>304.8</ele>
        <time>2018-10-21T06:42:32Z</time>
      </trkpt>
      <trkpt lat="46.40368" lon="2.88712">
        <ele>304.6</ele>
        <time>2018-10-21T06:42:33Z</time>
      </trkpt>
      <trkpt lat="46.40373" lon="2.88712">
        <ele>304.8</ele>
        <time>2018-10-21T06:42:34Z</time>
      </trkpt>
      <trkpt lat="46.40377" lon="2.88712">
        <ele>304.9</ele>
        <time>2018-10-21T06:42:35Z</time>
      </trkpt>
      <trkpt lat="46.40382" lon="2.88712">
        <ele>305</ele>
        <time>2018-10-21T06:42:36Z</time>
      </trkpt>
      <trkpt lat="46.40387" lon="2.88712">
        <ele>305</ele>
        <time>2018-10-21T06:42:37Z</time>
      </trkpt>
      <trkpt lat="46.40391" lon="2.88712">
        <ele>305</ele>
        <time>2018-10-21T06:42:38Z</time>
      </trkpt>
      <trkpt lat="46.40396" lon="2.88712">
        <ele>304.8</ele>
        <time>2018-10-21T06:42:39Z</time>
      </trkpt>
      <trkpt lat="46.40401" lon="2.88711">
        <ele>304.7</ele>
        <time>2018-10-21T06:42:40Z</time>
      </trkpt>
      <trkpt lat="46.40406" lon="2.88711">
        <ele>304.6</ele>
        <time>2018-10-21T06:42:41Z</time>
      </trkpt>
      <trkpt lat="46.40411" lon="2.88711">
        <ele>304.7</ele>
        <time>2018-10-21T06:42:42Z</time>
      </trkpt>
      <trkpt lat="46.40416" lon="2.88711">
        <ele>304.8</ele>
        <time>2018-10-21T06:42:43Z</time>
      </trkpt>
      <trkpt lat="46.40421" lon="2.8871">
        <ele>304.1</ele>
        <time>2018-10-21T06:42:44Z</time>
      </trkpt>
      <trkpt lat="46.40427" lon="2.88709">
        <ele>303.6</ele>
        <time>2018-10-21T06:42:45Z</time>
      </trkpt>
      <trkpt lat="46.40432" lon="2.88707">
        <ele>303.8</ele>
        <time>2018-10-21T06:42:46Z</time>
      </trkpt>
      <trkpt lat="46.40438" lon="2.88704">
        <ele>303.9</ele>
        <time>2018-10-21T06:42:47Z</time>
      </trkpt>
      <trkpt lat="46.40443" lon="2.88699">
        <ele>304</ele>
        <time>2018-10-21T06:42:48Z</time>
      </trkpt>
      <trkpt lat="46.40448" lon="2.88692">
        <ele>303.2</ele>
        <time>2018-10-21T06:42:49Z</time>
      </trkpt>
      <trkpt lat="46.40452" lon="2.88684">
        <ele>302.6</ele>
        <time>2018-10-21T06:42:50Z</time>
      </trkpt>
      <trkpt lat="46.40455" lon="2.88676">
        <ele>302.2</ele>
        <time>2018-10-21T06:42:51Z</time>
      </trkpt>
      <trkpt lat="46.40459" lon="2.88668">
        <ele>301.9</ele>
        <time>2018-10-21T06:42:52Z</time>
      </trkpt>
      <trkpt lat="46.40462" lon="2.8866">
        <ele>301.5</ele>
        <time>2018-10-21T06:42:53Z</time>
      </trkpt>
      <trkpt lat="46.40466" lon="2.88652">
        <ele>301.2</ele>
        <time>2018-10-21T06:42:54Z</time>
      </trkpt>
      <trkpt lat="46.4047" lon="2.88644">
        <ele>301</ele>
        <time>2018-10-21T06:42:55Z</time>
      </trkpt>
      <trkpt lat="46.40474" lon="2.88636">
        <ele>300.6</ele>
        <time>2018-10-21T06:42:56Z</time>
      </trkpt>
      <trkpt lat="46.40477" lon="2.88628">
        <ele>300.3</ele>
        <time>2018-10-21T06:42:57Z</time>
      </trkpt>
      <trkpt lat="46.40481" lon="2.8862">
        <ele>300.1</ele>
        <time>2018-10-21T06:42:58Z</time>
      </trkpt>
      <trkpt lat="46.40485" lon="2.88612">
        <ele>300</ele>
        <time>2018-10-21T06:42:59Z</time>
      </trkpt>
      <trkpt lat="46.40489" lon="2.88605">
        <ele>299.9</ele>
        <time>2018-10-21T06:43:00Z</time>
      </trkpt>
      <trkpt lat="46.40493" lon="2.88597">
        <ele>299.9</ele>
        <time>2018-10-21T06:43:01Z</time>
      </trkpt>
      <trkpt lat="46.40497" lon="2.8859">
        <ele>299.8</ele>
        <time>2018-10-21T06:43:02Z</time>
      </trkpt>
      <trkpt lat="46.40501" lon="2.88583">
        <ele>299.3</ele>
        <time>2018-10-21T06:43:03Z</time>
      </trkpt>
      <trkpt lat="46.40505" lon="2.88576">
        <ele>298.9</ele>
        <time>2018-10-21T06:43:04Z</time>
      </trkpt>
      <trkpt lat="46.40509" lon="2.88569">
        <ele>298.7</ele>
        <time>2018-10-21T06:43:05Z</time>
      </trkpt>
      <trkpt lat="46.40513" lon="2.88563">
        <ele>298.6</ele>
        <time>2018-10-21T06:43:06Z</time>
      </trkpt>
      <trkpt lat="46.40518" lon="2.88557">
        <ele>298.6</ele>
        <time>2018-10-21T06:43:07Z</time>
      </trkpt>
      <trkpt lat="46.40522" lon="2.88552">
        <ele>298.8</ele>
        <time>2018-10-21T06:43:08Z</time>
      </trkpt>
      <trkpt lat="46.40526" lon="2.88546">
        <ele>299</ele>
        <time>2018-10-21T06:43:09Z</time>
      </trkpt>
      <trkpt lat="46.4053" lon="2.8854">
        <ele>298.6</ele>
        <time>2018-10-21T06:43:10Z</time>
      </trkpt>
      <trkpt lat="46.40535" lon="2.88535">
        <ele>298.2</ele>
        <time>2018-10-21T06:43:11Z</time>
      </trkpt>
      <trkpt lat="46.40539" lon="2.88529">
        <ele>298</ele>
        <time>2018-10-21T06:43:12Z</time>
      </trkpt>
      <trkpt lat="46.40543" lon="2.88524">
        <ele>297.9</ele>
        <time>2018-10-21T06:43:13Z</time>
      </trkpt>
      <trkpt lat="46.40547" lon="2.88518">
        <ele>297.9</ele>
        <time>2018-10-21T06:43:14Z</time>
      </trkpt>
      <trkpt lat="46.40551" lon="2.88513">
        <ele>297.8</ele>
        <time>2018-10-21T06:43:15Z</time>
      </trkpt>
      <trkpt lat="46.40555" lon="2.88507">
        <ele>297.8</ele>
        <time>2018-10-21T06:43:16Z</time>
      </trkpt>
      <trkpt lat="46.40559" lon="2.88501">
        <ele>297.6</ele>
        <time>2018-10-21T06:43:17Z</time>
      </trkpt>
      <trkpt lat="46.40563" lon="2.88496">
        <ele>297.4</ele>
        <time>2018-10-21T06:43:18Z</time>
      </trkpt>
      <trkpt lat="46.40567" lon="2.88491">
        <ele>297.3</ele>
        <time>2018-10-21T06:43:19Z</time>
      </trkpt>
      <trkpt lat="46.40571" lon="2.88486">
        <ele>297.3</ele>
        <time>2018-10-21T06:43:20Z</time>
      </trkpt>
      <trkpt lat="46.40574" lon="2.8848">
        <ele>297.3</ele>
        <time>2018-10-21T06:43:21Z</time>
      </trkpt>
      <trkpt lat="46.40578" lon="2.88475">
        <ele>297.2</ele>
        <time>2018-10-21T06:43:22Z</time>
      </trkpt>
      <trkpt lat="46.40582" lon="2.8847">
        <ele>297</ele>
        <time>2018-10-21T06:43:23Z</time>
      </trkpt>
      <trkpt lat="46.40586" lon="2.88465">
        <ele>296.7</ele>
        <time>2018-10-21T06:43:24Z</time>
      </trkpt>
      <trkpt lat="46.4059" lon="2.8846">
        <ele>296.5</ele>
        <time>2018-10-21T06:43:25Z</time>
      </trkpt>
      <trkpt lat="46.40595" lon="2.88455">
        <ele>296.4</ele>
        <time>2018-10-21T06:43:26Z</time>
      </trkpt>
      <trkpt lat="46.40599" lon="2.8845">
        <ele>296.4</ele>
        <time>2018-10-21T06:43:27Z</time>
      </trkpt>
      <trkpt lat="46.40603" lon="2.88446">
        <ele>296.3</ele>
        <time>2018-10-21T06:43:28Z</time>
      </trkpt>
      <trkpt lat="46.40607" lon="2.88443">
        <ele>296.4</ele>
        <time>2018-10-21T06:43:29Z</time>
      </trkpt>
      <trkpt lat="46.40612" lon="2.88439">
        <ele>296.4</ele>
        <time>2018-10-21T06:43:30Z</time>
      </trkpt>
      <trkpt lat="46.40616" lon="2.88435">
        <ele>296.4</ele>
        <time>2018-10-21T06:43:31Z</time>
      </trkpt>
      <trkpt lat="46.4062" lon="2.88432">
        <ele>296.5</ele>
        <time>2018-10-21T06:43:32Z</time>
      </trkpt>
      <trkpt lat="46.40625" lon="2.88428">
        <ele>296.6</ele>
        <time>2018-10-21T06:43:33Z</time>
      </trkpt>
      <trkpt lat="46.40629" lon="2.88425">
        <ele>296.6</ele>
        <time>2018-10-21T06:43:34Z</time>
      </trkpt>
      <trkpt lat="46.40633" lon="2.88422">
        <ele>296.6</ele>
        <time>2018-10-21T06:43:35Z</time>
      </trkpt>
      <trkpt lat="46.40637" lon="2.88419">
        <ele>296.7</ele>
        <time>2018-10-21T06:43:36Z</time>
      </trkpt>
      <trkpt lat="46.40642" lon="2.88416">
        <ele>296.8</ele>
        <time>2018-10-21T06:43:37Z</time>
      </trkpt>
      <trkpt lat="46.40646" lon="2.88413">
        <ele>296.8</ele>
        <time>2018-10-21T06:43:38Z</time>
      </trkpt>
      <trkpt lat="46.4065" lon="2.8841">
        <ele>296.9</ele>
        <time>2018-10-21T06:43:39Z</time>
      </trkpt>
      <trkpt lat="46.40654" lon="2.88407">
        <ele>297</ele>
        <time>2018-10-21T06:43:40Z</time>
      </trkpt>
      <trkpt lat="46.40663" lon="2.88406">
        <ele>297</ele>
        <time>2018-10-21T06:43:42Z</time>
      </trkpt>
      <trkpt lat="46.40671" lon="2.88411">
        <ele>296.7</ele>
        <time>2018-10-21T06:43:44Z</time>
      </trkpt>
      <trkpt lat="46.40677" lon="2.88419">
        <ele>297</ele>
        <time>2018-10-21T06:43:46Z</time>
      </trkpt>
      <trkpt lat="46.40683" lon="2.88428">
        <ele>297.6</ele>
        <time>2018-10-21T06:43:48Z</time>
      </trkpt>
      <trkpt lat="46.40688" lon="2.88438">
        <ele>297.9</ele>
        <time>2018-10-21T06:43:50Z</time>
      </trkpt>
      <trkpt lat="46.40694" lon="2.88448">
        <ele>298.4</ele>
        <time>2018-10-21T06:43:52Z</time>
      </trkpt>
      <trkpt lat="46.40697" lon="2.88452">
        <ele>297.9</ele>
        <time>2018-10-21T06:43:53Z</time>
      </trkpt>
      <trkpt lat="46.407" lon="2.88457">
        <ele>297.6</ele>
        <time>2018-10-21T06:43:54Z</time>
      </trkpt>
      <trkpt lat="46.40703" lon="2.88462">
        <ele>297.6</ele>
        <time>2018-10-21T06:43:55Z</time>
      </trkpt>
      <trkpt lat="46.40706" lon="2.88467">
        <ele>297.6</ele>
        <time>2018-10-21T06:43:56Z</time>
      </trkpt>
      <trkpt lat="46.40709" lon="2.88472">
        <ele>297.6</ele>
        <time>2018-10-21T06:43:57Z</time>
      </trkpt>
      <trkpt lat="46.40712" lon="2.88477">
        <ele>297.4</ele>
        <time>2018-10-21T06:43:58Z</time>
      </trkpt>
      <trkpt lat="46.40716" lon="2.88482">
        <ele>297.2</ele>
        <time>2018-10-21T06:43:59Z</time>
      </trkpt>
      <trkpt lat="46.40719" lon="2.88487">
        <ele>297.4</ele>
        <time>2018-10-21T06:44:00Z</time>
      </trkpt>
      <trkpt lat="46.40722" lon="2.88493">
        <ele>297.6</ele>
        <time>2018-10-21T06:44:01Z</time>
      </trkpt>
      <trkpt lat="46.40725" lon="2.88498">
        <ele>297.7</ele>
        <time>2018-10-21T06:44:02Z</time>
      </trkpt>
      <trkpt lat="46.40728" lon="2.88503">
        <ele>297.9</ele>
        <time>2018-10-21T06:44:03Z</time>
      </trkpt>
      <trkpt lat="46.40731" lon="2.88508">
        <ele>298</ele>
        <time>2018-10-21T06:44:04Z</time>
      </trkpt>
      <trkpt lat="46.40735" lon="2.88513">
        <ele>297.7</ele>
        <time>2018-10-21T06:44:05Z</time>
      </trkpt>
      <trkpt lat="46.40738" lon="2.88518">
        <ele>297.4</ele>
        <time>2018-10-21T06:44:06Z</time>
      </trkpt>
      <trkpt lat="46.40742" lon="2.88523">
        <ele>297.6</ele>
        <time>2018-10-21T06:44:07Z</time>
      </trkpt>
      <trkpt lat="46.40745" lon="2.88527">
        <ele>297.7</ele>
        <time>2018-10-21T06:44:08Z</time>
      </trkpt>
      <trkpt lat="46.4075" lon="2.88532">
        <ele>297.8</ele>
        <time>2018-10-21T06:44:09Z</time>
      </trkpt>
      <trkpt lat="46.40754" lon="2.88536">
        <ele>297.5</ele>
        <time>2018-10-21T06:44:10Z</time>
      </trkpt>
      <trkpt lat="46.40759" lon="2.88541">
        <ele>297.2</ele>
        <time>2018-10-21T06:44:11Z</time>
      </trkpt>
      <trkpt lat="46.40763" lon="2.88546">
        <ele>297.3</ele>
        <time>2018-10-21T06:44:12Z</time>
      </trkpt>
      <trkpt lat="46.40768" lon="2.8855">
        <ele>297.3</ele>
        <time>2018-10-21T06:44:13Z</time>
      </trkpt>
      <trkpt lat="46.40773" lon="2.88554">
        <ele>296.6</ele>
        <time>2018-10-21T06:44:14Z</time>
      </trkpt>
      <trkpt lat="46.40778" lon="2.88558">
        <ele>296</ele>
        <time>2018-10-21T06:44:15Z</time>
      </trkpt>
      <trkpt lat="46.40784" lon="2.88562">
        <ele>295.6</ele>
        <time>2018-10-21T06:44:16Z</time>
      </trkpt>
      <trkpt lat="46.40789" lon="2.88565">
        <ele>295.5</ele>
        <time>2018-10-21T06:44:17Z</time>
      </trkpt>
      <trkpt lat="46.40795" lon="2.88569">
        <ele>295.5</ele>
        <time>2018-10-21T06:44:18Z</time>
      </trkpt>
      <trkpt lat="46.408" lon="2.88572">
        <ele>295.4</ele>
        <time>2018-10-21T06:44:19Z</time>
      </trkpt>
      <trkpt lat="46.40806" lon="2.88574">
        <ele>295.3</ele>
        <time>2018-10-21T06:44:20Z</time>
      </trkpt>
      <trkpt lat="46.40812" lon="2.88577">
        <ele>295.3</ele>
        <time>2018-10-21T06:44:21Z</time>
      </trkpt>
      <trkpt lat="46.40819" lon="2.88579">
        <ele>294.8</ele>
        <time>2018-10-21T06:44:22Z</time>
      </trkpt>
      <trkpt lat="46.40825" lon="2.88582">
        <ele>294.5</ele>
        <time>2018-10-21T06:44:23Z</time>
      </trkpt>
      <trkpt lat="46.40832" lon="2.88585">
        <ele>293.9</ele>
        <time>2018-10-21T06:44:24Z</time>
      </trkpt>
      <trkpt lat="46.40839" lon="2.88587">
        <ele>293.4</ele>
        <time>2018-10-21T06:44:25Z</time>
      </trkpt>
      <trkpt lat="46.40846" lon="2.8859">
        <ele>293.2</ele>
        <time>2018-10-21T06:44:26Z</time>
      </trkpt>
      <trkpt lat="46.40854" lon="2.88593">
        <ele>293</ele>
        <time>2018-10-21T06:44:27Z</time>
      </trkpt>
      <trkpt lat="46.40861" lon="2.88596">
        <ele>292.8</ele>
        <time>2018-10-21T06:44:28Z</time>
      </trkpt>
      <trkpt lat="46.40869" lon="2.88599">
        <ele>292.3</ele>
        <time>2018-10-21T06:44:29Z</time>
      </trkpt>
      <trkpt lat="46.40876" lon="2.88602">
        <ele>292</ele>
        <time>2018-10-21T06:44:30Z</time>
      </trkpt>
      <trkpt lat="46.40884" lon="2.88605">
        <ele>291.2</ele>
        <time>2018-10-21T06:44:31Z</time>
      </trkpt>
      <trkpt lat="46.40892" lon="2.88608">
        <ele>290.7</ele>
        <time>2018-10-21T06:44:32Z</time>
      </trkpt>
      <trkpt lat="46.40899" lon="2.88612">
        <ele>290.3</ele>
        <time>2018-10-21T06:44:33Z</time>
      </trkpt>
      <trkpt lat="46.40907" lon="2.88615">
        <ele>290.2</ele>
        <time>2018-10-21T06:44:34Z</time>
      </trkpt>
      <trkpt lat="46.40915" lon="2.88618">
        <ele>290.1</ele>
        <time>2018-10-21T06:44:35Z</time>
      </trkpt>
      <trkpt lat="46.40922" lon="2.88621">
        <ele>289.7</ele>
        <time>2018-10-21T06:44:36Z</time>
      </trkpt>
      <trkpt lat="46.4093" lon="2.88624">
        <ele>289.4</ele>
        <time>2018-10-21T06:44:37Z</time>
      </trkpt>
      <trkpt lat="46.40938" lon="2.88627">
        <ele>288.9</ele>
        <time>2018-10-21T06:44:38Z</time>
      </trkpt>
      <trkpt lat="46.40945" lon="2.8863">
        <ele>288.6</ele>
        <time>2018-10-21T06:44:39Z</time>
      </trkpt>
      <trkpt lat="46.40953" lon="2.88633">
        <ele>288.4</ele>
        <time>2018-10-21T06:44:40Z</time>
      </trkpt>
      <trkpt lat="46.4096" lon="2.88636">
        <ele>288</ele>
        <time>2018-10-21T06:44:41Z</time>
      </trkpt>
      <trkpt lat="46.40968" lon="2.88639">
        <ele>287.7</ele>
        <time>2018-10-21T06:44:42Z</time>
      </trkpt>
      <trkpt lat="46.40975" lon="2.88642">
        <ele>287.3</ele>
        <time>2018-10-21T06:44:43Z</time>
      </trkpt>
      <trkpt lat="46.40983" lon="2.88646">
        <ele>286.9</ele>
        <time>2018-10-21T06:44:44Z</time>
      </trkpt>
      <trkpt lat="46.40991" lon="2.88649">
        <ele>286.4</ele>
        <time>2018-10-21T06:44:45Z</time>
      </trkpt>
      <trkpt lat="46.40999" lon="2.88653">
        <ele>286</ele>
        <time>2018-10-21T06:44:46Z</time>
      </trkpt>
      <trkpt lat="46.41007" lon="2.88656">
        <ele>285.7</ele>
        <time>2018-10-21T06:44:47Z</time>
      </trkpt>
      <trkpt lat="46.41015" lon="2.8866">
        <ele>285.1</ele>
        <time>2018-10-21T06:44:48Z</time>
      </trkpt>
      <trkpt lat="46.41023" lon="2.88664">
        <ele>284.7</ele>
        <time>2018-10-21T06:44:49Z</time>
      </trkpt>
      <trkpt lat="46.41031" lon="2.88667">
        <ele>284.2</ele>
        <time>2018-10-21T06:44:50Z</time>
      </trkpt>
      <trkpt lat="46.41038" lon="2.88671">
        <ele>283.8</ele>
        <time>2018-10-21T06:44:51Z</time>
      </trkpt>
      <trkpt lat="46.41046" lon="2.88675">
        <ele>283.6</ele>
        <time>2018-10-21T06:44:52Z</time>
      </trkpt>
      <trkpt lat="46.41054" lon="2.88679">
        <ele>283.2</ele>
        <time>2018-10-21T06:44:53Z</time>
      </trkpt>
      <trkpt lat="46.4106" lon="2.88683">
        <ele>283</ele>
        <time>2018-10-21T06:44:54Z</time>
      </trkpt>
      <trkpt lat="46.41067" lon="2.88687">
        <ele>282.7</ele>
        <time>2018-10-21T06:44:55Z</time>
      </trkpt>
      <trkpt lat="46.41074" lon="2.88691">
        <ele>282.5</ele>
        <time>2018-10-21T06:44:56Z</time>
      </trkpt>
      <trkpt lat="46.41081" lon="2.88695">
        <ele>282.3</ele>
        <time>2018-10-21T06:44:57Z</time>
      </trkpt>
      <trkpt lat="46.41087" lon="2.88699">
        <ele>282.2</ele>
        <time>2018-10-21T06:44:58Z</time>
      </trkpt>
      <trkpt lat="46.41093" lon="2.88704">
        <ele>282.1</ele>
        <time>2018-10-21T06:44:59Z</time>
      </trkpt>
      <trkpt lat="46.41099" lon="2.88709">
        <ele>281.9</ele>
        <time>2018-10-21T06:45:00Z</time>
      </trkpt>
      <trkpt lat="46.41105" lon="2.88713">
        <ele>281.6</ele>
        <time>2018-10-21T06:45:01Z</time>
      </trkpt>
      <trkpt lat="46.41111" lon="2.88718">
        <ele>281.5</ele>
        <time>2018-10-21T06:45:02Z</time>
      </trkpt>
      <trkpt lat="46.41117" lon="2.88722">
        <ele>281.4</ele>
        <time>2018-10-21T06:45:03Z</time>
      </trkpt>
      <trkpt lat="46.41123" lon="2.88727">
        <ele>281.2</ele>
        <time>2018-10-21T06:45:04Z</time>
      </trkpt>
      <trkpt lat="46.41129" lon="2.88732">
        <ele>281</ele>
        <time>2018-10-21T06:45:05Z</time>
      </trkpt>
      <trkpt lat="46.41134" lon="2.88736">
        <ele>280.9</ele>
        <time>2018-10-21T06:45:06Z</time>
      </trkpt>
      <trkpt lat="46.4114" lon="2.8874">
        <ele>280.7</ele>
        <time>2018-10-21T06:45:07Z</time>
      </trkpt>
      <trkpt lat="46.41145" lon="2.88745">
        <ele>280.5</ele>
        <time>2018-10-21T06:45:08Z</time>
      </trkpt>
      <trkpt lat="46.41151" lon="2.88749">
        <ele>280.3</ele>
        <time>2018-10-21T06:45:09Z</time>
      </trkpt>
      <trkpt lat="46.41156" lon="2.88753">
        <ele>280.1</ele>
        <time>2018-10-21T06:45:10Z</time>
      </trkpt>
      <trkpt lat="46.41161" lon="2.88757">
        <ele>279.9</ele>
        <time>2018-10-21T06:45:11Z</time>
      </trkpt>
      <trkpt lat="46.41166" lon="2.88761">
        <ele>279.9</ele>
        <time>2018-10-21T06:45:12Z</time>
      </trkpt>
      <trkpt lat="46.41171" lon="2.88765">
        <ele>279.9</ele>
        <time>2018-10-21T06:45:13Z</time>
      </trkpt>
      <trkpt lat="46.41176" lon="2.88769">
        <ele>279.8</ele>
        <time>2018-10-21T06:45:14Z</time>
      </trkpt>
      <trkpt lat="46.41181" lon="2.88773">
        <ele>279.6</ele>
        <time>2018-10-21T06:45:15Z</time>
      </trkpt>
      <trkpt lat="46.41186" lon="2.88776">
        <ele>279.7</ele>
        <time>2018-10-21T06:45:16Z</time>
      </trkpt>
      <trkpt lat="46.41191" lon="2.88779">
        <ele>279.7</ele>
        <time>2018-10-21T06:45:17Z</time>
      </trkpt>
      <trkpt lat="46.41197" lon="2.88782">
        <ele>279.7</ele>
        <time>2018-10-21T06:45:18Z</time>
      </trkpt>
      <trkpt lat="46.41202" lon="2.88784">
        <ele>279.4</ele>
        <time>2018-10-21T06:45:19Z</time>
      </trkpt>
      <trkpt lat="46.41208" lon="2.88785">
        <ele>279.2</ele>
        <time>2018-10-21T06:45:20Z</time>
      </trkpt>
      <trkpt lat="46.41213" lon="2.88787">
        <ele>279.4</ele>
        <time>2018-10-21T06:45:21Z</time>
      </trkpt>
      <trkpt lat="46.41219" lon="2.88788">
        <ele>279.4</ele>
        <time>2018-10-21T06:45:22Z</time>
      </trkpt>
      <trkpt lat="46.41224" lon="2.88789">
        <ele>279.5</ele>
        <time>2018-10-21T06:45:23Z</time>
      </trkpt>
      <trkpt lat="46.4123" lon="2.8879">
        <ele>279.5</ele>
        <time>2018-10-21T06:45:24Z</time>
      </trkpt>
      <trkpt lat="46.41235" lon="2.88791">
        <ele>279.4</ele>
        <time>2018-10-21T06:45:25Z</time>
      </trkpt>
      <trkpt lat="46.41241" lon="2.88792">
        <ele>279</ele>
        <time>2018-10-21T06:45:26Z</time>
      </trkpt>
      <trkpt lat="46.41246" lon="2.88793">
        <ele>278.8</ele>
        <time>2018-10-21T06:45:27Z</time>
      </trkpt>
      <trkpt lat="46.41252" lon="2.88794">
        <ele>278.6</ele>
        <time>2018-10-21T06:45:28Z</time>
      </trkpt>
      <trkpt lat="46.41257" lon="2.88795">
        <ele>278.5</ele>
        <time>2018-10-21T06:45:29Z</time>
      </trkpt>
      <trkpt lat="46.41262" lon="2.88796">
        <ele>278.4</ele>
        <time>2018-10-21T06:45:30Z</time>
      </trkpt>
      <trkpt lat="46.41267" lon="2.88798">
        <ele>278.3</ele>
        <time>2018-10-21T06:45:31Z</time>
      </trkpt>
      <trkpt lat="46.41272" lon="2.888">
        <ele>278.2</ele>
        <time>2018-10-21T06:45:32Z</time>
      </trkpt>
      <trkpt lat="46.41277" lon="2.88801">
        <ele>277.9</ele>
        <time>2018-10-21T06:45:33Z</time>
      </trkpt>
      <trkpt lat="46.41282" lon="2.88803">
        <ele>277.6</ele>
        <time>2018-10-21T06:45:34Z</time>
      </trkpt>
      <trkpt lat="46.41288" lon="2.88806">
        <ele>277.4</ele>
        <time>2018-10-21T06:45:35Z</time>
      </trkpt>
      <trkpt lat="46.41293" lon="2.88809">
        <ele>277.3</ele>
        <time>2018-10-21T06:45:36Z</time>
      </trkpt>
      <trkpt lat="46.41298" lon="2.88811">
        <ele>277.2</ele>
        <time>2018-10-21T06:45:37Z</time>
      </trkpt>
      <trkpt lat="46.41303" lon="2.88816">
        <ele>277</ele>
        <time>2018-10-21T06:45:38Z</time>
      </trkpt>
      <trkpt lat="46.41308" lon="2.88821">
        <ele>276.8</ele>
        <time>2018-10-21T06:45:39Z</time>
      </trkpt>
      <trkpt lat="46.41314" lon="2.88825">
        <ele>276.4</ele>
        <time>2018-10-21T06:45:40Z</time>
      </trkpt>
      <trkpt lat="46.4132" lon="2.88829">
        <ele>276.2</ele>
        <time>2018-10-21T06:45:41Z</time>
      </trkpt>
      <trkpt lat="46.41327" lon="2.88831">
        <ele>276</ele>
        <time>2018-10-21T06:45:42Z</time>
      </trkpt>
      <trkpt lat="46.41334" lon="2.88833">
        <ele>275.6</ele>
        <time>2018-10-21T06:45:43Z</time>
      </trkpt>
      <trkpt lat="46.41341" lon="2.88835">
        <ele>275.3</ele>
        <time>2018-10-21T06:45:44Z</time>
      </trkpt>
      <trkpt lat="46.41348" lon="2.88837">
        <ele>274.7</ele>
        <time>2018-10-21T06:45:45Z</time>
      </trkpt>
      <trkpt lat="46.41356" lon="2.88839">
        <ele>274.2</ele>
        <time>2018-10-21T06:45:46Z</time>
      </trkpt>
      <trkpt lat="46.41364" lon="2.88842">
        <ele>273.6</ele>
        <time>2018-10-21T06:45:47Z</time>
      </trkpt>
      <trkpt lat="46.41372" lon="2.88844">
        <ele>273.2</ele>
        <time>2018-10-21T06:45:48Z</time>
      </trkpt>
      <trkpt lat="46.41381" lon="2.88846">
        <ele>272.9</ele>
        <time>2018-10-21T06:45:49Z</time>
      </trkpt>
      <trkpt lat="46.41389" lon="2.88847">
        <ele>272.5</ele>
        <time>2018-10-21T06:45:50Z</time>
      </trkpt>
      <trkpt lat="46.41397" lon="2.88848">
        <ele>272.3</ele>
        <time>2018-10-21T06:45:51Z</time>
      </trkpt>
      <trkpt lat="46.41406" lon="2.88849">
        <ele>271.4</ele>
        <time>2018-10-21T06:45:52Z</time>
      </trkpt>
      <trkpt lat="46.41415" lon="2.8885">
        <ele>270.8</ele>
        <time>2018-10-21T06:45:53Z</time>
      </trkpt>
      <trkpt lat="46.41424" lon="2.88851">
        <ele>270.1</ele>
        <time>2018-10-21T06:45:54Z</time>
      </trkpt>
      <trkpt lat="46.41433" lon="2.88852">
        <ele>269.6</ele>
        <time>2018-10-21T06:45:55Z</time>
      </trkpt>
      <trkpt lat="46.41442" lon="2.88853">
        <ele>269.2</ele>
        <time>2018-10-21T06:45:56Z</time>
      </trkpt>
      <trkpt lat="46.41451" lon="2.88855">
        <ele>268.2</ele>
        <time>2018-10-21T06:45:57Z</time>
      </trkpt>
      <trkpt lat="46.41461" lon="2.88857">
        <ele>267.4</ele>
        <time>2018-10-21T06:45:58Z</time>
      </trkpt>
      <trkpt lat="46.4147" lon="2.8886">
        <ele>266.7</ele>
        <time>2018-10-21T06:45:59Z</time>
      </trkpt>
      <trkpt lat="46.41479" lon="2.88863">
        <ele>266.1</ele>
        <time>2018-10-21T06:46:00Z</time>
      </trkpt>
      <trkpt lat="46.41487" lon="2.88866">
        <ele>265.7</ele>
        <time>2018-10-21T06:46:01Z</time>
      </trkpt>
      <trkpt lat="46.41496" lon="2.88868">
        <ele>265.2</ele>
        <time>2018-10-21T06:46:02Z</time>
      </trkpt>
      <trkpt lat="46.41505" lon="2.8887">
        <ele>264.7</ele>
        <time>2018-10-21T06:46:03Z</time>
      </trkpt>
      <trkpt lat="46.41514" lon="2.88871">
        <ele>264.2</ele>
        <time>2018-10-21T06:46:04Z</time>
      </trkpt>
      <trkpt lat="46.41523" lon="2.88871">
        <ele>263.7</ele>
        <time>2018-10-21T06:46:05Z</time>
      </trkpt>
      <trkpt lat="46.41531" lon="2.88871">
        <ele>263.3</ele>
        <time>2018-10-21T06:46:06Z</time>
      </trkpt>
      <trkpt lat="46.4154" lon="2.8887">
        <ele>262.9</ele>
        <time>2018-10-21T06:46:07Z</time>
      </trkpt>
      <trkpt lat="46.41548" lon="2.88869">
        <ele>262.7</ele>
        <time>2018-10-21T06:46:08Z</time>
      </trkpt>
      <trkpt lat="46.41557" lon="2.88867">
        <ele>262.4</ele>
        <time>2018-10-21T06:46:09Z</time>
      </trkpt>
      <trkpt lat="46.41566" lon="2.88867">
        <ele>262.2</ele>
        <time>2018-10-21T06:46:10Z</time>
      </trkpt>
      <trkpt lat="46.41574" lon="2.88868">
        <ele>261.8</ele>
        <time>2018-10-21T06:46:11Z</time>
      </trkpt>
      <trkpt lat="46.41583" lon="2.88869">
        <ele>261.5</ele>
        <time>2018-10-21T06:46:12Z</time>
      </trkpt>
      <trkpt lat="46.41591" lon="2.8887">
        <ele>261.2</ele>
        <time>2018-10-21T06:46:13Z</time>
      </trkpt>
      <trkpt lat="46.416" lon="2.88871">
        <ele>260.5</ele>
        <time>2018-10-21T06:46:14Z</time>
      </trkpt>
      <trkpt lat="46.41608" lon="2.88872">
        <ele>260</ele>
        <time>2018-10-21T06:46:15Z</time>
      </trkpt>
      <trkpt lat="46.41616" lon="2.88873">
        <ele>259.7</ele>
        <time>2018-10-21T06:46:16Z</time>
      </trkpt>
      <trkpt lat="46.41624" lon="2.88875">
        <ele>259.5</ele>
        <time>2018-10-21T06:46:17Z</time>
      </trkpt>
      <trkpt lat="46.41632" lon="2.88878">
        <ele>258.7</ele>
        <time>2018-10-21T06:46:18Z</time>
      </trkpt>
      <trkpt lat="46.4164" lon="2.88881">
        <ele>258.1</ele>
        <time>2018-10-21T06:46:19Z</time>
      </trkpt>
      <trkpt lat="46.41647" lon="2.88885">
        <ele>257.7</ele>
        <time>2018-10-21T06:46:20Z</time>
      </trkpt>
      <trkpt lat="46.41654" lon="2.88889">
        <ele>257.6</ele>
        <time>2018-10-21T06:46:21Z</time>
      </trkpt>
      <trkpt lat="46.4166" lon="2.88894">
        <ele>257.5</ele>
        <time>2018-10-21T06:46:22Z</time>
      </trkpt>
      <trkpt lat="46.41666" lon="2.88899">
        <ele>257.2</ele>
        <time>2018-10-21T06:46:23Z</time>
      </trkpt>
      <trkpt lat="46.41672" lon="2.88906">
        <ele>256.9</ele>
        <time>2018-10-21T06:46:24Z</time>
      </trkpt>
      <trkpt lat="46.41677" lon="2.88912">
        <ele>257</ele>
        <time>2018-10-21T06:46:25Z</time>
      </trkpt>
      <trkpt lat="46.41682" lon="2.88919">
        <ele>257</ele>
        <time>2018-10-21T06:46:26Z</time>
      </trkpt>
      <trkpt lat="46.41686" lon="2.88926">
        <ele>257</ele>
        <time>2018-10-21T06:46:27Z</time>
      </trkpt>
      <trkpt lat="46.41689" lon="2.88934">
        <ele>256.8</ele>
        <time>2018-10-21T06:46:28Z</time>
      </trkpt>
      <trkpt lat="46.41692" lon="2.88942">
        <ele>256.6</ele>
        <time>2018-10-21T06:46:29Z</time>
      </trkpt>
      <trkpt lat="46.41696" lon="2.88949">
        <ele>256.4</ele>
        <time>2018-10-21T06:46:30Z</time>
      </trkpt>
      <trkpt lat="46.41699" lon="2.88956">
        <ele>256.3</ele>
        <time>2018-10-21T06:46:31Z</time>
      </trkpt>
      <trkpt lat="46.41702" lon="2.88962">
        <ele>256.2</ele>
        <time>2018-10-21T06:46:32Z</time>
      </trkpt>
      <trkpt lat="46.41705" lon="2.88969">
        <ele>256</ele>
        <time>2018-10-21T06:46:33Z</time>
      </trkpt>
      <trkpt lat="46.41708" lon="2.88976">
        <ele>255.9</ele>
        <time>2018-10-21T06:46:34Z</time>
      </trkpt>
      <trkpt lat="46.4171" lon="2.88983">
        <ele>255.4</ele>
        <time>2018-10-21T06:46:35Z</time>
      </trkpt>
      <trkpt lat="46.41713" lon="2.88989">
        <ele>255</ele>
        <time>2018-10-21T06:46:36Z</time>
      </trkpt>
      <trkpt lat="46.41715" lon="2.88997">
        <ele>255.1</ele>
        <time>2018-10-21T06:46:37Z</time>
      </trkpt>
      <trkpt lat="46.41717" lon="2.89004">
        <ele>255.1</ele>
        <time>2018-10-21T06:46:38Z</time>
      </trkpt>
      <trkpt lat="46.41719" lon="2.89011">
        <ele>255.2</ele>
        <time>2018-10-21T06:46:39Z</time>
      </trkpt>
      <trkpt lat="46.41721" lon="2.89019">
        <ele>255</ele>
        <time>2018-10-21T06:46:40Z</time>
      </trkpt>
      <trkpt lat="46.41723" lon="2.89027">
        <ele>254.9</ele>
        <time>2018-10-21T06:46:41Z</time>
      </trkpt>
      <trkpt lat="46.41724" lon="2.89035">
        <ele>254.9</ele>
        <time>2018-10-21T06:46:42Z</time>
      </trkpt>
      <trkpt lat="46.41725" lon="2.89043">
        <ele>254.9</ele>
        <time>2018-10-21T06:46:43Z</time>
      </trkpt>
      <trkpt lat="46.41726" lon="2.89051">
        <ele>254.9</ele>
        <time>2018-10-21T06:46:44Z</time>
      </trkpt>
      <trkpt lat="46.41727" lon="2.89059">
        <ele>254.4</ele>
        <time>2018-10-21T06:46:45Z</time>
      </trkpt>
      <trkpt lat="46.41728" lon="2.89067">
        <ele>254</ele>
        <time>2018-10-21T06:46:46Z</time>
      </trkpt>
      <trkpt lat="46.41729" lon="2.89075">
        <ele>253.6</ele>
        <time>2018-10-21T06:46:47Z</time>
      </trkpt>
      <trkpt lat="46.4173" lon="2.89084">
        <ele>253.2</ele>
        <time>2018-10-21T06:46:48Z</time>
      </trkpt>
      <trkpt lat="46.4173" lon="2.89092">
        <ele>252.9</ele>
        <time>2018-10-21T06:46:49Z</time>
      </trkpt>
      <trkpt lat="46.41731" lon="2.891">
        <ele>252.7</ele>
        <time>2018-10-21T06:46:50Z</time>
      </trkpt>
      <trkpt lat="46.41731" lon="2.89109">
        <ele>252.6</ele>
        <time>2018-10-21T06:46:51Z</time>
      </trkpt>
      <trkpt lat="46.41732" lon="2.89117">
        <ele>252.2</ele>
        <time>2018-10-21T06:46:52Z</time>
      </trkpt>
      <trkpt lat="46.41732" lon="2.89125">
        <ele>251.9</ele>
        <time>2018-10-21T06:46:53Z</time>
      </trkpt>
      <trkpt lat="46.41734" lon="2.89133">
        <ele>252.2</ele>
        <time>2018-10-21T06:46:54Z</time>
      </trkpt>
      <trkpt lat="46.41736" lon="2.8914">
        <ele>252.4</ele>
        <time>2018-10-21T06:46:55Z</time>
      </trkpt>
      <trkpt lat="46.41739" lon="2.89146">
        <ele>252.3</ele>
        <time>2018-10-21T06:46:56Z</time>
      </trkpt>
      <trkpt lat="46.41744" lon="2.89151">
        <ele>252.2</ele>
        <time>2018-10-21T06:46:57Z</time>
      </trkpt>
      <trkpt lat="46.41749" lon="2.89154">
        <ele>252.1</ele>
        <time>2018-10-21T06:46:58Z</time>
      </trkpt>
      <trkpt lat="46.41754" lon="2.89155">
        <ele>251.6</ele>
        <time>2018-10-21T06:46:59Z</time>
      </trkpt>
      <trkpt lat="46.41758" lon="2.89157">
        <ele>251.2</ele>
        <time>2018-10-21T06:47:00Z</time>
      </trkpt>
      <trkpt lat="46.41763" lon="2.89159">
        <ele>251.2</ele>
        <time>2018-10-21T06:47:01Z</time>
      </trkpt>
      <trkpt lat="46.41768" lon="2.89162">
        <ele>251.2</ele>
        <time>2018-10-21T06:47:02Z</time>
      </trkpt>
      <trkpt lat="46.41773" lon="2.89164">
        <ele>251.2</ele>
        <time>2018-10-21T06:47:03Z</time>
      </trkpt>
      <trkpt lat="46.41779" lon="2.89166">
        <ele>250.5</ele>
        <time>2018-10-21T06:47:04Z</time>
      </trkpt>
      <trkpt lat="46.41784" lon="2.89169">
        <ele>250</ele>
        <time>2018-10-21T06:47:05Z</time>
      </trkpt>
      <trkpt lat="46.41789" lon="2.89171">
        <ele>250</ele>
        <time>2018-10-21T06:47:06Z</time>
      </trkpt>
      <trkpt lat="46.41794" lon="2.89173">
        <ele>249.9</ele>
        <time>2018-10-21T06:47:07Z</time>
      </trkpt>
      <trkpt lat="46.41799" lon="2.89176">
        <ele>249.5</ele>
        <time>2018-10-21T06:47:08Z</time>
      </trkpt>
      <trkpt lat="46.41807" lon="2.89181">
        <ele>248.9</ele>
        <time>2018-10-21T06:47:10Z</time>
      </trkpt>
      <trkpt lat="46.41814" lon="2.89185">
        <ele>249.5</ele>
        <time>2018-10-21T06:47:12Z</time>
      </trkpt>
      <trkpt lat="46.41821" lon="2.89189">
        <ele>250</ele>
        <time>2018-10-21T06:47:14Z</time>
      </trkpt>
      <trkpt lat="46.41828" lon="2.89193">
        <ele>250.4</ele>
        <time>2018-10-21T06:47:16Z</time>
      </trkpt>
      <trkpt lat="46.41835" lon="2.89198">
        <ele>250.6</ele>
        <time>2018-10-21T06:47:18Z</time>
      </trkpt>
      <trkpt lat="46.41842" lon="2.89202">
        <ele>251.1</ele>
        <time>2018-10-21T06:47:20Z</time>
      </trkpt>
      <trkpt lat="46.41846" lon="2.89204">
        <ele>251.4</ele>
        <time>2018-10-21T06:47:21Z</time>
      </trkpt>
      <trkpt lat="46.41857" lon="2.8921">
        <ele>251.8</ele>
        <time>2018-10-21T06:47:24Z</time>
      </trkpt>
      <trkpt lat="46.41864" lon="2.89214">
        <ele>252.1</ele>
        <time>2018-10-21T06:47:26Z</time>
      </trkpt>
      <trkpt lat="46.4187" lon="2.89218">
        <ele>252.5</ele>
        <time>2018-10-21T06:47:28Z</time>
      </trkpt>
      <trkpt lat="46.41877" lon="2.89223">
        <ele>252.3</ele>
        <time>2018-10-21T06:47:30Z</time>
      </trkpt>
      <trkpt lat="46.41883" lon="2.89227">
        <ele>252.4</ele>
        <time>2018-10-21T06:47:32Z</time>
      </trkpt>
      <trkpt lat="46.41889" lon="2.89231">
        <ele>252.9</ele>
        <time>2018-10-21T06:47:34Z</time>
      </trkpt>
      <trkpt lat="46.41895" lon="2.89235">
        <ele>252.7</ele>
        <time>2018-10-21T06:47:36Z</time>
      </trkpt>
      <trkpt lat="46.41902" lon="2.89239">
        <ele>253.1</ele>
        <time>2018-10-21T06:47:38Z</time>
      </trkpt>
      <trkpt lat="46.41908" lon="2.89243">
        <ele>253.7</ele>
        <time>2018-10-21T06:47:40Z</time>
      </trkpt>
      <trkpt lat="46.41914" lon="2.89246">
        <ele>253.9</ele>
        <time>2018-10-21T06:47:42Z</time>
      </trkpt>
      <trkpt lat="46.4192" lon="2.8925">
        <ele>254.2</ele>
        <time>2018-10-21T06:47:44Z</time>
      </trkpt>
      <trkpt lat="46.41926" lon="2.89253">
        <ele>254.7</ele>
        <time>2018-10-21T06:47:46Z</time>
      </trkpt>
      <trkpt lat="46.41932" lon="2.89256">
        <ele>255</ele>
        <time>2018-10-21T06:47:48Z</time>
      </trkpt>
      <trkpt lat="46.41938" lon="2.89259">
        <ele>255.8</ele>
        <time>2018-10-21T06:47:50Z</time>
      </trkpt>
      <trkpt lat="46.41946" lon="2.89265">
        <ele>256.4</ele>
        <time>2018-10-21T06:47:53Z</time>
      </trkpt>
      <trkpt lat="46.41953" lon="2.89271">
        <ele>257.2</ele>
        <time>2018-10-21T06:47:56Z</time>
      </trkpt>
      <trkpt lat="46.41959" lon="2.89277">
        <ele>258.1</ele>
        <time>2018-10-21T06:47:59Z</time>
      </trkpt>
      <trkpt lat="46.41966" lon="2.89284">
        <ele>258.9</ele>
        <time>2018-10-21T06:48:03Z</time>
      </trkpt>
      <trkpt lat="46.41972" lon="2.89291">
        <ele>259.9</ele>
        <time>2018-10-21T06:48:07Z</time>
      </trkpt>
      <trkpt lat="46.41978" lon="2.89298">
        <ele>261</ele>
        <time>2018-10-21T06:48:11Z</time>
      </trkpt>
      <trkpt lat="46.41985" lon="2.89305">
        <ele>261.8</ele>
        <time>2018-10-21T06:48:15Z</time>
      </trkpt>
      <trkpt lat="46.41991" lon="2.8931">
        <ele>262.7</ele>
        <time>2018-10-21T06:48:18Z</time>
      </trkpt>
      <trkpt lat="46.41997" lon="2.89317">
        <ele>263.1</ele>
        <time>2018-10-21T06:48:21Z</time>
      </trkpt>
      <trkpt lat="46.41999" lon="2.89319">
        <ele>263.2</ele>
        <time>2018-10-21T06:48:22Z</time>
      </trkpt>
      <trkpt lat="46.42008" lon="2.89329">
        <ele>264.1</ele>
        <time>2018-10-21T06:48:27Z</time>
      </trkpt>
      <trkpt lat="46.42015" lon="2.89337">
        <ele>265.8</ele>
        <time>2018-10-21T06:48:31Z</time>
      </trkpt>
      <trkpt lat="46.42022" lon="2.89345">
        <ele>266</ele>
        <time>2018-10-21T06:48:35Z</time>
      </trkpt>
      <trkpt lat="46.42027" lon="2.89351">
        <ele>267</ele>
        <time>2018-10-21T06:48:38Z</time>
      </trkpt>
      <trkpt lat="46.42032" lon="2.89358">
        <ele>267.5</ele>
        <time>2018-10-21T06:48:41Z</time>
      </trkpt>
      <trkpt lat="46.42038" lon="2.89365">
        <ele>268</ele>
        <time>2018-10-21T06:48:44Z</time>
      </trkpt>
      <trkpt lat="46.42043" lon="2.89373">
        <ele>269.1</ele>
        <time>2018-10-21T06:48:47Z</time>
      </trkpt>
      <trkpt lat="46.42049" lon="2.8938">
        <ele>269.8</ele>
        <time>2018-10-21T06:48:50Z</time>
      </trkpt>
      <trkpt lat="46.42055" lon="2.89388">
        <ele>269.5</ele>
        <time>2018-10-21T06:48:53Z</time>
      </trkpt>
      <trkpt lat="46.42061" lon="2.89397">
        <ele>270.3</ele>
        <time>2018-10-21T06:48:56Z</time>
      </trkpt>
      <trkpt lat="46.42065" lon="2.89403">
        <ele>271</ele>
        <time>2018-10-21T06:48:58Z</time>
      </trkpt>
      <trkpt lat="46.42069" lon="2.89409">
        <ele>271.7</ele>
        <time>2018-10-21T06:49:00Z</time>
      </trkpt>
      <trkpt lat="46.42076" lon="2.89419">
        <ele>271.9</ele>
        <time>2018-10-21T06:49:03Z</time>
      </trkpt>
      <trkpt lat="46.42083" lon="2.89426">
        <ele>272.4</ele>
        <time>2018-10-21T06:49:06Z</time>
      </trkpt>
      <trkpt lat="46.42088" lon="2.8943">
        <ele>272.4</ele>
        <time>2018-10-21T06:49:08Z</time>
      </trkpt>
      <trkpt lat="46.42094" lon="2.89435">
        <ele>272.5</ele>
        <time>2018-10-21T06:49:10Z</time>
      </trkpt>
      <trkpt lat="46.42099" lon="2.89439">
        <ele>272.6</ele>
        <time>2018-10-21T06:49:12Z</time>
      </trkpt>
      <trkpt lat="46.42104" lon="2.89445">
        <ele>273</ele>
        <time>2018-10-21T06:49:14Z</time>
      </trkpt>
      <trkpt lat="46.4211" lon="2.8945">
        <ele>273.5</ele>
        <time>2018-10-21T06:49:16Z</time>
      </trkpt>
      <trkpt lat="46.42116" lon="2.89456">
        <ele>273.2</ele>
        <time>2018-10-21T06:49:18Z</time>
      </trkpt>
      <trkpt lat="46.42121" lon="2.89462">
        <ele>273.5</ele>
        <time>2018-10-21T06:49:20Z</time>
      </trkpt>
      <trkpt lat="46.42126" lon="2.89468">
        <ele>273.7</ele>
        <time>2018-10-21T06:49:22Z</time>
      </trkpt>
      <trkpt lat="46.42129" lon="2.89471">
        <ele>273.8</ele>
        <time>2018-10-21T06:49:23Z</time>
      </trkpt>
      <trkpt lat="46.42136" lon="2.89482">
        <ele>274</ele>
        <time>2018-10-21T06:49:26Z</time>
      </trkpt>
      <trkpt lat="46.42141" lon="2.8949">
        <ele>273.9</ele>
        <time>2018-10-21T06:49:28Z</time>
      </trkpt>
      <trkpt lat="46.42146" lon="2.89498">
        <ele>273.7</ele>
        <time>2018-10-21T06:49:30Z</time>
      </trkpt>
      <trkpt lat="46.42151" lon="2.89506">
        <ele>273</ele>
        <time>2018-10-21T06:49:32Z</time>
      </trkpt>
      <trkpt lat="46.42157" lon="2.89516">
        <ele>273.2</ele>
        <time>2018-10-21T06:49:34Z</time>
      </trkpt>
      <trkpt lat="46.42163" lon="2.89525">
        <ele>273.5</ele>
        <time>2018-10-21T06:49:36Z</time>
      </trkpt>
      <trkpt lat="46.42165" lon="2.89531">
        <ele>273.5</ele>
        <time>2018-10-21T06:49:37Z</time>
      </trkpt>
      <trkpt lat="46.42168" lon="2.89536">
        <ele>273.5</ele>
        <time>2018-10-21T06:49:38Z</time>
      </trkpt>
      <trkpt lat="46.42171" lon="2.89542">
        <ele>273.5</ele>
        <time>2018-10-21T06:49:39Z</time>
      </trkpt>
      <trkpt lat="46.42173" lon="2.89547">
        <ele>273.5</ele>
        <time>2018-10-21T06:49:40Z</time>
      </trkpt>
      <trkpt lat="46.42177" lon="2.89559">
        <ele>273.3</ele>
        <time>2018-10-21T06:49:42Z</time>
      </trkpt>
      <trkpt lat="46.4218" lon="2.8957">
        <ele>273.4</ele>
        <time>2018-10-21T06:49:44Z</time>
      </trkpt>
      <trkpt lat="46.42183" lon="2.89582">
        <ele>273.6</ele>
        <time>2018-10-21T06:49:46Z</time>
      </trkpt>
      <trkpt lat="46.42186" lon="2.89594">
        <ele>273.7</ele>
        <time>2018-10-21T06:49:48Z</time>
      </trkpt>
      <trkpt lat="46.42189" lon="2.89606">
        <ele>273.9</ele>
        <time>2018-10-21T06:49:50Z</time>
      </trkpt>
      <trkpt lat="46.42191" lon="2.89617">
        <ele>274.2</ele>
        <time>2018-10-21T06:49:52Z</time>
      </trkpt>
      <trkpt lat="46.42194" lon="2.89628">
        <ele>274.5</ele>
        <time>2018-10-21T06:49:54Z</time>
      </trkpt>
      <trkpt lat="46.42197" lon="2.89639">
        <ele>274.4</ele>
        <time>2018-10-21T06:49:56Z</time>
      </trkpt>
      <trkpt lat="46.422" lon="2.89649">
        <ele>274.2</ele>
        <time>2018-10-21T06:49:58Z</time>
      </trkpt>
      <trkpt lat="46.42201" lon="2.89661">
        <ele>274</ele>
        <time>2018-10-21T06:50:00Z</time>
      </trkpt>
      <trkpt lat="46.42199" lon="2.89671">
        <ele>274</ele>
        <time>2018-10-21T06:50:02Z</time>
      </trkpt>
      <trkpt lat="46.42194" lon="2.89678">
        <ele>274</ele>
        <time>2018-10-21T06:50:04Z</time>
      </trkpt>
      <trkpt lat="46.42189" lon="2.89684">
        <ele>274.6</ele>
        <time>2018-10-21T06:50:06Z</time>
      </trkpt>
      <trkpt lat="46.42182" lon="2.89692">
        <ele>275.9</ele>
        <time>2018-10-21T06:50:09Z</time>
      </trkpt>
      <trkpt lat="46.42176" lon="2.897">
        <ele>276.3</ele>
        <time>2018-10-21T06:50:12Z</time>
      </trkpt>
      <trkpt lat="46.4217" lon="2.89708">
        <ele>276.4</ele>
        <time>2018-10-21T06:50:15Z</time>
      </trkpt>
      <trkpt lat="46.42164" lon="2.89714">
        <ele>276.8</ele>
        <time>2018-10-21T06:50:18Z</time>
      </trkpt>
      <trkpt lat="46.42158" lon="2.89721">
        <ele>277.9</ele>
        <time>2018-10-21T06:50:21Z</time>
      </trkpt>
      <trkpt lat="46.42152" lon="2.89728">
        <ele>278.8</ele>
        <time>2018-10-21T06:50:24Z</time>
      </trkpt>
      <trkpt lat="46.4215" lon="2.89731">
        <ele>279.2</ele>
        <time>2018-10-21T06:50:25Z</time>
      </trkpt>
      <trkpt lat="46.4214" lon="2.89745">
        <ele>280.8</ele>
        <time>2018-10-21T06:50:30Z</time>
      </trkpt>
      <trkpt lat="46.42133" lon="2.89754">
        <ele>280</ele>
        <time>2018-10-21T06:50:33Z</time>
      </trkpt>
      <trkpt lat="46.42129" lon="2.8976">
        <ele>279.8</ele>
        <time>2018-10-21T06:50:35Z</time>
      </trkpt>
      <trkpt lat="46.42124" lon="2.89767">
        <ele>280.1</ele>
        <time>2018-10-21T06:50:37Z</time>
      </trkpt>
      <trkpt lat="46.42121" lon="2.89776">
        <ele>281.1</ele>
        <time>2018-10-21T06:50:39Z</time>
      </trkpt>
      <trkpt lat="46.42119" lon="2.89786">
        <ele>280.7</ele>
        <time>2018-10-21T06:50:41Z</time>
      </trkpt>
      <trkpt lat="46.42117" lon="2.89795">
        <ele>280.5</ele>
        <time>2018-10-21T06:50:43Z</time>
      </trkpt>
      <trkpt lat="46.42115" lon="2.89804">
        <ele>280.5</ele>
        <time>2018-10-21T06:50:45Z</time>
      </trkpt>
      <trkpt lat="46.42115" lon="2.89816">
        <ele>281</ele>
        <time>2018-10-21T06:50:48Z</time>
      </trkpt>
      <trkpt lat="46.42113" lon="2.89828">
        <ele>281.6</ele>
        <time>2018-10-21T06:50:51Z</time>
      </trkpt>
      <trkpt lat="46.42112" lon="2.89838">
        <ele>282.5</ele>
        <time>2018-10-21T06:50:53Z</time>
      </trkpt>
      <trkpt lat="46.42112" lon="2.89847">
        <ele>282.5</ele>
        <time>2018-10-21T06:50:55Z</time>
      </trkpt>
      <trkpt lat="46.42112" lon="2.89856">
        <ele>282.3</ele>
        <time>2018-10-21T06:50:57Z</time>
      </trkpt>
      <trkpt lat="46.42111" lon="2.89865">
        <ele>282.7</ele>
        <time>2018-10-21T06:50:59Z</time>
      </trkpt>
      <trkpt lat="46.42111" lon="2.89873">
        <ele>283.2</ele>
        <time>2018-10-21T06:51:01Z</time>
      </trkpt>
      <trkpt lat="46.42111" lon="2.89882">
        <ele>283.6</ele>
        <time>2018-10-21T06:51:03Z</time>
      </trkpt>
      <trkpt lat="46.4211" lon="2.89895">
        <ele>284.3</ele>
        <time>2018-10-21T06:51:06Z</time>
      </trkpt>
      <trkpt lat="46.4211" lon="2.89908">
        <ele>285</ele>
        <time>2018-10-21T06:51:09Z</time>
      </trkpt>
      <trkpt lat="46.4211" lon="2.8992">
        <ele>285.5</ele>
        <time>2018-10-21T06:51:12Z</time>
      </trkpt>
      <trkpt lat="46.42111" lon="2.89929">
        <ele>285.9</ele>
        <time>2018-10-21T06:51:14Z</time>
      </trkpt>
      <trkpt lat="46.42111" lon="2.89942">
        <ele>286.5</ele>
        <time>2018-10-21T06:51:17Z</time>
      </trkpt>
      <trkpt lat="46.42109" lon="2.89954">
        <ele>286.3</ele>
        <time>2018-10-21T06:51:20Z</time>
      </trkpt>
      <trkpt lat="46.42104" lon="2.89964">
        <ele>286.9</ele>
        <time>2018-10-21T06:51:23Z</time>
      </trkpt>
      <trkpt lat="46.42097" lon="2.89973">
        <ele>287.2</ele>
        <time>2018-10-21T06:51:26Z</time>
      </trkpt>
      <trkpt lat="46.42094" lon="2.89975">
        <ele>287</ele>
        <time>2018-10-21T06:51:27Z</time>
      </trkpt>
      <trkpt lat="46.42084" lon="2.89984">
        <ele>287</ele>
        <time>2018-10-21T06:51:31Z</time>
      </trkpt>
      <trkpt lat="46.42079" lon="2.89989">
        <ele>287.2</ele>
        <time>2018-10-21T06:51:33Z</time>
      </trkpt>
      <trkpt lat="46.42074" lon="2.89994">
        <ele>287.4</ele>
        <time>2018-10-21T06:51:35Z</time>
      </trkpt>
      <trkpt lat="46.42069" lon="2.89999">
        <ele>287.3</ele>
        <time>2018-10-21T06:51:37Z</time>
      </trkpt>
      <trkpt lat="46.42064" lon="2.90003">
        <ele>287.2</ele>
        <time>2018-10-21T06:51:39Z</time>
      </trkpt>
      <trkpt lat="46.42058" lon="2.90008">
        <ele>287.7</ele>
        <time>2018-10-21T06:51:41Z</time>
      </trkpt>
      <trkpt lat="46.42053" lon="2.90012">
        <ele>288.3</ele>
        <time>2018-10-21T06:51:43Z</time>
      </trkpt>
      <trkpt lat="46.42047" lon="2.90017">
        <ele>288.9</ele>
        <time>2018-10-21T06:51:45Z</time>
      </trkpt>
      <trkpt lat="46.42042" lon="2.90021">
        <ele>289.3</ele>
        <time>2018-10-21T06:51:47Z</time>
      </trkpt>
      <trkpt lat="46.42036" lon="2.90026">
        <ele>289</ele>
        <time>2018-10-21T06:51:49Z</time>
      </trkpt>
      <trkpt lat="46.42032" lon="2.90034">
        <ele>288.4</ele>
        <time>2018-10-21T06:51:51Z</time>
      </trkpt>
      <trkpt lat="46.4203" lon="2.90044">
        <ele>288.8</ele>
        <time>2018-10-21T06:51:53Z</time>
      </trkpt>
      <trkpt lat="46.42031" lon="2.90055">
        <ele>289</ele>
        <time>2018-10-21T06:51:56Z</time>
      </trkpt>
      <trkpt lat="46.42034" lon="2.90066">
        <ele>289.2</ele>
        <time>2018-10-21T06:51:59Z</time>
      </trkpt>
      <trkpt lat="46.42037" lon="2.90076">
        <ele>290.1</ele>
        <time>2018-10-21T06:52:02Z</time>
      </trkpt>
      <trkpt lat="46.42039" lon="2.90087">
        <ele>290.9</ele>
        <time>2018-10-21T06:52:05Z</time>
      </trkpt>
      <trkpt lat="46.42043" lon="2.90097">
        <ele>291.5</ele>
        <time>2018-10-21T06:52:08Z</time>
      </trkpt>
      <trkpt lat="46.42045" lon="2.90107">
        <ele>292.3</ele>
        <time>2018-10-21T06:52:11Z</time>
      </trkpt>
      <trkpt lat="46.42048" lon="2.90117">
        <ele>293.1</ele>
        <time>2018-10-21T06:52:14Z</time>
      </trkpt>
      <trkpt lat="46.4205" lon="2.90127">
        <ele>293.1</ele>
        <time>2018-10-21T06:52:17Z</time>
      </trkpt>
      <trkpt lat="46.42052" lon="2.90137">
        <ele>293.2</ele>
        <time>2018-10-21T06:52:20Z</time>
      </trkpt>
      <trkpt lat="46.42054" lon="2.90148">
        <ele>293.3</ele>
        <time>2018-10-21T06:52:23Z</time>
      </trkpt>
      <trkpt lat="46.42055" lon="2.90158">
        <ele>294.2</ele>
        <time>2018-10-21T06:52:26Z</time>
      </trkpt>
      <trkpt lat="46.42056" lon="2.90168">
        <ele>295.1</ele>
        <time>2018-10-21T06:52:29Z</time>
      </trkpt>
      <trkpt lat="46.42056" lon="2.90171">
        <ele>295.2</ele>
        <time>2018-10-21T06:52:30Z</time>
      </trkpt>
      <trkpt lat="46.42057" lon="2.9019">
        <ele>297.5</ele>
        <time>2018-10-21T06:52:36Z</time>
      </trkpt>
      <trkpt lat="46.42057" lon="2.902">
        <ele>298</ele>
        <time>2018-10-21T06:52:39Z</time>
      </trkpt>
      <trkpt lat="46.42057" lon="2.90211">
        <ele>298.5</ele>
        <time>2018-10-21T06:52:42Z</time>
      </trkpt>
      <trkpt lat="46.42057" lon="2.90223">
        <ele>299</ele>
        <time>2018-10-21T06:52:45Z</time>
      </trkpt>
      <trkpt lat="46.42057" lon="2.90231">
        <ele>299.4</ele>
        <time>2018-10-21T06:52:47Z</time>
      </trkpt>
      <trkpt lat="46.42056" lon="2.90241">
        <ele>299.8</ele>
        <time>2018-10-21T06:52:49Z</time>
      </trkpt>
      <trkpt lat="46.42056" lon="2.9025">
        <ele>300.4</ele>
        <time>2018-10-21T06:52:51Z</time>
      </trkpt>
      <trkpt lat="46.42055" lon="2.90259">
        <ele>301</ele>
        <time>2018-10-21T06:52:53Z</time>
      </trkpt>
      <trkpt lat="46.42054" lon="2.90268">
        <ele>301.1</ele>
        <time>2018-10-21T06:52:55Z</time>
      </trkpt>
      <trkpt lat="46.42053" lon="2.90278">
        <ele>300.8</ele>
        <time>2018-10-21T06:52:57Z</time>
      </trkpt>
      <trkpt lat="46.42051" lon="2.90288">
        <ele>300.6</ele>
        <time>2018-10-21T06:52:59Z</time>
      </trkpt>
      <trkpt lat="46.42049" lon="2.90298">
        <ele>300.6</ele>
        <time>2018-10-21T06:53:01Z</time>
      </trkpt>
      <trkpt lat="46.42046" lon="2.90307">
        <ele>300.8</ele>
        <time>2018-10-21T06:53:03Z</time>
      </trkpt>
      <trkpt lat="46.42043" lon="2.90316">
        <ele>300.9</ele>
        <time>2018-10-21T06:53:05Z</time>
      </trkpt>
      <trkpt lat="46.42039" lon="2.90326">
        <ele>300.5</ele>
        <time>2018-10-21T06:53:07Z</time>
      </trkpt>
      <trkpt lat="46.42036" lon="2.90335">
        <ele>300.8</ele>
        <time>2018-10-21T06:53:09Z</time>
      </trkpt>
      <trkpt lat="46.42032" lon="2.90343">
        <ele>300.8</ele>
        <time>2018-10-21T06:53:11Z</time>
      </trkpt>
      <trkpt lat="46.42028" lon="2.90352">
        <ele>301</ele>
        <time>2018-10-21T06:53:13Z</time>
      </trkpt>
      <trkpt lat="46.42025" lon="2.9036">
        <ele>301.3</ele>
        <time>2018-10-21T06:53:15Z</time>
      </trkpt>
      <trkpt lat="46.42022" lon="2.90368">
        <ele>301.9</ele>
        <time>2018-10-21T06:53:17Z</time>
      </trkpt>
      <trkpt lat="46.42019" lon="2.90376">
        <ele>302.5</ele>
        <time>2018-10-21T06:53:19Z</time>
      </trkpt>
      <trkpt lat="46.42016" lon="2.90384">
        <ele>302.7</ele>
        <time>2018-10-21T06:53:21Z</time>
      </trkpt>
      <trkpt lat="46.42014" lon="2.90392">
        <ele>303.6</ele>
        <time>2018-10-21T06:53:23Z</time>
      </trkpt>
      <trkpt lat="46.42012" lon="2.90401">
        <ele>303.6</ele>
        <time>2018-10-21T06:53:25Z</time>
      </trkpt>
      <trkpt lat="46.4201" lon="2.9041">
        <ele>303.5</ele>
        <time>2018-10-21T06:53:27Z</time>
      </trkpt>
      <trkpt lat="46.42008" lon="2.90418">
        <ele>303.8</ele>
        <time>2018-10-21T06:53:29Z</time>
      </trkpt>
      <trkpt lat="46.42007" lon="2.90427">
        <ele>304.1</ele>
        <time>2018-10-21T06:53:31Z</time>
      </trkpt>
      <trkpt lat="46.42006" lon="2.90431">
        <ele>303.9</ele>
        <time>2018-10-21T06:53:32Z</time>
      </trkpt>
      <trkpt lat="46.42004" lon="2.90444">
        <ele>304</ele>
        <time>2018-10-21T06:53:35Z</time>
      </trkpt>
      <trkpt lat="46.42003" lon="2.90453">
        <ele>303.9</ele>
        <time>2018-10-21T06:53:37Z</time>
      </trkpt>
      <trkpt lat="46.42003" lon="2.90462">
        <ele>303.9</ele>
        <time>2018-10-21T06:53:39Z</time>
      </trkpt>
      <trkpt lat="46.42002" lon="2.90474">
        <ele>304.4</ele>
        <time>2018-10-21T06:53:42Z</time>
      </trkpt>
      <trkpt lat="46.42007" lon="2.90484">
        <ele>305</ele>
        <time>2018-10-21T06:53:45Z</time>
      </trkpt>
      <trkpt lat="46.42011" lon="2.90492">
        <ele>305.4</ele>
        <time>2018-10-21T06:53:47Z</time>
      </trkpt>
      <trkpt lat="46.42014" lon="2.905">
        <ele>305.4</ele>
        <time>2018-10-21T06:53:49Z</time>
      </trkpt>
      <trkpt lat="46.42018" lon="2.90509">
        <ele>305.1</ele>
        <time>2018-10-21T06:53:51Z</time>
      </trkpt>
      <trkpt lat="46.42021" lon="2.90519">
        <ele>305.3</ele>
        <time>2018-10-21T06:53:53Z</time>
      </trkpt>
      <trkpt lat="46.42024" lon="2.90528">
        <ele>305.8</ele>
        <time>2018-10-21T06:53:55Z</time>
      </trkpt>
      <trkpt lat="46.42027" lon="2.90539">
        <ele>305.8</ele>
        <time>2018-10-21T06:53:57Z</time>
      </trkpt>
      <trkpt lat="46.42031" lon="2.90549">
        <ele>305.5</ele>
        <time>2018-10-21T06:53:59Z</time>
      </trkpt>
      <trkpt lat="46.42034" lon="2.90559">
        <ele>305.6</ele>
        <time>2018-10-21T06:54:01Z</time>
      </trkpt>
      <trkpt lat="46.42037" lon="2.90569">
        <ele>305.9</ele>
        <time>2018-10-21T06:54:03Z</time>
      </trkpt>
      <trkpt lat="46.4204" lon="2.90579">
        <ele>306.4</ele>
        <time>2018-10-21T06:54:05Z</time>
      </trkpt>
      <trkpt lat="46.42043" lon="2.90589">
        <ele>306.8</ele>
        <time>2018-10-21T06:54:07Z</time>
      </trkpt>
      <trkpt lat="46.42046" lon="2.90599">
        <ele>307</ele>
        <time>2018-10-21T06:54:09Z</time>
      </trkpt>
      <trkpt lat="46.4205" lon="2.90609">
        <ele>307.1</ele>
        <time>2018-10-21T06:54:11Z</time>
      </trkpt>
      <trkpt lat="46.42054" lon="2.90619">
        <ele>306.9</ele>
        <time>2018-10-21T06:54:13Z</time>
      </trkpt>
      <trkpt lat="46.42058" lon="2.90629">
        <ele>307</ele>
        <time>2018-10-21T06:54:15Z</time>
      </trkpt>
      <trkpt lat="46.42063" lon="2.90638">
        <ele>307.1</ele>
        <time>2018-10-21T06:54:17Z</time>
      </trkpt>
      <trkpt lat="46.42068" lon="2.90648">
        <ele>307</ele>
        <time>2018-10-21T06:54:19Z</time>
      </trkpt>
      <trkpt lat="46.42074" lon="2.90657">
        <ele>306.8</ele>
        <time>2018-10-21T06:54:21Z</time>
      </trkpt>
      <trkpt lat="46.4208" lon="2.90666">
        <ele>306.6</ele>
        <time>2018-10-21T06:54:23Z</time>
      </trkpt>
      <trkpt lat="46.42083" lon="2.90671">
        <ele>306.6</ele>
        <time>2018-10-21T06:54:24Z</time>
      </trkpt>
      <trkpt lat="46.42086" lon="2.90676">
        <ele>306.5</ele>
        <time>2018-10-21T06:54:25Z</time>
      </trkpt>
      <trkpt lat="46.42089" lon="2.90681">
        <ele>306.6</ele>
        <time>2018-10-21T06:54:26Z</time>
      </trkpt>
      <trkpt lat="46.42092" lon="2.90687">
        <ele>306.6</ele>
        <time>2018-10-21T06:54:27Z</time>
      </trkpt>
      <trkpt lat="46.42094" lon="2.90693">
        <ele>306.7</ele>
        <time>2018-10-21T06:54:28Z</time>
      </trkpt>
      <trkpt lat="46.42095" lon="2.90699">
        <ele>306.7</ele>
        <time>2018-10-21T06:54:29Z</time>
      </trkpt>
      <trkpt lat="46.42097" lon="2.90706">
        <ele>306.7</ele>
        <time>2018-10-21T06:54:30Z</time>
      </trkpt>
      <trkpt lat="46.42097" lon="2.90712">
        <ele>306.9</ele>
        <time>2018-10-21T06:54:31Z</time>
      </trkpt>
      <trkpt lat="46.42098" lon="2.90719">
        <ele>307</ele>
        <time>2018-10-21T06:54:32Z</time>
      </trkpt>
      <trkpt lat="46.42097" lon="2.90726">
        <ele>307.1</ele>
        <time>2018-10-21T06:54:33Z</time>
      </trkpt>
      <trkpt lat="46.42097" lon="2.90732">
        <ele>306.9</ele>
        <time>2018-10-21T06:54:34Z</time>
      </trkpt>
      <trkpt lat="46.42096" lon="2.90745">
        <ele>306.7</ele>
        <time>2018-10-21T06:54:36Z</time>
      </trkpt>
      <trkpt lat="46.42094" lon="2.90757">
        <ele>306.8</ele>
        <time>2018-10-21T06:54:38Z</time>
      </trkpt>
      <trkpt lat="46.42092" lon="2.90769">
        <ele>307.1</ele>
        <time>2018-10-21T06:54:40Z</time>
      </trkpt>
      <trkpt lat="46.42089" lon="2.90781">
        <ele>307.2</ele>
        <time>2018-10-21T06:54:42Z</time>
      </trkpt>
      <trkpt lat="46.42086" lon="2.90792">
        <ele>307.3</ele>
        <time>2018-10-21T06:54:44Z</time>
      </trkpt>
      <trkpt lat="46.42083" lon="2.90803">
        <ele>306.9</ele>
        <time>2018-10-21T06:54:46Z</time>
      </trkpt>
      <trkpt lat="46.42081" lon="2.90815">
        <ele>306.7</ele>
        <time>2018-10-21T06:54:48Z</time>
      </trkpt>
      <trkpt lat="46.42079" lon="2.90827">
        <ele>307</ele>
        <time>2018-10-21T06:54:50Z</time>
      </trkpt>
      <trkpt lat="46.42078" lon="2.9084">
        <ele>307.1</ele>
        <time>2018-10-21T06:54:52Z</time>
      </trkpt>
      <trkpt lat="46.42078" lon="2.90853">
        <ele>306.9</ele>
        <time>2018-10-21T06:54:54Z</time>
      </trkpt>
      <trkpt lat="46.42079" lon="2.90865">
        <ele>307.6</ele>
        <time>2018-10-21T06:54:56Z</time>
      </trkpt>
      <trkpt lat="46.42081" lon="2.90878">
        <ele>307.7</ele>
        <time>2018-10-21T06:54:58Z</time>
      </trkpt>
      <trkpt lat="46.42083" lon="2.9089">
        <ele>308</ele>
        <time>2018-10-21T06:55:00Z</time>
      </trkpt>
      <trkpt lat="46.42085" lon="2.90903">
        <ele>308.3</ele>
        <time>2018-10-21T06:55:02Z</time>
      </trkpt>
      <trkpt lat="46.42085" lon="2.90909">
        <ele>308.4</ele>
        <time>2018-10-21T06:55:03Z</time>
      </trkpt>
      <trkpt lat="46.42086" lon="2.90916">
        <ele>308.5</ele>
        <time>2018-10-21T06:55:04Z</time>
      </trkpt>
      <trkpt lat="46.42088" lon="2.90928">
        <ele>308.2</ele>
        <time>2018-10-21T06:55:06Z</time>
      </trkpt>
      <trkpt lat="46.42089" lon="2.90941">
        <ele>308.1</ele>
        <time>2018-10-21T06:55:08Z</time>
      </trkpt>
      <trkpt lat="46.42091" lon="2.90953">
        <ele>307.8</ele>
        <time>2018-10-21T06:55:10Z</time>
      </trkpt>
      <trkpt lat="46.42098" lon="2.9096">
        <ele>308.3</ele>
        <time>2018-10-21T06:55:13Z</time>
      </trkpt>
      <trkpt lat="46.42104" lon="2.90957">
        <ele>308.3</ele>
        <time>2018-10-21T06:55:15Z</time>
      </trkpt>
      <trkpt lat="46.42111" lon="2.90952">
        <ele>307.2</ele>
        <time>2018-10-21T06:55:17Z</time>
      </trkpt>
      <trkpt lat="46.42119" lon="2.90948">
        <ele>307.1</ele>
        <time>2018-10-21T06:55:19Z</time>
      </trkpt>
      <trkpt lat="46.42127" lon="2.90944">
        <ele>307.2</ele>
        <time>2018-10-21T06:55:21Z</time>
      </trkpt>
      <trkpt lat="46.42135" lon="2.90939">
        <ele>307.2</ele>
        <time>2018-10-21T06:55:23Z</time>
      </trkpt>
      <trkpt lat="46.42143" lon="2.90934">
        <ele>306.7</ele>
        <time>2018-10-21T06:55:25Z</time>
      </trkpt>
      <trkpt lat="46.42151" lon="2.9093">
        <ele>305.8</ele>
        <time>2018-10-21T06:55:27Z</time>
      </trkpt>
      <trkpt lat="46.42159" lon="2.90926">
        <ele>305.9</ele>
        <time>2018-10-21T06:55:29Z</time>
      </trkpt>
      <trkpt lat="46.42164" lon="2.90924">
        <ele>305.9</ele>
        <time>2018-10-21T06:55:30Z</time>
      </trkpt>
      <trkpt lat="46.42169" lon="2.90921">
        <ele>305.4</ele>
        <time>2018-10-21T06:55:31Z</time>
      </trkpt>
      <trkpt lat="46.42173" lon="2.90919">
        <ele>305</ele>
        <time>2018-10-21T06:55:32Z</time>
      </trkpt>
      <trkpt lat="46.42178" lon="2.90917">
        <ele>304.8</ele>
        <time>2018-10-21T06:55:33Z</time>
      </trkpt>
      <trkpt lat="46.42183" lon="2.90916">
        <ele>304.7</ele>
        <time>2018-10-21T06:55:34Z</time>
      </trkpt>
      <trkpt lat="46.42188" lon="2.90915">
        <ele>304.6</ele>
        <time>2018-10-21T06:55:35Z</time>
      </trkpt>
      <trkpt lat="46.42192" lon="2.90913">
        <ele>304.6</ele>
        <time>2018-10-21T06:55:36Z</time>
      </trkpt>
      <trkpt lat="46.42197" lon="2.90911">
        <ele>304.7</ele>
        <time>2018-10-21T06:55:37Z</time>
      </trkpt>
      <trkpt lat="46.42202" lon="2.90909">
        <ele>304.3</ele>
        <time>2018-10-21T06:55:38Z</time>
      </trkpt>
      <trkpt lat="46.42207" lon="2.90907">
        <ele>304</ele>
        <time>2018-10-21T06:55:39Z</time>
      </trkpt>
      <trkpt lat="46.42211" lon="2.90905">
        <ele>304</ele>
        <time>2018-10-21T06:55:40Z</time>
      </trkpt>
      <trkpt lat="46.42216" lon="2.90903">
        <ele>303.9</ele>
        <time>2018-10-21T06:55:41Z</time>
      </trkpt>
      <trkpt lat="46.42221" lon="2.90902">
        <ele>303.9</ele>
        <time>2018-10-21T06:55:42Z</time>
      </trkpt>
      <trkpt lat="46.42226" lon="2.909">
        <ele>303.4</ele>
        <time>2018-10-21T06:55:43Z</time>
      </trkpt>
      <trkpt lat="46.42231" lon="2.90898">
        <ele>303</ele>
        <time>2018-10-21T06:55:44Z</time>
      </trkpt>
      <trkpt lat="46.42235" lon="2.90897">
        <ele>302.7</ele>
        <time>2018-10-21T06:55:45Z</time>
      </trkpt>
      <trkpt lat="46.4224" lon="2.90895">
        <ele>302.5</ele>
        <time>2018-10-21T06:55:46Z</time>
      </trkpt>
      <trkpt lat="46.42245" lon="2.90893">
        <ele>302.1</ele>
        <time>2018-10-21T06:55:47Z</time>
      </trkpt>
      <trkpt lat="46.42249" lon="2.90892">
        <ele>301.7</ele>
        <time>2018-10-21T06:55:48Z</time>
      </trkpt>
      <trkpt lat="46.42254" lon="2.9089">
        <ele>301.5</ele>
        <time>2018-10-21T06:55:49Z</time>
      </trkpt>
      <trkpt lat="46.42258" lon="2.90889">
        <ele>301.4</ele>
        <time>2018-10-21T06:55:50Z</time>
      </trkpt>
      <trkpt lat="46.42263" lon="2.90887">
        <ele>301.3</ele>
        <time>2018-10-21T06:55:51Z</time>
      </trkpt>
      <trkpt lat="46.42268" lon="2.90886">
        <ele>301.1</ele>
        <time>2018-10-21T06:55:52Z</time>
      </trkpt>
      <trkpt lat="46.42272" lon="2.90884">
        <ele>301</ele>
        <time>2018-10-21T06:55:53Z</time>
      </trkpt>
      <trkpt lat="46.42277" lon="2.90883">
        <ele>300.9</ele>
        <time>2018-10-21T06:55:54Z</time>
      </trkpt>
      <trkpt lat="46.42283" lon="2.90881">
        <ele>300.4</ele>
        <time>2018-10-21T06:55:55Z</time>
      </trkpt>
      <trkpt lat="46.42288" lon="2.90879">
        <ele>300.1</ele>
        <time>2018-10-21T06:55:56Z</time>
      </trkpt>
      <trkpt lat="46.42293" lon="2.90877">
        <ele>299.7</ele>
        <time>2018-10-21T06:55:57Z</time>
      </trkpt>
      <trkpt lat="46.42299" lon="2.90875">
        <ele>299.4</ele>
        <time>2018-10-21T06:55:58Z</time>
      </trkpt>
      <trkpt lat="46.42304" lon="2.90873">
        <ele>299</ele>
        <time>2018-10-21T06:55:59Z</time>
      </trkpt>
      <trkpt lat="46.4231" lon="2.90871">
        <ele>298.7</ele>
        <time>2018-10-21T06:56:00Z</time>
      </trkpt>
      <trkpt lat="46.42316" lon="2.9087">
        <ele>298.5</ele>
        <time>2018-10-21T06:56:01Z</time>
      </trkpt>
      <trkpt lat="46.42321" lon="2.90869">
        <ele>298.2</ele>
        <time>2018-10-21T06:56:02Z</time>
      </trkpt>
      <trkpt lat="46.42327" lon="2.90869">
        <ele>298</ele>
        <time>2018-10-21T06:56:03Z</time>
      </trkpt>
      <trkpt lat="46.42332" lon="2.90869">
        <ele>297.2</ele>
        <time>2018-10-21T06:56:04Z</time>
      </trkpt>
      <trkpt lat="46.42337" lon="2.90869">
        <ele>296.7</ele>
        <time>2018-10-21T06:56:05Z</time>
      </trkpt>
      <trkpt lat="46.42343" lon="2.9087">
        <ele>296.3</ele>
        <time>2018-10-21T06:56:06Z</time>
      </trkpt>
      <trkpt lat="46.42348" lon="2.9087">
        <ele>296.1</ele>
        <time>2018-10-21T06:56:07Z</time>
      </trkpt>
      <trkpt lat="46.42353" lon="2.90871">
        <ele>295.9</ele>
        <time>2018-10-21T06:56:08Z</time>
      </trkpt>
      <trkpt lat="46.42358" lon="2.90873">
        <ele>295.8</ele>
        <time>2018-10-21T06:56:09Z</time>
      </trkpt>
      <trkpt lat="46.42364" lon="2.90874">
        <ele>295.8</ele>
        <time>2018-10-21T06:56:10Z</time>
      </trkpt>
      <trkpt lat="46.42369" lon="2.90875">
        <ele>295.7</ele>
        <time>2018-10-21T06:56:11Z</time>
      </trkpt>
      <trkpt lat="46.42374" lon="2.90877">
        <ele>295.5</ele>
        <time>2018-10-21T06:56:12Z</time>
      </trkpt>
      <trkpt lat="46.42378" lon="2.90879">
        <ele>295.5</ele>
        <time>2018-10-21T06:56:13Z</time>
      </trkpt>
      <trkpt lat="46.42383" lon="2.90882">
        <ele>295.4</ele>
        <time>2018-10-21T06:56:14Z</time>
      </trkpt>
      <trkpt lat="46.42388" lon="2.90884">
        <ele>295.4</ele>
        <time>2018-10-21T06:56:15Z</time>
      </trkpt>
      <trkpt lat="46.42393" lon="2.90886">
        <ele>295.2</ele>
        <time>2018-10-21T06:56:16Z</time>
      </trkpt>
      <trkpt lat="46.42398" lon="2.90888">
        <ele>295</ele>
        <time>2018-10-21T06:56:17Z</time>
      </trkpt>
      <trkpt lat="46.42403" lon="2.9089">
        <ele>294.8</ele>
        <time>2018-10-21T06:56:18Z</time>
      </trkpt>
      <trkpt lat="46.42408" lon="2.90892">
        <ele>294.7</ele>
        <time>2018-10-21T06:56:19Z</time>
      </trkpt>
      <trkpt lat="46.42414" lon="2.90893">
        <ele>294.6</ele>
        <time>2018-10-21T06:56:20Z</time>
      </trkpt>
      <trkpt lat="46.42419" lon="2.90896">
        <ele>294.1</ele>
        <time>2018-10-21T06:56:21Z</time>
      </trkpt>
      <trkpt lat="46.42424" lon="2.90899">
        <ele>293.7</ele>
        <time>2018-10-21T06:56:22Z</time>
      </trkpt>
      <trkpt lat="46.42428" lon="2.90902">
        <ele>293.5</ele>
        <time>2018-10-21T06:56:23Z</time>
      </trkpt>
      <trkpt lat="46.42433" lon="2.90905">
        <ele>293.3</ele>
        <time>2018-10-21T06:56:24Z</time>
      </trkpt>
      <trkpt lat="46.42438" lon="2.90907">
        <ele>293.2</ele>
        <time>2018-10-21T06:56:25Z</time>
      </trkpt>
      <trkpt lat="46.42443" lon="2.9091">
        <ele>293.4</ele>
        <time>2018-10-21T06:56:26Z</time>
      </trkpt>
      <trkpt lat="46.42448" lon="2.90912">
        <ele>293.6</ele>
        <time>2018-10-21T06:56:27Z</time>
      </trkpt>
      <trkpt lat="46.42453" lon="2.90914">
        <ele>293.6</ele>
        <time>2018-10-21T06:56:28Z</time>
      </trkpt>
      <trkpt lat="46.42458" lon="2.90916">
        <ele>293.6</ele>
        <time>2018-10-21T06:56:29Z</time>
      </trkpt>
      <trkpt lat="46.42462" lon="2.90917">
        <ele>293.3</ele>
        <time>2018-10-21T06:56:30Z</time>
      </trkpt>
      <trkpt lat="46.42467" lon="2.90918">
        <ele>293.1</ele>
        <time>2018-10-21T06:56:31Z</time>
      </trkpt>
      <trkpt lat="46.42476" lon="2.90919">
        <ele>292.9</ele>
        <time>2018-10-21T06:56:33Z</time>
      </trkpt>
      <trkpt lat="46.42485" lon="2.90919">
        <ele>293</ele>
        <time>2018-10-21T06:56:35Z</time>
      </trkpt>
      <trkpt lat="46.42489" lon="2.90918">
        <ele>293.1</ele>
        <time>2018-10-21T06:56:36Z</time>
      </trkpt>
      <trkpt lat="46.42494" lon="2.90917">
        <ele>292.9</ele>
        <time>2018-10-21T06:56:37Z</time>
      </trkpt>
      <trkpt lat="46.42498" lon="2.90916">
        <ele>292.7</ele>
        <time>2018-10-21T06:56:38Z</time>
      </trkpt>
      <trkpt lat="46.42506" lon="2.90911">
        <ele>292.5</ele>
        <time>2018-10-21T06:56:40Z</time>
      </trkpt>
      <trkpt lat="46.42514" lon="2.90906">
        <ele>292.1</ele>
        <time>2018-10-21T06:56:42Z</time>
      </trkpt>
      <trkpt lat="46.42521" lon="2.90903">
        <ele>291.7</ele>
        <time>2018-10-21T06:56:44Z</time>
      </trkpt>
      <trkpt lat="46.42526" lon="2.909">
        <ele>291.7</ele>
        <time>2018-10-21T06:56:45Z</time>
      </trkpt>
      <trkpt lat="46.42529" lon="2.90895">
        <ele>291.8</ele>
        <time>2018-10-21T06:56:46Z</time>
      </trkpt>
      <trkpt lat="46.42532" lon="2.9089">
        <ele>291.7</ele>
        <time>2018-10-21T06:56:47Z</time>
      </trkpt>
      <trkpt lat="46.42535" lon="2.90883">
        <ele>291.7</ele>
        <time>2018-10-21T06:56:48Z</time>
      </trkpt>
      <trkpt lat="46.42537" lon="2.90876">
        <ele>292</ele>
        <time>2018-10-21T06:56:49Z</time>
      </trkpt>
      <trkpt lat="46.42539" lon="2.9087">
        <ele>292.3</ele>
        <time>2018-10-21T06:56:50Z</time>
      </trkpt>
      <trkpt lat="46.4254" lon="2.90863">
        <ele>292.5</ele>
        <time>2018-10-21T06:56:51Z</time>
      </trkpt>
      <trkpt lat="46.42542" lon="2.90856">
        <ele>292.4</ele>
        <time>2018-10-21T06:56:52Z</time>
      </trkpt>
      <trkpt lat="46.42543" lon="2.9085">
        <ele>292.3</ele>
        <time>2018-10-21T06:56:53Z</time>
      </trkpt>
      <trkpt lat="46.42545" lon="2.90843">
        <ele>292.2</ele>
        <time>2018-10-21T06:56:54Z</time>
      </trkpt>
      <trkpt lat="46.42547" lon="2.90837">
        <ele>292.1</ele>
        <time>2018-10-21T06:56:55Z</time>
      </trkpt>
      <trkpt lat="46.42548" lon="2.9083">
        <ele>292</ele>
        <time>2018-10-21T06:56:56Z</time>
      </trkpt>
      <trkpt lat="46.42549" lon="2.90824">
        <ele>292.2</ele>
        <time>2018-10-21T06:56:57Z</time>
      </trkpt>
      <trkpt lat="46.42551" lon="2.90817">
        <ele>292.3</ele>
        <time>2018-10-21T06:56:58Z</time>
      </trkpt>
      <trkpt lat="46.42552" lon="2.9081">
        <ele>292.2</ele>
        <time>2018-10-21T06:56:59Z</time>
      </trkpt>
      <trkpt lat="46.42553" lon="2.90804">
        <ele>292.1</ele>
        <time>2018-10-21T06:57:00Z</time>
      </trkpt>
      <trkpt lat="46.42555" lon="2.90797">
        <ele>291.7</ele>
        <time>2018-10-21T06:57:01Z</time>
      </trkpt>
      <trkpt lat="46.42556" lon="2.9079">
        <ele>291.4</ele>
        <time>2018-10-21T06:57:02Z</time>
      </trkpt>
      <trkpt lat="46.42557" lon="2.90783">
        <ele>291.2</ele>
        <time>2018-10-21T06:57:03Z</time>
      </trkpt>
      <trkpt lat="46.42559" lon="2.90776">
        <ele>291.5</ele>
        <time>2018-10-21T06:57:04Z</time>
      </trkpt>
      <trkpt lat="46.4256" lon="2.9077">
        <ele>291.6</ele>
        <time>2018-10-21T06:57:05Z</time>
      </trkpt>
      <trkpt lat="46.42561" lon="2.90763">
        <ele>291.4</ele>
        <time>2018-10-21T06:57:06Z</time>
      </trkpt>
      <trkpt lat="46.42563" lon="2.90756">
        <ele>291.3</ele>
        <time>2018-10-21T06:57:07Z</time>
      </trkpt>
      <trkpt lat="46.42564" lon="2.90749">
        <ele>290.9</ele>
        <time>2018-10-21T06:57:08Z</time>
      </trkpt>
      <trkpt lat="46.42565" lon="2.90742">
        <ele>290.6</ele>
        <time>2018-10-21T06:57:09Z</time>
      </trkpt>
      <trkpt lat="46.42566" lon="2.90735">
        <ele>290.4</ele>
        <time>2018-10-21T06:57:10Z</time>
      </trkpt>
      <trkpt lat="46.42568" lon="2.90728">
        <ele>290.8</ele>
        <time>2018-10-21T06:57:11Z</time>
      </trkpt>
      <trkpt lat="46.42569" lon="2.90721">
        <ele>291.1</ele>
        <time>2018-10-21T06:57:12Z</time>
      </trkpt>
      <trkpt lat="46.42571" lon="2.90715">
        <ele>291.1</ele>
        <time>2018-10-21T06:57:13Z</time>
      </trkpt>
      <trkpt lat="46.42572" lon="2.90708">
        <ele>291</ele>
        <time>2018-10-21T06:57:14Z</time>
      </trkpt>
      <trkpt lat="46.42574" lon="2.90701">
        <ele>291</ele>
        <time>2018-10-21T06:57:15Z</time>
      </trkpt>
      <trkpt lat="46.42576" lon="2.90695">
        <ele>291</ele>
        <time>2018-10-21T06:57:16Z</time>
      </trkpt>
      <trkpt lat="46.42577" lon="2.90689">
        <ele>291</ele>
        <time>2018-10-21T06:57:17Z</time>
      </trkpt>
      <trkpt lat="46.42579" lon="2.90682">
        <ele>290.8</ele>
        <time>2018-10-21T06:57:18Z</time>
      </trkpt>
      <trkpt lat="46.42581" lon="2.90676">
        <ele>290.6</ele>
        <time>2018-10-21T06:57:19Z</time>
      </trkpt>
      <trkpt lat="46.42583" lon="2.9067">
        <ele>290.5</ele>
        <time>2018-10-21T06:57:20Z</time>
      </trkpt>
      <trkpt lat="46.42586" lon="2.90664">
        <ele>290.4</ele>
        <time>2018-10-21T06:57:21Z</time>
      </trkpt>
      <trkpt lat="46.42588" lon="2.90658">
        <ele>290.3</ele>
        <time>2018-10-21T06:57:22Z</time>
      </trkpt>
      <trkpt lat="46.4259" lon="2.90652">
        <ele>290.4</ele>
        <time>2018-10-21T06:57:23Z</time>
      </trkpt>
      <trkpt lat="46.42593" lon="2.90646">
        <ele>290.5</ele>
        <time>2018-10-21T06:57:24Z</time>
      </trkpt>
      <trkpt lat="46.42595" lon="2.9064">
        <ele>290.2</ele>
        <time>2018-10-21T06:57:25Z</time>
      </trkpt>
      <trkpt lat="46.42598" lon="2.90635">
        <ele>290</ele>
        <time>2018-10-21T06:57:26Z</time>
      </trkpt>
      <trkpt lat="46.42601" lon="2.90629">
        <ele>290.2</ele>
        <time>2018-10-21T06:57:27Z</time>
      </trkpt>
      <trkpt lat="46.42603" lon="2.90624">
        <ele>290.4</ele>
        <time>2018-10-21T06:57:28Z</time>
      </trkpt>
      <trkpt lat="46.42606" lon="2.90618">
        <ele>290.5</ele>
        <time>2018-10-21T06:57:29Z</time>
      </trkpt>
      <trkpt lat="46.42609" lon="2.90613">
        <ele>290.6</ele>
        <time>2018-10-21T06:57:30Z</time>
      </trkpt>
      <trkpt lat="46.42612" lon="2.90608">
        <ele>290.6</ele>
        <time>2018-10-21T06:57:31Z</time>
      </trkpt>
      <trkpt lat="46.42615" lon="2.90602">
        <ele>290.6</ele>
        <time>2018-10-21T06:57:32Z</time>
      </trkpt>
      <trkpt lat="46.42618" lon="2.90597">
        <ele>290.5</ele>
        <time>2018-10-21T06:57:33Z</time>
      </trkpt>
      <trkpt lat="46.42621" lon="2.90593">
        <ele>290.5</ele>
        <time>2018-10-21T06:57:34Z</time>
      </trkpt>
      <trkpt lat="46.42625" lon="2.90588">
        <ele>290.5</ele>
        <time>2018-10-21T06:57:35Z</time>
      </trkpt>
      <trkpt lat="46.42629" lon="2.90585">
        <ele>290.5</ele>
        <time>2018-10-21T06:57:36Z</time>
      </trkpt>
      <trkpt lat="46.42633" lon="2.90581">
        <ele>290.7</ele>
        <time>2018-10-21T06:57:37Z</time>
      </trkpt>
      <trkpt lat="46.42637" lon="2.90579">
        <ele>290.8</ele>
        <time>2018-10-21T06:57:38Z</time>
      </trkpt>
      <trkpt lat="46.42645" lon="2.90575">
        <ele>290.6</ele>
        <time>2018-10-21T06:57:40Z</time>
      </trkpt>
      <trkpt lat="46.42654" lon="2.90573">
        <ele>290.9</ele>
        <time>2018-10-21T06:57:42Z</time>
      </trkpt>
      <trkpt lat="46.42662" lon="2.9057">
        <ele>291.2</ele>
        <time>2018-10-21T06:57:44Z</time>
      </trkpt>
      <trkpt lat="46.4267" lon="2.90567">
        <ele>291.3</ele>
        <time>2018-10-21T06:57:46Z</time>
      </trkpt>
      <trkpt lat="46.42678" lon="2.90563">
        <ele>291.8</ele>
        <time>2018-10-21T06:57:48Z</time>
      </trkpt>
      <trkpt lat="46.42685" lon="2.90556">
        <ele>291.7</ele>
        <time>2018-10-21T06:57:50Z</time>
      </trkpt>
      <trkpt lat="46.42691" lon="2.90547">
        <ele>291.5</ele>
        <time>2018-10-21T06:57:52Z</time>
      </trkpt>
      <trkpt lat="46.42697" lon="2.90537">
        <ele>291.7</ele>
        <time>2018-10-21T06:57:54Z</time>
      </trkpt>
      <trkpt lat="46.42702" lon="2.90528">
        <ele>291.7</ele>
        <time>2018-10-21T06:57:56Z</time>
      </trkpt>
      <trkpt lat="46.42706" lon="2.90518">
        <ele>291.6</ele>
        <time>2018-10-21T06:57:58Z</time>
      </trkpt>
      <trkpt lat="46.42711" lon="2.90509">
        <ele>291.4</ele>
        <time>2018-10-21T06:58:00Z</time>
      </trkpt>
      <trkpt lat="46.42716" lon="2.90499">
        <ele>291.4</ele>
        <time>2018-10-21T06:58:02Z</time>
      </trkpt>
      <trkpt lat="46.42721" lon="2.90489">
        <ele>291.9</ele>
        <time>2018-10-21T06:58:04Z</time>
      </trkpt>
      <trkpt lat="46.42726" lon="2.9048">
        <ele>292.3</ele>
        <time>2018-10-21T06:58:06Z</time>
      </trkpt>
      <trkpt lat="46.42731" lon="2.9047">
        <ele>292.3</ele>
        <time>2018-10-21T06:58:08Z</time>
      </trkpt>
      <trkpt lat="46.42735" lon="2.90461">
        <ele>292.6</ele>
        <time>2018-10-21T06:58:10Z</time>
      </trkpt>
      <trkpt lat="46.4274" lon="2.90451">
        <ele>293.1</ele>
        <time>2018-10-21T06:58:12Z</time>
      </trkpt>
      <trkpt lat="46.42744" lon="2.9044">
        <ele>293.2</ele>
        <time>2018-10-21T06:58:14Z</time>
      </trkpt>
      <trkpt lat="46.4275" lon="2.90433">
        <ele>293.1</ele>
        <time>2018-10-21T06:58:16Z</time>
      </trkpt>
      <trkpt lat="46.42757" lon="2.90434">
        <ele>293.7</ele>
        <time>2018-10-21T06:58:18Z</time>
      </trkpt>
      <trkpt lat="46.42764" lon="2.9044">
        <ele>293.8</ele>
        <time>2018-10-21T06:58:20Z</time>
      </trkpt>
      <trkpt lat="46.4277" lon="2.90447">
        <ele>293.3</ele>
        <time>2018-10-21T06:58:22Z</time>
      </trkpt>
      <trkpt lat="46.42776" lon="2.90454">
        <ele>292.9</ele>
        <time>2018-10-21T06:58:24Z</time>
      </trkpt>
      <trkpt lat="46.42783" lon="2.90462">
        <ele>292.6</ele>
        <time>2018-10-21T06:58:26Z</time>
      </trkpt>
      <trkpt lat="46.42786" lon="2.90467">
        <ele>292.4</ele>
        <time>2018-10-21T06:58:27Z</time>
      </trkpt>
      <trkpt lat="46.4279" lon="2.90471">
        <ele>292.3</ele>
        <time>2018-10-21T06:58:28Z</time>
      </trkpt>
      <trkpt lat="46.42794" lon="2.90476">
        <ele>292.1</ele>
        <time>2018-10-21T06:58:29Z</time>
      </trkpt>
      <trkpt lat="46.42798" lon="2.90481">
        <ele>291.9</ele>
        <time>2018-10-21T06:58:30Z</time>
      </trkpt>
      <trkpt lat="46.42802" lon="2.90486">
        <ele>291.8</ele>
        <time>2018-10-21T06:58:31Z</time>
      </trkpt>
      <trkpt lat="46.42806" lon="2.90491">
        <ele>291.5</ele>
        <time>2018-10-21T06:58:32Z</time>
      </trkpt>
      <trkpt lat="46.4281" lon="2.90496">
        <ele>291.4</ele>
        <time>2018-10-21T06:58:33Z</time>
      </trkpt>
      <trkpt lat="46.42814" lon="2.90501">
        <ele>291</ele>
        <time>2018-10-21T06:58:34Z</time>
      </trkpt>
      <trkpt lat="46.42818" lon="2.90506">
        <ele>290.8</ele>
        <time>2018-10-21T06:58:35Z</time>
      </trkpt>
      <trkpt lat="46.42823" lon="2.90511">
        <ele>290.6</ele>
        <time>2018-10-21T06:58:36Z</time>
      </trkpt>
      <trkpt lat="46.42827" lon="2.90517">
        <ele>290.5</ele>
        <time>2018-10-21T06:58:37Z</time>
      </trkpt>
      <trkpt lat="46.42831" lon="2.90522">
        <ele>290.5</ele>
        <time>2018-10-21T06:58:38Z</time>
      </trkpt>
      <trkpt lat="46.42835" lon="2.90528">
        <ele>290.1</ele>
        <time>2018-10-21T06:58:39Z</time>
      </trkpt>
      <trkpt lat="46.42839" lon="2.90533">
        <ele>289.8</ele>
        <time>2018-10-21T06:58:40Z</time>
      </trkpt>
      <trkpt lat="46.42843" lon="2.90538">
        <ele>289.4</ele>
        <time>2018-10-21T06:58:41Z</time>
      </trkpt>
      <trkpt lat="46.42847" lon="2.90543">
        <ele>289.2</ele>
        <time>2018-10-21T06:58:42Z</time>
      </trkpt>
      <trkpt lat="46.42852" lon="2.90549">
        <ele>289</ele>
        <time>2018-10-21T06:58:43Z</time>
      </trkpt>
      <trkpt lat="46.42858" lon="2.90554">
        <ele>288.6</ele>
        <time>2018-10-21T06:58:44Z</time>
      </trkpt>
      <trkpt lat="46.42863" lon="2.9056">
        <ele>288.2</ele>
        <time>2018-10-21T06:58:45Z</time>
      </trkpt>
      <trkpt lat="46.42868" lon="2.90565">
        <ele>287.5</ele>
        <time>2018-10-21T06:58:46Z</time>
      </trkpt>
      <trkpt lat="46.42873" lon="2.90572">
        <ele>287</ele>
        <time>2018-10-21T06:58:47Z</time>
      </trkpt>
      <trkpt lat="46.42878" lon="2.90578">
        <ele>286.5</ele>
        <time>2018-10-21T06:58:48Z</time>
      </trkpt>
      <trkpt lat="46.42884" lon="2.90585">
        <ele>286.2</ele>
        <time>2018-10-21T06:58:49Z</time>
      </trkpt>
      <trkpt lat="46.42889" lon="2.90592">
        <ele>285.9</ele>
        <time>2018-10-21T06:58:50Z</time>
      </trkpt>
      <trkpt lat="46.42895" lon="2.90599">
        <ele>285.4</ele>
        <time>2018-10-21T06:58:51Z</time>
      </trkpt>
      <trkpt lat="46.42901" lon="2.90606">
        <ele>285.1</ele>
        <time>2018-10-21T06:58:52Z</time>
      </trkpt>
      <trkpt lat="46.42907" lon="2.90613">
        <ele>284.3</ele>
        <time>2018-10-21T06:58:53Z</time>
      </trkpt>
      <trkpt lat="46.42913" lon="2.9062">
        <ele>283.7</ele>
        <time>2018-10-21T06:58:54Z</time>
      </trkpt>
      <trkpt lat="46.42918" lon="2.90628">
        <ele>283.2</ele>
        <time>2018-10-21T06:58:55Z</time>
      </trkpt>
      <trkpt lat="46.42924" lon="2.90635">
        <ele>282.6</ele>
        <time>2018-10-21T06:58:56Z</time>
      </trkpt>
      <trkpt lat="46.42931" lon="2.90639">
        <ele>282.1</ele>
        <time>2018-10-21T06:58:57Z</time>
      </trkpt>
      <trkpt lat="46.42937" lon="2.90643">
        <ele>281.6</ele>
        <time>2018-10-21T06:58:58Z</time>
      </trkpt>
      <trkpt lat="46.42943" lon="2.90648">
        <ele>281.2</ele>
        <time>2018-10-21T06:58:59Z</time>
      </trkpt>
      <trkpt lat="46.42948" lon="2.90655">
        <ele>280.9</ele>
        <time>2018-10-21T06:59:00Z</time>
      </trkpt>
      <trkpt lat="46.42953" lon="2.90661">
        <ele>280.6</ele>
        <time>2018-10-21T06:59:01Z</time>
      </trkpt>
      <trkpt lat="46.42957" lon="2.90668">
        <ele>280.4</ele>
        <time>2018-10-21T06:59:02Z</time>
      </trkpt>
      <trkpt lat="46.42962" lon="2.90674">
        <ele>280</ele>
        <time>2018-10-21T06:59:03Z</time>
      </trkpt>
      <trkpt lat="46.42966" lon="2.9068">
        <ele>279.7</ele>
        <time>2018-10-21T06:59:04Z</time>
      </trkpt>
      <trkpt lat="46.42971" lon="2.90685">
        <ele>279.4</ele>
        <time>2018-10-21T06:59:05Z</time>
      </trkpt>
      <trkpt lat="46.42975" lon="2.9069">
        <ele>279.2</ele>
        <time>2018-10-21T06:59:06Z</time>
      </trkpt>
      <trkpt lat="46.4298" lon="2.90696">
        <ele>279.1</ele>
        <time>2018-10-21T06:59:07Z</time>
      </trkpt>
      <trkpt lat="46.42984" lon="2.90701">
        <ele>278.7</ele>
        <time>2018-10-21T06:59:08Z</time>
      </trkpt>
      <trkpt lat="46.42989" lon="2.90706">
        <ele>278.5</ele>
        <time>2018-10-21T06:59:09Z</time>
      </trkpt>
      <trkpt lat="46.42994" lon="2.9071">
        <ele>278.2</ele>
        <time>2018-10-21T06:59:10Z</time>
      </trkpt>
      <trkpt lat="46.42999" lon="2.90713">
        <ele>278</ele>
        <time>2018-10-21T06:59:11Z</time>
      </trkpt>
      <trkpt lat="46.43004" lon="2.90715">
        <ele>278</ele>
        <time>2018-10-21T06:59:12Z</time>
      </trkpt>
      <trkpt lat="46.43009" lon="2.90717">
        <ele>277.9</ele>
        <time>2018-10-21T06:59:13Z</time>
      </trkpt>
      <trkpt lat="46.43014" lon="2.90719">
        <ele>277.8</ele>
        <time>2018-10-21T06:59:14Z</time>
      </trkpt>
      <trkpt lat="46.43019" lon="2.90723">
        <ele>277.4</ele>
        <time>2018-10-21T06:59:15Z</time>
      </trkpt>
      <trkpt lat="46.43024" lon="2.90728">
        <ele>277.1</ele>
        <time>2018-10-21T06:59:16Z</time>
      </trkpt>
      <trkpt lat="46.43029" lon="2.90734">
        <ele>276.5</ele>
        <time>2018-10-21T06:59:17Z</time>
      </trkpt>
      <trkpt lat="46.43034" lon="2.9074">
        <ele>276.1</ele>
        <time>2018-10-21T06:59:18Z</time>
      </trkpt>
      <trkpt lat="46.43039" lon="2.90744">
        <ele>275.4</ele>
        <time>2018-10-21T06:59:19Z</time>
      </trkpt>
      <trkpt lat="46.43043" lon="2.90749">
        <ele>274.9</ele>
        <time>2018-10-21T06:59:20Z</time>
      </trkpt>
      <trkpt lat="46.43048" lon="2.90755">
        <ele>274.5</ele>
        <time>2018-10-21T06:59:21Z</time>
      </trkpt>
      <trkpt lat="46.43053" lon="2.9076">
        <ele>274.8</ele>
        <time>2018-10-21T06:59:22Z</time>
      </trkpt>
      <trkpt lat="46.43058" lon="2.90764">
        <ele>275</ele>
        <time>2018-10-21T06:59:23Z</time>
      </trkpt>
      <trkpt lat="46.43064" lon="2.90766">
        <ele>274.3</ele>
        <time>2018-10-21T06:59:24Z</time>
      </trkpt>
      <trkpt lat="46.4307" lon="2.90766">
        <ele>273.8</ele>
        <time>2018-10-21T06:59:25Z</time>
      </trkpt>
      <trkpt lat="46.43075" lon="2.90764">
        <ele>273.4</ele>
        <time>2018-10-21T06:59:26Z</time>
      </trkpt>
      <trkpt lat="46.43079" lon="2.90763">
        <ele>273.2</ele>
        <time>2018-10-21T06:59:27Z</time>
      </trkpt>
      <trkpt lat="46.43084" lon="2.90762">
        <ele>273</ele>
        <time>2018-10-21T06:59:28Z</time>
      </trkpt>
      <trkpt lat="46.43089" lon="2.90762">
        <ele>272.8</ele>
        <time>2018-10-21T06:59:29Z</time>
      </trkpt>
      <trkpt lat="46.43094" lon="2.90762">
        <ele>272.6</ele>
        <time>2018-10-21T06:59:30Z</time>
      </trkpt>
      <trkpt lat="46.43099" lon="2.90762">
        <ele>272.4</ele>
        <time>2018-10-21T06:59:31Z</time>
      </trkpt>
      <trkpt lat="46.43104" lon="2.90763">
        <ele>272.2</ele>
        <time>2018-10-21T06:59:32Z</time>
      </trkpt>
      <trkpt lat="46.43109" lon="2.90763">
        <ele>272</ele>
        <time>2018-10-21T06:59:33Z</time>
      </trkpt>
      <trkpt lat="46.43114" lon="2.90764">
        <ele>272</ele>
        <time>2018-10-21T06:59:34Z</time>
      </trkpt>
      <trkpt lat="46.4312" lon="2.90765">
        <ele>271.9</ele>
        <time>2018-10-21T06:59:35Z</time>
      </trkpt>
      <trkpt lat="46.43124" lon="2.90766">
        <ele>271.6</ele>
        <time>2018-10-21T06:59:36Z</time>
      </trkpt>
      <trkpt lat="46.43129" lon="2.90767">
        <ele>271.3</ele>
        <time>2018-10-21T06:59:37Z</time>
      </trkpt>
      <trkpt lat="46.43134" lon="2.90769">
        <ele>271.1</ele>
        <time>2018-10-21T06:59:38Z</time>
      </trkpt>
      <trkpt lat="46.43139" lon="2.9077">
        <ele>271</ele>
        <time>2018-10-21T06:59:39Z</time>
      </trkpt>
      <trkpt lat="46.43144" lon="2.90772">
        <ele>270.9</ele>
        <time>2018-10-21T06:59:40Z</time>
      </trkpt>
      <trkpt lat="46.43148" lon="2.90774">
        <ele>270.9</ele>
        <time>2018-10-21T06:59:41Z</time>
      </trkpt>
      <trkpt lat="46.43157" lon="2.90779">
        <ele>271.1</ele>
        <time>2018-10-21T06:59:43Z</time>
      </trkpt>
      <trkpt lat="46.43165" lon="2.90782">
        <ele>271.4</ele>
        <time>2018-10-21T06:59:45Z</time>
      </trkpt>
      <trkpt lat="46.43174" lon="2.90785">
        <ele>270.8</ele>
        <time>2018-10-21T06:59:47Z</time>
      </trkpt>
      <trkpt lat="46.43182" lon="2.90788">
        <ele>270.6</ele>
        <time>2018-10-21T06:59:49Z</time>
      </trkpt>
      <trkpt lat="46.43189" lon="2.90792">
        <ele>270.6</ele>
        <time>2018-10-21T06:59:51Z</time>
      </trkpt>
      <trkpt lat="46.43197" lon="2.90795">
        <ele>270.3</ele>
        <time>2018-10-21T06:59:53Z</time>
      </trkpt>
      <trkpt lat="46.43203" lon="2.90798">
        <ele>270</ele>
        <time>2018-10-21T06:59:55Z</time>
      </trkpt>
      <trkpt lat="46.4321" lon="2.90802">
        <ele>269.6</ele>
        <time>2018-10-21T06:59:57Z</time>
      </trkpt>
      <trkpt lat="46.43218" lon="2.90804">
        <ele>269.3</ele>
        <time>2018-10-21T06:59:59Z</time>
      </trkpt>
      <trkpt lat="46.43225" lon="2.90807">
        <ele>269.8</ele>
        <time>2018-10-21T07:00:01Z</time>
      </trkpt>
      <trkpt lat="46.43232" lon="2.9081">
        <ele>270.2</ele>
        <time>2018-10-21T07:00:03Z</time>
      </trkpt>
      <trkpt lat="46.43239" lon="2.90812">
        <ele>270.2</ele>
        <time>2018-10-21T07:00:05Z</time>
      </trkpt>
      <trkpt lat="46.43245" lon="2.90814">
        <ele>270.5</ele>
        <time>2018-10-21T07:00:07Z</time>
      </trkpt>
      <trkpt lat="46.43252" lon="2.90816">
        <ele>270.6</ele>
        <time>2018-10-21T07:00:09Z</time>
      </trkpt>
      <trkpt lat="46.43259" lon="2.90817">
        <ele>270.5</ele>
        <time>2018-10-21T07:00:11Z</time>
      </trkpt>
      <trkpt lat="46.43267" lon="2.90819">
        <ele>270.2</ele>
        <time>2018-10-21T07:00:13Z</time>
      </trkpt>
      <trkpt lat="46.43276" lon="2.90819">
        <ele>270.3</ele>
        <time>2018-10-21T07:00:15Z</time>
      </trkpt>
      <trkpt lat="46.43284" lon="2.90819">
        <ele>270.6</ele>
        <time>2018-10-21T07:00:17Z</time>
      </trkpt>
      <trkpt lat="46.43293" lon="2.90819">
        <ele>270.8</ele>
        <time>2018-10-21T07:00:19Z</time>
      </trkpt>
      <trkpt lat="46.43297" lon="2.90819">
        <ele>270.7</ele>
        <time>2018-10-21T07:00:20Z</time>
      </trkpt>
      <trkpt lat="46.43306" lon="2.90818">
        <ele>270.5</ele>
        <time>2018-10-21T07:00:22Z</time>
      </trkpt>
      <trkpt lat="46.43311" lon="2.90817">
        <ele>270.4</ele>
        <time>2018-10-21T07:00:23Z</time>
      </trkpt>
      <trkpt lat="46.43316" lon="2.90817">
        <ele>269.8</ele>
        <time>2018-10-21T07:00:24Z</time>
      </trkpt>
      <trkpt lat="46.43321" lon="2.90817">
        <ele>269.3</ele>
        <time>2018-10-21T07:00:25Z</time>
      </trkpt>
      <trkpt lat="46.43325" lon="2.90816">
        <ele>269.1</ele>
        <time>2018-10-21T07:00:26Z</time>
      </trkpt>
      <trkpt lat="46.4333" lon="2.90816">
        <ele>269</ele>
        <time>2018-10-21T07:00:27Z</time>
      </trkpt>
      <trkpt lat="46.43339" lon="2.90815">
        <ele>268.6</ele>
        <time>2018-10-21T07:00:29Z</time>
      </trkpt>
      <trkpt lat="46.43347" lon="2.90814">
        <ele>268.2</ele>
        <time>2018-10-21T07:00:31Z</time>
      </trkpt>
      <trkpt lat="46.43355" lon="2.90814">
        <ele>267.9</ele>
        <time>2018-10-21T07:00:33Z</time>
      </trkpt>
      <trkpt lat="46.43364" lon="2.90814">
        <ele>267.7</ele>
        <time>2018-10-21T07:00:35Z</time>
      </trkpt>
      <trkpt lat="46.43369" lon="2.90814">
        <ele>267.5</ele>
        <time>2018-10-21T07:00:36Z</time>
      </trkpt>
      <trkpt lat="46.43374" lon="2.90814">
        <ele>267.4</ele>
        <time>2018-10-21T07:00:37Z</time>
      </trkpt>
      <trkpt lat="46.43378" lon="2.90814">
        <ele>267.4</ele>
        <time>2018-10-21T07:00:38Z</time>
      </trkpt>
      <trkpt lat="46.43383" lon="2.90814">
        <ele>267.4</ele>
        <time>2018-10-21T07:00:39Z</time>
      </trkpt>
      <trkpt lat="46.43388" lon="2.90814">
        <ele>267.5</ele>
        <time>2018-10-21T07:00:40Z</time>
      </trkpt>
      <trkpt lat="46.43397" lon="2.90815">
        <ele>267.7</ele>
        <time>2018-10-21T07:00:42Z</time>
      </trkpt>
      <trkpt lat="46.43401" lon="2.90815">
        <ele>267.5</ele>
        <time>2018-10-21T07:00:43Z</time>
      </trkpt>
      <trkpt lat="46.43406" lon="2.90816">
        <ele>267.5</ele>
        <time>2018-10-21T07:00:44Z</time>
      </trkpt>
      <trkpt lat="46.43411" lon="2.90816">
        <ele>267.4</ele>
        <time>2018-10-21T07:00:45Z</time>
      </trkpt>
      <trkpt lat="46.43417" lon="2.90816">
        <ele>267.4</ele>
        <time>2018-10-21T07:00:46Z</time>
      </trkpt>
      <trkpt lat="46.43422" lon="2.90817">
        <ele>266.8</ele>
        <time>2018-10-21T07:00:47Z</time>
      </trkpt>
      <trkpt lat="46.43428" lon="2.90818">
        <ele>266.3</ele>
        <time>2018-10-21T07:00:48Z</time>
      </trkpt>
      <trkpt lat="46.43433" lon="2.9082">
        <ele>266</ele>
        <time>2018-10-21T07:00:49Z</time>
      </trkpt>
      <trkpt lat="46.43438" lon="2.90823">
        <ele>265.5</ele>
        <time>2018-10-21T07:00:50Z</time>
      </trkpt>
      <trkpt lat="46.43444" lon="2.90826">
        <ele>265.2</ele>
        <time>2018-10-21T07:00:51Z</time>
      </trkpt>
      <trkpt lat="46.4345" lon="2.90829">
        <ele>265.1</ele>
        <time>2018-10-21T07:00:52Z</time>
      </trkpt>
      <trkpt lat="46.43455" lon="2.90832">
        <ele>265</ele>
        <time>2018-10-21T07:00:53Z</time>
      </trkpt>
      <trkpt lat="46.4346" lon="2.90836">
        <ele>264.9</ele>
        <time>2018-10-21T07:00:54Z</time>
      </trkpt>
      <trkpt lat="46.43465" lon="2.9084">
        <ele>264.3</ele>
        <time>2018-10-21T07:00:55Z</time>
      </trkpt>
      <trkpt lat="46.43471" lon="2.90841">
        <ele>263.9</ele>
        <time>2018-10-21T07:00:56Z</time>
      </trkpt>
      <trkpt lat="46.43476" lon="2.90841">
        <ele>264</ele>
        <time>2018-10-21T07:00:57Z</time>
      </trkpt>
      <trkpt lat="46.43481" lon="2.90839">
        <ele>264</ele>
        <time>2018-10-21T07:00:58Z</time>
      </trkpt>
      <trkpt lat="46.43486" lon="2.90838">
        <ele>264</ele>
        <time>2018-10-21T07:00:59Z</time>
      </trkpt>
      <trkpt lat="46.43491" lon="2.90837">
        <ele>263.9</ele>
        <time>2018-10-21T07:01:00Z</time>
      </trkpt>
      <trkpt lat="46.43495" lon="2.90837">
        <ele>263.9</ele>
        <time>2018-10-21T07:01:01Z</time>
      </trkpt>
      <trkpt lat="46.435" lon="2.90836">
        <ele>263.5</ele>
        <time>2018-10-21T07:01:02Z</time>
      </trkpt>
      <trkpt lat="46.43509" lon="2.90835">
        <ele>263.2</ele>
        <time>2018-10-21T07:01:04Z</time>
      </trkpt>
      <trkpt lat="46.43517" lon="2.90833">
        <ele>263.2</ele>
        <time>2018-10-21T07:01:06Z</time>
      </trkpt>
      <trkpt lat="46.43522" lon="2.90832">
        <ele>263.4</ele>
        <time>2018-10-21T07:01:07Z</time>
      </trkpt>
      <trkpt lat="46.43526" lon="2.90831">
        <ele>263.5</ele>
        <time>2018-10-21T07:01:08Z</time>
      </trkpt>
      <trkpt lat="46.43531" lon="2.90828">
        <ele>263.5</ele>
        <time>2018-10-21T07:01:09Z</time>
      </trkpt>
      <trkpt lat="46.43536" lon="2.90826">
        <ele>263.5</ele>
        <time>2018-10-21T07:01:10Z</time>
      </trkpt>
      <trkpt lat="46.4354" lon="2.90824">
        <ele>263.3</ele>
        <time>2018-10-21T07:01:11Z</time>
      </trkpt>
      <trkpt lat="46.43545" lon="2.90821">
        <ele>263.2</ele>
        <time>2018-10-21T07:01:12Z</time>
      </trkpt>
      <trkpt lat="46.43549" lon="2.90818">
        <ele>263.2</ele>
        <time>2018-10-21T07:01:13Z</time>
      </trkpt>
      <trkpt lat="46.43553" lon="2.90815">
        <ele>262.7</ele>
        <time>2018-10-21T07:01:14Z</time>
      </trkpt>
      <trkpt lat="46.43557" lon="2.90811">
        <ele>262.4</ele>
        <time>2018-10-21T07:01:15Z</time>
      </trkpt>
      <trkpt lat="46.43562" lon="2.90807">
        <ele>263</ele>
        <time>2018-10-21T07:01:16Z</time>
      </trkpt>
      <trkpt lat="46.43566" lon="2.90803">
        <ele>263.5</ele>
        <time>2018-10-21T07:01:17Z</time>
      </trkpt>
      <trkpt lat="46.43569" lon="2.90799">
        <ele>263.5</ele>
        <time>2018-10-21T07:01:18Z</time>
      </trkpt>
      <trkpt lat="46.43573" lon="2.90795">
        <ele>263.5</ele>
        <time>2018-10-21T07:01:19Z</time>
      </trkpt>
      <trkpt lat="46.43577" lon="2.9079">
        <ele>263.5</ele>
        <time>2018-10-21T07:01:20Z</time>
      </trkpt>
      <trkpt lat="46.4358" lon="2.90785">
        <ele>263.2</ele>
        <time>2018-10-21T07:01:21Z</time>
      </trkpt>
      <trkpt lat="46.43583" lon="2.90779">
        <ele>263</ele>
        <time>2018-10-21T07:01:22Z</time>
      </trkpt>
      <trkpt lat="46.43585" lon="2.90773">
        <ele>263</ele>
        <time>2018-10-21T07:01:23Z</time>
      </trkpt>
      <trkpt lat="46.43588" lon="2.90768">
        <ele>263.1</ele>
        <time>2018-10-21T07:01:24Z</time>
      </trkpt>
      <trkpt lat="46.43591" lon="2.90762">
        <ele>263.1</ele>
        <time>2018-10-21T07:01:25Z</time>
      </trkpt>
      <trkpt lat="46.43593" lon="2.90756">
        <ele>262.8</ele>
        <time>2018-10-21T07:01:26Z</time>
      </trkpt>
      <trkpt lat="46.43595" lon="2.9075">
        <ele>262.6</ele>
        <time>2018-10-21T07:01:27Z</time>
      </trkpt>
      <trkpt lat="46.43597" lon="2.90743">
        <ele>262.9</ele>
        <time>2018-10-21T07:01:28Z</time>
      </trkpt>
      <trkpt lat="46.436" lon="2.90737">
        <ele>263.1</ele>
        <time>2018-10-21T07:01:29Z</time>
      </trkpt>
      <trkpt lat="46.43602" lon="2.90731">
        <ele>262.9</ele>
        <time>2018-10-21T07:01:30Z</time>
      </trkpt>
      <trkpt lat="46.43604" lon="2.90725">
        <ele>262.7</ele>
        <time>2018-10-21T07:01:31Z</time>
      </trkpt>
      <trkpt lat="46.43606" lon="2.90718">
        <ele>262.6</ele>
        <time>2018-10-21T07:01:32Z</time>
      </trkpt>
      <trkpt lat="46.43609" lon="2.90712">
        <ele>262.7</ele>
        <time>2018-10-21T07:01:33Z</time>
      </trkpt>
      <trkpt lat="46.43611" lon="2.90706">
        <ele>262.7</ele>
        <time>2018-10-21T07:01:34Z</time>
      </trkpt>
      <trkpt lat="46.43613" lon="2.907">
        <ele>262.5</ele>
        <time>2018-10-21T07:01:35Z</time>
      </trkpt>
      <trkpt lat="46.43616" lon="2.90695">
        <ele>262.4</ele>
        <time>2018-10-21T07:01:36Z</time>
      </trkpt>
      <trkpt lat="46.43619" lon="2.90689">
        <ele>262.2</ele>
        <time>2018-10-21T07:01:37Z</time>
      </trkpt>
      <trkpt lat="46.43622" lon="2.90684">
        <ele>262.1</ele>
        <time>2018-10-21T07:01:38Z</time>
      </trkpt>
      <trkpt lat="46.43625" lon="2.90679">
        <ele>262.1</ele>
        <time>2018-10-21T07:01:39Z</time>
      </trkpt>
      <trkpt lat="46.43632" lon="2.90671">
        <ele>262.6</ele>
        <time>2018-10-21T07:01:41Z</time>
      </trkpt>
      <trkpt lat="46.43636" lon="2.90668">
        <ele>262.7</ele>
        <time>2018-10-21T07:01:42Z</time>
      </trkpt>
      <trkpt lat="46.43647" lon="2.9067">
        <ele>262.8</ele>
        <time>2018-10-21T07:01:45Z</time>
      </trkpt>
      <trkpt lat="46.4365" lon="2.90678">
        <ele>262.9</ele>
        <time>2018-10-21T07:01:47Z</time>
      </trkpt>
      <trkpt lat="46.43651" lon="2.90687">
        <ele>263.2</ele>
        <time>2018-10-21T07:01:49Z</time>
      </trkpt>
      <trkpt lat="46.43652" lon="2.90696">
        <ele>263.5</ele>
        <time>2018-10-21T07:01:51Z</time>
      </trkpt>
      <trkpt lat="46.43654" lon="2.90709">
        <ele>264.1</ele>
        <time>2018-10-21T07:01:54Z</time>
      </trkpt>
      <trkpt lat="46.43655" lon="2.9072">
        <ele>264.7</ele>
        <time>2018-10-21T07:01:57Z</time>
      </trkpt>
      <trkpt lat="46.43657" lon="2.90731">
        <ele>265.8</ele>
        <time>2018-10-21T07:02:00Z</time>
      </trkpt>
      <trkpt lat="46.4366" lon="2.90742">
        <ele>266.2</ele>
        <time>2018-10-21T07:02:03Z</time>
      </trkpt>
      <trkpt lat="46.43662" lon="2.90752">
        <ele>267.3</ele>
        <time>2018-10-21T07:02:06Z</time>
      </trkpt>
      <trkpt lat="46.43666" lon="2.90763">
        <ele>269</ele>
        <time>2018-10-21T07:02:10Z</time>
      </trkpt>
      <trkpt lat="46.4367" lon="2.90773">
        <ele>271.2</ele>
        <time>2018-10-21T07:02:14Z</time>
      </trkpt>
      <trkpt lat="46.43676" lon="2.90781">
        <ele>272.8</ele>
        <time>2018-10-21T07:02:18Z</time>
      </trkpt>
      <trkpt lat="46.43682" lon="2.90789">
        <ele>274.8</ele>
        <time>2018-10-21T07:02:22Z</time>
      </trkpt>
      <trkpt lat="46.43688" lon="2.90797">
        <ele>275.5</ele>
        <time>2018-10-21T07:02:26Z</time>
      </trkpt>
      <trkpt lat="46.43695" lon="2.90805">
        <ele>277.6</ele>
        <time>2018-10-21T07:02:30Z</time>
      </trkpt>
      <trkpt lat="46.43702" lon="2.90812">
        <ele>278.5</ele>
        <time>2018-10-21T07:02:34Z</time>
      </trkpt>
      <trkpt lat="46.43708" lon="2.9082">
        <ele>279.9</ele>
        <time>2018-10-21T07:02:38Z</time>
      </trkpt>
      <trkpt lat="46.43712" lon="2.90832">
        <ele>280.9</ele>
        <time>2018-10-21T07:02:42Z</time>
      </trkpt>
      <trkpt lat="46.43712" lon="2.90835">
        <ele>281.4</ele>
        <time>2018-10-21T07:02:43Z</time>
      </trkpt>
      <trkpt lat="46.43709" lon="2.90851">
        <ele>282</ele>
        <time>2018-10-21T07:02:47Z</time>
      </trkpt>
      <trkpt lat="46.43707" lon="2.9086">
        <ele>282.6</ele>
        <time>2018-10-21T07:02:49Z</time>
      </trkpt>
      <trkpt lat="46.43704" lon="2.90868">
        <ele>283</ele>
        <time>2018-10-21T07:02:51Z</time>
      </trkpt>
      <trkpt lat="46.43703" lon="2.90877">
        <ele>282.9</ele>
        <time>2018-10-21T07:02:53Z</time>
      </trkpt>
      <trkpt lat="46.43701" lon="2.90886">
        <ele>283.2</ele>
        <time>2018-10-21T07:02:55Z</time>
      </trkpt>
      <trkpt lat="46.43699" lon="2.90896">
        <ele>283.3</ele>
        <time>2018-10-21T07:02:57Z</time>
      </trkpt>
      <trkpt lat="46.43698" lon="2.90905">
        <ele>283.8</ele>
        <time>2018-10-21T07:02:59Z</time>
      </trkpt>
      <trkpt lat="46.43699" lon="2.90915">
        <ele>284.5</ele>
        <time>2018-10-21T07:03:01Z</time>
      </trkpt>
      <trkpt lat="46.437" lon="2.90924">
        <ele>285.2</ele>
        <time>2018-10-21T07:03:03Z</time>
      </trkpt>
      <trkpt lat="46.43703" lon="2.90932">
        <ele>285.6</ele>
        <time>2018-10-21T07:03:05Z</time>
      </trkpt>
      <trkpt lat="46.43707" lon="2.9094">
        <ele>285.5</ele>
        <time>2018-10-21T07:03:07Z</time>
      </trkpt>
      <trkpt lat="46.43711" lon="2.90947">
        <ele>285.8</ele>
        <time>2018-10-21T07:03:09Z</time>
      </trkpt>
      <trkpt lat="46.43715" lon="2.90955">
        <ele>286.2</ele>
        <time>2018-10-21T07:03:11Z</time>
      </trkpt>
      <trkpt lat="46.43718" lon="2.90963">
        <ele>286.6</ele>
        <time>2018-10-21T07:03:13Z</time>
      </trkpt>
      <trkpt lat="46.4372" lon="2.90972">
        <ele>287.2</ele>
        <time>2018-10-21T07:03:15Z</time>
      </trkpt>
      <trkpt lat="46.43722" lon="2.90982">
        <ele>287.9</ele>
        <time>2018-10-21T07:03:17Z</time>
      </trkpt>
      <trkpt lat="46.43723" lon="2.90992">
        <ele>288.7</ele>
        <time>2018-10-21T07:03:19Z</time>
      </trkpt>
      <trkpt lat="46.43723" lon="2.91002">
        <ele>288.8</ele>
        <time>2018-10-21T07:03:21Z</time>
      </trkpt>
      <trkpt lat="46.43724" lon="2.91012">
        <ele>288.8</ele>
        <time>2018-10-21T07:03:23Z</time>
      </trkpt>
      <trkpt lat="46.43725" lon="2.91022">
        <ele>288.6</ele>
        <time>2018-10-21T07:03:25Z</time>
      </trkpt>
      <trkpt lat="46.43725" lon="2.91033">
        <ele>289</ele>
        <time>2018-10-21T07:03:27Z</time>
      </trkpt>
      <trkpt lat="46.43723" lon="2.91044">
        <ele>289.8</ele>
        <time>2018-10-21T07:03:29Z</time>
      </trkpt>
      <trkpt lat="46.43722" lon="2.91054">
        <ele>290.3</ele>
        <time>2018-10-21T07:03:31Z</time>
      </trkpt>
      <trkpt lat="46.4372" lon="2.91064">
        <ele>290.5</ele>
        <time>2018-10-21T07:03:33Z</time>
      </trkpt>
      <trkpt lat="46.43718" lon="2.91073">
        <ele>290.5</ele>
        <time>2018-10-21T07:03:35Z</time>
      </trkpt>
      <trkpt lat="46.43716" lon="2.91082">
        <ele>290.6</ele>
        <time>2018-10-21T07:03:37Z</time>
      </trkpt>
      <trkpt lat="46.43713" lon="2.91092">
        <ele>291</ele>
        <time>2018-10-21T07:03:39Z</time>
      </trkpt>
      <trkpt lat="46.43711" lon="2.91101">
        <ele>291.6</ele>
        <time>2018-10-21T07:03:41Z</time>
      </trkpt>
      <trkpt lat="46.43709" lon="2.91111">
        <ele>292.1</ele>
        <time>2018-10-21T07:03:43Z</time>
      </trkpt>
      <trkpt lat="46.43708" lon="2.91116">
        <ele>292.2</ele>
        <time>2018-10-21T07:03:44Z</time>
      </trkpt>
      <trkpt lat="46.43705" lon="2.91131">
        <ele>292.9</ele>
        <time>2018-10-21T07:03:47Z</time>
      </trkpt>
      <trkpt lat="46.43703" lon="2.91141">
        <ele>293.1</ele>
        <time>2018-10-21T07:03:49Z</time>
      </trkpt>
      <trkpt lat="46.437" lon="2.9115">
        <ele>293.1</ele>
        <time>2018-10-21T07:03:51Z</time>
      </trkpt>
      <trkpt lat="46.43698" lon="2.9116">
        <ele>293.4</ele>
        <time>2018-10-21T07:03:53Z</time>
      </trkpt>
      <trkpt lat="46.43697" lon="2.9117">
        <ele>293.8</ele>
        <time>2018-10-21T07:03:55Z</time>
      </trkpt>
      <trkpt lat="46.43695" lon="2.9118">
        <ele>294.1</ele>
        <time>2018-10-21T07:03:57Z</time>
      </trkpt>
      <trkpt lat="46.43694" lon="2.91189">
        <ele>293.8</ele>
        <time>2018-10-21T07:03:59Z</time>
      </trkpt>
      <trkpt lat="46.43692" lon="2.91199">
        <ele>294.3</ele>
        <time>2018-10-21T07:04:01Z</time>
      </trkpt>
      <trkpt lat="46.43691" lon="2.91209">
        <ele>294.6</ele>
        <time>2018-10-21T07:04:03Z</time>
      </trkpt>
      <trkpt lat="46.43689" lon="2.91218">
        <ele>295.2</ele>
        <time>2018-10-21T07:04:05Z</time>
      </trkpt>
      <trkpt lat="46.43688" lon="2.91228">
        <ele>295.2</ele>
        <time>2018-10-21T07:04:07Z</time>
      </trkpt>
      <trkpt lat="46.43686" lon="2.91238">
        <ele>294.8</ele>
        <time>2018-10-21T07:04:09Z</time>
      </trkpt>
      <trkpt lat="46.43684" lon="2.91248">
        <ele>294.9</ele>
        <time>2018-10-21T07:04:11Z</time>
      </trkpt>
      <trkpt lat="46.43683" lon="2.91258">
        <ele>295.7</ele>
        <time>2018-10-21T07:04:13Z</time>
      </trkpt>
      <trkpt lat="46.43681" lon="2.91268">
        <ele>296</ele>
        <time>2018-10-21T07:04:15Z</time>
      </trkpt>
      <trkpt lat="46.4368" lon="2.91278">
        <ele>296.5</ele>
        <time>2018-10-21T07:04:17Z</time>
      </trkpt>
      <trkpt lat="46.43679" lon="2.91288">
        <ele>297</ele>
        <time>2018-10-21T07:04:19Z</time>
      </trkpt>
      <trkpt lat="46.43678" lon="2.91298">
        <ele>297.1</ele>
        <time>2018-10-21T07:04:21Z</time>
      </trkpt>
      <trkpt lat="46.43678" lon="2.91308">
        <ele>297.7</ele>
        <time>2018-10-21T07:04:23Z</time>
      </trkpt>
      <trkpt lat="46.43677" lon="2.91318">
        <ele>298.1</ele>
        <time>2018-10-21T07:04:25Z</time>
      </trkpt>
      <trkpt lat="46.43677" lon="2.91327">
        <ele>298.3</ele>
        <time>2018-10-21T07:04:27Z</time>
      </trkpt>
      <trkpt lat="46.43676" lon="2.91337">
        <ele>298.7</ele>
        <time>2018-10-21T07:04:29Z</time>
      </trkpt>
      <trkpt lat="46.43675" lon="2.91346">
        <ele>299</ele>
        <time>2018-10-21T07:04:31Z</time>
      </trkpt>
      <trkpt lat="46.43674" lon="2.91356">
        <ele>299.3</ele>
        <time>2018-10-21T07:04:33Z</time>
      </trkpt>
      <trkpt lat="46.43673" lon="2.91366">
        <ele>299.5</ele>
        <time>2018-10-21T07:04:35Z</time>
      </trkpt>
      <trkpt lat="46.43672" lon="2.91376">
        <ele>299.7</ele>
        <time>2018-10-21T07:04:37Z</time>
      </trkpt>
      <trkpt lat="46.43671" lon="2.91386">
        <ele>299.8</ele>
        <time>2018-10-21T07:04:39Z</time>
      </trkpt>
      <trkpt lat="46.4367" lon="2.91397">
        <ele>300.2</ele>
        <time>2018-10-21T07:04:41Z</time>
      </trkpt>
      <trkpt lat="46.43669" lon="2.91407">
        <ele>300.7</ele>
        <time>2018-10-21T07:04:43Z</time>
      </trkpt>
      <trkpt lat="46.43668" lon="2.91417">
        <ele>301.2</ele>
        <time>2018-10-21T07:04:45Z</time>
      </trkpt>
      <trkpt lat="46.43668" lon="2.91422">
        <ele>301.6</ele>
        <time>2018-10-21T07:04:46Z</time>
      </trkpt>
      <trkpt lat="46.43668" lon="2.91438">
        <ele>301.9</ele>
        <time>2018-10-21T07:04:49Z</time>
      </trkpt>
      <trkpt lat="46.43669" lon="2.91449">
        <ele>302.5</ele>
        <time>2018-10-21T07:04:51Z</time>
      </trkpt>
      <trkpt lat="46.4367" lon="2.9146">
        <ele>302.7</ele>
        <time>2018-10-21T07:04:53Z</time>
      </trkpt>
      <trkpt lat="46.43671" lon="2.91471">
        <ele>302.5</ele>
        <time>2018-10-21T07:04:55Z</time>
      </trkpt>
      <trkpt lat="46.43673" lon="2.91481">
        <ele>302.1</ele>
        <time>2018-10-21T07:04:57Z</time>
      </trkpt>
      <trkpt lat="46.43675" lon="2.91492">
        <ele>302.1</ele>
        <time>2018-10-21T07:04:59Z</time>
      </trkpt>
      <trkpt lat="46.43677" lon="2.91503">
        <ele>302.2</ele>
        <time>2018-10-21T07:05:01Z</time>
      </trkpt>
      <trkpt lat="46.43679" lon="2.91514">
        <ele>302.9</ele>
        <time>2018-10-21T07:05:03Z</time>
      </trkpt>
      <trkpt lat="46.43682" lon="2.91524">
        <ele>303.4</ele>
        <time>2018-10-21T07:05:05Z</time>
      </trkpt>
      <trkpt lat="46.43684" lon="2.91535">
        <ele>303.6</ele>
        <time>2018-10-21T07:05:07Z</time>
      </trkpt>
      <trkpt lat="46.43687" lon="2.91545">
        <ele>303.8</ele>
        <time>2018-10-21T07:05:09Z</time>
      </trkpt>
      <trkpt lat="46.4369" lon="2.91556">
        <ele>304.1</ele>
        <time>2018-10-21T07:05:11Z</time>
      </trkpt>
      <trkpt lat="46.43693" lon="2.91566">
        <ele>304.9</ele>
        <time>2018-10-21T07:05:13Z</time>
      </trkpt>
      <trkpt lat="46.43696" lon="2.91576">
        <ele>305</ele>
        <time>2018-10-21T07:05:15Z</time>
      </trkpt>
      <trkpt lat="46.43698" lon="2.91587">
        <ele>305.2</ele>
        <time>2018-10-21T07:05:17Z</time>
      </trkpt>
      <trkpt lat="46.43702" lon="2.91597">
        <ele>305.6</ele>
        <time>2018-10-21T07:05:19Z</time>
      </trkpt>
      <trkpt lat="46.43705" lon="2.91607">
        <ele>305.5</ele>
        <time>2018-10-21T07:05:21Z</time>
      </trkpt>
      <trkpt lat="46.43708" lon="2.91618">
        <ele>305.1</ele>
        <time>2018-10-21T07:05:23Z</time>
      </trkpt>
      <trkpt lat="46.43711" lon="2.91628">
        <ele>305.8</ele>
        <time>2018-10-21T07:05:25Z</time>
      </trkpt>
      <trkpt lat="46.43714" lon="2.91638">
        <ele>306.4</ele>
        <time>2018-10-21T07:05:27Z</time>
      </trkpt>
      <trkpt lat="46.43718" lon="2.91648">
        <ele>306.8</ele>
        <time>2018-10-21T07:05:29Z</time>
      </trkpt>
      <trkpt lat="46.43721" lon="2.91659">
        <ele>307</ele>
        <time>2018-10-21T07:05:31Z</time>
      </trkpt>
      <trkpt lat="46.43725" lon="2.91669">
        <ele>306.9</ele>
        <time>2018-10-21T07:05:33Z</time>
      </trkpt>
      <trkpt lat="46.43729" lon="2.91679">
        <ele>306.7</ele>
        <time>2018-10-21T07:05:35Z</time>
      </trkpt>
      <trkpt lat="46.43733" lon="2.91689">
        <ele>307</ele>
        <time>2018-10-21T07:05:37Z</time>
      </trkpt>
      <trkpt lat="46.43737" lon="2.91699">
        <ele>307.4</ele>
        <time>2018-10-21T07:05:39Z</time>
      </trkpt>
      <trkpt lat="46.43742" lon="2.91709">
        <ele>307.9</ele>
        <time>2018-10-21T07:05:41Z</time>
      </trkpt>
      <trkpt lat="46.43746" lon="2.91719">
        <ele>308.1</ele>
        <time>2018-10-21T07:05:43Z</time>
      </trkpt>
      <trkpt lat="46.43751" lon="2.9173">
        <ele>308.3</ele>
        <time>2018-10-21T07:05:45Z</time>
      </trkpt>
      <trkpt lat="46.43755" lon="2.9174">
        <ele>308.3</ele>
        <time>2018-10-21T07:05:47Z</time>
      </trkpt>
      <trkpt lat="46.43758" lon="2.91745">
        <ele>308.5</ele>
        <time>2018-10-21T07:05:48Z</time>
      </trkpt>
      <trkpt lat="46.43766" lon="2.9176">
        <ele>308.3</ele>
        <time>2018-10-21T07:05:51Z</time>
      </trkpt>
      <trkpt lat="46.43771" lon="2.91771">
        <ele>308.2</ele>
        <time>2018-10-21T07:05:53Z</time>
      </trkpt>
      <trkpt lat="46.43776" lon="2.91781">
        <ele>308.3</ele>
        <time>2018-10-21T07:05:55Z</time>
      </trkpt>
      <trkpt lat="46.43778" lon="2.91786">
        <ele>308.3</ele>
        <time>2018-10-21T07:05:56Z</time>
      </trkpt>
      <trkpt lat="46.43781" lon="2.91792">
        <ele>308.8</ele>
        <time>2018-10-21T07:05:57Z</time>
      </trkpt>
      <trkpt lat="46.43784" lon="2.91797">
        <ele>309.2</ele>
        <time>2018-10-21T07:05:58Z</time>
      </trkpt>
      <trkpt lat="46.43789" lon="2.91807">
        <ele>309</ele>
        <time>2018-10-21T07:06:00Z</time>
      </trkpt>
      <trkpt lat="46.43792" lon="2.91813">
        <ele>308.9</ele>
        <time>2018-10-21T07:06:01Z</time>
      </trkpt>
      <trkpt lat="46.43797" lon="2.91823">
        <ele>308.9</ele>
        <time>2018-10-21T07:06:03Z</time>
      </trkpt>
      <trkpt lat="46.43802" lon="2.91833">
        <ele>309.1</ele>
        <time>2018-10-21T07:06:05Z</time>
      </trkpt>
      <trkpt lat="46.43807" lon="2.91843">
        <ele>309.2</ele>
        <time>2018-10-21T07:06:07Z</time>
      </trkpt>
      <trkpt lat="46.43812" lon="2.91852">
        <ele>309.2</ele>
        <time>2018-10-21T07:06:09Z</time>
      </trkpt>
      <trkpt lat="46.43817" lon="2.91862">
        <ele>309.1</ele>
        <time>2018-10-21T07:06:11Z</time>
      </trkpt>
      <trkpt lat="46.43822" lon="2.91872">
        <ele>309.2</ele>
        <time>2018-10-21T07:06:13Z</time>
      </trkpt>
      <trkpt lat="46.43827" lon="2.91882">
        <ele>309.7</ele>
        <time>2018-10-21T07:06:15Z</time>
      </trkpt>
      <trkpt lat="46.43832" lon="2.91892">
        <ele>310</ele>
        <time>2018-10-21T07:06:17Z</time>
      </trkpt>
      <trkpt lat="46.43837" lon="2.91902">
        <ele>309.9</ele>
        <time>2018-10-21T07:06:19Z</time>
      </trkpt>
      <trkpt lat="46.43842" lon="2.91912">
        <ele>309.8</ele>
        <time>2018-10-21T07:06:21Z</time>
      </trkpt>
      <trkpt lat="46.43846" lon="2.91922">
        <ele>310.1</ele>
        <time>2018-10-21T07:06:23Z</time>
      </trkpt>
      <trkpt lat="46.43851" lon="2.91932">
        <ele>310.4</ele>
        <time>2018-10-21T07:06:25Z</time>
      </trkpt>
      <trkpt lat="46.43855" lon="2.91941">
        <ele>310.6</ele>
        <time>2018-10-21T07:06:27Z</time>
      </trkpt>
      <trkpt lat="46.4386" lon="2.91952">
        <ele>311.6</ele>
        <time>2018-10-21T07:06:29Z</time>
      </trkpt>
      <trkpt lat="46.43864" lon="2.91962">
        <ele>312</ele>
        <time>2018-10-21T07:06:31Z</time>
      </trkpt>
      <trkpt lat="46.43868" lon="2.91973">
        <ele>312.1</ele>
        <time>2018-10-21T07:06:33Z</time>
      </trkpt>
      <trkpt lat="46.43872" lon="2.91984">
        <ele>312.2</ele>
        <time>2018-10-21T07:06:35Z</time>
      </trkpt>
      <trkpt lat="46.43876" lon="2.91995">
        <ele>312.4</ele>
        <time>2018-10-21T07:06:37Z</time>
      </trkpt>
      <trkpt lat="46.43879" lon="2.92006">
        <ele>312.3</ele>
        <time>2018-10-21T07:06:39Z</time>
      </trkpt>
      <trkpt lat="46.43883" lon="2.92018">
        <ele>312.5</ele>
        <time>2018-10-21T07:06:41Z</time>
      </trkpt>
      <trkpt lat="46.43886" lon="2.9203">
        <ele>312.8</ele>
        <time>2018-10-21T07:06:43Z</time>
      </trkpt>
      <trkpt lat="46.43887" lon="2.92036">
        <ele>312.9</ele>
        <time>2018-10-21T07:06:44Z</time>
      </trkpt>
      <trkpt lat="46.43889" lon="2.92043">
        <ele>312.8</ele>
        <time>2018-10-21T07:06:45Z</time>
      </trkpt>
      <trkpt lat="46.4389" lon="2.9205">
        <ele>312.7</ele>
        <time>2018-10-21T07:06:46Z</time>
      </trkpt>
      <trkpt lat="46.43892" lon="2.92056">
        <ele>312.7</ele>
        <time>2018-10-21T07:06:47Z</time>
      </trkpt>
      <trkpt lat="46.43893" lon="2.92063">
        <ele>312.7</ele>
        <time>2018-10-21T07:06:48Z</time>
      </trkpt>
      <trkpt lat="46.43895" lon="2.9207">
        <ele>312.3</ele>
        <time>2018-10-21T07:06:49Z</time>
      </trkpt>
      <trkpt lat="46.43897" lon="2.92078">
        <ele>312</ele>
        <time>2018-10-21T07:06:50Z</time>
      </trkpt>
      <trkpt lat="46.43898" lon="2.92085">
        <ele>311.8</ele>
        <time>2018-10-21T07:06:51Z</time>
      </trkpt>
      <trkpt lat="46.43899" lon="2.92092">
        <ele>311.5</ele>
        <time>2018-10-21T07:06:52Z</time>
      </trkpt>
      <trkpt lat="46.43901" lon="2.92099">
        <ele>311.3</ele>
        <time>2018-10-21T07:06:53Z</time>
      </trkpt>
      <trkpt lat="46.43902" lon="2.92106">
        <ele>311.6</ele>
        <time>2018-10-21T07:06:54Z</time>
      </trkpt>
      <trkpt lat="46.43903" lon="2.92113">
        <ele>311.8</ele>
        <time>2018-10-21T07:06:55Z</time>
      </trkpt>
      <trkpt lat="46.43905" lon="2.9212">
        <ele>312</ele>
        <time>2018-10-21T07:06:56Z</time>
      </trkpt>
      <trkpt lat="46.43906" lon="2.92127">
        <ele>312.1</ele>
        <time>2018-10-21T07:06:57Z</time>
      </trkpt>
      <trkpt lat="46.43907" lon="2.92133">
        <ele>312.2</ele>
        <time>2018-10-21T07:06:58Z</time>
      </trkpt>
      <trkpt lat="46.43908" lon="2.9214">
        <ele>312.4</ele>
        <time>2018-10-21T07:06:59Z</time>
      </trkpt>
      <trkpt lat="46.43909" lon="2.92147">
        <ele>312.6</ele>
        <time>2018-10-21T07:07:00Z</time>
      </trkpt>
      <trkpt lat="46.4391" lon="2.92154">
        <ele>312.7</ele>
        <time>2018-10-21T07:07:01Z</time>
      </trkpt>
      <trkpt lat="46.4391" lon="2.9216">
        <ele>312.8</ele>
        <time>2018-10-21T07:07:02Z</time>
      </trkpt>
      <trkpt lat="46.43911" lon="2.92167">
        <ele>312.9</ele>
        <time>2018-10-21T07:07:03Z</time>
      </trkpt>
      <trkpt lat="46.43911" lon="2.92174">
        <ele>312.6</ele>
        <time>2018-10-21T07:07:04Z</time>
      </trkpt>
      <trkpt lat="46.43911" lon="2.92181">
        <ele>312.4</ele>
        <time>2018-10-21T07:07:05Z</time>
      </trkpt>
      <trkpt lat="46.43911" lon="2.92188">
        <ele>312.4</ele>
        <time>2018-10-21T07:07:06Z</time>
      </trkpt>
      <trkpt lat="46.43911" lon="2.92195">
        <ele>312.4</ele>
        <time>2018-10-21T07:07:07Z</time>
      </trkpt>
      <trkpt lat="46.4391" lon="2.92201">
        <ele>312.1</ele>
        <time>2018-10-21T07:07:08Z</time>
      </trkpt>
      <trkpt lat="46.43909" lon="2.92208">
        <ele>311.9</ele>
        <time>2018-10-21T07:07:09Z</time>
      </trkpt>
      <trkpt lat="46.43908" lon="2.92215">
        <ele>311.7</ele>
        <time>2018-10-21T07:07:10Z</time>
      </trkpt>
      <trkpt lat="46.43907" lon="2.92222">
        <ele>312</ele>
        <time>2018-10-21T07:07:11Z</time>
      </trkpt>
      <trkpt lat="46.43906" lon="2.92229">
        <ele>312.3</ele>
        <time>2018-10-21T07:07:12Z</time>
      </trkpt>
      <trkpt lat="46.43906" lon="2.92236">
        <ele>312.4</ele>
        <time>2018-10-21T07:07:13Z</time>
      </trkpt>
      <trkpt lat="46.43905" lon="2.92243">
        <ele>312.6</ele>
        <time>2018-10-21T07:07:14Z</time>
      </trkpt>
      <trkpt lat="46.43905" lon="2.9225">
        <ele>312.7</ele>
        <time>2018-10-21T07:07:15Z</time>
      </trkpt>
      <trkpt lat="46.43904" lon="2.92256">
        <ele>312.9</ele>
        <time>2018-10-21T07:07:16Z</time>
      </trkpt>
      <trkpt lat="46.43904" lon="2.92263">
        <ele>313</ele>
        <time>2018-10-21T07:07:17Z</time>
      </trkpt>
      <trkpt lat="46.43903" lon="2.9227">
        <ele>313.3</ele>
        <time>2018-10-21T07:07:18Z</time>
      </trkpt>
      <trkpt lat="46.43903" lon="2.92277">
        <ele>313.4</ele>
        <time>2018-10-21T07:07:19Z</time>
      </trkpt>
      <trkpt lat="46.43903" lon="2.92284">
        <ele>313.5</ele>
        <time>2018-10-21T07:07:20Z</time>
      </trkpt>
      <trkpt lat="46.43902" lon="2.92291">
        <ele>313.6</ele>
        <time>2018-10-21T07:07:21Z</time>
      </trkpt>
      <trkpt lat="46.43902" lon="2.92298">
        <ele>313.6</ele>
        <time>2018-10-21T07:07:22Z</time>
      </trkpt>
      <trkpt lat="46.43901" lon="2.92305">
        <ele>313.6</ele>
        <time>2018-10-21T07:07:23Z</time>
      </trkpt>
      <trkpt lat="46.43901" lon="2.92312">
        <ele>313.5</ele>
        <time>2018-10-21T07:07:24Z</time>
      </trkpt>
      <trkpt lat="46.439" lon="2.92319">
        <ele>313.7</ele>
        <time>2018-10-21T07:07:25Z</time>
      </trkpt>
      <trkpt lat="46.439" lon="2.92326">
        <ele>313.8</ele>
        <time>2018-10-21T07:07:26Z</time>
      </trkpt>
      <trkpt lat="46.43899" lon="2.92332">
        <ele>313.9</ele>
        <time>2018-10-21T07:07:27Z</time>
      </trkpt>
      <trkpt lat="46.43899" lon="2.92339">
        <ele>314.6</ele>
        <time>2018-10-21T07:07:28Z</time>
      </trkpt>
      <trkpt lat="46.43898" lon="2.92346">
        <ele>315</ele>
        <time>2018-10-21T07:07:29Z</time>
      </trkpt>
      <trkpt lat="46.43898" lon="2.92352">
        <ele>314.5</ele>
        <time>2018-10-21T07:07:30Z</time>
      </trkpt>
      <trkpt lat="46.43898" lon="2.92359">
        <ele>314.1</ele>
        <time>2018-10-21T07:07:31Z</time>
      </trkpt>
      <trkpt lat="46.43898" lon="2.92366">
        <ele>314.1</ele>
        <time>2018-10-21T07:07:32Z</time>
      </trkpt>
      <trkpt lat="46.43899" lon="2.92379">
        <ele>314.1</ele>
        <time>2018-10-21T07:07:34Z</time>
      </trkpt>
      <trkpt lat="46.439" lon="2.92391">
        <ele>314.8</ele>
        <time>2018-10-21T07:07:36Z</time>
      </trkpt>
      <trkpt lat="46.43901" lon="2.92404">
        <ele>315</ele>
        <time>2018-10-21T07:07:38Z</time>
      </trkpt>
      <trkpt lat="46.43902" lon="2.92417">
        <ele>315.3</ele>
        <time>2018-10-21T07:07:40Z</time>
      </trkpt>
      <trkpt lat="46.43905" lon="2.92429">
        <ele>315.4</ele>
        <time>2018-10-21T07:07:42Z</time>
      </trkpt>
      <trkpt lat="46.4391" lon="2.92439">
        <ele>315.3</ele>
        <time>2018-10-21T07:07:44Z</time>
      </trkpt>
      <trkpt lat="46.43916" lon="2.92448">
        <ele>315.2</ele>
        <time>2018-10-21T07:07:46Z</time>
      </trkpt>
      <trkpt lat="46.43921" lon="2.92458">
        <ele>315.2</ele>
        <time>2018-10-21T07:07:48Z</time>
      </trkpt>
      <trkpt lat="46.43922" lon="2.9247">
        <ele>315.4</ele>
        <time>2018-10-21T07:07:50Z</time>
      </trkpt>
      <trkpt lat="46.43922" lon="2.92476">
        <ele>315.4</ele>
        <time>2018-10-21T07:07:51Z</time>
      </trkpt>
      <trkpt lat="46.43922" lon="2.92494">
        <ele>315.5</ele>
        <time>2018-10-21T07:07:54Z</time>
      </trkpt>
      <trkpt lat="46.43924" lon="2.92506">
        <ele>315.3</ele>
        <time>2018-10-21T07:07:56Z</time>
      </trkpt>
      <trkpt lat="46.43926" lon="2.92517">
        <ele>315.1</ele>
        <time>2018-10-21T07:07:58Z</time>
      </trkpt>
      <trkpt lat="46.4393" lon="2.92527">
        <ele>315.2</ele>
        <time>2018-10-21T07:08:00Z</time>
      </trkpt>
      <trkpt lat="46.43933" lon="2.92537">
        <ele>315.2</ele>
        <time>2018-10-21T07:08:02Z</time>
      </trkpt>
      <trkpt lat="46.43936" lon="2.92548">
        <ele>315.4</ele>
        <time>2018-10-21T07:08:04Z</time>
      </trkpt>
      <trkpt lat="46.4394" lon="2.92558">
        <ele>316</ele>
        <time>2018-10-21T07:08:06Z</time>
      </trkpt>
      <trkpt lat="46.43943" lon="2.92569">
        <ele>316.8</ele>
        <time>2018-10-21T07:08:08Z</time>
      </trkpt>
      <trkpt lat="46.43946" lon="2.92579">
        <ele>316.7</ele>
        <time>2018-10-21T07:08:10Z</time>
      </trkpt>
      <trkpt lat="46.4395" lon="2.92589">
        <ele>316.3</ele>
        <time>2018-10-21T07:08:12Z</time>
      </trkpt>
      <trkpt lat="46.43953" lon="2.92599">
        <ele>316.3</ele>
        <time>2018-10-21T07:08:14Z</time>
      </trkpt>
      <trkpt lat="46.43956" lon="2.9261">
        <ele>316.5</ele>
        <time>2018-10-21T07:08:16Z</time>
      </trkpt>
      <trkpt lat="46.43959" lon="2.92621">
        <ele>316.9</ele>
        <time>2018-10-21T07:08:18Z</time>
      </trkpt>
      <trkpt lat="46.43962" lon="2.92632">
        <ele>317.2</ele>
        <time>2018-10-21T07:08:20Z</time>
      </trkpt>
      <trkpt lat="46.43966" lon="2.92642">
        <ele>317.7</ele>
        <time>2018-10-21T07:08:22Z</time>
      </trkpt>
      <trkpt lat="46.43969" lon="2.92652">
        <ele>318.2</ele>
        <time>2018-10-21T07:08:24Z</time>
      </trkpt>
      <trkpt lat="46.43973" lon="2.92663">
        <ele>318.5</ele>
        <time>2018-10-21T07:08:26Z</time>
      </trkpt>
      <trkpt lat="46.43976" lon="2.92673">
        <ele>318.2</ele>
        <time>2018-10-21T07:08:28Z</time>
      </trkpt>
      <trkpt lat="46.43979" lon="2.92683">
        <ele>318.2</ele>
        <time>2018-10-21T07:08:30Z</time>
      </trkpt>
      <trkpt lat="46.43981" lon="2.92693">
        <ele>318.4</ele>
        <time>2018-10-21T07:08:32Z</time>
      </trkpt>
      <trkpt lat="46.43983" lon="2.92704">
        <ele>319</ele>
        <time>2018-10-21T07:08:34Z</time>
      </trkpt>
      <trkpt lat="46.43985" lon="2.92715">
        <ele>319.6</ele>
        <time>2018-10-21T07:08:36Z</time>
      </trkpt>
      <trkpt lat="46.43986" lon="2.92725">
        <ele>319.7</ele>
        <time>2018-10-21T07:08:38Z</time>
      </trkpt>
      <trkpt lat="46.43988" lon="2.92736">
        <ele>319.5</ele>
        <time>2018-10-21T07:08:40Z</time>
      </trkpt>
      <trkpt lat="46.4399" lon="2.92746">
        <ele>319.1</ele>
        <time>2018-10-21T07:08:42Z</time>
      </trkpt>
      <trkpt lat="46.43991" lon="2.92756">
        <ele>319.4</ele>
        <time>2018-10-21T07:08:44Z</time>
      </trkpt>
      <trkpt lat="46.43993" lon="2.92767">
        <ele>319.5</ele>
        <time>2018-10-21T07:08:46Z</time>
      </trkpt>
      <trkpt lat="46.43994" lon="2.92777">
        <ele>319.3</ele>
        <time>2018-10-21T07:08:48Z</time>
      </trkpt>
      <trkpt lat="46.43996" lon="2.92787">
        <ele>319.3</ele>
        <time>2018-10-21T07:08:50Z</time>
      </trkpt>
      <trkpt lat="46.43998" lon="2.92798">
        <ele>319.8</ele>
        <time>2018-10-21T07:08:52Z</time>
      </trkpt>
      <trkpt lat="46.43998" lon="2.92803">
        <ele>320.1</ele>
        <time>2018-10-21T07:08:53Z</time>
      </trkpt>
      <trkpt lat="46.44001" lon="2.92818">
        <ele>320.4</ele>
        <time>2018-10-21T07:08:56Z</time>
      </trkpt>
      <trkpt lat="46.44002" lon="2.92829">
        <ele>320.8</ele>
        <time>2018-10-21T07:08:58Z</time>
      </trkpt>
      <trkpt lat="46.44004" lon="2.9284">
        <ele>321.3</ele>
        <time>2018-10-21T07:09:00Z</time>
      </trkpt>
      <trkpt lat="46.44005" lon="2.92851">
        <ele>321.5</ele>
        <time>2018-10-21T07:09:02Z</time>
      </trkpt>
      <trkpt lat="46.44006" lon="2.92862">
        <ele>320.6</ele>
        <time>2018-10-21T07:09:04Z</time>
      </trkpt>
      <trkpt lat="46.44007" lon="2.92873">
        <ele>320.6</ele>
        <time>2018-10-21T07:09:06Z</time>
      </trkpt>
      <trkpt lat="46.44008" lon="2.92884">
        <ele>320.7</ele>
        <time>2018-10-21T07:09:08Z</time>
      </trkpt>
      <trkpt lat="46.44009" lon="2.92894">
        <ele>320.8</ele>
        <time>2018-10-21T07:09:10Z</time>
      </trkpt>
      <trkpt lat="46.44011" lon="2.92905">
        <ele>320.9</ele>
        <time>2018-10-21T07:09:12Z</time>
      </trkpt>
      <trkpt lat="46.44012" lon="2.92916">
        <ele>321.1</ele>
        <time>2018-10-21T07:09:14Z</time>
      </trkpt>
      <trkpt lat="46.44013" lon="2.92927">
        <ele>321.4</ele>
        <time>2018-10-21T07:09:16Z</time>
      </trkpt>
      <trkpt lat="46.44014" lon="2.92939">
        <ele>321.7</ele>
        <time>2018-10-21T07:09:18Z</time>
      </trkpt>
      <trkpt lat="46.44015" lon="2.9295">
        <ele>321</ele>
        <time>2018-10-21T07:09:20Z</time>
      </trkpt>
      <trkpt lat="46.44016" lon="2.92962">
        <ele>321.2</ele>
        <time>2018-10-21T07:09:22Z</time>
      </trkpt>
      <trkpt lat="46.44018" lon="2.92973">
        <ele>321.7</ele>
        <time>2018-10-21T07:09:24Z</time>
      </trkpt>
      <trkpt lat="46.44019" lon="2.92984">
        <ele>322</ele>
        <time>2018-10-21T07:09:26Z</time>
      </trkpt>
      <trkpt lat="46.4402" lon="2.92995">
        <ele>322.4</ele>
        <time>2018-10-21T07:09:28Z</time>
      </trkpt>
      <trkpt lat="46.44021" lon="2.93007">
        <ele>322.5</ele>
        <time>2018-10-21T07:09:30Z</time>
      </trkpt>
      <trkpt lat="46.44023" lon="2.93018">
        <ele>322.6</ele>
        <time>2018-10-21T07:09:32Z</time>
      </trkpt>
      <trkpt lat="46.44024" lon="2.9303">
        <ele>323</ele>
        <time>2018-10-21T07:09:34Z</time>
      </trkpt>
      <trkpt lat="46.44025" lon="2.93042">
        <ele>323.2</ele>
        <time>2018-10-21T07:09:36Z</time>
      </trkpt>
      <trkpt lat="46.44025" lon="2.93055">
        <ele>323.1</ele>
        <time>2018-10-21T07:09:38Z</time>
      </trkpt>
      <trkpt lat="46.44025" lon="2.93067">
        <ele>323</ele>
        <time>2018-10-21T07:09:40Z</time>
      </trkpt>
      <trkpt lat="46.44024" lon="2.9308">
        <ele>322.9</ele>
        <time>2018-10-21T07:09:42Z</time>
      </trkpt>
      <trkpt lat="46.44022" lon="2.93093">
        <ele>323</ele>
        <time>2018-10-21T07:09:44Z</time>
      </trkpt>
      <trkpt lat="46.44021" lon="2.93105">
        <ele>323</ele>
        <time>2018-10-21T07:09:46Z</time>
      </trkpt>
      <trkpt lat="46.44019" lon="2.93118">
        <ele>323</ele>
        <time>2018-10-21T07:09:48Z</time>
      </trkpt>
      <trkpt lat="46.44018" lon="2.9313">
        <ele>323.3</ele>
        <time>2018-10-21T07:09:50Z</time>
      </trkpt>
      <trkpt lat="46.44016" lon="2.93142">
        <ele>323.7</ele>
        <time>2018-10-21T07:09:52Z</time>
      </trkpt>
      <trkpt lat="46.44013" lon="2.93153">
        <ele>323.1</ele>
        <time>2018-10-21T07:09:54Z</time>
      </trkpt>
      <trkpt lat="46.44012" lon="2.93159">
        <ele>323.3</ele>
        <time>2018-10-21T07:09:55Z</time>
      </trkpt>
      <trkpt lat="46.44007" lon="2.93176">
        <ele>323.4</ele>
        <time>2018-10-21T07:09:58Z</time>
      </trkpt>
      <trkpt lat="46.44004" lon="2.93187">
        <ele>323.4</ele>
        <time>2018-10-21T07:10:00Z</time>
      </trkpt>
      <trkpt lat="46.44" lon="2.93198">
        <ele>323.4</ele>
        <time>2018-10-21T07:10:02Z</time>
      </trkpt>
      <trkpt lat="46.43996" lon="2.93208">
        <ele>323.3</ele>
        <time>2018-10-21T07:10:04Z</time>
      </trkpt>
      <trkpt lat="46.43992" lon="2.93219">
        <ele>323.7</ele>
        <time>2018-10-21T07:10:06Z</time>
      </trkpt>
      <trkpt lat="46.43988" lon="2.9323">
        <ele>323.8</ele>
        <time>2018-10-21T07:10:08Z</time>
      </trkpt>
      <trkpt lat="46.43985" lon="2.93241">
        <ele>323.7</ele>
        <time>2018-10-21T07:10:10Z</time>
      </trkpt>
      <trkpt lat="46.43981" lon="2.93252">
        <ele>323.5</ele>
        <time>2018-10-21T07:10:12Z</time>
      </trkpt>
      <trkpt lat="46.43978" lon="2.93262">
        <ele>323.5</ele>
        <time>2018-10-21T07:10:14Z</time>
      </trkpt>
      <trkpt lat="46.43974" lon="2.93272">
        <ele>323.7</ele>
        <time>2018-10-21T07:10:16Z</time>
      </trkpt>
      <trkpt lat="46.4397" lon="2.93282">
        <ele>324.1</ele>
        <time>2018-10-21T07:10:18Z</time>
      </trkpt>
      <trkpt lat="46.43967" lon="2.93292">
        <ele>323.8</ele>
        <time>2018-10-21T07:10:20Z</time>
      </trkpt>
      <trkpt lat="46.43964" lon="2.93301">
        <ele>324.3</ele>
        <time>2018-10-21T07:10:22Z</time>
      </trkpt>
      <trkpt lat="46.4396" lon="2.93311">
        <ele>324.3</ele>
        <time>2018-10-21T07:10:24Z</time>
      </trkpt>
      <trkpt lat="46.43957" lon="2.93321">
        <ele>324.3</ele>
        <time>2018-10-21T07:10:26Z</time>
      </trkpt>
      <trkpt lat="46.43953" lon="2.9333">
        <ele>324.5</ele>
        <time>2018-10-21T07:10:28Z</time>
      </trkpt>
      <trkpt lat="46.4395" lon="2.9334">
        <ele>325.1</ele>
        <time>2018-10-21T07:10:30Z</time>
      </trkpt>
      <trkpt lat="46.43946" lon="2.9335">
        <ele>325</ele>
        <time>2018-10-21T07:10:32Z</time>
      </trkpt>
      <trkpt lat="46.43944" lon="2.93361">
        <ele>325.5</ele>
        <time>2018-10-21T07:10:34Z</time>
      </trkpt>
      <trkpt lat="46.43942" lon="2.93371">
        <ele>325.4</ele>
        <time>2018-10-21T07:10:36Z</time>
      </trkpt>
      <trkpt lat="46.43942" lon="2.93382">
        <ele>325.9</ele>
        <time>2018-10-21T07:10:38Z</time>
      </trkpt>
      <trkpt lat="46.43942" lon="2.93393">
        <ele>326.3</ele>
        <time>2018-10-21T07:10:40Z</time>
      </trkpt>
      <trkpt lat="46.43943" lon="2.93404">
        <ele>326.3</ele>
        <time>2018-10-21T07:10:42Z</time>
      </trkpt>
      <trkpt lat="46.43944" lon="2.93416">
        <ele>327.1</ele>
        <time>2018-10-21T07:10:44Z</time>
      </trkpt>
      <trkpt lat="46.43945" lon="2.93427">
        <ele>327.1</ele>
        <time>2018-10-21T07:10:46Z</time>
      </trkpt>
      <trkpt lat="46.43947" lon="2.93438">
        <ele>327.1</ele>
        <time>2018-10-21T07:10:48Z</time>
      </trkpt>
      <trkpt lat="46.43949" lon="2.93449">
        <ele>327.4</ele>
        <time>2018-10-21T07:10:50Z</time>
      </trkpt>
      <trkpt lat="46.43951" lon="2.9346">
        <ele>327.6</ele>
        <time>2018-10-21T07:10:52Z</time>
      </trkpt>
      <trkpt lat="46.43953" lon="2.93471">
        <ele>327.8</ele>
        <time>2018-10-21T07:10:54Z</time>
      </trkpt>
      <trkpt lat="46.43955" lon="2.93482">
        <ele>327.8</ele>
        <time>2018-10-21T07:10:56Z</time>
      </trkpt>
      <trkpt lat="46.43956" lon="2.93488">
        <ele>328.3</ele>
        <time>2018-10-21T07:10:57Z</time>
      </trkpt>
      <trkpt lat="46.43959" lon="2.93505">
        <ele>328.8</ele>
        <time>2018-10-21T07:11:00Z</time>
      </trkpt>
      <trkpt lat="46.43961" lon="2.93516">
        <ele>328.9</ele>
        <time>2018-10-21T07:11:02Z</time>
      </trkpt>
      <trkpt lat="46.43964" lon="2.93528">
        <ele>329</ele>
        <time>2018-10-21T07:11:04Z</time>
      </trkpt>
      <trkpt lat="46.43966" lon="2.9354">
        <ele>329</ele>
        <time>2018-10-21T07:11:06Z</time>
      </trkpt>
      <trkpt lat="46.43966" lon="2.93552">
        <ele>329.2</ele>
        <time>2018-10-21T07:11:08Z</time>
      </trkpt>
      <trkpt lat="46.43961" lon="2.93559">
        <ele>329.3</ele>
        <time>2018-10-21T07:11:10Z</time>
      </trkpt>
      <trkpt lat="46.43953" lon="2.93563">
        <ele>329.5</ele>
        <time>2018-10-21T07:11:12Z</time>
      </trkpt>
      <trkpt lat="46.43946" lon="2.93567">
        <ele>329.4</ele>
        <time>2018-10-21T07:11:14Z</time>
      </trkpt>
      <trkpt lat="46.43938" lon="2.93571">
        <ele>329.3</ele>
        <time>2018-10-21T07:11:16Z</time>
      </trkpt>
      <trkpt lat="46.4393" lon="2.93574">
        <ele>329.3</ele>
        <time>2018-10-21T07:11:18Z</time>
      </trkpt>
      <trkpt lat="46.43922" lon="2.93577">
        <ele>329.7</ele>
        <time>2018-10-21T07:11:20Z</time>
      </trkpt>
      <trkpt lat="46.43914" lon="2.93581">
        <ele>330.3</ele>
        <time>2018-10-21T07:11:22Z</time>
      </trkpt>
      <trkpt lat="46.43906" lon="2.93584">
        <ele>330.5</ele>
        <time>2018-10-21T07:11:24Z</time>
      </trkpt>
      <trkpt lat="46.43898" lon="2.93587">
        <ele>330.7</ele>
        <time>2018-10-21T07:11:26Z</time>
      </trkpt>
      <trkpt lat="46.4389" lon="2.93591">
        <ele>331.1</ele>
        <time>2018-10-21T07:11:28Z</time>
      </trkpt>
      <trkpt lat="46.43882" lon="2.93596">
        <ele>331.5</ele>
        <time>2018-10-21T07:11:30Z</time>
      </trkpt>
      <trkpt lat="46.43874" lon="2.936">
        <ele>331.7</ele>
        <time>2018-10-21T07:11:32Z</time>
      </trkpt>
      <trkpt lat="46.43866" lon="2.93605">
        <ele>331.7</ele>
        <time>2018-10-21T07:11:34Z</time>
      </trkpt>
      <trkpt lat="46.43858" lon="2.93609">
        <ele>331.6</ele>
        <time>2018-10-21T07:11:36Z</time>
      </trkpt>
      <trkpt lat="46.43851" lon="2.93614">
        <ele>331.6</ele>
        <time>2018-10-21T07:11:38Z</time>
      </trkpt>
      <trkpt lat="46.43843" lon="2.9362">
        <ele>331.3</ele>
        <time>2018-10-21T07:11:40Z</time>
      </trkpt>
      <trkpt lat="46.43839" lon="2.93623">
        <ele>331.2</ele>
        <time>2018-10-21T07:11:41Z</time>
      </trkpt>
      <trkpt lat="46.43834" lon="2.93627">
        <ele>330.8</ele>
        <time>2018-10-21T07:11:42Z</time>
      </trkpt>
      <trkpt lat="46.4383" lon="2.9363">
        <ele>330.5</ele>
        <time>2018-10-21T07:11:43Z</time>
      </trkpt>
      <trkpt lat="46.43826" lon="2.93634">
        <ele>330.3</ele>
        <time>2018-10-21T07:11:44Z</time>
      </trkpt>
      <trkpt lat="46.43821" lon="2.93637">
        <ele>330.5</ele>
        <time>2018-10-21T07:11:45Z</time>
      </trkpt>
      <trkpt lat="46.43816" lon="2.9364">
        <ele>330.6</ele>
        <time>2018-10-21T07:11:46Z</time>
      </trkpt>
      <trkpt lat="46.43811" lon="2.93643">
        <ele>330.6</ele>
        <time>2018-10-21T07:11:47Z</time>
      </trkpt>
      <trkpt lat="46.43805" lon="2.93646">
        <ele>330.6</ele>
        <time>2018-10-21T07:11:48Z</time>
      </trkpt>
      <trkpt lat="46.43799" lon="2.93648">
        <ele>330.2</ele>
        <time>2018-10-21T07:11:49Z</time>
      </trkpt>
      <trkpt lat="46.43792" lon="2.9365">
        <ele>329.8</ele>
        <time>2018-10-21T07:11:50Z</time>
      </trkpt>
      <trkpt lat="46.43785" lon="2.93652">
        <ele>329.6</ele>
        <time>2018-10-21T07:11:51Z</time>
      </trkpt>
      <trkpt lat="46.43777" lon="2.93655">
        <ele>329.2</ele>
        <time>2018-10-21T07:11:52Z</time>
      </trkpt>
      <trkpt lat="46.43769" lon="2.93657">
        <ele>328.9</ele>
        <time>2018-10-21T07:11:53Z</time>
      </trkpt>
      <trkpt lat="46.43762" lon="2.9366">
        <ele>328.2</ele>
        <time>2018-10-21T07:11:54Z</time>
      </trkpt>
      <trkpt lat="46.43754" lon="2.93662">
        <ele>327.7</ele>
        <time>2018-10-21T07:11:55Z</time>
      </trkpt>
      <trkpt lat="46.43746" lon="2.93664">
        <ele>327.4</ele>
        <time>2018-10-21T07:11:56Z</time>
      </trkpt>
      <trkpt lat="46.43738" lon="2.93666">
        <ele>326.8</ele>
        <time>2018-10-21T07:11:57Z</time>
      </trkpt>
      <trkpt lat="46.4373" lon="2.93668">
        <ele>326.4</ele>
        <time>2018-10-21T07:11:58Z</time>
      </trkpt>
      <trkpt lat="46.43722" lon="2.9367">
        <ele>325.3</ele>
        <time>2018-10-21T07:11:59Z</time>
      </trkpt>
      <trkpt lat="46.43713" lon="2.93669">
        <ele>324.5</ele>
        <time>2018-10-21T07:12:00Z</time>
      </trkpt>
      <trkpt lat="46.43704" lon="2.93669">
        <ele>323.8</ele>
        <time>2018-10-21T07:12:01Z</time>
      </trkpt>
      <trkpt lat="46.43695" lon="2.93669">
        <ele>323.2</ele>
        <time>2018-10-21T07:12:02Z</time>
      </trkpt>
      <trkpt lat="46.43686" lon="2.93668">
        <ele>322.8</ele>
        <time>2018-10-21T07:12:03Z</time>
      </trkpt>
      <trkpt lat="46.43676" lon="2.93667">
        <ele>321.8</ele>
        <time>2018-10-21T07:12:04Z</time>
      </trkpt>
      <trkpt lat="46.43666" lon="2.93666">
        <ele>321.1</ele>
        <time>2018-10-21T07:12:05Z</time>
      </trkpt>
      <trkpt lat="46.43657" lon="2.93665">
        <ele>320.1</ele>
        <time>2018-10-21T07:12:06Z</time>
      </trkpt>
      <trkpt lat="46.43647" lon="2.93664">
        <ele>319.3</ele>
        <time>2018-10-21T07:12:07Z</time>
      </trkpt>
      <trkpt lat="46.43639" lon="2.93663">
        <ele>318.8</ele>
        <time>2018-10-21T07:12:08Z</time>
      </trkpt>
      <trkpt lat="46.43631" lon="2.93661">
        <ele>317.2</ele>
        <time>2018-10-21T07:12:09Z</time>
      </trkpt>
      <trkpt lat="46.43623" lon="2.93658">
        <ele>315.9</ele>
        <time>2018-10-21T07:12:10Z</time>
      </trkpt>
      <trkpt lat="46.43615" lon="2.93655">
        <ele>314</ele>
        <time>2018-10-21T07:12:11Z</time>
      </trkpt>
      <trkpt lat="46.43608" lon="2.93651">
        <ele>312.6</ele>
        <time>2018-10-21T07:12:12Z</time>
      </trkpt>
      <trkpt lat="46.43601" lon="2.93647">
        <ele>311</ele>
        <time>2018-10-21T07:12:13Z</time>
      </trkpt>
      <trkpt lat="46.43595" lon="2.93643">
        <ele>309.8</ele>
        <time>2018-10-21T07:12:14Z</time>
      </trkpt>
      <trkpt lat="46.43588" lon="2.93641">
        <ele>309</ele>
        <time>2018-10-21T07:12:15Z</time>
      </trkpt>
      <trkpt lat="46.43581" lon="2.9364">
        <ele>307.4</ele>
        <time>2018-10-21T07:12:16Z</time>
      </trkpt>
      <trkpt lat="46.43575" lon="2.9364">
        <ele>306.2</ele>
        <time>2018-10-21T07:12:17Z</time>
      </trkpt>
      <trkpt lat="46.4357" lon="2.93643">
        <ele>305.5</ele>
        <time>2018-10-21T07:12:18Z</time>
      </trkpt>
      <trkpt lat="46.43565" lon="2.93646">
        <ele>304.9</ele>
        <time>2018-10-21T07:12:19Z</time>
      </trkpt>
      <trkpt lat="46.4356" lon="2.93648">
        <ele>304.9</ele>
        <time>2018-10-21T07:12:20Z</time>
      </trkpt>
      <trkpt lat="46.43555" lon="2.9365">
        <ele>304.8</ele>
        <time>2018-10-21T07:12:21Z</time>
      </trkpt>
      <trkpt lat="46.4355" lon="2.93652">
        <ele>304.8</ele>
        <time>2018-10-21T07:12:22Z</time>
      </trkpt>
      <trkpt lat="46.43542" lon="2.93656">
        <ele>305</ele>
        <time>2018-10-21T07:12:24Z</time>
      </trkpt>
      <trkpt lat="46.43535" lon="2.93661">
        <ele>305.3</ele>
        <time>2018-10-21T07:12:26Z</time>
      </trkpt>
      <trkpt lat="46.43528" lon="2.93664">
        <ele>305.2</ele>
        <time>2018-10-21T07:12:28Z</time>
      </trkpt>
      <trkpt lat="46.4352" lon="2.9367">
        <ele>306.2</ele>
        <time>2018-10-21T07:12:31Z</time>
      </trkpt>
      <trkpt lat="46.43513" lon="2.93674">
        <ele>307.3</ele>
        <time>2018-10-21T07:12:34Z</time>
      </trkpt>
      <trkpt lat="46.43506" lon="2.93677">
        <ele>308.6</ele>
        <time>2018-10-21T07:12:37Z</time>
      </trkpt>
      <trkpt lat="46.43498" lon="2.9368">
        <ele>308.9</ele>
        <time>2018-10-21T07:12:40Z</time>
      </trkpt>
      <trkpt lat="46.43489" lon="2.93684">
        <ele>309.8</ele>
        <time>2018-10-21T07:12:43Z</time>
      </trkpt>
      <trkpt lat="46.43481" lon="2.93686">
        <ele>310.6</ele>
        <time>2018-10-21T07:12:46Z</time>
      </trkpt>
      <trkpt lat="46.43473" lon="2.93688">
        <ele>310.9</ele>
        <time>2018-10-21T07:12:49Z</time>
      </trkpt>
      <trkpt lat="46.43464" lon="2.9369">
        <ele>311.6</ele>
        <time>2018-10-21T07:12:52Z</time>
      </trkpt>
      <trkpt lat="46.43456" lon="2.93692">
        <ele>312.1</ele>
        <time>2018-10-21T07:12:55Z</time>
      </trkpt>
      <trkpt lat="46.43448" lon="2.93694">
        <ele>312.9</ele>
        <time>2018-10-21T07:12:58Z</time>
      </trkpt>
      <trkpt lat="46.43445" lon="2.93695">
        <ele>313.1</ele>
        <time>2018-10-21T07:12:59Z</time>
      </trkpt>
      <trkpt lat="46.43434" lon="2.93699">
        <ele>313.9</ele>
        <time>2018-10-21T07:13:03Z</time>
      </trkpt>
      <trkpt lat="46.43428" lon="2.937">
        <ele>313.8</ele>
        <time>2018-10-21T07:13:05Z</time>
      </trkpt>
      <trkpt lat="46.43422" lon="2.93702">
        <ele>314.8</ele>
        <time>2018-10-21T07:13:07Z</time>
      </trkpt>
      <trkpt lat="46.43416" lon="2.93704">
        <ele>315.2</ele>
        <time>2018-10-21T07:13:09Z</time>
      </trkpt>
      <trkpt lat="46.4341" lon="2.93706">
        <ele>315.8</ele>
        <time>2018-10-21T07:13:11Z</time>
      </trkpt>
      <trkpt lat="46.43403" lon="2.93709">
        <ele>315.9</ele>
        <time>2018-10-21T07:13:13Z</time>
      </trkpt>
      <trkpt lat="46.43397" lon="2.93711">
        <ele>315.9</ele>
        <time>2018-10-21T07:13:15Z</time>
      </trkpt>
      <trkpt lat="46.43391" lon="2.93714">
        <ele>316.1</ele>
        <time>2018-10-21T07:13:17Z</time>
      </trkpt>
      <trkpt lat="46.43385" lon="2.93716">
        <ele>316.9</ele>
        <time>2018-10-21T07:13:19Z</time>
      </trkpt>
      <trkpt lat="46.43379" lon="2.93719">
        <ele>316.6</ele>
        <time>2018-10-21T07:13:21Z</time>
      </trkpt>
      <trkpt lat="46.43372" lon="2.93721">
        <ele>316.7</ele>
        <time>2018-10-21T07:13:23Z</time>
      </trkpt>
      <trkpt lat="46.43366" lon="2.93724">
        <ele>317.1</ele>
        <time>2018-10-21T07:13:25Z</time>
      </trkpt>
      <trkpt lat="46.4336" lon="2.93727">
        <ele>317.7</ele>
        <time>2018-10-21T07:13:27Z</time>
      </trkpt>
      <trkpt lat="46.43353" lon="2.93728">
        <ele>318.1</ele>
        <time>2018-10-21T07:13:29Z</time>
      </trkpt>
      <trkpt lat="46.43347" lon="2.93726">
        <ele>318.3</ele>
        <time>2018-10-21T07:13:31Z</time>
      </trkpt>
      <trkpt lat="46.43339" lon="2.93721">
        <ele>318.2</ele>
        <time>2018-10-21T07:13:33Z</time>
      </trkpt>
      <trkpt lat="46.43332" lon="2.93715">
        <ele>318</ele>
        <time>2018-10-21T07:13:35Z</time>
      </trkpt>
      <trkpt lat="46.43324" lon="2.93708">
        <ele>317.5</ele>
        <time>2018-10-21T07:13:37Z</time>
      </trkpt>
      <trkpt lat="46.43317" lon="2.93701">
        <ele>317.2</ele>
        <time>2018-10-21T07:13:39Z</time>
      </trkpt>
      <trkpt lat="46.43311" lon="2.93694">
        <ele>317.5</ele>
        <time>2018-10-21T07:13:41Z</time>
      </trkpt>
      <trkpt lat="46.43305" lon="2.93686">
        <ele>317.9</ele>
        <time>2018-10-21T07:13:43Z</time>
      </trkpt>
      <trkpt lat="46.433" lon="2.93679">
        <ele>319.1</ele>
        <time>2018-10-21T07:13:45Z</time>
      </trkpt>
      <trkpt lat="46.43294" lon="2.93672">
        <ele>319.2</ele>
        <time>2018-10-21T07:13:47Z</time>
      </trkpt>
      <trkpt lat="46.43287" lon="2.93665">
        <ele>319.4</ele>
        <time>2018-10-21T07:13:49Z</time>
      </trkpt>
      <trkpt lat="46.43281" lon="2.93658">
        <ele>319.7</ele>
        <time>2018-10-21T07:13:51Z</time>
      </trkpt>
      <trkpt lat="46.43275" lon="2.93652">
        <ele>319.8</ele>
        <time>2018-10-21T07:13:53Z</time>
      </trkpt>
      <trkpt lat="46.43268" lon="2.93645">
        <ele>319.8</ele>
        <time>2018-10-21T07:13:55Z</time>
      </trkpt>
      <trkpt lat="46.43261" lon="2.9364">
        <ele>319.7</ele>
        <time>2018-10-21T07:13:57Z</time>
      </trkpt>
      <trkpt lat="46.43253" lon="2.93635">
        <ele>320.1</ele>
        <time>2018-10-21T07:13:59Z</time>
      </trkpt>
      <trkpt lat="46.43249" lon="2.93633">
        <ele>320.5</ele>
        <time>2018-10-21T07:14:00Z</time>
      </trkpt>
      <trkpt lat="46.43237" lon="2.93627">
        <ele>321.2</ele>
        <time>2018-10-21T07:14:03Z</time>
      </trkpt>
      <trkpt lat="46.43229" lon="2.93623">
        <ele>321.3</ele>
        <time>2018-10-21T07:14:05Z</time>
      </trkpt>
      <trkpt lat="46.43225" lon="2.93622">
        <ele>321.2</ele>
        <time>2018-10-21T07:14:06Z</time>
      </trkpt>
      <trkpt lat="46.43216" lon="2.93619">
        <ele>320.8</ele>
        <time>2018-10-21T07:14:08Z</time>
      </trkpt>
      <trkpt lat="46.43207" lon="2.93617">
        <ele>320.7</ele>
        <time>2018-10-21T07:14:10Z</time>
      </trkpt>
      <trkpt lat="46.43203" lon="2.93615">
        <ele>320.7</ele>
        <time>2018-10-21T07:14:11Z</time>
      </trkpt>
      <trkpt lat="46.43194" lon="2.93613">
        <ele>321.1</ele>
        <time>2018-10-21T07:14:13Z</time>
      </trkpt>
      <trkpt lat="46.43186" lon="2.93611">
        <ele>321.1</ele>
        <time>2018-10-21T07:14:15Z</time>
      </trkpt>
      <trkpt lat="46.43178" lon="2.93607">
        <ele>321</ele>
        <time>2018-10-21T07:14:17Z</time>
      </trkpt>
      <trkpt lat="46.43169" lon="2.93603">
        <ele>321.3</ele>
        <time>2018-10-21T07:14:19Z</time>
      </trkpt>
      <trkpt lat="46.43162" lon="2.93598">
        <ele>321.6</ele>
        <time>2018-10-21T07:14:21Z</time>
      </trkpt>
      <trkpt lat="46.43154" lon="2.93592">
        <ele>321.3</ele>
        <time>2018-10-21T07:14:23Z</time>
      </trkpt>
      <trkpt lat="46.43146" lon="2.93587">
        <ele>321.5</ele>
        <time>2018-10-21T07:14:25Z</time>
      </trkpt>
      <trkpt lat="46.43138" lon="2.93582">
        <ele>321.4</ele>
        <time>2018-10-21T07:14:27Z</time>
      </trkpt>
      <trkpt lat="46.4313" lon="2.93579">
        <ele>321.3</ele>
        <time>2018-10-21T07:14:29Z</time>
      </trkpt>
      <trkpt lat="46.43123" lon="2.93578">
        <ele>321.4</ele>
        <time>2018-10-21T07:14:31Z</time>
      </trkpt>
      <trkpt lat="46.43115" lon="2.93578">
        <ele>321.3</ele>
        <time>2018-10-21T07:14:33Z</time>
      </trkpt>
      <trkpt lat="46.43108" lon="2.93579">
        <ele>321.9</ele>
        <time>2018-10-21T07:14:35Z</time>
      </trkpt>
      <trkpt lat="46.43101" lon="2.93583">
        <ele>322.1</ele>
        <time>2018-10-21T07:14:37Z</time>
      </trkpt>
      <trkpt lat="46.43094" lon="2.93587">
        <ele>322.5</ele>
        <time>2018-10-21T07:14:39Z</time>
      </trkpt>
      <trkpt lat="46.43087" lon="2.93591">
        <ele>322.8</ele>
        <time>2018-10-21T07:14:41Z</time>
      </trkpt>
      <trkpt lat="46.4308" lon="2.93596">
        <ele>323</ele>
        <time>2018-10-21T07:14:43Z</time>
      </trkpt>
      <trkpt lat="46.43073" lon="2.93601">
        <ele>323.4</ele>
        <time>2018-10-21T07:14:45Z</time>
      </trkpt>
      <trkpt lat="46.43067" lon="2.93606">
        <ele>323.7</ele>
        <time>2018-10-21T07:14:47Z</time>
      </trkpt>
      <trkpt lat="46.43061" lon="2.93612">
        <ele>324.1</ele>
        <time>2018-10-21T07:14:49Z</time>
      </trkpt>
      <trkpt lat="46.43056" lon="2.93617">
        <ele>325</ele>
        <time>2018-10-21T07:14:51Z</time>
      </trkpt>
      <trkpt lat="46.43049" lon="2.93624">
        <ele>325.6</ele>
        <time>2018-10-21T07:14:54Z</time>
      </trkpt>
      <trkpt lat="46.43044" lon="2.93629">
        <ele>326.2</ele>
        <time>2018-10-21T07:14:56Z</time>
      </trkpt>
      <trkpt lat="46.43039" lon="2.93635">
        <ele>326.4</ele>
        <time>2018-10-21T07:14:58Z</time>
      </trkpt>
      <trkpt lat="46.43034" lon="2.93641">
        <ele>326.4</ele>
        <time>2018-10-21T07:15:00Z</time>
      </trkpt>
      <trkpt lat="46.43031" lon="2.93645">
        <ele>326.4</ele>
        <time>2018-10-21T07:15:01Z</time>
      </trkpt>
      <trkpt lat="46.43022" lon="2.93652">
        <ele>327.2</ele>
        <time>2018-10-21T07:15:04Z</time>
      </trkpt>
      <trkpt lat="46.43016" lon="2.93653">
        <ele>327.5</ele>
        <time>2018-10-21T07:15:06Z</time>
      </trkpt>
      <trkpt lat="46.4301" lon="2.93651">
        <ele>327.3</ele>
        <time>2018-10-21T07:15:08Z</time>
      </trkpt>
      <trkpt lat="46.43004" lon="2.93647">
        <ele>327.7</ele>
        <time>2018-10-21T07:15:10Z</time>
      </trkpt>
      <trkpt lat="46.42997" lon="2.93641">
        <ele>328.6</ele>
        <time>2018-10-21T07:15:13Z</time>
      </trkpt>
      <trkpt lat="46.42984" lon="2.93632">
        <ele>328</ele>
        <time>2018-10-21T07:15:17Z</time>
      </trkpt>
      <trkpt lat="46.42977" lon="2.93627">
        <ele>329.7</ele>
        <time>2018-10-21T07:15:20Z</time>
      </trkpt>
      <trkpt lat="46.4297" lon="2.93624">
        <ele>330.1</ele>
        <time>2018-10-21T07:15:22Z</time>
      </trkpt>
      <trkpt lat="46.42964" lon="2.93622">
        <ele>330.7</ele>
        <time>2018-10-21T07:15:24Z</time>
      </trkpt>
      <trkpt lat="46.42957" lon="2.93621">
        <ele>331.2</ele>
        <time>2018-10-21T07:15:26Z</time>
      </trkpt>
      <trkpt lat="46.4295" lon="2.93621">
        <ele>331.6</ele>
        <time>2018-10-21T07:15:28Z</time>
      </trkpt>
      <trkpt lat="46.42943" lon="2.9362">
        <ele>332</ele>
        <time>2018-10-21T07:15:30Z</time>
      </trkpt>
      <trkpt lat="46.42937" lon="2.9362">
        <ele>332.5</ele>
        <time>2018-10-21T07:15:32Z</time>
      </trkpt>
      <trkpt lat="46.4293" lon="2.9362">
        <ele>332.4</ele>
        <time>2018-10-21T07:15:34Z</time>
      </trkpt>
      <trkpt lat="46.42924" lon="2.9362">
        <ele>332.8</ele>
        <time>2018-10-21T07:15:36Z</time>
      </trkpt>
      <trkpt lat="46.42917" lon="2.93618">
        <ele>333.6</ele>
        <time>2018-10-21T07:15:38Z</time>
      </trkpt>
      <trkpt lat="46.42911" lon="2.93618">
        <ele>334.2</ele>
        <time>2018-10-21T07:15:40Z</time>
      </trkpt>
      <trkpt lat="46.42904" lon="2.93618">
        <ele>334.6</ele>
        <time>2018-10-21T07:15:42Z</time>
      </trkpt>
      <trkpt lat="46.42897" lon="2.93619">
        <ele>334.6</ele>
        <time>2018-10-21T07:15:44Z</time>
      </trkpt>
      <trkpt lat="46.4289" lon="2.9362">
        <ele>334.7</ele>
        <time>2018-10-21T07:15:46Z</time>
      </trkpt>
      <trkpt lat="46.42883" lon="2.93621">
        <ele>334.5</ele>
        <time>2018-10-21T07:15:48Z</time>
      </trkpt>
      <trkpt lat="46.42876" lon="2.93623">
        <ele>334.6</ele>
        <time>2018-10-21T07:15:50Z</time>
      </trkpt>
      <trkpt lat="46.42869" lon="2.93624">
        <ele>335.4</ele>
        <time>2018-10-21T07:15:52Z</time>
      </trkpt>
      <trkpt lat="46.42862" lon="2.93625">
        <ele>336.1</ele>
        <time>2018-10-21T07:15:54Z</time>
      </trkpt>
      <trkpt lat="46.42855" lon="2.93626">
        <ele>336.1</ele>
        <time>2018-10-21T07:15:56Z</time>
      </trkpt>
      <trkpt lat="46.42849" lon="2.93626">
        <ele>336.4</ele>
        <time>2018-10-21T07:15:58Z</time>
      </trkpt>
      <trkpt lat="46.4284" lon="2.93626">
        <ele>335.9</ele>
        <time>2018-10-21T07:16:01Z</time>
      </trkpt>
      <trkpt lat="46.42837" lon="2.93628">
        <ele>335.8</ele>
        <time>2018-10-21T07:16:02Z</time>
      </trkpt>
      <trkpt lat="46.42831" lon="2.93642">
        <ele>335.5</ele>
        <time>2018-10-21T07:16:06Z</time>
      </trkpt>
      <trkpt lat="46.42831" lon="2.9365">
        <ele>335.6</ele>
        <time>2018-10-21T07:16:08Z</time>
      </trkpt>
      <trkpt lat="46.42831" lon="2.93659">
        <ele>336.1</ele>
        <time>2018-10-21T07:16:10Z</time>
      </trkpt>
      <trkpt lat="46.42832" lon="2.93668">
        <ele>336.3</ele>
        <time>2018-10-21T07:16:12Z</time>
      </trkpt>
      <trkpt lat="46.42833" lon="2.93678">
        <ele>336</ele>
        <time>2018-10-21T07:16:14Z</time>
      </trkpt>
      <trkpt lat="46.42833" lon="2.93687">
        <ele>336.4</ele>
        <time>2018-10-21T07:16:16Z</time>
      </trkpt>
      <trkpt lat="46.42833" lon="2.93696">
        <ele>337.3</ele>
        <time>2018-10-21T07:16:18Z</time>
      </trkpt>
      <trkpt lat="46.42834" lon="2.93706">
        <ele>337.5</ele>
        <time>2018-10-21T07:16:20Z</time>
      </trkpt>
      <trkpt lat="46.42834" lon="2.93716">
        <ele>338.4</ele>
        <time>2018-10-21T07:16:22Z</time>
      </trkpt>
      <trkpt lat="46.42834" lon="2.93725">
        <ele>339.1</ele>
        <time>2018-10-21T07:16:24Z</time>
      </trkpt>
      <trkpt lat="46.42834" lon="2.93735">
        <ele>339.5</ele>
        <time>2018-10-21T07:16:26Z</time>
      </trkpt>
      <trkpt lat="46.42834" lon="2.93745">
        <ele>339.4</ele>
        <time>2018-10-21T07:16:28Z</time>
      </trkpt>
      <trkpt lat="46.42834" lon="2.93754">
        <ele>339.2</ele>
        <time>2018-10-21T07:16:30Z</time>
      </trkpt>
      <trkpt lat="46.42835" lon="2.93763">
        <ele>339.1</ele>
        <time>2018-10-21T07:16:32Z</time>
      </trkpt>
      <trkpt lat="46.42835" lon="2.93773">
        <ele>339.7</ele>
        <time>2018-10-21T07:16:34Z</time>
      </trkpt>
      <trkpt lat="46.42835" lon="2.93783">
        <ele>339.8</ele>
        <time>2018-10-21T07:16:36Z</time>
      </trkpt>
      <trkpt lat="46.42835" lon="2.93794">
        <ele>339.8</ele>
        <time>2018-10-21T07:16:38Z</time>
      </trkpt>
      <trkpt lat="46.42835" lon="2.93804">
        <ele>340.2</ele>
        <time>2018-10-21T07:16:40Z</time>
      </trkpt>
      <trkpt lat="46.42835" lon="2.93814">
        <ele>340.7</ele>
        <time>2018-10-21T07:16:42Z</time>
      </trkpt>
      <trkpt lat="46.42835" lon="2.93825">
        <ele>340.9</ele>
        <time>2018-10-21T07:16:44Z</time>
      </trkpt>
      <trkpt lat="46.42835" lon="2.93836">
        <ele>341.3</ele>
        <time>2018-10-21T07:16:46Z</time>
      </trkpt>
      <trkpt lat="46.42835" lon="2.93847">
        <ele>342</ele>
        <time>2018-10-21T07:16:48Z</time>
      </trkpt>
      <trkpt lat="46.42835" lon="2.93858">
        <ele>342.2</ele>
        <time>2018-10-21T07:16:50Z</time>
      </trkpt>
      <trkpt lat="46.42835" lon="2.93868">
        <ele>342</ele>
        <time>2018-10-21T07:16:52Z</time>
      </trkpt>
      <trkpt lat="46.42836" lon="2.93878">
        <ele>341.9</ele>
        <time>2018-10-21T07:16:54Z</time>
      </trkpt>
      <trkpt lat="46.42836" lon="2.93888">
        <ele>341.9</ele>
        <time>2018-10-21T07:16:56Z</time>
      </trkpt>
      <trkpt lat="46.42836" lon="2.93898">
        <ele>342.9</ele>
        <time>2018-10-21T07:16:58Z</time>
      </trkpt>
      <trkpt lat="46.42836" lon="2.93907">
        <ele>342.8</ele>
        <time>2018-10-21T07:17:00Z</time>
      </trkpt>
      <trkpt lat="46.42836" lon="2.93917">
        <ele>343.3</ele>
        <time>2018-10-21T07:17:02Z</time>
      </trkpt>
      <trkpt lat="46.42836" lon="2.93922">
        <ele>343.5</ele>
        <time>2018-10-21T07:17:03Z</time>
      </trkpt>
      <trkpt lat="46.42836" lon="2.93938">
        <ele>343.7</ele>
        <time>2018-10-21T07:17:06Z</time>
      </trkpt>
      <trkpt lat="46.42836" lon="2.93948">
        <ele>343.8</ele>
        <time>2018-10-21T07:17:08Z</time>
      </trkpt>
      <trkpt lat="46.42836" lon="2.93958">
        <ele>343.8</ele>
        <time>2018-10-21T07:17:10Z</time>
      </trkpt>
      <trkpt lat="46.42836" lon="2.93968">
        <ele>344.5</ele>
        <time>2018-10-21T07:17:12Z</time>
      </trkpt>
      <trkpt lat="46.42835" lon="2.93977">
        <ele>345.3</ele>
        <time>2018-10-21T07:17:14Z</time>
      </trkpt>
      <trkpt lat="46.42835" lon="2.93987">
        <ele>345.8</ele>
        <time>2018-10-21T07:17:16Z</time>
      </trkpt>
      <trkpt lat="46.42835" lon="2.93997">
        <ele>346.2</ele>
        <time>2018-10-21T07:17:18Z</time>
      </trkpt>
      <trkpt lat="46.42834" lon="2.94007">
        <ele>346.9</ele>
        <time>2018-10-21T07:17:20Z</time>
      </trkpt>
      <trkpt lat="46.42833" lon="2.94017">
        <ele>347.7</ele>
        <time>2018-10-21T07:17:22Z</time>
      </trkpt>
      <trkpt lat="46.42832" lon="2.94027">
        <ele>347.9</ele>
        <time>2018-10-21T07:17:24Z</time>
      </trkpt>
      <trkpt lat="46.4283" lon="2.94036">
        <ele>348.3</ele>
        <time>2018-10-21T07:17:26Z</time>
      </trkpt>
      <trkpt lat="46.42828" lon="2.94046">
        <ele>348.6</ele>
        <time>2018-10-21T07:17:28Z</time>
      </trkpt>
      <trkpt lat="46.42826" lon="2.94054">
        <ele>349.2</ele>
        <time>2018-10-21T07:17:30Z</time>
      </trkpt>
      <trkpt lat="46.42824" lon="2.94063">
        <ele>349.5</ele>
        <time>2018-10-21T07:17:32Z</time>
      </trkpt>
      <trkpt lat="46.42821" lon="2.94072">
        <ele>349.5</ele>
        <time>2018-10-21T07:17:34Z</time>
      </trkpt>
      <trkpt lat="46.42819" lon="2.9408">
        <ele>349.7</ele>
        <time>2018-10-21T07:17:36Z</time>
      </trkpt>
      <trkpt lat="46.42816" lon="2.94089">
        <ele>349.7</ele>
        <time>2018-10-21T07:17:38Z</time>
      </trkpt>
      <trkpt lat="46.42813" lon="2.94097">
        <ele>350.9</ele>
        <time>2018-10-21T07:17:40Z</time>
      </trkpt>
      <trkpt lat="46.4281" lon="2.94105">
        <ele>351.5</ele>
        <time>2018-10-21T07:17:42Z</time>
      </trkpt>
      <trkpt lat="46.42806" lon="2.94117">
        <ele>351.7</ele>
        <time>2018-10-21T07:17:45Z</time>
      </trkpt>
      <trkpt lat="46.42804" lon="2.94126">
        <ele>351.8</ele>
        <time>2018-10-21T07:17:47Z</time>
      </trkpt>
      <trkpt lat="46.42801" lon="2.94135">
        <ele>352</ele>
        <time>2018-10-21T07:17:49Z</time>
      </trkpt>
      <trkpt lat="46.42798" lon="2.94143">
        <ele>352.4</ele>
        <time>2018-10-21T07:17:51Z</time>
      </trkpt>
      <trkpt lat="46.42796" lon="2.94152">
        <ele>352.8</ele>
        <time>2018-10-21T07:17:53Z</time>
      </trkpt>
      <trkpt lat="46.42793" lon="2.9416">
        <ele>352.9</ele>
        <time>2018-10-21T07:17:55Z</time>
      </trkpt>
      <trkpt lat="46.42791" lon="2.94169">
        <ele>353.2</ele>
        <time>2018-10-21T07:17:57Z</time>
      </trkpt>
      <trkpt lat="46.42788" lon="2.94178">
        <ele>353.6</ele>
        <time>2018-10-21T07:17:59Z</time>
      </trkpt>
      <trkpt lat="46.42786" lon="2.94186">
        <ele>354.3</ele>
        <time>2018-10-21T07:18:01Z</time>
      </trkpt>
      <trkpt lat="46.42784" lon="2.94195">
        <ele>354.7</ele>
        <time>2018-10-21T07:18:03Z</time>
      </trkpt>
      <trkpt lat="46.42783" lon="2.942">
        <ele>354.7</ele>
        <time>2018-10-21T07:18:04Z</time>
      </trkpt>
      <trkpt lat="46.42781" lon="2.94213">
        <ele>355.4</ele>
        <time>2018-10-21T07:18:07Z</time>
      </trkpt>
      <trkpt lat="46.42779" lon="2.94225">
        <ele>356.4</ele>
        <time>2018-10-21T07:18:10Z</time>
      </trkpt>
      <trkpt lat="46.42778" lon="2.94234">
        <ele>356.4</ele>
        <time>2018-10-21T07:18:12Z</time>
      </trkpt>
      <trkpt lat="46.42776" lon="2.94247">
        <ele>356.5</ele>
        <time>2018-10-21T07:18:15Z</time>
      </trkpt>
      <trkpt lat="46.42775" lon="2.94256">
        <ele>356.9</ele>
        <time>2018-10-21T07:18:17Z</time>
      </trkpt>
      <trkpt lat="46.42774" lon="2.94265">
        <ele>357.9</ele>
        <time>2018-10-21T07:18:19Z</time>
      </trkpt>
      <trkpt lat="46.42773" lon="2.94274">
        <ele>357.9</ele>
        <time>2018-10-21T07:18:21Z</time>
      </trkpt>
      <trkpt lat="46.42772" lon="2.94283">
        <ele>358.1</ele>
        <time>2018-10-21T07:18:23Z</time>
      </trkpt>
      <trkpt lat="46.42771" lon="2.94292">
        <ele>358.3</ele>
        <time>2018-10-21T07:18:25Z</time>
      </trkpt>
      <trkpt lat="46.42769" lon="2.94301">
        <ele>358.6</ele>
        <time>2018-10-21T07:18:27Z</time>
      </trkpt>
      <trkpt lat="46.42768" lon="2.9431">
        <ele>359.5</ele>
        <time>2018-10-21T07:18:29Z</time>
      </trkpt>
      <trkpt lat="46.42767" lon="2.94319">
        <ele>360.4</ele>
        <time>2018-10-21T07:18:31Z</time>
      </trkpt>
      <trkpt lat="46.42766" lon="2.94329">
        <ele>360.5</ele>
        <time>2018-10-21T07:18:33Z</time>
      </trkpt>
      <trkpt lat="46.42765" lon="2.94338">
        <ele>360.1</ele>
        <time>2018-10-21T07:18:35Z</time>
      </trkpt>
      <trkpt lat="46.42763" lon="2.94347">
        <ele>360.3</ele>
        <time>2018-10-21T07:18:37Z</time>
      </trkpt>
      <trkpt lat="46.42762" lon="2.94356">
        <ele>360.4</ele>
        <time>2018-10-21T07:18:39Z</time>
      </trkpt>
      <trkpt lat="46.42759" lon="2.94364">
        <ele>360.6</ele>
        <time>2018-10-21T07:18:41Z</time>
      </trkpt>
      <trkpt lat="46.42757" lon="2.94373">
        <ele>360.9</ele>
        <time>2018-10-21T07:18:43Z</time>
      </trkpt>
      <trkpt lat="46.42759" lon="2.94382">
        <ele>361.3</ele>
        <time>2018-10-21T07:18:45Z</time>
      </trkpt>
      <trkpt lat="46.42763" lon="2.94391">
        <ele>361.8</ele>
        <time>2018-10-21T07:18:47Z</time>
      </trkpt>
      <trkpt lat="46.42767" lon="2.94398">
        <ele>361.8</ele>
        <time>2018-10-21T07:18:49Z</time>
      </trkpt>
      <trkpt lat="46.42771" lon="2.94405">
        <ele>361.8</ele>
        <time>2018-10-21T07:18:51Z</time>
      </trkpt>
      <trkpt lat="46.42776" lon="2.94413">
        <ele>361.9</ele>
        <time>2018-10-21T07:18:53Z</time>
      </trkpt>
      <trkpt lat="46.4278" lon="2.94421">
        <ele>362</ele>
        <time>2018-10-21T07:18:55Z</time>
      </trkpt>
      <trkpt lat="46.42784" lon="2.94429">
        <ele>361.7</ele>
        <time>2018-10-21T07:18:57Z</time>
      </trkpt>
      <trkpt lat="46.42788" lon="2.94438">
        <ele>362.2</ele>
        <time>2018-10-21T07:18:59Z</time>
      </trkpt>
      <trkpt lat="46.42789" lon="2.94448">
        <ele>362.4</ele>
        <time>2018-10-21T07:19:01Z</time>
      </trkpt>
      <trkpt lat="46.42789" lon="2.94458">
        <ele>362.7</ele>
        <time>2018-10-21T07:19:03Z</time>
      </trkpt>
      <trkpt lat="46.42791" lon="2.94469">
        <ele>363.4</ele>
        <time>2018-10-21T07:19:06Z</time>
      </trkpt>
      <trkpt lat="46.42791" lon="2.94473">
        <ele>363.5</ele>
        <time>2018-10-21T07:19:07Z</time>
      </trkpt>
      <trkpt lat="46.42795" lon="2.94493">
        <ele>363.5</ele>
        <time>2018-10-21T07:19:12Z</time>
      </trkpt>
      <trkpt lat="46.42797" lon="2.94506">
        <ele>363.8</ele>
        <time>2018-10-21T07:19:15Z</time>
      </trkpt>
      <trkpt lat="46.42798" lon="2.94518">
        <ele>363.3</ele>
        <time>2018-10-21T07:19:18Z</time>
      </trkpt>
      <trkpt lat="46.428" lon="2.94531">
        <ele>363.7</ele>
        <time>2018-10-21T07:19:21Z</time>
      </trkpt>
      <trkpt lat="46.42801" lon="2.94539">
        <ele>364.3</ele>
        <time>2018-10-21T07:19:23Z</time>
      </trkpt>
      <trkpt lat="46.42803" lon="2.94548">
        <ele>364.8</ele>
        <time>2018-10-21T07:19:25Z</time>
      </trkpt>
      <trkpt lat="46.42804" lon="2.9456">
        <ele>364.4</ele>
        <time>2018-10-21T07:19:28Z</time>
      </trkpt>
      <trkpt lat="46.42806" lon="2.94569">
        <ele>364.3</ele>
        <time>2018-10-21T07:19:30Z</time>
      </trkpt>
      <trkpt lat="46.42807" lon="2.94577">
        <ele>364.6</ele>
        <time>2018-10-21T07:19:32Z</time>
      </trkpt>
      <trkpt lat="46.4281" lon="2.9459">
        <ele>364.8</ele>
        <time>2018-10-21T07:19:35Z</time>
      </trkpt>
      <trkpt lat="46.42812" lon="2.94602">
        <ele>364.6</ele>
        <time>2018-10-21T07:19:38Z</time>
      </trkpt>
      <trkpt lat="46.42813" lon="2.94611">
        <ele>365</ele>
        <time>2018-10-21T07:19:40Z</time>
      </trkpt>
      <trkpt lat="46.42816" lon="2.94623">
        <ele>364.8</ele>
        <time>2018-10-21T07:19:43Z</time>
      </trkpt>
      <trkpt lat="46.42819" lon="2.94631">
        <ele>365.2</ele>
        <time>2018-10-21T07:19:45Z</time>
      </trkpt>
      <trkpt lat="46.4282" lon="2.9464">
        <ele>365.5</ele>
        <time>2018-10-21T07:19:47Z</time>
      </trkpt>
      <trkpt lat="46.42821" lon="2.94649">
        <ele>365.6</ele>
        <time>2018-10-21T07:19:49Z</time>
      </trkpt>
      <trkpt lat="46.42821" lon="2.94659">
        <ele>365.7</ele>
        <time>2018-10-21T07:19:51Z</time>
      </trkpt>
      <trkpt lat="46.42823" lon="2.94668">
        <ele>365.9</ele>
        <time>2018-10-21T07:19:53Z</time>
      </trkpt>
      <trkpt lat="46.42825" lon="2.94677">
        <ele>365.6</ele>
        <time>2018-10-21T07:19:55Z</time>
      </trkpt>
      <trkpt lat="46.42828" lon="2.94686">
        <ele>365</ele>
        <time>2018-10-21T07:19:57Z</time>
      </trkpt>
      <trkpt lat="46.42831" lon="2.94694">
        <ele>365.3</ele>
        <time>2018-10-21T07:19:59Z</time>
      </trkpt>
      <trkpt lat="46.42834" lon="2.94704">
        <ele>365.3</ele>
        <time>2018-10-21T07:20:02Z</time>
      </trkpt>
      <trkpt lat="46.42838" lon="2.94715">
        <ele>365.6</ele>
        <time>2018-10-21T07:20:05Z</time>
      </trkpt>
      <trkpt lat="46.42843" lon="2.94726">
        <ele>365.6</ele>
        <time>2018-10-21T07:20:08Z</time>
      </trkpt>
      <trkpt lat="46.42845" lon="2.9473">
        <ele>365.6</ele>
        <time>2018-10-21T07:20:09Z</time>
      </trkpt>
      <trkpt lat="46.42851" lon="2.94743">
        <ele>366.3</ele>
        <time>2018-10-21T07:20:12Z</time>
      </trkpt>
      <trkpt lat="46.42855" lon="2.94751">
        <ele>366.5</ele>
        <time>2018-10-21T07:20:14Z</time>
      </trkpt>
      <trkpt lat="46.4286" lon="2.9476">
        <ele>366.7</ele>
        <time>2018-10-21T07:20:16Z</time>
      </trkpt>
      <trkpt lat="46.42865" lon="2.94768">
        <ele>366.2</ele>
        <time>2018-10-21T07:20:18Z</time>
      </trkpt>
      <trkpt lat="46.42869" lon="2.94776">
        <ele>367.1</ele>
        <time>2018-10-21T07:20:20Z</time>
      </trkpt>
      <trkpt lat="46.42873" lon="2.94783">
        <ele>367.2</ele>
        <time>2018-10-21T07:20:22Z</time>
      </trkpt>
      <trkpt lat="46.42877" lon="2.94792">
        <ele>367</ele>
        <time>2018-10-21T07:20:24Z</time>
      </trkpt>
      <trkpt lat="46.4288" lon="2.948">
        <ele>366.6</ele>
        <time>2018-10-21T07:20:26Z</time>
      </trkpt>
      <trkpt lat="46.42883" lon="2.9481">
        <ele>366.2</ele>
        <time>2018-10-21T07:20:28Z</time>
      </trkpt>
      <trkpt lat="46.42886" lon="2.94821">
        <ele>366.9</ele>
        <time>2018-10-21T07:20:31Z</time>
      </trkpt>
      <trkpt lat="46.42888" lon="2.94832">
        <ele>368.3</ele>
        <time>2018-10-21T07:20:36Z</time>
      </trkpt>
      <trkpt lat="46.42896" lon="2.94838">
        <ele>368.3</ele>
        <time>2018-10-21T07:20:52Z</time>
      </trkpt>
      <trkpt lat="46.42903" lon="2.94845">
        <ele>368.1</ele>
        <time>2018-10-21T07:21:39Z</time>
      </trkpt>
      <trkpt lat="46.42904" lon="2.94846">
        <ele>368.2</ele>
        <time>2018-10-21T07:21:40Z</time>
      </trkpt>
      <trkpt lat="46.42898" lon="2.94857">
        <ele>368.6</ele>
        <time>2018-10-21T07:23:19Z</time>
      </trkpt>
      <trkpt lat="46.42886" lon="2.94863">
        <ele>369.3</ele>
        <time>2018-10-21T07:23:23Z</time>
      </trkpt>
      <trkpt lat="46.42879" lon="2.94868">
        <ele>369.4</ele>
        <time>2018-10-21T07:23:25Z</time>
      </trkpt>
      <trkpt lat="46.42873" lon="2.94874">
        <ele>369.9</ele>
        <time>2018-10-21T07:23:27Z</time>
      </trkpt>
      <trkpt lat="46.42867" lon="2.9488">
        <ele>370.3</ele>
        <time>2018-10-21T07:23:29Z</time>
      </trkpt>
      <trkpt lat="46.42862" lon="2.94886">
        <ele>370.4</ele>
        <time>2018-10-21T07:23:31Z</time>
      </trkpt>
      <trkpt lat="46.42856" lon="2.94892">
        <ele>370.7</ele>
        <time>2018-10-21T07:23:33Z</time>
      </trkpt>
      <trkpt lat="46.42851" lon="2.94896">
        <ele>370.8</ele>
        <time>2018-10-21T07:23:35Z</time>
      </trkpt>
      <trkpt lat="46.42846" lon="2.94901">
        <ele>371.3</ele>
        <time>2018-10-21T07:23:37Z</time>
      </trkpt>
      <trkpt lat="46.42838" lon="2.94907">
        <ele>371.7</ele>
        <time>2018-10-21T07:23:40Z</time>
      </trkpt>
      <trkpt lat="46.42832" lon="2.94911">
        <ele>371.6</ele>
        <time>2018-10-21T07:23:42Z</time>
      </trkpt>
      <trkpt lat="46.42825" lon="2.94914">
        <ele>371.7</ele>
        <time>2018-10-21T07:23:44Z</time>
      </trkpt>
      <trkpt lat="46.42817" lon="2.94917">
        <ele>372.4</ele>
        <time>2018-10-21T07:23:46Z</time>
      </trkpt>
      <trkpt lat="46.4281" lon="2.94921">
        <ele>373.3</ele>
        <time>2018-10-21T07:23:48Z</time>
      </trkpt>
      <trkpt lat="46.42801" lon="2.94924">
        <ele>373</ele>
        <time>2018-10-21T07:23:50Z</time>
      </trkpt>
      <trkpt lat="46.42793" lon="2.94928">
        <ele>372.2</ele>
        <time>2018-10-21T07:23:52Z</time>
      </trkpt>
      <trkpt lat="46.42784" lon="2.94931">
        <ele>372.5</ele>
        <time>2018-10-21T07:23:54Z</time>
      </trkpt>
      <trkpt lat="46.4278" lon="2.94933">
        <ele>372.6</ele>
        <time>2018-10-21T07:23:55Z</time>
      </trkpt>
      <trkpt lat="46.42776" lon="2.94935">
        <ele>372.6</ele>
        <time>2018-10-21T07:23:56Z</time>
      </trkpt>
      <trkpt lat="46.42771" lon="2.94938">
        <ele>372.6</ele>
        <time>2018-10-21T07:23:57Z</time>
      </trkpt>
      <trkpt lat="46.42767" lon="2.9494">
        <ele>372.5</ele>
        <time>2018-10-21T07:23:58Z</time>
      </trkpt>
      <trkpt lat="46.42762" lon="2.94942">
        <ele>372.5</ele>
        <time>2018-10-21T07:23:59Z</time>
      </trkpt>
      <trkpt lat="46.42758" lon="2.94944">
        <ele>372.5</ele>
        <time>2018-10-21T07:24:00Z</time>
      </trkpt>
      <trkpt lat="46.42753" lon="2.94947">
        <ele>372.3</ele>
        <time>2018-10-21T07:24:01Z</time>
      </trkpt>
      <trkpt lat="46.42745" lon="2.94952">
        <ele>372.5</ele>
        <time>2018-10-21T07:24:03Z</time>
      </trkpt>
      <trkpt lat="46.42741" lon="2.94954">
        <ele>372.7</ele>
        <time>2018-10-21T07:24:04Z</time>
      </trkpt>
      <trkpt lat="46.42737" lon="2.94957">
        <ele>372.2</ele>
        <time>2018-10-21T07:24:05Z</time>
      </trkpt>
      <trkpt lat="46.42732" lon="2.9496">
        <ele>371.8</ele>
        <time>2018-10-21T07:24:06Z</time>
      </trkpt>
      <trkpt lat="46.42728" lon="2.94963">
        <ele>371.6</ele>
        <time>2018-10-21T07:24:07Z</time>
      </trkpt>
      <trkpt lat="46.42723" lon="2.94966">
        <ele>371.5</ele>
        <time>2018-10-21T07:24:08Z</time>
      </trkpt>
      <trkpt lat="46.42718" lon="2.94969">
        <ele>371.5</ele>
        <time>2018-10-21T07:24:09Z</time>
      </trkpt>
      <trkpt lat="46.42714" lon="2.94972">
        <ele>371.2</ele>
        <time>2018-10-21T07:24:10Z</time>
      </trkpt>
      <trkpt lat="46.42709" lon="2.94975">
        <ele>371</ele>
        <time>2018-10-21T07:24:11Z</time>
      </trkpt>
      <trkpt lat="46.42704" lon="2.94978">
        <ele>371.2</ele>
        <time>2018-10-21T07:24:12Z</time>
      </trkpt>
      <trkpt lat="46.427" lon="2.94981">
        <ele>371.3</ele>
        <time>2018-10-21T07:24:13Z</time>
      </trkpt>
      <trkpt lat="46.42695" lon="2.94985">
        <ele>371.4</ele>
        <time>2018-10-21T07:24:14Z</time>
      </trkpt>
      <trkpt lat="46.42691" lon="2.94988">
        <ele>371.1</ele>
        <time>2018-10-21T07:24:15Z</time>
      </trkpt>
      <trkpt lat="46.42687" lon="2.94992">
        <ele>370.8</ele>
        <time>2018-10-21T07:24:16Z</time>
      </trkpt>
      <trkpt lat="46.42683" lon="2.94997">
        <ele>371.1</ele>
        <time>2018-10-21T07:24:17Z</time>
      </trkpt>
      <trkpt lat="46.42679" lon="2.95002">
        <ele>371.3</ele>
        <time>2018-10-21T07:24:18Z</time>
      </trkpt>
      <trkpt lat="46.42676" lon="2.95008">
        <ele>371.4</ele>
        <time>2018-10-21T07:24:19Z</time>
      </trkpt>
      <trkpt lat="46.42673" lon="2.95014">
        <ele>371.2</ele>
        <time>2018-10-21T07:24:20Z</time>
      </trkpt>
      <trkpt lat="46.42669" lon="2.95025">
        <ele>371</ele>
        <time>2018-10-21T07:24:22Z</time>
      </trkpt>
      <trkpt lat="46.42668" lon="2.95032">
        <ele>370.9</ele>
        <time>2018-10-21T07:24:23Z</time>
      </trkpt>
      <trkpt lat="46.42668" lon="2.95038">
        <ele>370.6</ele>
        <time>2018-10-21T07:24:24Z</time>
      </trkpt>
      <trkpt lat="46.42668" lon="2.95045">
        <ele>370.3</ele>
        <time>2018-10-21T07:24:25Z</time>
      </trkpt>
      <trkpt lat="46.42667" lon="2.95052">
        <ele>370.1</ele>
        <time>2018-10-21T07:24:26Z</time>
      </trkpt>
      <trkpt lat="46.42666" lon="2.95058">
        <ele>370.3</ele>
        <time>2018-10-21T07:24:27Z</time>
      </trkpt>
      <trkpt lat="46.42665" lon="2.95065">
        <ele>370.5</ele>
        <time>2018-10-21T07:24:28Z</time>
      </trkpt>
      <trkpt lat="46.42664" lon="2.95077">
        <ele>370.5</ele>
        <time>2018-10-21T07:24:30Z</time>
      </trkpt>
      <trkpt lat="46.42666" lon="2.95088">
        <ele>370.7</ele>
        <time>2018-10-21T07:24:32Z</time>
      </trkpt>
      <trkpt lat="46.42671" lon="2.95096">
        <ele>371</ele>
        <time>2018-10-21T07:24:34Z</time>
      </trkpt>
      <trkpt lat="46.42676" lon="2.95102">
        <ele>371.2</ele>
        <time>2018-10-21T07:24:36Z</time>
      </trkpt>
      <trkpt lat="46.42683" lon="2.95106">
        <ele>371.5</ele>
        <time>2018-10-21T07:24:38Z</time>
      </trkpt>
      <trkpt lat="46.4269" lon="2.95106">
        <ele>371.3</ele>
        <time>2018-10-21T07:24:40Z</time>
      </trkpt>
      <trkpt lat="46.42697" lon="2.95105">
        <ele>371.1</ele>
        <time>2018-10-21T07:24:42Z</time>
      </trkpt>
      <trkpt lat="46.42704" lon="2.95103">
        <ele>371.1</ele>
        <time>2018-10-21T07:24:44Z</time>
      </trkpt>
      <trkpt lat="46.42712" lon="2.95102">
        <ele>371.3</ele>
        <time>2018-10-21T07:24:46Z</time>
      </trkpt>
      <trkpt lat="46.42719" lon="2.951">
        <ele>371.5</ele>
        <time>2018-10-21T07:24:48Z</time>
      </trkpt>
      <trkpt lat="46.42727" lon="2.95098">
        <ele>371.6</ele>
        <time>2018-10-21T07:24:50Z</time>
      </trkpt>
      <trkpt lat="46.42734" lon="2.95097">
        <ele>371.7</ele>
        <time>2018-10-21T07:24:52Z</time>
      </trkpt>
      <trkpt lat="46.42741" lon="2.95096">
        <ele>371.5</ele>
        <time>2018-10-21T07:24:54Z</time>
      </trkpt>
      <trkpt lat="46.42748" lon="2.95095">
        <ele>371.3</ele>
        <time>2018-10-21T07:24:56Z</time>
      </trkpt>
      <trkpt lat="46.42755" lon="2.95095">
        <ele>371.5</ele>
        <time>2018-10-21T07:24:58Z</time>
      </trkpt>
      <trkpt lat="46.42763" lon="2.95094">
        <ele>372.1</ele>
        <time>2018-10-21T07:25:00Z</time>
      </trkpt>
      <trkpt lat="46.4277" lon="2.95093">
        <ele>372.3</ele>
        <time>2018-10-21T07:25:02Z</time>
      </trkpt>
      <trkpt lat="46.42778" lon="2.95091">
        <ele>372.2</ele>
        <time>2018-10-21T07:25:04Z</time>
      </trkpt>
      <trkpt lat="46.42785" lon="2.95092">
        <ele>373.3</ele>
        <time>2018-10-21T07:25:06Z</time>
      </trkpt>
      <trkpt lat="46.42793" lon="2.95098">
        <ele>374.3</ele>
        <time>2018-10-21T07:25:08Z</time>
      </trkpt>
      <trkpt lat="46.42799" lon="2.95106">
        <ele>374.8</ele>
        <time>2018-10-21T07:25:10Z</time>
      </trkpt>
      <trkpt lat="46.42806" lon="2.95114">
        <ele>374.8</ele>
        <time>2018-10-21T07:25:12Z</time>
      </trkpt>
      <trkpt lat="46.42811" lon="2.95123">
        <ele>374.8</ele>
        <time>2018-10-21T07:25:14Z</time>
      </trkpt>
      <trkpt lat="46.42815" lon="2.95133">
        <ele>374.9</ele>
        <time>2018-10-21T07:25:16Z</time>
      </trkpt>
      <trkpt lat="46.42817" lon="2.95144">
        <ele>374.7</ele>
        <time>2018-10-21T07:25:18Z</time>
      </trkpt>
      <trkpt lat="46.4282" lon="2.95155">
        <ele>375.1</ele>
        <time>2018-10-21T07:25:20Z</time>
      </trkpt>
      <trkpt lat="46.42821" lon="2.95161">
        <ele>375.2</ele>
        <time>2018-10-21T07:25:21Z</time>
      </trkpt>
      <trkpt lat="46.42823" lon="2.95174">
        <ele>375.1</ele>
        <time>2018-10-21T07:25:23Z</time>
      </trkpt>
      <trkpt lat="46.42825" lon="2.9518">
        <ele>375.1</ele>
        <time>2018-10-21T07:25:24Z</time>
      </trkpt>
      <trkpt lat="46.42827" lon="2.95193">
        <ele>374.9</ele>
        <time>2018-10-21T07:25:26Z</time>
      </trkpt>
      <trkpt lat="46.42829" lon="2.95199">
        <ele>374.7</ele>
        <time>2018-10-21T07:25:27Z</time>
      </trkpt>
      <trkpt lat="46.4283" lon="2.95205">
        <ele>374.6</ele>
        <time>2018-10-21T07:25:28Z</time>
      </trkpt>
      <trkpt lat="46.42832" lon="2.95211">
        <ele>375.1</ele>
        <time>2018-10-21T07:25:29Z</time>
      </trkpt>
      <trkpt lat="46.42833" lon="2.95218">
        <ele>375.4</ele>
        <time>2018-10-21T07:25:30Z</time>
      </trkpt>
      <trkpt lat="46.42835" lon="2.95224">
        <ele>375.3</ele>
        <time>2018-10-21T07:25:31Z</time>
      </trkpt>
      <trkpt lat="46.42837" lon="2.9523">
        <ele>375.2</ele>
        <time>2018-10-21T07:25:32Z</time>
      </trkpt>
      <trkpt lat="46.42838" lon="2.95237">
        <ele>375.1</ele>
        <time>2018-10-21T07:25:33Z</time>
      </trkpt>
      <trkpt lat="46.4284" lon="2.95243">
        <ele>375.1</ele>
        <time>2018-10-21T07:25:34Z</time>
      </trkpt>
      <trkpt lat="46.42843" lon="2.95249">
        <ele>375.1</ele>
        <time>2018-10-21T07:25:35Z</time>
      </trkpt>
      <trkpt lat="46.42846" lon="2.95255">
        <ele>375</ele>
        <time>2018-10-21T07:25:36Z</time>
      </trkpt>
      <trkpt lat="46.42848" lon="2.95261">
        <ele>374.9</ele>
        <time>2018-10-21T07:25:37Z</time>
      </trkpt>
      <trkpt lat="46.42851" lon="2.95268">
        <ele>375.1</ele>
        <time>2018-10-21T07:25:38Z</time>
      </trkpt>
      <trkpt lat="46.42853" lon="2.95274">
        <ele>375.4</ele>
        <time>2018-10-21T07:25:39Z</time>
      </trkpt>
      <trkpt lat="46.42856" lon="2.9528">
        <ele>375.5</ele>
        <time>2018-10-21T07:25:40Z</time>
      </trkpt>
      <trkpt lat="46.42859" lon="2.95287">
        <ele>375.3</ele>
        <time>2018-10-21T07:25:41Z</time>
      </trkpt>
      <trkpt lat="46.42861" lon="2.95293">
        <ele>375.2</ele>
        <time>2018-10-21T07:25:42Z</time>
      </trkpt>
      <trkpt lat="46.42864" lon="2.953">
        <ele>375.2</ele>
        <time>2018-10-21T07:25:43Z</time>
      </trkpt>
      <trkpt lat="46.42867" lon="2.95307">
        <ele>375.2</ele>
        <time>2018-10-21T07:25:44Z</time>
      </trkpt>
      <trkpt lat="46.42869" lon="2.95313">
        <ele>375.3</ele>
        <time>2018-10-21T07:25:45Z</time>
      </trkpt>
      <trkpt lat="46.42872" lon="2.9532">
        <ele>375.4</ele>
        <time>2018-10-21T07:25:46Z</time>
      </trkpt>
      <trkpt lat="46.42875" lon="2.95327">
        <ele>375.4</ele>
        <time>2018-10-21T07:25:47Z</time>
      </trkpt>
      <trkpt lat="46.42877" lon="2.95333">
        <ele>375.4</ele>
        <time>2018-10-21T07:25:48Z</time>
      </trkpt>
      <trkpt lat="46.4288" lon="2.9534">
        <ele>375.3</ele>
        <time>2018-10-21T07:25:49Z</time>
      </trkpt>
      <trkpt lat="46.42883" lon="2.95347">
        <ele>374.8</ele>
        <time>2018-10-21T07:25:50Z</time>
      </trkpt>
      <trkpt lat="46.42886" lon="2.95354">
        <ele>374.5</ele>
        <time>2018-10-21T07:25:51Z</time>
      </trkpt>
      <trkpt lat="46.42888" lon="2.95361">
        <ele>374.6</ele>
        <time>2018-10-21T07:25:52Z</time>
      </trkpt>
      <trkpt lat="46.42891" lon="2.95367">
        <ele>374.7</ele>
        <time>2018-10-21T07:25:53Z</time>
      </trkpt>
      <trkpt lat="46.42893" lon="2.95374">
        <ele>374.8</ele>
        <time>2018-10-21T07:25:54Z</time>
      </trkpt>
      <trkpt lat="46.42896" lon="2.95381">
        <ele>374.5</ele>
        <time>2018-10-21T07:25:55Z</time>
      </trkpt>
      <trkpt lat="46.42898" lon="2.95387">
        <ele>374.3</ele>
        <time>2018-10-21T07:25:56Z</time>
      </trkpt>
      <trkpt lat="46.42901" lon="2.95394">
        <ele>374.3</ele>
        <time>2018-10-21T07:25:57Z</time>
      </trkpt>
      <trkpt lat="46.42904" lon="2.954">
        <ele>374.3</ele>
        <time>2018-10-21T07:25:58Z</time>
      </trkpt>
      <trkpt lat="46.42908" lon="2.95404">
        <ele>374.3</ele>
        <time>2018-10-21T07:25:59Z</time>
      </trkpt>
      <trkpt lat="46.42913" lon="2.95405">
        <ele>374.4</ele>
        <time>2018-10-21T07:26:00Z</time>
      </trkpt>
      <trkpt lat="46.42918" lon="2.95405">
        <ele>374.4</ele>
        <time>2018-10-21T07:26:01Z</time>
      </trkpt>
      <trkpt lat="46.42923" lon="2.95404">
        <ele>374.5</ele>
        <time>2018-10-21T07:26:02Z</time>
      </trkpt>
      <trkpt lat="46.42928" lon="2.95402">
        <ele>374.5</ele>
        <time>2018-10-21T07:26:03Z</time>
      </trkpt>
      <trkpt lat="46.42933" lon="2.954">
        <ele>374.6</ele>
        <time>2018-10-21T07:26:04Z</time>
      </trkpt>
      <trkpt lat="46.42938" lon="2.95398">
        <ele>374.7</ele>
        <time>2018-10-21T07:26:05Z</time>
      </trkpt>
      <trkpt lat="46.42943" lon="2.95396">
        <ele>374.7</ele>
        <time>2018-10-21T07:26:06Z</time>
      </trkpt>
      <trkpt lat="46.42947" lon="2.95395">
        <ele>374.7</ele>
        <time>2018-10-21T07:26:07Z</time>
      </trkpt>
      <trkpt lat="46.42952" lon="2.95393">
        <ele>374.7</ele>
        <time>2018-10-21T07:26:08Z</time>
      </trkpt>
      <trkpt lat="46.42957" lon="2.95392">
        <ele>374.4</ele>
        <time>2018-10-21T07:26:09Z</time>
      </trkpt>
      <trkpt lat="46.42962" lon="2.95394">
        <ele>374.2</ele>
        <time>2018-10-21T07:26:10Z</time>
      </trkpt>
      <trkpt lat="46.42965" lon="2.95399">
        <ele>374.1</ele>
        <time>2018-10-21T07:26:11Z</time>
      </trkpt>
      <trkpt lat="46.42966" lon="2.95407">
        <ele>374.3</ele>
        <time>2018-10-21T07:26:12Z</time>
      </trkpt>
      <trkpt lat="46.42967" lon="2.95414">
        <ele>374.5</ele>
        <time>2018-10-21T07:26:13Z</time>
      </trkpt>
      <trkpt lat="46.42969" lon="2.95421">
        <ele>374.2</ele>
        <time>2018-10-21T07:26:14Z</time>
      </trkpt>
      <trkpt lat="46.4297" lon="2.95428">
        <ele>374</ele>
        <time>2018-10-21T07:26:15Z</time>
      </trkpt>
      <trkpt lat="46.42972" lon="2.95435">
        <ele>374.3</ele>
        <time>2018-10-21T07:26:16Z</time>
      </trkpt>
      <trkpt lat="46.42973" lon="2.95442">
        <ele>374.6</ele>
        <time>2018-10-21T07:26:17Z</time>
      </trkpt>
      <trkpt lat="46.42974" lon="2.95448">
        <ele>374.9</ele>
        <time>2018-10-21T07:26:18Z</time>
      </trkpt>
      <trkpt lat="46.42976" lon="2.95455">
        <ele>375</ele>
        <time>2018-10-21T07:26:19Z</time>
      </trkpt>
      <trkpt lat="46.42977" lon="2.95461">
        <ele>375.1</ele>
        <time>2018-10-21T07:26:20Z</time>
      </trkpt>
      <trkpt lat="46.42978" lon="2.95468">
        <ele>375</ele>
        <time>2018-10-21T07:26:21Z</time>
      </trkpt>
      <trkpt lat="46.42979" lon="2.95475">
        <ele>374.9</ele>
        <time>2018-10-21T07:26:22Z</time>
      </trkpt>
      <trkpt lat="46.4298" lon="2.95482">
        <ele>375</ele>
        <time>2018-10-21T07:26:23Z</time>
      </trkpt>
      <trkpt lat="46.42982" lon="2.95488">
        <ele>375.1</ele>
        <time>2018-10-21T07:26:24Z</time>
      </trkpt>
      <trkpt lat="46.42984" lon="2.95495">
        <ele>375.2</ele>
        <time>2018-10-21T07:26:25Z</time>
      </trkpt>
      <trkpt lat="46.42985" lon="2.95501">
        <ele>374.9</ele>
        <time>2018-10-21T07:26:26Z</time>
      </trkpt>
      <trkpt lat="46.42987" lon="2.95507">
        <ele>374.7</ele>
        <time>2018-10-21T07:26:27Z</time>
      </trkpt>
      <trkpt lat="46.42989" lon="2.95513">
        <ele>375</ele>
        <time>2018-10-21T07:26:28Z</time>
      </trkpt>
      <trkpt lat="46.42991" lon="2.95519">
        <ele>375.2</ele>
        <time>2018-10-21T07:26:29Z</time>
      </trkpt>
      <trkpt lat="46.42996" lon="2.9553">
        <ele>375.4</ele>
        <time>2018-10-21T07:26:31Z</time>
      </trkpt>
      <trkpt lat="46.42998" lon="2.95535">
        <ele>375.4</ele>
        <time>2018-10-21T07:26:32Z</time>
      </trkpt>
      <trkpt lat="46.43002" lon="2.95541">
        <ele>375.6</ele>
        <time>2018-10-21T07:26:33Z</time>
      </trkpt>
      <trkpt lat="46.43005" lon="2.95545">
        <ele>375.8</ele>
        <time>2018-10-21T07:26:34Z</time>
      </trkpt>
      <trkpt lat="46.43008" lon="2.9555">
        <ele>375.4</ele>
        <time>2018-10-21T07:26:35Z</time>
      </trkpt>
      <trkpt lat="46.43012" lon="2.95554">
        <ele>375</ele>
        <time>2018-10-21T07:26:36Z</time>
      </trkpt>
      <trkpt lat="46.43017" lon="2.95556">
        <ele>374.8</ele>
        <time>2018-10-21T07:26:37Z</time>
      </trkpt>
      <trkpt lat="46.43021" lon="2.95559">
        <ele>375.1</ele>
        <time>2018-10-21T07:26:38Z</time>
      </trkpt>
      <trkpt lat="46.43028" lon="2.95566">
        <ele>375.7</ele>
        <time>2018-10-21T07:26:40Z</time>
      </trkpt>
      <trkpt lat="46.43032" lon="2.95569">
        <ele>376</ele>
        <time>2018-10-21T07:26:41Z</time>
      </trkpt>
      <trkpt lat="46.43036" lon="2.95573">
        <ele>375.8</ele>
        <time>2018-10-21T07:26:42Z</time>
      </trkpt>
      <trkpt lat="46.43041" lon="2.95576">
        <ele>375.7</ele>
        <time>2018-10-21T07:26:43Z</time>
      </trkpt>
      <trkpt lat="46.43045" lon="2.9558">
        <ele>375.6</ele>
        <time>2018-10-21T07:26:44Z</time>
      </trkpt>
      <trkpt lat="46.4305" lon="2.95582">
        <ele>375.5</ele>
        <time>2018-10-21T07:26:45Z</time>
      </trkpt>
      <trkpt lat="46.43054" lon="2.95585">
        <ele>375.4</ele>
        <time>2018-10-21T07:26:46Z</time>
      </trkpt>
      <trkpt lat="46.43059" lon="2.95587">
        <ele>375.8</ele>
        <time>2018-10-21T07:26:47Z</time>
      </trkpt>
      <trkpt lat="46.43063" lon="2.9559">
        <ele>376.1</ele>
        <time>2018-10-21T07:26:48Z</time>
      </trkpt>
      <trkpt lat="46.43068" lon="2.95592">
        <ele>376.4</ele>
        <time>2018-10-21T07:26:49Z</time>
      </trkpt>
      <trkpt lat="46.43072" lon="2.95595">
        <ele>376.6</ele>
        <time>2018-10-21T07:26:50Z</time>
      </trkpt>
      <trkpt lat="46.43077" lon="2.95598">
        <ele>376.7</ele>
        <time>2018-10-21T07:26:51Z</time>
      </trkpt>
      <trkpt lat="46.43081" lon="2.95602">
        <ele>376.8</ele>
        <time>2018-10-21T07:26:52Z</time>
      </trkpt>
      <trkpt lat="46.43086" lon="2.95605">
        <ele>376.9</ele>
        <time>2018-10-21T07:26:53Z</time>
      </trkpt>
      <trkpt lat="46.43091" lon="2.95608">
        <ele>376.8</ele>
        <time>2018-10-21T07:26:54Z</time>
      </trkpt>
      <trkpt lat="46.43095" lon="2.95611">
        <ele>376.8</ele>
        <time>2018-10-21T07:26:55Z</time>
      </trkpt>
      <trkpt lat="46.43101" lon="2.95614">
        <ele>376.7</ele>
        <time>2018-10-21T07:26:56Z</time>
      </trkpt>
      <trkpt lat="46.43106" lon="2.95616">
        <ele>376.5</ele>
        <time>2018-10-21T07:26:57Z</time>
      </trkpt>
      <trkpt lat="46.43111" lon="2.95619">
        <ele>376.3</ele>
        <time>2018-10-21T07:26:58Z</time>
      </trkpt>
      <trkpt lat="46.43116" lon="2.95622">
        <ele>376</ele>
        <time>2018-10-21T07:26:59Z</time>
      </trkpt>
      <trkpt lat="46.43121" lon="2.95625">
        <ele>375.7</ele>
        <time>2018-10-21T07:27:00Z</time>
      </trkpt>
      <trkpt lat="46.43126" lon="2.95628">
        <ele>375.5</ele>
        <time>2018-10-21T07:27:01Z</time>
      </trkpt>
      <trkpt lat="46.43132" lon="2.95631">
        <ele>375.7</ele>
        <time>2018-10-21T07:27:02Z</time>
      </trkpt>
      <trkpt lat="46.43137" lon="2.95635">
        <ele>375.9</ele>
        <time>2018-10-21T07:27:03Z</time>
      </trkpt>
      <trkpt lat="46.43142" lon="2.95638">
        <ele>375.6</ele>
        <time>2018-10-21T07:27:04Z</time>
      </trkpt>
      <trkpt lat="46.43148" lon="2.95641">
        <ele>375.4</ele>
        <time>2018-10-21T07:27:05Z</time>
      </trkpt>
      <trkpt lat="46.43153" lon="2.95644">
        <ele>375.2</ele>
        <time>2018-10-21T07:27:06Z</time>
      </trkpt>
      <trkpt lat="46.43159" lon="2.95647">
        <ele>375</ele>
        <time>2018-10-21T07:27:07Z</time>
      </trkpt>
      <trkpt lat="46.43164" lon="2.9565">
        <ele>374.9</ele>
        <time>2018-10-21T07:27:08Z</time>
      </trkpt>
      <trkpt lat="46.4317" lon="2.95654">
        <ele>374.8</ele>
        <time>2018-10-21T07:27:09Z</time>
      </trkpt>
      <trkpt lat="46.43176" lon="2.95657">
        <ele>374.8</ele>
        <time>2018-10-21T07:27:10Z</time>
      </trkpt>
      <trkpt lat="46.43182" lon="2.9566">
        <ele>374.7</ele>
        <time>2018-10-21T07:27:11Z</time>
      </trkpt>
      <trkpt lat="46.43187" lon="2.95662">
        <ele>374.7</ele>
        <time>2018-10-21T07:27:12Z</time>
      </trkpt>
      <trkpt lat="46.43194" lon="2.95665">
        <ele>374.5</ele>
        <time>2018-10-21T07:27:13Z</time>
      </trkpt>
      <trkpt lat="46.432" lon="2.95668">
        <ele>374.4</ele>
        <time>2018-10-21T07:27:14Z</time>
      </trkpt>
      <trkpt lat="46.43206" lon="2.9567">
        <ele>374.3</ele>
        <time>2018-10-21T07:27:15Z</time>
      </trkpt>
      <trkpt lat="46.43212" lon="2.95673">
        <ele>374.3</ele>
        <time>2018-10-21T07:27:16Z</time>
      </trkpt>
      <trkpt lat="46.43219" lon="2.95675">
        <ele>374.3</ele>
        <time>2018-10-21T07:27:17Z</time>
      </trkpt>
      <trkpt lat="46.43225" lon="2.95678">
        <ele>373.9</ele>
        <time>2018-10-21T07:27:18Z</time>
      </trkpt>
      <trkpt lat="46.43232" lon="2.95682">
        <ele>373.6</ele>
        <time>2018-10-21T07:27:19Z</time>
      </trkpt>
      <trkpt lat="46.43238" lon="2.95685">
        <ele>373.4</ele>
        <time>2018-10-21T07:27:20Z</time>
      </trkpt>
      <trkpt lat="46.43244" lon="2.95689">
        <ele>373.4</ele>
        <time>2018-10-21T07:27:21Z</time>
      </trkpt>
      <trkpt lat="46.43251" lon="2.95693">
        <ele>373.4</ele>
        <time>2018-10-21T07:27:22Z</time>
      </trkpt>
      <trkpt lat="46.43257" lon="2.95697">
        <ele>373</ele>
        <time>2018-10-21T07:27:23Z</time>
      </trkpt>
      <trkpt lat="46.43263" lon="2.957">
        <ele>372.8</ele>
        <time>2018-10-21T07:27:24Z</time>
      </trkpt>
      <trkpt lat="46.43269" lon="2.95704">
        <ele>372.5</ele>
        <time>2018-10-21T07:27:25Z</time>
      </trkpt>
      <trkpt lat="46.43274" lon="2.95708">
        <ele>372.4</ele>
        <time>2018-10-21T07:27:26Z</time>
      </trkpt>
      <trkpt lat="46.4328" lon="2.95711">
        <ele>372.2</ele>
        <time>2018-10-21T07:27:27Z</time>
      </trkpt>
      <trkpt lat="46.43286" lon="2.95715">
        <ele>372.2</ele>
        <time>2018-10-21T07:27:28Z</time>
      </trkpt>
      <trkpt lat="46.43292" lon="2.95718">
        <ele>372.1</ele>
        <time>2018-10-21T07:27:29Z</time>
      </trkpt>
      <trkpt lat="46.43298" lon="2.95722">
        <ele>371.9</ele>
        <time>2018-10-21T07:27:30Z</time>
      </trkpt>
      <trkpt lat="46.43304" lon="2.95726">
        <ele>371.7</ele>
        <time>2018-10-21T07:27:31Z</time>
      </trkpt>
      <trkpt lat="46.43309" lon="2.95729">
        <ele>371.6</ele>
        <time>2018-10-21T07:27:32Z</time>
      </trkpt>
      <trkpt lat="46.43315" lon="2.95733">
        <ele>371.6</ele>
        <time>2018-10-21T07:27:33Z</time>
      </trkpt>
      <trkpt lat="46.43321" lon="2.95736">
        <ele>371.6</ele>
        <time>2018-10-21T07:27:34Z</time>
      </trkpt>
      <trkpt lat="46.43327" lon="2.9574">
        <ele>371.2</ele>
        <time>2018-10-21T07:27:35Z</time>
      </trkpt>
      <trkpt lat="46.43333" lon="2.95743">
        <ele>370.8</ele>
        <time>2018-10-21T07:27:36Z</time>
      </trkpt>
      <trkpt lat="46.43337" lon="2.95754">
        <ele>370.3</ele>
        <time>2018-10-21T07:27:38Z</time>
      </trkpt>
      <trkpt lat="46.43335" lon="2.95765">
        <ele>370</ele>
        <time>2018-10-21T07:27:40Z</time>
      </trkpt>
      <trkpt lat="46.43331" lon="2.95775">
        <ele>369.7</ele>
        <time>2018-10-21T07:27:42Z</time>
      </trkpt>
      <trkpt lat="46.43327" lon="2.95785">
        <ele>369.9</ele>
        <time>2018-10-21T07:27:44Z</time>
      </trkpt>
      <trkpt lat="46.43323" lon="2.95796">
        <ele>370.5</ele>
        <time>2018-10-21T07:27:46Z</time>
      </trkpt>
      <trkpt lat="46.43319" lon="2.95807">
        <ele>370.7</ele>
        <time>2018-10-21T07:27:48Z</time>
      </trkpt>
      <trkpt lat="46.43315" lon="2.95818">
        <ele>370.8</ele>
        <time>2018-10-21T07:27:50Z</time>
      </trkpt>
      <trkpt lat="46.43311" lon="2.9583">
        <ele>371.2</ele>
        <time>2018-10-21T07:27:52Z</time>
      </trkpt>
      <trkpt lat="46.43308" lon="2.95835">
        <ele>371.5</ele>
        <time>2018-10-21T07:27:53Z</time>
      </trkpt>
      <trkpt lat="46.43304" lon="2.95846">
        <ele>372</ele>
        <time>2018-10-21T07:27:55Z</time>
      </trkpt>
      <trkpt lat="46.43299" lon="2.95858">
        <ele>371.5</ele>
        <time>2018-10-21T07:27:57Z</time>
      </trkpt>
      <trkpt lat="46.43295" lon="2.95869">
        <ele>371.2</ele>
        <time>2018-10-21T07:27:59Z</time>
      </trkpt>
      <trkpt lat="46.43291" lon="2.95879">
        <ele>371.5</ele>
        <time>2018-10-21T07:28:01Z</time>
      </trkpt>
      <trkpt lat="46.43287" lon="2.9589">
        <ele>371.8</ele>
        <time>2018-10-21T07:28:03Z</time>
      </trkpt>
      <trkpt lat="46.43283" lon="2.95901">
        <ele>371.9</ele>
        <time>2018-10-21T07:28:05Z</time>
      </trkpt>
      <trkpt lat="46.4328" lon="2.95906">
        <ele>372.3</ele>
        <time>2018-10-21T07:28:06Z</time>
      </trkpt>
      <trkpt lat="46.43278" lon="2.95912">
        <ele>372.5</ele>
        <time>2018-10-21T07:28:07Z</time>
      </trkpt>
      <trkpt lat="46.43275" lon="2.95917">
        <ele>372.5</ele>
        <time>2018-10-21T07:28:08Z</time>
      </trkpt>
      <trkpt lat="46.43273" lon="2.95923">
        <ele>372.5</ele>
        <time>2018-10-21T07:28:09Z</time>
      </trkpt>
      <trkpt lat="46.4327" lon="2.95929">
        <ele>372.5</ele>
        <time>2018-10-21T07:28:10Z</time>
      </trkpt>
      <trkpt lat="46.43268" lon="2.95935">
        <ele>372.5</ele>
        <time>2018-10-21T07:28:11Z</time>
      </trkpt>
      <trkpt lat="46.43265" lon="2.95941">
        <ele>372.5</ele>
        <time>2018-10-21T07:28:12Z</time>
      </trkpt>
      <trkpt lat="46.43262" lon="2.95946">
        <ele>372.6</ele>
        <time>2018-10-21T07:28:13Z</time>
      </trkpt>
      <trkpt lat="46.4326" lon="2.95952">
        <ele>372.8</ele>
        <time>2018-10-21T07:28:14Z</time>
      </trkpt>
      <trkpt lat="46.43257" lon="2.95957">
        <ele>372.7</ele>
        <time>2018-10-21T07:28:15Z</time>
      </trkpt>
      <trkpt lat="46.43255" lon="2.95963">
        <ele>372.6</ele>
        <time>2018-10-21T07:28:16Z</time>
      </trkpt>
      <trkpt lat="46.43252" lon="2.95969">
        <ele>372.5</ele>
        <time>2018-10-21T07:28:17Z</time>
      </trkpt>
      <trkpt lat="46.4325" lon="2.95974">
        <ele>373</ele>
        <time>2018-10-21T07:28:18Z</time>
      </trkpt>
      <trkpt lat="46.43247" lon="2.95979">
        <ele>373.3</ele>
        <time>2018-10-21T07:28:19Z</time>
      </trkpt>
      <trkpt lat="46.43245" lon="2.95985">
        <ele>373.4</ele>
        <time>2018-10-21T07:28:20Z</time>
      </trkpt>
      <trkpt lat="46.43242" lon="2.95991">
        <ele>373.6</ele>
        <time>2018-10-21T07:28:21Z</time>
      </trkpt>
      <trkpt lat="46.43239" lon="2.95996">
        <ele>373.7</ele>
        <time>2018-10-21T07:28:22Z</time>
      </trkpt>
      <trkpt lat="46.43237" lon="2.96002">
        <ele>373.7</ele>
        <time>2018-10-21T07:28:23Z</time>
      </trkpt>
      <trkpt lat="46.43234" lon="2.96007">
        <ele>373.8</ele>
        <time>2018-10-21T07:28:24Z</time>
      </trkpt>
      <trkpt lat="46.43231" lon="2.96013">
        <ele>374.1</ele>
        <time>2018-10-21T07:28:25Z</time>
      </trkpt>
      <trkpt lat="46.43229" lon="2.96019">
        <ele>374.3</ele>
        <time>2018-10-21T07:28:26Z</time>
      </trkpt>
      <trkpt lat="46.43226" lon="2.96024">
        <ele>374.3</ele>
        <time>2018-10-21T07:28:27Z</time>
      </trkpt>
      <trkpt lat="46.43224" lon="2.96031">
        <ele>374.2</ele>
        <time>2018-10-21T07:28:28Z</time>
      </trkpt>
      <trkpt lat="46.43221" lon="2.96037">
        <ele>374.2</ele>
        <time>2018-10-21T07:28:29Z</time>
      </trkpt>
      <trkpt lat="46.43219" lon="2.96044">
        <ele>373.7</ele>
        <time>2018-10-21T07:28:30Z</time>
      </trkpt>
      <trkpt lat="46.43216" lon="2.96051">
        <ele>373.4</ele>
        <time>2018-10-21T07:28:31Z</time>
      </trkpt>
      <trkpt lat="46.43214" lon="2.96058">
        <ele>373.4</ele>
        <time>2018-10-21T07:28:32Z</time>
      </trkpt>
      <trkpt lat="46.43212" lon="2.96065">
        <ele>373.4</ele>
        <time>2018-10-21T07:28:33Z</time>
      </trkpt>
      <trkpt lat="46.4321" lon="2.96073">
        <ele>373.4</ele>
        <time>2018-10-21T07:28:34Z</time>
      </trkpt>
      <trkpt lat="46.43209" lon="2.9608">
        <ele>373.5</ele>
        <time>2018-10-21T07:28:35Z</time>
      </trkpt>
      <trkpt lat="46.43207" lon="2.96087">
        <ele>373.5</ele>
        <time>2018-10-21T07:28:36Z</time>
      </trkpt>
      <trkpt lat="46.43206" lon="2.96094">
        <ele>373.4</ele>
        <time>2018-10-21T07:28:37Z</time>
      </trkpt>
      <trkpt lat="46.43205" lon="2.96101">
        <ele>373.4</ele>
        <time>2018-10-21T07:28:38Z</time>
      </trkpt>
      <trkpt lat="46.43203" lon="2.96108">
        <ele>373.4</ele>
        <time>2018-10-21T07:28:39Z</time>
      </trkpt>
      <trkpt lat="46.43201" lon="2.96115">
        <ele>373.4</ele>
        <time>2018-10-21T07:28:40Z</time>
      </trkpt>
      <trkpt lat="46.432" lon="2.96123">
        <ele>373.4</ele>
        <time>2018-10-21T07:28:41Z</time>
      </trkpt>
      <trkpt lat="46.43198" lon="2.9613">
        <ele>373.1</ele>
        <time>2018-10-21T07:28:42Z</time>
      </trkpt>
      <trkpt lat="46.43197" lon="2.96137">
        <ele>372.9</ele>
        <time>2018-10-21T07:28:43Z</time>
      </trkpt>
      <trkpt lat="46.43196" lon="2.96144">
        <ele>373.3</ele>
        <time>2018-10-21T07:28:44Z</time>
      </trkpt>
      <trkpt lat="46.43194" lon="2.96151">
        <ele>373.5</ele>
        <time>2018-10-21T07:28:45Z</time>
      </trkpt>
      <trkpt lat="46.43193" lon="2.96158">
        <ele>373.6</ele>
        <time>2018-10-21T07:28:46Z</time>
      </trkpt>
      <trkpt lat="46.43191" lon="2.96165">
        <ele>373.7</ele>
        <time>2018-10-21T07:28:47Z</time>
      </trkpt>
      <trkpt lat="46.4319" lon="2.96173">
        <ele>373.7</ele>
        <time>2018-10-21T07:28:48Z</time>
      </trkpt>
      <trkpt lat="46.43189" lon="2.9618">
        <ele>374.4</ele>
        <time>2018-10-21T07:28:49Z</time>
      </trkpt>
      <trkpt lat="46.43187" lon="2.96187">
        <ele>374.9</ele>
        <time>2018-10-21T07:28:50Z</time>
      </trkpt>
      <trkpt lat="46.43186" lon="2.96194">
        <ele>374.6</ele>
        <time>2018-10-21T07:28:51Z</time>
      </trkpt>
      <trkpt lat="46.43184" lon="2.96202">
        <ele>374.4</ele>
        <time>2018-10-21T07:28:52Z</time>
      </trkpt>
      <trkpt lat="46.43183" lon="2.96209">
        <ele>374.6</ele>
        <time>2018-10-21T07:28:53Z</time>
      </trkpt>
      <trkpt lat="46.43182" lon="2.96215">
        <ele>374.8</ele>
        <time>2018-10-21T07:28:54Z</time>
      </trkpt>
      <trkpt lat="46.4318" lon="2.96223">
        <ele>375</ele>
        <time>2018-10-21T07:28:55Z</time>
      </trkpt>
      <trkpt lat="46.43179" lon="2.9623">
        <ele>375.2</ele>
        <time>2018-10-21T07:28:56Z</time>
      </trkpt>
      <trkpt lat="46.43178" lon="2.96236">
        <ele>375.4</ele>
        <time>2018-10-21T07:28:57Z</time>
      </trkpt>
      <trkpt lat="46.43177" lon="2.96242">
        <ele>375.4</ele>
        <time>2018-10-21T07:28:58Z</time>
      </trkpt>
      <trkpt lat="46.43175" lon="2.96249">
        <ele>375.5</ele>
        <time>2018-10-21T07:28:59Z</time>
      </trkpt>
      <trkpt lat="46.43174" lon="2.96256">
        <ele>375.5</ele>
        <time>2018-10-21T07:29:00Z</time>
      </trkpt>
      <trkpt lat="46.43173" lon="2.96263">
        <ele>375.7</ele>
        <time>2018-10-21T07:29:01Z</time>
      </trkpt>
      <trkpt lat="46.43171" lon="2.9627">
        <ele>375.9</ele>
        <time>2018-10-21T07:29:02Z</time>
      </trkpt>
      <trkpt lat="46.4317" lon="2.96277">
        <ele>376</ele>
        <time>2018-10-21T07:29:03Z</time>
      </trkpt>
      <trkpt lat="46.43168" lon="2.96284">
        <ele>376.1</ele>
        <time>2018-10-21T07:29:04Z</time>
      </trkpt>
      <trkpt lat="46.43166" lon="2.96291">
        <ele>375.9</ele>
        <time>2018-10-21T07:29:05Z</time>
      </trkpt>
      <trkpt lat="46.43165" lon="2.96298">
        <ele>375.7</ele>
        <time>2018-10-21T07:29:06Z</time>
      </trkpt>
      <trkpt lat="46.43163" lon="2.96305">
        <ele>375.5</ele>
        <time>2018-10-21T07:29:07Z</time>
      </trkpt>
      <trkpt lat="46.43162" lon="2.96312">
        <ele>375.8</ele>
        <time>2018-10-21T07:29:08Z</time>
      </trkpt>
      <trkpt lat="46.43161" lon="2.96319">
        <ele>376</ele>
        <time>2018-10-21T07:29:09Z</time>
      </trkpt>
      <trkpt lat="46.43159" lon="2.96326">
        <ele>376.2</ele>
        <time>2018-10-21T07:29:10Z</time>
      </trkpt>
      <trkpt lat="46.43158" lon="2.96333">
        <ele>376.3</ele>
        <time>2018-10-21T07:29:11Z</time>
      </trkpt>
      <trkpt lat="46.43157" lon="2.9634">
        <ele>376.8</ele>
        <time>2018-10-21T07:29:12Z</time>
      </trkpt>
      <trkpt lat="46.43155" lon="2.96347">
        <ele>377.1</ele>
        <time>2018-10-21T07:29:13Z</time>
      </trkpt>
      <trkpt lat="46.43154" lon="2.96354">
        <ele>377.4</ele>
        <time>2018-10-21T07:29:14Z</time>
      </trkpt>
      <trkpt lat="46.43152" lon="2.96361">
        <ele>377.2</ele>
        <time>2018-10-21T07:29:15Z</time>
      </trkpt>
      <trkpt lat="46.43151" lon="2.96368">
        <ele>377</ele>
        <time>2018-10-21T07:29:16Z</time>
      </trkpt>
      <trkpt lat="46.4315" lon="2.96375">
        <ele>377.2</ele>
        <time>2018-10-21T07:29:17Z</time>
      </trkpt>
      <trkpt lat="46.43149" lon="2.96382">
        <ele>377.3</ele>
        <time>2018-10-21T07:29:18Z</time>
      </trkpt>
      <trkpt lat="46.43148" lon="2.96389">
        <ele>377.4</ele>
        <time>2018-10-21T07:29:19Z</time>
      </trkpt>
      <trkpt lat="46.43147" lon="2.96395">
        <ele>377.4</ele>
        <time>2018-10-21T07:29:20Z</time>
      </trkpt>
      <trkpt lat="46.43145" lon="2.96402">
        <ele>377.5</ele>
        <time>2018-10-21T07:29:21Z</time>
      </trkpt>
      <trkpt lat="46.43143" lon="2.96408">
        <ele>377.5</ele>
        <time>2018-10-21T07:29:22Z</time>
      </trkpt>
      <trkpt lat="46.43141" lon="2.96414">
        <ele>377.6</ele>
        <time>2018-10-21T07:29:23Z</time>
      </trkpt>
      <trkpt lat="46.43137" lon="2.96417">
        <ele>377.6</ele>
        <time>2018-10-21T07:29:24Z</time>
      </trkpt>
      <trkpt lat="46.43133" lon="2.9642">
        <ele>377.7</ele>
        <time>2018-10-21T07:29:25Z</time>
      </trkpt>
      <trkpt lat="46.43128" lon="2.96422">
        <ele>377.7</ele>
        <time>2018-10-21T07:29:26Z</time>
      </trkpt>
      <trkpt lat="46.43124" lon="2.96425">
        <ele>377.8</ele>
        <time>2018-10-21T07:29:27Z</time>
      </trkpt>
      <trkpt lat="46.43119" lon="2.96428">
        <ele>378</ele>
        <time>2018-10-21T07:29:28Z</time>
      </trkpt>
      <trkpt lat="46.43115" lon="2.96432">
        <ele>378.1</ele>
        <time>2018-10-21T07:29:29Z</time>
      </trkpt>
      <trkpt lat="46.43111" lon="2.96436">
        <ele>378.2</ele>
        <time>2018-10-21T07:29:30Z</time>
      </trkpt>
      <trkpt lat="46.43106" lon="2.9644">
        <ele>378.3</ele>
        <time>2018-10-21T07:29:31Z</time>
      </trkpt>
      <trkpt lat="46.43102" lon="2.96444">
        <ele>377.9</ele>
        <time>2018-10-21T07:29:32Z</time>
      </trkpt>
      <trkpt lat="46.43097" lon="2.96447">
        <ele>377.6</ele>
        <time>2018-10-21T07:29:33Z</time>
      </trkpt>
      <trkpt lat="46.43092" lon="2.9645">
        <ele>377.6</ele>
        <time>2018-10-21T07:29:34Z</time>
      </trkpt>
      <trkpt lat="46.43087" lon="2.96452">
        <ele>377.6</ele>
        <time>2018-10-21T07:29:35Z</time>
      </trkpt>
      <trkpt lat="46.43082" lon="2.96453">
        <ele>377.9</ele>
        <time>2018-10-21T07:29:36Z</time>
      </trkpt>
      <trkpt lat="46.43077" lon="2.96454">
        <ele>378.1</ele>
        <time>2018-10-21T07:29:37Z</time>
      </trkpt>
      <trkpt lat="46.43072" lon="2.96455">
        <ele>378.3</ele>
        <time>2018-10-21T07:29:38Z</time>
      </trkpt>
      <trkpt lat="46.43066" lon="2.96456">
        <ele>378.8</ele>
        <time>2018-10-21T07:29:39Z</time>
      </trkpt>
      <trkpt lat="46.43061" lon="2.96457">
        <ele>379.2</ele>
        <time>2018-10-21T07:29:40Z</time>
      </trkpt>
      <trkpt lat="46.43056" lon="2.96457">
        <ele>378.8</ele>
        <time>2018-10-21T07:29:41Z</time>
      </trkpt>
      <trkpt lat="46.4305" lon="2.96458">
        <ele>378.5</ele>
        <time>2018-10-21T07:29:42Z</time>
      </trkpt>
      <trkpt lat="46.43045" lon="2.96459">
        <ele>378.2</ele>
        <time>2018-10-21T07:29:43Z</time>
      </trkpt>
      <trkpt lat="46.43039" lon="2.9646">
        <ele>377.9</ele>
        <time>2018-10-21T07:29:44Z</time>
      </trkpt>
      <trkpt lat="46.43033" lon="2.96461">
        <ele>377.7</ele>
        <time>2018-10-21T07:29:45Z</time>
      </trkpt>
      <trkpt lat="46.43027" lon="2.96462">
        <ele>377.8</ele>
        <time>2018-10-21T07:29:46Z</time>
      </trkpt>
      <trkpt lat="46.43022" lon="2.96462">
        <ele>377.9</ele>
        <time>2018-10-21T07:29:47Z</time>
      </trkpt>
      <trkpt lat="46.43016" lon="2.96463">
        <ele>378</ele>
        <time>2018-10-21T07:29:48Z</time>
      </trkpt>
      <trkpt lat="46.4301" lon="2.96464">
        <ele>378</ele>
        <time>2018-10-21T07:29:49Z</time>
      </trkpt>
      <trkpt lat="46.43004" lon="2.96465">
        <ele>378</ele>
        <time>2018-10-21T07:29:50Z</time>
      </trkpt>
      <trkpt lat="46.42998" lon="2.96466">
        <ele>378.2</ele>
        <time>2018-10-21T07:29:51Z</time>
      </trkpt>
      <trkpt lat="46.42992" lon="2.96466">
        <ele>378.4</ele>
        <time>2018-10-21T07:29:52Z</time>
      </trkpt>
      <trkpt lat="46.42986" lon="2.96467">
        <ele>378.4</ele>
        <time>2018-10-21T07:29:53Z</time>
      </trkpt>
      <trkpt lat="46.4298" lon="2.96468">
        <ele>378.4</ele>
        <time>2018-10-21T07:29:54Z</time>
      </trkpt>
      <trkpt lat="46.42975" lon="2.96469">
        <ele>378.2</ele>
        <time>2018-10-21T07:29:55Z</time>
      </trkpt>
      <trkpt lat="46.42969" lon="2.9647">
        <ele>378.1</ele>
        <time>2018-10-21T07:29:56Z</time>
      </trkpt>
      <trkpt lat="46.42963" lon="2.9647">
        <ele>378</ele>
        <time>2018-10-21T07:29:57Z</time>
      </trkpt>
      <trkpt lat="46.42957" lon="2.96471">
        <ele>378.2</ele>
        <time>2018-10-21T07:29:58Z</time>
      </trkpt>
      <trkpt lat="46.42951" lon="2.96472">
        <ele>378.3</ele>
        <time>2018-10-21T07:29:59Z</time>
      </trkpt>
      <trkpt lat="46.42945" lon="2.96472">
        <ele>378.3</ele>
        <time>2018-10-21T07:30:00Z</time>
      </trkpt>
      <trkpt lat="46.42939" lon="2.96473">
        <ele>378.3</ele>
        <time>2018-10-21T07:30:01Z</time>
      </trkpt>
      <trkpt lat="46.42934" lon="2.96474">
        <ele>378.2</ele>
        <time>2018-10-21T07:30:02Z</time>
      </trkpt>
      <trkpt lat="46.42928" lon="2.96474">
        <ele>378.5</ele>
        <time>2018-10-21T07:30:03Z</time>
      </trkpt>
      <trkpt lat="46.42922" lon="2.96475">
        <ele>378.6</ele>
        <time>2018-10-21T07:30:04Z</time>
      </trkpt>
      <trkpt lat="46.42916" lon="2.96476">
        <ele>378.3</ele>
        <time>2018-10-21T07:30:05Z</time>
      </trkpt>
      <trkpt lat="46.4291" lon="2.96478">
        <ele>378</ele>
        <time>2018-10-21T07:30:06Z</time>
      </trkpt>
      <trkpt lat="46.42904" lon="2.9648">
        <ele>377.9</ele>
        <time>2018-10-21T07:30:07Z</time>
      </trkpt>
      <trkpt lat="46.42898" lon="2.96483">
        <ele>377.8</ele>
        <time>2018-10-21T07:30:08Z</time>
      </trkpt>
      <trkpt lat="46.42893" lon="2.96486">
        <ele>377.7</ele>
        <time>2018-10-21T07:30:09Z</time>
      </trkpt>
      <trkpt lat="46.42887" lon="2.96489">
        <ele>378</ele>
        <time>2018-10-21T07:30:10Z</time>
      </trkpt>
      <trkpt lat="46.42882" lon="2.96493">
        <ele>378.2</ele>
        <time>2018-10-21T07:30:11Z</time>
      </trkpt>
      <trkpt lat="46.42876" lon="2.96496">
        <ele>377.8</ele>
        <time>2018-10-21T07:30:12Z</time>
      </trkpt>
      <trkpt lat="46.42871" lon="2.965">
        <ele>377.5</ele>
        <time>2018-10-21T07:30:13Z</time>
      </trkpt>
      <trkpt lat="46.42865" lon="2.96503">
        <ele>377.5</ele>
        <time>2018-10-21T07:30:14Z</time>
      </trkpt>
      <trkpt lat="46.4286" lon="2.96507">
        <ele>377.5</ele>
        <time>2018-10-21T07:30:15Z</time>
      </trkpt>
      <trkpt lat="46.42855" lon="2.9651">
        <ele>377.5</ele>
        <time>2018-10-21T07:30:16Z</time>
      </trkpt>
      <trkpt lat="46.42849" lon="2.96514">
        <ele>377.8</ele>
        <time>2018-10-21T07:30:17Z</time>
      </trkpt>
      <trkpt lat="46.42844" lon="2.96518">
        <ele>378</ele>
        <time>2018-10-21T07:30:18Z</time>
      </trkpt>
      <trkpt lat="46.42838" lon="2.96521">
        <ele>377.8</ele>
        <time>2018-10-21T07:30:19Z</time>
      </trkpt>
      <trkpt lat="46.42833" lon="2.96525">
        <ele>377.6</ele>
        <time>2018-10-21T07:30:20Z</time>
      </trkpt>
      <trkpt lat="46.42827" lon="2.96529">
        <ele>377.5</ele>
        <time>2018-10-21T07:30:21Z</time>
      </trkpt>
      <trkpt lat="46.42821" lon="2.96533">
        <ele>376.8</ele>
        <time>2018-10-21T07:30:22Z</time>
      </trkpt>
      <trkpt lat="46.42816" lon="2.96538">
        <ele>376.3</ele>
        <time>2018-10-21T07:30:23Z</time>
      </trkpt>
      <trkpt lat="46.42811" lon="2.96542">
        <ele>376.5</ele>
        <time>2018-10-21T07:30:24Z</time>
      </trkpt>
      <trkpt lat="46.42805" lon="2.96548">
        <ele>376.6</ele>
        <time>2018-10-21T07:30:25Z</time>
      </trkpt>
      <trkpt lat="46.428" lon="2.96553">
        <ele>376.3</ele>
        <time>2018-10-21T07:30:26Z</time>
      </trkpt>
      <trkpt lat="46.42795" lon="2.96558">
        <ele>376.1</ele>
        <time>2018-10-21T07:30:27Z</time>
      </trkpt>
      <trkpt lat="46.4279" lon="2.96564">
        <ele>376</ele>
        <time>2018-10-21T07:30:28Z</time>
      </trkpt>
      <trkpt lat="46.42785" lon="2.96569">
        <ele>376.3</ele>
        <time>2018-10-21T07:30:29Z</time>
      </trkpt>
      <trkpt lat="46.4278" lon="2.96575">
        <ele>376.5</ele>
        <time>2018-10-21T07:30:30Z</time>
      </trkpt>
      <trkpt lat="46.42775" lon="2.96581">
        <ele>376.4</ele>
        <time>2018-10-21T07:30:31Z</time>
      </trkpt>
      <trkpt lat="46.4277" lon="2.96587">
        <ele>376.3</ele>
        <time>2018-10-21T07:30:32Z</time>
      </trkpt>
      <trkpt lat="46.42766" lon="2.96592">
        <ele>376.2</ele>
        <time>2018-10-21T07:30:33Z</time>
      </trkpt>
      <trkpt lat="46.4276" lon="2.96598">
        <ele>376.2</ele>
        <time>2018-10-21T07:30:34Z</time>
      </trkpt>
      <trkpt lat="46.42756" lon="2.96604">
        <ele>376.2</ele>
        <time>2018-10-21T07:30:35Z</time>
      </trkpt>
      <trkpt lat="46.42751" lon="2.96609">
        <ele>376.1</ele>
        <time>2018-10-21T07:30:36Z</time>
      </trkpt>
      <trkpt lat="46.42746" lon="2.96615">
        <ele>376.1</ele>
        <time>2018-10-21T07:30:37Z</time>
      </trkpt>
      <trkpt lat="46.42741" lon="2.9662">
        <ele>375.6</ele>
        <time>2018-10-21T07:30:38Z</time>
      </trkpt>
      <trkpt lat="46.42736" lon="2.96625">
        <ele>375.3</ele>
        <time>2018-10-21T07:30:39Z</time>
      </trkpt>
      <trkpt lat="46.42731" lon="2.96629">
        <ele>375.1</ele>
        <time>2018-10-21T07:30:40Z</time>
      </trkpt>
      <trkpt lat="46.42725" lon="2.96632">
        <ele>374.9</ele>
        <time>2018-10-21T07:30:41Z</time>
      </trkpt>
      <trkpt lat="46.42719" lon="2.96636">
        <ele>374.7</ele>
        <time>2018-10-21T07:30:42Z</time>
      </trkpt>
      <trkpt lat="46.42713" lon="2.9664">
        <ele>374.3</ele>
        <time>2018-10-21T07:30:43Z</time>
      </trkpt>
      <trkpt lat="46.42706" lon="2.96643">
        <ele>374</ele>
        <time>2018-10-21T07:30:44Z</time>
      </trkpt>
      <trkpt lat="46.42699" lon="2.96646">
        <ele>373.8</ele>
        <time>2018-10-21T07:30:45Z</time>
      </trkpt>
      <trkpt lat="46.42693" lon="2.9665">
        <ele>373.6</ele>
        <time>2018-10-21T07:30:46Z</time>
      </trkpt>
      <trkpt lat="46.42688" lon="2.96653">
        <ele>373.4</ele>
        <time>2018-10-21T07:30:47Z</time>
      </trkpt>
      <trkpt lat="46.42679" lon="2.96657">
        <ele>372.5</ele>
        <time>2018-10-21T07:30:49Z</time>
      </trkpt>
      <trkpt lat="46.42672" lon="2.96658">
        <ele>371.9</ele>
        <time>2018-10-21T07:30:51Z</time>
      </trkpt>
      <trkpt lat="46.42668" lon="2.9666">
        <ele>371.5</ele>
        <time>2018-10-21T07:30:52Z</time>
      </trkpt>
      <trkpt lat="46.42663" lon="2.96663">
        <ele>371.1</ele>
        <time>2018-10-21T07:30:53Z</time>
      </trkpt>
      <trkpt lat="46.42657" lon="2.96665">
        <ele>370.9</ele>
        <time>2018-10-21T07:30:54Z</time>
      </trkpt>
      <trkpt lat="46.4265" lon="2.96668">
        <ele>370.3</ele>
        <time>2018-10-21T07:30:55Z</time>
      </trkpt>
      <trkpt lat="46.42643" lon="2.96671">
        <ele>369.9</ele>
        <time>2018-10-21T07:30:56Z</time>
      </trkpt>
      <trkpt lat="46.42636" lon="2.96675">
        <ele>369.3</ele>
        <time>2018-10-21T07:30:57Z</time>
      </trkpt>
      <trkpt lat="46.42629" lon="2.96681">
        <ele>368.9</ele>
        <time>2018-10-21T07:30:58Z</time>
      </trkpt>
      <trkpt lat="46.42623" lon="2.96689">
        <ele>368.5</ele>
        <time>2018-10-21T07:30:59Z</time>
      </trkpt>
      <trkpt lat="46.42617" lon="2.96697">
        <ele>367.8</ele>
        <time>2018-10-21T07:31:00Z</time>
      </trkpt>
      <trkpt lat="46.42612" lon="2.96706">
        <ele>367.2</ele>
        <time>2018-10-21T07:31:01Z</time>
      </trkpt>
      <trkpt lat="46.42607" lon="2.96715">
        <ele>366.8</ele>
        <time>2018-10-21T07:31:02Z</time>
      </trkpt>
      <trkpt lat="46.42603" lon="2.96724">
        <ele>366.4</ele>
        <time>2018-10-21T07:31:03Z</time>
      </trkpt>
      <trkpt lat="46.42599" lon="2.96733">
        <ele>365.4</ele>
        <time>2018-10-21T07:31:04Z</time>
      </trkpt>
      <trkpt lat="46.42594" lon="2.96743">
        <ele>364.6</ele>
        <time>2018-10-21T07:31:05Z</time>
      </trkpt>
      <trkpt lat="46.42589" lon="2.96751">
        <ele>364</ele>
        <time>2018-10-21T07:31:06Z</time>
      </trkpt>
      <trkpt lat="46.42583" lon="2.96757">
        <ele>363.2</ele>
        <time>2018-10-21T07:31:07Z</time>
      </trkpt>
      <trkpt lat="46.42576" lon="2.96762">
        <ele>362.7</ele>
        <time>2018-10-21T07:31:08Z</time>
      </trkpt>
      <trkpt lat="46.42567" lon="2.96765">
        <ele>361.5</ele>
        <time>2018-10-21T07:31:09Z</time>
      </trkpt>
      <trkpt lat="46.42558" lon="2.96769">
        <ele>360.6</ele>
        <time>2018-10-21T07:31:10Z</time>
      </trkpt>
      <trkpt lat="46.42548" lon="2.96772">
        <ele>359.9</ele>
        <time>2018-10-21T07:31:11Z</time>
      </trkpt>
      <trkpt lat="46.42538" lon="2.96776">
        <ele>358.7</ele>
        <time>2018-10-21T07:31:12Z</time>
      </trkpt>
      <trkpt lat="46.42528" lon="2.9678">
        <ele>357.8</ele>
        <time>2018-10-21T07:31:13Z</time>
      </trkpt>
      <trkpt lat="46.42519" lon="2.96784">
        <ele>356.8</ele>
        <time>2018-10-21T07:31:14Z</time>
      </trkpt>
      <trkpt lat="46.4251" lon="2.96787">
        <ele>356.1</ele>
        <time>2018-10-21T07:31:15Z</time>
      </trkpt>
      <trkpt lat="46.42501" lon="2.9679">
        <ele>355.3</ele>
        <time>2018-10-21T07:31:16Z</time>
      </trkpt>
      <trkpt lat="46.42492" lon="2.96793">
        <ele>354.6</ele>
        <time>2018-10-21T07:31:17Z</time>
      </trkpt>
      <trkpt lat="46.42483" lon="2.96798">
        <ele>354.2</ele>
        <time>2018-10-21T07:31:18Z</time>
      </trkpt>
      <trkpt lat="46.42474" lon="2.96803">
        <ele>353.2</ele>
        <time>2018-10-21T07:31:19Z</time>
      </trkpt>
      <trkpt lat="46.42466" lon="2.96809">
        <ele>352.6</ele>
        <time>2018-10-21T07:31:20Z</time>
      </trkpt>
      <trkpt lat="46.42457" lon="2.96815">
        <ele>351.6</ele>
        <time>2018-10-21T07:31:21Z</time>
      </trkpt>
      <trkpt lat="46.42448" lon="2.96819">
        <ele>350.9</ele>
        <time>2018-10-21T07:31:22Z</time>
      </trkpt>
      <trkpt lat="46.42438" lon="2.96823">
        <ele>350.3</ele>
        <time>2018-10-21T07:31:23Z</time>
      </trkpt>
      <trkpt lat="46.42429" lon="2.96826">
        <ele>349.8</ele>
        <time>2018-10-21T07:31:24Z</time>
      </trkpt>
      <trkpt lat="46.42419" lon="2.96828">
        <ele>349.5</ele>
        <time>2018-10-21T07:31:25Z</time>
      </trkpt>
      <trkpt lat="46.42408" lon="2.9683">
        <ele>348.5</ele>
        <time>2018-10-21T07:31:26Z</time>
      </trkpt>
      <trkpt lat="46.42397" lon="2.96831">
        <ele>347.8</ele>
        <time>2018-10-21T07:31:27Z</time>
      </trkpt>
      <trkpt lat="46.42387" lon="2.96833">
        <ele>346.8</ele>
        <time>2018-10-21T07:31:28Z</time>
      </trkpt>
      <trkpt lat="46.42377" lon="2.96835">
        <ele>346.1</ele>
        <time>2018-10-21T07:31:29Z</time>
      </trkpt>
      <trkpt lat="46.42367" lon="2.96836">
        <ele>345.5</ele>
        <time>2018-10-21T07:31:30Z</time>
      </trkpt>
      <trkpt lat="46.42357" lon="2.96836">
        <ele>344.9</ele>
        <time>2018-10-21T07:31:31Z</time>
      </trkpt>
      <trkpt lat="46.42348" lon="2.96836">
        <ele>344.5</ele>
        <time>2018-10-21T07:31:32Z</time>
      </trkpt>
      <trkpt lat="46.4234" lon="2.96836">
        <ele>344</ele>
        <time>2018-10-21T07:31:33Z</time>
      </trkpt>
      <trkpt lat="46.42331" lon="2.96834">
        <ele>343.7</ele>
        <time>2018-10-21T07:31:34Z</time>
      </trkpt>
      <trkpt lat="46.42322" lon="2.96833">
        <ele>343.3</ele>
        <time>2018-10-21T07:31:35Z</time>
      </trkpt>
      <trkpt lat="46.42314" lon="2.96831">
        <ele>342.9</ele>
        <time>2018-10-21T07:31:36Z</time>
      </trkpt>
      <trkpt lat="46.42307" lon="2.96829">
        <ele>342.7</ele>
        <time>2018-10-21T07:31:37Z</time>
      </trkpt>
      <trkpt lat="46.42299" lon="2.96827">
        <ele>342.7</ele>
        <time>2018-10-21T07:31:38Z</time>
      </trkpt>
      <trkpt lat="46.42293" lon="2.96826">
        <ele>342.7</ele>
        <time>2018-10-21T07:31:39Z</time>
      </trkpt>
      <trkpt lat="46.42286" lon="2.96825">
        <ele>342.5</ele>
        <time>2018-10-21T07:31:40Z</time>
      </trkpt>
      <trkpt lat="46.4228" lon="2.96825">
        <ele>342.3</ele>
        <time>2018-10-21T07:31:41Z</time>
      </trkpt>
      <trkpt lat="46.42274" lon="2.96825">
        <ele>342.5</ele>
        <time>2018-10-21T07:31:42Z</time>
      </trkpt>
      <trkpt lat="46.42268" lon="2.96826">
        <ele>342.8</ele>
        <time>2018-10-21T07:31:43Z</time>
      </trkpt>
      <trkpt lat="46.42263" lon="2.96827">
        <ele>342.9</ele>
        <time>2018-10-21T07:31:44Z</time>
      </trkpt>
      <trkpt lat="46.42258" lon="2.96829">
        <ele>343</ele>
        <time>2018-10-21T07:31:45Z</time>
      </trkpt>
      <trkpt lat="46.42253" lon="2.96831">
        <ele>343</ele>
        <time>2018-10-21T07:31:46Z</time>
      </trkpt>
      <trkpt lat="46.42248" lon="2.96833">
        <ele>343.3</ele>
        <time>2018-10-21T07:31:47Z</time>
      </trkpt>
      <trkpt lat="46.42243" lon="2.96835">
        <ele>343.5</ele>
        <time>2018-10-21T07:31:48Z</time>
      </trkpt>
      <trkpt lat="46.42239" lon="2.96837">
        <ele>343.6</ele>
        <time>2018-10-21T07:31:49Z</time>
      </trkpt>
      <trkpt lat="46.4223" lon="2.9684">
        <ele>344.1</ele>
        <time>2018-10-21T07:31:51Z</time>
      </trkpt>
      <trkpt lat="46.42222" lon="2.96841">
        <ele>345.1</ele>
        <time>2018-10-21T07:31:53Z</time>
      </trkpt>
      <trkpt lat="46.42214" lon="2.96839">
        <ele>346.6</ele>
        <time>2018-10-21T07:31:56Z</time>
      </trkpt>
      <trkpt lat="46.42206" lon="2.96836">
        <ele>348</ele>
        <time>2018-10-21T07:31:59Z</time>
      </trkpt>
      <trkpt lat="46.422" lon="2.96832">
        <ele>349.5</ele>
        <time>2018-10-21T07:32:02Z</time>
      </trkpt>
      <trkpt lat="46.42192" lon="2.96826">
        <ele>350.7</ele>
        <time>2018-10-21T07:32:05Z</time>
      </trkpt>
      <trkpt lat="46.42187" lon="2.96822">
        <ele>351.6</ele>
        <time>2018-10-21T07:32:07Z</time>
      </trkpt>
      <trkpt lat="46.42182" lon="2.96818">
        <ele>352.1</ele>
        <time>2018-10-21T07:32:09Z</time>
      </trkpt>
      <trkpt lat="46.42177" lon="2.96812">
        <ele>352.8</ele>
        <time>2018-10-21T07:32:11Z</time>
      </trkpt>
      <trkpt lat="46.42172" lon="2.96806">
        <ele>353.8</ele>
        <time>2018-10-21T07:32:13Z</time>
      </trkpt>
      <trkpt lat="46.42166" lon="2.96802">
        <ele>354.7</ele>
        <time>2018-10-21T07:32:15Z</time>
      </trkpt>
      <trkpt lat="46.4216" lon="2.96798">
        <ele>354.9</ele>
        <time>2018-10-21T07:32:17Z</time>
      </trkpt>
      <trkpt lat="46.42152" lon="2.96795">
        <ele>355.4</ele>
        <time>2018-10-21T07:32:19Z</time>
      </trkpt>
      <trkpt lat="46.42144" lon="2.96793">
        <ele>355.9</ele>
        <time>2018-10-21T07:32:21Z</time>
      </trkpt>
      <trkpt lat="46.42136" lon="2.96792">
        <ele>356.6</ele>
        <time>2018-10-21T07:32:23Z</time>
      </trkpt>
      <trkpt lat="46.42128" lon="2.96792">
        <ele>357.3</ele>
        <time>2018-10-21T07:32:25Z</time>
      </trkpt>
      <trkpt lat="46.4212" lon="2.96792">
        <ele>357.7</ele>
        <time>2018-10-21T07:32:27Z</time>
      </trkpt>
      <trkpt lat="46.42115" lon="2.96792">
        <ele>357.6</ele>
        <time>2018-10-21T07:32:28Z</time>
      </trkpt>
      <trkpt lat="46.42102" lon="2.96792">
        <ele>357.2</ele>
        <time>2018-10-21T07:32:31Z</time>
      </trkpt>
      <trkpt lat="46.42094" lon="2.96791">
        <ele>357.9</ele>
        <time>2018-10-21T07:32:33Z</time>
      </trkpt>
      <trkpt lat="46.42085" lon="2.9679">
        <ele>358.2</ele>
        <time>2018-10-21T07:32:35Z</time>
      </trkpt>
      <trkpt lat="46.42081" lon="2.96789">
        <ele>358.2</ele>
        <time>2018-10-21T07:32:36Z</time>
      </trkpt>
      <trkpt lat="46.42077" lon="2.96787">
        <ele>358.1</ele>
        <time>2018-10-21T07:32:37Z</time>
      </trkpt>
      <trkpt lat="46.42072" lon="2.96786">
        <ele>358</ele>
        <time>2018-10-21T07:32:38Z</time>
      </trkpt>
      <trkpt lat="46.42067" lon="2.96786">
        <ele>357.9</ele>
        <time>2018-10-21T07:32:39Z</time>
      </trkpt>
      <trkpt lat="46.42058" lon="2.96783">
        <ele>357.7</ele>
        <time>2018-10-21T07:32:41Z</time>
      </trkpt>
      <trkpt lat="46.4205" lon="2.9678">
        <ele>357.5</ele>
        <time>2018-10-21T07:32:43Z</time>
      </trkpt>
      <trkpt lat="46.42041" lon="2.96775">
        <ele>358.5</ele>
        <time>2018-10-21T07:32:45Z</time>
      </trkpt>
      <trkpt lat="46.42033" lon="2.96771">
        <ele>358.7</ele>
        <time>2018-10-21T07:32:47Z</time>
      </trkpt>
      <trkpt lat="46.42026" lon="2.96768">
        <ele>358.9</ele>
        <time>2018-10-21T07:32:49Z</time>
      </trkpt>
      <trkpt lat="46.42019" lon="2.96763">
        <ele>359.4</ele>
        <time>2018-10-21T07:32:51Z</time>
      </trkpt>
      <trkpt lat="46.42012" lon="2.9676">
        <ele>360.1</ele>
        <time>2018-10-21T07:32:53Z</time>
      </trkpt>
      <trkpt lat="46.42005" lon="2.96756">
        <ele>360.5</ele>
        <time>2018-10-21T07:32:55Z</time>
      </trkpt>
      <trkpt lat="46.41997" lon="2.96753">
        <ele>361.4</ele>
        <time>2018-10-21T07:32:57Z</time>
      </trkpt>
      <trkpt lat="46.4199" lon="2.9675">
        <ele>361.8</ele>
        <time>2018-10-21T07:32:59Z</time>
      </trkpt>
      <trkpt lat="46.41984" lon="2.96747">
        <ele>361.9</ele>
        <time>2018-10-21T07:33:01Z</time>
      </trkpt>
      <trkpt lat="46.41976" lon="2.96744">
        <ele>362</ele>
        <time>2018-10-21T07:33:03Z</time>
      </trkpt>
      <trkpt lat="46.41968" lon="2.96741">
        <ele>362.2</ele>
        <time>2018-10-21T07:33:05Z</time>
      </trkpt>
      <trkpt lat="46.41961" lon="2.96737">
        <ele>362.4</ele>
        <time>2018-10-21T07:33:07Z</time>
      </trkpt>
      <trkpt lat="46.41953" lon="2.96733">
        <ele>363.2</ele>
        <time>2018-10-21T07:33:09Z</time>
      </trkpt>
      <trkpt lat="46.41946" lon="2.9673">
        <ele>363.6</ele>
        <time>2018-10-21T07:33:11Z</time>
      </trkpt>
      <trkpt lat="46.41938" lon="2.96727">
        <ele>363.6</ele>
        <time>2018-10-21T07:33:13Z</time>
      </trkpt>
      <trkpt lat="46.4193" lon="2.96724">
        <ele>363.6</ele>
        <time>2018-10-21T07:33:15Z</time>
      </trkpt>
      <trkpt lat="46.41922" lon="2.96721">
        <ele>363.7</ele>
        <time>2018-10-21T07:33:17Z</time>
      </trkpt>
      <trkpt lat="46.41915" lon="2.96719">
        <ele>364</ele>
        <time>2018-10-21T07:33:19Z</time>
      </trkpt>
      <trkpt lat="46.41908" lon="2.96717">
        <ele>364.3</ele>
        <time>2018-10-21T07:33:21Z</time>
      </trkpt>
      <trkpt lat="46.419" lon="2.96715">
        <ele>364.7</ele>
        <time>2018-10-21T07:33:23Z</time>
      </trkpt>
      <trkpt lat="46.41893" lon="2.96713">
        <ele>365.5</ele>
        <time>2018-10-21T07:33:25Z</time>
      </trkpt>
      <trkpt lat="46.41886" lon="2.96712">
        <ele>366.1</ele>
        <time>2018-10-21T07:33:27Z</time>
      </trkpt>
      <trkpt lat="46.41878" lon="2.96711">
        <ele>366.2</ele>
        <time>2018-10-21T07:33:29Z</time>
      </trkpt>
      <trkpt lat="46.41875" lon="2.96711">
        <ele>366.5</ele>
        <time>2018-10-21T07:33:30Z</time>
      </trkpt>
      <trkpt lat="46.41863" lon="2.96712">
        <ele>366.9</ele>
        <time>2018-10-21T07:33:33Z</time>
      </trkpt>
      <trkpt lat="46.41855" lon="2.96713">
        <ele>367.6</ele>
        <time>2018-10-21T07:33:35Z</time>
      </trkpt>
      <trkpt lat="46.41847" lon="2.96713">
        <ele>367.6</ele>
        <time>2018-10-21T07:33:37Z</time>
      </trkpt>
      <trkpt lat="46.41839" lon="2.96711">
        <ele>367.5</ele>
        <time>2018-10-21T07:33:39Z</time>
      </trkpt>
      <trkpt lat="46.41831" lon="2.9671">
        <ele>367.8</ele>
        <time>2018-10-21T07:33:41Z</time>
      </trkpt>
      <trkpt lat="46.41823" lon="2.96708">
        <ele>368.2</ele>
        <time>2018-10-21T07:33:43Z</time>
      </trkpt>
      <trkpt lat="46.41814" lon="2.96708">
        <ele>368</ele>
        <time>2018-10-21T07:33:45Z</time>
      </trkpt>
      <trkpt lat="46.41806" lon="2.96708">
        <ele>367.9</ele>
        <time>2018-10-21T07:33:47Z</time>
      </trkpt>
      <trkpt lat="46.41798" lon="2.96707">
        <ele>368</ele>
        <time>2018-10-21T07:33:49Z</time>
      </trkpt>
      <trkpt lat="46.4179" lon="2.96705">
        <ele>368.5</ele>
        <time>2018-10-21T07:33:51Z</time>
      </trkpt>
      <trkpt lat="46.41783" lon="2.96701">
        <ele>369</ele>
        <time>2018-10-21T07:33:53Z</time>
      </trkpt>
      <trkpt lat="46.41775" lon="2.96699">
        <ele>369.3</ele>
        <time>2018-10-21T07:33:55Z</time>
      </trkpt>
      <trkpt lat="46.41767" lon="2.96696">
        <ele>370</ele>
        <time>2018-10-21T07:33:57Z</time>
      </trkpt>
      <trkpt lat="46.41759" lon="2.96693">
        <ele>370.1</ele>
        <time>2018-10-21T07:33:59Z</time>
      </trkpt>
      <trkpt lat="46.41751" lon="2.96689">
        <ele>369.9</ele>
        <time>2018-10-21T07:34:01Z</time>
      </trkpt>
      <trkpt lat="46.41744" lon="2.96686">
        <ele>370.1</ele>
        <time>2018-10-21T07:34:03Z</time>
      </trkpt>
      <trkpt lat="46.41736" lon="2.96684">
        <ele>370.6</ele>
        <time>2018-10-21T07:34:05Z</time>
      </trkpt>
      <trkpt lat="46.41728" lon="2.96683">
        <ele>370.9</ele>
        <time>2018-10-21T07:34:07Z</time>
      </trkpt>
      <trkpt lat="46.4172" lon="2.96683">
        <ele>371</ele>
        <time>2018-10-21T07:34:09Z</time>
      </trkpt>
      <trkpt lat="46.41713" lon="2.96683">
        <ele>371.2</ele>
        <time>2018-10-21T07:34:11Z</time>
      </trkpt>
      <trkpt lat="46.41706" lon="2.96684">
        <ele>372.1</ele>
        <time>2018-10-21T07:34:13Z</time>
      </trkpt>
      <trkpt lat="46.41699" lon="2.96686">
        <ele>372.8</ele>
        <time>2018-10-21T07:34:15Z</time>
      </trkpt>
      <trkpt lat="46.41693" lon="2.96687">
        <ele>373.3</ele>
        <time>2018-10-21T07:34:17Z</time>
      </trkpt>
      <trkpt lat="46.41686" lon="2.96688">
        <ele>373.7</ele>
        <time>2018-10-21T07:34:19Z</time>
      </trkpt>
      <trkpt lat="46.4168" lon="2.9669">
        <ele>374.5</ele>
        <time>2018-10-21T07:34:21Z</time>
      </trkpt>
      <trkpt lat="46.41674" lon="2.96692">
        <ele>375.1</ele>
        <time>2018-10-21T07:34:23Z</time>
      </trkpt>
      <trkpt lat="46.41668" lon="2.96693">
        <ele>375.9</ele>
        <time>2018-10-21T07:34:25Z</time>
      </trkpt>
      <trkpt lat="46.41661" lon="2.96693">
        <ele>376.1</ele>
        <time>2018-10-21T07:34:27Z</time>
      </trkpt>
      <trkpt lat="46.41654" lon="2.96693">
        <ele>376.5</ele>
        <time>2018-10-21T07:34:29Z</time>
      </trkpt>
      <trkpt lat="46.41647" lon="2.96693">
        <ele>377</ele>
        <time>2018-10-21T07:34:31Z</time>
      </trkpt>
      <trkpt lat="46.41644" lon="2.96693">
        <ele>376.8</ele>
        <time>2018-10-21T07:34:32Z</time>
      </trkpt>
      <trkpt lat="46.41633" lon="2.96694">
        <ele>376.8</ele>
        <time>2018-10-21T07:34:35Z</time>
      </trkpt>
      <trkpt lat="46.41626" lon="2.96693">
        <ele>377.8</ele>
        <time>2018-10-21T07:34:37Z</time>
      </trkpt>
      <trkpt lat="46.4162" lon="2.96689">
        <ele>378.2</ele>
        <time>2018-10-21T07:34:39Z</time>
      </trkpt>
      <trkpt lat="46.41615" lon="2.96683">
        <ele>378.8</ele>
        <time>2018-10-21T07:34:41Z</time>
      </trkpt>
      <trkpt lat="46.4161" lon="2.96676">
        <ele>379.5</ele>
        <time>2018-10-21T07:34:43Z</time>
      </trkpt>
      <trkpt lat="46.41606" lon="2.96669">
        <ele>379.6</ele>
        <time>2018-10-21T07:34:45Z</time>
      </trkpt>
      <trkpt lat="46.41602" lon="2.9666">
        <ele>380</ele>
        <time>2018-10-21T07:34:47Z</time>
      </trkpt>
      <trkpt lat="46.41598" lon="2.96652">
        <ele>380.4</ele>
        <time>2018-10-21T07:34:49Z</time>
      </trkpt>
      <trkpt lat="46.41593" lon="2.96644">
        <ele>380.2</ele>
        <time>2018-10-21T07:34:51Z</time>
      </trkpt>
      <trkpt lat="46.41589" lon="2.96636">
        <ele>380.3</ele>
        <time>2018-10-21T07:34:53Z</time>
      </trkpt>
      <trkpt lat="46.41584" lon="2.96629">
        <ele>381</ele>
        <time>2018-10-21T07:34:55Z</time>
      </trkpt>
      <trkpt lat="46.4158" lon="2.96621">
        <ele>381.4</ele>
        <time>2018-10-21T07:34:57Z</time>
      </trkpt>
      <trkpt lat="46.41576" lon="2.96612">
        <ele>382</ele>
        <time>2018-10-21T07:34:59Z</time>
      </trkpt>
      <trkpt lat="46.41571" lon="2.96602">
        <ele>382.2</ele>
        <time>2018-10-21T07:35:01Z</time>
      </trkpt>
      <trkpt lat="46.41567" lon="2.96593">
        <ele>382.3</ele>
        <time>2018-10-21T07:35:03Z</time>
      </trkpt>
      <trkpt lat="46.41563" lon="2.96583">
        <ele>382.2</ele>
        <time>2018-10-21T07:35:05Z</time>
      </trkpt>
      <trkpt lat="46.41559" lon="2.96573">
        <ele>382.5</ele>
        <time>2018-10-21T07:35:07Z</time>
      </trkpt>
      <trkpt lat="46.41554" lon="2.96563">
        <ele>383.1</ele>
        <time>2018-10-21T07:35:09Z</time>
      </trkpt>
      <trkpt lat="46.41551" lon="2.96558">
        <ele>382.7</ele>
        <time>2018-10-21T07:35:10Z</time>
      </trkpt>
      <trkpt lat="46.41548" lon="2.96552">
        <ele>382.5</ele>
        <time>2018-10-21T07:35:11Z</time>
      </trkpt>
      <trkpt lat="46.41546" lon="2.96547">
        <ele>382.5</ele>
        <time>2018-10-21T07:35:12Z</time>
      </trkpt>
      <trkpt lat="46.41543" lon="2.96542">
        <ele>382.5</ele>
        <time>2018-10-21T07:35:13Z</time>
      </trkpt>
      <trkpt lat="46.4154" lon="2.96537">
        <ele>382.7</ele>
        <time>2018-10-21T07:35:14Z</time>
      </trkpt>
      <trkpt lat="46.41537" lon="2.96532">
        <ele>382.9</ele>
        <time>2018-10-21T07:35:15Z</time>
      </trkpt>
      <trkpt lat="46.41534" lon="2.96527">
        <ele>383</ele>
        <time>2018-10-21T07:35:16Z</time>
      </trkpt>
      <trkpt lat="46.41532" lon="2.96521">
        <ele>383.2</ele>
        <time>2018-10-21T07:35:17Z</time>
      </trkpt>
      <trkpt lat="46.41526" lon="2.96511">
        <ele>383.2</ele>
        <time>2018-10-21T07:35:19Z</time>
      </trkpt>
      <trkpt lat="46.41523" lon="2.96506">
        <ele>383.1</ele>
        <time>2018-10-21T07:35:20Z</time>
      </trkpt>
      <trkpt lat="46.41521" lon="2.965">
        <ele>383</ele>
        <time>2018-10-21T07:35:21Z</time>
      </trkpt>
      <trkpt lat="46.41518" lon="2.96495">
        <ele>382.7</ele>
        <time>2018-10-21T07:35:22Z</time>
      </trkpt>
      <trkpt lat="46.41512" lon="2.96485">
        <ele>382.7</ele>
        <time>2018-10-21T07:35:24Z</time>
      </trkpt>
      <trkpt lat="46.4151" lon="2.9648">
        <ele>382.8</ele>
        <time>2018-10-21T07:35:25Z</time>
      </trkpt>
      <trkpt lat="46.41506" lon="2.96473">
        <ele>383.3</ele>
        <time>2018-10-21T07:35:26Z</time>
      </trkpt>
      <trkpt lat="46.41501" lon="2.96463">
        <ele>384</ele>
        <time>2018-10-21T07:35:28Z</time>
      </trkpt>
      <trkpt lat="46.41496" lon="2.96453">
        <ele>383.9</ele>
        <time>2018-10-21T07:35:30Z</time>
      </trkpt>
      <trkpt lat="46.41491" lon="2.96443">
        <ele>383.6</ele>
        <time>2018-10-21T07:35:32Z</time>
      </trkpt>
      <trkpt lat="46.41488" lon="2.96438">
        <ele>383.5</ele>
        <time>2018-10-21T07:35:33Z</time>
      </trkpt>
      <trkpt lat="46.41483" lon="2.9642">
        <ele>383.7</ele>
        <time>2018-10-21T07:35:36Z</time>
      </trkpt>
      <trkpt lat="46.4148" lon="2.96409">
        <ele>384.2</ele>
        <time>2018-10-21T07:35:38Z</time>
      </trkpt>
      <trkpt lat="46.41477" lon="2.96397">
        <ele>384.6</ele>
        <time>2018-10-21T07:35:40Z</time>
      </trkpt>
      <trkpt lat="46.41474" lon="2.96386">
        <ele>384.7</ele>
        <time>2018-10-21T07:35:42Z</time>
      </trkpt>
      <trkpt lat="46.4147" lon="2.96375">
        <ele>385.6</ele>
        <time>2018-10-21T07:35:44Z</time>
      </trkpt>
      <trkpt lat="46.41465" lon="2.96366">
        <ele>385.4</ele>
        <time>2018-10-21T07:35:46Z</time>
      </trkpt>
      <trkpt lat="46.41461" lon="2.96355">
        <ele>385.3</ele>
        <time>2018-10-21T07:35:48Z</time>
      </trkpt>
      <trkpt lat="46.41456" lon="2.96344">
        <ele>385.5</ele>
        <time>2018-10-21T07:35:50Z</time>
      </trkpt>
      <trkpt lat="46.41452" lon="2.96334">
        <ele>385.9</ele>
        <time>2018-10-21T07:35:52Z</time>
      </trkpt>
      <trkpt lat="46.41447" lon="2.96324">
        <ele>385.8</ele>
        <time>2018-10-21T07:35:54Z</time>
      </trkpt>
      <trkpt lat="46.41441" lon="2.96316">
        <ele>386</ele>
        <time>2018-10-21T07:35:56Z</time>
      </trkpt>
      <trkpt lat="46.41433" lon="2.96311">
        <ele>386.4</ele>
        <time>2018-10-21T07:35:58Z</time>
      </trkpt>
      <trkpt lat="46.41425" lon="2.96308">
        <ele>386.8</ele>
        <time>2018-10-21T07:36:00Z</time>
      </trkpt>
      <trkpt lat="46.41416" lon="2.96305">
        <ele>387.1</ele>
        <time>2018-10-21T07:36:02Z</time>
      </trkpt>
      <trkpt lat="46.41408" lon="2.96303">
        <ele>387.7</ele>
        <time>2018-10-21T07:36:04Z</time>
      </trkpt>
      <trkpt lat="46.41399" lon="2.963">
        <ele>388.5</ele>
        <time>2018-10-21T07:36:06Z</time>
      </trkpt>
      <trkpt lat="46.41392" lon="2.96296">
        <ele>388.8</ele>
        <time>2018-10-21T07:36:08Z</time>
      </trkpt>
      <trkpt lat="46.41385" lon="2.96293">
        <ele>388.8</ele>
        <time>2018-10-21T07:36:10Z</time>
      </trkpt>
      <trkpt lat="46.41378" lon="2.96294">
        <ele>388.9</ele>
        <time>2018-10-21T07:36:12Z</time>
      </trkpt>
      <trkpt lat="46.41374" lon="2.96306">
        <ele>390</ele>
        <time>2018-10-21T07:36:15Z</time>
      </trkpt>
      <trkpt lat="46.41371" lon="2.96314">
        <ele>390</ele>
        <time>2018-10-21T07:36:17Z</time>
      </trkpt>
      <trkpt lat="46.41368" lon="2.96323">
        <ele>390.2</ele>
        <time>2018-10-21T07:36:19Z</time>
      </trkpt>
      <trkpt lat="46.41365" lon="2.96332">
        <ele>390.5</ele>
        <time>2018-10-21T07:36:21Z</time>
      </trkpt>
      <trkpt lat="46.41362" lon="2.96341">
        <ele>390.5</ele>
        <time>2018-10-21T07:36:23Z</time>
      </trkpt>
      <trkpt lat="46.4136" lon="2.96352">
        <ele>390.4</ele>
        <time>2018-10-21T07:36:25Z</time>
      </trkpt>
      <trkpt lat="46.41358" lon="2.96363">
        <ele>391.2</ele>
        <time>2018-10-21T07:36:27Z</time>
      </trkpt>
      <trkpt lat="46.41359" lon="2.96375">
        <ele>391.4</ele>
        <time>2018-10-21T07:36:29Z</time>
      </trkpt>
      <trkpt lat="46.4136" lon="2.96387">
        <ele>391.7</ele>
        <time>2018-10-21T07:36:31Z</time>
      </trkpt>
      <trkpt lat="46.41361" lon="2.96398">
        <ele>391.7</ele>
        <time>2018-10-21T07:36:33Z</time>
      </trkpt>
      <trkpt lat="46.41362" lon="2.96404">
        <ele>391.7</ele>
        <time>2018-10-21T07:36:34Z</time>
      </trkpt>
      <trkpt lat="46.41366" lon="2.96422">
        <ele>391.8</ele>
        <time>2018-10-21T07:36:37Z</time>
      </trkpt>
      <trkpt lat="46.41368" lon="2.96433">
        <ele>391.7</ele>
        <time>2018-10-21T07:36:39Z</time>
      </trkpt>
      <trkpt lat="46.41371" lon="2.96445">
        <ele>391.1</ele>
        <time>2018-10-21T07:36:41Z</time>
      </trkpt>
      <trkpt lat="46.41374" lon="2.96458">
        <ele>391.1</ele>
        <time>2018-10-21T07:36:43Z</time>
      </trkpt>
      <trkpt lat="46.41375" lon="2.96464">
        <ele>391.2</ele>
        <time>2018-10-21T07:36:44Z</time>
      </trkpt>
      <trkpt lat="46.41378" lon="2.96476">
        <ele>391.3</ele>
        <time>2018-10-21T07:36:46Z</time>
      </trkpt>
      <trkpt lat="46.41381" lon="2.96488">
        <ele>391.1</ele>
        <time>2018-10-21T07:36:48Z</time>
      </trkpt>
      <trkpt lat="46.41382" lon="2.96494">
        <ele>391</ele>
        <time>2018-10-21T07:36:49Z</time>
      </trkpt>
      <trkpt lat="46.41383" lon="2.96501">
        <ele>390.8</ele>
        <time>2018-10-21T07:36:50Z</time>
      </trkpt>
      <trkpt lat="46.41384" lon="2.96507">
        <ele>390.7</ele>
        <time>2018-10-21T07:36:51Z</time>
      </trkpt>
      <trkpt lat="46.41385" lon="2.96514">
        <ele>390.5</ele>
        <time>2018-10-21T07:36:52Z</time>
      </trkpt>
      <trkpt lat="46.41386" lon="2.9652">
        <ele>390.3</ele>
        <time>2018-10-21T07:36:53Z</time>
      </trkpt>
      <trkpt lat="46.41388" lon="2.96526">
        <ele>390.2</ele>
        <time>2018-10-21T07:36:54Z</time>
      </trkpt>
      <trkpt lat="46.41388" lon="2.96533">
        <ele>390.2</ele>
        <time>2018-10-21T07:36:55Z</time>
      </trkpt>
      <trkpt lat="46.41389" lon="2.9654">
        <ele>390.2</ele>
        <time>2018-10-21T07:36:56Z</time>
      </trkpt>
      <trkpt lat="46.4139" lon="2.96547">
        <ele>390.4</ele>
        <time>2018-10-21T07:36:57Z</time>
      </trkpt>
      <trkpt lat="46.4139" lon="2.96554">
        <ele>390.5</ele>
        <time>2018-10-21T07:36:58Z</time>
      </trkpt>
      <trkpt lat="46.4139" lon="2.96561">
        <ele>390.4</ele>
        <time>2018-10-21T07:36:59Z</time>
      </trkpt>
      <trkpt lat="46.41391" lon="2.96574">
        <ele>390.3</ele>
        <time>2018-10-21T07:37:01Z</time>
      </trkpt>
      <trkpt lat="46.41393" lon="2.96586">
        <ele>390.6</ele>
        <time>2018-10-21T07:37:03Z</time>
      </trkpt>
      <trkpt lat="46.41395" lon="2.96599">
        <ele>390.7</ele>
        <time>2018-10-21T07:37:05Z</time>
      </trkpt>
      <trkpt lat="46.41397" lon="2.96611">
        <ele>390.4</ele>
        <time>2018-10-21T07:37:07Z</time>
      </trkpt>
      <trkpt lat="46.414" lon="2.96623">
        <ele>390.5</ele>
        <time>2018-10-21T07:37:09Z</time>
      </trkpt>
      <trkpt lat="46.41403" lon="2.96636">
        <ele>391</ele>
        <time>2018-10-21T07:37:11Z</time>
      </trkpt>
      <trkpt lat="46.41404" lon="2.96642">
        <ele>391.3</ele>
        <time>2018-10-21T07:37:12Z</time>
      </trkpt>
      <trkpt lat="46.41406" lon="2.96655">
        <ele>391.1</ele>
        <time>2018-10-21T07:37:14Z</time>
      </trkpt>
      <trkpt lat="46.41408" lon="2.96667">
        <ele>391</ele>
        <time>2018-10-21T07:37:16Z</time>
      </trkpt>
      <trkpt lat="46.41409" lon="2.96679">
        <ele>391.6</ele>
        <time>2018-10-21T07:37:18Z</time>
      </trkpt>
      <trkpt lat="46.41409" lon="2.9669">
        <ele>392.3</ele>
        <time>2018-10-21T07:37:20Z</time>
      </trkpt>
      <trkpt lat="46.41407" lon="2.96701">
        <ele>392.7</ele>
        <time>2018-10-21T07:37:22Z</time>
      </trkpt>
      <trkpt lat="46.41401" lon="2.96709">
        <ele>392.2</ele>
        <time>2018-10-21T07:37:24Z</time>
      </trkpt>
      <trkpt lat="46.41394" lon="2.96714">
        <ele>392.3</ele>
        <time>2018-10-21T07:37:26Z</time>
      </trkpt>
      <trkpt lat="46.41387" lon="2.96719">
        <ele>392.2</ele>
        <time>2018-10-21T07:37:28Z</time>
      </trkpt>
      <trkpt lat="46.4138" lon="2.96724">
        <ele>392.3</ele>
        <time>2018-10-21T07:37:30Z</time>
      </trkpt>
      <trkpt lat="46.41373" lon="2.9673">
        <ele>392.5</ele>
        <time>2018-10-21T07:37:32Z</time>
      </trkpt>
      <trkpt lat="46.41366" lon="2.96737">
        <ele>392.4</ele>
        <time>2018-10-21T07:37:34Z</time>
      </trkpt>
      <trkpt lat="46.41363" lon="2.9674">
        <ele>392.5</ele>
        <time>2018-10-21T07:37:35Z</time>
      </trkpt>
      <trkpt lat="46.41355" lon="2.96752">
        <ele>392.7</ele>
        <time>2018-10-21T07:37:38Z</time>
      </trkpt>
      <trkpt lat="46.41349" lon="2.96758">
        <ele>393</ele>
        <time>2018-10-21T07:37:40Z</time>
      </trkpt>
      <trkpt lat="46.41344" lon="2.96764">
        <ele>393.3</ele>
        <time>2018-10-21T07:37:42Z</time>
      </trkpt>
      <trkpt lat="46.41338" lon="2.96771">
        <ele>393.7</ele>
        <time>2018-10-21T07:37:44Z</time>
      </trkpt>
      <trkpt lat="46.41332" lon="2.96779">
        <ele>394</ele>
        <time>2018-10-21T07:37:46Z</time>
      </trkpt>
      <trkpt lat="46.41327" lon="2.96786">
        <ele>394</ele>
        <time>2018-10-21T07:37:48Z</time>
      </trkpt>
      <trkpt lat="46.41322" lon="2.96792">
        <ele>394.3</ele>
        <time>2018-10-21T07:37:50Z</time>
      </trkpt>
      <trkpt lat="46.41317" lon="2.96799">
        <ele>394.3</ele>
        <time>2018-10-21T07:37:52Z</time>
      </trkpt>
      <trkpt lat="46.41311" lon="2.96805">
        <ele>394.5</ele>
        <time>2018-10-21T07:37:54Z</time>
      </trkpt>
      <trkpt lat="46.41305" lon="2.96812">
        <ele>395.2</ele>
        <time>2018-10-21T07:37:56Z</time>
      </trkpt>
      <trkpt lat="46.41299" lon="2.96819">
        <ele>395.8</ele>
        <time>2018-10-21T07:37:58Z</time>
      </trkpt>
      <trkpt lat="46.41294" lon="2.96824">
        <ele>395.8</ele>
        <time>2018-10-21T07:38:00Z</time>
      </trkpt>
      <trkpt lat="46.41289" lon="2.96831">
        <ele>395.9</ele>
        <time>2018-10-21T07:38:02Z</time>
      </trkpt>
      <trkpt lat="46.41284" lon="2.9684">
        <ele>395.9</ele>
        <time>2018-10-21T07:38:04Z</time>
      </trkpt>
      <trkpt lat="46.41279" lon="2.96848">
        <ele>395.9</ele>
        <time>2018-10-21T07:38:06Z</time>
      </trkpt>
      <trkpt lat="46.41274" lon="2.96857">
        <ele>396.1</ele>
        <time>2018-10-21T07:38:08Z</time>
      </trkpt>
      <trkpt lat="46.41268" lon="2.96864">
        <ele>396.5</ele>
        <time>2018-10-21T07:38:10Z</time>
      </trkpt>
      <trkpt lat="46.41263" lon="2.96873">
        <ele>396.5</ele>
        <time>2018-10-21T07:38:12Z</time>
      </trkpt>
      <trkpt lat="46.41257" lon="2.96881">
        <ele>396.5</ele>
        <time>2018-10-21T07:38:14Z</time>
      </trkpt>
      <trkpt lat="46.41251" lon="2.9689">
        <ele>397</ele>
        <time>2018-10-21T07:38:16Z</time>
      </trkpt>
      <trkpt lat="46.41245" lon="2.96898">
        <ele>397.1</ele>
        <time>2018-10-21T07:38:18Z</time>
      </trkpt>
      <trkpt lat="46.41238" lon="2.96907">
        <ele>397</ele>
        <time>2018-10-21T07:38:20Z</time>
      </trkpt>
      <trkpt lat="46.41232" lon="2.96915">
        <ele>396.9</ele>
        <time>2018-10-21T07:38:22Z</time>
      </trkpt>
      <trkpt lat="46.41226" lon="2.96923">
        <ele>397.4</ele>
        <time>2018-10-21T07:38:24Z</time>
      </trkpt>
      <trkpt lat="46.4122" lon="2.96931">
        <ele>397.6</ele>
        <time>2018-10-21T07:38:26Z</time>
      </trkpt>
      <trkpt lat="46.41213" lon="2.96939">
        <ele>397.7</ele>
        <time>2018-10-21T07:38:28Z</time>
      </trkpt>
      <trkpt lat="46.41207" lon="2.96947">
        <ele>397.7</ele>
        <time>2018-10-21T07:38:30Z</time>
      </trkpt>
      <trkpt lat="46.412" lon="2.96955">
        <ele>397.8</ele>
        <time>2018-10-21T07:38:32Z</time>
      </trkpt>
      <trkpt lat="46.41193" lon="2.96963">
        <ele>398.2</ele>
        <time>2018-10-21T07:38:34Z</time>
      </trkpt>
      <trkpt lat="46.41187" lon="2.9697">
        <ele>398.8</ele>
        <time>2018-10-21T07:38:36Z</time>
      </trkpt>
      <trkpt lat="46.41183" lon="2.96974">
        <ele>398.9</ele>
        <time>2018-10-21T07:38:37Z</time>
      </trkpt>
      <trkpt lat="46.41173" lon="2.96983">
        <ele>398.8</ele>
        <time>2018-10-21T07:38:40Z</time>
      </trkpt>
      <trkpt lat="46.41166" lon="2.96989">
        <ele>398.6</ele>
        <time>2018-10-21T07:38:42Z</time>
      </trkpt>
      <trkpt lat="46.41158" lon="2.96995">
        <ele>399.2</ele>
        <time>2018-10-21T07:38:44Z</time>
      </trkpt>
      <trkpt lat="46.41151" lon="2.97002">
        <ele>399.7</ele>
        <time>2018-10-21T07:38:46Z</time>
      </trkpt>
      <trkpt lat="46.41144" lon="2.97008">
        <ele>399.8</ele>
        <time>2018-10-21T07:38:48Z</time>
      </trkpt>
      <trkpt lat="46.41137" lon="2.97015">
        <ele>399.3</ele>
        <time>2018-10-21T07:38:50Z</time>
      </trkpt>
      <trkpt lat="46.4113" lon="2.97023">
        <ele>399.7</ele>
        <time>2018-10-21T07:38:52Z</time>
      </trkpt>
      <trkpt lat="46.41123" lon="2.9703">
        <ele>399.6</ele>
        <time>2018-10-21T07:38:54Z</time>
      </trkpt>
      <trkpt lat="46.41116" lon="2.97038">
        <ele>399.3</ele>
        <time>2018-10-21T07:38:56Z</time>
      </trkpt>
      <trkpt lat="46.41109" lon="2.97046">
        <ele>399.3</ele>
        <time>2018-10-21T07:38:58Z</time>
      </trkpt>
      <trkpt lat="46.41103" lon="2.97053">
        <ele>399.4</ele>
        <time>2018-10-21T07:39:00Z</time>
      </trkpt>
      <trkpt lat="46.41096" lon="2.9706">
        <ele>399.5</ele>
        <time>2018-10-21T07:39:02Z</time>
      </trkpt>
      <trkpt lat="46.41089" lon="2.97067">
        <ele>399.6</ele>
        <time>2018-10-21T07:39:04Z</time>
      </trkpt>
      <trkpt lat="46.41083" lon="2.97074">
        <ele>399.9</ele>
        <time>2018-10-21T07:39:06Z</time>
      </trkpt>
      <trkpt lat="46.41076" lon="2.9708">
        <ele>400.5</ele>
        <time>2018-10-21T07:39:08Z</time>
      </trkpt>
      <trkpt lat="46.41069" lon="2.97087">
        <ele>400.9</ele>
        <time>2018-10-21T07:39:10Z</time>
      </trkpt>
      <trkpt lat="46.41062" lon="2.97093">
        <ele>400.9</ele>
        <time>2018-10-21T07:39:12Z</time>
      </trkpt>
      <trkpt lat="46.41055" lon="2.97099">
        <ele>401.1</ele>
        <time>2018-10-21T07:39:14Z</time>
      </trkpt>
      <trkpt lat="46.41049" lon="2.97106">
        <ele>402.2</ele>
        <time>2018-10-21T07:39:16Z</time>
      </trkpt>
      <trkpt lat="46.41042" lon="2.97114">
        <ele>402.3</ele>
        <time>2018-10-21T07:39:18Z</time>
      </trkpt>
      <trkpt lat="46.41036" lon="2.97122">
        <ele>402.2</ele>
        <time>2018-10-21T07:39:20Z</time>
      </trkpt>
      <trkpt lat="46.41029" lon="2.9713">
        <ele>402.1</ele>
        <time>2018-10-21T07:39:22Z</time>
      </trkpt>
      <trkpt lat="46.41023" lon="2.97139">
        <ele>402.3</ele>
        <time>2018-10-21T07:39:24Z</time>
      </trkpt>
      <trkpt lat="46.41019" lon="2.97143">
        <ele>402.5</ele>
        <time>2018-10-21T07:39:25Z</time>
      </trkpt>
      <trkpt lat="46.41012" lon="2.9715">
        <ele>402.2</ele>
        <time>2018-10-21T07:39:27Z</time>
      </trkpt>
      <trkpt lat="46.41004" lon="2.97157">
        <ele>401.9</ele>
        <time>2018-10-21T07:39:29Z</time>
      </trkpt>
      <trkpt lat="46.40997" lon="2.97163">
        <ele>401.8</ele>
        <time>2018-10-21T07:39:31Z</time>
      </trkpt>
      <trkpt lat="46.4099" lon="2.9717">
        <ele>401.9</ele>
        <time>2018-10-21T07:39:33Z</time>
      </trkpt>
      <trkpt lat="46.40986" lon="2.97174">
        <ele>401.9</ele>
        <time>2018-10-21T07:39:34Z</time>
      </trkpt>
      <trkpt lat="46.40982" lon="2.97177">
        <ele>401.9</ele>
        <time>2018-10-21T07:39:35Z</time>
      </trkpt>
      <trkpt lat="46.40978" lon="2.97181">
        <ele>401.7</ele>
        <time>2018-10-21T07:39:36Z</time>
      </trkpt>
      <trkpt lat="46.40974" lon="2.97184">
        <ele>401.6</ele>
        <time>2018-10-21T07:39:37Z</time>
      </trkpt>
      <trkpt lat="46.4097" lon="2.97187">
        <ele>401.5</ele>
        <time>2018-10-21T07:39:38Z</time>
      </trkpt>
      <trkpt lat="46.40966" lon="2.9719">
        <ele>401.1</ele>
        <time>2018-10-21T07:39:39Z</time>
      </trkpt>
      <trkpt lat="46.40962" lon="2.97193">
        <ele>400.8</ele>
        <time>2018-10-21T07:39:40Z</time>
      </trkpt>
      <trkpt lat="46.40957" lon="2.97196">
        <ele>400.6</ele>
        <time>2018-10-21T07:39:41Z</time>
      </trkpt>
      <trkpt lat="46.40953" lon="2.97199">
        <ele>400.4</ele>
        <time>2018-10-21T07:39:42Z</time>
      </trkpt>
      <trkpt lat="46.40949" lon="2.97202">
        <ele>400.3</ele>
        <time>2018-10-21T07:39:43Z</time>
      </trkpt>
      <trkpt lat="46.40944" lon="2.97205">
        <ele>400.5</ele>
        <time>2018-10-21T07:39:44Z</time>
      </trkpt>
      <trkpt lat="46.4094" lon="2.97208">
        <ele>400.7</ele>
        <time>2018-10-21T07:39:45Z</time>
      </trkpt>
      <trkpt lat="46.40936" lon="2.97211">
        <ele>400.5</ele>
        <time>2018-10-21T07:39:46Z</time>
      </trkpt>
      <trkpt lat="46.40931" lon="2.97214">
        <ele>400.3</ele>
        <time>2018-10-21T07:39:47Z</time>
      </trkpt>
      <trkpt lat="46.40927" lon="2.97216">
        <ele>400.5</ele>
        <time>2018-10-21T07:39:48Z</time>
      </trkpt>
      <trkpt lat="46.40922" lon="2.97219">
        <ele>400.7</ele>
        <time>2018-10-21T07:39:49Z</time>
      </trkpt>
      <trkpt lat="46.40918" lon="2.97222">
        <ele>400.9</ele>
        <time>2018-10-21T07:39:50Z</time>
      </trkpt>
      <trkpt lat="46.40913" lon="2.97225">
        <ele>400.8</ele>
        <time>2018-10-21T07:39:51Z</time>
      </trkpt>
      <trkpt lat="46.40909" lon="2.97227">
        <ele>400.8</ele>
        <time>2018-10-21T07:39:52Z</time>
      </trkpt>
      <trkpt lat="46.40905" lon="2.9723">
        <ele>400.7</ele>
        <time>2018-10-21T07:39:53Z</time>
      </trkpt>
      <trkpt lat="46.409" lon="2.97233">
        <ele>400.6</ele>
        <time>2018-10-21T07:39:54Z</time>
      </trkpt>
      <trkpt lat="46.40896" lon="2.97236">
        <ele>400.4</ele>
        <time>2018-10-21T07:39:55Z</time>
      </trkpt>
      <trkpt lat="46.40891" lon="2.97238">
        <ele>400.2</ele>
        <time>2018-10-21T07:39:56Z</time>
      </trkpt>
      <trkpt lat="46.40887" lon="2.97241">
        <ele>400.1</ele>
        <time>2018-10-21T07:39:57Z</time>
      </trkpt>
      <trkpt lat="46.40882" lon="2.97244">
        <ele>400.3</ele>
        <time>2018-10-21T07:39:58Z</time>
      </trkpt>
      <trkpt lat="46.40878" lon="2.97247">
        <ele>400.4</ele>
        <time>2018-10-21T07:39:59Z</time>
      </trkpt>
      <trkpt lat="46.40874" lon="2.9725">
        <ele>400.3</ele>
        <time>2018-10-21T07:40:00Z</time>
      </trkpt>
      <trkpt lat="46.4087" lon="2.97254">
        <ele>400.3</ele>
        <time>2018-10-21T07:40:01Z</time>
      </trkpt>
      <trkpt lat="46.40865" lon="2.97256">
        <ele>400.2</ele>
        <time>2018-10-21T07:40:02Z</time>
      </trkpt>
      <trkpt lat="46.4086" lon="2.97255">
        <ele>400.2</ele>
        <time>2018-10-21T07:40:03Z</time>
      </trkpt>
      <trkpt lat="46.40854" lon="2.97246">
        <ele>400.2</ele>
        <time>2018-10-21T07:40:05Z</time>
      </trkpt>
      <trkpt lat="46.40851" lon="2.9724">
        <ele>400.1</ele>
        <time>2018-10-21T07:40:06Z</time>
      </trkpt>
      <trkpt lat="46.40849" lon="2.97235">
        <ele>400.2</ele>
        <time>2018-10-21T07:40:07Z</time>
      </trkpt>
      <trkpt lat="46.40846" lon="2.97229">
        <ele>400.2</ele>
        <time>2018-10-21T07:40:08Z</time>
      </trkpt>
      <trkpt lat="46.40844" lon="2.97223">
        <ele>400.2</ele>
        <time>2018-10-21T07:40:09Z</time>
      </trkpt>
      <trkpt lat="46.40839" lon="2.97212">
        <ele>399.4</ele>
        <time>2018-10-21T07:40:11Z</time>
      </trkpt>
      <trkpt lat="46.40835" lon="2.97201">
        <ele>399.6</ele>
        <time>2018-10-21T07:40:13Z</time>
      </trkpt>
      <trkpt lat="46.40831" lon="2.9719">
        <ele>399.6</ele>
        <time>2018-10-21T07:40:15Z</time>
      </trkpt>
      <trkpt lat="46.40829" lon="2.97184">
        <ele>399.6</ele>
        <time>2018-10-21T07:40:16Z</time>
      </trkpt>
      <trkpt lat="46.40827" lon="2.97178">
        <ele>399.6</ele>
        <time>2018-10-21T07:40:17Z</time>
      </trkpt>
      <trkpt lat="46.40824" lon="2.97172">
        <ele>399.7</ele>
        <time>2018-10-21T07:40:18Z</time>
      </trkpt>
      <trkpt lat="46.40822" lon="2.97165">
        <ele>399.2</ele>
        <time>2018-10-21T07:40:19Z</time>
      </trkpt>
      <trkpt lat="46.40819" lon="2.97159">
        <ele>398.9</ele>
        <time>2018-10-21T07:40:20Z</time>
      </trkpt>
      <trkpt lat="46.40817" lon="2.97153">
        <ele>398.7</ele>
        <time>2018-10-21T07:40:21Z</time>
      </trkpt>
      <trkpt lat="46.40815" lon="2.97147">
        <ele>398.8</ele>
        <time>2018-10-21T07:40:22Z</time>
      </trkpt>
      <trkpt lat="46.40812" lon="2.9714">
        <ele>399</ele>
        <time>2018-10-21T07:40:23Z</time>
      </trkpt>
      <trkpt lat="46.4081" lon="2.97134">
        <ele>399.2</ele>
        <time>2018-10-21T07:40:24Z</time>
      </trkpt>
      <trkpt lat="46.40808" lon="2.97128">
        <ele>399.3</ele>
        <time>2018-10-21T07:40:25Z</time>
      </trkpt>
      <trkpt lat="46.40806" lon="2.97122">
        <ele>399.2</ele>
        <time>2018-10-21T07:40:26Z</time>
      </trkpt>
      <trkpt lat="46.40804" lon="2.97115">
        <ele>399.2</ele>
        <time>2018-10-21T07:40:27Z</time>
      </trkpt>
      <trkpt lat="46.40802" lon="2.97109">
        <ele>399.1</ele>
        <time>2018-10-21T07:40:28Z</time>
      </trkpt>
      <trkpt lat="46.408" lon="2.97102">
        <ele>399.1</ele>
        <time>2018-10-21T07:40:29Z</time>
      </trkpt>
      <trkpt lat="46.40798" lon="2.97096">
        <ele>399</ele>
        <time>2018-10-21T07:40:30Z</time>
      </trkpt>
      <trkpt lat="46.40796" lon="2.9709">
        <ele>398.8</ele>
        <time>2018-10-21T07:40:31Z</time>
      </trkpt>
      <trkpt lat="46.40794" lon="2.97083">
        <ele>398.7</ele>
        <time>2018-10-21T07:40:32Z</time>
      </trkpt>
      <trkpt lat="46.40792" lon="2.97077">
        <ele>398.6</ele>
        <time>2018-10-21T07:40:33Z</time>
      </trkpt>
      <trkpt lat="46.40789" lon="2.9707">
        <ele>398.5</ele>
        <time>2018-10-21T07:40:34Z</time>
      </trkpt>
      <trkpt lat="46.40787" lon="2.97064">
        <ele>398.4</ele>
        <time>2018-10-21T07:40:35Z</time>
      </trkpt>
      <trkpt lat="46.40785" lon="2.97058">
        <ele>398.6</ele>
        <time>2018-10-21T07:40:36Z</time>
      </trkpt>
      <trkpt lat="46.40783" lon="2.97051">
        <ele>398.8</ele>
        <time>2018-10-21T07:40:37Z</time>
      </trkpt>
      <trkpt lat="46.40781" lon="2.97045">
        <ele>398.6</ele>
        <time>2018-10-21T07:40:38Z</time>
      </trkpt>
      <trkpt lat="46.40779" lon="2.97038">
        <ele>398.4</ele>
        <time>2018-10-21T07:40:39Z</time>
      </trkpt>
      <trkpt lat="46.40777" lon="2.97032">
        <ele>398.2</ele>
        <time>2018-10-21T07:40:40Z</time>
      </trkpt>
      <trkpt lat="46.40775" lon="2.97025">
        <ele>398.3</ele>
        <time>2018-10-21T07:40:41Z</time>
      </trkpt>
      <trkpt lat="46.40773" lon="2.97019">
        <ele>398.4</ele>
        <time>2018-10-21T07:40:42Z</time>
      </trkpt>
      <trkpt lat="46.4077" lon="2.97013">
        <ele>398.2</ele>
        <time>2018-10-21T07:40:43Z</time>
      </trkpt>
      <trkpt lat="46.40768" lon="2.97006">
        <ele>398</ele>
        <time>2018-10-21T07:40:44Z</time>
      </trkpt>
      <trkpt lat="46.40765" lon="2.97">
        <ele>398.3</ele>
        <time>2018-10-21T07:40:45Z</time>
      </trkpt>
      <trkpt lat="46.40762" lon="2.96993">
        <ele>398.6</ele>
        <time>2018-10-21T07:40:46Z</time>
      </trkpt>
      <trkpt lat="46.4076" lon="2.96987">
        <ele>398.8</ele>
        <time>2018-10-21T07:40:47Z</time>
      </trkpt>
      <trkpt lat="46.40756" lon="2.9698">
        <ele>398.4</ele>
        <time>2018-10-21T07:40:48Z</time>
      </trkpt>
      <trkpt lat="46.40753" lon="2.96974">
        <ele>398.1</ele>
        <time>2018-10-21T07:40:49Z</time>
      </trkpt>
      <trkpt lat="46.4075" lon="2.96968">
        <ele>397.6</ele>
        <time>2018-10-21T07:40:50Z</time>
      </trkpt>
      <trkpt lat="46.40746" lon="2.96962">
        <ele>397.2</ele>
        <time>2018-10-21T07:40:51Z</time>
      </trkpt>
      <trkpt lat="46.40743" lon="2.96956">
        <ele>396.9</ele>
        <time>2018-10-21T07:40:52Z</time>
      </trkpt>
      <trkpt lat="46.40739" lon="2.9695">
        <ele>397.1</ele>
        <time>2018-10-21T07:40:53Z</time>
      </trkpt>
      <trkpt lat="46.40736" lon="2.96944">
        <ele>397.2</ele>
        <time>2018-10-21T07:40:54Z</time>
      </trkpt>
      <trkpt lat="46.40732" lon="2.96938">
        <ele>397</ele>
        <time>2018-10-21T07:40:55Z</time>
      </trkpt>
      <trkpt lat="46.40728" lon="2.96933">
        <ele>396.9</ele>
        <time>2018-10-21T07:40:56Z</time>
      </trkpt>
      <trkpt lat="46.40724" lon="2.96927">
        <ele>396.8</ele>
        <time>2018-10-21T07:40:57Z</time>
      </trkpt>
      <trkpt lat="46.4072" lon="2.96921">
        <ele>396.7</ele>
        <time>2018-10-21T07:40:58Z</time>
      </trkpt>
      <trkpt lat="46.40716" lon="2.96916">
        <ele>396.6</ele>
        <time>2018-10-21T07:40:59Z</time>
      </trkpt>
      <trkpt lat="46.40713" lon="2.96911">
        <ele>396.5</ele>
        <time>2018-10-21T07:41:00Z</time>
      </trkpt>
      <trkpt lat="46.40709" lon="2.96905">
        <ele>396.5</ele>
        <time>2018-10-21T07:41:01Z</time>
      </trkpt>
      <trkpt lat="46.40705" lon="2.969">
        <ele>396.4</ele>
        <time>2018-10-21T07:41:02Z</time>
      </trkpt>
      <trkpt lat="46.40701" lon="2.96895">
        <ele>396.3</ele>
        <time>2018-10-21T07:41:03Z</time>
      </trkpt>
      <trkpt lat="46.40697" lon="2.96891">
        <ele>396.5</ele>
        <time>2018-10-21T07:41:04Z</time>
      </trkpt>
      <trkpt lat="46.40693" lon="2.96886">
        <ele>396.7</ele>
        <time>2018-10-21T07:41:05Z</time>
      </trkpt>
      <trkpt lat="46.40689" lon="2.96881">
        <ele>396.9</ele>
        <time>2018-10-21T07:41:06Z</time>
      </trkpt>
      <trkpt lat="46.40685" lon="2.96876">
        <ele>396.8</ele>
        <time>2018-10-21T07:41:07Z</time>
      </trkpt>
      <trkpt lat="46.40681" lon="2.96871">
        <ele>396.7</ele>
        <time>2018-10-21T07:41:08Z</time>
      </trkpt>
      <trkpt lat="46.40677" lon="2.96865">
        <ele>396.8</ele>
        <time>2018-10-21T07:41:09Z</time>
      </trkpt>
      <trkpt lat="46.40674" lon="2.9686">
        <ele>396.8</ele>
        <time>2018-10-21T07:41:10Z</time>
      </trkpt>
      <trkpt lat="46.4067" lon="2.96855">
        <ele>396.9</ele>
        <time>2018-10-21T07:41:11Z</time>
      </trkpt>
      <trkpt lat="46.40667" lon="2.9685">
        <ele>396.5</ele>
        <time>2018-10-21T07:41:12Z</time>
      </trkpt>
      <trkpt lat="46.40664" lon="2.96844">
        <ele>396.3</ele>
        <time>2018-10-21T07:41:13Z</time>
      </trkpt>
      <trkpt lat="46.4066" lon="2.96839">
        <ele>396.2</ele>
        <time>2018-10-21T07:41:14Z</time>
      </trkpt>
      <trkpt lat="46.40657" lon="2.96833">
        <ele>396.2</ele>
        <time>2018-10-21T07:41:15Z</time>
      </trkpt>
      <trkpt lat="46.40654" lon="2.96827">
        <ele>396.6</ele>
        <time>2018-10-21T07:41:16Z</time>
      </trkpt>
      <trkpt lat="46.40652" lon="2.96821">
        <ele>396.9</ele>
        <time>2018-10-21T07:41:17Z</time>
      </trkpt>
      <trkpt lat="46.40649" lon="2.96815">
        <ele>397.2</ele>
        <time>2018-10-21T07:41:18Z</time>
      </trkpt>
      <trkpt lat="46.40647" lon="2.96809">
        <ele>397</ele>
        <time>2018-10-21T07:41:19Z</time>
      </trkpt>
      <trkpt lat="46.40644" lon="2.96802">
        <ele>397</ele>
        <time>2018-10-21T07:41:20Z</time>
      </trkpt>
      <trkpt lat="46.40642" lon="2.96796">
        <ele>396.8</ele>
        <time>2018-10-21T07:41:21Z</time>
      </trkpt>
      <trkpt lat="46.40639" lon="2.96789">
        <ele>396.7</ele>
        <time>2018-10-21T07:41:22Z</time>
      </trkpt>
      <trkpt lat="46.40636" lon="2.96783">
        <ele>396.6</ele>
        <time>2018-10-21T07:41:23Z</time>
      </trkpt>
      <trkpt lat="46.40632" lon="2.96777">
        <ele>396.7</ele>
        <time>2018-10-21T07:41:24Z</time>
      </trkpt>
      <trkpt lat="46.40628" lon="2.96771">
        <ele>396.8</ele>
        <time>2018-10-21T07:41:25Z</time>
      </trkpt>
      <trkpt lat="46.40624" lon="2.96766">
        <ele>396.7</ele>
        <time>2018-10-21T07:41:26Z</time>
      </trkpt>
      <trkpt lat="46.40619" lon="2.96762">
        <ele>396.6</ele>
        <time>2018-10-21T07:41:27Z</time>
      </trkpt>
      <trkpt lat="46.40615" lon="2.96757">
        <ele>396.5</ele>
        <time>2018-10-21T07:41:28Z</time>
      </trkpt>
      <trkpt lat="46.40612" lon="2.96751">
        <ele>396.5</ele>
        <time>2018-10-21T07:41:29Z</time>
      </trkpt>
      <trkpt lat="46.40609" lon="2.96745">
        <ele>396.4</ele>
        <time>2018-10-21T07:41:30Z</time>
      </trkpt>
      <trkpt lat="46.40607" lon="2.96738">
        <ele>396.7</ele>
        <time>2018-10-21T07:41:31Z</time>
      </trkpt>
      <trkpt lat="46.40605" lon="2.96731">
        <ele>396.8</ele>
        <time>2018-10-21T07:41:32Z</time>
      </trkpt>
      <trkpt lat="46.40603" lon="2.96724">
        <ele>396.3</ele>
        <time>2018-10-21T07:41:33Z</time>
      </trkpt>
      <trkpt lat="46.40601" lon="2.96717">
        <ele>395.8</ele>
        <time>2018-10-21T07:41:34Z</time>
      </trkpt>
      <trkpt lat="46.406" lon="2.9671">
        <ele>395.9</ele>
        <time>2018-10-21T07:41:35Z</time>
      </trkpt>
      <trkpt lat="46.40598" lon="2.96703">
        <ele>395.9</ele>
        <time>2018-10-21T07:41:36Z</time>
      </trkpt>
      <trkpt lat="46.40595" lon="2.96696">
        <ele>395.9</ele>
        <time>2018-10-21T07:41:37Z</time>
      </trkpt>
      <trkpt lat="46.40592" lon="2.96691">
        <ele>396</ele>
        <time>2018-10-21T07:41:38Z</time>
      </trkpt>
      <trkpt lat="46.40588" lon="2.96687">
        <ele>396</ele>
        <time>2018-10-21T07:41:39Z</time>
      </trkpt>
      <trkpt lat="46.40584" lon="2.96684">
        <ele>396.2</ele>
        <time>2018-10-21T07:41:40Z</time>
      </trkpt>
      <trkpt lat="46.40579" lon="2.96682">
        <ele>396.3</ele>
        <time>2018-10-21T07:41:41Z</time>
      </trkpt>
      <trkpt lat="46.40574" lon="2.96681">
        <ele>396.4</ele>
        <time>2018-10-21T07:41:42Z</time>
      </trkpt>
      <trkpt lat="46.4057" lon="2.9668">
        <ele>396.4</ele>
        <time>2018-10-21T07:41:43Z</time>
      </trkpt>
      <trkpt lat="46.40565" lon="2.9668">
        <ele>396.4</ele>
        <time>2018-10-21T07:41:44Z</time>
      </trkpt>
      <trkpt lat="46.4056" lon="2.96681">
        <ele>396.4</ele>
        <time>2018-10-21T07:41:45Z</time>
      </trkpt>
      <trkpt lat="46.40552" lon="2.96682">
        <ele>396.6</ele>
        <time>2018-10-21T07:41:47Z</time>
      </trkpt>
      <trkpt lat="46.40543" lon="2.96683">
        <ele>396.9</ele>
        <time>2018-10-21T07:41:49Z</time>
      </trkpt>
      <trkpt lat="46.40534" lon="2.96684">
        <ele>396.5</ele>
        <time>2018-10-21T07:41:51Z</time>
      </trkpt>
      <trkpt lat="46.40526" lon="2.96685">
        <ele>397</ele>
        <time>2018-10-21T07:41:53Z</time>
      </trkpt>
      <trkpt lat="46.40518" lon="2.96687">
        <ele>397.5</ele>
        <time>2018-10-21T07:41:55Z</time>
      </trkpt>
      <trkpt lat="46.4051" lon="2.96689">
        <ele>397.5</ele>
        <time>2018-10-21T07:41:57Z</time>
      </trkpt>
      <trkpt lat="46.40502" lon="2.96691">
        <ele>397.6</ele>
        <time>2018-10-21T07:41:59Z</time>
      </trkpt>
      <trkpt lat="46.40495" lon="2.96693">
        <ele>397.8</ele>
        <time>2018-10-21T07:42:01Z</time>
      </trkpt>
      <trkpt lat="46.40488" lon="2.96696">
        <ele>397.9</ele>
        <time>2018-10-21T07:42:03Z</time>
      </trkpt>
      <trkpt lat="46.40482" lon="2.96699">
        <ele>397.8</ele>
        <time>2018-10-21T07:42:05Z</time>
      </trkpt>
      <trkpt lat="46.40477" lon="2.967">
        <ele>397.8</ele>
        <time>2018-10-21T07:42:06Z</time>
      </trkpt>
      <trkpt lat="46.40473" lon="2.96701">
        <ele>397.9</ele>
        <time>2018-10-21T07:42:07Z</time>
      </trkpt>
      <trkpt lat="46.40468" lon="2.96702">
        <ele>397.9</ele>
        <time>2018-10-21T07:42:08Z</time>
      </trkpt>
      <trkpt lat="46.40463" lon="2.96703">
        <ele>397.9</ele>
        <time>2018-10-21T07:42:09Z</time>
      </trkpt>
      <trkpt lat="46.40459" lon="2.96705">
        <ele>397.9</ele>
        <time>2018-10-21T07:42:10Z</time>
      </trkpt>
      <trkpt lat="46.40454" lon="2.96706">
        <ele>397.6</ele>
        <time>2018-10-21T07:42:11Z</time>
      </trkpt>
      <trkpt lat="46.40449" lon="2.96708">
        <ele>397.5</ele>
        <time>2018-10-21T07:42:12Z</time>
      </trkpt>
      <trkpt lat="46.40444" lon="2.96709">
        <ele>397.3</ele>
        <time>2018-10-21T07:42:13Z</time>
      </trkpt>
      <trkpt lat="46.40439" lon="2.96711">
        <ele>397.1</ele>
        <time>2018-10-21T07:42:14Z</time>
      </trkpt>
      <trkpt lat="46.40434" lon="2.96712">
        <ele>396.9</ele>
        <time>2018-10-21T07:42:15Z</time>
      </trkpt>
      <trkpt lat="46.40429" lon="2.96712">
        <ele>397</ele>
        <time>2018-10-21T07:42:16Z</time>
      </trkpt>
      <trkpt lat="46.40425" lon="2.96713">
        <ele>397</ele>
        <time>2018-10-21T07:42:17Z</time>
      </trkpt>
      <trkpt lat="46.4042" lon="2.96713">
        <ele>397.2</ele>
        <time>2018-10-21T07:42:18Z</time>
      </trkpt>
      <trkpt lat="46.40415" lon="2.96714">
        <ele>397.3</ele>
        <time>2018-10-21T07:42:19Z</time>
      </trkpt>
      <trkpt lat="46.4041" lon="2.96714">
        <ele>397.3</ele>
        <time>2018-10-21T07:42:20Z</time>
      </trkpt>
      <trkpt lat="46.40406" lon="2.96715">
        <ele>396.7</ele>
        <time>2018-10-21T07:42:21Z</time>
      </trkpt>
      <trkpt lat="46.40401" lon="2.96716">
        <ele>396.3</ele>
        <time>2018-10-21T07:42:22Z</time>
      </trkpt>
      <trkpt lat="46.40392" lon="2.96717">
        <ele>396.6</ele>
        <time>2018-10-21T07:42:24Z</time>
      </trkpt>
      <trkpt lat="46.40383" lon="2.96717">
        <ele>395.9</ele>
        <time>2018-10-21T07:42:26Z</time>
      </trkpt>
      <trkpt lat="46.40379" lon="2.96715">
        <ele>395.7</ele>
        <time>2018-10-21T07:42:27Z</time>
      </trkpt>
      <trkpt lat="46.40374" lon="2.96713">
        <ele>395.9</ele>
        <time>2018-10-21T07:42:28Z</time>
      </trkpt>
      <trkpt lat="46.4037" lon="2.96711">
        <ele>396</ele>
        <time>2018-10-21T07:42:29Z</time>
      </trkpt>
      <trkpt lat="46.40365" lon="2.96709">
        <ele>395.5</ele>
        <time>2018-10-21T07:42:30Z</time>
      </trkpt>
      <trkpt lat="46.40357" lon="2.96704">
        <ele>394.9</ele>
        <time>2018-10-21T07:42:32Z</time>
      </trkpt>
      <trkpt lat="46.4035" lon="2.96699">
        <ele>395.2</ele>
        <time>2018-10-21T07:42:34Z</time>
      </trkpt>
      <trkpt lat="46.40343" lon="2.96692">
        <ele>394.8</ele>
        <time>2018-10-21T07:42:36Z</time>
      </trkpt>
      <trkpt lat="46.40335" lon="2.96686">
        <ele>395.2</ele>
        <time>2018-10-21T07:42:38Z</time>
      </trkpt>
      <trkpt lat="46.40328" lon="2.9668">
        <ele>395.2</ele>
        <time>2018-10-21T07:42:40Z</time>
      </trkpt>
      <trkpt lat="46.4032" lon="2.96673">
        <ele>394.8</ele>
        <time>2018-10-21T07:42:42Z</time>
      </trkpt>
      <trkpt lat="46.40316" lon="2.9667">
        <ele>394.6</ele>
        <time>2018-10-21T07:42:43Z</time>
      </trkpt>
      <trkpt lat="46.40305" lon="2.9666">
        <ele>394.4</ele>
        <time>2018-10-21T07:42:46Z</time>
      </trkpt>
      <trkpt lat="46.40298" lon="2.96651">
        <ele>395.1</ele>
        <time>2018-10-21T07:42:48Z</time>
      </trkpt>
      <trkpt lat="46.40295" lon="2.96647">
        <ele>395.2</ele>
        <time>2018-10-21T07:42:49Z</time>
      </trkpt>
      <trkpt lat="46.4029" lon="2.96637">
        <ele>395.3</ele>
        <time>2018-10-21T07:42:51Z</time>
      </trkpt>
      <trkpt lat="46.40285" lon="2.96627">
        <ele>394.9</ele>
        <time>2018-10-21T07:42:53Z</time>
      </trkpt>
      <trkpt lat="46.40281" lon="2.96617">
        <ele>394.6</ele>
        <time>2018-10-21T07:42:55Z</time>
      </trkpt>
      <trkpt lat="46.40276" lon="2.96608">
        <ele>394.7</ele>
        <time>2018-10-21T07:42:57Z</time>
      </trkpt>
      <trkpt lat="46.40271" lon="2.96599">
        <ele>394.6</ele>
        <time>2018-10-21T07:42:59Z</time>
      </trkpt>
      <trkpt lat="46.40265" lon="2.9659">
        <ele>394.5</ele>
        <time>2018-10-21T07:43:01Z</time>
      </trkpt>
      <trkpt lat="46.40259" lon="2.96581">
        <ele>394.1</ele>
        <time>2018-10-21T07:43:03Z</time>
      </trkpt>
      <trkpt lat="46.40253" lon="2.96573">
        <ele>393.5</ele>
        <time>2018-10-21T07:43:05Z</time>
      </trkpt>
      <trkpt lat="46.40248" lon="2.96565">
        <ele>394.2</ele>
        <time>2018-10-21T07:43:07Z</time>
      </trkpt>
      <trkpt lat="46.40243" lon="2.96558">
        <ele>394.1</ele>
        <time>2018-10-21T07:43:09Z</time>
      </trkpt>
      <trkpt lat="46.40238" lon="2.96552">
        <ele>394.2</ele>
        <time>2018-10-21T07:43:11Z</time>
      </trkpt>
      <trkpt lat="46.40231" lon="2.96553">
        <ele>394.2</ele>
        <time>2018-10-21T07:43:13Z</time>
      </trkpt>
      <trkpt lat="46.40225" lon="2.96557">
        <ele>394.4</ele>
        <time>2018-10-21T07:43:15Z</time>
      </trkpt>
      <trkpt lat="46.40219" lon="2.96563">
        <ele>394.5</ele>
        <time>2018-10-21T07:43:17Z</time>
      </trkpt>
      <trkpt lat="46.40213" lon="2.96569">
        <ele>394.8</ele>
        <time>2018-10-21T07:43:19Z</time>
      </trkpt>
      <trkpt lat="46.40207" lon="2.96574">
        <ele>395.1</ele>
        <time>2018-10-21T07:43:21Z</time>
      </trkpt>
      <trkpt lat="46.402" lon="2.9658">
        <ele>395.1</ele>
        <time>2018-10-21T07:43:23Z</time>
      </trkpt>
      <trkpt lat="46.40194" lon="2.96586">
        <ele>395.6</ele>
        <time>2018-10-21T07:43:25Z</time>
      </trkpt>
      <trkpt lat="46.40187" lon="2.96592">
        <ele>396.5</ele>
        <time>2018-10-21T07:43:27Z</time>
      </trkpt>
      <trkpt lat="46.40181" lon="2.96598">
        <ele>397.2</ele>
        <time>2018-10-21T07:43:29Z</time>
      </trkpt>
      <trkpt lat="46.40175" lon="2.96604">
        <ele>397.2</ele>
        <time>2018-10-21T07:43:31Z</time>
      </trkpt>
      <trkpt lat="46.40168" lon="2.9661">
        <ele>397.1</ele>
        <time>2018-10-21T07:43:33Z</time>
      </trkpt>
      <trkpt lat="46.40162" lon="2.96616">
        <ele>397.4</ele>
        <time>2018-10-21T07:43:35Z</time>
      </trkpt>
      <trkpt lat="46.40155" lon="2.96623">
        <ele>397.6</ele>
        <time>2018-10-21T07:43:37Z</time>
      </trkpt>
      <trkpt lat="46.40149" lon="2.96629">
        <ele>397.9</ele>
        <time>2018-10-21T07:43:39Z</time>
      </trkpt>
      <trkpt lat="46.40143" lon="2.96636">
        <ele>398.3</ele>
        <time>2018-10-21T07:43:41Z</time>
      </trkpt>
      <trkpt lat="46.40136" lon="2.96642">
        <ele>398.7</ele>
        <time>2018-10-21T07:43:43Z</time>
      </trkpt>
      <trkpt lat="46.40133" lon="2.96645">
        <ele>398.6</ele>
        <time>2018-10-21T07:43:44Z</time>
      </trkpt>
      <trkpt lat="46.40123" lon="2.96655">
        <ele>398.3</ele>
        <time>2018-10-21T07:43:47Z</time>
      </trkpt>
      <trkpt lat="46.40117" lon="2.96661">
        <ele>398.6</ele>
        <time>2018-10-21T07:43:49Z</time>
      </trkpt>
      <trkpt lat="46.40111" lon="2.96667">
        <ele>398.9</ele>
        <time>2018-10-21T07:43:51Z</time>
      </trkpt>
      <trkpt lat="46.40104" lon="2.96673">
        <ele>398.9</ele>
        <time>2018-10-21T07:43:53Z</time>
      </trkpt>
      <trkpt lat="46.40097" lon="2.96679">
        <ele>399.2</ele>
        <time>2018-10-21T07:43:55Z</time>
      </trkpt>
      <trkpt lat="46.40091" lon="2.96685">
        <ele>399.7</ele>
        <time>2018-10-21T07:43:57Z</time>
      </trkpt>
      <trkpt lat="46.40085" lon="2.96691">
        <ele>399.9</ele>
        <time>2018-10-21T07:43:59Z</time>
      </trkpt>
      <trkpt lat="46.40079" lon="2.96696">
        <ele>400.1</ele>
        <time>2018-10-21T07:44:01Z</time>
      </trkpt>
      <trkpt lat="46.40072" lon="2.96701">
        <ele>400.3</ele>
        <time>2018-10-21T07:44:03Z</time>
      </trkpt>
      <trkpt lat="46.40066" lon="2.96707">
        <ele>400.8</ele>
        <time>2018-10-21T07:44:05Z</time>
      </trkpt>
      <trkpt lat="46.40059" lon="2.96712">
        <ele>401.5</ele>
        <time>2018-10-21T07:44:07Z</time>
      </trkpt>
      <trkpt lat="46.40052" lon="2.96718">
        <ele>401.2</ele>
        <time>2018-10-21T07:44:09Z</time>
      </trkpt>
      <trkpt lat="46.40044" lon="2.96724">
        <ele>400.8</ele>
        <time>2018-10-21T07:44:11Z</time>
      </trkpt>
      <trkpt lat="46.40036" lon="2.9673">
        <ele>400.6</ele>
        <time>2018-10-21T07:44:13Z</time>
      </trkpt>
      <trkpt lat="46.40028" lon="2.96736">
        <ele>400.8</ele>
        <time>2018-10-21T07:44:15Z</time>
      </trkpt>
      <trkpt lat="46.40021" lon="2.96742">
        <ele>400.6</ele>
        <time>2018-10-21T07:44:17Z</time>
      </trkpt>
      <trkpt lat="46.40016" lon="2.96746">
        <ele>400.2</ele>
        <time>2018-10-21T07:44:18Z</time>
      </trkpt>
      <trkpt lat="46.40012" lon="2.96749">
        <ele>400</ele>
        <time>2018-10-21T07:44:19Z</time>
      </trkpt>
      <trkpt lat="46.40008" lon="2.96753">
        <ele>400</ele>
        <time>2018-10-21T07:44:20Z</time>
      </trkpt>
      <trkpt lat="46.40003" lon="2.96756">
        <ele>399.9</ele>
        <time>2018-10-21T07:44:21Z</time>
      </trkpt>
      <trkpt lat="46.39999" lon="2.9676">
        <ele>399.8</ele>
        <time>2018-10-21T07:44:22Z</time>
      </trkpt>
      <trkpt lat="46.39994" lon="2.96764">
        <ele>399.6</ele>
        <time>2018-10-21T07:44:23Z</time>
      </trkpt>
      <trkpt lat="46.3999" lon="2.96767">
        <ele>399.5</ele>
        <time>2018-10-21T07:44:24Z</time>
      </trkpt>
      <trkpt lat="46.39985" lon="2.96771">
        <ele>399.5</ele>
        <time>2018-10-21T07:44:25Z</time>
      </trkpt>
      <trkpt lat="46.39981" lon="2.96774">
        <ele>399.4</ele>
        <time>2018-10-21T07:44:26Z</time>
      </trkpt>
      <trkpt lat="46.39976" lon="2.96778">
        <ele>399.2</ele>
        <time>2018-10-21T07:44:27Z</time>
      </trkpt>
      <trkpt lat="46.39971" lon="2.96782">
        <ele>399</ele>
        <time>2018-10-21T07:44:28Z</time>
      </trkpt>
      <trkpt lat="46.39967" lon="2.96785">
        <ele>398.7</ele>
        <time>2018-10-21T07:44:29Z</time>
      </trkpt>
      <trkpt lat="46.39962" lon="2.96789">
        <ele>398.4</ele>
        <time>2018-10-21T07:44:30Z</time>
      </trkpt>
      <trkpt lat="46.39958" lon="2.96793">
        <ele>398.2</ele>
        <time>2018-10-21T07:44:31Z</time>
      </trkpt>
      <trkpt lat="46.39953" lon="2.96797">
        <ele>398.3</ele>
        <time>2018-10-21T07:44:32Z</time>
      </trkpt>
      <trkpt lat="46.39948" lon="2.968">
        <ele>398.4</ele>
        <time>2018-10-21T07:44:33Z</time>
      </trkpt>
      <trkpt lat="46.39944" lon="2.96804">
        <ele>398.5</ele>
        <time>2018-10-21T07:44:34Z</time>
      </trkpt>
      <trkpt lat="46.39939" lon="2.96808">
        <ele>398.5</ele>
        <time>2018-10-21T07:44:35Z</time>
      </trkpt>
      <trkpt lat="46.39934" lon="2.96811">
        <ele>398.3</ele>
        <time>2018-10-21T07:44:36Z</time>
      </trkpt>
      <trkpt lat="46.3993" lon="2.96815">
        <ele>398.2</ele>
        <time>2018-10-21T07:44:37Z</time>
      </trkpt>
      <trkpt lat="46.39925" lon="2.96819">
        <ele>398.1</ele>
        <time>2018-10-21T07:44:38Z</time>
      </trkpt>
      <trkpt lat="46.3992" lon="2.96822">
        <ele>397.9</ele>
        <time>2018-10-21T07:44:39Z</time>
      </trkpt>
      <trkpt lat="46.39916" lon="2.96826">
        <ele>397.8</ele>
        <time>2018-10-21T07:44:40Z</time>
      </trkpt>
      <trkpt lat="46.39911" lon="2.9683">
        <ele>398.1</ele>
        <time>2018-10-21T07:44:41Z</time>
      </trkpt>
      <trkpt lat="46.39907" lon="2.96834">
        <ele>398.4</ele>
        <time>2018-10-21T07:44:42Z</time>
      </trkpt>
      <trkpt lat="46.39903" lon="2.96838">
        <ele>398.6</ele>
        <time>2018-10-21T07:44:43Z</time>
      </trkpt>
      <trkpt lat="46.39899" lon="2.96842">
        <ele>398.4</ele>
        <time>2018-10-21T07:44:44Z</time>
      </trkpt>
      <trkpt lat="46.39895" lon="2.96846">
        <ele>398.2</ele>
        <time>2018-10-21T07:44:45Z</time>
      </trkpt>
      <trkpt lat="46.39891" lon="2.9685">
        <ele>398.2</ele>
        <time>2018-10-21T07:44:46Z</time>
      </trkpt>
      <trkpt lat="46.39887" lon="2.96855">
        <ele>398.2</ele>
        <time>2018-10-21T07:44:47Z</time>
      </trkpt>
      <trkpt lat="46.39883" lon="2.96859">
        <ele>398</ele>
        <time>2018-10-21T07:44:48Z</time>
      </trkpt>
      <trkpt lat="46.3988" lon="2.96863">
        <ele>397.8</ele>
        <time>2018-10-21T07:44:49Z</time>
      </trkpt>
      <trkpt lat="46.39876" lon="2.96867">
        <ele>397.7</ele>
        <time>2018-10-21T07:44:50Z</time>
      </trkpt>
      <trkpt lat="46.39872" lon="2.96871">
        <ele>397.8</ele>
        <time>2018-10-21T07:44:51Z</time>
      </trkpt>
      <trkpt lat="46.39869" lon="2.96875">
        <ele>398</ele>
        <time>2018-10-21T07:44:52Z</time>
      </trkpt>
      <trkpt lat="46.39865" lon="2.96879">
        <ele>397.7</ele>
        <time>2018-10-21T07:44:53Z</time>
      </trkpt>
      <trkpt lat="46.39862" lon="2.96883">
        <ele>397.5</ele>
        <time>2018-10-21T07:44:54Z</time>
      </trkpt>
      <trkpt lat="46.39855" lon="2.96892">
        <ele>397.8</ele>
        <time>2018-10-21T07:44:56Z</time>
      </trkpt>
      <trkpt lat="46.39851" lon="2.96896">
        <ele>397.9</ele>
        <time>2018-10-21T07:44:57Z</time>
      </trkpt>
      <trkpt lat="46.39848" lon="2.969">
        <ele>397.6</ele>
        <time>2018-10-21T07:44:58Z</time>
      </trkpt>
      <trkpt lat="46.39841" lon="2.96908">
        <ele>397.3</ele>
        <time>2018-10-21T07:45:00Z</time>
      </trkpt>
      <trkpt lat="46.39834" lon="2.96916">
        <ele>397.3</ele>
        <time>2018-10-21T07:45:02Z</time>
      </trkpt>
      <trkpt lat="46.39827" lon="2.96924">
        <ele>397.7</ele>
        <time>2018-10-21T07:45:04Z</time>
      </trkpt>
      <trkpt lat="46.39821" lon="2.96931">
        <ele>398</ele>
        <time>2018-10-21T07:45:06Z</time>
      </trkpt>
      <trkpt lat="46.39814" lon="2.96938">
        <ele>397.9</ele>
        <time>2018-10-21T07:45:08Z</time>
      </trkpt>
      <trkpt lat="46.39808" lon="2.96945">
        <ele>398</ele>
        <time>2018-10-21T07:45:10Z</time>
      </trkpt>
      <trkpt lat="46.39802" lon="2.96952">
        <ele>398.4</ele>
        <time>2018-10-21T07:45:12Z</time>
      </trkpt>
      <trkpt lat="46.39796" lon="2.96959">
        <ele>398.9</ele>
        <time>2018-10-21T07:45:14Z</time>
      </trkpt>
      <trkpt lat="46.39788" lon="2.96967">
        <ele>399.2</ele>
        <time>2018-10-21T07:45:16Z</time>
      </trkpt>
      <trkpt lat="46.39782" lon="2.96974">
        <ele>399</ele>
        <time>2018-10-21T07:45:18Z</time>
      </trkpt>
      <trkpt lat="46.39776" lon="2.96981">
        <ele>399.1</ele>
        <time>2018-10-21T07:45:20Z</time>
      </trkpt>
      <trkpt lat="46.3977" lon="2.96988">
        <ele>399.1</ele>
        <time>2018-10-21T07:45:22Z</time>
      </trkpt>
      <trkpt lat="46.39764" lon="2.96995">
        <ele>399.5</ele>
        <time>2018-10-21T07:45:24Z</time>
      </trkpt>
      <trkpt lat="46.39758" lon="2.97002">
        <ele>400</ele>
        <time>2018-10-21T07:45:26Z</time>
      </trkpt>
      <trkpt lat="46.39752" lon="2.97009">
        <ele>400.3</ele>
        <time>2018-10-21T07:45:28Z</time>
      </trkpt>
      <trkpt lat="46.39746" lon="2.97017">
        <ele>400.5</ele>
        <time>2018-10-21T07:45:30Z</time>
      </trkpt>
      <trkpt lat="46.3974" lon="2.97024">
        <ele>400.6</ele>
        <time>2018-10-21T07:45:32Z</time>
      </trkpt>
      <trkpt lat="46.39735" lon="2.97032">
        <ele>400.9</ele>
        <time>2018-10-21T07:45:34Z</time>
      </trkpt>
      <trkpt lat="46.3973" lon="2.97041">
        <ele>401.3</ele>
        <time>2018-10-21T07:45:36Z</time>
      </trkpt>
      <trkpt lat="46.39726" lon="2.9705">
        <ele>401.5</ele>
        <time>2018-10-21T07:45:38Z</time>
      </trkpt>
      <trkpt lat="46.39723" lon="2.9706">
        <ele>401.6</ele>
        <time>2018-10-21T07:45:40Z</time>
      </trkpt>
      <trkpt lat="46.39721" lon="2.9707">
        <ele>402.4</ele>
        <time>2018-10-21T07:45:42Z</time>
      </trkpt>
      <trkpt lat="46.39718" lon="2.97081">
        <ele>402.3</ele>
        <time>2018-10-21T07:45:44Z</time>
      </trkpt>
      <trkpt lat="46.39716" lon="2.97092">
        <ele>403</ele>
        <time>2018-10-21T07:45:46Z</time>
      </trkpt>
      <trkpt lat="46.39715" lon="2.97098">
        <ele>403.2</ele>
        <time>2018-10-21T07:45:47Z</time>
      </trkpt>
      <trkpt lat="46.39712" lon="2.97114">
        <ele>403.3</ele>
        <time>2018-10-21T07:45:50Z</time>
      </trkpt>
      <trkpt lat="46.39709" lon="2.97125">
        <ele>403.1</ele>
        <time>2018-10-21T07:45:52Z</time>
      </trkpt>
      <trkpt lat="46.39707" lon="2.97135">
        <ele>404</ele>
        <time>2018-10-21T07:45:54Z</time>
      </trkpt>
      <trkpt lat="46.39705" lon="2.97146">
        <ele>404.6</ele>
        <time>2018-10-21T07:45:56Z</time>
      </trkpt>
      <trkpt lat="46.39704" lon="2.97157">
        <ele>405.5</ele>
        <time>2018-10-21T07:45:58Z</time>
      </trkpt>
      <trkpt lat="46.39702" lon="2.97168">
        <ele>406.1</ele>
        <time>2018-10-21T07:46:00Z</time>
      </trkpt>
      <trkpt lat="46.39702" lon="2.97179">
        <ele>406.6</ele>
        <time>2018-10-21T07:46:02Z</time>
      </trkpt>
      <trkpt lat="46.39703" lon="2.9719">
        <ele>406.9</ele>
        <time>2018-10-21T07:46:04Z</time>
      </trkpt>
      <trkpt lat="46.39705" lon="2.972">
        <ele>407.1</ele>
        <time>2018-10-21T07:46:06Z</time>
      </trkpt>
      <trkpt lat="46.39709" lon="2.9721">
        <ele>407.2</ele>
        <time>2018-10-21T07:46:08Z</time>
      </trkpt>
      <trkpt lat="46.39713" lon="2.9722">
        <ele>407</ele>
        <time>2018-10-21T07:46:10Z</time>
      </trkpt>
      <trkpt lat="46.39718" lon="2.9723">
        <ele>407</ele>
        <time>2018-10-21T07:46:12Z</time>
      </trkpt>
      <trkpt lat="46.39722" lon="2.9724">
        <ele>406.7</ele>
        <time>2018-10-21T07:46:14Z</time>
      </trkpt>
      <trkpt lat="46.39726" lon="2.9725">
        <ele>406.6</ele>
        <time>2018-10-21T07:46:16Z</time>
      </trkpt>
      <trkpt lat="46.3973" lon="2.97261">
        <ele>406.7</ele>
        <time>2018-10-21T07:46:18Z</time>
      </trkpt>
      <trkpt lat="46.39734" lon="2.9727">
        <ele>406.6</ele>
        <time>2018-10-21T07:46:20Z</time>
      </trkpt>
      <trkpt lat="46.39738" lon="2.9728">
        <ele>407.5</ele>
        <time>2018-10-21T07:46:22Z</time>
      </trkpt>
      <trkpt lat="46.39742" lon="2.9729">
        <ele>407.8</ele>
        <time>2018-10-21T07:46:24Z</time>
      </trkpt>
      <trkpt lat="46.39746" lon="2.973">
        <ele>407.4</ele>
        <time>2018-10-21T07:46:26Z</time>
      </trkpt>
      <trkpt lat="46.3975" lon="2.97311">
        <ele>407</ele>
        <time>2018-10-21T07:46:28Z</time>
      </trkpt>
      <trkpt lat="46.39754" lon="2.97321">
        <ele>406.8</ele>
        <time>2018-10-21T07:46:30Z</time>
      </trkpt>
      <trkpt lat="46.39758" lon="2.97331">
        <ele>407.5</ele>
        <time>2018-10-21T07:46:32Z</time>
      </trkpt>
      <trkpt lat="46.39763" lon="2.97342">
        <ele>407.3</ele>
        <time>2018-10-21T07:46:34Z</time>
      </trkpt>
      <trkpt lat="46.39767" lon="2.97352">
        <ele>407.1</ele>
        <time>2018-10-21T07:46:36Z</time>
      </trkpt>
      <trkpt lat="46.39771" lon="2.97362">
        <ele>407.1</ele>
        <time>2018-10-21T07:46:38Z</time>
      </trkpt>
      <trkpt lat="46.39775" lon="2.97372">
        <ele>407.8</ele>
        <time>2018-10-21T07:46:40Z</time>
      </trkpt>
      <trkpt lat="46.39779" lon="2.97382">
        <ele>408.4</ele>
        <time>2018-10-21T07:46:42Z</time>
      </trkpt>
      <trkpt lat="46.39783" lon="2.97392">
        <ele>408.1</ele>
        <time>2018-10-21T07:46:44Z</time>
      </trkpt>
      <trkpt lat="46.39787" lon="2.97402">
        <ele>408.2</ele>
        <time>2018-10-21T07:46:46Z</time>
      </trkpt>
      <trkpt lat="46.39791" lon="2.97412">
        <ele>408.7</ele>
        <time>2018-10-21T07:46:48Z</time>
      </trkpt>
      <trkpt lat="46.39793" lon="2.97417">
        <ele>408.8</ele>
        <time>2018-10-21T07:46:49Z</time>
      </trkpt>
      <trkpt lat="46.39799" lon="2.97432">
        <ele>409.1</ele>
        <time>2018-10-21T07:46:52Z</time>
      </trkpt>
      <trkpt lat="46.39803" lon="2.97442">
        <ele>409.4</ele>
        <time>2018-10-21T07:46:54Z</time>
      </trkpt>
      <trkpt lat="46.39807" lon="2.97452">
        <ele>409.6</ele>
        <time>2018-10-21T07:46:56Z</time>
      </trkpt>
      <trkpt lat="46.39812" lon="2.97463">
        <ele>409.2</ele>
        <time>2018-10-21T07:46:58Z</time>
      </trkpt>
      <trkpt lat="46.39816" lon="2.97474">
        <ele>408.7</ele>
        <time>2018-10-21T07:47:00Z</time>
      </trkpt>
      <trkpt lat="46.3982" lon="2.97484">
        <ele>408.7</ele>
        <time>2018-10-21T07:47:02Z</time>
      </trkpt>
      <trkpt lat="46.39824" lon="2.97494">
        <ele>408.8</ele>
        <time>2018-10-21T07:47:04Z</time>
      </trkpt>
      <trkpt lat="46.39828" lon="2.97503">
        <ele>408.9</ele>
        <time>2018-10-21T07:47:06Z</time>
      </trkpt>
      <trkpt lat="46.39832" lon="2.97513">
        <ele>408.9</ele>
        <time>2018-10-21T07:47:08Z</time>
      </trkpt>
      <trkpt lat="46.39835" lon="2.97522">
        <ele>409</ele>
        <time>2018-10-21T07:47:10Z</time>
      </trkpt>
      <trkpt lat="46.39839" lon="2.97532">
        <ele>409.6</ele>
        <time>2018-10-21T07:47:12Z</time>
      </trkpt>
      <trkpt lat="46.39843" lon="2.97542">
        <ele>410</ele>
        <time>2018-10-21T07:47:14Z</time>
      </trkpt>
      <trkpt lat="46.39846" lon="2.97551">
        <ele>410.1</ele>
        <time>2018-10-21T07:47:16Z</time>
      </trkpt>
      <trkpt lat="46.3985" lon="2.97561">
        <ele>410.8</ele>
        <time>2018-10-21T07:47:18Z</time>
      </trkpt>
      <trkpt lat="46.39853" lon="2.9757">
        <ele>411.6</ele>
        <time>2018-10-21T07:47:20Z</time>
      </trkpt>
      <trkpt lat="46.39857" lon="2.9758">
        <ele>411.3</ele>
        <time>2018-10-21T07:47:22Z</time>
      </trkpt>
      <trkpt lat="46.3986" lon="2.97589">
        <ele>412.1</ele>
        <time>2018-10-21T07:47:24Z</time>
      </trkpt>
      <trkpt lat="46.39863" lon="2.97598">
        <ele>412.5</ele>
        <time>2018-10-21T07:47:26Z</time>
      </trkpt>
      <trkpt lat="46.39867" lon="2.97607">
        <ele>413.1</ele>
        <time>2018-10-21T07:47:28Z</time>
      </trkpt>
      <trkpt lat="46.3987" lon="2.97616">
        <ele>413.5</ele>
        <time>2018-10-21T07:47:30Z</time>
      </trkpt>
      <trkpt lat="46.39873" lon="2.97625">
        <ele>413.6</ele>
        <time>2018-10-21T07:47:32Z</time>
      </trkpt>
      <trkpt lat="46.39877" lon="2.97633">
        <ele>413.7</ele>
        <time>2018-10-21T07:47:34Z</time>
      </trkpt>
      <trkpt lat="46.3988" lon="2.97642">
        <ele>414</ele>
        <time>2018-10-21T07:47:36Z</time>
      </trkpt>
      <trkpt lat="46.39883" lon="2.97651">
        <ele>414</ele>
        <time>2018-10-21T07:47:38Z</time>
      </trkpt>
      <trkpt lat="46.39884" lon="2.97661">
        <ele>414.2</ele>
        <time>2018-10-21T07:47:40Z</time>
      </trkpt>
      <trkpt lat="46.39882" lon="2.9767">
        <ele>414.4</ele>
        <time>2018-10-21T07:47:42Z</time>
      </trkpt>
      <trkpt lat="46.39876" lon="2.97676">
        <ele>414.5</ele>
        <time>2018-10-21T07:47:44Z</time>
      </trkpt>
      <trkpt lat="46.3987" lon="2.9768">
        <ele>414.5</ele>
        <time>2018-10-21T07:47:46Z</time>
      </trkpt>
      <trkpt lat="46.39863" lon="2.97683">
        <ele>414.6</ele>
        <time>2018-10-21T07:47:48Z</time>
      </trkpt>
      <trkpt lat="46.39857" lon="2.97687">
        <ele>414.7</ele>
        <time>2018-10-21T07:47:50Z</time>
      </trkpt>
      <trkpt lat="46.39853" lon="2.97689">
        <ele>414.8</ele>
        <time>2018-10-21T07:47:51Z</time>
      </trkpt>
      <trkpt lat="46.39843" lon="2.97695">
        <ele>415.7</ele>
        <time>2018-10-21T07:47:54Z</time>
      </trkpt>
      <trkpt lat="46.39837" lon="2.97699">
        <ele>416</ele>
        <time>2018-10-21T07:47:56Z</time>
      </trkpt>
      <trkpt lat="46.3983" lon="2.97703">
        <ele>416.4</ele>
        <time>2018-10-21T07:47:58Z</time>
      </trkpt>
      <trkpt lat="46.39823" lon="2.97707">
        <ele>416.2</ele>
        <time>2018-10-21T07:48:00Z</time>
      </trkpt>
      <trkpt lat="46.39815" lon="2.9771">
        <ele>416.6</ele>
        <time>2018-10-21T07:48:02Z</time>
      </trkpt>
      <trkpt lat="46.39808" lon="2.97714">
        <ele>416.8</ele>
        <time>2018-10-21T07:48:04Z</time>
      </trkpt>
      <trkpt lat="46.39801" lon="2.97719">
        <ele>416.7</ele>
        <time>2018-10-21T07:48:06Z</time>
      </trkpt>
      <trkpt lat="46.39794" lon="2.97725">
        <ele>416.6</ele>
        <time>2018-10-21T07:48:08Z</time>
      </trkpt>
      <trkpt lat="46.39789" lon="2.97735">
        <ele>416.6</ele>
        <time>2018-10-21T07:48:10Z</time>
      </trkpt>
      <trkpt lat="46.39784" lon="2.97744">
        <ele>417.3</ele>
        <time>2018-10-21T07:48:12Z</time>
      </trkpt>
      <trkpt lat="46.39779" lon="2.97753">
        <ele>417.8</ele>
        <time>2018-10-21T07:48:14Z</time>
      </trkpt>
      <trkpt lat="46.39774" lon="2.97762">
        <ele>417.7</ele>
        <time>2018-10-21T07:48:16Z</time>
      </trkpt>
      <trkpt lat="46.3977" lon="2.97771">
        <ele>417.8</ele>
        <time>2018-10-21T07:48:18Z</time>
      </trkpt>
      <trkpt lat="46.39765" lon="2.97779">
        <ele>418.2</ele>
        <time>2018-10-21T07:48:20Z</time>
      </trkpt>
      <trkpt lat="46.39761" lon="2.97788">
        <ele>418.6</ele>
        <time>2018-10-21T07:48:22Z</time>
      </trkpt>
      <trkpt lat="46.39755" lon="2.97797">
        <ele>419.1</ele>
        <time>2018-10-21T07:48:24Z</time>
      </trkpt>
      <trkpt lat="46.39751" lon="2.97806">
        <ele>419.3</ele>
        <time>2018-10-21T07:48:26Z</time>
      </trkpt>
      <trkpt lat="46.39746" lon="2.97815">
        <ele>419.5</ele>
        <time>2018-10-21T07:48:28Z</time>
      </trkpt>
      <trkpt lat="46.39741" lon="2.97824">
        <ele>419.6</ele>
        <time>2018-10-21T07:48:30Z</time>
      </trkpt>
      <trkpt lat="46.39736" lon="2.97833">
        <ele>419.6</ele>
        <time>2018-10-21T07:48:32Z</time>
      </trkpt>
      <trkpt lat="46.39731" lon="2.97841">
        <ele>419.1</ele>
        <time>2018-10-21T07:48:34Z</time>
      </trkpt>
      <trkpt lat="46.39724" lon="2.97841">
        <ele>418.4</ele>
        <time>2018-10-21T07:48:36Z</time>
      </trkpt>
      <trkpt lat="46.39718" lon="2.97833">
        <ele>419.1</ele>
        <time>2018-10-21T07:48:38Z</time>
      </trkpt>
      <trkpt lat="46.39712" lon="2.97824">
        <ele>418.6</ele>
        <time>2018-10-21T07:48:40Z</time>
      </trkpt>
      <trkpt lat="46.39709" lon="2.9782">
        <ele>418.4</ele>
        <time>2018-10-21T07:48:41Z</time>
      </trkpt>
      <trkpt lat="46.39705" lon="2.97815">
        <ele>418.5</ele>
        <time>2018-10-21T07:48:42Z</time>
      </trkpt>
      <trkpt lat="46.39702" lon="2.97811">
        <ele>418.7</ele>
        <time>2018-10-21T07:48:43Z</time>
      </trkpt>
      <trkpt lat="46.39696" lon="2.97801">
        <ele>418.5</ele>
        <time>2018-10-21T07:48:45Z</time>
      </trkpt>
      <trkpt lat="46.39693" lon="2.97796">
        <ele>418.9</ele>
        <time>2018-10-21T07:48:46Z</time>
      </trkpt>
      <trkpt lat="46.3969" lon="2.97791">
        <ele>419.2</ele>
        <time>2018-10-21T07:48:47Z</time>
      </trkpt>
      <trkpt lat="46.39687" lon="2.97786">
        <ele>419.5</ele>
        <time>2018-10-21T07:48:48Z</time>
      </trkpt>
      <trkpt lat="46.39684" lon="2.9778">
        <ele>419.4</ele>
        <time>2018-10-21T07:48:49Z</time>
      </trkpt>
      <trkpt lat="46.39681" lon="2.97775">
        <ele>419.3</ele>
        <time>2018-10-21T07:48:50Z</time>
      </trkpt>
      <trkpt lat="46.39678" lon="2.9777">
        <ele>419.3</ele>
        <time>2018-10-21T07:48:51Z</time>
      </trkpt>
      <trkpt lat="46.39675" lon="2.97765">
        <ele>419.3</ele>
        <time>2018-10-21T07:48:52Z</time>
      </trkpt>
      <trkpt lat="46.39672" lon="2.9776">
        <ele>419.3</ele>
        <time>2018-10-21T07:48:53Z</time>
      </trkpt>
      <trkpt lat="46.39668" lon="2.97755">
        <ele>419.1</ele>
        <time>2018-10-21T07:48:54Z</time>
      </trkpt>
      <trkpt lat="46.39665" lon="2.97751">
        <ele>418.9</ele>
        <time>2018-10-21T07:48:55Z</time>
      </trkpt>
      <trkpt lat="46.39659" lon="2.97741">
        <ele>418.3</ele>
        <time>2018-10-21T07:48:57Z</time>
      </trkpt>
      <trkpt lat="46.39654" lon="2.97731">
        <ele>418.4</ele>
        <time>2018-10-21T07:48:59Z</time>
      </trkpt>
      <trkpt lat="46.39648" lon="2.97722">
        <ele>418.7</ele>
        <time>2018-10-21T07:49:01Z</time>
      </trkpt>
      <trkpt lat="46.39642" lon="2.97712">
        <ele>419.2</ele>
        <time>2018-10-21T07:49:03Z</time>
      </trkpt>
      <trkpt lat="46.39637" lon="2.97703">
        <ele>419.5</ele>
        <time>2018-10-21T07:49:05Z</time>
      </trkpt>
      <trkpt lat="46.39631" lon="2.97694">
        <ele>419.2</ele>
        <time>2018-10-21T07:49:07Z</time>
      </trkpt>
      <trkpt lat="46.39628" lon="2.97689">
        <ele>419.3</ele>
        <time>2018-10-21T07:49:08Z</time>
      </trkpt>
      <trkpt lat="46.39625" lon="2.97684">
        <ele>419.3</ele>
        <time>2018-10-21T07:49:09Z</time>
      </trkpt>
      <trkpt lat="46.39622" lon="2.97679">
        <ele>419.4</ele>
        <time>2018-10-21T07:49:10Z</time>
      </trkpt>
      <trkpt lat="46.39619" lon="2.97674">
        <ele>419.5</ele>
        <time>2018-10-21T07:49:11Z</time>
      </trkpt>
      <trkpt lat="46.39615" lon="2.97669">
        <ele>419.5</ele>
        <time>2018-10-21T07:49:12Z</time>
      </trkpt>
      <trkpt lat="46.39612" lon="2.97664">
        <ele>419.1</ele>
        <time>2018-10-21T07:49:13Z</time>
      </trkpt>
      <trkpt lat="46.39609" lon="2.97659">
        <ele>418.7</ele>
        <time>2018-10-21T07:49:14Z</time>
      </trkpt>
      <trkpt lat="46.39605" lon="2.97654">
        <ele>418.7</ele>
        <time>2018-10-21T07:49:15Z</time>
      </trkpt>
      <trkpt lat="46.39601" lon="2.97649">
        <ele>418.7</ele>
        <time>2018-10-21T07:49:16Z</time>
      </trkpt>
      <trkpt lat="46.39598" lon="2.97644">
        <ele>418.8</ele>
        <time>2018-10-21T07:49:17Z</time>
      </trkpt>
      <trkpt lat="46.39594" lon="2.97638">
        <ele>418.9</ele>
        <time>2018-10-21T07:49:18Z</time>
      </trkpt>
      <trkpt lat="46.39591" lon="2.97633">
        <ele>419</ele>
        <time>2018-10-21T07:49:19Z</time>
      </trkpt>
      <trkpt lat="46.39587" lon="2.97627">
        <ele>418.8</ele>
        <time>2018-10-21T07:49:20Z</time>
      </trkpt>
      <trkpt lat="46.39584" lon="2.97621">
        <ele>418.7</ele>
        <time>2018-10-21T07:49:21Z</time>
      </trkpt>
      <trkpt lat="46.3958" lon="2.97615">
        <ele>418.7</ele>
        <time>2018-10-21T07:49:22Z</time>
      </trkpt>
      <trkpt lat="46.39577" lon="2.97609">
        <ele>418.8</ele>
        <time>2018-10-21T07:49:23Z</time>
      </trkpt>
      <trkpt lat="46.39573" lon="2.97603">
        <ele>418.3</ele>
        <time>2018-10-21T07:49:24Z</time>
      </trkpt>
      <trkpt lat="46.3957" lon="2.97597">
        <ele>417.9</ele>
        <time>2018-10-21T07:49:25Z</time>
      </trkpt>
      <trkpt lat="46.39567" lon="2.97592">
        <ele>417.6</ele>
        <time>2018-10-21T07:49:26Z</time>
      </trkpt>
      <trkpt lat="46.39564" lon="2.97586">
        <ele>417.3</ele>
        <time>2018-10-21T07:49:27Z</time>
      </trkpt>
      <trkpt lat="46.39561" lon="2.97581">
        <ele>417</ele>
        <time>2018-10-21T07:49:28Z</time>
      </trkpt>
      <trkpt lat="46.39558" lon="2.97575">
        <ele>417.2</ele>
        <time>2018-10-21T07:49:29Z</time>
      </trkpt>
      <trkpt lat="46.39554" lon="2.9757">
        <ele>417.2</ele>
        <time>2018-10-21T07:49:30Z</time>
      </trkpt>
      <trkpt lat="46.39551" lon="2.97564">
        <ele>417.3</ele>
        <time>2018-10-21T07:49:31Z</time>
      </trkpt>
      <trkpt lat="46.39548" lon="2.97558">
        <ele>417.2</ele>
        <time>2018-10-21T07:49:32Z</time>
      </trkpt>
      <trkpt lat="46.39546" lon="2.97553">
        <ele>417.2</ele>
        <time>2018-10-21T07:49:33Z</time>
      </trkpt>
      <trkpt lat="46.39543" lon="2.97547">
        <ele>417</ele>
        <time>2018-10-21T07:49:34Z</time>
      </trkpt>
      <trkpt lat="46.3954" lon="2.97542">
        <ele>416.8</ele>
        <time>2018-10-21T07:49:35Z</time>
      </trkpt>
      <trkpt lat="46.39537" lon="2.97537">
        <ele>416.3</ele>
        <time>2018-10-21T07:49:36Z</time>
      </trkpt>
      <trkpt lat="46.39534" lon="2.97531">
        <ele>415.9</ele>
        <time>2018-10-21T07:49:37Z</time>
      </trkpt>
      <trkpt lat="46.39531" lon="2.97525">
        <ele>415.6</ele>
        <time>2018-10-21T07:49:38Z</time>
      </trkpt>
      <trkpt lat="46.39528" lon="2.9752">
        <ele>416</ele>
        <time>2018-10-21T07:49:39Z</time>
      </trkpt>
      <trkpt lat="46.39524" lon="2.97515">
        <ele>416.2</ele>
        <time>2018-10-21T07:49:40Z</time>
      </trkpt>
      <trkpt lat="46.39521" lon="2.97509">
        <ele>416.1</ele>
        <time>2018-10-21T07:49:41Z</time>
      </trkpt>
      <trkpt lat="46.39518" lon="2.97505">
        <ele>416</ele>
        <time>2018-10-21T07:49:42Z</time>
      </trkpt>
      <trkpt lat="46.39515" lon="2.975">
        <ele>416</ele>
        <time>2018-10-21T07:49:43Z</time>
      </trkpt>
      <trkpt lat="46.39512" lon="2.97494">
        <ele>415.7</ele>
        <time>2018-10-21T07:49:44Z</time>
      </trkpt>
      <trkpt lat="46.39509" lon="2.97482">
        <ele>415.3</ele>
        <time>2018-10-21T07:49:46Z</time>
      </trkpt>
      <trkpt lat="46.39513" lon="2.97471">
        <ele>415.4</ele>
        <time>2018-10-21T07:49:48Z</time>
      </trkpt>
      <trkpt lat="46.39518" lon="2.97461">
        <ele>415.8</ele>
        <time>2018-10-21T07:49:50Z</time>
      </trkpt>
      <trkpt lat="46.39524" lon="2.9745">
        <ele>415.6</ele>
        <time>2018-10-21T07:49:52Z</time>
      </trkpt>
      <trkpt lat="46.39526" lon="2.97445">
        <ele>415.8</ele>
        <time>2018-10-21T07:49:53Z</time>
      </trkpt>
      <trkpt lat="46.39533" lon="2.9743">
        <ele>415.9</ele>
        <time>2018-10-21T07:49:56Z</time>
      </trkpt>
      <trkpt lat="46.39538" lon="2.9742">
        <ele>416</ele>
        <time>2018-10-21T07:49:58Z</time>
      </trkpt>
      <trkpt lat="46.39542" lon="2.97409">
        <ele>416</ele>
        <time>2018-10-21T07:50:00Z</time>
      </trkpt>
      <trkpt lat="46.39546" lon="2.97397">
        <ele>415.8</ele>
        <time>2018-10-21T07:50:02Z</time>
      </trkpt>
      <trkpt lat="46.3955" lon="2.97386">
        <ele>415.6</ele>
        <time>2018-10-21T07:50:04Z</time>
      </trkpt>
      <trkpt lat="46.39554" lon="2.97374">
        <ele>415.5</ele>
        <time>2018-10-21T07:50:06Z</time>
      </trkpt>
      <trkpt lat="46.39558" lon="2.97363">
        <ele>415.4</ele>
        <time>2018-10-21T07:50:08Z</time>
      </trkpt>
      <trkpt lat="46.39561" lon="2.97357">
        <ele>415.4</ele>
        <time>2018-10-21T07:50:09Z</time>
      </trkpt>
      <trkpt lat="46.39563" lon="2.97352">
        <ele>415.1</ele>
        <time>2018-10-21T07:50:10Z</time>
      </trkpt>
      <trkpt lat="46.39565" lon="2.97346">
        <ele>414.8</ele>
        <time>2018-10-21T07:50:11Z</time>
      </trkpt>
      <trkpt lat="46.39568" lon="2.97341">
        <ele>415.1</ele>
        <time>2018-10-21T07:50:12Z</time>
      </trkpt>
      <trkpt lat="46.39571" lon="2.97335">
        <ele>415.3</ele>
        <time>2018-10-21T07:50:13Z</time>
      </trkpt>
      <trkpt lat="46.39574" lon="2.9733">
        <ele>415.5</ele>
        <time>2018-10-21T07:50:14Z</time>
      </trkpt>
      <trkpt lat="46.39577" lon="2.97325">
        <ele>415.4</ele>
        <time>2018-10-21T07:50:15Z</time>
      </trkpt>
      <trkpt lat="46.3958" lon="2.97319">
        <ele>415.3</ele>
        <time>2018-10-21T07:50:16Z</time>
      </trkpt>
      <trkpt lat="46.39583" lon="2.97314">
        <ele>415.4</ele>
        <time>2018-10-21T07:50:17Z</time>
      </trkpt>
      <trkpt lat="46.39586" lon="2.97308">
        <ele>415.5</ele>
        <time>2018-10-21T07:50:18Z</time>
      </trkpt>
      <trkpt lat="46.3959" lon="2.97302">
        <ele>415.5</ele>
        <time>2018-10-21T07:50:19Z</time>
      </trkpt>
      <trkpt lat="46.39593" lon="2.97297">
        <ele>415.5</ele>
        <time>2018-10-21T07:50:20Z</time>
      </trkpt>
      <trkpt lat="46.39596" lon="2.97292">
        <ele>415.5</ele>
        <time>2018-10-21T07:50:21Z</time>
      </trkpt>
      <trkpt lat="46.39599" lon="2.97286">
        <ele>415</ele>
        <time>2018-10-21T07:50:22Z</time>
      </trkpt>
      <trkpt lat="46.39601" lon="2.97281">
        <ele>414.6</ele>
        <time>2018-10-21T07:50:23Z</time>
      </trkpt>
      <trkpt lat="46.39606" lon="2.9727">
        <ele>414.6</ele>
        <time>2018-10-21T07:50:25Z</time>
      </trkpt>
      <trkpt lat="46.3961" lon="2.97259">
        <ele>413.8</ele>
        <time>2018-10-21T07:50:27Z</time>
      </trkpt>
      <trkpt lat="46.39613" lon="2.97248">
        <ele>413.3</ele>
        <time>2018-10-21T07:50:29Z</time>
      </trkpt>
      <trkpt lat="46.39615" lon="2.97236">
        <ele>413</ele>
        <time>2018-10-21T07:50:31Z</time>
      </trkpt>
      <trkpt lat="46.39614" lon="2.9723">
        <ele>413</ele>
        <time>2018-10-21T07:50:32Z</time>
      </trkpt>
      <trkpt lat="46.39613" lon="2.97224">
        <ele>413</ele>
        <time>2018-10-21T07:50:33Z</time>
      </trkpt>
      <trkpt lat="46.3961" lon="2.97217">
        <ele>413.2</ele>
        <time>2018-10-21T07:50:34Z</time>
      </trkpt>
      <trkpt lat="46.39607" lon="2.97212">
        <ele>413.3</ele>
        <time>2018-10-21T07:50:35Z</time>
      </trkpt>
      <trkpt lat="46.39604" lon="2.97206">
        <ele>412.8</ele>
        <time>2018-10-21T07:50:36Z</time>
      </trkpt>
      <trkpt lat="46.39601" lon="2.97201">
        <ele>412.4</ele>
        <time>2018-10-21T07:50:37Z</time>
      </trkpt>
      <trkpt lat="46.39598" lon="2.97196">
        <ele>412.5</ele>
        <time>2018-10-21T07:50:38Z</time>
      </trkpt>
      <trkpt lat="46.39595" lon="2.97191">
        <ele>412.5</ele>
        <time>2018-10-21T07:50:39Z</time>
      </trkpt>
      <trkpt lat="46.39591" lon="2.97186">
        <ele>412.6</ele>
        <time>2018-10-21T07:50:40Z</time>
      </trkpt>
      <trkpt lat="46.39588" lon="2.97181">
        <ele>412.3</ele>
        <time>2018-10-21T07:50:41Z</time>
      </trkpt>
      <trkpt lat="46.39584" lon="2.97176">
        <ele>412.1</ele>
        <time>2018-10-21T07:50:42Z</time>
      </trkpt>
      <trkpt lat="46.39578" lon="2.97167">
        <ele>412.5</ele>
        <time>2018-10-21T07:50:44Z</time>
      </trkpt>
      <trkpt lat="46.39575" lon="2.97163">
        <ele>412.6</ele>
        <time>2018-10-21T07:50:45Z</time>
      </trkpt>
      <trkpt lat="46.39571" lon="2.97158">
        <ele>412.5</ele>
        <time>2018-10-21T07:50:46Z</time>
      </trkpt>
      <trkpt lat="46.39568" lon="2.97152">
        <ele>412.4</ele>
        <time>2018-10-21T07:50:47Z</time>
      </trkpt>
      <trkpt lat="46.39565" lon="2.97147">
        <ele>412.2</ele>
        <time>2018-10-21T07:50:48Z</time>
      </trkpt>
      <trkpt lat="46.39563" lon="2.97142">
        <ele>412</ele>
        <time>2018-10-21T07:50:49Z</time>
      </trkpt>
      <trkpt lat="46.39559" lon="2.97136">
        <ele>411.9</ele>
        <time>2018-10-21T07:50:50Z</time>
      </trkpt>
      <trkpt lat="46.39554" lon="2.97127">
        <ele>411.9</ele>
        <time>2018-10-21T07:50:52Z</time>
      </trkpt>
      <trkpt lat="46.39551" lon="2.97122">
        <ele>412</ele>
        <time>2018-10-21T07:50:53Z</time>
      </trkpt>
      <trkpt lat="46.39548" lon="2.97117">
        <ele>412</ele>
        <time>2018-10-21T07:50:54Z</time>
      </trkpt>
      <trkpt lat="46.39544" lon="2.97111">
        <ele>412.1</ele>
        <time>2018-10-21T07:50:55Z</time>
      </trkpt>
      <trkpt lat="46.39541" lon="2.97106">
        <ele>412.1</ele>
        <time>2018-10-21T07:50:56Z</time>
      </trkpt>
      <trkpt lat="46.39537" lon="2.97099">
        <ele>412.2</ele>
        <time>2018-10-21T07:50:57Z</time>
      </trkpt>
      <trkpt lat="46.39533" lon="2.97093">
        <ele>412.3</ele>
        <time>2018-10-21T07:50:58Z</time>
      </trkpt>
      <trkpt lat="46.39529" lon="2.97086">
        <ele>412.3</ele>
        <time>2018-10-21T07:50:59Z</time>
      </trkpt>
      <trkpt lat="46.39525" lon="2.9708">
        <ele>412</ele>
        <time>2018-10-21T07:51:00Z</time>
      </trkpt>
      <trkpt lat="46.39521" lon="2.97073">
        <ele>411.7</ele>
        <time>2018-10-21T07:51:01Z</time>
      </trkpt>
      <trkpt lat="46.39517" lon="2.97067">
        <ele>411.4</ele>
        <time>2018-10-21T07:51:02Z</time>
      </trkpt>
      <trkpt lat="46.39513" lon="2.97061">
        <ele>411.2</ele>
        <time>2018-10-21T07:51:03Z</time>
      </trkpt>
      <trkpt lat="46.39509" lon="2.97056">
        <ele>411.1</ele>
        <time>2018-10-21T07:51:04Z</time>
      </trkpt>
      <trkpt lat="46.39505" lon="2.9705">
        <ele>411.2</ele>
        <time>2018-10-21T07:51:05Z</time>
      </trkpt>
      <trkpt lat="46.39501" lon="2.97045">
        <ele>411.3</ele>
        <time>2018-10-21T07:51:06Z</time>
      </trkpt>
      <trkpt lat="46.39497" lon="2.97039">
        <ele>410.9</ele>
        <time>2018-10-21T07:51:07Z</time>
      </trkpt>
      <trkpt lat="46.39493" lon="2.97033">
        <ele>410.5</ele>
        <time>2018-10-21T07:51:08Z</time>
      </trkpt>
      <trkpt lat="46.39488" lon="2.97028">
        <ele>410</ele>
        <time>2018-10-21T07:51:09Z</time>
      </trkpt>
      <trkpt lat="46.39484" lon="2.97022">
        <ele>409.6</ele>
        <time>2018-10-21T07:51:10Z</time>
      </trkpt>
      <trkpt lat="46.3948" lon="2.97016">
        <ele>409.2</ele>
        <time>2018-10-21T07:51:11Z</time>
      </trkpt>
      <trkpt lat="46.39476" lon="2.9701">
        <ele>409.3</ele>
        <time>2018-10-21T07:51:12Z</time>
      </trkpt>
      <trkpt lat="46.39471" lon="2.97004">
        <ele>409.4</ele>
        <time>2018-10-21T07:51:13Z</time>
      </trkpt>
      <trkpt lat="46.39467" lon="2.96999">
        <ele>409.1</ele>
        <time>2018-10-21T07:51:14Z</time>
      </trkpt>
      <trkpt lat="46.39463" lon="2.96993">
        <ele>408.8</ele>
        <time>2018-10-21T07:51:15Z</time>
      </trkpt>
      <trkpt lat="46.39459" lon="2.96987">
        <ele>409</ele>
        <time>2018-10-21T07:51:16Z</time>
      </trkpt>
      <trkpt lat="46.39455" lon="2.96982">
        <ele>409.2</ele>
        <time>2018-10-21T07:51:17Z</time>
      </trkpt>
      <trkpt lat="46.39451" lon="2.96976">
        <ele>409.3</ele>
        <time>2018-10-21T07:51:18Z</time>
      </trkpt>
      <trkpt lat="46.39447" lon="2.96971">
        <ele>409.2</ele>
        <time>2018-10-21T07:51:19Z</time>
      </trkpt>
      <trkpt lat="46.39443" lon="2.96965">
        <ele>409.1</ele>
        <time>2018-10-21T07:51:20Z</time>
      </trkpt>
      <trkpt lat="46.39439" lon="2.96959">
        <ele>408.8</ele>
        <time>2018-10-21T07:51:21Z</time>
      </trkpt>
      <trkpt lat="46.39435" lon="2.96953">
        <ele>408.6</ele>
        <time>2018-10-21T07:51:22Z</time>
      </trkpt>
      <trkpt lat="46.3943" lon="2.96947">
        <ele>408.5</ele>
        <time>2018-10-21T07:51:23Z</time>
      </trkpt>
      <trkpt lat="46.39426" lon="2.9694">
        <ele>408.2</ele>
        <time>2018-10-21T07:51:24Z</time>
      </trkpt>
      <trkpt lat="46.39423" lon="2.96933">
        <ele>408</ele>
        <time>2018-10-21T07:51:25Z</time>
      </trkpt>
      <trkpt lat="46.39421" lon="2.96925">
        <ele>408.3</ele>
        <time>2018-10-21T07:51:26Z</time>
      </trkpt>
      <trkpt lat="46.3942" lon="2.96917">
        <ele>408.5</ele>
        <time>2018-10-21T07:51:27Z</time>
      </trkpt>
      <trkpt lat="46.39421" lon="2.96909">
        <ele>408.4</ele>
        <time>2018-10-21T07:51:28Z</time>
      </trkpt>
      <trkpt lat="46.39423" lon="2.96902">
        <ele>408.3</ele>
        <time>2018-10-21T07:51:29Z</time>
      </trkpt>
      <trkpt lat="46.39425" lon="2.96894">
        <ele>408.3</ele>
        <time>2018-10-21T07:51:30Z</time>
      </trkpt>
      <trkpt lat="46.39427" lon="2.96887">
        <ele>407.9</ele>
        <time>2018-10-21T07:51:31Z</time>
      </trkpt>
      <trkpt lat="46.39429" lon="2.9688">
        <ele>407.7</ele>
        <time>2018-10-21T07:51:32Z</time>
      </trkpt>
      <trkpt lat="46.39431" lon="2.96873">
        <ele>407.3</ele>
        <time>2018-10-21T07:51:33Z</time>
      </trkpt>
      <trkpt lat="46.39433" lon="2.96867">
        <ele>407.1</ele>
        <time>2018-10-21T07:51:34Z</time>
      </trkpt>
      <trkpt lat="46.39435" lon="2.9686">
        <ele>406.9</ele>
        <time>2018-10-21T07:51:35Z</time>
      </trkpt>
      <trkpt lat="46.39437" lon="2.96855">
        <ele>407.1</ele>
        <time>2018-10-21T07:51:36Z</time>
      </trkpt>
      <trkpt lat="46.3944" lon="2.96849">
        <ele>407.3</ele>
        <time>2018-10-21T07:51:37Z</time>
      </trkpt>
      <trkpt lat="46.39443" lon="2.96844">
        <ele>407.5</ele>
        <time>2018-10-21T07:51:38Z</time>
      </trkpt>
      <trkpt lat="46.39446" lon="2.96838">
        <ele>407.6</ele>
        <time>2018-10-21T07:51:39Z</time>
      </trkpt>
      <trkpt lat="46.39448" lon="2.96832">
        <ele>407.7</ele>
        <time>2018-10-21T07:51:40Z</time>
      </trkpt>
      <trkpt lat="46.3945" lon="2.96826">
        <ele>407.7</ele>
        <time>2018-10-21T07:51:41Z</time>
      </trkpt>
      <trkpt lat="46.39451" lon="2.96819">
        <ele>407.8</ele>
        <time>2018-10-21T07:51:42Z</time>
      </trkpt>
      <trkpt lat="46.39452" lon="2.96813">
        <ele>407.6</ele>
        <time>2018-10-21T07:51:43Z</time>
      </trkpt>
      <trkpt lat="46.39454" lon="2.96806">
        <ele>407.4</ele>
        <time>2018-10-21T07:51:44Z</time>
      </trkpt>
      <trkpt lat="46.39455" lon="2.96799">
        <ele>407.4</ele>
        <time>2018-10-21T07:51:45Z</time>
      </trkpt>
      <trkpt lat="46.39456" lon="2.96792">
        <ele>407.3</ele>
        <time>2018-10-21T07:51:46Z</time>
      </trkpt>
      <trkpt lat="46.39457" lon="2.96785">
        <ele>407.4</ele>
        <time>2018-10-21T07:51:47Z</time>
      </trkpt>
      <trkpt lat="46.39458" lon="2.96778">
        <ele>407.5</ele>
        <time>2018-10-21T07:51:48Z</time>
      </trkpt>
      <trkpt lat="46.39459" lon="2.96771">
        <ele>407.5</ele>
        <time>2018-10-21T07:51:49Z</time>
      </trkpt>
      <trkpt lat="46.39459" lon="2.96764">
        <ele>407.4</ele>
        <time>2018-10-21T07:51:50Z</time>
      </trkpt>
      <trkpt lat="46.3946" lon="2.96757">
        <ele>407.4</ele>
        <time>2018-10-21T07:51:51Z</time>
      </trkpt>
      <trkpt lat="46.39461" lon="2.9675">
        <ele>407.4</ele>
        <time>2018-10-21T07:51:52Z</time>
      </trkpt>
      <trkpt lat="46.39462" lon="2.96743">
        <ele>407.4</ele>
        <time>2018-10-21T07:51:53Z</time>
      </trkpt>
      <trkpt lat="46.39463" lon="2.96737">
        <ele>407.4</ele>
        <time>2018-10-21T07:51:54Z</time>
      </trkpt>
      <trkpt lat="46.39464" lon="2.9673">
        <ele>407.4</ele>
        <time>2018-10-21T07:51:55Z</time>
      </trkpt>
      <trkpt lat="46.39465" lon="2.96722">
        <ele>407.5</ele>
        <time>2018-10-21T07:51:56Z</time>
      </trkpt>
      <trkpt lat="46.39466" lon="2.96715">
        <ele>407.3</ele>
        <time>2018-10-21T07:51:57Z</time>
      </trkpt>
      <trkpt lat="46.39467" lon="2.96708">
        <ele>407.2</ele>
        <time>2018-10-21T07:51:58Z</time>
      </trkpt>
      <trkpt lat="46.39468" lon="2.96702">
        <ele>407.4</ele>
        <time>2018-10-21T07:51:59Z</time>
      </trkpt>
      <trkpt lat="46.3947" lon="2.96695">
        <ele>407.5</ele>
        <time>2018-10-21T07:52:00Z</time>
      </trkpt>
      <trkpt lat="46.39471" lon="2.96688">
        <ele>407.6</ele>
        <time>2018-10-21T07:52:01Z</time>
      </trkpt>
      <trkpt lat="46.39472" lon="2.96682">
        <ele>407.4</ele>
        <time>2018-10-21T07:52:02Z</time>
      </trkpt>
      <trkpt lat="46.39474" lon="2.96675">
        <ele>407.3</ele>
        <time>2018-10-21T07:52:03Z</time>
      </trkpt>
      <trkpt lat="46.39475" lon="2.96668">
        <ele>407.4</ele>
        <time>2018-10-21T07:52:04Z</time>
      </trkpt>
      <trkpt lat="46.39477" lon="2.96662">
        <ele>407.4</ele>
        <time>2018-10-21T07:52:05Z</time>
      </trkpt>
      <trkpt lat="46.39479" lon="2.96655">
        <ele>407</ele>
        <time>2018-10-21T07:52:06Z</time>
      </trkpt>
      <trkpt lat="46.3948" lon="2.96649">
        <ele>406.7</ele>
        <time>2018-10-21T07:52:07Z</time>
      </trkpt>
      <trkpt lat="46.39482" lon="2.96642">
        <ele>406.5</ele>
        <time>2018-10-21T07:52:08Z</time>
      </trkpt>
      <trkpt lat="46.39484" lon="2.96636">
        <ele>406.4</ele>
        <time>2018-10-21T07:52:09Z</time>
      </trkpt>
      <trkpt lat="46.39485" lon="2.96629">
        <ele>406.3</ele>
        <time>2018-10-21T07:52:10Z</time>
      </trkpt>
      <trkpt lat="46.39487" lon="2.96622">
        <ele>406.6</ele>
        <time>2018-10-21T07:52:11Z</time>
      </trkpt>
      <trkpt lat="46.39488" lon="2.96616">
        <ele>406.9</ele>
        <time>2018-10-21T07:52:12Z</time>
      </trkpt>
      <trkpt lat="46.39489" lon="2.96609">
        <ele>407</ele>
        <time>2018-10-21T07:52:13Z</time>
      </trkpt>
      <trkpt lat="46.39488" lon="2.96601">
        <ele>406.9</ele>
        <time>2018-10-21T07:52:14Z</time>
      </trkpt>
      <trkpt lat="46.39487" lon="2.96595">
        <ele>406.7</ele>
        <time>2018-10-21T07:52:15Z</time>
      </trkpt>
      <trkpt lat="46.39485" lon="2.96588">
        <ele>406.7</ele>
        <time>2018-10-21T07:52:16Z</time>
      </trkpt>
      <trkpt lat="46.39482" lon="2.96581">
        <ele>406.7</ele>
        <time>2018-10-21T07:52:17Z</time>
      </trkpt>
      <trkpt lat="46.3948" lon="2.96575">
        <ele>405.9</ele>
        <time>2018-10-21T07:52:18Z</time>
      </trkpt>
      <trkpt lat="46.39478" lon="2.96568">
        <ele>405.3</ele>
        <time>2018-10-21T07:52:19Z</time>
      </trkpt>
      <trkpt lat="46.39476" lon="2.96561">
        <ele>404.8</ele>
        <time>2018-10-21T07:52:20Z</time>
      </trkpt>
      <trkpt lat="46.39474" lon="2.96553">
        <ele>404.6</ele>
        <time>2018-10-21T07:52:21Z</time>
      </trkpt>
      <trkpt lat="46.39473" lon="2.96546">
        <ele>404.5</ele>
        <time>2018-10-21T07:52:22Z</time>
      </trkpt>
      <trkpt lat="46.39472" lon="2.96538">
        <ele>404.9</ele>
        <time>2018-10-21T07:52:23Z</time>
      </trkpt>
      <trkpt lat="46.39471" lon="2.9653">
        <ele>405.1</ele>
        <time>2018-10-21T07:52:24Z</time>
      </trkpt>
      <trkpt lat="46.39471" lon="2.96522">
        <ele>405.3</ele>
        <time>2018-10-21T07:52:25Z</time>
      </trkpt>
      <trkpt lat="46.39471" lon="2.96514">
        <ele>405</ele>
        <time>2018-10-21T07:52:26Z</time>
      </trkpt>
      <trkpt lat="46.39471" lon="2.96506">
        <ele>404.9</ele>
        <time>2018-10-21T07:52:27Z</time>
      </trkpt>
      <trkpt lat="46.3947" lon="2.96498">
        <ele>404.5</ele>
        <time>2018-10-21T07:52:28Z</time>
      </trkpt>
      <trkpt lat="46.3947" lon="2.9649">
        <ele>404.2</ele>
        <time>2018-10-21T07:52:29Z</time>
      </trkpt>
      <trkpt lat="46.3947" lon="2.96481">
        <ele>404.4</ele>
        <time>2018-10-21T07:52:30Z</time>
      </trkpt>
      <trkpt lat="46.39469" lon="2.96472">
        <ele>404.6</ele>
        <time>2018-10-21T07:52:31Z</time>
      </trkpt>
      <trkpt lat="46.39469" lon="2.96463">
        <ele>404.7</ele>
        <time>2018-10-21T07:52:32Z</time>
      </trkpt>
      <trkpt lat="46.39468" lon="2.96454">
        <ele>404</ele>
        <time>2018-10-21T07:52:33Z</time>
      </trkpt>
      <trkpt lat="46.39468" lon="2.96445">
        <ele>403.5</ele>
        <time>2018-10-21T07:52:34Z</time>
      </trkpt>
      <trkpt lat="46.39468" lon="2.96436">
        <ele>403.4</ele>
        <time>2018-10-21T07:52:35Z</time>
      </trkpt>
      <trkpt lat="46.39468" lon="2.96426">
        <ele>403.3</ele>
        <time>2018-10-21T07:52:36Z</time>
      </trkpt>
      <trkpt lat="46.39468" lon="2.96416">
        <ele>402.8</ele>
        <time>2018-10-21T07:52:37Z</time>
      </trkpt>
      <trkpt lat="46.39468" lon="2.96406">
        <ele>402.3</ele>
        <time>2018-10-21T07:52:38Z</time>
      </trkpt>
      <trkpt lat="46.39468" lon="2.96396">
        <ele>402</ele>
        <time>2018-10-21T07:52:39Z</time>
      </trkpt>
      <trkpt lat="46.39469" lon="2.96387">
        <ele>401.5</ele>
        <time>2018-10-21T07:52:40Z</time>
      </trkpt>
      <trkpt lat="46.39469" lon="2.96377">
        <ele>401.1</ele>
        <time>2018-10-21T07:52:41Z</time>
      </trkpt>
      <trkpt lat="46.39469" lon="2.96368">
        <ele>400.9</ele>
        <time>2018-10-21T07:52:42Z</time>
      </trkpt>
      <trkpt lat="46.39469" lon="2.96359">
        <ele>400.8</ele>
        <time>2018-10-21T07:52:43Z</time>
      </trkpt>
      <trkpt lat="46.3947" lon="2.9635">
        <ele>400.7</ele>
        <time>2018-10-21T07:52:44Z</time>
      </trkpt>
      <trkpt lat="46.3947" lon="2.96341">
        <ele>400.4</ele>
        <time>2018-10-21T07:52:45Z</time>
      </trkpt>
      <trkpt lat="46.39471" lon="2.96333">
        <ele>400.1</ele>
        <time>2018-10-21T07:52:46Z</time>
      </trkpt>
      <trkpt lat="46.39471" lon="2.96324">
        <ele>400.1</ele>
        <time>2018-10-21T07:52:47Z</time>
      </trkpt>
      <trkpt lat="46.39472" lon="2.96316">
        <ele>400.1</ele>
        <time>2018-10-21T07:52:48Z</time>
      </trkpt>
      <trkpt lat="46.39472" lon="2.96308">
        <ele>399.7</ele>
        <time>2018-10-21T07:52:49Z</time>
      </trkpt>
      <trkpt lat="46.39473" lon="2.963">
        <ele>399.5</ele>
        <time>2018-10-21T07:52:50Z</time>
      </trkpt>
      <trkpt lat="46.39473" lon="2.96291">
        <ele>399.2</ele>
        <time>2018-10-21T07:52:51Z</time>
      </trkpt>
      <trkpt lat="46.39474" lon="2.96283">
        <ele>399.1</ele>
        <time>2018-10-21T07:52:52Z</time>
      </trkpt>
      <trkpt lat="46.39475" lon="2.96275">
        <ele>398.9</ele>
        <time>2018-10-21T07:52:53Z</time>
      </trkpt>
      <trkpt lat="46.39476" lon="2.96267">
        <ele>399</ele>
        <time>2018-10-21T07:52:54Z</time>
      </trkpt>
      <trkpt lat="46.39477" lon="2.96259">
        <ele>399</ele>
        <time>2018-10-21T07:52:55Z</time>
      </trkpt>
      <trkpt lat="46.39478" lon="2.96251">
        <ele>399.1</ele>
        <time>2018-10-21T07:52:56Z</time>
      </trkpt>
      <trkpt lat="46.39479" lon="2.96244">
        <ele>399.2</ele>
        <time>2018-10-21T07:52:57Z</time>
      </trkpt>
      <trkpt lat="46.3948" lon="2.96236">
        <ele>399.2</ele>
        <time>2018-10-21T07:52:58Z</time>
      </trkpt>
      <trkpt lat="46.39481" lon="2.96229">
        <ele>399.2</ele>
        <time>2018-10-21T07:52:59Z</time>
      </trkpt>
      <trkpt lat="46.39482" lon="2.96222">
        <ele>399.1</ele>
        <time>2018-10-21T07:53:00Z</time>
      </trkpt>
      <trkpt lat="46.39482" lon="2.96215">
        <ele>399.4</ele>
        <time>2018-10-21T07:53:01Z</time>
      </trkpt>
      <trkpt lat="46.39483" lon="2.96208">
        <ele>399.6</ele>
        <time>2018-10-21T07:53:02Z</time>
      </trkpt>
      <trkpt lat="46.39483" lon="2.962">
        <ele>399.7</ele>
        <time>2018-10-21T07:53:03Z</time>
      </trkpt>
      <trkpt lat="46.39484" lon="2.96192">
        <ele>399.5</ele>
        <time>2018-10-21T07:53:04Z</time>
      </trkpt>
      <trkpt lat="46.39485" lon="2.96185">
        <ele>399.4</ele>
        <time>2018-10-21T07:53:05Z</time>
      </trkpt>
      <trkpt lat="46.39485" lon="2.96177">
        <ele>399.1</ele>
        <time>2018-10-21T07:53:06Z</time>
      </trkpt>
      <trkpt lat="46.39486" lon="2.9617">
        <ele>398.9</ele>
        <time>2018-10-21T07:53:07Z</time>
      </trkpt>
      <trkpt lat="46.39487" lon="2.96162">
        <ele>399.1</ele>
        <time>2018-10-21T07:53:08Z</time>
      </trkpt>
      <trkpt lat="46.39488" lon="2.96155">
        <ele>399.2</ele>
        <time>2018-10-21T07:53:09Z</time>
      </trkpt>
      <trkpt lat="46.39489" lon="2.96147">
        <ele>399.2</ele>
        <time>2018-10-21T07:53:10Z</time>
      </trkpt>
      <trkpt lat="46.39491" lon="2.9614">
        <ele>399.2</ele>
        <time>2018-10-21T07:53:11Z</time>
      </trkpt>
      <trkpt lat="46.39492" lon="2.96133">
        <ele>399.1</ele>
        <time>2018-10-21T07:53:12Z</time>
      </trkpt>
      <trkpt lat="46.39493" lon="2.96125">
        <ele>399.2</ele>
        <time>2018-10-21T07:53:13Z</time>
      </trkpt>
      <trkpt lat="46.39494" lon="2.96117">
        <ele>399.3</ele>
        <time>2018-10-21T07:53:14Z</time>
      </trkpt>
      <trkpt lat="46.39494" lon="2.9611">
        <ele>399.3</ele>
        <time>2018-10-21T07:53:15Z</time>
      </trkpt>
      <trkpt lat="46.39495" lon="2.96102">
        <ele>399.3</ele>
        <time>2018-10-21T07:53:16Z</time>
      </trkpt>
      <trkpt lat="46.39495" lon="2.96095">
        <ele>399.3</ele>
        <time>2018-10-21T07:53:17Z</time>
      </trkpt>
      <trkpt lat="46.39496" lon="2.96088">
        <ele>399.6</ele>
        <time>2018-10-21T07:53:18Z</time>
      </trkpt>
      <trkpt lat="46.39496" lon="2.96081">
        <ele>399.8</ele>
        <time>2018-10-21T07:53:19Z</time>
      </trkpt>
      <trkpt lat="46.39497" lon="2.96073">
        <ele>400</ele>
        <time>2018-10-21T07:53:20Z</time>
      </trkpt>
      <trkpt lat="46.39497" lon="2.96066">
        <ele>400.1</ele>
        <time>2018-10-21T07:53:21Z</time>
      </trkpt>
      <trkpt lat="46.39498" lon="2.96057">
        <ele>400.1</ele>
        <time>2018-10-21T07:53:22Z</time>
      </trkpt>
      <trkpt lat="46.39498" lon="2.9605">
        <ele>400.1</ele>
        <time>2018-10-21T07:53:23Z</time>
      </trkpt>
      <trkpt lat="46.39499" lon="2.96042">
        <ele>400</ele>
        <time>2018-10-21T07:53:24Z</time>
      </trkpt>
      <trkpt lat="46.395" lon="2.96034">
        <ele>400.2</ele>
        <time>2018-10-21T07:53:25Z</time>
      </trkpt>
      <trkpt lat="46.395" lon="2.96026">
        <ele>400.4</ele>
        <time>2018-10-21T07:53:26Z</time>
      </trkpt>
      <trkpt lat="46.39501" lon="2.96018">
        <ele>399.8</ele>
        <time>2018-10-21T07:53:27Z</time>
      </trkpt>
      <trkpt lat="46.39502" lon="2.9601">
        <ele>399.4</ele>
        <time>2018-10-21T07:53:28Z</time>
      </trkpt>
      <trkpt lat="46.39502" lon="2.96001">
        <ele>399</ele>
        <time>2018-10-21T07:53:29Z</time>
      </trkpt>
      <trkpt lat="46.39503" lon="2.95993">
        <ele>398.8</ele>
        <time>2018-10-21T07:53:30Z</time>
      </trkpt>
      <trkpt lat="46.39504" lon="2.95985">
        <ele>398.7</ele>
        <time>2018-10-21T07:53:31Z</time>
      </trkpt>
      <trkpt lat="46.39505" lon="2.95976">
        <ele>398.4</ele>
        <time>2018-10-21T07:53:32Z</time>
      </trkpt>
      <trkpt lat="46.39505" lon="2.95967">
        <ele>398.2</ele>
        <time>2018-10-21T07:53:33Z</time>
      </trkpt>
      <trkpt lat="46.39506" lon="2.95959">
        <ele>398</ele>
        <time>2018-10-21T07:53:34Z</time>
      </trkpt>
      <trkpt lat="46.39507" lon="2.9595">
        <ele>398.5</ele>
        <time>2018-10-21T07:53:35Z</time>
      </trkpt>
      <trkpt lat="46.39508" lon="2.95942">
        <ele>398.9</ele>
        <time>2018-10-21T07:53:36Z</time>
      </trkpt>
      <trkpt lat="46.39508" lon="2.95933">
        <ele>398.3</ele>
        <time>2018-10-21T07:53:37Z</time>
      </trkpt>
      <trkpt lat="46.39509" lon="2.95925">
        <ele>397.8</ele>
        <time>2018-10-21T07:53:38Z</time>
      </trkpt>
      <trkpt lat="46.3951" lon="2.95917">
        <ele>397.4</ele>
        <time>2018-10-21T07:53:39Z</time>
      </trkpt>
      <trkpt lat="46.39511" lon="2.95908">
        <ele>397.2</ele>
        <time>2018-10-21T07:53:40Z</time>
      </trkpt>
      <trkpt lat="46.39512" lon="2.959">
        <ele>397</ele>
        <time>2018-10-21T07:53:41Z</time>
      </trkpt>
      <trkpt lat="46.39512" lon="2.95891">
        <ele>397.1</ele>
        <time>2018-10-21T07:53:42Z</time>
      </trkpt>
      <trkpt lat="46.39513" lon="2.95883">
        <ele>397.1</ele>
        <time>2018-10-21T07:53:43Z</time>
      </trkpt>
      <trkpt lat="46.39514" lon="2.95874">
        <ele>397.1</ele>
        <time>2018-10-21T07:53:44Z</time>
      </trkpt>
      <trkpt lat="46.39515" lon="2.95866">
        <ele>397.2</ele>
        <time>2018-10-21T07:53:45Z</time>
      </trkpt>
      <trkpt lat="46.39515" lon="2.95858">
        <ele>397.2</ele>
        <time>2018-10-21T07:53:46Z</time>
      </trkpt>
      <trkpt lat="46.39516" lon="2.9585">
        <ele>396.9</ele>
        <time>2018-10-21T07:53:47Z</time>
      </trkpt>
      <trkpt lat="46.39516" lon="2.95842">
        <ele>396.7</ele>
        <time>2018-10-21T07:53:48Z</time>
      </trkpt>
      <trkpt lat="46.39516" lon="2.95834">
        <ele>396.6</ele>
        <time>2018-10-21T07:53:49Z</time>
      </trkpt>
      <trkpt lat="46.39516" lon="2.95825">
        <ele>396.5</ele>
        <time>2018-10-21T07:53:50Z</time>
      </trkpt>
      <trkpt lat="46.39516" lon="2.95817">
        <ele>396.6</ele>
        <time>2018-10-21T07:53:51Z</time>
      </trkpt>
      <trkpt lat="46.39516" lon="2.95809">
        <ele>396.6</ele>
        <time>2018-10-21T07:53:52Z</time>
      </trkpt>
      <trkpt lat="46.39517" lon="2.95801">
        <ele>396.6</ele>
        <time>2018-10-21T07:53:53Z</time>
      </trkpt>
      <trkpt lat="46.39517" lon="2.95793">
        <ele>396.4</ele>
        <time>2018-10-21T07:53:54Z</time>
      </trkpt>
      <trkpt lat="46.39517" lon="2.95785">
        <ele>396.2</ele>
        <time>2018-10-21T07:53:55Z</time>
      </trkpt>
      <trkpt lat="46.39517" lon="2.95777">
        <ele>396.1</ele>
        <time>2018-10-21T07:53:56Z</time>
      </trkpt>
      <trkpt lat="46.39517" lon="2.95768">
        <ele>396.1</ele>
        <time>2018-10-21T07:53:57Z</time>
      </trkpt>
      <trkpt lat="46.39518" lon="2.95759">
        <ele>396</ele>
        <time>2018-10-21T07:53:58Z</time>
      </trkpt>
      <trkpt lat="46.39518" lon="2.95751">
        <ele>396</ele>
        <time>2018-10-21T07:53:59Z</time>
      </trkpt>
      <trkpt lat="46.39517" lon="2.95741">
        <ele>395.9</ele>
        <time>2018-10-21T07:54:00Z</time>
      </trkpt>
      <trkpt lat="46.39517" lon="2.95733">
        <ele>396.4</ele>
        <time>2018-10-21T07:54:01Z</time>
      </trkpt>
      <trkpt lat="46.39517" lon="2.95724">
        <ele>396.8</ele>
        <time>2018-10-21T07:54:02Z</time>
      </trkpt>
      <trkpt lat="46.39516" lon="2.95715">
        <ele>396.8</ele>
        <time>2018-10-21T07:54:03Z</time>
      </trkpt>
      <trkpt lat="46.39515" lon="2.95706">
        <ele>396.8</ele>
        <time>2018-10-21T07:54:04Z</time>
      </trkpt>
      <trkpt lat="46.39514" lon="2.95697">
        <ele>396.8</ele>
        <time>2018-10-21T07:54:05Z</time>
      </trkpt>
      <trkpt lat="46.39513" lon="2.95689">
        <ele>397.1</ele>
        <time>2018-10-21T07:54:06Z</time>
      </trkpt>
      <trkpt lat="46.39512" lon="2.9568">
        <ele>397.4</ele>
        <time>2018-10-21T07:54:07Z</time>
      </trkpt>
      <trkpt lat="46.39511" lon="2.95672">
        <ele>397</ele>
        <time>2018-10-21T07:54:08Z</time>
      </trkpt>
      <trkpt lat="46.3951" lon="2.95664">
        <ele>396.7</ele>
        <time>2018-10-21T07:54:09Z</time>
      </trkpt>
      <trkpt lat="46.39508" lon="2.95656">
        <ele>396.2</ele>
        <time>2018-10-21T07:54:10Z</time>
      </trkpt>
      <trkpt lat="46.39507" lon="2.95648">
        <ele>395.9</ele>
        <time>2018-10-21T07:54:11Z</time>
      </trkpt>
      <trkpt lat="46.39505" lon="2.9564">
        <ele>395.6</ele>
        <time>2018-10-21T07:54:12Z</time>
      </trkpt>
      <trkpt lat="46.39504" lon="2.95632">
        <ele>395.3</ele>
        <time>2018-10-21T07:54:13Z</time>
      </trkpt>
      <trkpt lat="46.39502" lon="2.95624">
        <ele>395.2</ele>
        <time>2018-10-21T07:54:14Z</time>
      </trkpt>
      <trkpt lat="46.39501" lon="2.95616">
        <ele>394.7</ele>
        <time>2018-10-21T07:54:15Z</time>
      </trkpt>
      <trkpt lat="46.39499" lon="2.95607">
        <ele>394.4</ele>
        <time>2018-10-21T07:54:16Z</time>
      </trkpt>
      <trkpt lat="46.39497" lon="2.95599">
        <ele>394.5</ele>
        <time>2018-10-21T07:54:17Z</time>
      </trkpt>
      <trkpt lat="46.39496" lon="2.95591">
        <ele>394.6</ele>
        <time>2018-10-21T07:54:18Z</time>
      </trkpt>
      <trkpt lat="46.39494" lon="2.95578">
        <ele>394.4</ele>
        <time>2018-10-21T07:54:20Z</time>
      </trkpt>
      <trkpt lat="46.39488" lon="2.95571">
        <ele>394.1</ele>
        <time>2018-10-21T07:54:22Z</time>
      </trkpt>
      <trkpt lat="46.39483" lon="2.95571">
        <ele>394.2</ele>
        <time>2018-10-21T07:54:23Z</time>
      </trkpt>
      <trkpt lat="46.39478" lon="2.9557">
        <ele>393.8</ele>
        <time>2018-10-21T07:54:24Z</time>
      </trkpt>
      <trkpt lat="46.39473" lon="2.95569">
        <ele>393.6</ele>
        <time>2018-10-21T07:54:25Z</time>
      </trkpt>
      <trkpt lat="46.39468" lon="2.95568">
        <ele>393.4</ele>
        <time>2018-10-21T07:54:26Z</time>
      </trkpt>
      <trkpt lat="46.39462" lon="2.95568">
        <ele>393.2</ele>
        <time>2018-10-21T07:54:27Z</time>
      </trkpt>
      <trkpt lat="46.39456" lon="2.95568">
        <ele>393</ele>
        <time>2018-10-21T07:54:28Z</time>
      </trkpt>
      <trkpt lat="46.3945" lon="2.95568">
        <ele>392.8</ele>
        <time>2018-10-21T07:54:29Z</time>
      </trkpt>
      <trkpt lat="46.39444" lon="2.95568">
        <ele>392.6</ele>
        <time>2018-10-21T07:54:30Z</time>
      </trkpt>
      <trkpt lat="46.39438" lon="2.95568">
        <ele>392.4</ele>
        <time>2018-10-21T07:54:31Z</time>
      </trkpt>
      <trkpt lat="46.39432" lon="2.95567">
        <ele>392.2</ele>
        <time>2018-10-21T07:54:32Z</time>
      </trkpt>
      <trkpt lat="46.39426" lon="2.95566">
        <ele>392</ele>
        <time>2018-10-21T07:54:33Z</time>
      </trkpt>
      <trkpt lat="46.39419" lon="2.95564">
        <ele>392.1</ele>
        <time>2018-10-21T07:54:34Z</time>
      </trkpt>
      <trkpt lat="46.39413" lon="2.95563">
        <ele>392.1</ele>
        <time>2018-10-21T07:54:35Z</time>
      </trkpt>
      <trkpt lat="46.39407" lon="2.95562">
        <ele>392.1</ele>
        <time>2018-10-21T07:54:36Z</time>
      </trkpt>
      <trkpt lat="46.39401" lon="2.95561">
        <ele>392.2</ele>
        <time>2018-10-21T07:54:37Z</time>
      </trkpt>
      <trkpt lat="46.39395" lon="2.9556">
        <ele>392.2</ele>
        <time>2018-10-21T07:54:38Z</time>
      </trkpt>
      <trkpt lat="46.39389" lon="2.95558">
        <ele>391.7</ele>
        <time>2018-10-21T07:54:39Z</time>
      </trkpt>
      <trkpt lat="46.39383" lon="2.95556">
        <ele>391.3</ele>
        <time>2018-10-21T07:54:40Z</time>
      </trkpt>
      <trkpt lat="46.39377" lon="2.95554">
        <ele>391.4</ele>
        <time>2018-10-21T07:54:41Z</time>
      </trkpt>
      <trkpt lat="46.39372" lon="2.95551">
        <ele>391.4</ele>
        <time>2018-10-21T07:54:42Z</time>
      </trkpt>
      <trkpt lat="46.39366" lon="2.95549">
        <ele>391.5</ele>
        <time>2018-10-21T07:54:43Z</time>
      </trkpt>
      <trkpt lat="46.39361" lon="2.95546">
        <ele>391.2</ele>
        <time>2018-10-21T07:54:44Z</time>
      </trkpt>
      <trkpt lat="46.39356" lon="2.95543">
        <ele>391.1</ele>
        <time>2018-10-21T07:54:45Z</time>
      </trkpt>
      <trkpt lat="46.3935" lon="2.95539">
        <ele>391.3</ele>
        <time>2018-10-21T07:54:46Z</time>
      </trkpt>
      <trkpt lat="46.39345" lon="2.95536">
        <ele>391.4</ele>
        <time>2018-10-21T07:54:47Z</time>
      </trkpt>
      <trkpt lat="46.3934" lon="2.95533">
        <ele>391.4</ele>
        <time>2018-10-21T07:54:48Z</time>
      </trkpt>
      <trkpt lat="46.39335" lon="2.95529">
        <ele>391.4</ele>
        <time>2018-10-21T07:54:49Z</time>
      </trkpt>
      <trkpt lat="46.3933" lon="2.95526">
        <ele>391.4</ele>
        <time>2018-10-21T07:54:50Z</time>
      </trkpt>
      <trkpt lat="46.39325" lon="2.95523">
        <ele>391.1</ele>
        <time>2018-10-21T07:54:51Z</time>
      </trkpt>
      <trkpt lat="46.3932" lon="2.9552">
        <ele>390.9</ele>
        <time>2018-10-21T07:54:52Z</time>
      </trkpt>
      <trkpt lat="46.39315" lon="2.95517">
        <ele>390.9</ele>
        <time>2018-10-21T07:54:53Z</time>
      </trkpt>
      <trkpt lat="46.3931" lon="2.95514">
        <ele>390.9</ele>
        <time>2018-10-21T07:54:54Z</time>
      </trkpt>
      <trkpt lat="46.39305" lon="2.95511">
        <ele>390.9</ele>
        <time>2018-10-21T07:54:55Z</time>
      </trkpt>
      <trkpt lat="46.393" lon="2.95508">
        <ele>391</ele>
        <time>2018-10-21T07:54:56Z</time>
      </trkpt>
      <trkpt lat="46.39295" lon="2.95505">
        <ele>391</ele>
        <time>2018-10-21T07:54:57Z</time>
      </trkpt>
      <trkpt lat="46.3929" lon="2.95501">
        <ele>391</ele>
        <time>2018-10-21T07:54:58Z</time>
      </trkpt>
      <trkpt lat="46.39285" lon="2.95498">
        <ele>391.1</ele>
        <time>2018-10-21T07:54:59Z</time>
      </trkpt>
      <trkpt lat="46.3928" lon="2.95495">
        <ele>391.1</ele>
        <time>2018-10-21T07:55:00Z</time>
      </trkpt>
      <trkpt lat="46.39275" lon="2.95492">
        <ele>391.1</ele>
        <time>2018-10-21T07:55:01Z</time>
      </trkpt>
      <trkpt lat="46.3927" lon="2.95488">
        <ele>391.1</ele>
        <time>2018-10-21T07:55:02Z</time>
      </trkpt>
      <trkpt lat="46.39265" lon="2.95485">
        <ele>391.1</ele>
        <time>2018-10-21T07:55:03Z</time>
      </trkpt>
      <trkpt lat="46.3926" lon="2.95482">
        <ele>391.1</ele>
        <time>2018-10-21T07:55:04Z</time>
      </trkpt>
      <trkpt lat="46.39255" lon="2.95479">
        <ele>391.4</ele>
        <time>2018-10-21T07:55:05Z</time>
      </trkpt>
      <trkpt lat="46.3925" lon="2.95475">
        <ele>391.5</ele>
        <time>2018-10-21T07:55:06Z</time>
      </trkpt>
      <trkpt lat="46.39245" lon="2.95472">
        <ele>391.5</ele>
        <time>2018-10-21T07:55:07Z</time>
      </trkpt>
      <trkpt lat="46.3924" lon="2.95469">
        <ele>391.4</ele>
        <time>2018-10-21T07:55:08Z</time>
      </trkpt>
      <trkpt lat="46.39235" lon="2.95466">
        <ele>391.4</ele>
        <time>2018-10-21T07:55:09Z</time>
      </trkpt>
      <trkpt lat="46.3923" lon="2.95463">
        <ele>391.3</ele>
        <time>2018-10-21T07:55:10Z</time>
      </trkpt>
      <trkpt lat="46.39225" lon="2.9546">
        <ele>391.3</ele>
        <time>2018-10-21T07:55:11Z</time>
      </trkpt>
      <trkpt lat="46.3922" lon="2.95457">
        <ele>391.2</ele>
        <time>2018-10-21T07:55:12Z</time>
      </trkpt>
      <trkpt lat="46.39215" lon="2.95455">
        <ele>391.1</ele>
        <time>2018-10-21T07:55:13Z</time>
      </trkpt>
      <trkpt lat="46.39211" lon="2.95454">
        <ele>391</ele>
        <time>2018-10-21T07:55:14Z</time>
      </trkpt>
      <trkpt lat="46.39206" lon="2.95453">
        <ele>390.7</ele>
        <time>2018-10-21T07:55:15Z</time>
      </trkpt>
      <trkpt lat="46.39201" lon="2.95451">
        <ele>390.6</ele>
        <time>2018-10-21T07:55:16Z</time>
      </trkpt>
      <trkpt lat="46.39197" lon="2.9545">
        <ele>390.7</ele>
        <time>2018-10-21T07:55:17Z</time>
      </trkpt>
      <trkpt lat="46.39192" lon="2.95449">
        <ele>390.8</ele>
        <time>2018-10-21T07:55:18Z</time>
      </trkpt>
      <trkpt lat="46.39187" lon="2.95448">
        <ele>390.6</ele>
        <time>2018-10-21T07:55:19Z</time>
      </trkpt>
      <trkpt lat="46.39182" lon="2.95447">
        <ele>390.5</ele>
        <time>2018-10-21T07:55:20Z</time>
      </trkpt>
      <trkpt lat="46.39177" lon="2.95446">
        <ele>390.4</ele>
        <time>2018-10-21T07:55:21Z</time>
      </trkpt>
      <trkpt lat="46.39173" lon="2.95445">
        <ele>390.5</ele>
        <time>2018-10-21T07:55:22Z</time>
      </trkpt>
      <trkpt lat="46.39168" lon="2.95443">
        <ele>390.5</ele>
        <time>2018-10-21T07:55:23Z</time>
      </trkpt>
      <trkpt lat="46.39164" lon="2.95442">
        <ele>390.9</ele>
        <time>2018-10-21T07:55:24Z</time>
      </trkpt>
      <trkpt lat="46.39159" lon="2.95441">
        <ele>391.2</ele>
        <time>2018-10-21T07:55:25Z</time>
      </trkpt>
      <trkpt lat="46.39154" lon="2.9544">
        <ele>391.4</ele>
        <time>2018-10-21T07:55:26Z</time>
      </trkpt>
      <trkpt lat="46.39149" lon="2.95439">
        <ele>391.2</ele>
        <time>2018-10-21T07:55:27Z</time>
      </trkpt>
      <trkpt lat="46.39144" lon="2.95437">
        <ele>391</ele>
        <time>2018-10-21T07:55:28Z</time>
      </trkpt>
      <trkpt lat="46.39139" lon="2.95436">
        <ele>390.6</ele>
        <time>2018-10-21T07:55:29Z</time>
      </trkpt>
      <trkpt lat="46.39134" lon="2.95434">
        <ele>390.3</ele>
        <time>2018-10-21T07:55:30Z</time>
      </trkpt>
      <trkpt lat="46.39128" lon="2.95433">
        <ele>390.1</ele>
        <time>2018-10-21T07:55:31Z</time>
      </trkpt>
      <trkpt lat="46.39123" lon="2.95432">
        <ele>390</ele>
        <time>2018-10-21T07:55:32Z</time>
      </trkpt>
      <trkpt lat="46.39117" lon="2.9543">
        <ele>389.9</ele>
        <time>2018-10-21T07:55:33Z</time>
      </trkpt>
      <trkpt lat="46.39112" lon="2.95429">
        <ele>389.5</ele>
        <time>2018-10-21T07:55:34Z</time>
      </trkpt>
      <trkpt lat="46.39106" lon="2.95428">
        <ele>389.2</ele>
        <time>2018-10-21T07:55:35Z</time>
      </trkpt>
      <trkpt lat="46.39101" lon="2.95427">
        <ele>389.4</ele>
        <time>2018-10-21T07:55:36Z</time>
      </trkpt>
      <trkpt lat="46.39095" lon="2.95426">
        <ele>389.5</ele>
        <time>2018-10-21T07:55:37Z</time>
      </trkpt>
      <trkpt lat="46.3909" lon="2.95427">
        <ele>389.3</ele>
        <time>2018-10-21T07:55:38Z</time>
      </trkpt>
      <trkpt lat="46.39084" lon="2.95428">
        <ele>389.1</ele>
        <time>2018-10-21T07:55:39Z</time>
      </trkpt>
      <trkpt lat="46.39079" lon="2.95431">
        <ele>388.9</ele>
        <time>2018-10-21T07:55:40Z</time>
      </trkpt>
      <trkpt lat="46.39075" lon="2.95435">
        <ele>388.8</ele>
        <time>2018-10-21T07:55:41Z</time>
      </trkpt>
      <trkpt lat="46.3907" lon="2.9544">
        <ele>388.8</ele>
        <time>2018-10-21T07:55:42Z</time>
      </trkpt>
      <trkpt lat="46.39066" lon="2.95444">
        <ele>389.2</ele>
        <time>2018-10-21T07:55:43Z</time>
      </trkpt>
      <trkpt lat="46.39062" lon="2.95449">
        <ele>389.5</ele>
        <time>2018-10-21T07:55:44Z</time>
      </trkpt>
      <trkpt lat="46.39057" lon="2.95454">
        <ele>389.7</ele>
        <time>2018-10-21T07:55:45Z</time>
      </trkpt>
      <trkpt lat="46.39053" lon="2.95459">
        <ele>389.3</ele>
        <time>2018-10-21T07:55:46Z</time>
      </trkpt>
      <trkpt lat="46.39049" lon="2.95463">
        <ele>389</ele>
        <time>2018-10-21T07:55:47Z</time>
      </trkpt>
      <trkpt lat="46.39045" lon="2.95468">
        <ele>389</ele>
        <time>2018-10-21T07:55:48Z</time>
      </trkpt>
      <trkpt lat="46.3904" lon="2.95473">
        <ele>389</ele>
        <time>2018-10-21T07:55:49Z</time>
      </trkpt>
      <trkpt lat="46.39036" lon="2.95478">
        <ele>388.6</ele>
        <time>2018-10-21T07:55:50Z</time>
      </trkpt>
      <trkpt lat="46.39032" lon="2.95482">
        <ele>388.4</ele>
        <time>2018-10-21T07:55:51Z</time>
      </trkpt>
      <trkpt lat="46.39028" lon="2.95487">
        <ele>388.2</ele>
        <time>2018-10-21T07:55:52Z</time>
      </trkpt>
      <trkpt lat="46.39024" lon="2.95492">
        <ele>388.1</ele>
        <time>2018-10-21T07:55:53Z</time>
      </trkpt>
      <trkpt lat="46.39019" lon="2.95496">
        <ele>388</ele>
        <time>2018-10-21T07:55:54Z</time>
      </trkpt>
      <trkpt lat="46.39014" lon="2.95501">
        <ele>387.9</ele>
        <time>2018-10-21T07:55:55Z</time>
      </trkpt>
      <trkpt lat="46.39009" lon="2.95504">
        <ele>387.8</ele>
        <time>2018-10-21T07:55:56Z</time>
      </trkpt>
      <trkpt lat="46.39004" lon="2.95506">
        <ele>387.6</ele>
        <time>2018-10-21T07:55:57Z</time>
      </trkpt>
      <trkpt lat="46.38998" lon="2.95506">
        <ele>387.4</ele>
        <time>2018-10-21T07:55:58Z</time>
      </trkpt>
      <trkpt lat="46.38992" lon="2.95505">
        <ele>387.3</ele>
        <time>2018-10-21T07:55:59Z</time>
      </trkpt>
      <trkpt lat="46.38985" lon="2.95502">
        <ele>386.7</ele>
        <time>2018-10-21T07:56:00Z</time>
      </trkpt>
      <trkpt lat="46.38979" lon="2.95498">
        <ele>386.3</ele>
        <time>2018-10-21T07:56:01Z</time>
      </trkpt>
      <trkpt lat="46.38973" lon="2.95494">
        <ele>385.7</ele>
        <time>2018-10-21T07:56:02Z</time>
      </trkpt>
      <trkpt lat="46.38966" lon="2.95489">
        <ele>385.3</ele>
        <time>2018-10-21T07:56:03Z</time>
      </trkpt>
      <trkpt lat="46.38959" lon="2.95484">
        <ele>384.9</ele>
        <time>2018-10-21T07:56:04Z</time>
      </trkpt>
      <trkpt lat="46.38952" lon="2.95479">
        <ele>384.4</ele>
        <time>2018-10-21T07:56:05Z</time>
      </trkpt>
      <trkpt lat="46.38945" lon="2.95475">
        <ele>384</ele>
        <time>2018-10-21T07:56:06Z</time>
      </trkpt>
      <trkpt lat="46.38937" lon="2.9547">
        <ele>383.5</ele>
        <time>2018-10-21T07:56:07Z</time>
      </trkpt>
      <trkpt lat="46.38929" lon="2.95465">
        <ele>383</ele>
        <time>2018-10-21T07:56:08Z</time>
      </trkpt>
      <trkpt lat="46.38921" lon="2.95461">
        <ele>382.6</ele>
        <time>2018-10-21T07:56:09Z</time>
      </trkpt>
      <trkpt lat="46.38912" lon="2.95458">
        <ele>382.3</ele>
        <time>2018-10-21T07:56:10Z</time>
      </trkpt>
      <trkpt lat="46.38904" lon="2.95456">
        <ele>382</ele>
        <time>2018-10-21T07:56:11Z</time>
      </trkpt>
      <trkpt lat="46.38895" lon="2.95456">
        <ele>381.6</ele>
        <time>2018-10-21T07:56:12Z</time>
      </trkpt>
      <trkpt lat="46.38886" lon="2.95456">
        <ele>381.3</ele>
        <time>2018-10-21T07:56:13Z</time>
      </trkpt>
      <trkpt lat="46.38878" lon="2.95457">
        <ele>380.8</ele>
        <time>2018-10-21T07:56:14Z</time>
      </trkpt>
      <trkpt lat="46.38869" lon="2.95458">
        <ele>380.5</ele>
        <time>2018-10-21T07:56:15Z</time>
      </trkpt>
      <trkpt lat="46.38861" lon="2.95459">
        <ele>380.2</ele>
        <time>2018-10-21T07:56:16Z</time>
      </trkpt>
      <trkpt lat="46.38853" lon="2.95459">
        <ele>380</ele>
        <time>2018-10-21T07:56:17Z</time>
      </trkpt>
      <trkpt lat="46.38846" lon="2.9546">
        <ele>379.8</ele>
        <time>2018-10-21T07:56:18Z</time>
      </trkpt>
      <trkpt lat="46.38838" lon="2.9546">
        <ele>379.8</ele>
        <time>2018-10-21T07:56:19Z</time>
      </trkpt>
      <trkpt lat="46.38831" lon="2.95459">
        <ele>379.8</ele>
        <time>2018-10-21T07:56:20Z</time>
      </trkpt>
      <trkpt lat="46.38824" lon="2.95458">
        <ele>379.7</ele>
        <time>2018-10-21T07:56:21Z</time>
      </trkpt>
      <trkpt lat="46.38818" lon="2.95456">
        <ele>379.6</ele>
        <time>2018-10-21T07:56:22Z</time>
      </trkpt>
      <trkpt lat="46.38811" lon="2.95454">
        <ele>379.5</ele>
        <time>2018-10-21T07:56:23Z</time>
      </trkpt>
      <trkpt lat="46.38805" lon="2.95452">
        <ele>379.4</ele>
        <time>2018-10-21T07:56:24Z</time>
      </trkpt>
      <trkpt lat="46.38799" lon="2.9545">
        <ele>379.4</ele>
        <time>2018-10-21T07:56:25Z</time>
      </trkpt>
      <trkpt lat="46.38793" lon="2.95447">
        <ele>379.4</ele>
        <time>2018-10-21T07:56:26Z</time>
      </trkpt>
      <trkpt lat="46.38787" lon="2.95444">
        <ele>379.4</ele>
        <time>2018-10-21T07:56:27Z</time>
      </trkpt>
      <trkpt lat="46.38782" lon="2.95441">
        <ele>379.2</ele>
        <time>2018-10-21T07:56:28Z</time>
      </trkpt>
      <trkpt lat="46.38776" lon="2.95436">
        <ele>379</ele>
        <time>2018-10-21T07:56:29Z</time>
      </trkpt>
      <trkpt lat="46.38771" lon="2.9543">
        <ele>378.9</ele>
        <time>2018-10-21T07:56:30Z</time>
      </trkpt>
      <trkpt lat="46.38766" lon="2.95424">
        <ele>378.9</ele>
        <time>2018-10-21T07:56:31Z</time>
      </trkpt>
      <trkpt lat="46.38762" lon="2.95418">
        <ele>378.9</ele>
        <time>2018-10-21T07:56:32Z</time>
      </trkpt>
      <trkpt lat="46.38758" lon="2.9541">
        <ele>378.7</ele>
        <time>2018-10-21T07:56:33Z</time>
      </trkpt>
      <trkpt lat="46.38753" lon="2.95403">
        <ele>378.5</ele>
        <time>2018-10-21T07:56:34Z</time>
      </trkpt>
      <trkpt lat="46.38749" lon="2.95395">
        <ele>378.4</ele>
        <time>2018-10-21T07:56:35Z</time>
      </trkpt>
      <trkpt lat="46.38744" lon="2.95387">
        <ele>378.1</ele>
        <time>2018-10-21T07:56:36Z</time>
      </trkpt>
      <trkpt lat="46.3874" lon="2.95379">
        <ele>377.9</ele>
        <time>2018-10-21T07:56:37Z</time>
      </trkpt>
      <trkpt lat="46.38735" lon="2.9537">
        <ele>377.5</ele>
        <time>2018-10-21T07:56:38Z</time>
      </trkpt>
      <trkpt lat="46.3873" lon="2.95362">
        <ele>377.2</ele>
        <time>2018-10-21T07:56:39Z</time>
      </trkpt>
      <trkpt lat="46.38726" lon="2.95355">
        <ele>376.7</ele>
        <time>2018-10-21T07:56:40Z</time>
      </trkpt>
      <trkpt lat="46.38722" lon="2.95345">
        <ele>376.4</ele>
        <time>2018-10-21T07:56:41Z</time>
      </trkpt>
      <trkpt lat="46.38719" lon="2.95335">
        <ele>376.1</ele>
        <time>2018-10-21T07:56:42Z</time>
      </trkpt>
      <trkpt lat="46.38718" lon="2.95324">
        <ele>376</ele>
        <time>2018-10-21T07:56:43Z</time>
      </trkpt>
      <trkpt lat="46.38716" lon="2.95312">
        <ele>375.9</ele>
        <time>2018-10-21T07:56:44Z</time>
      </trkpt>
      <trkpt lat="46.38714" lon="2.95301">
        <ele>375</ele>
        <time>2018-10-21T07:56:45Z</time>
      </trkpt>
      <trkpt lat="46.38712" lon="2.9529">
        <ele>374.3</ele>
        <time>2018-10-21T07:56:46Z</time>
      </trkpt>
      <trkpt lat="46.3871" lon="2.95279">
        <ele>373.8</ele>
        <time>2018-10-21T07:56:47Z</time>
      </trkpt>
      <trkpt lat="46.38707" lon="2.95268">
        <ele>372.5</ele>
        <time>2018-10-21T07:56:48Z</time>
      </trkpt>
      <trkpt lat="46.38705" lon="2.95257">
        <ele>371.5</ele>
        <time>2018-10-21T07:56:49Z</time>
      </trkpt>
      <trkpt lat="46.38704" lon="2.95247">
        <ele>369.7</ele>
        <time>2018-10-21T07:56:50Z</time>
      </trkpt>
      <trkpt lat="46.38702" lon="2.95237">
        <ele>368.3</ele>
        <time>2018-10-21T07:56:51Z</time>
      </trkpt>
      <trkpt lat="46.387" lon="2.95228">
        <ele>366.3</ele>
        <time>2018-10-21T07:56:52Z</time>
      </trkpt>
      <trkpt lat="46.38698" lon="2.9522">
        <ele>364.8</ele>
        <time>2018-10-21T07:56:53Z</time>
      </trkpt>
      <trkpt lat="46.38696" lon="2.95212">
        <ele>363.7</ele>
        <time>2018-10-21T07:56:54Z</time>
      </trkpt>
      <trkpt lat="46.38693" lon="2.95203">
        <ele>362.3</ele>
        <time>2018-10-21T07:56:55Z</time>
      </trkpt>
      <trkpt lat="46.38691" lon="2.95193">
        <ele>361.3</ele>
        <time>2018-10-21T07:56:56Z</time>
      </trkpt>
      <trkpt lat="46.38687" lon="2.95182">
        <ele>359.6</ele>
        <time>2018-10-21T07:56:57Z</time>
      </trkpt>
      <trkpt lat="46.38681" lon="2.95171">
        <ele>358.3</ele>
        <time>2018-10-21T07:56:58Z</time>
      </trkpt>
      <trkpt lat="46.38675" lon="2.9516">
        <ele>356.8</ele>
        <time>2018-10-21T07:56:59Z</time>
      </trkpt>
      <trkpt lat="46.3867" lon="2.95148">
        <ele>355.6</ele>
        <time>2018-10-21T07:57:00Z</time>
      </trkpt>
      <trkpt lat="46.38666" lon="2.95136">
        <ele>354.8</ele>
        <time>2018-10-21T07:57:01Z</time>
      </trkpt>
      <trkpt lat="46.38664" lon="2.95125">
        <ele>354</ele>
        <time>2018-10-21T07:57:02Z</time>
      </trkpt>
      <trkpt lat="46.38661" lon="2.95116">
        <ele>353.5</ele>
        <time>2018-10-21T07:57:03Z</time>
      </trkpt>
      <trkpt lat="46.38659" lon="2.95108">
        <ele>353.5</ele>
        <time>2018-10-21T07:57:04Z</time>
      </trkpt>
      <trkpt lat="46.38657" lon="2.95102">
        <ele>353.5</ele>
        <time>2018-10-21T07:57:05Z</time>
      </trkpt>
      <trkpt lat="46.38655" lon="2.9509">
        <ele>353.9</ele>
        <time>2018-10-21T07:57:07Z</time>
      </trkpt>
      <trkpt lat="46.38653" lon="2.95078">
        <ele>354.6</ele>
        <time>2018-10-21T07:57:09Z</time>
      </trkpt>
      <trkpt lat="46.3865" lon="2.95067">
        <ele>355.5</ele>
        <time>2018-10-21T07:57:11Z</time>
      </trkpt>
      <trkpt lat="46.38647" lon="2.95058">
        <ele>356.4</ele>
        <time>2018-10-21T07:57:13Z</time>
      </trkpt>
      <trkpt lat="46.38644" lon="2.95048">
        <ele>357.1</ele>
        <time>2018-10-21T07:57:15Z</time>
      </trkpt>
      <trkpt lat="46.38642" lon="2.9504">
        <ele>357.6</ele>
        <time>2018-10-21T07:57:17Z</time>
      </trkpt>
      <trkpt lat="46.38639" lon="2.95032">
        <ele>358</ele>
        <time>2018-10-21T07:57:19Z</time>
      </trkpt>
      <trkpt lat="46.38635" lon="2.9502">
        <ele>358.6</ele>
        <time>2018-10-21T07:57:22Z</time>
      </trkpt>
      <trkpt lat="46.38631" lon="2.95009">
        <ele>359.6</ele>
        <time>2018-10-21T07:57:25Z</time>
      </trkpt>
      <trkpt lat="46.38627" lon="2.94998">
        <ele>360.8</ele>
        <time>2018-10-21T07:57:28Z</time>
      </trkpt>
      <trkpt lat="46.38623" lon="2.94989">
        <ele>362.8</ele>
        <time>2018-10-21T07:57:31Z</time>
      </trkpt>
      <trkpt lat="46.38619" lon="2.9498">
        <ele>363.8</ele>
        <time>2018-10-21T07:57:34Z</time>
      </trkpt>
      <trkpt lat="46.38616" lon="2.9497">
        <ele>364.1</ele>
        <time>2018-10-21T07:57:37Z</time>
      </trkpt>
      <trkpt lat="46.38612" lon="2.9496">
        <ele>365</ele>
        <time>2018-10-21T07:57:40Z</time>
      </trkpt>
      <trkpt lat="46.38608" lon="2.94951">
        <ele>366.1</ele>
        <time>2018-10-21T07:57:43Z</time>
      </trkpt>
      <trkpt lat="46.38604" lon="2.9494">
        <ele>367.3</ele>
        <time>2018-10-21T07:57:46Z</time>
      </trkpt>
      <trkpt lat="46.386" lon="2.94929">
        <ele>367.7</ele>
        <time>2018-10-21T07:57:49Z</time>
      </trkpt>
      <trkpt lat="46.38596" lon="2.94918">
        <ele>368.6</ele>
        <time>2018-10-21T07:57:52Z</time>
      </trkpt>
      <trkpt lat="46.38591" lon="2.94908">
        <ele>368</ele>
        <time>2018-10-21T07:57:55Z</time>
      </trkpt>
      <trkpt lat="46.38587" lon="2.94896">
        <ele>368.8</ele>
        <time>2018-10-21T07:57:58Z</time>
      </trkpt>
      <trkpt lat="46.38585" lon="2.94888">
        <ele>369.4</ele>
        <time>2018-10-21T07:58:00Z</time>
      </trkpt>
      <trkpt lat="46.38582" lon="2.9488">
        <ele>369.4</ele>
        <time>2018-10-21T07:58:02Z</time>
      </trkpt>
      <trkpt lat="46.38581" lon="2.94876">
        <ele>369.4</ele>
        <time>2018-10-21T07:58:03Z</time>
      </trkpt>
      <trkpt lat="46.38574" lon="2.94861">
        <ele>370.8</ele>
        <time>2018-10-21T07:58:07Z</time>
      </trkpt>
      <trkpt lat="46.38571" lon="2.94853">
        <ele>370.9</ele>
        <time>2018-10-21T07:58:09Z</time>
      </trkpt>
      <trkpt lat="46.38568" lon="2.94846">
        <ele>371.4</ele>
        <time>2018-10-21T07:58:11Z</time>
      </trkpt>
      <trkpt lat="46.38564" lon="2.94839">
        <ele>372.4</ele>
        <time>2018-10-21T07:58:13Z</time>
      </trkpt>
      <trkpt lat="46.3856" lon="2.94831">
        <ele>373.2</ele>
        <time>2018-10-21T07:58:15Z</time>
      </trkpt>
      <trkpt lat="46.38556" lon="2.94823">
        <ele>373.6</ele>
        <time>2018-10-21T07:58:17Z</time>
      </trkpt>
      <trkpt lat="46.38552" lon="2.94815">
        <ele>373.9</ele>
        <time>2018-10-21T07:58:19Z</time>
      </trkpt>
      <trkpt lat="46.38547" lon="2.94808">
        <ele>374.1</ele>
        <time>2018-10-21T07:58:21Z</time>
      </trkpt>
      <trkpt lat="46.38544" lon="2.948">
        <ele>374.3</ele>
        <time>2018-10-21T07:58:23Z</time>
      </trkpt>
      <trkpt lat="46.3854" lon="2.94791">
        <ele>374.6</ele>
        <time>2018-10-21T07:58:25Z</time>
      </trkpt>
      <trkpt lat="46.38537" lon="2.94783">
        <ele>374.9</ele>
        <time>2018-10-21T07:58:27Z</time>
      </trkpt>
      <trkpt lat="46.38533" lon="2.94774">
        <ele>375.1</ele>
        <time>2018-10-21T07:58:29Z</time>
      </trkpt>
      <trkpt lat="46.3853" lon="2.94765">
        <ele>375.3</ele>
        <time>2018-10-21T07:58:31Z</time>
      </trkpt>
      <trkpt lat="46.38527" lon="2.94755">
        <ele>375.7</ele>
        <time>2018-10-21T07:58:33Z</time>
      </trkpt>
      <trkpt lat="46.38525" lon="2.94746">
        <ele>376</ele>
        <time>2018-10-21T07:58:35Z</time>
      </trkpt>
      <trkpt lat="46.38522" lon="2.94737">
        <ele>376.3</ele>
        <time>2018-10-21T07:58:37Z</time>
      </trkpt>
      <trkpt lat="46.38519" lon="2.94728">
        <ele>376.9</ele>
        <time>2018-10-21T07:58:39Z</time>
      </trkpt>
      <trkpt lat="46.38515" lon="2.94718">
        <ele>377.5</ele>
        <time>2018-10-21T07:58:41Z</time>
      </trkpt>
      <trkpt lat="46.38512" lon="2.94708">
        <ele>377.3</ele>
        <time>2018-10-21T07:58:43Z</time>
      </trkpt>
      <trkpt lat="46.38508" lon="2.94698">
        <ele>377.3</ele>
        <time>2018-10-21T07:58:45Z</time>
      </trkpt>
      <trkpt lat="46.38504" lon="2.94688">
        <ele>377.8</ele>
        <time>2018-10-21T07:58:47Z</time>
      </trkpt>
      <trkpt lat="46.385" lon="2.94678">
        <ele>377.9</ele>
        <time>2018-10-21T07:58:49Z</time>
      </trkpt>
      <trkpt lat="46.38497" lon="2.94667">
        <ele>378</ele>
        <time>2018-10-21T07:58:51Z</time>
      </trkpt>
      <trkpt lat="46.38493" lon="2.94657">
        <ele>378.2</ele>
        <time>2018-10-21T07:58:53Z</time>
      </trkpt>
      <trkpt lat="46.38489" lon="2.94646">
        <ele>379</ele>
        <time>2018-10-21T07:58:55Z</time>
      </trkpt>
      <trkpt lat="46.38485" lon="2.94636">
        <ele>378.9</ele>
        <time>2018-10-21T07:58:57Z</time>
      </trkpt>
      <trkpt lat="46.38481" lon="2.94625">
        <ele>379.3</ele>
        <time>2018-10-21T07:58:59Z</time>
      </trkpt>
      <trkpt lat="46.38477" lon="2.94614">
        <ele>379.7</ele>
        <time>2018-10-21T07:59:01Z</time>
      </trkpt>
      <trkpt lat="46.38473" lon="2.94603">
        <ele>380</ele>
        <time>2018-10-21T07:59:03Z</time>
      </trkpt>
      <trkpt lat="46.38471" lon="2.94597">
        <ele>380</ele>
        <time>2018-10-21T07:59:04Z</time>
      </trkpt>
      <trkpt lat="46.38464" lon="2.94582">
        <ele>380.1</ele>
        <time>2018-10-21T07:59:07Z</time>
      </trkpt>
      <trkpt lat="46.38459" lon="2.94572">
        <ele>380.1</ele>
        <time>2018-10-21T07:59:09Z</time>
      </trkpt>
      <trkpt lat="46.38454" lon="2.94562">
        <ele>379.4</ele>
        <time>2018-10-21T07:59:11Z</time>
      </trkpt>
      <trkpt lat="46.38448" lon="2.94553">
        <ele>379.2</ele>
        <time>2018-10-21T07:59:13Z</time>
      </trkpt>
      <trkpt lat="46.38441" lon="2.94548">
        <ele>379</ele>
        <time>2018-10-21T07:59:15Z</time>
      </trkpt>
      <trkpt lat="46.38435" lon="2.94549">
        <ele>378.6</ele>
        <time>2018-10-21T07:59:17Z</time>
      </trkpt>
      <trkpt lat="46.38427" lon="2.94556">
        <ele>379.8</ele>
        <time>2018-10-21T07:59:20Z</time>
      </trkpt>
      <trkpt lat="46.3842" lon="2.94563">
        <ele>380.6</ele>
        <time>2018-10-21T07:59:23Z</time>
      </trkpt>
      <trkpt lat="46.38414" lon="2.94568">
        <ele>381.1</ele>
        <time>2018-10-21T07:59:25Z</time>
      </trkpt>
      <trkpt lat="46.38408" lon="2.94572">
        <ele>381.5</ele>
        <time>2018-10-21T07:59:27Z</time>
      </trkpt>
      <trkpt lat="46.38402" lon="2.94577">
        <ele>381.5</ele>
        <time>2018-10-21T07:59:29Z</time>
      </trkpt>
      <trkpt lat="46.38396" lon="2.94583">
        <ele>381.5</ele>
        <time>2018-10-21T07:59:31Z</time>
      </trkpt>
      <trkpt lat="46.3839" lon="2.94589">
        <ele>381.5</ele>
        <time>2018-10-21T07:59:33Z</time>
      </trkpt>
      <trkpt lat="46.38384" lon="2.94596">
        <ele>381.8</ele>
        <time>2018-10-21T07:59:35Z</time>
      </trkpt>
      <trkpt lat="46.38377" lon="2.94602">
        <ele>381.9</ele>
        <time>2018-10-21T07:59:37Z</time>
      </trkpt>
      <trkpt lat="46.38371" lon="2.94608">
        <ele>381.9</ele>
        <time>2018-10-21T07:59:39Z</time>
      </trkpt>
      <trkpt lat="46.38364" lon="2.94614">
        <ele>382.7</ele>
        <time>2018-10-21T07:59:41Z</time>
      </trkpt>
      <trkpt lat="46.38357" lon="2.94619">
        <ele>383.7</ele>
        <time>2018-10-21T07:59:43Z</time>
      </trkpt>
      <trkpt lat="46.3835" lon="2.94625">
        <ele>382.9</ele>
        <time>2018-10-21T07:59:45Z</time>
      </trkpt>
      <trkpt lat="46.38343" lon="2.94631">
        <ele>382.8</ele>
        <time>2018-10-21T07:59:47Z</time>
      </trkpt>
      <trkpt lat="46.38336" lon="2.94637">
        <ele>382.9</ele>
        <time>2018-10-21T07:59:49Z</time>
      </trkpt>
      <trkpt lat="46.38329" lon="2.94644">
        <ele>383.3</ele>
        <time>2018-10-21T07:59:51Z</time>
      </trkpt>
      <trkpt lat="46.38323" lon="2.94651">
        <ele>383.2</ele>
        <time>2018-10-21T07:59:53Z</time>
      </trkpt>
      <trkpt lat="46.38317" lon="2.94659">
        <ele>382.8</ele>
        <time>2018-10-21T07:59:55Z</time>
      </trkpt>
      <trkpt lat="46.38311" lon="2.94667">
        <ele>382.7</ele>
        <time>2018-10-21T07:59:57Z</time>
      </trkpt>
      <trkpt lat="46.38305" lon="2.94675">
        <ele>382.9</ele>
        <time>2018-10-21T07:59:59Z</time>
      </trkpt>
      <trkpt lat="46.38299" lon="2.94683">
        <ele>383.7</ele>
        <time>2018-10-21T08:00:01Z</time>
      </trkpt>
      <trkpt lat="46.38293" lon="2.94691">
        <ele>383.9</ele>
        <time>2018-10-21T08:00:03Z</time>
      </trkpt>
      <trkpt lat="46.38287" lon="2.94699">
        <ele>384.2</ele>
        <time>2018-10-21T08:00:05Z</time>
      </trkpt>
      <trkpt lat="46.38284" lon="2.94704">
        <ele>384.5</ele>
        <time>2018-10-21T08:00:06Z</time>
      </trkpt>
      <trkpt lat="46.38276" lon="2.94718">
        <ele>384.8</ele>
        <time>2018-10-21T08:00:09Z</time>
      </trkpt>
      <trkpt lat="46.3827" lon="2.94727">
        <ele>385.2</ele>
        <time>2018-10-21T08:00:11Z</time>
      </trkpt>
      <trkpt lat="46.38265" lon="2.94736">
        <ele>385.2</ele>
        <time>2018-10-21T08:00:13Z</time>
      </trkpt>
      <trkpt lat="46.3826" lon="2.94746">
        <ele>385.6</ele>
        <time>2018-10-21T08:00:15Z</time>
      </trkpt>
      <trkpt lat="46.38254" lon="2.94755">
        <ele>386.1</ele>
        <time>2018-10-21T08:00:17Z</time>
      </trkpt>
      <trkpt lat="46.38249" lon="2.94764">
        <ele>386</ele>
        <time>2018-10-21T08:00:19Z</time>
      </trkpt>
      <trkpt lat="46.38243" lon="2.94772">
        <ele>385.7</ele>
        <time>2018-10-21T08:00:21Z</time>
      </trkpt>
      <trkpt lat="46.38237" lon="2.94781">
        <ele>386.1</ele>
        <time>2018-10-21T08:00:23Z</time>
      </trkpt>
      <trkpt lat="46.38231" lon="2.94789">
        <ele>386.6</ele>
        <time>2018-10-21T08:00:25Z</time>
      </trkpt>
      <trkpt lat="46.38226" lon="2.94799">
        <ele>386.9</ele>
        <time>2018-10-21T08:00:27Z</time>
      </trkpt>
      <trkpt lat="46.38221" lon="2.94808">
        <ele>387.3</ele>
        <time>2018-10-21T08:00:29Z</time>
      </trkpt>
      <trkpt lat="46.38216" lon="2.94817">
        <ele>387.9</ele>
        <time>2018-10-21T08:00:31Z</time>
      </trkpt>
      <trkpt lat="46.38211" lon="2.94826">
        <ele>388.2</ele>
        <time>2018-10-21T08:00:33Z</time>
      </trkpt>
      <trkpt lat="46.38207" lon="2.94835">
        <ele>388.5</ele>
        <time>2018-10-21T08:00:35Z</time>
      </trkpt>
      <trkpt lat="46.38202" lon="2.94844">
        <ele>388.6</ele>
        <time>2018-10-21T08:00:37Z</time>
      </trkpt>
      <trkpt lat="46.38198" lon="2.94854">
        <ele>389</ele>
        <time>2018-10-21T08:00:39Z</time>
      </trkpt>
      <trkpt lat="46.38195" lon="2.94864">
        <ele>389</ele>
        <time>2018-10-21T08:00:41Z</time>
      </trkpt>
      <trkpt lat="46.38192" lon="2.94875">
        <ele>389.2</ele>
        <time>2018-10-21T08:00:43Z</time>
      </trkpt>
      <trkpt lat="46.38191" lon="2.94886">
        <ele>389.5</ele>
        <time>2018-10-21T08:00:45Z</time>
      </trkpt>
      <trkpt lat="46.3819" lon="2.94898">
        <ele>389.6</ele>
        <time>2018-10-21T08:00:47Z</time>
      </trkpt>
      <trkpt lat="46.38189" lon="2.9491">
        <ele>390</ele>
        <time>2018-10-21T08:00:49Z</time>
      </trkpt>
      <trkpt lat="46.38188" lon="2.94922">
        <ele>390.1</ele>
        <time>2018-10-21T08:00:51Z</time>
      </trkpt>
      <trkpt lat="46.38188" lon="2.94934">
        <ele>390.5</ele>
        <time>2018-10-21T08:00:53Z</time>
      </trkpt>
      <trkpt lat="46.38187" lon="2.94945">
        <ele>391</ele>
        <time>2018-10-21T08:00:55Z</time>
      </trkpt>
      <trkpt lat="46.38186" lon="2.94957">
        <ele>390.8</ele>
        <time>2018-10-21T08:00:57Z</time>
      </trkpt>
      <trkpt lat="46.38185" lon="2.94968">
        <ele>390.4</ele>
        <time>2018-10-21T08:00:59Z</time>
      </trkpt>
      <trkpt lat="46.38184" lon="2.94979">
        <ele>390.6</ele>
        <time>2018-10-21T08:01:01Z</time>
      </trkpt>
      <trkpt lat="46.38183" lon="2.94989">
        <ele>390.8</ele>
        <time>2018-10-21T08:01:03Z</time>
      </trkpt>
      <trkpt lat="46.38182" lon="2.94999">
        <ele>390.9</ele>
        <time>2018-10-21T08:01:05Z</time>
      </trkpt>
      <trkpt lat="46.38181" lon="2.95009">
        <ele>391.1</ele>
        <time>2018-10-21T08:01:07Z</time>
      </trkpt>
      <trkpt lat="46.38179" lon="2.95015">
        <ele>391.2</ele>
        <time>2018-10-21T08:01:08Z</time>
      </trkpt>
      <trkpt lat="46.38175" lon="2.95029">
        <ele>392.1</ele>
        <time>2018-10-21T08:01:11Z</time>
      </trkpt>
      <trkpt lat="46.38172" lon="2.95038">
        <ele>392.9</ele>
        <time>2018-10-21T08:01:13Z</time>
      </trkpt>
      <trkpt lat="46.38167" lon="2.95046">
        <ele>392.8</ele>
        <time>2018-10-21T08:01:15Z</time>
      </trkpt>
      <trkpt lat="46.38163" lon="2.95054">
        <ele>393</ele>
        <time>2018-10-21T08:01:17Z</time>
      </trkpt>
      <trkpt lat="46.38157" lon="2.9506">
        <ele>393.2</ele>
        <time>2018-10-21T08:01:19Z</time>
      </trkpt>
      <trkpt lat="46.38151" lon="2.95064">
        <ele>393.7</ele>
        <time>2018-10-21T08:01:21Z</time>
      </trkpt>
      <trkpt lat="46.38145" lon="2.95069">
        <ele>394.2</ele>
        <time>2018-10-21T08:01:23Z</time>
      </trkpt>
      <trkpt lat="46.38139" lon="2.95073">
        <ele>394.1</ele>
        <time>2018-10-21T08:01:25Z</time>
      </trkpt>
      <trkpt lat="46.38133" lon="2.95078">
        <ele>394.6</ele>
        <time>2018-10-21T08:01:27Z</time>
      </trkpt>
      <trkpt lat="46.38127" lon="2.95083">
        <ele>394.4</ele>
        <time>2018-10-21T08:01:29Z</time>
      </trkpt>
      <trkpt lat="46.3812" lon="2.95089">
        <ele>394.5</ele>
        <time>2018-10-21T08:01:31Z</time>
      </trkpt>
      <trkpt lat="46.38114" lon="2.95094">
        <ele>395.2</ele>
        <time>2018-10-21T08:01:33Z</time>
      </trkpt>
      <trkpt lat="46.38108" lon="2.95099">
        <ele>396</ele>
        <time>2018-10-21T08:01:35Z</time>
      </trkpt>
      <trkpt lat="46.38102" lon="2.95104">
        <ele>395.6</ele>
        <time>2018-10-21T08:01:37Z</time>
      </trkpt>
      <trkpt lat="46.38096" lon="2.95109">
        <ele>396.1</ele>
        <time>2018-10-21T08:01:39Z</time>
      </trkpt>
      <trkpt lat="46.3809" lon="2.95115">
        <ele>396.1</ele>
        <time>2018-10-21T08:01:41Z</time>
      </trkpt>
      <trkpt lat="46.38085" lon="2.9512">
        <ele>396.2</ele>
        <time>2018-10-21T08:01:43Z</time>
      </trkpt>
      <trkpt lat="46.38079" lon="2.95126">
        <ele>396.2</ele>
        <time>2018-10-21T08:01:45Z</time>
      </trkpt>
      <trkpt lat="46.38073" lon="2.95131">
        <ele>396.4</ele>
        <time>2018-10-21T08:01:47Z</time>
      </trkpt>
      <trkpt lat="46.38068" lon="2.95137">
        <ele>396.6</ele>
        <time>2018-10-21T08:01:49Z</time>
      </trkpt>
      <trkpt lat="46.38062" lon="2.95142">
        <ele>397.8</ele>
        <time>2018-10-21T08:01:51Z</time>
      </trkpt>
      <trkpt lat="46.38057" lon="2.95147">
        <ele>397.9</ele>
        <time>2018-10-21T08:01:53Z</time>
      </trkpt>
      <trkpt lat="46.38051" lon="2.95152">
        <ele>398.3</ele>
        <time>2018-10-21T08:01:55Z</time>
      </trkpt>
      <trkpt lat="46.38045" lon="2.95157">
        <ele>398.8</ele>
        <time>2018-10-21T08:01:57Z</time>
      </trkpt>
      <trkpt lat="46.38039" lon="2.95162">
        <ele>398.9</ele>
        <time>2018-10-21T08:01:59Z</time>
      </trkpt>
      <trkpt lat="46.38033" lon="2.95167">
        <ele>398.7</ele>
        <time>2018-10-21T08:02:01Z</time>
      </trkpt>
      <trkpt lat="46.38027" lon="2.95172">
        <ele>398.7</ele>
        <time>2018-10-21T08:02:03Z</time>
      </trkpt>
      <trkpt lat="46.38021" lon="2.95178">
        <ele>399.1</ele>
        <time>2018-10-21T08:02:05Z</time>
      </trkpt>
      <trkpt lat="46.38015" lon="2.95183">
        <ele>399.5</ele>
        <time>2018-10-21T08:02:07Z</time>
      </trkpt>
      <trkpt lat="46.38009" lon="2.95189">
        <ele>399.8</ele>
        <time>2018-10-21T08:02:09Z</time>
      </trkpt>
      <trkpt lat="46.38006" lon="2.95192">
        <ele>399.9</ele>
        <time>2018-10-21T08:02:10Z</time>
      </trkpt>
      <trkpt lat="46.37997" lon="2.952">
        <ele>399.8</ele>
        <time>2018-10-21T08:02:13Z</time>
      </trkpt>
      <trkpt lat="46.37991" lon="2.95206">
        <ele>400.3</ele>
        <time>2018-10-21T08:02:15Z</time>
      </trkpt>
      <trkpt lat="46.37984" lon="2.95212">
        <ele>400.6</ele>
        <time>2018-10-21T08:02:17Z</time>
      </trkpt>
      <trkpt lat="46.37978" lon="2.95217">
        <ele>400.4</ele>
        <time>2018-10-21T08:02:19Z</time>
      </trkpt>
      <trkpt lat="46.37972" lon="2.95222">
        <ele>400.6</ele>
        <time>2018-10-21T08:02:21Z</time>
      </trkpt>
      <trkpt lat="46.37966" lon="2.95227">
        <ele>400.9</ele>
        <time>2018-10-21T08:02:23Z</time>
      </trkpt>
      <trkpt lat="46.3796" lon="2.95231">
        <ele>401</ele>
        <time>2018-10-21T08:02:25Z</time>
      </trkpt>
      <trkpt lat="46.37953" lon="2.95234">
        <ele>401.3</ele>
        <time>2018-10-21T08:02:27Z</time>
      </trkpt>
      <trkpt lat="46.37946" lon="2.95238">
        <ele>401.5</ele>
        <time>2018-10-21T08:02:29Z</time>
      </trkpt>
      <trkpt lat="46.37939" lon="2.9524">
        <ele>402.3</ele>
        <time>2018-10-21T08:02:31Z</time>
      </trkpt>
      <trkpt lat="46.37933" lon="2.95242">
        <ele>402.8</ele>
        <time>2018-10-21T08:02:33Z</time>
      </trkpt>
      <trkpt lat="46.37926" lon="2.95244">
        <ele>403.2</ele>
        <time>2018-10-21T08:02:35Z</time>
      </trkpt>
      <trkpt lat="46.37919" lon="2.95246">
        <ele>403.5</ele>
        <time>2018-10-21T08:02:37Z</time>
      </trkpt>
      <trkpt lat="46.37913" lon="2.95248">
        <ele>404.5</ele>
        <time>2018-10-21T08:02:39Z</time>
      </trkpt>
      <trkpt lat="46.37906" lon="2.95249">
        <ele>405.1</ele>
        <time>2018-10-21T08:02:41Z</time>
      </trkpt>
      <trkpt lat="46.37899" lon="2.9525">
        <ele>405.2</ele>
        <time>2018-10-21T08:02:43Z</time>
      </trkpt>
      <trkpt lat="46.37892" lon="2.9525">
        <ele>405.6</ele>
        <time>2018-10-21T08:02:45Z</time>
      </trkpt>
      <trkpt lat="46.37885" lon="2.95249">
        <ele>406.2</ele>
        <time>2018-10-21T08:02:47Z</time>
      </trkpt>
      <trkpt lat="46.37878" lon="2.95249">
        <ele>406.7</ele>
        <time>2018-10-21T08:02:49Z</time>
      </trkpt>
      <trkpt lat="46.37871" lon="2.95249">
        <ele>407</ele>
        <time>2018-10-21T08:02:51Z</time>
      </trkpt>
      <trkpt lat="46.37864" lon="2.95249">
        <ele>408.2</ele>
        <time>2018-10-21T08:02:53Z</time>
      </trkpt>
      <trkpt lat="46.37856" lon="2.9525">
        <ele>408.6</ele>
        <time>2018-10-21T08:02:55Z</time>
      </trkpt>
      <trkpt lat="46.37849" lon="2.95251">
        <ele>408.7</ele>
        <time>2018-10-21T08:02:57Z</time>
      </trkpt>
      <trkpt lat="46.37842" lon="2.95252">
        <ele>408.9</ele>
        <time>2018-10-21T08:02:59Z</time>
      </trkpt>
      <trkpt lat="46.37835" lon="2.95255">
        <ele>409.5</ele>
        <time>2018-10-21T08:03:01Z</time>
      </trkpt>
      <trkpt lat="46.37828" lon="2.95258">
        <ele>410</ele>
        <time>2018-10-21T08:03:03Z</time>
      </trkpt>
      <trkpt lat="46.37822" lon="2.9526">
        <ele>410</ele>
        <time>2018-10-21T08:03:05Z</time>
      </trkpt>
      <trkpt lat="46.37816" lon="2.95263">
        <ele>410.5</ele>
        <time>2018-10-21T08:03:07Z</time>
      </trkpt>
      <trkpt lat="46.3781" lon="2.95266">
        <ele>411.1</ele>
        <time>2018-10-21T08:03:09Z</time>
      </trkpt>
      <trkpt lat="46.37803" lon="2.95269">
        <ele>411.6</ele>
        <time>2018-10-21T08:03:11Z</time>
      </trkpt>
      <trkpt lat="46.378" lon="2.9527">
        <ele>411.7</ele>
        <time>2018-10-21T08:03:12Z</time>
      </trkpt>
      <trkpt lat="46.37791" lon="2.95273">
        <ele>413</ele>
        <time>2018-10-21T08:03:15Z</time>
      </trkpt>
      <trkpt lat="46.37785" lon="2.95277">
        <ele>413.4</ele>
        <time>2018-10-21T08:03:17Z</time>
      </trkpt>
      <trkpt lat="46.37779" lon="2.95286">
        <ele>413.9</ele>
        <time>2018-10-21T08:03:20Z</time>
      </trkpt>
      <trkpt lat="46.37773" lon="2.95288">
        <ele>414.2</ele>
        <time>2018-10-21T08:03:22Z</time>
      </trkpt>
      <trkpt lat="46.37766" lon="2.95288">
        <ele>414.6</ele>
        <time>2018-10-21T08:03:24Z</time>
      </trkpt>
      <trkpt lat="46.3776" lon="2.95289">
        <ele>414.6</ele>
        <time>2018-10-21T08:03:26Z</time>
      </trkpt>
      <trkpt lat="46.37753" lon="2.95289">
        <ele>414.7</ele>
        <time>2018-10-21T08:03:28Z</time>
      </trkpt>
      <trkpt lat="46.37746" lon="2.95289">
        <ele>414.3</ele>
        <time>2018-10-21T08:03:30Z</time>
      </trkpt>
      <trkpt lat="46.37739" lon="2.95288">
        <ele>414</ele>
        <time>2018-10-21T08:03:32Z</time>
      </trkpt>
      <trkpt lat="46.37731" lon="2.95288">
        <ele>414.1</ele>
        <time>2018-10-21T08:03:34Z</time>
      </trkpt>
      <trkpt lat="46.37724" lon="2.95288">
        <ele>414.7</ele>
        <time>2018-10-21T08:03:36Z</time>
      </trkpt>
      <trkpt lat="46.37716" lon="2.95289">
        <ele>414.2</ele>
        <time>2018-10-21T08:03:38Z</time>
      </trkpt>
      <trkpt lat="46.37709" lon="2.95291">
        <ele>414.5</ele>
        <time>2018-10-21T08:03:40Z</time>
      </trkpt>
      <trkpt lat="46.37701" lon="2.95293">
        <ele>415</ele>
        <time>2018-10-21T08:03:42Z</time>
      </trkpt>
      <trkpt lat="46.37694" lon="2.95295">
        <ele>415.4</ele>
        <time>2018-10-21T08:03:44Z</time>
      </trkpt>
      <trkpt lat="46.37686" lon="2.95297">
        <ele>415.5</ele>
        <time>2018-10-21T08:03:46Z</time>
      </trkpt>
      <trkpt lat="46.37678" lon="2.953">
        <ele>415.6</ele>
        <time>2018-10-21T08:03:48Z</time>
      </trkpt>
      <trkpt lat="46.3767" lon="2.95302">
        <ele>415.7</ele>
        <time>2018-10-21T08:03:50Z</time>
      </trkpt>
      <trkpt lat="46.37662" lon="2.95304">
        <ele>415.5</ele>
        <time>2018-10-21T08:03:52Z</time>
      </trkpt>
      <trkpt lat="46.37654" lon="2.95305">
        <ele>415.8</ele>
        <time>2018-10-21T08:03:54Z</time>
      </trkpt>
      <trkpt lat="46.37646" lon="2.95306">
        <ele>416.5</ele>
        <time>2018-10-21T08:03:56Z</time>
      </trkpt>
      <trkpt lat="46.37638" lon="2.95307">
        <ele>416.7</ele>
        <time>2018-10-21T08:03:58Z</time>
      </trkpt>
      <trkpt lat="46.37629" lon="2.95308">
        <ele>416.4</ele>
        <time>2018-10-21T08:04:00Z</time>
      </trkpt>
      <trkpt lat="46.37621" lon="2.9531">
        <ele>416.8</ele>
        <time>2018-10-21T08:04:02Z</time>
      </trkpt>
      <trkpt lat="46.37613" lon="2.95311">
        <ele>416.9</ele>
        <time>2018-10-21T08:04:04Z</time>
      </trkpt>
      <trkpt lat="46.37605" lon="2.95312">
        <ele>417</ele>
        <time>2018-10-21T08:04:06Z</time>
      </trkpt>
      <trkpt lat="46.37597" lon="2.95313">
        <ele>417</ele>
        <time>2018-10-21T08:04:08Z</time>
      </trkpt>
      <trkpt lat="46.37588" lon="2.95314">
        <ele>417</ele>
        <time>2018-10-21T08:04:10Z</time>
      </trkpt>
      <trkpt lat="46.3758" lon="2.95315">
        <ele>417</ele>
        <time>2018-10-21T08:04:12Z</time>
      </trkpt>
      <trkpt lat="46.37575" lon="2.95315">
        <ele>417.3</ele>
        <time>2018-10-21T08:04:13Z</time>
      </trkpt>
      <trkpt lat="46.37566" lon="2.95316">
        <ele>417.5</ele>
        <time>2018-10-21T08:04:15Z</time>
      </trkpt>
      <trkpt lat="46.37558" lon="2.95317">
        <ele>417.4</ele>
        <time>2018-10-21T08:04:17Z</time>
      </trkpt>
      <trkpt lat="46.37549" lon="2.95318">
        <ele>417.6</ele>
        <time>2018-10-21T08:04:19Z</time>
      </trkpt>
      <trkpt lat="46.3754" lon="2.95319">
        <ele>417.3</ele>
        <time>2018-10-21T08:04:21Z</time>
      </trkpt>
      <trkpt lat="46.37531" lon="2.9532">
        <ele>417.1</ele>
        <time>2018-10-21T08:04:23Z</time>
      </trkpt>
      <trkpt lat="46.37523" lon="2.95321">
        <ele>417.1</ele>
        <time>2018-10-21T08:04:25Z</time>
      </trkpt>
      <trkpt lat="46.37514" lon="2.95322">
        <ele>417.4</ele>
        <time>2018-10-21T08:04:27Z</time>
      </trkpt>
      <trkpt lat="46.37505" lon="2.95323">
        <ele>417.7</ele>
        <time>2018-10-21T08:04:29Z</time>
      </trkpt>
      <trkpt lat="46.375" lon="2.95323">
        <ele>417.8</ele>
        <time>2018-10-21T08:04:30Z</time>
      </trkpt>
      <trkpt lat="46.37496" lon="2.95324">
        <ele>417.8</ele>
        <time>2018-10-21T08:04:31Z</time>
      </trkpt>
      <trkpt lat="46.37487" lon="2.95324">
        <ele>418</ele>
        <time>2018-10-21T08:04:33Z</time>
      </trkpt>
      <trkpt lat="46.37482" lon="2.95325">
        <ele>418.2</ele>
        <time>2018-10-21T08:04:34Z</time>
      </trkpt>
      <trkpt lat="46.37478" lon="2.95325">
        <ele>418.3</ele>
        <time>2018-10-21T08:04:35Z</time>
      </trkpt>
      <trkpt lat="46.37473" lon="2.95325">
        <ele>418.4</ele>
        <time>2018-10-21T08:04:36Z</time>
      </trkpt>
      <trkpt lat="46.37469" lon="2.95325">
        <ele>418.8</ele>
        <time>2018-10-21T08:04:37Z</time>
      </trkpt>
      <trkpt lat="46.37464" lon="2.95325">
        <ele>419.1</ele>
        <time>2018-10-21T08:04:38Z</time>
      </trkpt>
      <trkpt lat="46.3746" lon="2.95326">
        <ele>418.9</ele>
        <time>2018-10-21T08:04:39Z</time>
      </trkpt>
      <trkpt lat="46.37455" lon="2.95326">
        <ele>418.7</ele>
        <time>2018-10-21T08:04:40Z</time>
      </trkpt>
      <trkpt lat="46.37451" lon="2.95326">
        <ele>418.7</ele>
        <time>2018-10-21T08:04:41Z</time>
      </trkpt>
      <trkpt lat="46.37446" lon="2.95326">
        <ele>418.8</ele>
        <time>2018-10-21T08:04:42Z</time>
      </trkpt>
      <trkpt lat="46.37442" lon="2.95325">
        <ele>418.8</ele>
        <time>2018-10-21T08:04:43Z</time>
      </trkpt>
      <trkpt lat="46.37437" lon="2.95325">
        <ele>418.6</ele>
        <time>2018-10-21T08:04:44Z</time>
      </trkpt>
      <trkpt lat="46.37432" lon="2.95325">
        <ele>418.4</ele>
        <time>2018-10-21T08:04:45Z</time>
      </trkpt>
      <trkpt lat="46.37428" lon="2.95325">
        <ele>418.4</ele>
        <time>2018-10-21T08:04:46Z</time>
      </trkpt>
      <trkpt lat="46.37423" lon="2.95324">
        <ele>418.4</ele>
        <time>2018-10-21T08:04:47Z</time>
      </trkpt>
      <trkpt lat="46.37417" lon="2.95323">
        <ele>418.2</ele>
        <time>2018-10-21T08:04:48Z</time>
      </trkpt>
      <trkpt lat="46.37413" lon="2.95321">
        <ele>417.9</ele>
        <time>2018-10-21T08:04:49Z</time>
      </trkpt>
      <trkpt lat="46.37408" lon="2.9532">
        <ele>417.8</ele>
        <time>2018-10-21T08:04:50Z</time>
      </trkpt>
      <trkpt lat="46.37403" lon="2.95318">
        <ele>417.8</ele>
        <time>2018-10-21T08:04:51Z</time>
      </trkpt>
      <trkpt lat="46.37398" lon="2.95315">
        <ele>417.8</ele>
        <time>2018-10-21T08:04:52Z</time>
      </trkpt>
      <trkpt lat="46.37393" lon="2.95313">
        <ele>417.8</ele>
        <time>2018-10-21T08:04:53Z</time>
      </trkpt>
      <trkpt lat="46.37389" lon="2.95311">
        <ele>417.7</ele>
        <time>2018-10-21T08:04:54Z</time>
      </trkpt>
      <trkpt lat="46.37385" lon="2.95309">
        <ele>417.7</ele>
        <time>2018-10-21T08:04:55Z</time>
      </trkpt>
      <trkpt lat="46.3738" lon="2.95307">
        <ele>417.6</ele>
        <time>2018-10-21T08:04:56Z</time>
      </trkpt>
      <trkpt lat="46.37376" lon="2.95305">
        <ele>417.5</ele>
        <time>2018-10-21T08:04:57Z</time>
      </trkpt>
      <trkpt lat="46.37367" lon="2.95302">
        <ele>417.1</ele>
        <time>2018-10-21T08:04:59Z</time>
      </trkpt>
      <trkpt lat="46.37359" lon="2.95298">
        <ele>417.1</ele>
        <time>2018-10-21T08:05:01Z</time>
      </trkpt>
      <trkpt lat="46.37351" lon="2.95294">
        <ele>416.9</ele>
        <time>2018-10-21T08:05:03Z</time>
      </trkpt>
      <trkpt lat="46.37343" lon="2.95291">
        <ele>417.3</ele>
        <time>2018-10-21T08:05:05Z</time>
      </trkpt>
      <trkpt lat="46.37335" lon="2.95287">
        <ele>418</ele>
        <time>2018-10-21T08:05:07Z</time>
      </trkpt>
      <trkpt lat="46.37327" lon="2.95284">
        <ele>418.6</ele>
        <time>2018-10-21T08:05:09Z</time>
      </trkpt>
      <trkpt lat="46.3732" lon="2.95282">
        <ele>418.4</ele>
        <time>2018-10-21T08:05:11Z</time>
      </trkpt>
      <trkpt lat="46.37312" lon="2.9528">
        <ele>419.2</ele>
        <time>2018-10-21T08:05:14Z</time>
      </trkpt>
      <trkpt lat="46.3731" lon="2.95279">
        <ele>419.1</ele>
        <time>2018-10-21T08:05:15Z</time>
      </trkpt>
      <trkpt lat="46.37296" lon="2.95277">
        <ele>418.8</ele>
        <time>2018-10-21T08:05:22Z</time>
      </trkpt>
      <trkpt lat="46.37289" lon="2.95276">
        <ele>419.8</ele>
        <time>2018-10-21T08:05:26Z</time>
      </trkpt>
      <trkpt lat="46.37282" lon="2.95277">
        <ele>420.4</ele>
        <time>2018-10-21T08:05:29Z</time>
      </trkpt>
      <trkpt lat="46.37276" lon="2.95279">
        <ele>420.6</ele>
        <time>2018-10-21T08:05:31Z</time>
      </trkpt>
      <trkpt lat="46.37269" lon="2.95281">
        <ele>420.6</ele>
        <time>2018-10-21T08:05:33Z</time>
      </trkpt>
      <trkpt lat="46.37262" lon="2.95283">
        <ele>420.8</ele>
        <time>2018-10-21T08:05:35Z</time>
      </trkpt>
      <trkpt lat="46.37254" lon="2.95285">
        <ele>420.2</ele>
        <time>2018-10-21T08:05:37Z</time>
      </trkpt>
      <trkpt lat="46.37245" lon="2.95288">
        <ele>419.9</ele>
        <time>2018-10-21T08:05:39Z</time>
      </trkpt>
      <trkpt lat="46.37236" lon="2.9529">
        <ele>420</ele>
        <time>2018-10-21T08:05:41Z</time>
      </trkpt>
      <trkpt lat="46.37228" lon="2.95289">
        <ele>420.1</ele>
        <time>2018-10-21T08:05:43Z</time>
      </trkpt>
      <trkpt lat="46.37224" lon="2.95285">
        <ele>420.1</ele>
        <time>2018-10-21T08:05:44Z</time>
      </trkpt>
      <trkpt lat="46.37221" lon="2.9528">
        <ele>420.1</ele>
        <time>2018-10-21T08:05:45Z</time>
      </trkpt>
      <trkpt lat="46.37218" lon="2.95273">
        <ele>419.6</ele>
        <time>2018-10-21T08:05:46Z</time>
      </trkpt>
      <trkpt lat="46.37217" lon="2.95265">
        <ele>419.2</ele>
        <time>2018-10-21T08:05:47Z</time>
      </trkpt>
      <trkpt lat="46.37215" lon="2.95257">
        <ele>419.3</ele>
        <time>2018-10-21T08:05:48Z</time>
      </trkpt>
      <trkpt lat="46.37213" lon="2.95249">
        <ele>419.4</ele>
        <time>2018-10-21T08:05:49Z</time>
      </trkpt>
      <trkpt lat="46.37212" lon="2.95241">
        <ele>419.2</ele>
        <time>2018-10-21T08:05:50Z</time>
      </trkpt>
      <trkpt lat="46.37211" lon="2.95233">
        <ele>419.1</ele>
        <time>2018-10-21T08:05:51Z</time>
      </trkpt>
      <trkpt lat="46.3721" lon="2.95225">
        <ele>419.1</ele>
        <time>2018-10-21T08:05:52Z</time>
      </trkpt>
      <trkpt lat="46.37209" lon="2.95216">
        <ele>418.9</ele>
        <time>2018-10-21T08:05:53Z</time>
      </trkpt>
      <trkpt lat="46.37208" lon="2.95208">
        <ele>418.7</ele>
        <time>2018-10-21T08:05:54Z</time>
      </trkpt>
      <trkpt lat="46.37207" lon="2.95199">
        <ele>418.3</ele>
        <time>2018-10-21T08:05:55Z</time>
      </trkpt>
      <trkpt lat="46.37206" lon="2.9519">
        <ele>418</ele>
        <time>2018-10-21T08:05:56Z</time>
      </trkpt>
      <trkpt lat="46.37206" lon="2.95181">
        <ele>417.8</ele>
        <time>2018-10-21T08:05:57Z</time>
      </trkpt>
      <trkpt lat="46.37205" lon="2.95172">
        <ele>417.9</ele>
        <time>2018-10-21T08:05:58Z</time>
      </trkpt>
      <trkpt lat="46.37204" lon="2.95164">
        <ele>418</ele>
        <time>2018-10-21T08:05:59Z</time>
      </trkpt>
      <trkpt lat="46.37203" lon="2.95155">
        <ele>417.6</ele>
        <time>2018-10-21T08:06:00Z</time>
      </trkpt>
      <trkpt lat="46.37202" lon="2.95147">
        <ele>417.3</ele>
        <time>2018-10-21T08:06:01Z</time>
      </trkpt>
      <trkpt lat="46.37201" lon="2.9514">
        <ele>417.4</ele>
        <time>2018-10-21T08:06:02Z</time>
      </trkpt>
      <trkpt lat="46.372" lon="2.95133">
        <ele>417.4</ele>
        <time>2018-10-21T08:06:03Z</time>
      </trkpt>
      <trkpt lat="46.37197" lon="2.95126">
        <ele>417.5</ele>
        <time>2018-10-21T08:06:04Z</time>
      </trkpt>
      <trkpt lat="46.37193" lon="2.95121">
        <ele>417.4</ele>
        <time>2018-10-21T08:06:05Z</time>
      </trkpt>
      <trkpt lat="46.37188" lon="2.95116">
        <ele>417.4</ele>
        <time>2018-10-21T08:06:06Z</time>
      </trkpt>
      <trkpt lat="46.37183" lon="2.95113">
        <ele>417.2</ele>
        <time>2018-10-21T08:06:07Z</time>
      </trkpt>
      <trkpt lat="46.37178" lon="2.95109">
        <ele>417</ele>
        <time>2018-10-21T08:06:08Z</time>
      </trkpt>
      <trkpt lat="46.37173" lon="2.95106">
        <ele>417.2</ele>
        <time>2018-10-21T08:06:09Z</time>
      </trkpt>
      <trkpt lat="46.37168" lon="2.95102">
        <ele>417.3</ele>
        <time>2018-10-21T08:06:10Z</time>
      </trkpt>
      <trkpt lat="46.37164" lon="2.95099">
        <ele>417.4</ele>
        <time>2018-10-21T08:06:11Z</time>
      </trkpt>
      <trkpt lat="46.37159" lon="2.95095">
        <ele>417.7</ele>
        <time>2018-10-21T08:06:12Z</time>
      </trkpt>
      <trkpt lat="46.37155" lon="2.95092">
        <ele>417.9</ele>
        <time>2018-10-21T08:06:13Z</time>
      </trkpt>
      <trkpt lat="46.37147" lon="2.95086">
        <ele>418.6</ele>
        <time>2018-10-21T08:06:15Z</time>
      </trkpt>
      <trkpt lat="46.37143" lon="2.95084">
        <ele>418.9</ele>
        <time>2018-10-21T08:06:16Z</time>
      </trkpt>
      <trkpt lat="46.37132" lon="2.95076">
        <ele>419.2</ele>
        <time>2018-10-21T08:06:19Z</time>
      </trkpt>
      <trkpt lat="46.37124" lon="2.95072">
        <ele>419.9</ele>
        <time>2018-10-21T08:06:21Z</time>
      </trkpt>
      <trkpt lat="46.37117" lon="2.95067">
        <ele>420.8</ele>
        <time>2018-10-21T08:06:23Z</time>
      </trkpt>
      <trkpt lat="46.3711" lon="2.95062">
        <ele>420.9</ele>
        <time>2018-10-21T08:06:25Z</time>
      </trkpt>
      <trkpt lat="46.37103" lon="2.95058">
        <ele>420.9</ele>
        <time>2018-10-21T08:06:27Z</time>
      </trkpt>
      <trkpt lat="46.37095" lon="2.95052">
        <ele>421.5</ele>
        <time>2018-10-21T08:06:29Z</time>
      </trkpt>
      <trkpt lat="46.37088" lon="2.95047">
        <ele>421.3</ele>
        <time>2018-10-21T08:06:31Z</time>
      </trkpt>
      <trkpt lat="46.3708" lon="2.95042">
        <ele>421.5</ele>
        <time>2018-10-21T08:06:33Z</time>
      </trkpt>
      <trkpt lat="46.37073" lon="2.95033">
        <ele>421.9</ele>
        <time>2018-10-21T08:06:35Z</time>
      </trkpt>
      <trkpt lat="46.37072" lon="2.95027">
        <ele>421.8</ele>
        <time>2018-10-21T08:06:36Z</time>
      </trkpt>
      <trkpt lat="46.37072" lon="2.9502">
        <ele>421.7</ele>
        <time>2018-10-21T08:06:37Z</time>
      </trkpt>
      <trkpt lat="46.37072" lon="2.95013">
        <ele>421.7</ele>
        <time>2018-10-21T08:06:38Z</time>
      </trkpt>
      <trkpt lat="46.37072" lon="2.95006">
        <ele>421.7</ele>
        <time>2018-10-21T08:06:39Z</time>
      </trkpt>
      <trkpt lat="46.37072" lon="2.94999">
        <ele>421.4</ele>
        <time>2018-10-21T08:06:40Z</time>
      </trkpt>
      <trkpt lat="46.37071" lon="2.94993">
        <ele>421.2</ele>
        <time>2018-10-21T08:06:41Z</time>
      </trkpt>
      <trkpt lat="46.37071" lon="2.94986">
        <ele>421</ele>
        <time>2018-10-21T08:06:42Z</time>
      </trkpt>
      <trkpt lat="46.37071" lon="2.94979">
        <ele>420.9</ele>
        <time>2018-10-21T08:06:43Z</time>
      </trkpt>
      <trkpt lat="46.3707" lon="2.94972">
        <ele>420.8</ele>
        <time>2018-10-21T08:06:44Z</time>
      </trkpt>
      <trkpt lat="46.3707" lon="2.94966">
        <ele>421.1</ele>
        <time>2018-10-21T08:06:45Z</time>
      </trkpt>
      <trkpt lat="46.3707" lon="2.94958">
        <ele>421.4</ele>
        <time>2018-10-21T08:06:46Z</time>
      </trkpt>
      <trkpt lat="46.3707" lon="2.94951">
        <ele>421.6</ele>
        <time>2018-10-21T08:06:47Z</time>
      </trkpt>
      <trkpt lat="46.3707" lon="2.94944">
        <ele>421.3</ele>
        <time>2018-10-21T08:06:48Z</time>
      </trkpt>
      <trkpt lat="46.3707" lon="2.94937">
        <ele>421</ele>
        <time>2018-10-21T08:06:49Z</time>
      </trkpt>
      <trkpt lat="46.37071" lon="2.9493">
        <ele>421.1</ele>
        <time>2018-10-21T08:06:50Z</time>
      </trkpt>
      <trkpt lat="46.37071" lon="2.94924">
        <ele>421.1</ele>
        <time>2018-10-21T08:06:51Z</time>
      </trkpt>
      <trkpt lat="46.37072" lon="2.94917">
        <ele>421</ele>
        <time>2018-10-21T08:06:52Z</time>
      </trkpt>
      <trkpt lat="46.37073" lon="2.94911">
        <ele>420.9</ele>
        <time>2018-10-21T08:06:53Z</time>
      </trkpt>
      <trkpt lat="46.37074" lon="2.94904">
        <ele>420.8</ele>
        <time>2018-10-21T08:06:54Z</time>
      </trkpt>
      <trkpt lat="46.37074" lon="2.94897">
        <ele>420.4</ele>
        <time>2018-10-21T08:06:55Z</time>
      </trkpt>
      <trkpt lat="46.37075" lon="2.94891">
        <ele>420.1</ele>
        <time>2018-10-21T08:06:56Z</time>
      </trkpt>
      <trkpt lat="46.37076" lon="2.94884">
        <ele>420.1</ele>
        <time>2018-10-21T08:06:57Z</time>
      </trkpt>
      <trkpt lat="46.37077" lon="2.94877">
        <ele>420.1</ele>
        <time>2018-10-21T08:06:58Z</time>
      </trkpt>
      <trkpt lat="46.37078" lon="2.9487">
        <ele>420.1</ele>
        <time>2018-10-21T08:06:59Z</time>
      </trkpt>
      <trkpt lat="46.37079" lon="2.94863">
        <ele>420.1</ele>
        <time>2018-10-21T08:07:00Z</time>
      </trkpt>
      <trkpt lat="46.3708" lon="2.94856">
        <ele>420.1</ele>
        <time>2018-10-21T08:07:01Z</time>
      </trkpt>
      <trkpt lat="46.37081" lon="2.94849">
        <ele>420.2</ele>
        <time>2018-10-21T08:07:02Z</time>
      </trkpt>
      <trkpt lat="46.37082" lon="2.94842">
        <ele>420.3</ele>
        <time>2018-10-21T08:07:03Z</time>
      </trkpt>
      <trkpt lat="46.37084" lon="2.94835">
        <ele>420.4</ele>
        <time>2018-10-21T08:07:04Z</time>
      </trkpt>
      <trkpt lat="46.37085" lon="2.94828">
        <ele>420.5</ele>
        <time>2018-10-21T08:07:05Z</time>
      </trkpt>
      <trkpt lat="46.37086" lon="2.9482">
        <ele>420.6</ele>
        <time>2018-10-21T08:07:06Z</time>
      </trkpt>
      <trkpt lat="46.37087" lon="2.94813">
        <ele>420.5</ele>
        <time>2018-10-21T08:07:07Z</time>
      </trkpt>
      <trkpt lat="46.37088" lon="2.94806">
        <ele>420.4</ele>
        <time>2018-10-21T08:07:08Z</time>
      </trkpt>
      <trkpt lat="46.3709" lon="2.94799">
        <ele>420.1</ele>
        <time>2018-10-21T08:07:09Z</time>
      </trkpt>
      <trkpt lat="46.37091" lon="2.94792">
        <ele>419.9</ele>
        <time>2018-10-21T08:07:10Z</time>
      </trkpt>
      <trkpt lat="46.37092" lon="2.94785">
        <ele>419.8</ele>
        <time>2018-10-21T08:07:11Z</time>
      </trkpt>
      <trkpt lat="46.37094" lon="2.94779">
        <ele>419.7</ele>
        <time>2018-10-21T08:07:12Z</time>
      </trkpt>
      <trkpt lat="46.37095" lon="2.94771">
        <ele>419.6</ele>
        <time>2018-10-21T08:07:13Z</time>
      </trkpt>
      <trkpt lat="46.37097" lon="2.94764">
        <ele>419.5</ele>
        <time>2018-10-21T08:07:14Z</time>
      </trkpt>
      <trkpt lat="46.37099" lon="2.94756">
        <ele>419.5</ele>
        <time>2018-10-21T08:07:15Z</time>
      </trkpt>
      <trkpt lat="46.37101" lon="2.94749">
        <ele>419.5</ele>
        <time>2018-10-21T08:07:16Z</time>
      </trkpt>
      <trkpt lat="46.37103" lon="2.94741">
        <ele>419.5</ele>
        <time>2018-10-21T08:07:17Z</time>
      </trkpt>
      <trkpt lat="46.37105" lon="2.94735">
        <ele>419.3</ele>
        <time>2018-10-21T08:07:18Z</time>
      </trkpt>
      <trkpt lat="46.37108" lon="2.94728">
        <ele>419.1</ele>
        <time>2018-10-21T08:07:19Z</time>
      </trkpt>
      <trkpt lat="46.3711" lon="2.94721">
        <ele>419</ele>
        <time>2018-10-21T08:07:20Z</time>
      </trkpt>
      <trkpt lat="46.37112" lon="2.94714">
        <ele>418.9</ele>
        <time>2018-10-21T08:07:21Z</time>
      </trkpt>
      <trkpt lat="46.37115" lon="2.94707">
        <ele>418.8</ele>
        <time>2018-10-21T08:07:22Z</time>
      </trkpt>
      <trkpt lat="46.37117" lon="2.947">
        <ele>418.8</ele>
        <time>2018-10-21T08:07:23Z</time>
      </trkpt>
      <trkpt lat="46.37119" lon="2.94693">
        <ele>418.8</ele>
        <time>2018-10-21T08:07:24Z</time>
      </trkpt>
      <trkpt lat="46.3712" lon="2.94686">
        <ele>418.8</ele>
        <time>2018-10-21T08:07:25Z</time>
      </trkpt>
      <trkpt lat="46.37122" lon="2.94678">
        <ele>418.8</ele>
        <time>2018-10-21T08:07:26Z</time>
      </trkpt>
      <trkpt lat="46.37124" lon="2.9467">
        <ele>418.8</ele>
        <time>2018-10-21T08:07:27Z</time>
      </trkpt>
      <trkpt lat="46.37125" lon="2.94662">
        <ele>418.4</ele>
        <time>2018-10-21T08:07:28Z</time>
      </trkpt>
      <trkpt lat="46.37127" lon="2.94654">
        <ele>418.1</ele>
        <time>2018-10-21T08:07:29Z</time>
      </trkpt>
      <trkpt lat="46.37129" lon="2.94646">
        <ele>418</ele>
        <time>2018-10-21T08:07:30Z</time>
      </trkpt>
      <trkpt lat="46.37131" lon="2.94639">
        <ele>417.9</ele>
        <time>2018-10-21T08:07:31Z</time>
      </trkpt>
      <trkpt lat="46.37132" lon="2.94631">
        <ele>417.8</ele>
        <time>2018-10-21T08:07:32Z</time>
      </trkpt>
      <trkpt lat="46.37134" lon="2.94624">
        <ele>417.9</ele>
        <time>2018-10-21T08:07:33Z</time>
      </trkpt>
      <trkpt lat="46.37136" lon="2.94616">
        <ele>418</ele>
        <time>2018-10-21T08:07:34Z</time>
      </trkpt>
      <trkpt lat="46.37138" lon="2.94608">
        <ele>418.1</ele>
        <time>2018-10-21T08:07:35Z</time>
      </trkpt>
      <trkpt lat="46.37139" lon="2.946">
        <ele>418.2</ele>
        <time>2018-10-21T08:07:36Z</time>
      </trkpt>
      <trkpt lat="46.3714" lon="2.94591">
        <ele>418.3</ele>
        <time>2018-10-21T08:07:37Z</time>
      </trkpt>
      <trkpt lat="46.37141" lon="2.94583">
        <ele>417.8</ele>
        <time>2018-10-21T08:07:38Z</time>
      </trkpt>
      <trkpt lat="46.37142" lon="2.94575">
        <ele>417.5</ele>
        <time>2018-10-21T08:07:39Z</time>
      </trkpt>
      <trkpt lat="46.37143" lon="2.94567">
        <ele>417.5</ele>
        <time>2018-10-21T08:07:40Z</time>
      </trkpt>
      <trkpt lat="46.37144" lon="2.94557">
        <ele>417.6</ele>
        <time>2018-10-21T08:07:41Z</time>
      </trkpt>
      <trkpt lat="46.37145" lon="2.94548">
        <ele>417.3</ele>
        <time>2018-10-21T08:07:42Z</time>
      </trkpt>
      <trkpt lat="46.37147" lon="2.94539">
        <ele>417</ele>
        <time>2018-10-21T08:07:43Z</time>
      </trkpt>
      <trkpt lat="46.37148" lon="2.94529">
        <ele>416.8</ele>
        <time>2018-10-21T08:07:44Z</time>
      </trkpt>
      <trkpt lat="46.37149" lon="2.9452">
        <ele>416.6</ele>
        <time>2018-10-21T08:07:45Z</time>
      </trkpt>
      <trkpt lat="46.37151" lon="2.94511">
        <ele>416.5</ele>
        <time>2018-10-21T08:07:46Z</time>
      </trkpt>
      <trkpt lat="46.37153" lon="2.94502">
        <ele>416.3</ele>
        <time>2018-10-21T08:07:47Z</time>
      </trkpt>
      <trkpt lat="46.37155" lon="2.94493">
        <ele>416.2</ele>
        <time>2018-10-21T08:07:48Z</time>
      </trkpt>
      <trkpt lat="46.37155" lon="2.94484">
        <ele>416</ele>
        <time>2018-10-21T08:07:49Z</time>
      </trkpt>
      <trkpt lat="46.37153" lon="2.94476">
        <ele>415.8</ele>
        <time>2018-10-21T08:07:50Z</time>
      </trkpt>
      <trkpt lat="46.37149" lon="2.94468">
        <ele>415.7</ele>
        <time>2018-10-21T08:07:51Z</time>
      </trkpt>
      <trkpt lat="46.37146" lon="2.9446">
        <ele>416</ele>
        <time>2018-10-21T08:07:52Z</time>
      </trkpt>
      <trkpt lat="46.37141" lon="2.94453">
        <ele>416.2</ele>
        <time>2018-10-21T08:07:53Z</time>
      </trkpt>
      <trkpt lat="46.37137" lon="2.94445">
        <ele>415.9</ele>
        <time>2018-10-21T08:07:54Z</time>
      </trkpt>
      <trkpt lat="46.37133" lon="2.94437">
        <ele>415.6</ele>
        <time>2018-10-21T08:07:55Z</time>
      </trkpt>
      <trkpt lat="46.37129" lon="2.9443">
        <ele>415.4</ele>
        <time>2018-10-21T08:07:56Z</time>
      </trkpt>
      <trkpt lat="46.37124" lon="2.94422">
        <ele>415.7</ele>
        <time>2018-10-21T08:07:57Z</time>
      </trkpt>
      <trkpt lat="46.3712" lon="2.94415">
        <ele>415.9</ele>
        <time>2018-10-21T08:07:58Z</time>
      </trkpt>
      <trkpt lat="46.37116" lon="2.94408">
        <ele>415.5</ele>
        <time>2018-10-21T08:07:59Z</time>
      </trkpt>
      <trkpt lat="46.37112" lon="2.94401">
        <ele>415.1</ele>
        <time>2018-10-21T08:08:00Z</time>
      </trkpt>
      <trkpt lat="46.37108" lon="2.94393">
        <ele>415.2</ele>
        <time>2018-10-21T08:08:01Z</time>
      </trkpt>
      <trkpt lat="46.37107" lon="2.94386">
        <ele>415.2</ele>
        <time>2018-10-21T08:08:02Z</time>
      </trkpt>
      <trkpt lat="46.37108" lon="2.94379">
        <ele>415.2</ele>
        <time>2018-10-21T08:08:03Z</time>
      </trkpt>
      <trkpt lat="46.37112" lon="2.94374">
        <ele>415.1</ele>
        <time>2018-10-21T08:08:04Z</time>
      </trkpt>
      <trkpt lat="46.37116" lon="2.94369">
        <ele>415</ele>
        <time>2018-10-21T08:08:05Z</time>
      </trkpt>
      <trkpt lat="46.3712" lon="2.94364">
        <ele>414.7</ele>
        <time>2018-10-21T08:08:06Z</time>
      </trkpt>
      <trkpt lat="46.37125" lon="2.94359">
        <ele>414.5</ele>
        <time>2018-10-21T08:08:07Z</time>
      </trkpt>
      <trkpt lat="46.37129" lon="2.94354">
        <ele>414.3</ele>
        <time>2018-10-21T08:08:08Z</time>
      </trkpt>
      <trkpt lat="46.37133" lon="2.94349">
        <ele>414.2</ele>
        <time>2018-10-21T08:08:09Z</time>
      </trkpt>
      <trkpt lat="46.37138" lon="2.94343">
        <ele>414.1</ele>
        <time>2018-10-21T08:08:10Z</time>
      </trkpt>
      <trkpt lat="46.37143" lon="2.94338">
        <ele>414.3</ele>
        <time>2018-10-21T08:08:11Z</time>
      </trkpt>
      <trkpt lat="46.37147" lon="2.94332">
        <ele>414.4</ele>
        <time>2018-10-21T08:08:12Z</time>
      </trkpt>
      <trkpt lat="46.37152" lon="2.94327">
        <ele>413.9</ele>
        <time>2018-10-21T08:08:13Z</time>
      </trkpt>
      <trkpt lat="46.37157" lon="2.94321">
        <ele>413.6</ele>
        <time>2018-10-21T08:08:14Z</time>
      </trkpt>
      <trkpt lat="46.37161" lon="2.94316">
        <ele>413.3</ele>
        <time>2018-10-21T08:08:15Z</time>
      </trkpt>
      <trkpt lat="46.37166" lon="2.94311">
        <ele>413.2</ele>
        <time>2018-10-21T08:08:16Z</time>
      </trkpt>
      <trkpt lat="46.37171" lon="2.94306">
        <ele>413.1</ele>
        <time>2018-10-21T08:08:17Z</time>
      </trkpt>
      <trkpt lat="46.37176" lon="2.94301">
        <ele>413.1</ele>
        <time>2018-10-21T08:08:18Z</time>
      </trkpt>
      <trkpt lat="46.37181" lon="2.94296">
        <ele>413.2</ele>
        <time>2018-10-21T08:08:19Z</time>
      </trkpt>
      <trkpt lat="46.37185" lon="2.94291">
        <ele>413.1</ele>
        <time>2018-10-21T08:08:20Z</time>
      </trkpt>
      <trkpt lat="46.3719" lon="2.94286">
        <ele>413</ele>
        <time>2018-10-21T08:08:21Z</time>
      </trkpt>
      <trkpt lat="46.37194" lon="2.94281">
        <ele>413</ele>
        <time>2018-10-21T08:08:22Z</time>
      </trkpt>
      <trkpt lat="46.37199" lon="2.94276">
        <ele>412.4</ele>
        <time>2018-10-21T08:08:23Z</time>
      </trkpt>
      <trkpt lat="46.37204" lon="2.94271">
        <ele>411.9</ele>
        <time>2018-10-21T08:08:24Z</time>
      </trkpt>
      <trkpt lat="46.37209" lon="2.94266">
        <ele>411.5</ele>
        <time>2018-10-21T08:08:25Z</time>
      </trkpt>
      <trkpt lat="46.37214" lon="2.94261">
        <ele>411.1</ele>
        <time>2018-10-21T08:08:26Z</time>
      </trkpt>
      <trkpt lat="46.37218" lon="2.94254">
        <ele>410.9</ele>
        <time>2018-10-21T08:08:27Z</time>
      </trkpt>
      <trkpt lat="46.37221" lon="2.94247">
        <ele>410.6</ele>
        <time>2018-10-21T08:08:28Z</time>
      </trkpt>
      <trkpt lat="46.37224" lon="2.9424">
        <ele>410.3</ele>
        <time>2018-10-21T08:08:29Z</time>
      </trkpt>
      <trkpt lat="46.37226" lon="2.94233">
        <ele>409.9</ele>
        <time>2018-10-21T08:08:30Z</time>
      </trkpt>
      <trkpt lat="46.37228" lon="2.94226">
        <ele>409.6</ele>
        <time>2018-10-21T08:08:31Z</time>
      </trkpt>
      <trkpt lat="46.37229" lon="2.94219">
        <ele>409.4</ele>
        <time>2018-10-21T08:08:32Z</time>
      </trkpt>
      <trkpt lat="46.37231" lon="2.94213">
        <ele>409.2</ele>
        <time>2018-10-21T08:08:33Z</time>
      </trkpt>
      <trkpt lat="46.37232" lon="2.94206">
        <ele>409.1</ele>
        <time>2018-10-21T08:08:34Z</time>
      </trkpt>
      <trkpt lat="46.37234" lon="2.942">
        <ele>408.5</ele>
        <time>2018-10-21T08:08:35Z</time>
      </trkpt>
      <trkpt lat="46.37236" lon="2.94193">
        <ele>408.1</ele>
        <time>2018-10-21T08:08:36Z</time>
      </trkpt>
      <trkpt lat="46.37239" lon="2.94187">
        <ele>408</ele>
        <time>2018-10-21T08:08:37Z</time>
      </trkpt>
      <trkpt lat="46.37241" lon="2.94178">
        <ele>408</ele>
        <time>2018-10-21T08:08:38Z</time>
      </trkpt>
      <trkpt lat="46.37244" lon="2.9417">
        <ele>407.2</ele>
        <time>2018-10-21T08:08:39Z</time>
      </trkpt>
      <trkpt lat="46.37247" lon="2.94163">
        <ele>406.7</ele>
        <time>2018-10-21T08:08:40Z</time>
      </trkpt>
      <trkpt lat="46.37252" lon="2.94157">
        <ele>406.2</ele>
        <time>2018-10-21T08:08:41Z</time>
      </trkpt>
      <trkpt lat="46.37257" lon="2.94151">
        <ele>405.9</ele>
        <time>2018-10-21T08:08:42Z</time>
      </trkpt>
      <trkpt lat="46.37261" lon="2.94144">
        <ele>405.7</ele>
        <time>2018-10-21T08:08:43Z</time>
      </trkpt>
      <trkpt lat="46.37265" lon="2.94138">
        <ele>405.4</ele>
        <time>2018-10-21T08:08:44Z</time>
      </trkpt>
      <trkpt lat="46.37269" lon="2.94132">
        <ele>405.1</ele>
        <time>2018-10-21T08:08:45Z</time>
      </trkpt>
      <trkpt lat="46.37272" lon="2.94125">
        <ele>404.9</ele>
        <time>2018-10-21T08:08:46Z</time>
      </trkpt>
      <trkpt lat="46.37275" lon="2.94118">
        <ele>404.6</ele>
        <time>2018-10-21T08:08:47Z</time>
      </trkpt>
      <trkpt lat="46.37279" lon="2.94112">
        <ele>404.3</ele>
        <time>2018-10-21T08:08:48Z</time>
      </trkpt>
      <trkpt lat="46.37282" lon="2.94107">
        <ele>403.7</ele>
        <time>2018-10-21T08:08:49Z</time>
      </trkpt>
      <trkpt lat="46.37286" lon="2.94101">
        <ele>403.3</ele>
        <time>2018-10-21T08:08:50Z</time>
      </trkpt>
      <trkpt lat="46.37289" lon="2.94095">
        <ele>403.3</ele>
        <time>2018-10-21T08:08:51Z</time>
      </trkpt>
      <trkpt lat="46.37292" lon="2.94089">
        <ele>403.2</ele>
        <time>2018-10-21T08:08:52Z</time>
      </trkpt>
      <trkpt lat="46.37295" lon="2.94084">
        <ele>403.2</ele>
        <time>2018-10-21T08:08:53Z</time>
      </trkpt>
      <trkpt lat="46.37299" lon="2.94078">
        <ele>403.1</ele>
        <time>2018-10-21T08:08:54Z</time>
      </trkpt>
      <trkpt lat="46.37302" lon="2.94073">
        <ele>403</ele>
        <time>2018-10-21T08:08:55Z</time>
      </trkpt>
      <trkpt lat="46.37305" lon="2.94067">
        <ele>402.9</ele>
        <time>2018-10-21T08:08:56Z</time>
      </trkpt>
      <trkpt lat="46.37308" lon="2.94062">
        <ele>402.7</ele>
        <time>2018-10-21T08:08:57Z</time>
      </trkpt>
      <trkpt lat="46.37311" lon="2.94056">
        <ele>402.7</ele>
        <time>2018-10-21T08:08:58Z</time>
      </trkpt>
      <trkpt lat="46.37315" lon="2.94051">
        <ele>402.5</ele>
        <time>2018-10-21T08:08:59Z</time>
      </trkpt>
      <trkpt lat="46.37319" lon="2.94045">
        <ele>402.5</ele>
        <time>2018-10-21T08:09:00Z</time>
      </trkpt>
      <trkpt lat="46.37323" lon="2.9404">
        <ele>402.2</ele>
        <time>2018-10-21T08:09:01Z</time>
      </trkpt>
      <trkpt lat="46.37327" lon="2.94035">
        <ele>402</ele>
        <time>2018-10-21T08:09:02Z</time>
      </trkpt>
      <trkpt lat="46.37331" lon="2.94028">
        <ele>401.8</ele>
        <time>2018-10-21T08:09:03Z</time>
      </trkpt>
      <trkpt lat="46.37335" lon="2.94022">
        <ele>401.7</ele>
        <time>2018-10-21T08:09:04Z</time>
      </trkpt>
      <trkpt lat="46.37339" lon="2.94015">
        <ele>401.6</ele>
        <time>2018-10-21T08:09:05Z</time>
      </trkpt>
      <trkpt lat="46.37344" lon="2.94008">
        <ele>401.3</ele>
        <time>2018-10-21T08:09:06Z</time>
      </trkpt>
      <trkpt lat="46.37348" lon="2.94001">
        <ele>401.1</ele>
        <time>2018-10-21T08:09:07Z</time>
      </trkpt>
      <trkpt lat="46.37353" lon="2.93995">
        <ele>400.8</ele>
        <time>2018-10-21T08:09:08Z</time>
      </trkpt>
      <trkpt lat="46.37358" lon="2.93988">
        <ele>400.5</ele>
        <time>2018-10-21T08:09:09Z</time>
      </trkpt>
      <trkpt lat="46.37363" lon="2.9398">
        <ele>400.5</ele>
        <time>2018-10-21T08:09:10Z</time>
      </trkpt>
      <trkpt lat="46.37367" lon="2.93973">
        <ele>400.4</ele>
        <time>2018-10-21T08:09:11Z</time>
      </trkpt>
      <trkpt lat="46.37371" lon="2.93966">
        <ele>400.4</ele>
        <time>2018-10-21T08:09:12Z</time>
      </trkpt>
      <trkpt lat="46.37376" lon="2.9396">
        <ele>400.4</ele>
        <time>2018-10-21T08:09:13Z</time>
      </trkpt>
      <trkpt lat="46.3738" lon="2.93954">
        <ele>400.4</ele>
        <time>2018-10-21T08:09:14Z</time>
      </trkpt>
      <trkpt lat="46.37384" lon="2.93948">
        <ele>399.9</ele>
        <time>2018-10-21T08:09:15Z</time>
      </trkpt>
      <trkpt lat="46.37388" lon="2.93942">
        <ele>399.6</ele>
        <time>2018-10-21T08:09:16Z</time>
      </trkpt>
      <trkpt lat="46.37393" lon="2.93937">
        <ele>399.3</ele>
        <time>2018-10-21T08:09:17Z</time>
      </trkpt>
      <trkpt lat="46.37397" lon="2.93931">
        <ele>398.9</ele>
        <time>2018-10-21T08:09:18Z</time>
      </trkpt>
      <trkpt lat="46.37401" lon="2.93926">
        <ele>398.6</ele>
        <time>2018-10-21T08:09:19Z</time>
      </trkpt>
      <trkpt lat="46.37404" lon="2.9392">
        <ele>398.5</ele>
        <time>2018-10-21T08:09:20Z</time>
      </trkpt>
      <trkpt lat="46.37408" lon="2.93915">
        <ele>398.4</ele>
        <time>2018-10-21T08:09:21Z</time>
      </trkpt>
      <trkpt lat="46.37412" lon="2.9391">
        <ele>398.1</ele>
        <time>2018-10-21T08:09:22Z</time>
      </trkpt>
      <trkpt lat="46.37416" lon="2.93904">
        <ele>397.9</ele>
        <time>2018-10-21T08:09:23Z</time>
      </trkpt>
      <trkpt lat="46.37419" lon="2.93899">
        <ele>397.7</ele>
        <time>2018-10-21T08:09:24Z</time>
      </trkpt>
      <trkpt lat="46.37422" lon="2.93893">
        <ele>397.6</ele>
        <time>2018-10-21T08:09:25Z</time>
      </trkpt>
      <trkpt lat="46.37425" lon="2.93888">
        <ele>397.5</ele>
        <time>2018-10-21T08:09:26Z</time>
      </trkpt>
      <trkpt lat="46.37429" lon="2.93882">
        <ele>397.5</ele>
        <time>2018-10-21T08:09:27Z</time>
      </trkpt>
      <trkpt lat="46.37433" lon="2.93876">
        <ele>397.5</ele>
        <time>2018-10-21T08:09:28Z</time>
      </trkpt>
      <trkpt lat="46.37436" lon="2.9387">
        <ele>397.5</ele>
        <time>2018-10-21T08:09:29Z</time>
      </trkpt>
      <trkpt lat="46.3744" lon="2.93864">
        <ele>397.4</ele>
        <time>2018-10-21T08:09:30Z</time>
      </trkpt>
      <trkpt lat="46.37443" lon="2.93859">
        <ele>397.4</ele>
        <time>2018-10-21T08:09:31Z</time>
      </trkpt>
      <trkpt lat="46.37446" lon="2.93853">
        <ele>397.4</ele>
        <time>2018-10-21T08:09:32Z</time>
      </trkpt>
      <trkpt lat="46.3745" lon="2.93847">
        <ele>397.5</ele>
        <time>2018-10-21T08:09:33Z</time>
      </trkpt>
      <trkpt lat="46.37453" lon="2.9384">
        <ele>397.2</ele>
        <time>2018-10-21T08:09:34Z</time>
      </trkpt>
      <trkpt lat="46.37457" lon="2.93834">
        <ele>396.9</ele>
        <time>2018-10-21T08:09:35Z</time>
      </trkpt>
      <trkpt lat="46.3746" lon="2.93828">
        <ele>396.8</ele>
        <time>2018-10-21T08:09:36Z</time>
      </trkpt>
      <trkpt lat="46.37464" lon="2.93822">
        <ele>396.6</ele>
        <time>2018-10-21T08:09:37Z</time>
      </trkpt>
      <trkpt lat="46.37468" lon="2.93815">
        <ele>396.5</ele>
        <time>2018-10-21T08:09:38Z</time>
      </trkpt>
      <trkpt lat="46.37471" lon="2.93808">
        <ele>396.6</ele>
        <time>2018-10-21T08:09:39Z</time>
      </trkpt>
      <trkpt lat="46.37474" lon="2.93802">
        <ele>396.6</ele>
        <time>2018-10-21T08:09:40Z</time>
      </trkpt>
      <trkpt lat="46.37477" lon="2.93795">
        <ele>396.4</ele>
        <time>2018-10-21T08:09:41Z</time>
      </trkpt>
      <trkpt lat="46.3748" lon="2.93789">
        <ele>396.2</ele>
        <time>2018-10-21T08:09:42Z</time>
      </trkpt>
      <trkpt lat="46.37483" lon="2.93782">
        <ele>396</ele>
        <time>2018-10-21T08:09:43Z</time>
      </trkpt>
      <trkpt lat="46.37487" lon="2.93776">
        <ele>395.9</ele>
        <time>2018-10-21T08:09:44Z</time>
      </trkpt>
      <trkpt lat="46.3749" lon="2.9377">
        <ele>395.8</ele>
        <time>2018-10-21T08:09:45Z</time>
      </trkpt>
      <trkpt lat="46.37493" lon="2.93763">
        <ele>396</ele>
        <time>2018-10-21T08:09:46Z</time>
      </trkpt>
      <trkpt lat="46.37496" lon="2.93757">
        <ele>396.2</ele>
        <time>2018-10-21T08:09:47Z</time>
      </trkpt>
      <trkpt lat="46.375" lon="2.93751">
        <ele>396.3</ele>
        <time>2018-10-21T08:09:48Z</time>
      </trkpt>
      <trkpt lat="46.37503" lon="2.93744">
        <ele>395.9</ele>
        <time>2018-10-21T08:09:49Z</time>
      </trkpt>
      <trkpt lat="46.37506" lon="2.93737">
        <ele>395.6</ele>
        <time>2018-10-21T08:09:50Z</time>
      </trkpt>
      <trkpt lat="46.37509" lon="2.93731">
        <ele>395.3</ele>
        <time>2018-10-21T08:09:51Z</time>
      </trkpt>
      <trkpt lat="46.37513" lon="2.93724">
        <ele>395</ele>
        <time>2018-10-21T08:09:52Z</time>
      </trkpt>
      <trkpt lat="46.37516" lon="2.93718">
        <ele>395.2</ele>
        <time>2018-10-21T08:09:53Z</time>
      </trkpt>
      <trkpt lat="46.37519" lon="2.93711">
        <ele>395.3</ele>
        <time>2018-10-21T08:09:54Z</time>
      </trkpt>
      <trkpt lat="46.37522" lon="2.93705">
        <ele>395.5</ele>
        <time>2018-10-21T08:09:55Z</time>
      </trkpt>
      <trkpt lat="46.37525" lon="2.93698">
        <ele>395.8</ele>
        <time>2018-10-21T08:09:56Z</time>
      </trkpt>
      <trkpt lat="46.37528" lon="2.93692">
        <ele>396.1</ele>
        <time>2018-10-21T08:09:57Z</time>
      </trkpt>
      <trkpt lat="46.3753" lon="2.93686">
        <ele>395.4</ele>
        <time>2018-10-21T08:09:58Z</time>
      </trkpt>
      <trkpt lat="46.37532" lon="2.93679">
        <ele>394.8</ele>
        <time>2018-10-21T08:09:59Z</time>
      </trkpt>
      <trkpt lat="46.37533" lon="2.93672">
        <ele>394.2</ele>
        <time>2018-10-21T08:10:00Z</time>
      </trkpt>
      <trkpt lat="46.37535" lon="2.93665">
        <ele>393.7</ele>
        <time>2018-10-21T08:10:01Z</time>
      </trkpt>
      <trkpt lat="46.37539" lon="2.93659">
        <ele>393.4</ele>
        <time>2018-10-21T08:10:02Z</time>
      </trkpt>
      <trkpt lat="46.37543" lon="2.93651">
        <ele>393.5</ele>
        <time>2018-10-21T08:10:03Z</time>
      </trkpt>
      <trkpt lat="46.37547" lon="2.93645">
        <ele>393.6</ele>
        <time>2018-10-21T08:10:04Z</time>
      </trkpt>
      <trkpt lat="46.37551" lon="2.93638">
        <ele>393.6</ele>
        <time>2018-10-21T08:10:05Z</time>
      </trkpt>
      <trkpt lat="46.37555" lon="2.93633">
        <ele>393.5</ele>
        <time>2018-10-21T08:10:06Z</time>
      </trkpt>
      <trkpt lat="46.37559" lon="2.93627">
        <ele>393.5</ele>
        <time>2018-10-21T08:10:07Z</time>
      </trkpt>
      <trkpt lat="46.37563" lon="2.93623">
        <ele>393.5</ele>
        <time>2018-10-21T08:10:08Z</time>
      </trkpt>
      <trkpt lat="46.37568" lon="2.93618">
        <ele>393.4</ele>
        <time>2018-10-21T08:10:09Z</time>
      </trkpt>
      <trkpt lat="46.37572" lon="2.93614">
        <ele>393.4</ele>
        <time>2018-10-21T08:10:10Z</time>
      </trkpt>
      <trkpt lat="46.37577" lon="2.9361">
        <ele>393.4</ele>
        <time>2018-10-21T08:10:11Z</time>
      </trkpt>
      <trkpt lat="46.37582" lon="2.93605">
        <ele>393.2</ele>
        <time>2018-10-21T08:10:12Z</time>
      </trkpt>
      <trkpt lat="46.37587" lon="2.93601">
        <ele>393</ele>
        <time>2018-10-21T08:10:13Z</time>
      </trkpt>
      <trkpt lat="46.37592" lon="2.93596">
        <ele>392.9</ele>
        <time>2018-10-21T08:10:14Z</time>
      </trkpt>
      <trkpt lat="46.37596" lon="2.93592">
        <ele>392.5</ele>
        <time>2018-10-21T08:10:15Z</time>
      </trkpt>
      <trkpt lat="46.37601" lon="2.93588">
        <ele>392.3</ele>
        <time>2018-10-21T08:10:16Z</time>
      </trkpt>
      <trkpt lat="46.37606" lon="2.93584">
        <ele>391.7</ele>
        <time>2018-10-21T08:10:17Z</time>
      </trkpt>
      <trkpt lat="46.37611" lon="2.9358">
        <ele>391.3</ele>
        <time>2018-10-21T08:10:18Z</time>
      </trkpt>
      <trkpt lat="46.37616" lon="2.93577">
        <ele>391.2</ele>
        <time>2018-10-21T08:10:19Z</time>
      </trkpt>
      <trkpt lat="46.37621" lon="2.93574">
        <ele>391.2</ele>
        <time>2018-10-21T08:10:20Z</time>
      </trkpt>
      <trkpt lat="46.37626" lon="2.93571">
        <ele>391.2</ele>
        <time>2018-10-21T08:10:21Z</time>
      </trkpt>
      <trkpt lat="46.37631" lon="2.93568">
        <ele>391.1</ele>
        <time>2018-10-21T08:10:22Z</time>
      </trkpt>
      <trkpt lat="46.37635" lon="2.93565">
        <ele>391.1</ele>
        <time>2018-10-21T08:10:23Z</time>
      </trkpt>
      <trkpt lat="46.37639" lon="2.93562">
        <ele>391.2</ele>
        <time>2018-10-21T08:10:24Z</time>
      </trkpt>
      <trkpt lat="46.37644" lon="2.93559">
        <ele>391.3</ele>
        <time>2018-10-21T08:10:25Z</time>
      </trkpt>
      <trkpt lat="46.37648" lon="2.93556">
        <ele>391.3</ele>
        <time>2018-10-21T08:10:26Z</time>
      </trkpt>
      <trkpt lat="46.37653" lon="2.93554">
        <ele>391.4</ele>
        <time>2018-10-21T08:10:27Z</time>
      </trkpt>
      <trkpt lat="46.37657" lon="2.93552">
        <ele>391.5</ele>
        <time>2018-10-21T08:10:28Z</time>
      </trkpt>
      <trkpt lat="46.37662" lon="2.93549">
        <ele>391.5</ele>
        <time>2018-10-21T08:10:29Z</time>
      </trkpt>
      <trkpt lat="46.37666" lon="2.93547">
        <ele>391.5</ele>
        <time>2018-10-21T08:10:30Z</time>
      </trkpt>
      <trkpt lat="46.37671" lon="2.93543">
        <ele>391.5</ele>
        <time>2018-10-21T08:10:31Z</time>
      </trkpt>
      <trkpt lat="46.37675" lon="2.93539">
        <ele>391.5</ele>
        <time>2018-10-21T08:10:32Z</time>
      </trkpt>
      <trkpt lat="46.37679" lon="2.93535">
        <ele>391.5</ele>
        <time>2018-10-21T08:10:33Z</time>
      </trkpt>
      <trkpt lat="46.37683" lon="2.93531">
        <ele>391.2</ele>
        <time>2018-10-21T08:10:34Z</time>
      </trkpt>
      <trkpt lat="46.37687" lon="2.93526">
        <ele>391</ele>
        <time>2018-10-21T08:10:35Z</time>
      </trkpt>
      <trkpt lat="46.37691" lon="2.93522">
        <ele>390.8</ele>
        <time>2018-10-21T08:10:36Z</time>
      </trkpt>
      <trkpt lat="46.37696" lon="2.93518">
        <ele>390.6</ele>
        <time>2018-10-21T08:10:37Z</time>
      </trkpt>
      <trkpt lat="46.377" lon="2.93513">
        <ele>390.5</ele>
        <time>2018-10-21T08:10:38Z</time>
      </trkpt>
      <trkpt lat="46.37704" lon="2.93508">
        <ele>390.3</ele>
        <time>2018-10-21T08:10:39Z</time>
      </trkpt>
      <trkpt lat="46.37708" lon="2.93504">
        <ele>390.1</ele>
        <time>2018-10-21T08:10:40Z</time>
      </trkpt>
      <trkpt lat="46.37712" lon="2.93499">
        <ele>389.8</ele>
        <time>2018-10-21T08:10:41Z</time>
      </trkpt>
      <trkpt lat="46.37716" lon="2.93494">
        <ele>389.6</ele>
        <time>2018-10-21T08:10:42Z</time>
      </trkpt>
      <trkpt lat="46.3772" lon="2.93489">
        <ele>389.5</ele>
        <time>2018-10-21T08:10:43Z</time>
      </trkpt>
      <trkpt lat="46.37723" lon="2.93484">
        <ele>389.3</ele>
        <time>2018-10-21T08:10:44Z</time>
      </trkpt>
      <trkpt lat="46.37726" lon="2.93479">
        <ele>389.2</ele>
        <time>2018-10-21T08:10:45Z</time>
      </trkpt>
      <trkpt lat="46.37729" lon="2.93473">
        <ele>389.2</ele>
        <time>2018-10-21T08:10:46Z</time>
      </trkpt>
      <trkpt lat="46.37732" lon="2.93466">
        <ele>389.1</ele>
        <time>2018-10-21T08:10:47Z</time>
      </trkpt>
      <trkpt lat="46.37734" lon="2.9346">
        <ele>388.9</ele>
        <time>2018-10-21T08:10:48Z</time>
      </trkpt>
      <trkpt lat="46.37737" lon="2.93453">
        <ele>388.8</ele>
        <time>2018-10-21T08:10:49Z</time>
      </trkpt>
      <trkpt lat="46.3774" lon="2.93447">
        <ele>388.7</ele>
        <time>2018-10-21T08:10:50Z</time>
      </trkpt>
      <trkpt lat="46.37743" lon="2.93441">
        <ele>388.6</ele>
        <time>2018-10-21T08:10:51Z</time>
      </trkpt>
      <trkpt lat="46.37746" lon="2.93435">
        <ele>388.5</ele>
        <time>2018-10-21T08:10:52Z</time>
      </trkpt>
      <trkpt lat="46.37749" lon="2.93429">
        <ele>388.4</ele>
        <time>2018-10-21T08:10:53Z</time>
      </trkpt>
      <trkpt lat="46.37753" lon="2.93424">
        <ele>388.3</ele>
        <time>2018-10-21T08:10:54Z</time>
      </trkpt>
      <trkpt lat="46.37756" lon="2.93418">
        <ele>388.5</ele>
        <time>2018-10-21T08:10:55Z</time>
      </trkpt>
      <trkpt lat="46.37759" lon="2.93412">
        <ele>388.7</ele>
        <time>2018-10-21T08:10:56Z</time>
      </trkpt>
      <trkpt lat="46.37763" lon="2.93407">
        <ele>388.8</ele>
        <time>2018-10-21T08:10:57Z</time>
      </trkpt>
      <trkpt lat="46.37766" lon="2.93403">
        <ele>389</ele>
        <time>2018-10-21T08:10:58Z</time>
      </trkpt>
      <trkpt lat="46.37769" lon="2.93397">
        <ele>389.1</ele>
        <time>2018-10-21T08:10:59Z</time>
      </trkpt>
      <trkpt lat="46.37772" lon="2.93392">
        <ele>388.8</ele>
        <time>2018-10-21T08:11:00Z</time>
      </trkpt>
      <trkpt lat="46.37776" lon="2.93387">
        <ele>388.6</ele>
        <time>2018-10-21T08:11:01Z</time>
      </trkpt>
      <trkpt lat="46.37779" lon="2.93382">
        <ele>388.2</ele>
        <time>2018-10-21T08:11:02Z</time>
      </trkpt>
      <trkpt lat="46.37785" lon="2.93373">
        <ele>387.8</ele>
        <time>2018-10-21T08:11:04Z</time>
      </trkpt>
      <trkpt lat="46.37789" lon="2.93367">
        <ele>387.6</ele>
        <time>2018-10-21T08:11:05Z</time>
      </trkpt>
      <trkpt lat="46.37792" lon="2.93362">
        <ele>387.5</ele>
        <time>2018-10-21T08:11:06Z</time>
      </trkpt>
      <trkpt lat="46.37795" lon="2.93357">
        <ele>387.5</ele>
        <time>2018-10-21T08:11:07Z</time>
      </trkpt>
      <trkpt lat="46.37799" lon="2.93352">
        <ele>387.5</ele>
        <time>2018-10-21T08:11:08Z</time>
      </trkpt>
      <trkpt lat="46.37802" lon="2.93347">
        <ele>387.5</ele>
        <time>2018-10-21T08:11:09Z</time>
      </trkpt>
      <trkpt lat="46.37808" lon="2.93338">
        <ele>387.5</ele>
        <time>2018-10-21T08:11:11Z</time>
      </trkpt>
      <trkpt lat="46.37811" lon="2.93327">
        <ele>387.3</ele>
        <time>2018-10-21T08:11:13Z</time>
      </trkpt>
      <trkpt lat="46.37811" lon="2.9332">
        <ele>387.1</ele>
        <time>2018-10-21T08:11:14Z</time>
      </trkpt>
      <trkpt lat="46.37809" lon="2.93313">
        <ele>386.9</ele>
        <time>2018-10-21T08:11:15Z</time>
      </trkpt>
      <trkpt lat="46.37806" lon="2.93306">
        <ele>386.8</ele>
        <time>2018-10-21T08:11:16Z</time>
      </trkpt>
      <trkpt lat="46.37804" lon="2.93299">
        <ele>387.2</ele>
        <time>2018-10-21T08:11:17Z</time>
      </trkpt>
      <trkpt lat="46.37802" lon="2.93291">
        <ele>387.5</ele>
        <time>2018-10-21T08:11:18Z</time>
      </trkpt>
      <trkpt lat="46.37799" lon="2.93284">
        <ele>387.5</ele>
        <time>2018-10-21T08:11:19Z</time>
      </trkpt>
      <trkpt lat="46.37797" lon="2.93277">
        <ele>387.6</ele>
        <time>2018-10-21T08:11:20Z</time>
      </trkpt>
      <trkpt lat="46.37795" lon="2.9327">
        <ele>387.4</ele>
        <time>2018-10-21T08:11:21Z</time>
      </trkpt>
      <trkpt lat="46.37793" lon="2.93263">
        <ele>387.3</ele>
        <time>2018-10-21T08:11:22Z</time>
      </trkpt>
      <trkpt lat="46.37791" lon="2.93256">
        <ele>387.2</ele>
        <time>2018-10-21T08:11:23Z</time>
      </trkpt>
      <trkpt lat="46.37789" lon="2.93249">
        <ele>386.8</ele>
        <time>2018-10-21T08:11:24Z</time>
      </trkpt>
      <trkpt lat="46.37787" lon="2.93242">
        <ele>386.5</ele>
        <time>2018-10-21T08:11:25Z</time>
      </trkpt>
      <trkpt lat="46.37785" lon="2.93235">
        <ele>386.4</ele>
        <time>2018-10-21T08:11:26Z</time>
      </trkpt>
      <trkpt lat="46.37782" lon="2.93229">
        <ele>386.3</ele>
        <time>2018-10-21T08:11:27Z</time>
      </trkpt>
      <trkpt lat="46.3778" lon="2.93222">
        <ele>386.3</ele>
        <time>2018-10-21T08:11:28Z</time>
      </trkpt>
      <trkpt lat="46.37778" lon="2.93215">
        <ele>385.9</ele>
        <time>2018-10-21T08:11:29Z</time>
      </trkpt>
      <trkpt lat="46.37776" lon="2.93208">
        <ele>385.6</ele>
        <time>2018-10-21T08:11:30Z</time>
      </trkpt>
      <trkpt lat="46.37773" lon="2.93202">
        <ele>386</ele>
        <time>2018-10-21T08:11:31Z</time>
      </trkpt>
      <trkpt lat="46.37771" lon="2.93195">
        <ele>386.2</ele>
        <time>2018-10-21T08:11:32Z</time>
      </trkpt>
      <trkpt lat="46.37768" lon="2.93189">
        <ele>386.3</ele>
        <time>2018-10-21T08:11:33Z</time>
      </trkpt>
      <trkpt lat="46.37765" lon="2.93184">
        <ele>386.3</ele>
        <time>2018-10-21T08:11:34Z</time>
      </trkpt>
      <trkpt lat="46.37761" lon="2.9318">
        <ele>386.4</ele>
        <time>2018-10-21T08:11:35Z</time>
      </trkpt>
      <trkpt lat="46.37758" lon="2.93174">
        <ele>386</ele>
        <time>2018-10-21T08:11:36Z</time>
      </trkpt>
      <trkpt lat="46.37755" lon="2.93168">
        <ele>385.7</ele>
        <time>2018-10-21T08:11:37Z</time>
      </trkpt>
      <trkpt lat="46.37752" lon="2.93162">
        <ele>385.9</ele>
        <time>2018-10-21T08:11:38Z</time>
      </trkpt>
      <trkpt lat="46.37749" lon="2.93156">
        <ele>386.1</ele>
        <time>2018-10-21T08:11:39Z</time>
      </trkpt>
      <trkpt lat="46.37747" lon="2.9315">
        <ele>386.1</ele>
        <time>2018-10-21T08:11:40Z</time>
      </trkpt>
      <trkpt lat="46.37744" lon="2.93144">
        <ele>386.1</ele>
        <time>2018-10-21T08:11:41Z</time>
      </trkpt>
      <trkpt lat="46.37741" lon="2.93138">
        <ele>386.1</ele>
        <time>2018-10-21T08:11:42Z</time>
      </trkpt>
      <trkpt lat="46.37738" lon="2.93131">
        <ele>385.9</ele>
        <time>2018-10-21T08:11:43Z</time>
      </trkpt>
      <trkpt lat="46.37735" lon="2.93125">
        <ele>385.8</ele>
        <time>2018-10-21T08:11:44Z</time>
      </trkpt>
      <trkpt lat="46.37733" lon="2.93118">
        <ele>385.8</ele>
        <time>2018-10-21T08:11:45Z</time>
      </trkpt>
      <trkpt lat="46.37729" lon="2.93112">
        <ele>385.8</ele>
        <time>2018-10-21T08:11:46Z</time>
      </trkpt>
      <trkpt lat="46.37726" lon="2.93106">
        <ele>385.8</ele>
        <time>2018-10-21T08:11:47Z</time>
      </trkpt>
      <trkpt lat="46.37723" lon="2.931">
        <ele>385.7</ele>
        <time>2018-10-21T08:11:48Z</time>
      </trkpt>
      <trkpt lat="46.3772" lon="2.93093">
        <ele>385.7</ele>
        <time>2018-10-21T08:11:49Z</time>
      </trkpt>
      <trkpt lat="46.37719" lon="2.93085">
        <ele>385.4</ele>
        <time>2018-10-21T08:11:50Z</time>
      </trkpt>
      <trkpt lat="46.37721" lon="2.93077">
        <ele>385.2</ele>
        <time>2018-10-21T08:11:51Z</time>
      </trkpt>
      <trkpt lat="46.37724" lon="2.93069">
        <ele>385.1</ele>
        <time>2018-10-21T08:11:52Z</time>
      </trkpt>
      <trkpt lat="46.37728" lon="2.93062">
        <ele>385</ele>
        <time>2018-10-21T08:11:53Z</time>
      </trkpt>
      <trkpt lat="46.37733" lon="2.93055">
        <ele>384.9</ele>
        <time>2018-10-21T08:11:54Z</time>
      </trkpt>
      <trkpt lat="46.37738" lon="2.93049">
        <ele>384.9</ele>
        <time>2018-10-21T08:11:55Z</time>
      </trkpt>
      <trkpt lat="46.37742" lon="2.93043">
        <ele>384.9</ele>
        <time>2018-10-21T08:11:56Z</time>
      </trkpt>
      <trkpt lat="46.37746" lon="2.93037">
        <ele>384.7</ele>
        <time>2018-10-21T08:11:57Z</time>
      </trkpt>
      <trkpt lat="46.37751" lon="2.93031">
        <ele>384.5</ele>
        <time>2018-10-21T08:11:58Z</time>
      </trkpt>
      <trkpt lat="46.37755" lon="2.93026">
        <ele>384.4</ele>
        <time>2018-10-21T08:11:59Z</time>
      </trkpt>
      <trkpt lat="46.37759" lon="2.9302">
        <ele>384.4</ele>
        <time>2018-10-21T08:12:00Z</time>
      </trkpt>
      <trkpt lat="46.37763" lon="2.93015">
        <ele>384.4</ele>
        <time>2018-10-21T08:12:01Z</time>
      </trkpt>
      <trkpt lat="46.37767" lon="2.9301">
        <ele>384.2</ele>
        <time>2018-10-21T08:12:02Z</time>
      </trkpt>
      <trkpt lat="46.37771" lon="2.93005">
        <ele>384.1</ele>
        <time>2018-10-21T08:12:03Z</time>
      </trkpt>
      <trkpt lat="46.37775" lon="2.93">
        <ele>383.9</ele>
        <time>2018-10-21T08:12:04Z</time>
      </trkpt>
      <trkpt lat="46.37779" lon="2.92995">
        <ele>383.7</ele>
        <time>2018-10-21T08:12:05Z</time>
      </trkpt>
      <trkpt lat="46.37783" lon="2.9299">
        <ele>383.6</ele>
        <time>2018-10-21T08:12:06Z</time>
      </trkpt>
      <trkpt lat="46.37787" lon="2.92985">
        <ele>383.7</ele>
        <time>2018-10-21T08:12:07Z</time>
      </trkpt>
      <trkpt lat="46.37791" lon="2.9298">
        <ele>383.8</ele>
        <time>2018-10-21T08:12:08Z</time>
      </trkpt>
      <trkpt lat="46.37795" lon="2.92975">
        <ele>384</ele>
        <time>2018-10-21T08:12:09Z</time>
      </trkpt>
      <trkpt lat="46.37799" lon="2.9297">
        <ele>384.2</ele>
        <time>2018-10-21T08:12:10Z</time>
      </trkpt>
      <trkpt lat="46.37803" lon="2.92965">
        <ele>383.9</ele>
        <time>2018-10-21T08:12:11Z</time>
      </trkpt>
      <trkpt lat="46.37807" lon="2.9296">
        <ele>383.7</ele>
        <time>2018-10-21T08:12:12Z</time>
      </trkpt>
      <trkpt lat="46.37811" lon="2.92955">
        <ele>383.5</ele>
        <time>2018-10-21T08:12:13Z</time>
      </trkpt>
      <trkpt lat="46.37815" lon="2.92949">
        <ele>383.4</ele>
        <time>2018-10-21T08:12:14Z</time>
      </trkpt>
      <trkpt lat="46.37819" lon="2.92944">
        <ele>383.3</ele>
        <time>2018-10-21T08:12:15Z</time>
      </trkpt>
      <trkpt lat="46.37823" lon="2.92939">
        <ele>383</ele>
        <time>2018-10-21T08:12:16Z</time>
      </trkpt>
      <trkpt lat="46.37827" lon="2.92934">
        <ele>382.9</ele>
        <time>2018-10-21T08:12:17Z</time>
      </trkpt>
      <trkpt lat="46.37831" lon="2.92929">
        <ele>382.7</ele>
        <time>2018-10-21T08:12:18Z</time>
      </trkpt>
      <trkpt lat="46.37835" lon="2.92924">
        <ele>382.3</ele>
        <time>2018-10-21T08:12:19Z</time>
      </trkpt>
      <trkpt lat="46.37839" lon="2.92919">
        <ele>381.9</ele>
        <time>2018-10-21T08:12:20Z</time>
      </trkpt>
      <trkpt lat="46.37843" lon="2.92913">
        <ele>381.8</ele>
        <time>2018-10-21T08:12:21Z</time>
      </trkpt>
      <trkpt lat="46.37848" lon="2.92908">
        <ele>381.7</ele>
        <time>2018-10-21T08:12:22Z</time>
      </trkpt>
      <trkpt lat="46.37852" lon="2.92904">
        <ele>381.7</ele>
        <time>2018-10-21T08:12:23Z</time>
      </trkpt>
      <trkpt lat="46.37856" lon="2.929">
        <ele>381.8</ele>
        <time>2018-10-21T08:12:24Z</time>
      </trkpt>
      <trkpt lat="46.3786" lon="2.92895">
        <ele>381.8</ele>
        <time>2018-10-21T08:12:25Z</time>
      </trkpt>
      <trkpt lat="46.37864" lon="2.9289">
        <ele>381.4</ele>
        <time>2018-10-21T08:12:26Z</time>
      </trkpt>
      <trkpt lat="46.37868" lon="2.92886">
        <ele>381.1</ele>
        <time>2018-10-21T08:12:27Z</time>
      </trkpt>
      <trkpt lat="46.37872" lon="2.92881">
        <ele>381.2</ele>
        <time>2018-10-21T08:12:28Z</time>
      </trkpt>
      <trkpt lat="46.37876" lon="2.92876">
        <ele>381.4</ele>
        <time>2018-10-21T08:12:29Z</time>
      </trkpt>
      <trkpt lat="46.3788" lon="2.92871">
        <ele>381.3</ele>
        <time>2018-10-21T08:12:30Z</time>
      </trkpt>
      <trkpt lat="46.37884" lon="2.92866">
        <ele>381.3</ele>
        <time>2018-10-21T08:12:31Z</time>
      </trkpt>
      <trkpt lat="46.37888" lon="2.92861">
        <ele>381.3</ele>
        <time>2018-10-21T08:12:32Z</time>
      </trkpt>
      <trkpt lat="46.37892" lon="2.92856">
        <ele>381.3</ele>
        <time>2018-10-21T08:12:33Z</time>
      </trkpt>
      <trkpt lat="46.37896" lon="2.92851">
        <ele>381.3</ele>
        <time>2018-10-21T08:12:34Z</time>
      </trkpt>
      <trkpt lat="46.379" lon="2.92846">
        <ele>380.9</ele>
        <time>2018-10-21T08:12:35Z</time>
      </trkpt>
      <trkpt lat="46.37904" lon="2.92841">
        <ele>380.6</ele>
        <time>2018-10-21T08:12:36Z</time>
      </trkpt>
      <trkpt lat="46.37907" lon="2.92836">
        <ele>380.4</ele>
        <time>2018-10-21T08:12:37Z</time>
      </trkpt>
      <trkpt lat="46.37911" lon="2.92832">
        <ele>380.5</ele>
        <time>2018-10-21T08:12:38Z</time>
      </trkpt>
      <trkpt lat="46.37914" lon="2.92827">
        <ele>380.5</ele>
        <time>2018-10-21T08:12:39Z</time>
      </trkpt>
      <trkpt lat="46.37918" lon="2.92823">
        <ele>380.4</ele>
        <time>2018-10-21T08:12:40Z</time>
      </trkpt>
      <trkpt lat="46.37921" lon="2.92819">
        <ele>380.3</ele>
        <time>2018-10-21T08:12:41Z</time>
      </trkpt>
      <trkpt lat="46.37925" lon="2.92814">
        <ele>380.4</ele>
        <time>2018-10-21T08:12:42Z</time>
      </trkpt>
      <trkpt lat="46.37932" lon="2.92806">
        <ele>380.5</ele>
        <time>2018-10-21T08:12:44Z</time>
      </trkpt>
      <trkpt lat="46.37938" lon="2.92798">
        <ele>380.9</ele>
        <time>2018-10-21T08:12:46Z</time>
      </trkpt>
      <trkpt lat="46.37945" lon="2.92789">
        <ele>380.8</ele>
        <time>2018-10-21T08:12:48Z</time>
      </trkpt>
      <trkpt lat="46.37952" lon="2.92781">
        <ele>380.9</ele>
        <time>2018-10-21T08:12:50Z</time>
      </trkpt>
      <trkpt lat="46.37958" lon="2.92773">
        <ele>380.7</ele>
        <time>2018-10-21T08:12:52Z</time>
      </trkpt>
      <trkpt lat="46.37965" lon="2.92765">
        <ele>380.5</ele>
        <time>2018-10-21T08:12:54Z</time>
      </trkpt>
      <trkpt lat="46.37969" lon="2.9276">
        <ele>380.4</ele>
        <time>2018-10-21T08:12:55Z</time>
      </trkpt>
      <trkpt lat="46.37972" lon="2.92756">
        <ele>380.3</ele>
        <time>2018-10-21T08:12:56Z</time>
      </trkpt>
      <trkpt lat="46.37976" lon="2.92752">
        <ele>380.8</ele>
        <time>2018-10-21T08:12:57Z</time>
      </trkpt>
      <trkpt lat="46.37982" lon="2.92743">
        <ele>380.8</ele>
        <time>2018-10-21T08:12:59Z</time>
      </trkpt>
      <trkpt lat="46.37986" lon="2.92739">
        <ele>380.5</ele>
        <time>2018-10-21T08:13:00Z</time>
      </trkpt>
      <trkpt lat="46.37989" lon="2.92735">
        <ele>380.5</ele>
        <time>2018-10-21T08:13:01Z</time>
      </trkpt>
      <trkpt lat="46.37993" lon="2.92731">
        <ele>380.6</ele>
        <time>2018-10-21T08:13:02Z</time>
      </trkpt>
      <trkpt lat="46.37996" lon="2.92727">
        <ele>380.6</ele>
        <time>2018-10-21T08:13:03Z</time>
      </trkpt>
      <trkpt lat="46.38" lon="2.92722">
        <ele>380.7</ele>
        <time>2018-10-21T08:13:04Z</time>
      </trkpt>
      <trkpt lat="46.38004" lon="2.92718">
        <ele>380.9</ele>
        <time>2018-10-21T08:13:05Z</time>
      </trkpt>
      <trkpt lat="46.38007" lon="2.92713">
        <ele>380.8</ele>
        <time>2018-10-21T08:13:06Z</time>
      </trkpt>
      <trkpt lat="46.38011" lon="2.92709">
        <ele>380.8</ele>
        <time>2018-10-21T08:13:07Z</time>
      </trkpt>
      <trkpt lat="46.38014" lon="2.92705">
        <ele>380.7</ele>
        <time>2018-10-21T08:13:08Z</time>
      </trkpt>
      <trkpt lat="46.38018" lon="2.927">
        <ele>380.9</ele>
        <time>2018-10-21T08:13:09Z</time>
      </trkpt>
      <trkpt lat="46.38021" lon="2.92696">
        <ele>381</ele>
        <time>2018-10-21T08:13:10Z</time>
      </trkpt>
      <trkpt lat="46.38025" lon="2.92692">
        <ele>380.6</ele>
        <time>2018-10-21T08:13:11Z</time>
      </trkpt>
      <trkpt lat="46.38028" lon="2.92688">
        <ele>380.3</ele>
        <time>2018-10-21T08:13:12Z</time>
      </trkpt>
      <trkpt lat="46.38032" lon="2.92683">
        <ele>380.4</ele>
        <time>2018-10-21T08:13:13Z</time>
      </trkpt>
      <trkpt lat="46.38036" lon="2.92678">
        <ele>380.4</ele>
        <time>2018-10-21T08:13:14Z</time>
      </trkpt>
      <trkpt lat="46.3804" lon="2.92673">
        <ele>380.4</ele>
        <time>2018-10-21T08:13:15Z</time>
      </trkpt>
      <trkpt lat="46.38044" lon="2.92668">
        <ele>380.1</ele>
        <time>2018-10-21T08:13:16Z</time>
      </trkpt>
      <trkpt lat="46.38048" lon="2.92664">
        <ele>379.9</ele>
        <time>2018-10-21T08:13:17Z</time>
      </trkpt>
      <trkpt lat="46.38051" lon="2.92659">
        <ele>379.6</ele>
        <time>2018-10-21T08:13:18Z</time>
      </trkpt>
      <trkpt lat="46.38055" lon="2.92654">
        <ele>379.4</ele>
        <time>2018-10-21T08:13:19Z</time>
      </trkpt>
      <trkpt lat="46.38061" lon="2.92645">
        <ele>379.2</ele>
        <time>2018-10-21T08:13:21Z</time>
      </trkpt>
      <trkpt lat="46.38064" lon="2.9264">
        <ele>379.2</ele>
        <time>2018-10-21T08:13:22Z</time>
      </trkpt>
      <trkpt lat="46.38068" lon="2.92635">
        <ele>379.1</ele>
        <time>2018-10-21T08:13:23Z</time>
      </trkpt>
      <trkpt lat="46.38072" lon="2.92631">
        <ele>379</ele>
        <time>2018-10-21T08:13:24Z</time>
      </trkpt>
      <trkpt lat="46.38076" lon="2.92627">
        <ele>378.4</ele>
        <time>2018-10-21T08:13:25Z</time>
      </trkpt>
      <trkpt lat="46.3808" lon="2.92624">
        <ele>378</ele>
        <time>2018-10-21T08:13:26Z</time>
      </trkpt>
      <trkpt lat="46.38087" lon="2.92617">
        <ele>377.6</ele>
        <time>2018-10-21T08:13:28Z</time>
      </trkpt>
      <trkpt lat="46.38094" lon="2.92611">
        <ele>377.5</ele>
        <time>2018-10-21T08:13:30Z</time>
      </trkpt>
      <trkpt lat="46.38099" lon="2.92603">
        <ele>377</ele>
        <time>2018-10-21T08:13:32Z</time>
      </trkpt>
      <trkpt lat="46.38104" lon="2.92595">
        <ele>376.6</ele>
        <time>2018-10-21T08:13:34Z</time>
      </trkpt>
      <trkpt lat="46.38108" lon="2.92584">
        <ele>376.3</ele>
        <time>2018-10-21T08:13:36Z</time>
      </trkpt>
      <trkpt lat="46.38111" lon="2.92579">
        <ele>376.4</ele>
        <time>2018-10-21T08:13:37Z</time>
      </trkpt>
      <trkpt lat="46.38113" lon="2.92573">
        <ele>376.5</ele>
        <time>2018-10-21T08:13:38Z</time>
      </trkpt>
      <trkpt lat="46.38116" lon="2.92567">
        <ele>376.7</ele>
        <time>2018-10-21T08:13:39Z</time>
      </trkpt>
      <trkpt lat="46.38118" lon="2.92561">
        <ele>376.8</ele>
        <time>2018-10-21T08:13:40Z</time>
      </trkpt>
      <trkpt lat="46.38121" lon="2.92555">
        <ele>376.9</ele>
        <time>2018-10-21T08:13:41Z</time>
      </trkpt>
      <trkpt lat="46.38124" lon="2.92549">
        <ele>376.5</ele>
        <time>2018-10-21T08:13:42Z</time>
      </trkpt>
      <trkpt lat="46.38127" lon="2.92543">
        <ele>376.1</ele>
        <time>2018-10-21T08:13:43Z</time>
      </trkpt>
      <trkpt lat="46.3813" lon="2.92536">
        <ele>376</ele>
        <time>2018-10-21T08:13:44Z</time>
      </trkpt>
      <trkpt lat="46.38133" lon="2.9253">
        <ele>375.9</ele>
        <time>2018-10-21T08:13:45Z</time>
      </trkpt>
      <trkpt lat="46.38136" lon="2.92523">
        <ele>375.9</ele>
        <time>2018-10-21T08:13:46Z</time>
      </trkpt>
      <trkpt lat="46.38139" lon="2.92516">
        <ele>375.6</ele>
        <time>2018-10-21T08:13:47Z</time>
      </trkpt>
      <trkpt lat="46.38143" lon="2.9251">
        <ele>375.4</ele>
        <time>2018-10-21T08:13:48Z</time>
      </trkpt>
      <trkpt lat="46.38146" lon="2.92503">
        <ele>375.6</ele>
        <time>2018-10-21T08:13:49Z</time>
      </trkpt>
      <trkpt lat="46.3815" lon="2.92496">
        <ele>375.8</ele>
        <time>2018-10-21T08:13:50Z</time>
      </trkpt>
      <trkpt lat="46.38154" lon="2.92489">
        <ele>375.7</ele>
        <time>2018-10-21T08:13:51Z</time>
      </trkpt>
      <trkpt lat="46.38158" lon="2.92482">
        <ele>375.7</ele>
        <time>2018-10-21T08:13:52Z</time>
      </trkpt>
      <trkpt lat="46.38162" lon="2.92475">
        <ele>375.7</ele>
        <time>2018-10-21T08:13:53Z</time>
      </trkpt>
      <trkpt lat="46.38166" lon="2.92467">
        <ele>375.4</ele>
        <time>2018-10-21T08:13:54Z</time>
      </trkpt>
      <trkpt lat="46.3817" lon="2.9246">
        <ele>375.2</ele>
        <time>2018-10-21T08:13:55Z</time>
      </trkpt>
      <trkpt lat="46.38174" lon="2.92452">
        <ele>374.5</ele>
        <time>2018-10-21T08:13:56Z</time>
      </trkpt>
      <trkpt lat="46.38179" lon="2.92445">
        <ele>373.9</ele>
        <time>2018-10-21T08:13:57Z</time>
      </trkpt>
      <trkpt lat="46.38183" lon="2.92438">
        <ele>373.8</ele>
        <time>2018-10-21T08:13:58Z</time>
      </trkpt>
      <trkpt lat="46.38187" lon="2.9243">
        <ele>373.7</ele>
        <time>2018-10-21T08:13:59Z</time>
      </trkpt>
      <trkpt lat="46.38191" lon="2.92422">
        <ele>373.6</ele>
        <time>2018-10-21T08:14:00Z</time>
      </trkpt>
      <trkpt lat="46.38196" lon="2.92415">
        <ele>373.1</ele>
        <time>2018-10-21T08:14:01Z</time>
      </trkpt>
      <trkpt lat="46.38201" lon="2.92408">
        <ele>372.8</ele>
        <time>2018-10-21T08:14:02Z</time>
      </trkpt>
      <trkpt lat="46.38205" lon="2.92401">
        <ele>372.1</ele>
        <time>2018-10-21T08:14:03Z</time>
      </trkpt>
      <trkpt lat="46.38209" lon="2.92394">
        <ele>371.5</ele>
        <time>2018-10-21T08:14:04Z</time>
      </trkpt>
      <trkpt lat="46.38212" lon="2.92388">
        <ele>371.1</ele>
        <time>2018-10-21T08:14:05Z</time>
      </trkpt>
      <trkpt lat="46.38216" lon="2.92384">
        <ele>371.1</ele>
        <time>2018-10-21T08:14:06Z</time>
      </trkpt>
      <trkpt lat="46.3822" lon="2.9238">
        <ele>371.1</ele>
        <time>2018-10-21T08:14:07Z</time>
      </trkpt>
      <trkpt lat="46.38223" lon="2.92375">
        <ele>370.6</ele>
        <time>2018-10-21T08:14:08Z</time>
      </trkpt>
      <trkpt lat="46.38225" lon="2.92369">
        <ele>370.3</ele>
        <time>2018-10-21T08:14:09Z</time>
      </trkpt>
      <trkpt lat="46.38228" lon="2.92363">
        <ele>369.9</ele>
        <time>2018-10-21T08:14:10Z</time>
      </trkpt>
      <trkpt lat="46.38232" lon="2.92357">
        <ele>369.6</ele>
        <time>2018-10-21T08:14:11Z</time>
      </trkpt>
      <trkpt lat="46.38235" lon="2.92351">
        <ele>369.4</ele>
        <time>2018-10-21T08:14:12Z</time>
      </trkpt>
      <trkpt lat="46.38238" lon="2.92346">
        <ele>369.1</ele>
        <time>2018-10-21T08:14:13Z</time>
      </trkpt>
      <trkpt lat="46.38242" lon="2.9234">
        <ele>368.8</ele>
        <time>2018-10-21T08:14:14Z</time>
      </trkpt>
      <trkpt lat="46.38246" lon="2.92334">
        <ele>368.6</ele>
        <time>2018-10-21T08:14:15Z</time>
      </trkpt>
      <trkpt lat="46.38249" lon="2.92328">
        <ele>368.4</ele>
        <time>2018-10-21T08:14:16Z</time>
      </trkpt>
      <trkpt lat="46.38253" lon="2.92322">
        <ele>368.3</ele>
        <time>2018-10-21T08:14:17Z</time>
      </trkpt>
      <trkpt lat="46.38256" lon="2.92316">
        <ele>368.2</ele>
        <time>2018-10-21T08:14:18Z</time>
      </trkpt>
      <trkpt lat="46.38259" lon="2.9231">
        <ele>368.1</ele>
        <time>2018-10-21T08:14:19Z</time>
      </trkpt>
      <trkpt lat="46.38263" lon="2.92304">
        <ele>367.8</ele>
        <time>2018-10-21T08:14:20Z</time>
      </trkpt>
      <trkpt lat="46.38266" lon="2.92298">
        <ele>367.6</ele>
        <time>2018-10-21T08:14:21Z</time>
      </trkpt>
      <trkpt lat="46.3827" lon="2.92292">
        <ele>367.6</ele>
        <time>2018-10-21T08:14:22Z</time>
      </trkpt>
      <trkpt lat="46.38273" lon="2.92285">
        <ele>367.5</ele>
        <time>2018-10-21T08:14:23Z</time>
      </trkpt>
      <trkpt lat="46.38276" lon="2.9228">
        <ele>367.5</ele>
        <time>2018-10-21T08:14:24Z</time>
      </trkpt>
      <trkpt lat="46.3828" lon="2.92275">
        <ele>367.5</ele>
        <time>2018-10-21T08:14:25Z</time>
      </trkpt>
      <trkpt lat="46.38283" lon="2.92269">
        <ele>367.4</ele>
        <time>2018-10-21T08:14:26Z</time>
      </trkpt>
      <trkpt lat="46.38285" lon="2.92264">
        <ele>367.2</ele>
        <time>2018-10-21T08:14:27Z</time>
      </trkpt>
      <trkpt lat="46.38288" lon="2.92259">
        <ele>367.1</ele>
        <time>2018-10-21T08:14:28Z</time>
      </trkpt>
      <trkpt lat="46.38291" lon="2.92253">
        <ele>366.8</ele>
        <time>2018-10-21T08:14:29Z</time>
      </trkpt>
      <trkpt lat="46.38294" lon="2.92247">
        <ele>366.6</ele>
        <time>2018-10-21T08:14:30Z</time>
      </trkpt>
      <trkpt lat="46.38298" lon="2.92242">
        <ele>366.5</ele>
        <time>2018-10-21T08:14:31Z</time>
      </trkpt>
      <trkpt lat="46.38301" lon="2.92236">
        <ele>366.8</ele>
        <time>2018-10-21T08:14:32Z</time>
      </trkpt>
      <trkpt lat="46.38305" lon="2.9223">
        <ele>367</ele>
        <time>2018-10-21T08:14:33Z</time>
      </trkpt>
      <trkpt lat="46.38308" lon="2.92225">
        <ele>367</ele>
        <time>2018-10-21T08:14:34Z</time>
      </trkpt>
      <trkpt lat="46.38312" lon="2.92219">
        <ele>367</ele>
        <time>2018-10-21T08:14:35Z</time>
      </trkpt>
      <trkpt lat="46.38318" lon="2.92211">
        <ele>366.8</ele>
        <time>2018-10-21T08:14:37Z</time>
      </trkpt>
      <trkpt lat="46.38325" lon="2.92203">
        <ele>366.6</ele>
        <time>2018-10-21T08:14:39Z</time>
      </trkpt>
      <trkpt lat="46.38328" lon="2.92198">
        <ele>366.5</ele>
        <time>2018-10-21T08:14:40Z</time>
      </trkpt>
      <trkpt lat="46.38331" lon="2.92193">
        <ele>366.7</ele>
        <time>2018-10-21T08:14:41Z</time>
      </trkpt>
      <trkpt lat="46.38335" lon="2.92187">
        <ele>366.9</ele>
        <time>2018-10-21T08:14:42Z</time>
      </trkpt>
      <trkpt lat="46.38338" lon="2.92182">
        <ele>367.1</ele>
        <time>2018-10-21T08:14:43Z</time>
      </trkpt>
      <trkpt lat="46.38341" lon="2.92176">
        <ele>366.7</ele>
        <time>2018-10-21T08:14:44Z</time>
      </trkpt>
      <trkpt lat="46.38344" lon="2.9217">
        <ele>366.5</ele>
        <time>2018-10-21T08:14:45Z</time>
      </trkpt>
      <trkpt lat="46.38348" lon="2.92164">
        <ele>365.8</ele>
        <time>2018-10-21T08:14:46Z</time>
      </trkpt>
      <trkpt lat="46.38351" lon="2.92159">
        <ele>365.3</ele>
        <time>2018-10-21T08:14:47Z</time>
      </trkpt>
      <trkpt lat="46.38355" lon="2.92156">
        <ele>365</ele>
        <time>2018-10-21T08:14:48Z</time>
      </trkpt>
      <trkpt lat="46.3836" lon="2.92154">
        <ele>364.7</ele>
        <time>2018-10-21T08:14:49Z</time>
      </trkpt>
      <trkpt lat="46.38364" lon="2.92151">
        <ele>364.6</ele>
        <time>2018-10-21T08:14:50Z</time>
      </trkpt>
      <trkpt lat="46.38368" lon="2.92146">
        <ele>364.5</ele>
        <time>2018-10-21T08:14:51Z</time>
      </trkpt>
      <trkpt lat="46.38372" lon="2.9214">
        <ele>364.5</ele>
        <time>2018-10-21T08:14:52Z</time>
      </trkpt>
      <trkpt lat="46.38376" lon="2.92135">
        <ele>364.4</ele>
        <time>2018-10-21T08:14:53Z</time>
      </trkpt>
      <trkpt lat="46.3838" lon="2.92129">
        <ele>364.3</ele>
        <time>2018-10-21T08:14:54Z</time>
      </trkpt>
      <trkpt lat="46.38385" lon="2.92124">
        <ele>364.2</ele>
        <time>2018-10-21T08:14:55Z</time>
      </trkpt>
      <trkpt lat="46.38389" lon="2.92119">
        <ele>364</ele>
        <time>2018-10-21T08:14:56Z</time>
      </trkpt>
      <trkpt lat="46.38394" lon="2.92114">
        <ele>363.8</ele>
        <time>2018-10-21T08:14:57Z</time>
      </trkpt>
      <trkpt lat="46.38399" lon="2.92109">
        <ele>363.7</ele>
        <time>2018-10-21T08:14:58Z</time>
      </trkpt>
      <trkpt lat="46.38404" lon="2.92104">
        <ele>363.7</ele>
        <time>2018-10-21T08:14:59Z</time>
      </trkpt>
      <trkpt lat="46.38408" lon="2.92099">
        <ele>363.4</ele>
        <time>2018-10-21T08:15:00Z</time>
      </trkpt>
      <trkpt lat="46.38413" lon="2.92094">
        <ele>363.1</ele>
        <time>2018-10-21T08:15:01Z</time>
      </trkpt>
      <trkpt lat="46.38418" lon="2.9209">
        <ele>362.9</ele>
        <time>2018-10-21T08:15:02Z</time>
      </trkpt>
      <trkpt lat="46.38423" lon="2.92086">
        <ele>362.5</ele>
        <time>2018-10-21T08:15:03Z</time>
      </trkpt>
      <trkpt lat="46.38428" lon="2.92082">
        <ele>362.2</ele>
        <time>2018-10-21T08:15:04Z</time>
      </trkpt>
      <trkpt lat="46.38433" lon="2.92078">
        <ele>361.9</ele>
        <time>2018-10-21T08:15:05Z</time>
      </trkpt>
      <trkpt lat="46.38437" lon="2.92074">
        <ele>361.7</ele>
        <time>2018-10-21T08:15:06Z</time>
      </trkpt>
      <trkpt lat="46.38442" lon="2.92071">
        <ele>361.6</ele>
        <time>2018-10-21T08:15:07Z</time>
      </trkpt>
      <trkpt lat="46.38446" lon="2.92068">
        <ele>361.4</ele>
        <time>2018-10-21T08:15:08Z</time>
      </trkpt>
      <trkpt lat="46.38451" lon="2.92064">
        <ele>361.3</ele>
        <time>2018-10-21T08:15:09Z</time>
      </trkpt>
      <trkpt lat="46.38456" lon="2.92061">
        <ele>361.4</ele>
        <time>2018-10-21T08:15:10Z</time>
      </trkpt>
      <trkpt lat="46.38461" lon="2.92058">
        <ele>361.4</ele>
        <time>2018-10-21T08:15:11Z</time>
      </trkpt>
      <trkpt lat="46.38465" lon="2.92055">
        <ele>361.2</ele>
        <time>2018-10-21T08:15:12Z</time>
      </trkpt>
      <trkpt lat="46.3847" lon="2.92051">
        <ele>361</ele>
        <time>2018-10-21T08:15:13Z</time>
      </trkpt>
      <trkpt lat="46.38474" lon="2.92047">
        <ele>360.9</ele>
        <time>2018-10-21T08:15:14Z</time>
      </trkpt>
      <trkpt lat="46.38478" lon="2.92043">
        <ele>361.1</ele>
        <time>2018-10-21T08:15:15Z</time>
      </trkpt>
      <trkpt lat="46.38481" lon="2.92037">
        <ele>361.2</ele>
        <time>2018-10-21T08:15:16Z</time>
      </trkpt>
      <trkpt lat="46.38485" lon="2.92032">
        <ele>360.7</ele>
        <time>2018-10-21T08:15:17Z</time>
      </trkpt>
      <trkpt lat="46.38488" lon="2.92026">
        <ele>360.4</ele>
        <time>2018-10-21T08:15:18Z</time>
      </trkpt>
      <trkpt lat="46.38491" lon="2.9202">
        <ele>360.2</ele>
        <time>2018-10-21T08:15:19Z</time>
      </trkpt>
      <trkpt lat="46.38494" lon="2.92015">
        <ele>360.1</ele>
        <time>2018-10-21T08:15:20Z</time>
      </trkpt>
      <trkpt lat="46.38496" lon="2.92009">
        <ele>360</ele>
        <time>2018-10-21T08:15:21Z</time>
      </trkpt>
      <trkpt lat="46.38499" lon="2.92002">
        <ele>359.3</ele>
        <time>2018-10-21T08:15:22Z</time>
      </trkpt>
      <trkpt lat="46.38502" lon="2.91996">
        <ele>358.8</ele>
        <time>2018-10-21T08:15:23Z</time>
      </trkpt>
      <trkpt lat="46.38504" lon="2.9199">
        <ele>358.8</ele>
        <time>2018-10-21T08:15:24Z</time>
      </trkpt>
      <trkpt lat="46.38507" lon="2.91985">
        <ele>358.9</ele>
        <time>2018-10-21T08:15:25Z</time>
      </trkpt>
      <trkpt lat="46.3851" lon="2.91979">
        <ele>359</ele>
        <time>2018-10-21T08:15:26Z</time>
      </trkpt>
      <trkpt lat="46.38515" lon="2.91968">
        <ele>359.4</ele>
        <time>2018-10-21T08:15:28Z</time>
      </trkpt>
      <trkpt lat="46.38518" lon="2.91963">
        <ele>359.4</ele>
        <time>2018-10-21T08:15:29Z</time>
      </trkpt>
      <trkpt lat="46.38523" lon="2.91953">
        <ele>359.7</ele>
        <time>2018-10-21T08:15:31Z</time>
      </trkpt>
      <trkpt lat="46.38529" lon="2.91945">
        <ele>360.1</ele>
        <time>2018-10-21T08:15:33Z</time>
      </trkpt>
      <trkpt lat="46.38534" lon="2.91936">
        <ele>359.9</ele>
        <time>2018-10-21T08:15:35Z</time>
      </trkpt>
      <trkpt lat="46.3854" lon="2.91928">
        <ele>360.8</ele>
        <time>2018-10-21T08:15:37Z</time>
      </trkpt>
      <trkpt lat="46.38545" lon="2.91919">
        <ele>360.9</ele>
        <time>2018-10-21T08:15:39Z</time>
      </trkpt>
      <trkpt lat="46.38551" lon="2.91912">
        <ele>360.7</ele>
        <time>2018-10-21T08:15:41Z</time>
      </trkpt>
      <trkpt lat="46.38557" lon="2.91903">
        <ele>360.7</ele>
        <time>2018-10-21T08:15:43Z</time>
      </trkpt>
      <trkpt lat="46.38562" lon="2.91895">
        <ele>360.8</ele>
        <time>2018-10-21T08:15:45Z</time>
      </trkpt>
      <trkpt lat="46.38568" lon="2.91886">
        <ele>361.3</ele>
        <time>2018-10-21T08:15:47Z</time>
      </trkpt>
      <trkpt lat="46.38574" lon="2.91878">
        <ele>361.6</ele>
        <time>2018-10-21T08:15:49Z</time>
      </trkpt>
      <trkpt lat="46.3858" lon="2.9187">
        <ele>361.8</ele>
        <time>2018-10-21T08:15:51Z</time>
      </trkpt>
      <trkpt lat="46.38586" lon="2.91862">
        <ele>362.1</ele>
        <time>2018-10-21T08:15:53Z</time>
      </trkpt>
      <trkpt lat="46.38592" lon="2.91855">
        <ele>362.6</ele>
        <time>2018-10-21T08:15:55Z</time>
      </trkpt>
      <trkpt lat="46.38598" lon="2.91847">
        <ele>362.9</ele>
        <time>2018-10-21T08:15:57Z</time>
      </trkpt>
      <trkpt lat="46.38604" lon="2.91839">
        <ele>363.2</ele>
        <time>2018-10-21T08:15:59Z</time>
      </trkpt>
      <trkpt lat="46.3861" lon="2.91832">
        <ele>363.2</ele>
        <time>2018-10-21T08:16:01Z</time>
      </trkpt>
      <trkpt lat="46.38616" lon="2.91824">
        <ele>363.9</ele>
        <time>2018-10-21T08:16:03Z</time>
      </trkpt>
      <trkpt lat="46.38622" lon="2.91816">
        <ele>364.1</ele>
        <time>2018-10-21T08:16:05Z</time>
      </trkpt>
      <trkpt lat="46.38627" lon="2.91809">
        <ele>364.3</ele>
        <time>2018-10-21T08:16:07Z</time>
      </trkpt>
      <trkpt lat="46.38633" lon="2.91802">
        <ele>364.3</ele>
        <time>2018-10-21T08:16:09Z</time>
      </trkpt>
      <trkpt lat="46.38639" lon="2.91794">
        <ele>364.1</ele>
        <time>2018-10-21T08:16:11Z</time>
      </trkpt>
      <trkpt lat="46.38644" lon="2.91787">
        <ele>364.1</ele>
        <time>2018-10-21T08:16:13Z</time>
      </trkpt>
      <trkpt lat="46.3865" lon="2.91781">
        <ele>364.1</ele>
        <time>2018-10-21T08:16:15Z</time>
      </trkpt>
      <trkpt lat="46.38659" lon="2.91778">
        <ele>364</ele>
        <time>2018-10-21T08:16:18Z</time>
      </trkpt>
      <trkpt lat="46.38651" lon="2.91774">
        <ele>363.5</ele>
        <time>2018-10-21T08:16:30Z</time>
      </trkpt>
      <trkpt lat="46.38649" lon="2.91774">
        <ele>363.2</ele>
        <time>2018-10-21T08:16:31Z</time>
      </trkpt>
      <trkpt lat="46.38637" lon="2.91767">
        <ele>363.3</ele>
        <time>2018-10-21T08:16:36Z</time>
      </trkpt>
      <trkpt lat="46.38631" lon="2.91763">
        <ele>363.3</ele>
        <time>2018-10-21T08:16:38Z</time>
      </trkpt>
      <trkpt lat="46.38625" lon="2.91757">
        <ele>363.3</ele>
        <time>2018-10-21T08:16:40Z</time>
      </trkpt>
      <trkpt lat="46.38618" lon="2.91752">
        <ele>363.3</ele>
        <time>2018-10-21T08:16:42Z</time>
      </trkpt>
      <trkpt lat="46.3861" lon="2.91746">
        <ele>363.6</ele>
        <time>2018-10-21T08:16:44Z</time>
      </trkpt>
      <trkpt lat="46.38602" lon="2.91741">
        <ele>363</ele>
        <time>2018-10-21T08:16:46Z</time>
      </trkpt>
      <trkpt lat="46.38594" lon="2.91735">
        <ele>362.6</ele>
        <time>2018-10-21T08:16:48Z</time>
      </trkpt>
      <trkpt lat="46.38587" lon="2.9173">
        <ele>362.7</ele>
        <time>2018-10-21T08:16:50Z</time>
      </trkpt>
      <trkpt lat="46.38578" lon="2.91725">
        <ele>362.9</ele>
        <time>2018-10-21T08:16:52Z</time>
      </trkpt>
      <trkpt lat="46.38574" lon="2.91723">
        <ele>362.9</ele>
        <time>2018-10-21T08:16:53Z</time>
      </trkpt>
      <trkpt lat="46.3857" lon="2.91721">
        <ele>362.9</ele>
        <time>2018-10-21T08:16:54Z</time>
      </trkpt>
      <trkpt lat="46.38565" lon="2.91718">
        <ele>362.9</ele>
        <time>2018-10-21T08:16:55Z</time>
      </trkpt>
      <trkpt lat="46.38561" lon="2.91716">
        <ele>362.8</ele>
        <time>2018-10-21T08:16:56Z</time>
      </trkpt>
      <trkpt lat="46.38556" lon="2.91714">
        <ele>362.7</ele>
        <time>2018-10-21T08:16:57Z</time>
      </trkpt>
      <trkpt lat="46.38551" lon="2.91711">
        <ele>362.6</ele>
        <time>2018-10-21T08:16:58Z</time>
      </trkpt>
      <trkpt lat="46.38546" lon="2.91709">
        <ele>362.5</ele>
        <time>2018-10-21T08:16:59Z</time>
      </trkpt>
      <trkpt lat="46.38541" lon="2.91707">
        <ele>362.4</ele>
        <time>2018-10-21T08:17:00Z</time>
      </trkpt>
      <trkpt lat="46.38536" lon="2.91704">
        <ele>362.3</ele>
        <time>2018-10-21T08:17:01Z</time>
      </trkpt>
      <trkpt lat="46.38531" lon="2.91702">
        <ele>361.8</ele>
        <time>2018-10-21T08:17:02Z</time>
      </trkpt>
      <trkpt lat="46.38525" lon="2.917">
        <ele>361.5</ele>
        <time>2018-10-21T08:17:03Z</time>
      </trkpt>
      <trkpt lat="46.38519" lon="2.91698">
        <ele>361.7</ele>
        <time>2018-10-21T08:17:04Z</time>
      </trkpt>
      <trkpt lat="46.38513" lon="2.91696">
        <ele>361.9</ele>
        <time>2018-10-21T08:17:05Z</time>
      </trkpt>
      <trkpt lat="46.38507" lon="2.91694">
        <ele>362</ele>
        <time>2018-10-21T08:17:06Z</time>
      </trkpt>
      <trkpt lat="46.385" lon="2.91691">
        <ele>361.6</ele>
        <time>2018-10-21T08:17:07Z</time>
      </trkpt>
      <trkpt lat="46.38494" lon="2.91689">
        <ele>361.2</ele>
        <time>2018-10-21T08:17:08Z</time>
      </trkpt>
      <trkpt lat="46.38487" lon="2.91686">
        <ele>361.1</ele>
        <time>2018-10-21T08:17:09Z</time>
      </trkpt>
      <trkpt lat="46.38481" lon="2.91683">
        <ele>361</ele>
        <time>2018-10-21T08:17:10Z</time>
      </trkpt>
      <trkpt lat="46.38475" lon="2.91681">
        <ele>360.5</ele>
        <time>2018-10-21T08:17:11Z</time>
      </trkpt>
      <trkpt lat="46.38469" lon="2.91681">
        <ele>360.1</ele>
        <time>2018-10-21T08:17:12Z</time>
      </trkpt>
      <trkpt lat="46.38463" lon="2.91679">
        <ele>359.8</ele>
        <time>2018-10-21T08:17:13Z</time>
      </trkpt>
      <trkpt lat="46.38456" lon="2.91677">
        <ele>359.2</ele>
        <time>2018-10-21T08:17:14Z</time>
      </trkpt>
      <trkpt lat="46.38449" lon="2.91675">
        <ele>358.8</ele>
        <time>2018-10-21T08:17:15Z</time>
      </trkpt>
      <trkpt lat="46.38442" lon="2.91673">
        <ele>358.8</ele>
        <time>2018-10-21T08:17:16Z</time>
      </trkpt>
      <trkpt lat="46.38435" lon="2.91671">
        <ele>358.8</ele>
        <time>2018-10-21T08:17:17Z</time>
      </trkpt>
      <trkpt lat="46.38427" lon="2.91669">
        <ele>358.8</ele>
        <time>2018-10-21T08:17:18Z</time>
      </trkpt>
      <trkpt lat="46.3842" lon="2.91666">
        <ele>358.4</ele>
        <time>2018-10-21T08:17:19Z</time>
      </trkpt>
      <trkpt lat="46.38413" lon="2.91664">
        <ele>358.1</ele>
        <time>2018-10-21T08:17:20Z</time>
      </trkpt>
      <trkpt lat="46.38406" lon="2.91661">
        <ele>356.9</ele>
        <time>2018-10-21T08:17:21Z</time>
      </trkpt>
      <trkpt lat="46.38399" lon="2.91658">
        <ele>356</ele>
        <time>2018-10-21T08:17:22Z</time>
      </trkpt>
      <trkpt lat="46.38391" lon="2.91654">
        <ele>355.8</ele>
        <time>2018-10-21T08:17:23Z</time>
      </trkpt>
      <trkpt lat="46.38384" lon="2.9165">
        <ele>355.7</ele>
        <time>2018-10-21T08:17:24Z</time>
      </trkpt>
      <trkpt lat="46.38376" lon="2.91645">
        <ele>355.6</ele>
        <time>2018-10-21T08:17:25Z</time>
      </trkpt>
      <trkpt lat="46.38367" lon="2.9164">
        <ele>354.7</ele>
        <time>2018-10-21T08:17:26Z</time>
      </trkpt>
      <trkpt lat="46.38358" lon="2.91635">
        <ele>354</ele>
        <time>2018-10-21T08:17:27Z</time>
      </trkpt>
      <trkpt lat="46.38349" lon="2.91632">
        <ele>353.3</ele>
        <time>2018-10-21T08:17:28Z</time>
      </trkpt>
      <trkpt lat="46.3834" lon="2.91628">
        <ele>352.7</ele>
        <time>2018-10-21T08:17:29Z</time>
      </trkpt>
      <trkpt lat="46.38331" lon="2.91623">
        <ele>351.4</ele>
        <time>2018-10-21T08:17:30Z</time>
      </trkpt>
      <trkpt lat="46.38322" lon="2.91617">
        <ele>350.4</ele>
        <time>2018-10-21T08:17:31Z</time>
      </trkpt>
      <trkpt lat="46.38313" lon="2.9161">
        <ele>349.7</ele>
        <time>2018-10-21T08:17:32Z</time>
      </trkpt>
      <trkpt lat="46.38305" lon="2.91603">
        <ele>348.6</ele>
        <time>2018-10-21T08:17:33Z</time>
      </trkpt>
      <trkpt lat="46.38298" lon="2.91596">
        <ele>347.8</ele>
        <time>2018-10-21T08:17:34Z</time>
      </trkpt>
      <trkpt lat="46.3829" lon="2.91588">
        <ele>347.2</ele>
        <time>2018-10-21T08:17:35Z</time>
      </trkpt>
      <trkpt lat="46.38283" lon="2.91581">
        <ele>346.8</ele>
        <time>2018-10-21T08:17:36Z</time>
      </trkpt>
      <trkpt lat="46.38276" lon="2.91573">
        <ele>346.5</ele>
        <time>2018-10-21T08:17:37Z</time>
      </trkpt>
      <trkpt lat="46.38269" lon="2.91566">
        <ele>345.7</ele>
        <time>2018-10-21T08:17:38Z</time>
      </trkpt>
      <trkpt lat="46.38264" lon="2.91557">
        <ele>345.2</ele>
        <time>2018-10-21T08:17:39Z</time>
      </trkpt>
      <trkpt lat="46.3826" lon="2.91548">
        <ele>345.1</ele>
        <time>2018-10-21T08:17:40Z</time>
      </trkpt>
      <trkpt lat="46.38257" lon="2.9154">
        <ele>345</ele>
        <time>2018-10-21T08:17:41Z</time>
      </trkpt>
      <trkpt lat="46.38254" lon="2.91531">
        <ele>344.8</ele>
        <time>2018-10-21T08:17:42Z</time>
      </trkpt>
      <trkpt lat="46.38251" lon="2.91524">
        <ele>344.7</ele>
        <time>2018-10-21T08:17:43Z</time>
      </trkpt>
      <trkpt lat="46.38248" lon="2.91517">
        <ele>344.6</ele>
        <time>2018-10-21T08:17:44Z</time>
      </trkpt>
      <trkpt lat="46.38245" lon="2.91509">
        <ele>344.4</ele>
        <time>2018-10-21T08:17:45Z</time>
      </trkpt>
      <trkpt lat="46.38241" lon="2.91503">
        <ele>344.2</ele>
        <time>2018-10-21T08:17:46Z</time>
      </trkpt>
      <trkpt lat="46.38238" lon="2.91496">
        <ele>344.2</ele>
        <time>2018-10-21T08:17:47Z</time>
      </trkpt>
      <trkpt lat="46.38235" lon="2.9149">
        <ele>344.1</ele>
        <time>2018-10-21T08:17:48Z</time>
      </trkpt>
      <trkpt lat="46.38232" lon="2.91484">
        <ele>344.5</ele>
        <time>2018-10-21T08:17:49Z</time>
      </trkpt>
      <trkpt lat="46.3823" lon="2.91477">
        <ele>344.7</ele>
        <time>2018-10-21T08:17:50Z</time>
      </trkpt>
      <trkpt lat="46.38228" lon="2.91471">
        <ele>344.9</ele>
        <time>2018-10-21T08:17:51Z</time>
      </trkpt>
      <trkpt lat="46.38226" lon="2.91465">
        <ele>345</ele>
        <time>2018-10-21T08:17:52Z</time>
      </trkpt>
      <trkpt lat="46.38221" lon="2.91455">
        <ele>345.2</ele>
        <time>2018-10-21T08:17:54Z</time>
      </trkpt>
      <trkpt lat="46.38217" lon="2.91444">
        <ele>345.4</ele>
        <time>2018-10-21T08:17:56Z</time>
      </trkpt>
      <trkpt lat="46.38212" lon="2.91434">
        <ele>345.2</ele>
        <time>2018-10-21T08:17:58Z</time>
      </trkpt>
      <trkpt lat="46.38206" lon="2.91425">
        <ele>345.4</ele>
        <time>2018-10-21T08:18:00Z</time>
      </trkpt>
      <trkpt lat="46.38199" lon="2.91417">
        <ele>345.8</ele>
        <time>2018-10-21T08:18:02Z</time>
      </trkpt>
      <trkpt lat="46.38193" lon="2.9141">
        <ele>346.1</ele>
        <time>2018-10-21T08:18:04Z</time>
      </trkpt>
      <trkpt lat="46.38188" lon="2.91401">
        <ele>346.5</ele>
        <time>2018-10-21T08:18:06Z</time>
      </trkpt>
      <trkpt lat="46.38184" lon="2.9139">
        <ele>346.9</ele>
        <time>2018-10-21T08:18:08Z</time>
      </trkpt>
      <trkpt lat="46.38179" lon="2.9138">
        <ele>347</ele>
        <time>2018-10-21T08:18:10Z</time>
      </trkpt>
      <trkpt lat="46.38175" lon="2.91369">
        <ele>347.4</ele>
        <time>2018-10-21T08:18:12Z</time>
      </trkpt>
      <trkpt lat="46.38174" lon="2.91362">
        <ele>347.2</ele>
        <time>2018-10-21T08:18:13Z</time>
      </trkpt>
      <trkpt lat="46.38174" lon="2.91356">
        <ele>347.1</ele>
        <time>2018-10-21T08:18:14Z</time>
      </trkpt>
      <trkpt lat="46.38173" lon="2.91349">
        <ele>347</ele>
        <time>2018-10-21T08:18:15Z</time>
      </trkpt>
      <trkpt lat="46.38173" lon="2.91336">
        <ele>346.6</ele>
        <time>2018-10-21T08:18:17Z</time>
      </trkpt>
      <trkpt lat="46.38173" lon="2.91323">
        <ele>346.8</ele>
        <time>2018-10-21T08:18:19Z</time>
      </trkpt>
      <trkpt lat="46.38173" lon="2.91312">
        <ele>347.2</ele>
        <time>2018-10-21T08:18:21Z</time>
      </trkpt>
      <trkpt lat="46.38172" lon="2.91301">
        <ele>347.4</ele>
        <time>2018-10-21T08:18:23Z</time>
      </trkpt>
      <trkpt lat="46.38169" lon="2.9129">
        <ele>347.5</ele>
        <time>2018-10-21T08:18:25Z</time>
      </trkpt>
      <trkpt lat="46.38166" lon="2.91279">
        <ele>347.5</ele>
        <time>2018-10-21T08:18:27Z</time>
      </trkpt>
      <trkpt lat="46.38164" lon="2.91272">
        <ele>347.7</ele>
        <time>2018-10-21T08:18:28Z</time>
      </trkpt>
      <trkpt lat="46.38163" lon="2.91266">
        <ele>347.8</ele>
        <time>2018-10-21T08:18:29Z</time>
      </trkpt>
      <trkpt lat="46.38161" lon="2.9126">
        <ele>347.5</ele>
        <time>2018-10-21T08:18:30Z</time>
      </trkpt>
      <trkpt lat="46.3816" lon="2.91253">
        <ele>347.3</ele>
        <time>2018-10-21T08:18:31Z</time>
      </trkpt>
      <trkpt lat="46.38158" lon="2.91246">
        <ele>347.5</ele>
        <time>2018-10-21T08:18:32Z</time>
      </trkpt>
      <trkpt lat="46.38157" lon="2.9124">
        <ele>347.6</ele>
        <time>2018-10-21T08:18:33Z</time>
      </trkpt>
      <trkpt lat="46.38155" lon="2.91234">
        <ele>347.7</ele>
        <time>2018-10-21T08:18:34Z</time>
      </trkpt>
      <trkpt lat="46.38153" lon="2.91227">
        <ele>347.4</ele>
        <time>2018-10-21T08:18:35Z</time>
      </trkpt>
      <trkpt lat="46.3815" lon="2.91221">
        <ele>347.2</ele>
        <time>2018-10-21T08:18:36Z</time>
      </trkpt>
      <trkpt lat="46.38148" lon="2.91215">
        <ele>347.2</ele>
        <time>2018-10-21T08:18:37Z</time>
      </trkpt>
      <trkpt lat="46.38146" lon="2.91209">
        <ele>347.1</ele>
        <time>2018-10-21T08:18:38Z</time>
      </trkpt>
      <trkpt lat="46.38142" lon="2.91198">
        <ele>347.2</ele>
        <time>2018-10-21T08:18:40Z</time>
      </trkpt>
      <trkpt lat="46.38138" lon="2.91187">
        <ele>346.7</ele>
        <time>2018-10-21T08:18:42Z</time>
      </trkpt>
      <trkpt lat="46.38136" lon="2.91181">
        <ele>346.3</ele>
        <time>2018-10-21T08:18:43Z</time>
      </trkpt>
      <trkpt lat="46.38132" lon="2.91176">
        <ele>346.1</ele>
        <time>2018-10-21T08:18:44Z</time>
      </trkpt>
      <trkpt lat="46.38129" lon="2.9117">
        <ele>345.9</ele>
        <time>2018-10-21T08:18:45Z</time>
      </trkpt>
      <trkpt lat="46.38125" lon="2.91165">
        <ele>345.8</ele>
        <time>2018-10-21T08:18:46Z</time>
      </trkpt>
      <trkpt lat="46.38121" lon="2.91159">
        <ele>345.6</ele>
        <time>2018-10-21T08:18:47Z</time>
      </trkpt>
      <trkpt lat="46.38118" lon="2.91152">
        <ele>345.5</ele>
        <time>2018-10-21T08:18:48Z</time>
      </trkpt>
      <trkpt lat="46.38116" lon="2.91146">
        <ele>345.1</ele>
        <time>2018-10-21T08:18:49Z</time>
      </trkpt>
      <trkpt lat="46.38114" lon="2.9114">
        <ele>344.8</ele>
        <time>2018-10-21T08:18:50Z</time>
      </trkpt>
      <trkpt lat="46.38112" lon="2.91133">
        <ele>345.3</ele>
        <time>2018-10-21T08:18:51Z</time>
      </trkpt>
      <trkpt lat="46.38111" lon="2.91127">
        <ele>345.7</ele>
        <time>2018-10-21T08:18:52Z</time>
      </trkpt>
      <trkpt lat="46.38108" lon="2.91115">
        <ele>346</ele>
        <time>2018-10-21T08:18:54Z</time>
      </trkpt>
      <trkpt lat="46.38105" lon="2.91104">
        <ele>346</ele>
        <time>2018-10-21T08:18:56Z</time>
      </trkpt>
      <trkpt lat="46.38102" lon="2.91093">
        <ele>346.1</ele>
        <time>2018-10-21T08:18:58Z</time>
      </trkpt>
      <trkpt lat="46.38099" lon="2.91082">
        <ele>346.4</ele>
        <time>2018-10-21T08:19:00Z</time>
      </trkpt>
      <trkpt lat="46.38096" lon="2.91072">
        <ele>346.3</ele>
        <time>2018-10-21T08:19:02Z</time>
      </trkpt>
      <trkpt lat="46.38092" lon="2.91063">
        <ele>346.3</ele>
        <time>2018-10-21T08:19:04Z</time>
      </trkpt>
      <trkpt lat="46.38088" lon="2.91054">
        <ele>347</ele>
        <time>2018-10-21T08:19:06Z</time>
      </trkpt>
      <trkpt lat="46.38083" lon="2.91046">
        <ele>347.7</ele>
        <time>2018-10-21T08:19:08Z</time>
      </trkpt>
      <trkpt lat="46.38078" lon="2.91037">
        <ele>348</ele>
        <time>2018-10-21T08:19:10Z</time>
      </trkpt>
      <trkpt lat="46.38073" lon="2.91029">
        <ele>348.2</ele>
        <time>2018-10-21T08:19:12Z</time>
      </trkpt>
      <trkpt lat="46.38067" lon="2.91021">
        <ele>348.2</ele>
        <time>2018-10-21T08:19:14Z</time>
      </trkpt>
      <trkpt lat="46.38062" lon="2.91013">
        <ele>348.8</ele>
        <time>2018-10-21T08:19:16Z</time>
      </trkpt>
      <trkpt lat="46.38057" lon="2.91006">
        <ele>349.2</ele>
        <time>2018-10-21T08:19:18Z</time>
      </trkpt>
      <trkpt lat="46.38051" lon="2.90999">
        <ele>349.2</ele>
        <time>2018-10-21T08:19:20Z</time>
      </trkpt>
      <trkpt lat="46.38046" lon="2.90991">
        <ele>349</ele>
        <time>2018-10-21T08:19:22Z</time>
      </trkpt>
      <trkpt lat="46.3804" lon="2.90983">
        <ele>349</ele>
        <time>2018-10-21T08:19:24Z</time>
      </trkpt>
      <trkpt lat="46.38035" lon="2.90976">
        <ele>349.2</ele>
        <time>2018-10-21T08:19:26Z</time>
      </trkpt>
      <trkpt lat="46.3803" lon="2.90969">
        <ele>350.1</ele>
        <time>2018-10-21T08:19:28Z</time>
      </trkpt>
      <trkpt lat="46.38024" lon="2.90964">
        <ele>350.1</ele>
        <time>2018-10-21T08:19:30Z</time>
      </trkpt>
      <trkpt lat="46.38019" lon="2.90954">
        <ele>350</ele>
        <time>2018-10-21T08:19:32Z</time>
      </trkpt>
      <trkpt lat="46.38015" lon="2.90944">
        <ele>350.2</ele>
        <time>2018-10-21T08:19:34Z</time>
      </trkpt>
      <trkpt lat="46.38012" lon="2.90938">
        <ele>350.2</ele>
        <time>2018-10-21T08:19:35Z</time>
      </trkpt>
      <trkpt lat="46.38005" lon="2.90922">
        <ele>350.3</ele>
        <time>2018-10-21T08:19:38Z</time>
      </trkpt>
      <trkpt lat="46.38002" lon="2.90917">
        <ele>349.8</ele>
        <time>2018-10-21T08:19:39Z</time>
      </trkpt>
      <trkpt lat="46.38" lon="2.90912">
        <ele>349.4</ele>
        <time>2018-10-21T08:19:40Z</time>
      </trkpt>
      <trkpt lat="46.37997" lon="2.90906">
        <ele>349.4</ele>
        <time>2018-10-21T08:19:41Z</time>
      </trkpt>
      <trkpt lat="46.37995" lon="2.909">
        <ele>349.4</ele>
        <time>2018-10-21T08:19:42Z</time>
      </trkpt>
      <trkpt lat="46.37993" lon="2.90894">
        <ele>349.4</ele>
        <time>2018-10-21T08:19:43Z</time>
      </trkpt>
      <trkpt lat="46.37991" lon="2.90889">
        <ele>349.3</ele>
        <time>2018-10-21T08:19:44Z</time>
      </trkpt>
      <trkpt lat="46.37988" lon="2.90882">
        <ele>349.3</ele>
        <time>2018-10-21T08:19:45Z</time>
      </trkpt>
      <trkpt lat="46.37986" lon="2.90877">
        <ele>349.4</ele>
        <time>2018-10-21T08:19:46Z</time>
      </trkpt>
      <trkpt lat="46.37984" lon="2.90871">
        <ele>349.5</ele>
        <time>2018-10-21T08:19:47Z</time>
      </trkpt>
      <trkpt lat="46.37982" lon="2.90865">
        <ele>349.5</ele>
        <time>2018-10-21T08:19:48Z</time>
      </trkpt>
      <trkpt lat="46.37979" lon="2.90859">
        <ele>349.4</ele>
        <time>2018-10-21T08:19:49Z</time>
      </trkpt>
      <trkpt lat="46.37975" lon="2.90848">
        <ele>349.1</ele>
        <time>2018-10-21T08:19:51Z</time>
      </trkpt>
      <trkpt lat="46.3797" lon="2.90838">
        <ele>348.9</ele>
        <time>2018-10-21T08:19:53Z</time>
      </trkpt>
      <trkpt lat="46.37965" lon="2.90828">
        <ele>348.8</ele>
        <time>2018-10-21T08:19:55Z</time>
      </trkpt>
      <trkpt lat="46.37962" lon="2.90822">
        <ele>349.4</ele>
        <time>2018-10-21T08:19:56Z</time>
      </trkpt>
      <trkpt lat="46.37957" lon="2.90813">
        <ele>349.8</ele>
        <time>2018-10-21T08:19:58Z</time>
      </trkpt>
      <trkpt lat="46.37951" lon="2.90803">
        <ele>350.1</ele>
        <time>2018-10-21T08:20:00Z</time>
      </trkpt>
      <trkpt lat="46.37948" lon="2.90798">
        <ele>350.3</ele>
        <time>2018-10-21T08:20:01Z</time>
      </trkpt>
      <trkpt lat="46.37945" lon="2.90793">
        <ele>350.5</ele>
        <time>2018-10-21T08:20:02Z</time>
      </trkpt>
      <trkpt lat="46.3794" lon="2.90783">
        <ele>350.1</ele>
        <time>2018-10-21T08:20:04Z</time>
      </trkpt>
      <trkpt lat="46.37934" lon="2.90773">
        <ele>349.8</ele>
        <time>2018-10-21T08:20:06Z</time>
      </trkpt>
      <trkpt lat="46.37932" lon="2.90767">
        <ele>349.7</ele>
        <time>2018-10-21T08:20:07Z</time>
      </trkpt>
      <trkpt lat="46.37929" lon="2.90762">
        <ele>350.2</ele>
        <time>2018-10-21T08:20:08Z</time>
      </trkpt>
      <trkpt lat="46.37926" lon="2.90756">
        <ele>350.6</ele>
        <time>2018-10-21T08:20:09Z</time>
      </trkpt>
      <trkpt lat="46.37923" lon="2.9075">
        <ele>351.1</ele>
        <time>2018-10-21T08:20:10Z</time>
      </trkpt>
      <trkpt lat="46.37921" lon="2.90745">
        <ele>351.5</ele>
        <time>2018-10-21T08:20:11Z</time>
      </trkpt>
      <trkpt lat="46.37918" lon="2.90739">
        <ele>351.5</ele>
        <time>2018-10-21T08:20:12Z</time>
      </trkpt>
      <trkpt lat="46.37914" lon="2.90733">
        <ele>351.6</ele>
        <time>2018-10-21T08:20:13Z</time>
      </trkpt>
      <trkpt lat="46.3791" lon="2.90727">
        <ele>351.6</ele>
        <time>2018-10-21T08:20:14Z</time>
      </trkpt>
      <trkpt lat="46.37907" lon="2.90721">
        <ele>351.1</ele>
        <time>2018-10-21T08:20:15Z</time>
      </trkpt>
      <trkpt lat="46.37903" lon="2.90714">
        <ele>350.7</ele>
        <time>2018-10-21T08:20:16Z</time>
      </trkpt>
      <trkpt lat="46.37898" lon="2.90707">
        <ele>351.1</ele>
        <time>2018-10-21T08:20:17Z</time>
      </trkpt>
      <trkpt lat="46.37893" lon="2.907">
        <ele>351.4</ele>
        <time>2018-10-21T08:20:18Z</time>
      </trkpt>
      <trkpt lat="46.37889" lon="2.90692">
        <ele>350.8</ele>
        <time>2018-10-21T08:20:19Z</time>
      </trkpt>
      <trkpt lat="46.37884" lon="2.90685">
        <ele>350.3</ele>
        <time>2018-10-21T08:20:20Z</time>
      </trkpt>
      <trkpt lat="46.37879" lon="2.90678">
        <ele>350</ele>
        <time>2018-10-21T08:20:21Z</time>
      </trkpt>
      <trkpt lat="46.37874" lon="2.90671">
        <ele>349.7</ele>
        <time>2018-10-21T08:20:22Z</time>
      </trkpt>
      <trkpt lat="46.37869" lon="2.90664">
        <ele>349.5</ele>
        <time>2018-10-21T08:20:23Z</time>
      </trkpt>
      <trkpt lat="46.37864" lon="2.90657">
        <ele>349.4</ele>
        <time>2018-10-21T08:20:24Z</time>
      </trkpt>
      <trkpt lat="46.37859" lon="2.90651">
        <ele>349.3</ele>
        <time>2018-10-21T08:20:25Z</time>
      </trkpt>
      <trkpt lat="46.37854" lon="2.90644">
        <ele>349.2</ele>
        <time>2018-10-21T08:20:26Z</time>
      </trkpt>
      <trkpt lat="46.37848" lon="2.90637">
        <ele>348.7</ele>
        <time>2018-10-21T08:20:27Z</time>
      </trkpt>
      <trkpt lat="46.37842" lon="2.90631">
        <ele>348.4</ele>
        <time>2018-10-21T08:20:28Z</time>
      </trkpt>
      <trkpt lat="46.37836" lon="2.90625">
        <ele>348.1</ele>
        <time>2018-10-21T08:20:29Z</time>
      </trkpt>
      <trkpt lat="46.3783" lon="2.90619">
        <ele>348</ele>
        <time>2018-10-21T08:20:30Z</time>
      </trkpt>
      <trkpt lat="46.37824" lon="2.90614">
        <ele>347.7</ele>
        <time>2018-10-21T08:20:31Z</time>
      </trkpt>
      <trkpt lat="46.37818" lon="2.90608">
        <ele>347.5</ele>
        <time>2018-10-21T08:20:32Z</time>
      </trkpt>
      <trkpt lat="46.37811" lon="2.90603">
        <ele>347.4</ele>
        <time>2018-10-21T08:20:33Z</time>
      </trkpt>
      <trkpt lat="46.37804" lon="2.90597">
        <ele>347</ele>
        <time>2018-10-21T08:20:34Z</time>
      </trkpt>
      <trkpt lat="46.37797" lon="2.90591">
        <ele>346.7</ele>
        <time>2018-10-21T08:20:35Z</time>
      </trkpt>
      <trkpt lat="46.3779" lon="2.90585">
        <ele>345.8</ele>
        <time>2018-10-21T08:20:36Z</time>
      </trkpt>
      <trkpt lat="46.37783" lon="2.90579">
        <ele>345.2</ele>
        <time>2018-10-21T08:20:37Z</time>
      </trkpt>
      <trkpt lat="46.37776" lon="2.90573">
        <ele>344.7</ele>
        <time>2018-10-21T08:20:38Z</time>
      </trkpt>
      <trkpt lat="46.3777" lon="2.90566">
        <ele>344.5</ele>
        <time>2018-10-21T08:20:39Z</time>
      </trkpt>
      <trkpt lat="46.37763" lon="2.90559">
        <ele>344.4</ele>
        <time>2018-10-21T08:20:40Z</time>
      </trkpt>
      <trkpt lat="46.37756" lon="2.90551">
        <ele>343.8</ele>
        <time>2018-10-21T08:20:41Z</time>
      </trkpt>
      <trkpt lat="46.3775" lon="2.90542">
        <ele>343.3</ele>
        <time>2018-10-21T08:20:42Z</time>
      </trkpt>
      <trkpt lat="46.37745" lon="2.90534">
        <ele>342.1</ele>
        <time>2018-10-21T08:20:43Z</time>
      </trkpt>
      <trkpt lat="46.37739" lon="2.90528">
        <ele>341.2</ele>
        <time>2018-10-21T08:20:44Z</time>
      </trkpt>
      <trkpt lat="46.37735" lon="2.90523">
        <ele>340.6</ele>
        <time>2018-10-21T08:20:45Z</time>
      </trkpt>
      <trkpt lat="46.37731" lon="2.90517">
        <ele>340.8</ele>
        <time>2018-10-21T08:20:46Z</time>
      </trkpt>
      <trkpt lat="46.37729" lon="2.9051">
        <ele>341</ele>
        <time>2018-10-21T08:20:47Z</time>
      </trkpt>
      <trkpt lat="46.37727" lon="2.90498">
        <ele>341.8</ele>
        <time>2018-10-21T08:20:49Z</time>
      </trkpt>
      <trkpt lat="46.37724" lon="2.90487">
        <ele>343.1</ele>
        <time>2018-10-21T08:20:51Z</time>
      </trkpt>
      <trkpt lat="46.37722" lon="2.90478">
        <ele>343.7</ele>
        <time>2018-10-21T08:20:53Z</time>
      </trkpt>
      <trkpt lat="46.3772" lon="2.90467">
        <ele>345.2</ele>
        <time>2018-10-21T08:20:56Z</time>
      </trkpt>
      <trkpt lat="46.37717" lon="2.90457">
        <ele>346.7</ele>
        <time>2018-10-21T08:20:59Z</time>
      </trkpt>
      <trkpt lat="46.37714" lon="2.90445">
        <ele>347.5</ele>
        <time>2018-10-21T08:21:02Z</time>
      </trkpt>
      <trkpt lat="46.37712" lon="2.90434">
        <ele>347.4</ele>
        <time>2018-10-21T08:21:04Z</time>
      </trkpt>
      <trkpt lat="46.3771" lon="2.90423">
        <ele>347.3</ele>
        <time>2018-10-21T08:21:06Z</time>
      </trkpt>
      <trkpt lat="46.37708" lon="2.90412">
        <ele>347.8</ele>
        <time>2018-10-21T08:21:08Z</time>
      </trkpt>
      <trkpt lat="46.37705" lon="2.90402">
        <ele>348.7</ele>
        <time>2018-10-21T08:21:10Z</time>
      </trkpt>
      <trkpt lat="46.37703" lon="2.90391">
        <ele>349.7</ele>
        <time>2018-10-21T08:21:12Z</time>
      </trkpt>
      <trkpt lat="46.377" lon="2.90381">
        <ele>350</ele>
        <time>2018-10-21T08:21:14Z</time>
      </trkpt>
      <trkpt lat="46.37698" lon="2.90371">
        <ele>350.1</ele>
        <time>2018-10-21T08:21:16Z</time>
      </trkpt>
      <trkpt lat="46.37696" lon="2.9036">
        <ele>350.4</ele>
        <time>2018-10-21T08:21:18Z</time>
      </trkpt>
      <trkpt lat="46.37694" lon="2.90349">
        <ele>350.1</ele>
        <time>2018-10-21T08:21:20Z</time>
      </trkpt>
      <trkpt lat="46.37691" lon="2.90337">
        <ele>349.8</ele>
        <time>2018-10-21T08:21:22Z</time>
      </trkpt>
      <trkpt lat="46.37689" lon="2.90324">
        <ele>350.1</ele>
        <time>2018-10-21T08:21:24Z</time>
      </trkpt>
      <trkpt lat="46.37688" lon="2.90318">
        <ele>350.4</ele>
        <time>2018-10-21T08:21:25Z</time>
      </trkpt>
      <trkpt lat="46.37687" lon="2.90311">
        <ele>350.4</ele>
        <time>2018-10-21T08:21:26Z</time>
      </trkpt>
      <trkpt lat="46.37686" lon="2.90303">
        <ele>350.4</ele>
        <time>2018-10-21T08:21:27Z</time>
      </trkpt>
      <trkpt lat="46.37685" lon="2.90295">
        <ele>350.5</ele>
        <time>2018-10-21T08:21:28Z</time>
      </trkpt>
      <trkpt lat="46.37684" lon="2.90287">
        <ele>350.2</ele>
        <time>2018-10-21T08:21:29Z</time>
      </trkpt>
      <trkpt lat="46.37684" lon="2.90278">
        <ele>350.1</ele>
        <time>2018-10-21T08:21:30Z</time>
      </trkpt>
      <trkpt lat="46.37684" lon="2.90268">
        <ele>350.1</ele>
        <time>2018-10-21T08:21:31Z</time>
      </trkpt>
      <trkpt lat="46.37683" lon="2.90259">
        <ele>350</ele>
        <time>2018-10-21T08:21:32Z</time>
      </trkpt>
      <trkpt lat="46.37682" lon="2.9025">
        <ele>349.8</ele>
        <time>2018-10-21T08:21:33Z</time>
      </trkpt>
      <trkpt lat="46.37681" lon="2.90241">
        <ele>349.6</ele>
        <time>2018-10-21T08:21:34Z</time>
      </trkpt>
      <trkpt lat="46.3768" lon="2.90232">
        <ele>349.5</ele>
        <time>2018-10-21T08:21:35Z</time>
      </trkpt>
      <trkpt lat="46.37679" lon="2.90223">
        <ele>349.5</ele>
        <time>2018-10-21T08:21:36Z</time>
      </trkpt>
      <trkpt lat="46.37678" lon="2.90213">
        <ele>349.5</ele>
        <time>2018-10-21T08:21:37Z</time>
      </trkpt>
      <trkpt lat="46.37677" lon="2.90204">
        <ele>349</ele>
        <time>2018-10-21T08:21:38Z</time>
      </trkpt>
      <trkpt lat="46.37676" lon="2.90195">
        <ele>348.6</ele>
        <time>2018-10-21T08:21:39Z</time>
      </trkpt>
      <trkpt lat="46.37674" lon="2.90186">
        <ele>348.3</ele>
        <time>2018-10-21T08:21:40Z</time>
      </trkpt>
      <trkpt lat="46.37671" lon="2.90178">
        <ele>348.1</ele>
        <time>2018-10-21T08:21:41Z</time>
      </trkpt>
      <trkpt lat="46.37668" lon="2.90169">
        <ele>347.9</ele>
        <time>2018-10-21T08:21:42Z</time>
      </trkpt>
      <trkpt lat="46.37664" lon="2.90162">
        <ele>347.3</ele>
        <time>2018-10-21T08:21:43Z</time>
      </trkpt>
      <trkpt lat="46.37659" lon="2.90154">
        <ele>346.8</ele>
        <time>2018-10-21T08:21:44Z</time>
      </trkpt>
      <trkpt lat="46.37654" lon="2.90148">
        <ele>346.6</ele>
        <time>2018-10-21T08:21:45Z</time>
      </trkpt>
      <trkpt lat="46.37649" lon="2.90142">
        <ele>346.5</ele>
        <time>2018-10-21T08:21:46Z</time>
      </trkpt>
      <trkpt lat="46.37644" lon="2.90137">
        <ele>346.4</ele>
        <time>2018-10-21T08:21:47Z</time>
      </trkpt>
      <trkpt lat="46.37639" lon="2.90132">
        <ele>345.7</ele>
        <time>2018-10-21T08:21:48Z</time>
      </trkpt>
      <trkpt lat="46.37634" lon="2.90128">
        <ele>345.2</ele>
        <time>2018-10-21T08:21:49Z</time>
      </trkpt>
      <trkpt lat="46.37629" lon="2.90117">
        <ele>345.1</ele>
        <time>2018-10-21T08:21:51Z</time>
      </trkpt>
      <trkpt lat="46.37632" lon="2.90105">
        <ele>344.6</ele>
        <time>2018-10-21T08:21:53Z</time>
      </trkpt>
      <trkpt lat="46.37635" lon="2.90099">
        <ele>344.5</ele>
        <time>2018-10-21T08:21:54Z</time>
      </trkpt>
      <trkpt lat="46.37638" lon="2.90093">
        <ele>344.9</ele>
        <time>2018-10-21T08:21:55Z</time>
      </trkpt>
      <trkpt lat="46.37641" lon="2.90087">
        <ele>345.2</ele>
        <time>2018-10-21T08:21:56Z</time>
      </trkpt>
      <trkpt lat="46.37644" lon="2.90081">
        <ele>344.9</ele>
        <time>2018-10-21T08:21:57Z</time>
      </trkpt>
      <trkpt lat="46.37646" lon="2.90074">
        <ele>344.7</ele>
        <time>2018-10-21T08:21:58Z</time>
      </trkpt>
      <trkpt lat="46.37649" lon="2.90067">
        <ele>344.6</ele>
        <time>2018-10-21T08:21:59Z</time>
      </trkpt>
      <trkpt lat="46.37652" lon="2.9006">
        <ele>344.5</ele>
        <time>2018-10-21T08:22:00Z</time>
      </trkpt>
      <trkpt lat="46.37654" lon="2.90053">
        <ele>344.4</ele>
        <time>2018-10-21T08:22:01Z</time>
      </trkpt>
      <trkpt lat="46.37657" lon="2.90046">
        <ele>344.1</ele>
        <time>2018-10-21T08:22:02Z</time>
      </trkpt>
      <trkpt lat="46.37659" lon="2.9004">
        <ele>343.9</ele>
        <time>2018-10-21T08:22:03Z</time>
      </trkpt>
      <trkpt lat="46.37662" lon="2.90033">
        <ele>343.9</ele>
        <time>2018-10-21T08:22:04Z</time>
      </trkpt>
      <trkpt lat="46.37665" lon="2.90026">
        <ele>344</ele>
        <time>2018-10-21T08:22:05Z</time>
      </trkpt>
      <trkpt lat="46.37667" lon="2.90019">
        <ele>344</ele>
        <time>2018-10-21T08:22:06Z</time>
      </trkpt>
      <trkpt lat="46.3767" lon="2.90012">
        <ele>343.8</ele>
        <time>2018-10-21T08:22:07Z</time>
      </trkpt>
      <trkpt lat="46.37672" lon="2.90005">
        <ele>343.7</ele>
        <time>2018-10-21T08:22:08Z</time>
      </trkpt>
      <trkpt lat="46.37675" lon="2.89998">
        <ele>343.7</ele>
        <time>2018-10-21T08:22:09Z</time>
      </trkpt>
      <trkpt lat="46.37678" lon="2.89991">
        <ele>343.7</ele>
        <time>2018-10-21T08:22:10Z</time>
      </trkpt>
      <trkpt lat="46.3768" lon="2.89983">
        <ele>343.7</ele>
        <time>2018-10-21T08:22:11Z</time>
      </trkpt>
      <trkpt lat="46.37683" lon="2.89976">
        <ele>343.7</ele>
        <time>2018-10-21T08:22:12Z</time>
      </trkpt>
      <trkpt lat="46.37685" lon="2.89968">
        <ele>343.7</ele>
        <time>2018-10-21T08:22:13Z</time>
      </trkpt>
      <trkpt lat="46.37688" lon="2.89961">
        <ele>343.4</ele>
        <time>2018-10-21T08:22:14Z</time>
      </trkpt>
      <trkpt lat="46.37691" lon="2.89954">
        <ele>343.2</ele>
        <time>2018-10-21T08:22:15Z</time>
      </trkpt>
      <trkpt lat="46.37693" lon="2.89946">
        <ele>343.1</ele>
        <time>2018-10-21T08:22:16Z</time>
      </trkpt>
      <trkpt lat="46.37695" lon="2.89939">
        <ele>342.9</ele>
        <time>2018-10-21T08:22:17Z</time>
      </trkpt>
      <trkpt lat="46.37696" lon="2.89931">
        <ele>342.8</ele>
        <time>2018-10-21T08:22:18Z</time>
      </trkpt>
      <trkpt lat="46.37696" lon="2.89924">
        <ele>342.6</ele>
        <time>2018-10-21T08:22:19Z</time>
      </trkpt>
      <trkpt lat="46.37694" lon="2.89917">
        <ele>342.4</ele>
        <time>2018-10-21T08:22:20Z</time>
      </trkpt>
      <trkpt lat="46.3769" lon="2.89913">
        <ele>342.1</ele>
        <time>2018-10-21T08:22:21Z</time>
      </trkpt>
      <trkpt lat="46.37685" lon="2.8991">
        <ele>341.9</ele>
        <time>2018-10-21T08:22:22Z</time>
      </trkpt>
      <trkpt lat="46.37681" lon="2.89908">
        <ele>342.6</ele>
        <time>2018-10-21T08:22:23Z</time>
      </trkpt>
      <trkpt lat="46.37676" lon="2.89907">
        <ele>343.1</ele>
        <time>2018-10-21T08:22:24Z</time>
      </trkpt>
      <trkpt lat="46.3767" lon="2.89905">
        <ele>343.5</ele>
        <time>2018-10-21T08:22:25Z</time>
      </trkpt>
      <trkpt lat="46.37665" lon="2.89903">
        <ele>343.1</ele>
        <time>2018-10-21T08:22:26Z</time>
      </trkpt>
      <trkpt lat="46.3766" lon="2.89902">
        <ele>342.9</ele>
        <time>2018-10-21T08:22:27Z</time>
      </trkpt>
      <trkpt lat="46.37655" lon="2.899">
        <ele>342.4</ele>
        <time>2018-10-21T08:22:28Z</time>
      </trkpt>
      <trkpt lat="46.37646" lon="2.89897">
        <ele>341.7</ele>
        <time>2018-10-21T08:22:30Z</time>
      </trkpt>
      <trkpt lat="46.37637" lon="2.89898">
        <ele>340</ele>
        <time>2018-10-21T08:22:47Z</time>
      </trkpt>
      <trkpt lat="46.37637" lon="2.89898">
        <ele>340</ele>
        <time>2018-10-21T08:22:48Z</time>
      </trkpt>
      <trkpt lat="46.37629" lon="2.89894">
        <ele>339.6</ele>
        <time>2018-10-21T08:27:04Z</time>
      </trkpt>
      <trkpt lat="46.37616" lon="2.89892">
        <ele>340.2</ele>
        <time>2018-10-21T08:27:08Z</time>
      </trkpt>
      <trkpt lat="46.37609" lon="2.89892">
        <ele>340.1</ele>
        <time>2018-10-21T08:27:10Z</time>
      </trkpt>
      <trkpt lat="46.37601" lon="2.89892">
        <ele>340.1</ele>
        <time>2018-10-21T08:27:12Z</time>
      </trkpt>
      <trkpt lat="46.37594" lon="2.89893">
        <ele>340</ele>
        <time>2018-10-21T08:27:14Z</time>
      </trkpt>
      <trkpt lat="46.37587" lon="2.89893">
        <ele>339.5</ele>
        <time>2018-10-21T08:27:16Z</time>
      </trkpt>
      <trkpt lat="46.3758" lon="2.89895">
        <ele>338.9</ele>
        <time>2018-10-21T08:27:18Z</time>
      </trkpt>
      <trkpt lat="46.37573" lon="2.89896">
        <ele>338.5</ele>
        <time>2018-10-21T08:27:20Z</time>
      </trkpt>
      <trkpt lat="46.37566" lon="2.89895">
        <ele>339</ele>
        <time>2018-10-21T08:27:22Z</time>
      </trkpt>
      <trkpt lat="46.3756" lon="2.89892">
        <ele>338.4</ele>
        <time>2018-10-21T08:27:24Z</time>
      </trkpt>
      <trkpt lat="46.37553" lon="2.89887">
        <ele>338.5</ele>
        <time>2018-10-21T08:27:26Z</time>
      </trkpt>
      <trkpt lat="46.37546" lon="2.89884">
        <ele>339.1</ele>
        <time>2018-10-21T08:27:28Z</time>
      </trkpt>
      <trkpt lat="46.37539" lon="2.89882">
        <ele>339.7</ele>
        <time>2018-10-21T08:27:30Z</time>
      </trkpt>
      <trkpt lat="46.37532" lon="2.89882">
        <ele>339.8</ele>
        <time>2018-10-21T08:27:32Z</time>
      </trkpt>
      <trkpt lat="46.37525" lon="2.89886">
        <ele>340.1</ele>
        <time>2018-10-21T08:27:34Z</time>
      </trkpt>
      <trkpt lat="46.37519" lon="2.89893">
        <ele>340.4</ele>
        <time>2018-10-21T08:27:36Z</time>
      </trkpt>
      <trkpt lat="46.37514" lon="2.899">
        <ele>340.4</ele>
        <time>2018-10-21T08:27:38Z</time>
      </trkpt>
      <trkpt lat="46.37509" lon="2.89907">
        <ele>340.4</ele>
        <time>2018-10-21T08:27:40Z</time>
      </trkpt>
      <trkpt lat="46.37504" lon="2.89915">
        <ele>340.6</ele>
        <time>2018-10-21T08:27:42Z</time>
      </trkpt>
      <trkpt lat="46.37499" lon="2.89923">
        <ele>340.8</ele>
        <time>2018-10-21T08:27:44Z</time>
      </trkpt>
      <trkpt lat="46.37494" lon="2.89931">
        <ele>341.1</ele>
        <time>2018-10-21T08:27:46Z</time>
      </trkpt>
      <trkpt lat="46.37489" lon="2.8994">
        <ele>341.7</ele>
        <time>2018-10-21T08:27:48Z</time>
      </trkpt>
      <trkpt lat="46.37484" lon="2.89948">
        <ele>341.7</ele>
        <time>2018-10-21T08:27:50Z</time>
      </trkpt>
      <trkpt lat="46.37479" lon="2.89955">
        <ele>342</ele>
        <time>2018-10-21T08:27:52Z</time>
      </trkpt>
      <trkpt lat="46.37473" lon="2.89962">
        <ele>342.3</ele>
        <time>2018-10-21T08:27:54Z</time>
      </trkpt>
      <trkpt lat="46.37467" lon="2.89968">
        <ele>342.2</ele>
        <time>2018-10-21T08:27:56Z</time>
      </trkpt>
      <trkpt lat="46.37461" lon="2.89971">
        <ele>342.3</ele>
        <time>2018-10-21T08:27:58Z</time>
      </trkpt>
      <trkpt lat="46.37455" lon="2.89972">
        <ele>342.6</ele>
        <time>2018-10-21T08:28:00Z</time>
      </trkpt>
      <trkpt lat="46.37448" lon="2.89971">
        <ele>343</ele>
        <time>2018-10-21T08:28:02Z</time>
      </trkpt>
      <trkpt lat="46.37443" lon="2.89966">
        <ele>343.6</ele>
        <time>2018-10-21T08:28:04Z</time>
      </trkpt>
      <trkpt lat="46.37441" lon="2.89964">
        <ele>343.8</ele>
        <time>2018-10-21T08:28:05Z</time>
      </trkpt>
      <trkpt lat="46.3743" lon="2.8995">
        <ele>343.9</ele>
        <time>2018-10-21T08:28:10Z</time>
      </trkpt>
      <trkpt lat="46.37426" lon="2.89944">
        <ele>344.1</ele>
        <time>2018-10-21T08:28:12Z</time>
      </trkpt>
      <trkpt lat="46.37422" lon="2.89936">
        <ele>345</ele>
        <time>2018-10-21T08:28:14Z</time>
      </trkpt>
      <trkpt lat="46.37417" lon="2.89927">
        <ele>346.1</ele>
        <time>2018-10-21T08:28:17Z</time>
      </trkpt>
      <trkpt lat="46.37411" lon="2.89922">
        <ele>346.4</ele>
        <time>2018-10-21T08:28:20Z</time>
      </trkpt>
      <trkpt lat="46.37405" lon="2.89925">
        <ele>347.1</ele>
        <time>2018-10-21T08:28:22Z</time>
      </trkpt>
      <trkpt lat="46.374" lon="2.8993">
        <ele>347</ele>
        <time>2018-10-21T08:28:24Z</time>
      </trkpt>
      <trkpt lat="46.37394" lon="2.89934">
        <ele>347.6</ele>
        <time>2018-10-21T08:28:26Z</time>
      </trkpt>
      <trkpt lat="46.37388" lon="2.89937">
        <ele>347.9</ele>
        <time>2018-10-21T08:28:28Z</time>
      </trkpt>
      <trkpt lat="46.37382" lon="2.8994">
        <ele>347.9</ele>
        <time>2018-10-21T08:28:30Z</time>
      </trkpt>
      <trkpt lat="46.37375" lon="2.89943">
        <ele>347.9</ele>
        <time>2018-10-21T08:28:32Z</time>
      </trkpt>
      <trkpt lat="46.37369" lon="2.89946">
        <ele>348</ele>
        <time>2018-10-21T08:28:34Z</time>
      </trkpt>
      <trkpt lat="46.37362" lon="2.89948">
        <ele>348.3</ele>
        <time>2018-10-21T08:28:36Z</time>
      </trkpt>
      <trkpt lat="46.37356" lon="2.89951">
        <ele>349.4</ele>
        <time>2018-10-21T08:28:38Z</time>
      </trkpt>
      <trkpt lat="46.37349" lon="2.89953">
        <ele>349.8</ele>
        <time>2018-10-21T08:28:40Z</time>
      </trkpt>
      <trkpt lat="46.37343" lon="2.89955">
        <ele>349.8</ele>
        <time>2018-10-21T08:28:42Z</time>
      </trkpt>
      <trkpt lat="46.37336" lon="2.89957">
        <ele>350.2</ele>
        <time>2018-10-21T08:28:44Z</time>
      </trkpt>
      <trkpt lat="46.37329" lon="2.89959">
        <ele>350.9</ele>
        <time>2018-10-21T08:28:46Z</time>
      </trkpt>
      <trkpt lat="46.37322" lon="2.8996">
        <ele>351.1</ele>
        <time>2018-10-21T08:28:48Z</time>
      </trkpt>
      <trkpt lat="46.37315" lon="2.89962">
        <ele>350.8</ele>
        <time>2018-10-21T08:28:50Z</time>
      </trkpt>
      <trkpt lat="46.37307" lon="2.89964">
        <ele>350.9</ele>
        <time>2018-10-21T08:28:52Z</time>
      </trkpt>
      <trkpt lat="46.373" lon="2.89965">
        <ele>350.7</ele>
        <time>2018-10-21T08:28:54Z</time>
      </trkpt>
      <trkpt lat="46.37292" lon="2.89967">
        <ele>350.6</ele>
        <time>2018-10-21T08:28:56Z</time>
      </trkpt>
      <trkpt lat="46.37285" lon="2.89972">
        <ele>350.8</ele>
        <time>2018-10-21T08:28:58Z</time>
      </trkpt>
      <trkpt lat="46.37279" lon="2.89979">
        <ele>351.2</ele>
        <time>2018-10-21T08:29:00Z</time>
      </trkpt>
      <trkpt lat="46.37275" lon="2.89987">
        <ele>351.2</ele>
        <time>2018-10-21T08:29:03Z</time>
      </trkpt>
      <trkpt lat="46.37272" lon="2.89994">
        <ele>351.3</ele>
        <time>2018-10-21T08:29:05Z</time>
      </trkpt>
      <trkpt lat="46.37271" lon="2.89999">
        <ele>351</ele>
        <time>2018-10-21T08:29:06Z</time>
      </trkpt>
      <trkpt lat="46.37271" lon="2.90014">
        <ele>350.9</ele>
        <time>2018-10-21T08:29:09Z</time>
      </trkpt>
      <trkpt lat="46.37272" lon="2.90025">
        <ele>351.2</ele>
        <time>2018-10-21T08:29:11Z</time>
      </trkpt>
      <trkpt lat="46.37275" lon="2.90035">
        <ele>351.7</ele>
        <time>2018-10-21T08:29:13Z</time>
      </trkpt>
      <trkpt lat="46.37277" lon="2.90045">
        <ele>351.7</ele>
        <time>2018-10-21T08:29:15Z</time>
      </trkpt>
      <trkpt lat="46.3728" lon="2.90062">
        <ele>351</ele>
        <time>2018-10-21T08:29:18Z</time>
      </trkpt>
      <trkpt lat="46.37282" lon="2.9007">
        <ele>352.2</ele>
        <time>2018-10-21T08:29:20Z</time>
      </trkpt>
      <trkpt lat="46.37285" lon="2.90081">
        <ele>352.8</ele>
        <time>2018-10-21T08:29:22Z</time>
      </trkpt>
      <trkpt lat="46.37288" lon="2.90092">
        <ele>353.2</ele>
        <time>2018-10-21T08:29:24Z</time>
      </trkpt>
      <trkpt lat="46.3729" lon="2.90102">
        <ele>352.3</ele>
        <time>2018-10-21T08:29:26Z</time>
      </trkpt>
      <trkpt lat="46.37292" lon="2.90113">
        <ele>353.5</ele>
        <time>2018-10-21T08:29:28Z</time>
      </trkpt>
      <trkpt lat="46.37294" lon="2.90123">
        <ele>353.9</ele>
        <time>2018-10-21T08:29:30Z</time>
      </trkpt>
      <trkpt lat="46.37296" lon="2.90133">
        <ele>353.8</ele>
        <time>2018-10-21T08:29:32Z</time>
      </trkpt>
      <trkpt lat="46.37297" lon="2.90144">
        <ele>353.8</ele>
        <time>2018-10-21T08:29:34Z</time>
      </trkpt>
      <trkpt lat="46.37298" lon="2.90154">
        <ele>354</ele>
        <time>2018-10-21T08:29:36Z</time>
      </trkpt>
      <trkpt lat="46.37298" lon="2.90164">
        <ele>353.4</ele>
        <time>2018-10-21T08:29:38Z</time>
      </trkpt>
      <trkpt lat="46.37299" lon="2.90175">
        <ele>353.9</ele>
        <time>2018-10-21T08:29:40Z</time>
      </trkpt>
      <trkpt lat="46.37299" lon="2.90185">
        <ele>354.1</ele>
        <time>2018-10-21T08:29:42Z</time>
      </trkpt>
      <trkpt lat="46.373" lon="2.90196">
        <ele>353.9</ele>
        <time>2018-10-21T08:29:44Z</time>
      </trkpt>
      <trkpt lat="46.37301" lon="2.90206">
        <ele>354</ele>
        <time>2018-10-21T08:29:46Z</time>
      </trkpt>
      <trkpt lat="46.37301" lon="2.90217">
        <ele>354.3</ele>
        <time>2018-10-21T08:29:48Z</time>
      </trkpt>
      <trkpt lat="46.37302" lon="2.90228">
        <ele>354.8</ele>
        <time>2018-10-21T08:29:50Z</time>
      </trkpt>
      <trkpt lat="46.37303" lon="2.90238">
        <ele>354.3</ele>
        <time>2018-10-21T08:29:52Z</time>
      </trkpt>
      <trkpt lat="46.37303" lon="2.90249">
        <ele>354.8</ele>
        <time>2018-10-21T08:29:54Z</time>
      </trkpt>
      <trkpt lat="46.37303" lon="2.90259">
        <ele>355.1</ele>
        <time>2018-10-21T08:29:56Z</time>
      </trkpt>
      <trkpt lat="46.37302" lon="2.9027">
        <ele>355.1</ele>
        <time>2018-10-21T08:29:58Z</time>
      </trkpt>
      <trkpt lat="46.37301" lon="2.90281">
        <ele>355.3</ele>
        <time>2018-10-21T08:30:00Z</time>
      </trkpt>
      <trkpt lat="46.373" lon="2.90291">
        <ele>355.2</ele>
        <time>2018-10-21T08:30:02Z</time>
      </trkpt>
      <trkpt lat="46.37299" lon="2.90302">
        <ele>355.4</ele>
        <time>2018-10-21T08:30:04Z</time>
      </trkpt>
      <trkpt lat="46.37302" lon="2.90311">
        <ele>355.9</ele>
        <time>2018-10-21T08:30:06Z</time>
      </trkpt>
      <trkpt lat="46.37305" lon="2.90314">
        <ele>356</ele>
        <time>2018-10-21T08:30:07Z</time>
      </trkpt>
      <trkpt lat="46.37315" lon="2.90322">
        <ele>356.6</ele>
        <time>2018-10-21T08:30:10Z</time>
      </trkpt>
      <trkpt lat="46.37323" lon="2.90328">
        <ele>356.8</ele>
        <time>2018-10-21T08:30:12Z</time>
      </trkpt>
      <trkpt lat="46.3733" lon="2.90333">
        <ele>356.5</ele>
        <time>2018-10-21T08:30:14Z</time>
      </trkpt>
      <trkpt lat="46.37337" lon="2.9034">
        <ele>356.2</ele>
        <time>2018-10-21T08:30:16Z</time>
      </trkpt>
      <trkpt lat="46.37344" lon="2.90346">
        <ele>356.3</ele>
        <time>2018-10-21T08:30:18Z</time>
      </trkpt>
      <trkpt lat="46.37349" lon="2.90355">
        <ele>356.1</ele>
        <time>2018-10-21T08:30:20Z</time>
      </trkpt>
      <trkpt lat="46.3735" lon="2.90366">
        <ele>355.7</ele>
        <time>2018-10-21T08:30:22Z</time>
      </trkpt>
      <trkpt lat="46.37345" lon="2.90375">
        <ele>356.2</ele>
        <time>2018-10-21T08:30:24Z</time>
      </trkpt>
      <trkpt lat="46.3734" lon="2.90381">
        <ele>356.8</ele>
        <time>2018-10-21T08:30:26Z</time>
      </trkpt>
      <trkpt lat="46.37334" lon="2.90388">
        <ele>357.2</ele>
        <time>2018-10-21T08:30:28Z</time>
      </trkpt>
      <trkpt lat="46.37328" lon="2.90394">
        <ele>356.9</ele>
        <time>2018-10-21T08:30:30Z</time>
      </trkpt>
      <trkpt lat="46.37321" lon="2.90401">
        <ele>357.3</ele>
        <time>2018-10-21T08:30:32Z</time>
      </trkpt>
      <trkpt lat="46.37315" lon="2.90407">
        <ele>358.4</ele>
        <time>2018-10-21T08:30:34Z</time>
      </trkpt>
      <trkpt lat="46.37309" lon="2.90414">
        <ele>359</ele>
        <time>2018-10-21T08:30:36Z</time>
      </trkpt>
      <trkpt lat="46.37303" lon="2.9042">
        <ele>359.1</ele>
        <time>2018-10-21T08:30:38Z</time>
      </trkpt>
      <trkpt lat="46.37297" lon="2.90426">
        <ele>358.8</ele>
        <time>2018-10-21T08:30:40Z</time>
      </trkpt>
      <trkpt lat="46.3729" lon="2.90432">
        <ele>359.3</ele>
        <time>2018-10-21T08:30:42Z</time>
      </trkpt>
      <trkpt lat="46.37284" lon="2.90438">
        <ele>359.1</ele>
        <time>2018-10-21T08:30:44Z</time>
      </trkpt>
      <trkpt lat="46.37277" lon="2.90444">
        <ele>358.9</ele>
        <time>2018-10-21T08:30:46Z</time>
      </trkpt>
      <trkpt lat="46.3727" lon="2.90451">
        <ele>359.2</ele>
        <time>2018-10-21T08:30:48Z</time>
      </trkpt>
      <trkpt lat="46.37264" lon="2.90457">
        <ele>359.8</ele>
        <time>2018-10-21T08:30:50Z</time>
      </trkpt>
      <trkpt lat="46.37257" lon="2.90465">
        <ele>360.6</ele>
        <time>2018-10-21T08:30:52Z</time>
      </trkpt>
      <trkpt lat="46.37251" lon="2.90473">
        <ele>360.1</ele>
        <time>2018-10-21T08:30:54Z</time>
      </trkpt>
      <trkpt lat="46.37246" lon="2.90482">
        <ele>360.2</ele>
        <time>2018-10-21T08:30:56Z</time>
      </trkpt>
      <trkpt lat="46.37241" lon="2.90492">
        <ele>360.4</ele>
        <time>2018-10-21T08:30:58Z</time>
      </trkpt>
      <trkpt lat="46.37237" lon="2.90502">
        <ele>360.4</ele>
        <time>2018-10-21T08:31:00Z</time>
      </trkpt>
      <trkpt lat="46.37233" lon="2.90512">
        <ele>360.4</ele>
        <time>2018-10-21T08:31:02Z</time>
      </trkpt>
      <trkpt lat="46.37228" lon="2.90523">
        <ele>360.4</ele>
        <time>2018-10-21T08:31:04Z</time>
      </trkpt>
      <trkpt lat="46.37224" lon="2.90533">
        <ele>360.6</ele>
        <time>2018-10-21T08:31:06Z</time>
      </trkpt>
      <trkpt lat="46.37219" lon="2.90543">
        <ele>361</ele>
        <time>2018-10-21T08:31:08Z</time>
      </trkpt>
      <trkpt lat="46.37216" lon="2.90549">
        <ele>361.2</ele>
        <time>2018-10-21T08:31:09Z</time>
      </trkpt>
      <trkpt lat="46.37211" lon="2.90559">
        <ele>361.6</ele>
        <time>2018-10-21T08:31:11Z</time>
      </trkpt>
      <trkpt lat="46.37207" lon="2.90571">
        <ele>361.7</ele>
        <time>2018-10-21T08:31:13Z</time>
      </trkpt>
      <trkpt lat="46.37202" lon="2.90581">
        <ele>361.3</ele>
        <time>2018-10-21T08:31:15Z</time>
      </trkpt>
      <trkpt lat="46.37198" lon="2.90592">
        <ele>361.3</ele>
        <time>2018-10-21T08:31:17Z</time>
      </trkpt>
      <trkpt lat="46.37193" lon="2.90603">
        <ele>361.3</ele>
        <time>2018-10-21T08:31:19Z</time>
      </trkpt>
      <trkpt lat="46.37188" lon="2.90613">
        <ele>361.3</ele>
        <time>2018-10-21T08:31:21Z</time>
      </trkpt>
      <trkpt lat="46.37186" lon="2.90619">
        <ele>361.8</ele>
        <time>2018-10-21T08:31:22Z</time>
      </trkpt>
      <trkpt lat="46.37183" lon="2.90624">
        <ele>362.2</ele>
        <time>2018-10-21T08:31:23Z</time>
      </trkpt>
      <trkpt lat="46.37181" lon="2.9063">
        <ele>362.2</ele>
        <time>2018-10-21T08:31:24Z</time>
      </trkpt>
      <trkpt lat="46.37179" lon="2.90636">
        <ele>362.2</ele>
        <time>2018-10-21T08:31:25Z</time>
      </trkpt>
      <trkpt lat="46.37176" lon="2.90641">
        <ele>361.9</ele>
        <time>2018-10-21T08:31:26Z</time>
      </trkpt>
      <trkpt lat="46.37174" lon="2.90647">
        <ele>361.7</ele>
        <time>2018-10-21T08:31:27Z</time>
      </trkpt>
      <trkpt lat="46.37172" lon="2.90653">
        <ele>361.6</ele>
        <time>2018-10-21T08:31:28Z</time>
      </trkpt>
      <trkpt lat="46.37169" lon="2.90659">
        <ele>362.1</ele>
        <time>2018-10-21T08:31:29Z</time>
      </trkpt>
      <trkpt lat="46.37167" lon="2.90665">
        <ele>362.5</ele>
        <time>2018-10-21T08:31:30Z</time>
      </trkpt>
      <trkpt lat="46.37164" lon="2.90671">
        <ele>362.3</ele>
        <time>2018-10-21T08:31:31Z</time>
      </trkpt>
      <trkpt lat="46.37162" lon="2.90677">
        <ele>362.1</ele>
        <time>2018-10-21T08:31:32Z</time>
      </trkpt>
      <trkpt lat="46.37159" lon="2.90684">
        <ele>362</ele>
        <time>2018-10-21T08:31:33Z</time>
      </trkpt>
      <trkpt lat="46.37157" lon="2.9069">
        <ele>361.9</ele>
        <time>2018-10-21T08:31:34Z</time>
      </trkpt>
      <trkpt lat="46.37154" lon="2.90696">
        <ele>361.8</ele>
        <time>2018-10-21T08:31:35Z</time>
      </trkpt>
      <trkpt lat="46.37151" lon="2.90703">
        <ele>362.1</ele>
        <time>2018-10-21T08:31:36Z</time>
      </trkpt>
      <trkpt lat="46.37149" lon="2.9071">
        <ele>362.3</ele>
        <time>2018-10-21T08:31:37Z</time>
      </trkpt>
      <trkpt lat="46.37146" lon="2.90717">
        <ele>362.1</ele>
        <time>2018-10-21T08:31:38Z</time>
      </trkpt>
      <trkpt lat="46.37143" lon="2.90723">
        <ele>361.9</ele>
        <time>2018-10-21T08:31:39Z</time>
      </trkpt>
      <trkpt lat="46.37141" lon="2.90731">
        <ele>361.8</ele>
        <time>2018-10-21T08:31:40Z</time>
      </trkpt>
      <trkpt lat="46.37138" lon="2.90738">
        <ele>361.4</ele>
        <time>2018-10-21T08:31:41Z</time>
      </trkpt>
      <trkpt lat="46.37135" lon="2.90746">
        <ele>361.1</ele>
        <time>2018-10-21T08:31:42Z</time>
      </trkpt>
      <trkpt lat="46.37133" lon="2.90754">
        <ele>361.2</ele>
        <time>2018-10-21T08:31:43Z</time>
      </trkpt>
      <trkpt lat="46.37131" lon="2.90762">
        <ele>361.3</ele>
        <time>2018-10-21T08:31:44Z</time>
      </trkpt>
      <trkpt lat="46.3713" lon="2.90771">
        <ele>361.2</ele>
        <time>2018-10-21T08:31:45Z</time>
      </trkpt>
      <trkpt lat="46.37128" lon="2.90779">
        <ele>361.1</ele>
        <time>2018-10-21T08:31:46Z</time>
      </trkpt>
      <trkpt lat="46.37127" lon="2.90788">
        <ele>361</ele>
        <time>2018-10-21T08:31:47Z</time>
      </trkpt>
      <trkpt lat="46.37127" lon="2.90797">
        <ele>360.6</ele>
        <time>2018-10-21T08:31:48Z</time>
      </trkpt>
      <trkpt lat="46.37126" lon="2.90806">
        <ele>360.2</ele>
        <time>2018-10-21T08:31:49Z</time>
      </trkpt>
      <trkpt lat="46.37126" lon="2.90815">
        <ele>360.2</ele>
        <time>2018-10-21T08:31:50Z</time>
      </trkpt>
      <trkpt lat="46.37127" lon="2.90824">
        <ele>360.2</ele>
        <time>2018-10-21T08:31:51Z</time>
      </trkpt>
      <trkpt lat="46.37127" lon="2.90833">
        <ele>360.2</ele>
        <time>2018-10-21T08:31:52Z</time>
      </trkpt>
      <trkpt lat="46.37126" lon="2.90842">
        <ele>360.4</ele>
        <time>2018-10-21T08:31:53Z</time>
      </trkpt>
      <trkpt lat="46.37123" lon="2.9085">
        <ele>360.5</ele>
        <time>2018-10-21T08:31:54Z</time>
      </trkpt>
      <trkpt lat="46.37119" lon="2.90857">
        <ele>360</ele>
        <time>2018-10-21T08:31:55Z</time>
      </trkpt>
      <trkpt lat="46.37114" lon="2.90861">
        <ele>359.6</ele>
        <time>2018-10-21T08:31:56Z</time>
      </trkpt>
      <trkpt lat="46.37108" lon="2.90862">
        <ele>358.9</ele>
        <time>2018-10-21T08:31:57Z</time>
      </trkpt>
      <trkpt lat="46.37101" lon="2.90862">
        <ele>358.4</ele>
        <time>2018-10-21T08:31:58Z</time>
      </trkpt>
      <trkpt lat="46.37094" lon="2.90861">
        <ele>358</ele>
        <time>2018-10-21T08:31:59Z</time>
      </trkpt>
      <trkpt lat="46.37087" lon="2.9086">
        <ele>358.2</ele>
        <time>2018-10-21T08:32:00Z</time>
      </trkpt>
      <trkpt lat="46.3708" lon="2.9086">
        <ele>358.4</ele>
        <time>2018-10-21T08:32:01Z</time>
      </trkpt>
      <trkpt lat="46.37073" lon="2.90857">
        <ele>357.2</ele>
        <time>2018-10-21T08:32:02Z</time>
      </trkpt>
      <trkpt lat="46.37066" lon="2.90853">
        <ele>356.4</ele>
        <time>2018-10-21T08:32:03Z</time>
      </trkpt>
      <trkpt lat="46.3706" lon="2.90847">
        <ele>356.1</ele>
        <time>2018-10-21T08:32:04Z</time>
      </trkpt>
      <trkpt lat="46.37055" lon="2.90841">
        <ele>356</ele>
        <time>2018-10-21T08:32:05Z</time>
      </trkpt>
      <trkpt lat="46.3705" lon="2.90835">
        <ele>355.8</ele>
        <time>2018-10-21T08:32:06Z</time>
      </trkpt>
      <trkpt lat="46.37045" lon="2.9083">
        <ele>355.7</ele>
        <time>2018-10-21T08:32:07Z</time>
      </trkpt>
      <trkpt lat="46.3704" lon="2.90824">
        <ele>355.7</ele>
        <time>2018-10-21T08:32:08Z</time>
      </trkpt>
      <trkpt lat="46.37034" lon="2.90819">
        <ele>355.2</ele>
        <time>2018-10-21T08:32:09Z</time>
      </trkpt>
      <trkpt lat="46.37029" lon="2.90815">
        <ele>354.8</ele>
        <time>2018-10-21T08:32:10Z</time>
      </trkpt>
      <trkpt lat="46.37023" lon="2.9081">
        <ele>354.5</ele>
        <time>2018-10-21T08:32:11Z</time>
      </trkpt>
      <trkpt lat="46.37018" lon="2.90805">
        <ele>354</ele>
        <time>2018-10-21T08:32:12Z</time>
      </trkpt>
      <trkpt lat="46.37014" lon="2.908">
        <ele>353.6</ele>
        <time>2018-10-21T08:32:13Z</time>
      </trkpt>
      <trkpt lat="46.37009" lon="2.90794">
        <ele>353.7</ele>
        <time>2018-10-21T08:32:14Z</time>
      </trkpt>
      <trkpt lat="46.37005" lon="2.90789">
        <ele>353.8</ele>
        <time>2018-10-21T08:32:15Z</time>
      </trkpt>
      <trkpt lat="46.37002" lon="2.90783">
        <ele>353.3</ele>
        <time>2018-10-21T08:32:16Z</time>
      </trkpt>
      <trkpt lat="46.36998" lon="2.90778">
        <ele>353</ele>
        <time>2018-10-21T08:32:17Z</time>
      </trkpt>
      <trkpt lat="46.36995" lon="2.90771">
        <ele>352.7</ele>
        <time>2018-10-21T08:32:18Z</time>
      </trkpt>
      <trkpt lat="46.36991" lon="2.90765">
        <ele>352.7</ele>
        <time>2018-10-21T08:32:19Z</time>
      </trkpt>
      <trkpt lat="46.36988" lon="2.9076">
        <ele>352.7</ele>
        <time>2018-10-21T08:32:20Z</time>
      </trkpt>
      <trkpt lat="46.36985" lon="2.90753">
        <ele>352.4</ele>
        <time>2018-10-21T08:32:21Z</time>
      </trkpt>
      <trkpt lat="46.36981" lon="2.90747">
        <ele>352.2</ele>
        <time>2018-10-21T08:32:22Z</time>
      </trkpt>
      <trkpt lat="46.36977" lon="2.90741">
        <ele>352</ele>
        <time>2018-10-21T08:32:23Z</time>
      </trkpt>
      <trkpt lat="46.36973" lon="2.90735">
        <ele>351.8</ele>
        <time>2018-10-21T08:32:24Z</time>
      </trkpt>
      <trkpt lat="46.3697" lon="2.90729">
        <ele>351.6</ele>
        <time>2018-10-21T08:32:25Z</time>
      </trkpt>
      <trkpt lat="46.36966" lon="2.90722">
        <ele>351.4</ele>
        <time>2018-10-21T08:32:26Z</time>
      </trkpt>
      <trkpt lat="46.36962" lon="2.90715">
        <ele>351.2</ele>
        <time>2018-10-21T08:32:27Z</time>
      </trkpt>
      <trkpt lat="46.36959" lon="2.90709">
        <ele>350.9</ele>
        <time>2018-10-21T08:32:28Z</time>
      </trkpt>
      <trkpt lat="46.36955" lon="2.90703">
        <ele>350.7</ele>
        <time>2018-10-21T08:32:29Z</time>
      </trkpt>
      <trkpt lat="46.36951" lon="2.90698">
        <ele>350.5</ele>
        <time>2018-10-21T08:32:30Z</time>
      </trkpt>
      <trkpt lat="46.36947" lon="2.90693">
        <ele>350.6</ele>
        <time>2018-10-21T08:32:31Z</time>
      </trkpt>
      <trkpt lat="46.36942" lon="2.90689">
        <ele>350.7</ele>
        <time>2018-10-21T08:32:32Z</time>
      </trkpt>
      <trkpt lat="46.36937" lon="2.90684">
        <ele>351</ele>
        <time>2018-10-21T08:32:33Z</time>
      </trkpt>
      <trkpt lat="46.36932" lon="2.9068">
        <ele>351.3</ele>
        <time>2018-10-21T08:32:34Z</time>
      </trkpt>
      <trkpt lat="46.36928" lon="2.90676">
        <ele>351</ele>
        <time>2018-10-21T08:32:35Z</time>
      </trkpt>
      <trkpt lat="46.36923" lon="2.90671">
        <ele>350.8</ele>
        <time>2018-10-21T08:32:36Z</time>
      </trkpt>
      <trkpt lat="46.36918" lon="2.90667">
        <ele>350.6</ele>
        <time>2018-10-21T08:32:37Z</time>
      </trkpt>
      <trkpt lat="46.36913" lon="2.90663">
        <ele>350</ele>
        <time>2018-10-21T08:32:38Z</time>
      </trkpt>
      <trkpt lat="46.36908" lon="2.90658">
        <ele>349.5</ele>
        <time>2018-10-21T08:32:39Z</time>
      </trkpt>
      <trkpt lat="46.36903" lon="2.90654">
        <ele>349.2</ele>
        <time>2018-10-21T08:32:40Z</time>
      </trkpt>
      <trkpt lat="46.36898" lon="2.9065">
        <ele>349</ele>
        <time>2018-10-21T08:32:41Z</time>
      </trkpt>
      <trkpt lat="46.36892" lon="2.90645">
        <ele>348.8</ele>
        <time>2018-10-21T08:32:42Z</time>
      </trkpt>
      <trkpt lat="46.36887" lon="2.90641">
        <ele>348.5</ele>
        <time>2018-10-21T08:32:43Z</time>
      </trkpt>
      <trkpt lat="46.36882" lon="2.90636">
        <ele>348.3</ele>
        <time>2018-10-21T08:32:44Z</time>
      </trkpt>
      <trkpt lat="46.36876" lon="2.90632">
        <ele>348.1</ele>
        <time>2018-10-21T08:32:45Z</time>
      </trkpt>
      <trkpt lat="46.3687" lon="2.90627">
        <ele>348</ele>
        <time>2018-10-21T08:32:46Z</time>
      </trkpt>
      <trkpt lat="46.36864" lon="2.90622">
        <ele>347.4</ele>
        <time>2018-10-21T08:32:47Z</time>
      </trkpt>
      <trkpt lat="46.36858" lon="2.90617">
        <ele>346.9</ele>
        <time>2018-10-21T08:32:48Z</time>
      </trkpt>
      <trkpt lat="46.36852" lon="2.90612">
        <ele>346.6</ele>
        <time>2018-10-21T08:32:49Z</time>
      </trkpt>
      <trkpt lat="46.36846" lon="2.90606">
        <ele>346.1</ele>
        <time>2018-10-21T08:32:50Z</time>
      </trkpt>
      <trkpt lat="46.36839" lon="2.90601">
        <ele>345.7</ele>
        <time>2018-10-21T08:32:51Z</time>
      </trkpt>
      <trkpt lat="46.36833" lon="2.90595">
        <ele>345.6</ele>
        <time>2018-10-21T08:32:52Z</time>
      </trkpt>
      <trkpt lat="46.36828" lon="2.90589">
        <ele>345.5</ele>
        <time>2018-10-21T08:32:53Z</time>
      </trkpt>
      <trkpt lat="46.36822" lon="2.90583">
        <ele>344.7</ele>
        <time>2018-10-21T08:32:54Z</time>
      </trkpt>
      <trkpt lat="46.36817" lon="2.90577">
        <ele>344.2</ele>
        <time>2018-10-21T08:32:55Z</time>
      </trkpt>
      <trkpt lat="46.36812" lon="2.90572">
        <ele>343.8</ele>
        <time>2018-10-21T08:32:56Z</time>
      </trkpt>
      <trkpt lat="46.36807" lon="2.90567">
        <ele>343.4</ele>
        <time>2018-10-21T08:32:57Z</time>
      </trkpt>
      <trkpt lat="46.36802" lon="2.90562">
        <ele>343.1</ele>
        <time>2018-10-21T08:32:58Z</time>
      </trkpt>
      <trkpt lat="46.36795" lon="2.9056">
        <ele>342.9</ele>
        <time>2018-10-21T08:33:00Z</time>
      </trkpt>
      <trkpt lat="46.36787" lon="2.90562">
        <ele>342.5</ele>
        <time>2018-10-21T08:33:02Z</time>
      </trkpt>
      <trkpt lat="46.36779" lon="2.90563">
        <ele>342.3</ele>
        <time>2018-10-21T08:33:04Z</time>
      </trkpt>
      <trkpt lat="46.36774" lon="2.90564">
        <ele>342.3</ele>
        <time>2018-10-21T08:33:05Z</time>
      </trkpt>
      <trkpt lat="46.36769" lon="2.90565">
        <ele>342</ele>
        <time>2018-10-21T08:33:06Z</time>
      </trkpt>
      <trkpt lat="46.36763" lon="2.90565">
        <ele>341.8</ele>
        <time>2018-10-21T08:33:07Z</time>
      </trkpt>
      <trkpt lat="46.36756" lon="2.90565">
        <ele>341.6</ele>
        <time>2018-10-21T08:33:08Z</time>
      </trkpt>
      <trkpt lat="46.36749" lon="2.90564">
        <ele>340.9</ele>
        <time>2018-10-21T08:33:09Z</time>
      </trkpt>
      <trkpt lat="46.36741" lon="2.90562">
        <ele>340.3</ele>
        <time>2018-10-21T08:33:10Z</time>
      </trkpt>
      <trkpt lat="46.36733" lon="2.90562">
        <ele>339.3</ele>
        <time>2018-10-21T08:33:11Z</time>
      </trkpt>
      <trkpt lat="46.36724" lon="2.90562">
        <ele>338.5</ele>
        <time>2018-10-21T08:33:12Z</time>
      </trkpt>
      <trkpt lat="46.36715" lon="2.90562">
        <ele>337.9</ele>
        <time>2018-10-21T08:33:13Z</time>
      </trkpt>
      <trkpt lat="46.36708" lon="2.90562">
        <ele>336.7</ele>
        <time>2018-10-21T08:33:14Z</time>
      </trkpt>
      <trkpt lat="46.36702" lon="2.90562">
        <ele>335.8</ele>
        <time>2018-10-21T08:33:15Z</time>
      </trkpt>
      <trkpt lat="46.36697" lon="2.90562">
        <ele>334.5</ele>
        <time>2018-10-21T08:33:16Z</time>
      </trkpt>
      <trkpt lat="46.36692" lon="2.90562">
        <ele>333.5</ele>
        <time>2018-10-21T08:33:17Z</time>
      </trkpt>
      <trkpt lat="46.36686" lon="2.9056">
        <ele>332.4</ele>
        <time>2018-10-21T08:33:18Z</time>
      </trkpt>
      <trkpt lat="46.36681" lon="2.90557">
        <ele>331.5</ele>
        <time>2018-10-21T08:33:19Z</time>
      </trkpt>
      <trkpt lat="46.36676" lon="2.90553">
        <ele>330.9</ele>
        <time>2018-10-21T08:33:20Z</time>
      </trkpt>
      <trkpt lat="46.36668" lon="2.90553">
        <ele>329.2</ele>
        <time>2018-10-21T08:33:22Z</time>
      </trkpt>
      <trkpt lat="46.3666" lon="2.90552">
        <ele>325.8</ele>
        <time>2018-10-21T08:33:26Z</time>
      </trkpt>
      <trkpt lat="46.36653" lon="2.90546">
        <ele>325.1</ele>
        <time>2018-10-21T08:33:30Z</time>
      </trkpt>
      <trkpt lat="46.36647" lon="2.90541">
        <ele>325.2</ele>
        <time>2018-10-21T08:33:33Z</time>
      </trkpt>
      <trkpt lat="46.3664" lon="2.90534">
        <ele>325.1</ele>
        <time>2018-10-21T08:33:36Z</time>
      </trkpt>
      <trkpt lat="46.36633" lon="2.90528">
        <ele>325.5</ele>
        <time>2018-10-21T08:33:39Z</time>
      </trkpt>
      <trkpt lat="46.36627" lon="2.90523">
        <ele>325.7</ele>
        <time>2018-10-21T08:33:42Z</time>
      </trkpt>
      <trkpt lat="46.36621" lon="2.90515">
        <ele>327.2</ele>
        <time>2018-10-21T08:33:46Z</time>
      </trkpt>
      <trkpt lat="46.36616" lon="2.90506">
        <ele>327.8</ele>
        <time>2018-10-21T08:33:50Z</time>
      </trkpt>
      <trkpt lat="46.36612" lon="2.90497">
        <ele>328.8</ele>
        <time>2018-10-21T08:33:53Z</time>
      </trkpt>
      <trkpt lat="46.36608" lon="2.90487">
        <ele>329.3</ele>
        <time>2018-10-21T08:33:56Z</time>
      </trkpt>
      <trkpt lat="46.36604" lon="2.90479">
        <ele>329.3</ele>
        <time>2018-10-21T08:33:59Z</time>
      </trkpt>
      <trkpt lat="46.36601" lon="2.90469">
        <ele>329.8</ele>
        <time>2018-10-21T08:34:02Z</time>
      </trkpt>
      <trkpt lat="46.36597" lon="2.90459">
        <ele>330.3</ele>
        <time>2018-10-21T08:34:05Z</time>
      </trkpt>
      <trkpt lat="46.36592" lon="2.9045">
        <ele>331.1</ele>
        <time>2018-10-21T08:34:08Z</time>
      </trkpt>
      <trkpt lat="46.36587" lon="2.90441">
        <ele>331.4</ele>
        <time>2018-10-21T08:34:11Z</time>
      </trkpt>
      <trkpt lat="46.36582" lon="2.90435">
        <ele>331.8</ele>
        <time>2018-10-21T08:34:13Z</time>
      </trkpt>
      <trkpt lat="46.3658" lon="2.90432">
        <ele>332</ele>
        <time>2018-10-21T08:34:14Z</time>
      </trkpt>
      <trkpt lat="46.36568" lon="2.9042">
        <ele>333.5</ele>
        <time>2018-10-21T08:34:19Z</time>
      </trkpt>
      <trkpt lat="46.36561" lon="2.90413">
        <ele>334</ele>
        <time>2018-10-21T08:34:22Z</time>
      </trkpt>
      <trkpt lat="46.36556" lon="2.90406">
        <ele>334.7</ele>
        <time>2018-10-21T08:34:25Z</time>
      </trkpt>
      <trkpt lat="46.36551" lon="2.90398">
        <ele>336.1</ele>
        <time>2018-10-21T08:34:28Z</time>
      </trkpt>
      <trkpt lat="46.36545" lon="2.90391">
        <ele>336.5</ele>
        <time>2018-10-21T08:34:31Z</time>
      </trkpt>
      <trkpt lat="46.36539" lon="2.90383">
        <ele>337.3</ele>
        <time>2018-10-21T08:34:35Z</time>
      </trkpt>
      <trkpt lat="46.36534" lon="2.90376">
        <ele>338.1</ele>
        <time>2018-10-21T08:34:38Z</time>
      </trkpt>
      <trkpt lat="46.36528" lon="2.90368">
        <ele>338.8</ele>
        <time>2018-10-21T08:34:41Z</time>
      </trkpt>
      <trkpt lat="46.36524" lon="2.90362">
        <ele>339.1</ele>
        <time>2018-10-21T08:34:43Z</time>
      </trkpt>
      <trkpt lat="46.36518" lon="2.90354">
        <ele>338.7</ele>
        <time>2018-10-21T08:34:45Z</time>
      </trkpt>
      <trkpt lat="46.36513" lon="2.90348">
        <ele>338.2</ele>
        <time>2018-10-21T08:34:47Z</time>
      </trkpt>
      <trkpt lat="46.36507" lon="2.9034">
        <ele>338.1</ele>
        <time>2018-10-21T08:34:49Z</time>
      </trkpt>
      <trkpt lat="46.365" lon="2.90333">
        <ele>338.1</ele>
        <time>2018-10-21T08:34:51Z</time>
      </trkpt>
      <trkpt lat="46.36494" lon="2.90327">
        <ele>337.9</ele>
        <time>2018-10-21T08:34:53Z</time>
      </trkpt>
      <trkpt lat="46.36487" lon="2.90321">
        <ele>338</ele>
        <time>2018-10-21T08:34:55Z</time>
      </trkpt>
      <trkpt lat="46.36481" lon="2.90316">
        <ele>337.2</ele>
        <time>2018-10-21T08:34:57Z</time>
      </trkpt>
      <trkpt lat="46.36475" lon="2.9031">
        <ele>337.8</ele>
        <time>2018-10-21T08:34:59Z</time>
      </trkpt>
      <trkpt lat="46.36472" lon="2.90305">
        <ele>338</ele>
        <time>2018-10-21T08:35:00Z</time>
      </trkpt>
      <trkpt lat="46.3647" lon="2.90298">
        <ele>337.6</ele>
        <time>2018-10-21T08:35:01Z</time>
      </trkpt>
      <trkpt lat="46.36468" lon="2.90291">
        <ele>337.3</ele>
        <time>2018-10-21T08:35:02Z</time>
      </trkpt>
      <trkpt lat="46.36465" lon="2.90283">
        <ele>336.8</ele>
        <time>2018-10-21T08:35:03Z</time>
      </trkpt>
      <trkpt lat="46.36463" lon="2.90275">
        <ele>336.5</ele>
        <time>2018-10-21T08:35:04Z</time>
      </trkpt>
      <trkpt lat="46.3646" lon="2.90266">
        <ele>336</ele>
        <time>2018-10-21T08:35:05Z</time>
      </trkpt>
      <trkpt lat="46.36458" lon="2.90258">
        <ele>335.7</ele>
        <time>2018-10-21T08:35:06Z</time>
      </trkpt>
      <trkpt lat="46.36454" lon="2.90252">
        <ele>335.4</ele>
        <time>2018-10-21T08:35:07Z</time>
      </trkpt>
      <trkpt lat="46.3645" lon="2.90248">
        <ele>335.1</ele>
        <time>2018-10-21T08:35:08Z</time>
      </trkpt>
      <trkpt lat="46.36443" lon="2.90242">
        <ele>334.8</ele>
        <time>2018-10-21T08:35:10Z</time>
      </trkpt>
      <trkpt lat="46.36438" lon="2.90237">
        <ele>334.8</ele>
        <time>2018-10-21T08:35:12Z</time>
      </trkpt>
      <trkpt lat="46.36433" lon="2.90231">
        <ele>335.5</ele>
        <time>2018-10-21T08:35:14Z</time>
      </trkpt>
      <trkpt lat="46.36428" lon="2.90225">
        <ele>336.4</ele>
        <time>2018-10-21T08:35:16Z</time>
      </trkpt>
      <trkpt lat="46.36426" lon="2.90223">
        <ele>336.9</ele>
        <time>2018-10-21T08:35:17Z</time>
      </trkpt>
      <trkpt lat="46.36418" lon="2.90209">
        <ele>338.2</ele>
        <time>2018-10-21T08:35:22Z</time>
      </trkpt>
      <trkpt lat="46.36412" lon="2.90202">
        <ele>338.7</ele>
        <time>2018-10-21T08:35:25Z</time>
      </trkpt>
      <trkpt lat="46.36406" lon="2.90195">
        <ele>339</ele>
        <time>2018-10-21T08:35:28Z</time>
      </trkpt>
      <trkpt lat="46.36401" lon="2.90187">
        <ele>339.5</ele>
        <time>2018-10-21T08:35:31Z</time>
      </trkpt>
      <trkpt lat="46.36395" lon="2.9018">
        <ele>340</ele>
        <time>2018-10-21T08:35:34Z</time>
      </trkpt>
      <trkpt lat="46.36389" lon="2.90172">
        <ele>341.5</ele>
        <time>2018-10-21T08:35:37Z</time>
      </trkpt>
      <trkpt lat="46.36383" lon="2.90165">
        <ele>341.8</ele>
        <time>2018-10-21T08:35:40Z</time>
      </trkpt>
      <trkpt lat="46.36378" lon="2.90157">
        <ele>343</ele>
        <time>2018-10-21T08:35:43Z</time>
      </trkpt>
      <trkpt lat="46.36373" lon="2.9015">
        <ele>343.7</ele>
        <time>2018-10-21T08:35:46Z</time>
      </trkpt>
      <trkpt lat="46.36367" lon="2.90143">
        <ele>344.7</ele>
        <time>2018-10-21T08:35:49Z</time>
      </trkpt>
      <trkpt lat="46.36361" lon="2.90135">
        <ele>345.5</ele>
        <time>2018-10-21T08:35:52Z</time>
      </trkpt>
      <trkpt lat="46.36355" lon="2.90128">
        <ele>345.2</ele>
        <time>2018-10-21T08:35:55Z</time>
      </trkpt>
      <trkpt lat="46.36349" lon="2.9012">
        <ele>345.9</ele>
        <time>2018-10-21T08:35:58Z</time>
      </trkpt>
      <trkpt lat="46.36342" lon="2.90116">
        <ele>345.9</ele>
        <time>2018-10-21T08:36:00Z</time>
      </trkpt>
      <trkpt lat="46.36338" lon="2.90119">
        <ele>345.8</ele>
        <time>2018-10-21T08:36:01Z</time>
      </trkpt>
      <trkpt lat="46.36334" lon="2.90124">
        <ele>345.7</ele>
        <time>2018-10-21T08:36:02Z</time>
      </trkpt>
      <trkpt lat="46.3633" lon="2.9013">
        <ele>345.3</ele>
        <time>2018-10-21T08:36:03Z</time>
      </trkpt>
      <trkpt lat="46.36326" lon="2.90135">
        <ele>344.9</ele>
        <time>2018-10-21T08:36:04Z</time>
      </trkpt>
      <trkpt lat="46.36321" lon="2.90139">
        <ele>344.8</ele>
        <time>2018-10-21T08:36:05Z</time>
      </trkpt>
      <trkpt lat="46.36318" lon="2.90145">
        <ele>344.7</ele>
        <time>2018-10-21T08:36:06Z</time>
      </trkpt>
      <trkpt lat="46.36315" lon="2.90151">
        <ele>344</ele>
        <time>2018-10-21T08:36:07Z</time>
      </trkpt>
      <trkpt lat="46.36312" lon="2.90157">
        <ele>343.5</ele>
        <time>2018-10-21T08:36:08Z</time>
      </trkpt>
      <trkpt lat="46.3631" lon="2.90163">
        <ele>343.1</ele>
        <time>2018-10-21T08:36:09Z</time>
      </trkpt>
      <trkpt lat="46.36308" lon="2.9017">
        <ele>342.9</ele>
        <time>2018-10-21T08:36:10Z</time>
      </trkpt>
      <trkpt lat="46.36307" lon="2.90177">
        <ele>342.8</ele>
        <time>2018-10-21T08:36:11Z</time>
      </trkpt>
      <trkpt lat="46.36306" lon="2.90189">
        <ele>342.2</ele>
        <time>2018-10-21T08:36:13Z</time>
      </trkpt>
      <trkpt lat="46.36306" lon="2.902">
        <ele>342</ele>
        <time>2018-10-21T08:36:15Z</time>
      </trkpt>
      <trkpt lat="46.36305" lon="2.90211">
        <ele>341.8</ele>
        <time>2018-10-21T08:36:17Z</time>
      </trkpt>
      <trkpt lat="46.36305" lon="2.90215">
        <ele>341.8</ele>
        <time>2018-10-21T08:36:18Z</time>
      </trkpt>
      <trkpt lat="46.36301" lon="2.90232">
        <ele>343.4</ele>
        <time>2018-10-21T08:36:22Z</time>
      </trkpt>
      <trkpt lat="46.36295" lon="2.90239">
        <ele>344.6</ele>
        <time>2018-10-21T08:36:25Z</time>
      </trkpt>
      <trkpt lat="46.36289" lon="2.90246">
        <ele>346</ele>
        <time>2018-10-21T08:36:28Z</time>
      </trkpt>
      <trkpt lat="46.36283" lon="2.90252">
        <ele>347</ele>
        <time>2018-10-21T08:36:31Z</time>
      </trkpt>
      <trkpt lat="46.36277" lon="2.90261">
        <ele>348.4</ele>
        <time>2018-10-21T08:36:34Z</time>
      </trkpt>
      <trkpt lat="46.36272" lon="2.90267">
        <ele>349</ele>
        <time>2018-10-21T08:36:36Z</time>
      </trkpt>
      <trkpt lat="46.36267" lon="2.90272">
        <ele>349.4</ele>
        <time>2018-10-21T08:36:38Z</time>
      </trkpt>
      <trkpt lat="46.36262" lon="2.90278">
        <ele>349.7</ele>
        <time>2018-10-21T08:36:40Z</time>
      </trkpt>
      <trkpt lat="46.36256" lon="2.90286">
        <ele>350.4</ele>
        <time>2018-10-21T08:36:42Z</time>
      </trkpt>
      <trkpt lat="46.36251" lon="2.90294">
        <ele>350.8</ele>
        <time>2018-10-21T08:36:44Z</time>
      </trkpt>
      <trkpt lat="46.36246" lon="2.90301">
        <ele>350.9</ele>
        <time>2018-10-21T08:36:46Z</time>
      </trkpt>
      <trkpt lat="46.3624" lon="2.90308">
        <ele>351.4</ele>
        <time>2018-10-21T08:36:48Z</time>
      </trkpt>
      <trkpt lat="46.36235" lon="2.90315">
        <ele>352.1</ele>
        <time>2018-10-21T08:36:50Z</time>
      </trkpt>
      <trkpt lat="46.36231" lon="2.90322">
        <ele>352.7</ele>
        <time>2018-10-21T08:36:52Z</time>
      </trkpt>
      <trkpt lat="46.36225" lon="2.90329">
        <ele>352.8</ele>
        <time>2018-10-21T08:36:54Z</time>
      </trkpt>
      <trkpt lat="46.3622" lon="2.90336">
        <ele>353.4</ele>
        <time>2018-10-21T08:36:56Z</time>
      </trkpt>
      <trkpt lat="46.36216" lon="2.90342">
        <ele>353.4</ele>
        <time>2018-10-21T08:36:58Z</time>
      </trkpt>
      <trkpt lat="46.36211" lon="2.90349">
        <ele>353.5</ele>
        <time>2018-10-21T08:37:00Z</time>
      </trkpt>
      <trkpt lat="46.36207" lon="2.90355">
        <ele>353.9</ele>
        <time>2018-10-21T08:37:02Z</time>
      </trkpt>
      <trkpt lat="46.36202" lon="2.90361">
        <ele>353.8</ele>
        <time>2018-10-21T08:37:04Z</time>
      </trkpt>
      <trkpt lat="46.36197" lon="2.90367">
        <ele>353.3</ele>
        <time>2018-10-21T08:37:06Z</time>
      </trkpt>
      <trkpt lat="46.36193" lon="2.90373">
        <ele>354.1</ele>
        <time>2018-10-21T08:37:08Z</time>
      </trkpt>
      <trkpt lat="46.36188" lon="2.9038">
        <ele>354.9</ele>
        <time>2018-10-21T08:37:10Z</time>
      </trkpt>
      <trkpt lat="46.36185" lon="2.90387">
        <ele>355.4</ele>
        <time>2018-10-21T08:37:12Z</time>
      </trkpt>
      <trkpt lat="46.36182" lon="2.90399">
        <ele>355.3</ele>
        <time>2018-10-21T08:37:15Z</time>
      </trkpt>
      <trkpt lat="46.36179" lon="2.90409">
        <ele>356.5</ele>
        <time>2018-10-21T08:37:18Z</time>
      </trkpt>
      <trkpt lat="46.36176" lon="2.90409">
        <ele>356.6</ele>
        <time>2018-10-21T08:37:19Z</time>
      </trkpt>
      <trkpt lat="46.36164" lon="2.90406">
        <ele>356.7</ele>
        <time>2018-10-21T08:37:23Z</time>
      </trkpt>
      <trkpt lat="46.36158" lon="2.90407">
        <ele>357</ele>
        <time>2018-10-21T08:37:25Z</time>
      </trkpt>
      <trkpt lat="46.36152" lon="2.90408">
        <ele>357.6</ele>
        <time>2018-10-21T08:37:27Z</time>
      </trkpt>
      <trkpt lat="46.36146" lon="2.90411">
        <ele>358.1</ele>
        <time>2018-10-21T08:37:29Z</time>
      </trkpt>
      <trkpt lat="46.36139" lon="2.90413">
        <ele>358.6</ele>
        <time>2018-10-21T08:37:31Z</time>
      </trkpt>
      <trkpt lat="46.36133" lon="2.90416">
        <ele>359</ele>
        <time>2018-10-21T08:37:33Z</time>
      </trkpt>
      <trkpt lat="46.36126" lon="2.90419">
        <ele>359.2</ele>
        <time>2018-10-21T08:37:35Z</time>
      </trkpt>
      <trkpt lat="46.3612" lon="2.90422">
        <ele>359.4</ele>
        <time>2018-10-21T08:37:37Z</time>
      </trkpt>
      <trkpt lat="46.36114" lon="2.90425">
        <ele>359.1</ele>
        <time>2018-10-21T08:37:39Z</time>
      </trkpt>
      <trkpt lat="46.36108" lon="2.90429">
        <ele>360.4</ele>
        <time>2018-10-21T08:37:41Z</time>
      </trkpt>
      <trkpt lat="46.36101" lon="2.90432">
        <ele>361</ele>
        <time>2018-10-21T08:37:43Z</time>
      </trkpt>
      <trkpt lat="46.36095" lon="2.90436">
        <ele>360.9</ele>
        <time>2018-10-21T08:37:45Z</time>
      </trkpt>
      <trkpt lat="46.36089" lon="2.9044">
        <ele>360.6</ele>
        <time>2018-10-21T08:37:47Z</time>
      </trkpt>
      <trkpt lat="46.36083" lon="2.90444">
        <ele>360.6</ele>
        <time>2018-10-21T08:37:49Z</time>
      </trkpt>
      <trkpt lat="46.36077" lon="2.90447">
        <ele>361.7</ele>
        <time>2018-10-21T08:37:51Z</time>
      </trkpt>
      <trkpt lat="46.36071" lon="2.90451">
        <ele>362.1</ele>
        <time>2018-10-21T08:37:53Z</time>
      </trkpt>
      <trkpt lat="46.36065" lon="2.90455">
        <ele>362</ele>
        <time>2018-10-21T08:37:55Z</time>
      </trkpt>
      <trkpt lat="46.36059" lon="2.90458">
        <ele>362.1</ele>
        <time>2018-10-21T08:37:57Z</time>
      </trkpt>
      <trkpt lat="46.36053" lon="2.90461">
        <ele>362.6</ele>
        <time>2018-10-21T08:37:59Z</time>
      </trkpt>
      <trkpt lat="46.36046" lon="2.90465">
        <ele>363</ele>
        <time>2018-10-21T08:38:01Z</time>
      </trkpt>
      <trkpt lat="46.3604" lon="2.90468">
        <ele>363.8</ele>
        <time>2018-10-21T08:38:03Z</time>
      </trkpt>
      <trkpt lat="46.36033" lon="2.90471">
        <ele>364.1</ele>
        <time>2018-10-21T08:38:05Z</time>
      </trkpt>
      <trkpt lat="46.36027" lon="2.90475">
        <ele>364.8</ele>
        <time>2018-10-21T08:38:07Z</time>
      </trkpt>
      <trkpt lat="46.3602" lon="2.90479">
        <ele>365.2</ele>
        <time>2018-10-21T08:38:09Z</time>
      </trkpt>
      <trkpt lat="46.36014" lon="2.90482">
        <ele>365.9</ele>
        <time>2018-10-21T08:38:11Z</time>
      </trkpt>
      <trkpt lat="46.36007" lon="2.90486">
        <ele>366.7</ele>
        <time>2018-10-21T08:38:13Z</time>
      </trkpt>
      <trkpt lat="46.36001" lon="2.90489">
        <ele>366.7</ele>
        <time>2018-10-21T08:38:15Z</time>
      </trkpt>
      <trkpt lat="46.35995" lon="2.90493">
        <ele>366.6</ele>
        <time>2018-10-21T08:38:17Z</time>
      </trkpt>
      <trkpt lat="46.3599" lon="2.90497">
        <ele>366.8</ele>
        <time>2018-10-21T08:38:19Z</time>
      </trkpt>
      <trkpt lat="46.35984" lon="2.90501">
        <ele>366.9</ele>
        <time>2018-10-21T08:38:21Z</time>
      </trkpt>
      <trkpt lat="46.35981" lon="2.90504">
        <ele>366.9</ele>
        <time>2018-10-21T08:38:22Z</time>
      </trkpt>
      <trkpt lat="46.35973" lon="2.90511">
        <ele>367.3</ele>
        <time>2018-10-21T08:38:25Z</time>
      </trkpt>
      <trkpt lat="46.35968" lon="2.90517">
        <ele>367.1</ele>
        <time>2018-10-21T08:38:27Z</time>
      </trkpt>
      <trkpt lat="46.35963" lon="2.90522">
        <ele>367.9</ele>
        <time>2018-10-21T08:38:29Z</time>
      </trkpt>
      <trkpt lat="46.35958" lon="2.90528">
        <ele>368.4</ele>
        <time>2018-10-21T08:38:31Z</time>
      </trkpt>
      <trkpt lat="46.35953" lon="2.90534">
        <ele>369.1</ele>
        <time>2018-10-21T08:38:33Z</time>
      </trkpt>
      <trkpt lat="46.35948" lon="2.9054">
        <ele>370.1</ele>
        <time>2018-10-21T08:38:35Z</time>
      </trkpt>
      <trkpt lat="46.35944" lon="2.90546">
        <ele>370.8</ele>
        <time>2018-10-21T08:38:37Z</time>
      </trkpt>
      <trkpt lat="46.35939" lon="2.90553">
        <ele>371</ele>
        <time>2018-10-21T08:38:39Z</time>
      </trkpt>
      <trkpt lat="46.35934" lon="2.90559">
        <ele>371.2</ele>
        <time>2018-10-21T08:38:41Z</time>
      </trkpt>
      <trkpt lat="46.3593" lon="2.90565">
        <ele>371.5</ele>
        <time>2018-10-21T08:38:43Z</time>
      </trkpt>
      <trkpt lat="46.35925" lon="2.90571">
        <ele>372</ele>
        <time>2018-10-21T08:38:45Z</time>
      </trkpt>
      <trkpt lat="46.35919" lon="2.90576">
        <ele>372.7</ele>
        <time>2018-10-21T08:38:47Z</time>
      </trkpt>
      <trkpt lat="46.35913" lon="2.9058">
        <ele>373.1</ele>
        <time>2018-10-21T08:38:49Z</time>
      </trkpt>
      <trkpt lat="46.35906" lon="2.90581">
        <ele>373.2</ele>
        <time>2018-10-21T08:38:51Z</time>
      </trkpt>
      <trkpt lat="46.359" lon="2.90582">
        <ele>373.3</ele>
        <time>2018-10-21T08:38:53Z</time>
      </trkpt>
      <trkpt lat="46.35893" lon="2.90583">
        <ele>372.7</ele>
        <time>2018-10-21T08:38:55Z</time>
      </trkpt>
      <trkpt lat="46.35886" lon="2.90583">
        <ele>373.5</ele>
        <time>2018-10-21T08:38:57Z</time>
      </trkpt>
      <trkpt lat="46.35879" lon="2.90584">
        <ele>373.8</ele>
        <time>2018-10-21T08:38:59Z</time>
      </trkpt>
      <trkpt lat="46.35872" lon="2.90584">
        <ele>373.7</ele>
        <time>2018-10-21T08:39:01Z</time>
      </trkpt>
      <trkpt lat="46.35865" lon="2.90586">
        <ele>373.4</ele>
        <time>2018-10-21T08:39:03Z</time>
      </trkpt>
      <trkpt lat="46.35859" lon="2.90588">
        <ele>373.8</ele>
        <time>2018-10-21T08:39:05Z</time>
      </trkpt>
      <trkpt lat="46.35852" lon="2.90591">
        <ele>373.6</ele>
        <time>2018-10-21T08:39:07Z</time>
      </trkpt>
      <trkpt lat="46.35846" lon="2.90595">
        <ele>373.8</ele>
        <time>2018-10-21T08:39:09Z</time>
      </trkpt>
      <trkpt lat="46.35838" lon="2.90599">
        <ele>374</ele>
        <time>2018-10-21T08:39:11Z</time>
      </trkpt>
      <trkpt lat="46.35831" lon="2.90601">
        <ele>374.6</ele>
        <time>2018-10-21T08:39:13Z</time>
      </trkpt>
      <trkpt lat="46.35823" lon="2.906">
        <ele>374.9</ele>
        <time>2018-10-21T08:39:15Z</time>
      </trkpt>
      <trkpt lat="46.35815" lon="2.90597">
        <ele>375</ele>
        <time>2018-10-21T08:39:17Z</time>
      </trkpt>
      <trkpt lat="46.35809" lon="2.90593">
        <ele>376</ele>
        <time>2018-10-21T08:39:19Z</time>
      </trkpt>
      <trkpt lat="46.35802" lon="2.90589">
        <ele>377.1</ele>
        <time>2018-10-21T08:39:21Z</time>
      </trkpt>
      <trkpt lat="46.35796" lon="2.90586">
        <ele>377.3</ele>
        <time>2018-10-21T08:39:23Z</time>
      </trkpt>
      <trkpt lat="46.35792" lon="2.90585">
        <ele>377.2</ele>
        <time>2018-10-21T08:39:24Z</time>
      </trkpt>
      <trkpt lat="46.35783" lon="2.90589">
        <ele>377.3</ele>
        <time>2018-10-21T08:39:27Z</time>
      </trkpt>
      <trkpt lat="46.35778" lon="2.90597">
        <ele>377.6</ele>
        <time>2018-10-21T08:39:29Z</time>
      </trkpt>
      <trkpt lat="46.35773" lon="2.90605">
        <ele>378.1</ele>
        <time>2018-10-21T08:39:31Z</time>
      </trkpt>
      <trkpt lat="46.35769" lon="2.90615">
        <ele>378</ele>
        <time>2018-10-21T08:39:33Z</time>
      </trkpt>
      <trkpt lat="46.35765" lon="2.90624">
        <ele>377.9</ele>
        <time>2018-10-21T08:39:35Z</time>
      </trkpt>
      <trkpt lat="46.35761" lon="2.90634">
        <ele>378.3</ele>
        <time>2018-10-21T08:39:37Z</time>
      </trkpt>
      <trkpt lat="46.35757" lon="2.90644">
        <ele>378.8</ele>
        <time>2018-10-21T08:39:39Z</time>
      </trkpt>
      <trkpt lat="46.35753" lon="2.90654">
        <ele>378.9</ele>
        <time>2018-10-21T08:39:41Z</time>
      </trkpt>
      <trkpt lat="46.35749" lon="2.90663">
        <ele>378.5</ele>
        <time>2018-10-21T08:39:43Z</time>
      </trkpt>
      <trkpt lat="46.35744" lon="2.90673">
        <ele>378.2</ele>
        <time>2018-10-21T08:39:45Z</time>
      </trkpt>
      <trkpt lat="46.3574" lon="2.90683">
        <ele>378.2</ele>
        <time>2018-10-21T08:39:47Z</time>
      </trkpt>
      <trkpt lat="46.35735" lon="2.90692">
        <ele>378.4</ele>
        <time>2018-10-21T08:39:49Z</time>
      </trkpt>
      <trkpt lat="46.35731" lon="2.90702">
        <ele>378.6</ele>
        <time>2018-10-21T08:39:51Z</time>
      </trkpt>
      <trkpt lat="46.35726" lon="2.90712">
        <ele>378.9</ele>
        <time>2018-10-21T08:39:53Z</time>
      </trkpt>
      <trkpt lat="46.35722" lon="2.90722">
        <ele>378.8</ele>
        <time>2018-10-21T08:39:55Z</time>
      </trkpt>
      <trkpt lat="46.35718" lon="2.90733">
        <ele>378.9</ele>
        <time>2018-10-21T08:39:57Z</time>
      </trkpt>
      <trkpt lat="46.35714" lon="2.90743">
        <ele>379.1</ele>
        <time>2018-10-21T08:39:59Z</time>
      </trkpt>
      <trkpt lat="46.3571" lon="2.90753">
        <ele>378.9</ele>
        <time>2018-10-21T08:40:01Z</time>
      </trkpt>
      <trkpt lat="46.35706" lon="2.90762">
        <ele>378.7</ele>
        <time>2018-10-21T08:40:03Z</time>
      </trkpt>
      <trkpt lat="46.35701" lon="2.90772">
        <ele>378.7</ele>
        <time>2018-10-21T08:40:05Z</time>
      </trkpt>
      <trkpt lat="46.35697" lon="2.90782">
        <ele>379.1</ele>
        <time>2018-10-21T08:40:07Z</time>
      </trkpt>
      <trkpt lat="46.35693" lon="2.90792">
        <ele>379.3</ele>
        <time>2018-10-21T08:40:09Z</time>
      </trkpt>
      <trkpt lat="46.35688" lon="2.90801">
        <ele>380.1</ele>
        <time>2018-10-21T08:40:11Z</time>
      </trkpt>
      <trkpt lat="46.35681" lon="2.90802">
        <ele>380.2</ele>
        <time>2018-10-21T08:40:13Z</time>
      </trkpt>
      <trkpt lat="46.35675" lon="2.90798">
        <ele>380.1</ele>
        <time>2018-10-21T08:40:15Z</time>
      </trkpt>
      <trkpt lat="46.35669" lon="2.90794">
        <ele>380.3</ele>
        <time>2018-10-21T08:40:17Z</time>
      </trkpt>
      <trkpt lat="46.35662" lon="2.90791">
        <ele>380.4</ele>
        <time>2018-10-21T08:40:19Z</time>
      </trkpt>
      <trkpt lat="46.35655" lon="2.90788">
        <ele>380.1</ele>
        <time>2018-10-21T08:40:21Z</time>
      </trkpt>
      <trkpt lat="46.35649" lon="2.90785">
        <ele>380.2</ele>
        <time>2018-10-21T08:40:23Z</time>
      </trkpt>
      <trkpt lat="46.35642" lon="2.90782">
        <ele>379.9</ele>
        <time>2018-10-21T08:40:25Z</time>
      </trkpt>
      <trkpt lat="46.35638" lon="2.9078">
        <ele>379.7</ele>
        <time>2018-10-21T08:40:26Z</time>
      </trkpt>
      <trkpt lat="46.35628" lon="2.90776">
        <ele>381.2</ele>
        <time>2018-10-21T08:40:29Z</time>
      </trkpt>
      <trkpt lat="46.35622" lon="2.90772">
        <ele>381.8</ele>
        <time>2018-10-21T08:40:31Z</time>
      </trkpt>
      <trkpt lat="46.35615" lon="2.90769">
        <ele>381.9</ele>
        <time>2018-10-21T08:40:33Z</time>
      </trkpt>
      <trkpt lat="46.35608" lon="2.90766">
        <ele>382</ele>
        <time>2018-10-21T08:40:35Z</time>
      </trkpt>
      <trkpt lat="46.35601" lon="2.90764">
        <ele>382.7</ele>
        <time>2018-10-21T08:40:37Z</time>
      </trkpt>
      <trkpt lat="46.35594" lon="2.90762">
        <ele>383.2</ele>
        <time>2018-10-21T08:40:39Z</time>
      </trkpt>
      <trkpt lat="46.35587" lon="2.90761">
        <ele>383.3</ele>
        <time>2018-10-21T08:40:41Z</time>
      </trkpt>
      <trkpt lat="46.3558" lon="2.90762">
        <ele>383.3</ele>
        <time>2018-10-21T08:40:43Z</time>
      </trkpt>
      <trkpt lat="46.35573" lon="2.90764">
        <ele>383.5</ele>
        <time>2018-10-21T08:40:45Z</time>
      </trkpt>
      <trkpt lat="46.35565" lon="2.90768">
        <ele>384.3</ele>
        <time>2018-10-21T08:40:47Z</time>
      </trkpt>
      <trkpt lat="46.35559" lon="2.90772">
        <ele>384.3</ele>
        <time>2018-10-21T08:40:49Z</time>
      </trkpt>
      <trkpt lat="46.35552" lon="2.90776">
        <ele>384.2</ele>
        <time>2018-10-21T08:40:51Z</time>
      </trkpt>
      <trkpt lat="46.35545" lon="2.90781">
        <ele>384.1</ele>
        <time>2018-10-21T08:40:53Z</time>
      </trkpt>
      <trkpt lat="46.35538" lon="2.90785">
        <ele>384.2</ele>
        <time>2018-10-21T08:40:55Z</time>
      </trkpt>
      <trkpt lat="46.35533" lon="2.90794">
        <ele>384.7</ele>
        <time>2018-10-21T08:40:58Z</time>
      </trkpt>
      <trkpt lat="46.35529" lon="2.90803">
        <ele>385.2</ele>
        <time>2018-10-21T08:41:01Z</time>
      </trkpt>
      <trkpt lat="46.35523" lon="2.90812">
        <ele>385.2</ele>
        <time>2018-10-21T08:41:04Z</time>
      </trkpt>
      <trkpt lat="46.35518" lon="2.90817">
        <ele>386.1</ele>
        <time>2018-10-21T08:41:06Z</time>
      </trkpt>
      <trkpt lat="46.35513" lon="2.90822">
        <ele>386</ele>
        <time>2018-10-21T08:41:08Z</time>
      </trkpt>
      <trkpt lat="46.35508" lon="2.90827">
        <ele>386.1</ele>
        <time>2018-10-21T08:41:10Z</time>
      </trkpt>
      <trkpt lat="46.35503" lon="2.90832">
        <ele>386.6</ele>
        <time>2018-10-21T08:41:12Z</time>
      </trkpt>
      <trkpt lat="46.35498" lon="2.90837">
        <ele>387.1</ele>
        <time>2018-10-21T08:41:14Z</time>
      </trkpt>
      <trkpt lat="46.35493" lon="2.90842">
        <ele>386.9</ele>
        <time>2018-10-21T08:41:16Z</time>
      </trkpt>
      <trkpt lat="46.35486" lon="2.90849">
        <ele>387.9</ele>
        <time>2018-10-21T08:41:19Z</time>
      </trkpt>
      <trkpt lat="46.35478" lon="2.90856">
        <ele>388.4</ele>
        <time>2018-10-21T08:41:22Z</time>
      </trkpt>
      <trkpt lat="46.35471" lon="2.90864">
        <ele>389.1</ele>
        <time>2018-10-21T08:41:25Z</time>
      </trkpt>
      <trkpt lat="46.35466" lon="2.90869">
        <ele>389.5</ele>
        <time>2018-10-21T08:41:27Z</time>
      </trkpt>
      <trkpt lat="46.35463" lon="2.90872">
        <ele>389.7</ele>
        <time>2018-10-21T08:41:28Z</time>
      </trkpt>
      <trkpt lat="46.35455" lon="2.9088">
        <ele>389.3</ele>
        <time>2018-10-21T08:41:31Z</time>
      </trkpt>
      <trkpt lat="46.3545" lon="2.90886">
        <ele>389.1</ele>
        <time>2018-10-21T08:41:33Z</time>
      </trkpt>
      <trkpt lat="46.35445" lon="2.90891">
        <ele>389.9</ele>
        <time>2018-10-21T08:41:35Z</time>
      </trkpt>
      <trkpt lat="46.3544" lon="2.90896">
        <ele>390.4</ele>
        <time>2018-10-21T08:41:37Z</time>
      </trkpt>
      <trkpt lat="46.35435" lon="2.90901">
        <ele>391.6</ele>
        <time>2018-10-21T08:41:39Z</time>
      </trkpt>
      <trkpt lat="46.35428" lon="2.90909">
        <ele>392.1</ele>
        <time>2018-10-21T08:41:42Z</time>
      </trkpt>
      <trkpt lat="46.35423" lon="2.90914">
        <ele>392.7</ele>
        <time>2018-10-21T08:41:44Z</time>
      </trkpt>
      <trkpt lat="46.35418" lon="2.9092">
        <ele>392.9</ele>
        <time>2018-10-21T08:41:46Z</time>
      </trkpt>
      <trkpt lat="46.35413" lon="2.90925">
        <ele>393</ele>
        <time>2018-10-21T08:41:48Z</time>
      </trkpt>
      <trkpt lat="46.35407" lon="2.90931">
        <ele>393.2</ele>
        <time>2018-10-21T08:41:50Z</time>
      </trkpt>
      <trkpt lat="46.35402" lon="2.90936">
        <ele>393.4</ele>
        <time>2018-10-21T08:41:52Z</time>
      </trkpt>
      <trkpt lat="46.35397" lon="2.90942">
        <ele>393.2</ele>
        <time>2018-10-21T08:41:54Z</time>
      </trkpt>
      <trkpt lat="46.35392" lon="2.90947">
        <ele>393.6</ele>
        <time>2018-10-21T08:41:56Z</time>
      </trkpt>
      <trkpt lat="46.35386" lon="2.90952">
        <ele>394.5</ele>
        <time>2018-10-21T08:41:58Z</time>
      </trkpt>
      <trkpt lat="46.35381" lon="2.90957">
        <ele>395</ele>
        <time>2018-10-21T08:42:00Z</time>
      </trkpt>
      <trkpt lat="46.35375" lon="2.90959">
        <ele>395.4</ele>
        <time>2018-10-21T08:42:02Z</time>
      </trkpt>
      <trkpt lat="46.35369" lon="2.90963">
        <ele>396</ele>
        <time>2018-10-21T08:42:04Z</time>
      </trkpt>
      <trkpt lat="46.35363" lon="2.90967">
        <ele>396</ele>
        <time>2018-10-21T08:42:06Z</time>
      </trkpt>
      <trkpt lat="46.35357" lon="2.90971">
        <ele>397.4</ele>
        <time>2018-10-21T08:42:08Z</time>
      </trkpt>
      <trkpt lat="46.35351" lon="2.90976">
        <ele>397.5</ele>
        <time>2018-10-21T08:42:10Z</time>
      </trkpt>
      <trkpt lat="46.35345" lon="2.9098">
        <ele>397.4</ele>
        <time>2018-10-21T08:42:12Z</time>
      </trkpt>
      <trkpt lat="46.35339" lon="2.90984">
        <ele>397.5</ele>
        <time>2018-10-21T08:42:14Z</time>
      </trkpt>
      <trkpt lat="46.35333" lon="2.90988">
        <ele>397.5</ele>
        <time>2018-10-21T08:42:16Z</time>
      </trkpt>
      <trkpt lat="46.35327" lon="2.90993">
        <ele>397.3</ele>
        <time>2018-10-21T08:42:18Z</time>
      </trkpt>
      <trkpt lat="46.35321" lon="2.90997">
        <ele>397.6</ele>
        <time>2018-10-21T08:42:20Z</time>
      </trkpt>
      <trkpt lat="46.35315" lon="2.91002">
        <ele>398.3</ele>
        <time>2018-10-21T08:42:22Z</time>
      </trkpt>
      <trkpt lat="46.35309" lon="2.91006">
        <ele>398.7</ele>
        <time>2018-10-21T08:42:24Z</time>
      </trkpt>
      <trkpt lat="46.35303" lon="2.9101">
        <ele>398.5</ele>
        <time>2018-10-21T08:42:26Z</time>
      </trkpt>
      <trkpt lat="46.35298" lon="2.91014">
        <ele>398.4</ele>
        <time>2018-10-21T08:42:28Z</time>
      </trkpt>
      <trkpt lat="46.35295" lon="2.91016">
        <ele>398.6</ele>
        <time>2018-10-21T08:42:29Z</time>
      </trkpt>
      <trkpt lat="46.35287" lon="2.91021">
        <ele>398.8</ele>
        <time>2018-10-21T08:42:32Z</time>
      </trkpt>
      <trkpt lat="46.35281" lon="2.91025">
        <ele>398.9</ele>
        <time>2018-10-21T08:42:34Z</time>
      </trkpt>
      <trkpt lat="46.35274" lon="2.91029">
        <ele>399.2</ele>
        <time>2018-10-21T08:42:36Z</time>
      </trkpt>
      <trkpt lat="46.35268" lon="2.91033">
        <ele>399.6</ele>
        <time>2018-10-21T08:42:38Z</time>
      </trkpt>
      <trkpt lat="46.35261" lon="2.91035">
        <ele>399.5</ele>
        <time>2018-10-21T08:42:40Z</time>
      </trkpt>
      <trkpt lat="46.35254" lon="2.91036">
        <ele>399.4</ele>
        <time>2018-10-21T08:42:42Z</time>
      </trkpt>
      <trkpt lat="46.35248" lon="2.91035">
        <ele>400.1</ele>
        <time>2018-10-21T08:42:44Z</time>
      </trkpt>
      <trkpt lat="46.35241" lon="2.91033">
        <ele>400.6</ele>
        <time>2018-10-21T08:42:46Z</time>
      </trkpt>
      <trkpt lat="46.35235" lon="2.91032">
        <ele>400.8</ele>
        <time>2018-10-21T08:42:48Z</time>
      </trkpt>
      <trkpt lat="46.35228" lon="2.9103">
        <ele>401.4</ele>
        <time>2018-10-21T08:42:50Z</time>
      </trkpt>
      <trkpt lat="46.35222" lon="2.91028">
        <ele>401.9</ele>
        <time>2018-10-21T08:42:52Z</time>
      </trkpt>
      <trkpt lat="46.35215" lon="2.91027">
        <ele>402.7</ele>
        <time>2018-10-21T08:42:54Z</time>
      </trkpt>
      <trkpt lat="46.35209" lon="2.91026">
        <ele>403.5</ele>
        <time>2018-10-21T08:42:56Z</time>
      </trkpt>
      <trkpt lat="46.35203" lon="2.91025">
        <ele>402.6</ele>
        <time>2018-10-21T08:42:58Z</time>
      </trkpt>
      <trkpt lat="46.35196" lon="2.91024">
        <ele>402.5</ele>
        <time>2018-10-21T08:43:00Z</time>
      </trkpt>
      <trkpt lat="46.3519" lon="2.91024">
        <ele>402.4</ele>
        <time>2018-10-21T08:43:02Z</time>
      </trkpt>
      <trkpt lat="46.35183" lon="2.91023">
        <ele>402.9</ele>
        <time>2018-10-21T08:43:04Z</time>
      </trkpt>
      <trkpt lat="46.35177" lon="2.91023">
        <ele>403.2</ele>
        <time>2018-10-21T08:43:06Z</time>
      </trkpt>
      <trkpt lat="46.35171" lon="2.91022">
        <ele>403.1</ele>
        <time>2018-10-21T08:43:08Z</time>
      </trkpt>
      <trkpt lat="46.35164" lon="2.91022">
        <ele>404</ele>
        <time>2018-10-21T08:43:10Z</time>
      </trkpt>
      <trkpt lat="46.35158" lon="2.91022">
        <ele>404.4</ele>
        <time>2018-10-21T08:43:12Z</time>
      </trkpt>
      <trkpt lat="46.35149" lon="2.91022">
        <ele>404.8</ele>
        <time>2018-10-21T08:43:15Z</time>
      </trkpt>
      <trkpt lat="46.35142" lon="2.91023">
        <ele>404.6</ele>
        <time>2018-10-21T08:43:17Z</time>
      </trkpt>
      <trkpt lat="46.35135" lon="2.91024">
        <ele>404.8</ele>
        <time>2018-10-21T08:43:19Z</time>
      </trkpt>
      <trkpt lat="46.35129" lon="2.91025">
        <ele>405.1</ele>
        <time>2018-10-21T08:43:21Z</time>
      </trkpt>
      <trkpt lat="46.35122" lon="2.91027">
        <ele>404.8</ele>
        <time>2018-10-21T08:43:23Z</time>
      </trkpt>
      <trkpt lat="46.35115" lon="2.9103">
        <ele>404.8</ele>
        <time>2018-10-21T08:43:25Z</time>
      </trkpt>
      <trkpt lat="46.35108" lon="2.91033">
        <ele>405.2</ele>
        <time>2018-10-21T08:43:27Z</time>
      </trkpt>
      <trkpt lat="46.35102" lon="2.91036">
        <ele>405.5</ele>
        <time>2018-10-21T08:43:29Z</time>
      </trkpt>
      <trkpt lat="46.35098" lon="2.91038">
        <ele>405.3</ele>
        <time>2018-10-21T08:43:30Z</time>
      </trkpt>
      <trkpt lat="46.35089" lon="2.91043">
        <ele>405.1</ele>
        <time>2018-10-21T08:43:33Z</time>
      </trkpt>
      <trkpt lat="46.35083" lon="2.91047">
        <ele>405.3</ele>
        <time>2018-10-21T08:43:35Z</time>
      </trkpt>
      <trkpt lat="46.35077" lon="2.9105">
        <ele>406</ele>
        <time>2018-10-21T08:43:37Z</time>
      </trkpt>
      <trkpt lat="46.35069" lon="2.91055">
        <ele>407.1</ele>
        <time>2018-10-21T08:43:40Z</time>
      </trkpt>
      <trkpt lat="46.35063" lon="2.91058">
        <ele>407.1</ele>
        <time>2018-10-21T08:43:42Z</time>
      </trkpt>
      <trkpt lat="46.35058" lon="2.91062">
        <ele>406.9</ele>
        <time>2018-10-21T08:43:44Z</time>
      </trkpt>
      <trkpt lat="46.3505" lon="2.91067">
        <ele>407.1</ele>
        <time>2018-10-21T08:43:47Z</time>
      </trkpt>
      <trkpt lat="46.35041" lon="2.91071">
        <ele>406.1</ele>
        <time>2018-10-21T08:43:50Z</time>
      </trkpt>
      <trkpt lat="46.35035" lon="2.91076">
        <ele>406</ele>
        <time>2018-10-21T08:43:52Z</time>
      </trkpt>
      <trkpt lat="46.3503" lon="2.91084">
        <ele>406.3</ele>
        <time>2018-10-21T08:43:54Z</time>
      </trkpt>
      <trkpt lat="46.35026" lon="2.91093">
        <ele>406.3</ele>
        <time>2018-10-21T08:43:56Z</time>
      </trkpt>
      <trkpt lat="46.35021" lon="2.911">
        <ele>406.3</ele>
        <time>2018-10-21T08:43:58Z</time>
      </trkpt>
      <trkpt lat="46.35016" lon="2.91109">
        <ele>407.3</ele>
        <time>2018-10-21T08:44:00Z</time>
      </trkpt>
      <trkpt lat="46.3501" lon="2.91119">
        <ele>406.8</ele>
        <time>2018-10-21T08:44:02Z</time>
      </trkpt>
      <trkpt lat="46.35007" lon="2.91124">
        <ele>406.6</ele>
        <time>2018-10-21T08:44:03Z</time>
      </trkpt>
      <trkpt lat="46.35004" lon="2.91129">
        <ele>406.1</ele>
        <time>2018-10-21T08:44:04Z</time>
      </trkpt>
      <trkpt lat="46.35001" lon="2.91135">
        <ele>405.8</ele>
        <time>2018-10-21T08:44:05Z</time>
      </trkpt>
      <trkpt lat="46.34998" lon="2.9114">
        <ele>405.7</ele>
        <time>2018-10-21T08:44:06Z</time>
      </trkpt>
      <trkpt lat="46.34995" lon="2.91145">
        <ele>405.6</ele>
        <time>2018-10-21T08:44:07Z</time>
      </trkpt>
      <trkpt lat="46.34992" lon="2.91149">
        <ele>405.5</ele>
        <time>2018-10-21T08:44:08Z</time>
      </trkpt>
      <trkpt lat="46.34989" lon="2.91154">
        <ele>405.4</ele>
        <time>2018-10-21T08:44:09Z</time>
      </trkpt>
      <trkpt lat="46.34985" lon="2.91158">
        <ele>405.3</ele>
        <time>2018-10-21T08:44:10Z</time>
      </trkpt>
      <trkpt lat="46.34982" lon="2.91163">
        <ele>405.3</ele>
        <time>2018-10-21T08:44:11Z</time>
      </trkpt>
      <trkpt lat="46.34978" lon="2.91168">
        <ele>405.4</ele>
        <time>2018-10-21T08:44:12Z</time>
      </trkpt>
      <trkpt lat="46.34975" lon="2.91172">
        <ele>405.5</ele>
        <time>2018-10-21T08:44:13Z</time>
      </trkpt>
      <trkpt lat="46.34972" lon="2.91177">
        <ele>405.5</ele>
        <time>2018-10-21T08:44:14Z</time>
      </trkpt>
      <trkpt lat="46.34968" lon="2.91181">
        <ele>405.6</ele>
        <time>2018-10-21T08:44:15Z</time>
      </trkpt>
      <trkpt lat="46.34965" lon="2.91186">
        <ele>405.3</ele>
        <time>2018-10-21T08:44:16Z</time>
      </trkpt>
      <trkpt lat="46.34962" lon="2.9119">
        <ele>405.1</ele>
        <time>2018-10-21T08:44:17Z</time>
      </trkpt>
      <trkpt lat="46.34959" lon="2.91195">
        <ele>405.5</ele>
        <time>2018-10-21T08:44:18Z</time>
      </trkpt>
      <trkpt lat="46.34956" lon="2.912">
        <ele>405.8</ele>
        <time>2018-10-21T08:44:19Z</time>
      </trkpt>
      <trkpt lat="46.34952" lon="2.91205">
        <ele>405.4</ele>
        <time>2018-10-21T08:44:20Z</time>
      </trkpt>
      <trkpt lat="46.34949" lon="2.91209">
        <ele>405.2</ele>
        <time>2018-10-21T08:44:21Z</time>
      </trkpt>
      <trkpt lat="46.34944" lon="2.91212">
        <ele>405</ele>
        <time>2018-10-21T08:44:22Z</time>
      </trkpt>
      <trkpt lat="46.3494" lon="2.91212">
        <ele>404.4</ele>
        <time>2018-10-21T08:44:23Z</time>
      </trkpt>
      <trkpt lat="46.34935" lon="2.91211">
        <ele>404</ele>
        <time>2018-10-21T08:44:24Z</time>
      </trkpt>
      <trkpt lat="46.34927" lon="2.91208">
        <ele>404.6</ele>
        <time>2018-10-21T08:44:26Z</time>
      </trkpt>
      <trkpt lat="46.34918" lon="2.91206">
        <ele>404.5</ele>
        <time>2018-10-21T08:44:28Z</time>
      </trkpt>
      <trkpt lat="46.34909" lon="2.91203">
        <ele>404.6</ele>
        <time>2018-10-21T08:44:30Z</time>
      </trkpt>
      <trkpt lat="46.34905" lon="2.91202">
        <ele>404.8</ele>
        <time>2018-10-21T08:44:31Z</time>
      </trkpt>
      <trkpt lat="46.349" lon="2.912">
        <ele>404.4</ele>
        <time>2018-10-21T08:44:32Z</time>
      </trkpt>
      <trkpt lat="46.34892" lon="2.91197">
        <ele>404.3</ele>
        <time>2018-10-21T08:44:34Z</time>
      </trkpt>
      <trkpt lat="46.34887" lon="2.91196">
        <ele>404.5</ele>
        <time>2018-10-21T08:44:35Z</time>
      </trkpt>
      <trkpt lat="46.34883" lon="2.91194">
        <ele>404.6</ele>
        <time>2018-10-21T08:44:36Z</time>
      </trkpt>
      <trkpt lat="46.34878" lon="2.91193">
        <ele>404.8</ele>
        <time>2018-10-21T08:44:37Z</time>
      </trkpt>
      <trkpt lat="46.34873" lon="2.91191">
        <ele>404.9</ele>
        <time>2018-10-21T08:44:38Z</time>
      </trkpt>
      <trkpt lat="46.34869" lon="2.9119">
        <ele>404.8</ele>
        <time>2018-10-21T08:44:39Z</time>
      </trkpt>
      <trkpt lat="46.34864" lon="2.91188">
        <ele>404.7</ele>
        <time>2018-10-21T08:44:40Z</time>
      </trkpt>
      <trkpt lat="46.3486" lon="2.91187">
        <ele>404.6</ele>
        <time>2018-10-21T08:44:41Z</time>
      </trkpt>
      <trkpt lat="46.34855" lon="2.91185">
        <ele>404.3</ele>
        <time>2018-10-21T08:44:42Z</time>
      </trkpt>
      <trkpt lat="46.34851" lon="2.91183">
        <ele>404.1</ele>
        <time>2018-10-21T08:44:43Z</time>
      </trkpt>
      <trkpt lat="46.34846" lon="2.91182">
        <ele>404</ele>
        <time>2018-10-21T08:44:44Z</time>
      </trkpt>
      <trkpt lat="46.34841" lon="2.9118">
        <ele>403.8</ele>
        <time>2018-10-21T08:44:45Z</time>
      </trkpt>
      <trkpt lat="46.34833" lon="2.91178">
        <ele>403.5</ele>
        <time>2018-10-21T08:44:47Z</time>
      </trkpt>
      <trkpt lat="46.34824" lon="2.91175">
        <ele>403.6</ele>
        <time>2018-10-21T08:44:49Z</time>
      </trkpt>
      <trkpt lat="46.34816" lon="2.91172">
        <ele>403.9</ele>
        <time>2018-10-21T08:44:51Z</time>
      </trkpt>
      <trkpt lat="46.34807" lon="2.91169">
        <ele>404.1</ele>
        <time>2018-10-21T08:44:53Z</time>
      </trkpt>
      <trkpt lat="46.34799" lon="2.91167">
        <ele>404.2</ele>
        <time>2018-10-21T08:44:55Z</time>
      </trkpt>
      <trkpt lat="46.34791" lon="2.91164">
        <ele>404</ele>
        <time>2018-10-21T08:44:57Z</time>
      </trkpt>
      <trkpt lat="46.3479" lon="2.91152">
        <ele>404</ele>
        <time>2018-10-21T08:45:03Z</time>
      </trkpt>
      <trkpt lat="46.34796" lon="2.91142">
        <ele>404.4</ele>
        <time>2018-10-21T08:45:07Z</time>
      </trkpt>
      <trkpt lat="46.34801" lon="2.91137">
        <ele>403.9</ele>
        <time>2018-10-21T08:45:09Z</time>
      </trkpt>
      <trkpt lat="46.34805" lon="2.91129">
        <ele>404.1</ele>
        <time>2018-10-21T08:45:11Z</time>
      </trkpt>
      <trkpt lat="46.34804" lon="2.91117">
        <ele>404.3</ele>
        <time>2018-10-21T08:45:13Z</time>
      </trkpt>
      <trkpt lat="46.348" lon="2.91106">
        <ele>404.3</ele>
        <time>2018-10-21T08:45:15Z</time>
      </trkpt>
      <trkpt lat="46.34796" lon="2.91095">
        <ele>404.1</ele>
        <time>2018-10-21T08:45:17Z</time>
      </trkpt>
      <trkpt lat="46.34792" lon="2.91084">
        <ele>403.9</ele>
        <time>2018-10-21T08:45:19Z</time>
      </trkpt>
      <trkpt lat="46.34788" lon="2.91073">
        <ele>403.8</ele>
        <time>2018-10-21T08:45:21Z</time>
      </trkpt>
      <trkpt lat="46.34783" lon="2.91062">
        <ele>404</ele>
        <time>2018-10-21T08:45:23Z</time>
      </trkpt>
      <trkpt lat="46.34781" lon="2.91056">
        <ele>404.1</ele>
        <time>2018-10-21T08:45:24Z</time>
      </trkpt>
      <trkpt lat="46.34779" lon="2.9105">
        <ele>403.9</ele>
        <time>2018-10-21T08:45:25Z</time>
      </trkpt>
      <trkpt lat="46.34777" lon="2.91044">
        <ele>403.7</ele>
        <time>2018-10-21T08:45:26Z</time>
      </trkpt>
      <trkpt lat="46.34774" lon="2.91039">
        <ele>404.2</ele>
        <time>2018-10-21T08:45:27Z</time>
      </trkpt>
      <trkpt lat="46.34772" lon="2.91033">
        <ele>404.6</ele>
        <time>2018-10-21T08:45:28Z</time>
      </trkpt>
      <trkpt lat="46.3477" lon="2.91027">
        <ele>404.2</ele>
        <time>2018-10-21T08:45:29Z</time>
      </trkpt>
      <trkpt lat="46.34767" lon="2.91021">
        <ele>403.9</ele>
        <time>2018-10-21T08:45:30Z</time>
      </trkpt>
      <trkpt lat="46.34765" lon="2.91015">
        <ele>403.7</ele>
        <time>2018-10-21T08:45:31Z</time>
      </trkpt>
      <trkpt lat="46.34763" lon="2.91009">
        <ele>403.8</ele>
        <time>2018-10-21T08:45:32Z</time>
      </trkpt>
      <trkpt lat="46.34761" lon="2.91003">
        <ele>404</ele>
        <time>2018-10-21T08:45:33Z</time>
      </trkpt>
      <trkpt lat="46.34759" lon="2.90997">
        <ele>404.2</ele>
        <time>2018-10-21T08:45:34Z</time>
      </trkpt>
      <trkpt lat="46.34757" lon="2.9099">
        <ele>404.4</ele>
        <time>2018-10-21T08:45:35Z</time>
      </trkpt>
      <trkpt lat="46.34755" lon="2.90984">
        <ele>404.2</ele>
        <time>2018-10-21T08:45:36Z</time>
      </trkpt>
      <trkpt lat="46.34753" lon="2.90977">
        <ele>404.1</ele>
        <time>2018-10-21T08:45:37Z</time>
      </trkpt>
      <trkpt lat="46.34752" lon="2.90971">
        <ele>404</ele>
        <time>2018-10-21T08:45:38Z</time>
      </trkpt>
      <trkpt lat="46.34751" lon="2.90964">
        <ele>403.9</ele>
        <time>2018-10-21T08:45:39Z</time>
      </trkpt>
      <trkpt lat="46.34749" lon="2.90957">
        <ele>403.9</ele>
        <time>2018-10-21T08:45:40Z</time>
      </trkpt>
      <trkpt lat="46.34748" lon="2.90951">
        <ele>403.9</ele>
        <time>2018-10-21T08:45:41Z</time>
      </trkpt>
      <trkpt lat="46.34747" lon="2.90944">
        <ele>403.9</ele>
        <time>2018-10-21T08:45:42Z</time>
      </trkpt>
      <trkpt lat="46.34746" lon="2.90937">
        <ele>403.9</ele>
        <time>2018-10-21T08:45:43Z</time>
      </trkpt>
      <trkpt lat="46.34745" lon="2.9093">
        <ele>403.7</ele>
        <time>2018-10-21T08:45:44Z</time>
      </trkpt>
      <trkpt lat="46.34744" lon="2.90923">
        <ele>403.5</ele>
        <time>2018-10-21T08:45:45Z</time>
      </trkpt>
      <trkpt lat="46.34743" lon="2.90916">
        <ele>403.4</ele>
        <time>2018-10-21T08:45:46Z</time>
      </trkpt>
      <trkpt lat="46.34742" lon="2.90909">
        <ele>403.3</ele>
        <time>2018-10-21T08:45:47Z</time>
      </trkpt>
      <trkpt lat="46.34741" lon="2.90902">
        <ele>403.2</ele>
        <time>2018-10-21T08:45:48Z</time>
      </trkpt>
      <trkpt lat="46.3474" lon="2.90895">
        <ele>403</ele>
        <time>2018-10-21T08:45:49Z</time>
      </trkpt>
      <trkpt lat="46.34739" lon="2.90888">
        <ele>402.9</ele>
        <time>2018-10-21T08:45:50Z</time>
      </trkpt>
      <trkpt lat="46.34738" lon="2.90881">
        <ele>402.7</ele>
        <time>2018-10-21T08:45:51Z</time>
      </trkpt>
      <trkpt lat="46.34737" lon="2.90874">
        <ele>402.5</ele>
        <time>2018-10-21T08:45:52Z</time>
      </trkpt>
      <trkpt lat="46.34736" lon="2.90867">
        <ele>402.8</ele>
        <time>2018-10-21T08:45:53Z</time>
      </trkpt>
      <trkpt lat="46.34735" lon="2.9086">
        <ele>403.1</ele>
        <time>2018-10-21T08:45:54Z</time>
      </trkpt>
      <trkpt lat="46.34734" lon="2.90853">
        <ele>403.3</ele>
        <time>2018-10-21T08:45:55Z</time>
      </trkpt>
      <trkpt lat="46.34733" lon="2.90846">
        <ele>403.3</ele>
        <time>2018-10-21T08:45:56Z</time>
      </trkpt>
      <trkpt lat="46.34732" lon="2.90839">
        <ele>403.3</ele>
        <time>2018-10-21T08:45:57Z</time>
      </trkpt>
      <trkpt lat="46.34731" lon="2.90832">
        <ele>403.3</ele>
        <time>2018-10-21T08:45:58Z</time>
      </trkpt>
      <trkpt lat="46.3473" lon="2.90825">
        <ele>403.3</ele>
        <time>2018-10-21T08:45:59Z</time>
      </trkpt>
      <trkpt lat="46.34729" lon="2.90819">
        <ele>403.3</ele>
        <time>2018-10-21T08:46:00Z</time>
      </trkpt>
      <trkpt lat="46.34728" lon="2.90812">
        <ele>403.3</ele>
        <time>2018-10-21T08:46:01Z</time>
      </trkpt>
      <trkpt lat="46.34726" lon="2.90805">
        <ele>403.3</ele>
        <time>2018-10-21T08:46:02Z</time>
      </trkpt>
      <trkpt lat="46.34725" lon="2.90798">
        <ele>402.8</ele>
        <time>2018-10-21T08:46:03Z</time>
      </trkpt>
      <trkpt lat="46.34724" lon="2.90791">
        <ele>402.5</ele>
        <time>2018-10-21T08:46:04Z</time>
      </trkpt>
      <trkpt lat="46.34723" lon="2.90784">
        <ele>402.7</ele>
        <time>2018-10-21T08:46:05Z</time>
      </trkpt>
      <trkpt lat="46.34722" lon="2.90777">
        <ele>402.9</ele>
        <time>2018-10-21T08:46:06Z</time>
      </trkpt>
      <trkpt lat="46.3472" lon="2.9077">
        <ele>402.5</ele>
        <time>2018-10-21T08:46:07Z</time>
      </trkpt>
      <trkpt lat="46.34719" lon="2.90763">
        <ele>402.1</ele>
        <time>2018-10-21T08:46:08Z</time>
      </trkpt>
      <trkpt lat="46.34717" lon="2.90756">
        <ele>401.9</ele>
        <time>2018-10-21T08:46:09Z</time>
      </trkpt>
      <trkpt lat="46.34716" lon="2.90749">
        <ele>401.9</ele>
        <time>2018-10-21T08:46:10Z</time>
      </trkpt>
      <trkpt lat="46.34714" lon="2.90742">
        <ele>402</ele>
        <time>2018-10-21T08:46:11Z</time>
      </trkpt>
      <trkpt lat="46.34712" lon="2.90736">
        <ele>402.1</ele>
        <time>2018-10-21T08:46:12Z</time>
      </trkpt>
      <trkpt lat="46.3471" lon="2.90729">
        <ele>402.2</ele>
        <time>2018-10-21T08:46:13Z</time>
      </trkpt>
      <trkpt lat="46.34708" lon="2.90723">
        <ele>402.3</ele>
        <time>2018-10-21T08:46:14Z</time>
      </trkpt>
      <trkpt lat="46.34706" lon="2.90716">
        <ele>402.3</ele>
        <time>2018-10-21T08:46:15Z</time>
      </trkpt>
      <trkpt lat="46.34704" lon="2.90709">
        <ele>402.3</ele>
        <time>2018-10-21T08:46:16Z</time>
      </trkpt>
      <trkpt lat="46.34702" lon="2.90703">
        <ele>402.1</ele>
        <time>2018-10-21T08:46:17Z</time>
      </trkpt>
      <trkpt lat="46.347" lon="2.90696">
        <ele>401.9</ele>
        <time>2018-10-21T08:46:18Z</time>
      </trkpt>
      <trkpt lat="46.34697" lon="2.90689">
        <ele>401.8</ele>
        <time>2018-10-21T08:46:19Z</time>
      </trkpt>
      <trkpt lat="46.34695" lon="2.90683">
        <ele>401.8</ele>
        <time>2018-10-21T08:46:20Z</time>
      </trkpt>
      <trkpt lat="46.34692" lon="2.90676">
        <ele>401.8</ele>
        <time>2018-10-21T08:46:21Z</time>
      </trkpt>
      <trkpt lat="46.34683" lon="2.9065">
        <ele>402</ele>
        <time>2018-10-21T08:46:24Z</time>
      </trkpt>
      <trkpt lat="46.3468" lon="2.9064">
        <ele>402</ele>
        <time>2018-10-21T08:46:26Z</time>
      </trkpt>
      <trkpt lat="46.34677" lon="2.90633">
        <ele>402</ele>
        <time>2018-10-21T08:46:27Z</time>
      </trkpt>
      <trkpt lat="46.34674" lon="2.90627">
        <ele>402</ele>
        <time>2018-10-21T08:46:28Z</time>
      </trkpt>
      <trkpt lat="46.34672" lon="2.9062">
        <ele>401.9</ele>
        <time>2018-10-21T08:46:29Z</time>
      </trkpt>
      <trkpt lat="46.34669" lon="2.90613">
        <ele>401.9</ele>
        <time>2018-10-21T08:46:30Z</time>
      </trkpt>
      <trkpt lat="46.34666" lon="2.90605">
        <ele>401.6</ele>
        <time>2018-10-21T08:46:31Z</time>
      </trkpt>
      <trkpt lat="46.34663" lon="2.90598">
        <ele>401.4</ele>
        <time>2018-10-21T08:46:32Z</time>
      </trkpt>
      <trkpt lat="46.3466" lon="2.90591">
        <ele>401.2</ele>
        <time>2018-10-21T08:46:33Z</time>
      </trkpt>
      <trkpt lat="46.34657" lon="2.90584">
        <ele>401.2</ele>
        <time>2018-10-21T08:46:34Z</time>
      </trkpt>
      <trkpt lat="46.34654" lon="2.90576">
        <ele>401.2</ele>
        <time>2018-10-21T08:46:35Z</time>
      </trkpt>
      <trkpt lat="46.34652" lon="2.90569">
        <ele>400.8</ele>
        <time>2018-10-21T08:46:36Z</time>
      </trkpt>
      <trkpt lat="46.34649" lon="2.90562">
        <ele>400.5</ele>
        <time>2018-10-21T08:46:37Z</time>
      </trkpt>
      <trkpt lat="46.34647" lon="2.90554">
        <ele>400.5</ele>
        <time>2018-10-21T08:46:38Z</time>
      </trkpt>
      <trkpt lat="46.34644" lon="2.90546">
        <ele>400.4</ele>
        <time>2018-10-21T08:46:39Z</time>
      </trkpt>
      <trkpt lat="46.34642" lon="2.90538">
        <ele>400.4</ele>
        <time>2018-10-21T08:46:40Z</time>
      </trkpt>
      <trkpt lat="46.3464" lon="2.9053">
        <ele>400.2</ele>
        <time>2018-10-21T08:46:41Z</time>
      </trkpt>
      <trkpt lat="46.34638" lon="2.90522">
        <ele>400.1</ele>
        <time>2018-10-21T08:46:42Z</time>
      </trkpt>
      <trkpt lat="46.34637" lon="2.90514">
        <ele>399.6</ele>
        <time>2018-10-21T08:46:43Z</time>
      </trkpt>
      <trkpt lat="46.34635" lon="2.90505">
        <ele>399.3</ele>
        <time>2018-10-21T08:46:44Z</time>
      </trkpt>
      <trkpt lat="46.34633" lon="2.90497">
        <ele>399.1</ele>
        <time>2018-10-21T08:46:45Z</time>
      </trkpt>
      <trkpt lat="46.34631" lon="2.90488">
        <ele>398.6</ele>
        <time>2018-10-21T08:46:46Z</time>
      </trkpt>
      <trkpt lat="46.3463" lon="2.90479">
        <ele>398.2</ele>
        <time>2018-10-21T08:46:47Z</time>
      </trkpt>
      <trkpt lat="46.34628" lon="2.9047">
        <ele>398.2</ele>
        <time>2018-10-21T08:46:48Z</time>
      </trkpt>
      <trkpt lat="46.34626" lon="2.9046">
        <ele>398.1</ele>
        <time>2018-10-21T08:46:49Z</time>
      </trkpt>
      <trkpt lat="46.34624" lon="2.90451">
        <ele>397.7</ele>
        <time>2018-10-21T08:46:50Z</time>
      </trkpt>
      <trkpt lat="46.34622" lon="2.90442">
        <ele>397.4</ele>
        <time>2018-10-21T08:46:51Z</time>
      </trkpt>
      <trkpt lat="46.3462" lon="2.90432">
        <ele>397.1</ele>
        <time>2018-10-21T08:46:52Z</time>
      </trkpt>
      <trkpt lat="46.34618" lon="2.90423">
        <ele>397</ele>
        <time>2018-10-21T08:46:53Z</time>
      </trkpt>
      <trkpt lat="46.34615" lon="2.90414">
        <ele>397</ele>
        <time>2018-10-21T08:46:54Z</time>
      </trkpt>
      <trkpt lat="46.34613" lon="2.90404">
        <ele>396.8</ele>
        <time>2018-10-21T08:46:55Z</time>
      </trkpt>
      <trkpt lat="46.3461" lon="2.90396">
        <ele>396.7</ele>
        <time>2018-10-21T08:46:56Z</time>
      </trkpt>
      <trkpt lat="46.34606" lon="2.90387">
        <ele>396</ele>
        <time>2018-10-21T08:46:57Z</time>
      </trkpt>
      <trkpt lat="46.34603" lon="2.90378">
        <ele>395.6</ele>
        <time>2018-10-21T08:46:58Z</time>
      </trkpt>
      <trkpt lat="46.34599" lon="2.9037">
        <ele>395.2</ele>
        <time>2018-10-21T08:46:59Z</time>
      </trkpt>
      <trkpt lat="46.34594" lon="2.90362">
        <ele>395.3</ele>
        <time>2018-10-21T08:47:00Z</time>
      </trkpt>
      <trkpt lat="46.3459" lon="2.90355">
        <ele>395.4</ele>
        <time>2018-10-21T08:47:01Z</time>
      </trkpt>
      <trkpt lat="46.34585" lon="2.90347">
        <ele>395</ele>
        <time>2018-10-21T08:47:02Z</time>
      </trkpt>
      <trkpt lat="46.3458" lon="2.9034">
        <ele>394.7</ele>
        <time>2018-10-21T08:47:03Z</time>
      </trkpt>
      <trkpt lat="46.34575" lon="2.90333">
        <ele>394.5</ele>
        <time>2018-10-21T08:47:04Z</time>
      </trkpt>
      <trkpt lat="46.3457" lon="2.90326">
        <ele>394.4</ele>
        <time>2018-10-21T08:47:05Z</time>
      </trkpt>
      <trkpt lat="46.34565" lon="2.90318">
        <ele>394.4</ele>
        <time>2018-10-21T08:47:06Z</time>
      </trkpt>
      <trkpt lat="46.34561" lon="2.9031">
        <ele>394.3</ele>
        <time>2018-10-21T08:47:07Z</time>
      </trkpt>
      <trkpt lat="46.34556" lon="2.90302">
        <ele>394.2</ele>
        <time>2018-10-21T08:47:08Z</time>
      </trkpt>
      <trkpt lat="46.34552" lon="2.90293">
        <ele>393.8</ele>
        <time>2018-10-21T08:47:09Z</time>
      </trkpt>
      <trkpt lat="46.34548" lon="2.90285">
        <ele>393.5</ele>
        <time>2018-10-21T08:47:10Z</time>
      </trkpt>
      <trkpt lat="46.34544" lon="2.90276">
        <ele>393.3</ele>
        <time>2018-10-21T08:47:11Z</time>
      </trkpt>
      <trkpt lat="46.34541" lon="2.90266">
        <ele>392.9</ele>
        <time>2018-10-21T08:47:12Z</time>
      </trkpt>
      <trkpt lat="46.34537" lon="2.90257">
        <ele>392.7</ele>
        <time>2018-10-21T08:47:13Z</time>
      </trkpt>
      <trkpt lat="46.34534" lon="2.90247">
        <ele>392.2</ele>
        <time>2018-10-21T08:47:14Z</time>
      </trkpt>
      <trkpt lat="46.3453" lon="2.90237">
        <ele>391.8</ele>
        <time>2018-10-21T08:47:15Z</time>
      </trkpt>
      <trkpt lat="46.34526" lon="2.90228">
        <ele>391.2</ele>
        <time>2018-10-21T08:47:16Z</time>
      </trkpt>
      <trkpt lat="46.34523" lon="2.90218">
        <ele>390.8</ele>
        <time>2018-10-21T08:47:17Z</time>
      </trkpt>
      <trkpt lat="46.34519" lon="2.90208">
        <ele>390.5</ele>
        <time>2018-10-21T08:47:18Z</time>
      </trkpt>
      <trkpt lat="46.34515" lon="2.90198">
        <ele>389.8</ele>
        <time>2018-10-21T08:47:19Z</time>
      </trkpt>
      <trkpt lat="46.34511" lon="2.90188">
        <ele>389.3</ele>
        <time>2018-10-21T08:47:20Z</time>
      </trkpt>
      <trkpt lat="46.34507" lon="2.90177">
        <ele>388.8</ele>
        <time>2018-10-21T08:47:21Z</time>
      </trkpt>
      <trkpt lat="46.34503" lon="2.90167">
        <ele>388.5</ele>
        <time>2018-10-21T08:47:22Z</time>
      </trkpt>
      <trkpt lat="46.34499" lon="2.90157">
        <ele>388.3</ele>
        <time>2018-10-21T08:47:23Z</time>
      </trkpt>
      <trkpt lat="46.34495" lon="2.90148">
        <ele>388</ele>
        <time>2018-10-21T08:47:24Z</time>
      </trkpt>
      <trkpt lat="46.34491" lon="2.90138">
        <ele>387.8</ele>
        <time>2018-10-21T08:47:25Z</time>
      </trkpt>
      <trkpt lat="46.34487" lon="2.90128">
        <ele>387.5</ele>
        <time>2018-10-21T08:47:26Z</time>
      </trkpt>
      <trkpt lat="46.34483" lon="2.90118">
        <ele>387.3</ele>
        <time>2018-10-21T08:47:27Z</time>
      </trkpt>
      <trkpt lat="46.34479" lon="2.90109">
        <ele>386.9</ele>
        <time>2018-10-21T08:47:28Z</time>
      </trkpt>
      <trkpt lat="46.34475" lon="2.90099">
        <ele>386.6</ele>
        <time>2018-10-21T08:47:29Z</time>
      </trkpt>
      <trkpt lat="46.34472" lon="2.9009">
        <ele>386.4</ele>
        <time>2018-10-21T08:47:30Z</time>
      </trkpt>
      <trkpt lat="46.34468" lon="2.9008">
        <ele>385.7</ele>
        <time>2018-10-21T08:47:31Z</time>
      </trkpt>
      <trkpt lat="46.34464" lon="2.90071">
        <ele>385.2</ele>
        <time>2018-10-21T08:47:32Z</time>
      </trkpt>
      <trkpt lat="46.34461" lon="2.90062">
        <ele>384.9</ele>
        <time>2018-10-21T08:47:33Z</time>
      </trkpt>
      <trkpt lat="46.34457" lon="2.90052">
        <ele>384.7</ele>
        <time>2018-10-21T08:47:34Z</time>
      </trkpt>
      <trkpt lat="46.34454" lon="2.90043">
        <ele>384.5</ele>
        <time>2018-10-21T08:47:35Z</time>
      </trkpt>
      <trkpt lat="46.3445" lon="2.90034">
        <ele>384.6</ele>
        <time>2018-10-21T08:47:36Z</time>
      </trkpt>
      <trkpt lat="46.34447" lon="2.90025">
        <ele>384.6</ele>
        <time>2018-10-21T08:47:37Z</time>
      </trkpt>
      <trkpt lat="46.34444" lon="2.90016">
        <ele>384.6</ele>
        <time>2018-10-21T08:47:38Z</time>
      </trkpt>
      <trkpt lat="46.3444" lon="2.90007">
        <ele>384.5</ele>
        <time>2018-10-21T08:47:39Z</time>
      </trkpt>
      <trkpt lat="46.34436" lon="2.89998">
        <ele>384.5</ele>
        <time>2018-10-21T08:47:40Z</time>
      </trkpt>
      <trkpt lat="46.34432" lon="2.89989">
        <ele>384.5</ele>
        <time>2018-10-21T08:47:41Z</time>
      </trkpt>
      <trkpt lat="46.34427" lon="2.8998">
        <ele>384.5</ele>
        <time>2018-10-21T08:47:42Z</time>
      </trkpt>
      <trkpt lat="46.34422" lon="2.89971">
        <ele>384</ele>
        <time>2018-10-21T08:47:43Z</time>
      </trkpt>
      <trkpt lat="46.34417" lon="2.89963">
        <ele>383.6</ele>
        <time>2018-10-21T08:47:44Z</time>
      </trkpt>
      <trkpt lat="46.34412" lon="2.89954">
        <ele>383</ele>
        <time>2018-10-21T08:47:45Z</time>
      </trkpt>
      <trkpt lat="46.34408" lon="2.89945">
        <ele>382.6</ele>
        <time>2018-10-21T08:47:46Z</time>
      </trkpt>
      <trkpt lat="46.34403" lon="2.89936">
        <ele>382.3</ele>
        <time>2018-10-21T08:47:47Z</time>
      </trkpt>
      <trkpt lat="46.34399" lon="2.89928">
        <ele>382.1</ele>
        <time>2018-10-21T08:47:48Z</time>
      </trkpt>
      <trkpt lat="46.34394" lon="2.89919">
        <ele>381.9</ele>
        <time>2018-10-21T08:47:49Z</time>
      </trkpt>
      <trkpt lat="46.3439" lon="2.89911">
        <ele>381.7</ele>
        <time>2018-10-21T08:47:50Z</time>
      </trkpt>
      <trkpt lat="46.34386" lon="2.89902">
        <ele>381.5</ele>
        <time>2018-10-21T08:47:51Z</time>
      </trkpt>
      <trkpt lat="46.34381" lon="2.89894">
        <ele>381.3</ele>
        <time>2018-10-21T08:47:52Z</time>
      </trkpt>
      <trkpt lat="46.34378" lon="2.89886">
        <ele>381.1</ele>
        <time>2018-10-21T08:47:53Z</time>
      </trkpt>
      <trkpt lat="46.34376" lon="2.89878">
        <ele>380.9</ele>
        <time>2018-10-21T08:47:54Z</time>
      </trkpt>
      <trkpt lat="46.34376" lon="2.8987">
        <ele>380.6</ele>
        <time>2018-10-21T08:47:55Z</time>
      </trkpt>
      <trkpt lat="46.34379" lon="2.89864">
        <ele>380.3</ele>
        <time>2018-10-21T08:47:56Z</time>
      </trkpt>
      <trkpt lat="46.34384" lon="2.8986">
        <ele>379.8</ele>
        <time>2018-10-21T08:47:57Z</time>
      </trkpt>
      <trkpt lat="46.34389" lon="2.89859">
        <ele>379.4</ele>
        <time>2018-10-21T08:47:58Z</time>
      </trkpt>
      <trkpt lat="46.34397" lon="2.89856">
        <ele>379.2</ele>
        <time>2018-10-21T08:48:00Z</time>
      </trkpt>
      <trkpt lat="46.34406" lon="2.89852">
        <ele>378.9</ele>
        <time>2018-10-21T08:48:03Z</time>
      </trkpt>
      <trkpt lat="46.34412" lon="2.8985">
        <ele>378.3</ele>
        <time>2018-10-21T08:48:05Z</time>
      </trkpt>
      <trkpt lat="46.34418" lon="2.89847">
        <ele>378.1</ele>
        <time>2018-10-21T08:48:07Z</time>
      </trkpt>
      <trkpt lat="46.34425" lon="2.89843">
        <ele>378.1</ele>
        <time>2018-10-21T08:48:09Z</time>
      </trkpt>
      <trkpt lat="46.34434" lon="2.89838">
        <ele>378</ele>
        <time>2018-10-21T08:48:11Z</time>
      </trkpt>
      <trkpt lat="46.34438" lon="2.89836">
        <ele>378</ele>
        <time>2018-10-21T08:48:12Z</time>
      </trkpt>
      <trkpt lat="46.34443" lon="2.89834">
        <ele>378.1</ele>
        <time>2018-10-21T08:48:13Z</time>
      </trkpt>
      <trkpt lat="46.34447" lon="2.89832">
        <ele>378.1</ele>
        <time>2018-10-21T08:48:14Z</time>
      </trkpt>
      <trkpt lat="46.34452" lon="2.8983">
        <ele>378.1</ele>
        <time>2018-10-21T08:48:15Z</time>
      </trkpt>
      <trkpt lat="46.34457" lon="2.8983">
        <ele>377.5</ele>
        <time>2018-10-21T08:48:16Z</time>
      </trkpt>
      <trkpt lat="46.34462" lon="2.8983">
        <ele>377.1</ele>
        <time>2018-10-21T08:48:17Z</time>
      </trkpt>
      <trkpt lat="46.34467" lon="2.89831">
        <ele>377</ele>
        <time>2018-10-21T08:48:18Z</time>
      </trkpt>
      <trkpt lat="46.34472" lon="2.89832">
        <ele>376.9</ele>
        <time>2018-10-21T08:48:19Z</time>
      </trkpt>
      <trkpt lat="46.34478" lon="2.89834">
        <ele>376.9</ele>
        <time>2018-10-21T08:48:20Z</time>
      </trkpt>
      <trkpt lat="46.34484" lon="2.89836">
        <ele>376.6</ele>
        <time>2018-10-21T08:48:21Z</time>
      </trkpt>
      <trkpt lat="46.34489" lon="2.89838">
        <ele>376.4</ele>
        <time>2018-10-21T08:48:22Z</time>
      </trkpt>
      <trkpt lat="46.34495" lon="2.8984">
        <ele>376.3</ele>
        <time>2018-10-21T08:48:23Z</time>
      </trkpt>
      <trkpt lat="46.34501" lon="2.89843">
        <ele>376.3</ele>
        <time>2018-10-21T08:48:24Z</time>
      </trkpt>
      <trkpt lat="46.34508" lon="2.89846">
        <ele>376.3</ele>
        <time>2018-10-21T08:48:25Z</time>
      </trkpt>
      <trkpt lat="46.34514" lon="2.89849">
        <ele>375.9</ele>
        <time>2018-10-21T08:48:26Z</time>
      </trkpt>
      <trkpt lat="46.3452" lon="2.89852">
        <ele>375.6</ele>
        <time>2018-10-21T08:48:27Z</time>
      </trkpt>
      <trkpt lat="46.34527" lon="2.89856">
        <ele>375.2</ele>
        <time>2018-10-21T08:48:28Z</time>
      </trkpt>
      <trkpt lat="46.34533" lon="2.89859">
        <ele>374.9</ele>
        <time>2018-10-21T08:48:29Z</time>
      </trkpt>
      <trkpt lat="46.3454" lon="2.89863">
        <ele>374.7</ele>
        <time>2018-10-21T08:48:30Z</time>
      </trkpt>
      <trkpt lat="46.34546" lon="2.89867">
        <ele>374.5</ele>
        <time>2018-10-21T08:48:31Z</time>
      </trkpt>
      <trkpt lat="46.34553" lon="2.89871">
        <ele>374.4</ele>
        <time>2018-10-21T08:48:32Z</time>
      </trkpt>
      <trkpt lat="46.34559" lon="2.89875">
        <ele>374</ele>
        <time>2018-10-21T08:48:33Z</time>
      </trkpt>
      <trkpt lat="46.34565" lon="2.89879">
        <ele>373.8</ele>
        <time>2018-10-21T08:48:34Z</time>
      </trkpt>
      <trkpt lat="46.34571" lon="2.89883">
        <ele>373.4</ele>
        <time>2018-10-21T08:48:35Z</time>
      </trkpt>
      <trkpt lat="46.34578" lon="2.89886">
        <ele>373.2</ele>
        <time>2018-10-21T08:48:36Z</time>
      </trkpt>
      <trkpt lat="46.34584" lon="2.89887">
        <ele>372.7</ele>
        <time>2018-10-21T08:48:37Z</time>
      </trkpt>
      <trkpt lat="46.34591" lon="2.89886">
        <ele>372.3</ele>
        <time>2018-10-21T08:48:38Z</time>
      </trkpt>
      <trkpt lat="46.34597" lon="2.89882">
        <ele>372</ele>
        <time>2018-10-21T08:48:39Z</time>
      </trkpt>
      <trkpt lat="46.34602" lon="2.89879">
        <ele>371.8</ele>
        <time>2018-10-21T08:48:40Z</time>
      </trkpt>
      <trkpt lat="46.34607" lon="2.89875">
        <ele>371.7</ele>
        <time>2018-10-21T08:48:41Z</time>
      </trkpt>
      <trkpt lat="46.34611" lon="2.89872">
        <ele>372.2</ele>
        <time>2018-10-21T08:48:42Z</time>
      </trkpt>
      <trkpt lat="46.34616" lon="2.89868">
        <ele>372.6</ele>
        <time>2018-10-21T08:48:43Z</time>
      </trkpt>
      <trkpt lat="46.3462" lon="2.89865">
        <ele>372.9</ele>
        <time>2018-10-21T08:48:44Z</time>
      </trkpt>
      <trkpt lat="46.34628" lon="2.89858">
        <ele>372.6</ele>
        <time>2018-10-21T08:48:46Z</time>
      </trkpt>
      <trkpt lat="46.34635" lon="2.89852">
        <ele>372.4</ele>
        <time>2018-10-21T08:48:48Z</time>
      </trkpt>
      <trkpt lat="46.34642" lon="2.89846">
        <ele>373</ele>
        <time>2018-10-21T08:48:50Z</time>
      </trkpt>
      <trkpt lat="46.34648" lon="2.8984">
        <ele>373.4</ele>
        <time>2018-10-21T08:48:52Z</time>
      </trkpt>
      <trkpt lat="46.34654" lon="2.89835">
        <ele>373.6</ele>
        <time>2018-10-21T08:48:54Z</time>
      </trkpt>
      <trkpt lat="46.34659" lon="2.8983">
        <ele>374</ele>
        <time>2018-10-21T08:48:56Z</time>
      </trkpt>
      <trkpt lat="46.34665" lon="2.89825">
        <ele>374.5</ele>
        <time>2018-10-21T08:48:58Z</time>
      </trkpt>
      <trkpt lat="46.34672" lon="2.89819">
        <ele>375.3</ele>
        <time>2018-10-21T08:49:01Z</time>
      </trkpt>
      <trkpt lat="46.34679" lon="2.89812">
        <ele>375.8</ele>
        <time>2018-10-21T08:49:04Z</time>
      </trkpt>
      <trkpt lat="46.34686" lon="2.89806">
        <ele>376.7</ele>
        <time>2018-10-21T08:49:07Z</time>
      </trkpt>
      <trkpt lat="46.34693" lon="2.89799">
        <ele>377</ele>
        <time>2018-10-21T08:49:10Z</time>
      </trkpt>
      <trkpt lat="46.347" lon="2.89793">
        <ele>378</ele>
        <time>2018-10-21T08:49:13Z</time>
      </trkpt>
      <trkpt lat="46.34707" lon="2.89787">
        <ele>378.9</ele>
        <time>2018-10-21T08:49:16Z</time>
      </trkpt>
      <trkpt lat="46.34713" lon="2.89781">
        <ele>379.9</ele>
        <time>2018-10-21T08:49:19Z</time>
      </trkpt>
      <trkpt lat="46.34719" lon="2.89775">
        <ele>380.6</ele>
        <time>2018-10-21T08:49:22Z</time>
      </trkpt>
      <trkpt lat="46.34725" lon="2.89769">
        <ele>382.3</ele>
        <time>2018-10-21T08:49:25Z</time>
      </trkpt>
      <trkpt lat="46.34732" lon="2.89764">
        <ele>382.7</ele>
        <time>2018-10-21T08:49:28Z</time>
      </trkpt>
      <trkpt lat="46.34738" lon="2.89759">
        <ele>383.6</ele>
        <time>2018-10-21T08:49:31Z</time>
      </trkpt>
      <trkpt lat="46.34744" lon="2.89754">
        <ele>385.2</ele>
        <time>2018-10-21T08:49:34Z</time>
      </trkpt>
      <trkpt lat="46.34751" lon="2.8975">
        <ele>386.6</ele>
        <time>2018-10-21T08:49:37Z</time>
      </trkpt>
      <trkpt lat="46.34758" lon="2.89747">
        <ele>387.5</ele>
        <time>2018-10-21T08:49:40Z</time>
      </trkpt>
      <trkpt lat="46.34761" lon="2.89746">
        <ele>387.6</ele>
        <time>2018-10-21T08:49:41Z</time>
      </trkpt>
      <trkpt lat="46.34774" lon="2.89739">
        <ele>389.2</ele>
        <time>2018-10-21T08:49:46Z</time>
      </trkpt>
      <trkpt lat="46.34779" lon="2.89737">
        <ele>388.9</ele>
        <time>2018-10-21T08:49:48Z</time>
      </trkpt>
      <trkpt lat="46.34786" lon="2.89734">
        <ele>389</ele>
        <time>2018-10-21T08:49:50Z</time>
      </trkpt>
      <trkpt lat="46.34793" lon="2.89731">
        <ele>389.4</ele>
        <time>2018-10-21T08:49:52Z</time>
      </trkpt>
      <trkpt lat="46.34801" lon="2.89727">
        <ele>389.4</ele>
        <time>2018-10-21T08:49:54Z</time>
      </trkpt>
      <trkpt lat="46.34809" lon="2.89724">
        <ele>389.5</ele>
        <time>2018-10-21T08:49:56Z</time>
      </trkpt>
      <trkpt lat="46.34814" lon="2.89723">
        <ele>389.6</ele>
        <time>2018-10-21T08:49:57Z</time>
      </trkpt>
      <trkpt lat="46.34819" lon="2.8972">
        <ele>389.1</ele>
        <time>2018-10-21T08:49:58Z</time>
      </trkpt>
      <trkpt lat="46.34825" lon="2.89718">
        <ele>388.8</ele>
        <time>2018-10-21T08:49:59Z</time>
      </trkpt>
      <trkpt lat="46.34831" lon="2.89715">
        <ele>388.5</ele>
        <time>2018-10-21T08:50:00Z</time>
      </trkpt>
      <trkpt lat="46.34837" lon="2.89713">
        <ele>387.9</ele>
        <time>2018-10-21T08:50:01Z</time>
      </trkpt>
      <trkpt lat="46.34844" lon="2.8971">
        <ele>387.5</ele>
        <time>2018-10-21T08:50:02Z</time>
      </trkpt>
      <trkpt lat="46.34851" lon="2.89708">
        <ele>386.9</ele>
        <time>2018-10-21T08:50:03Z</time>
      </trkpt>
      <trkpt lat="46.34858" lon="2.89705">
        <ele>386.5</ele>
        <time>2018-10-21T08:50:04Z</time>
      </trkpt>
      <trkpt lat="46.34865" lon="2.89702">
        <ele>386.2</ele>
        <time>2018-10-21T08:50:05Z</time>
      </trkpt>
      <trkpt lat="46.34871" lon="2.89697">
        <ele>385.8</ele>
        <time>2018-10-21T08:50:06Z</time>
      </trkpt>
      <trkpt lat="46.34878" lon="2.89692">
        <ele>385.4</ele>
        <time>2018-10-21T08:50:07Z</time>
      </trkpt>
      <trkpt lat="46.34885" lon="2.89687">
        <ele>384.5</ele>
        <time>2018-10-21T08:50:08Z</time>
      </trkpt>
      <trkpt lat="46.34892" lon="2.89683">
        <ele>383.8</ele>
        <time>2018-10-21T08:50:09Z</time>
      </trkpt>
      <trkpt lat="46.34899" lon="2.89678">
        <ele>383.5</ele>
        <time>2018-10-21T08:50:10Z</time>
      </trkpt>
      <trkpt lat="46.34906" lon="2.89673">
        <ele>383.2</ele>
        <time>2018-10-21T08:50:11Z</time>
      </trkpt>
      <trkpt lat="46.34912" lon="2.89669">
        <ele>383.1</ele>
        <time>2018-10-21T08:50:12Z</time>
      </trkpt>
      <trkpt lat="46.34919" lon="2.89664">
        <ele>382.6</ele>
        <time>2018-10-21T08:50:13Z</time>
      </trkpt>
      <trkpt lat="46.34925" lon="2.8966">
        <ele>382.3</ele>
        <time>2018-10-21T08:50:14Z</time>
      </trkpt>
      <trkpt lat="46.34931" lon="2.89655">
        <ele>382.2</ele>
        <time>2018-10-21T08:50:15Z</time>
      </trkpt>
      <trkpt lat="46.34936" lon="2.89649">
        <ele>382.1</ele>
        <time>2018-10-21T08:50:16Z</time>
      </trkpt>
      <trkpt lat="46.3494" lon="2.89642">
        <ele>381.8</ele>
        <time>2018-10-21T08:50:17Z</time>
      </trkpt>
      <trkpt lat="46.34944" lon="2.89635">
        <ele>381.5</ele>
        <time>2018-10-21T08:50:18Z</time>
      </trkpt>
      <trkpt lat="46.34947" lon="2.89627">
        <ele>381.3</ele>
        <time>2018-10-21T08:50:19Z</time>
      </trkpt>
      <trkpt lat="46.3495" lon="2.8962">
        <ele>381.3</ele>
        <time>2018-10-21T08:50:20Z</time>
      </trkpt>
      <trkpt lat="46.34952" lon="2.89614">
        <ele>381.2</ele>
        <time>2018-10-21T08:50:21Z</time>
      </trkpt>
      <trkpt lat="46.34955" lon="2.89607">
        <ele>381</ele>
        <time>2018-10-21T08:50:22Z</time>
      </trkpt>
      <trkpt lat="46.34957" lon="2.89601">
        <ele>380.9</ele>
        <time>2018-10-21T08:50:23Z</time>
      </trkpt>
      <trkpt lat="46.3496" lon="2.89594">
        <ele>380.8</ele>
        <time>2018-10-21T08:50:24Z</time>
      </trkpt>
      <trkpt lat="46.34963" lon="2.89588">
        <ele>381.1</ele>
        <time>2018-10-21T08:50:25Z</time>
      </trkpt>
      <trkpt lat="46.34965" lon="2.89582">
        <ele>381.3</ele>
        <time>2018-10-21T08:50:26Z</time>
      </trkpt>
      <trkpt lat="46.34967" lon="2.89576">
        <ele>381.2</ele>
        <time>2018-10-21T08:50:27Z</time>
      </trkpt>
      <trkpt lat="46.34969" lon="2.8957">
        <ele>381.1</ele>
        <time>2018-10-21T08:50:28Z</time>
      </trkpt>
      <trkpt lat="46.34972" lon="2.89563">
        <ele>381.5</ele>
        <time>2018-10-21T08:50:29Z</time>
      </trkpt>
      <trkpt lat="46.34974" lon="2.89557">
        <ele>381.8</ele>
        <time>2018-10-21T08:50:30Z</time>
      </trkpt>
      <trkpt lat="46.34976" lon="2.89551">
        <ele>382</ele>
        <time>2018-10-21T08:50:31Z</time>
      </trkpt>
      <trkpt lat="46.34978" lon="2.89545">
        <ele>381.9</ele>
        <time>2018-10-21T08:50:32Z</time>
      </trkpt>
      <trkpt lat="46.34982" lon="2.89533">
        <ele>382.3</ele>
        <time>2018-10-21T08:50:34Z</time>
      </trkpt>
      <trkpt lat="46.34986" lon="2.89522">
        <ele>382.9</ele>
        <time>2018-10-21T08:50:36Z</time>
      </trkpt>
      <trkpt lat="46.3499" lon="2.89511">
        <ele>382.9</ele>
        <time>2018-10-21T08:50:38Z</time>
      </trkpt>
      <trkpt lat="46.34995" lon="2.89501">
        <ele>382.9</ele>
        <time>2018-10-21T08:50:40Z</time>
      </trkpt>
      <trkpt lat="46.34999" lon="2.8949">
        <ele>382.6</ele>
        <time>2018-10-21T08:50:42Z</time>
      </trkpt>
      <trkpt lat="46.35002" lon="2.89485">
        <ele>382.5</ele>
        <time>2018-10-21T08:50:43Z</time>
      </trkpt>
      <trkpt lat="46.35009" lon="2.8947">
        <ele>383.3</ele>
        <time>2018-10-21T08:50:46Z</time>
      </trkpt>
      <trkpt lat="46.35013" lon="2.8946">
        <ele>383.7</ele>
        <time>2018-10-21T08:50:48Z</time>
      </trkpt>
      <trkpt lat="46.35018" lon="2.8945">
        <ele>383.9</ele>
        <time>2018-10-21T08:50:50Z</time>
      </trkpt>
      <trkpt lat="46.35023" lon="2.89441">
        <ele>384.1</ele>
        <time>2018-10-21T08:50:52Z</time>
      </trkpt>
      <trkpt lat="46.35028" lon="2.89431">
        <ele>384.2</ele>
        <time>2018-10-21T08:50:54Z</time>
      </trkpt>
      <trkpt lat="46.35033" lon="2.89422">
        <ele>384.4</ele>
        <time>2018-10-21T08:50:56Z</time>
      </trkpt>
      <trkpt lat="46.35037" lon="2.89412">
        <ele>384.9</ele>
        <time>2018-10-21T08:50:58Z</time>
      </trkpt>
      <trkpt lat="46.35042" lon="2.89403">
        <ele>385.2</ele>
        <time>2018-10-21T08:51:00Z</time>
      </trkpt>
      <trkpt lat="46.35047" lon="2.89393">
        <ele>385.4</ele>
        <time>2018-10-21T08:51:02Z</time>
      </trkpt>
      <trkpt lat="46.35052" lon="2.89383">
        <ele>385.2</ele>
        <time>2018-10-21T08:51:04Z</time>
      </trkpt>
      <trkpt lat="46.35057" lon="2.89374">
        <ele>385.3</ele>
        <time>2018-10-21T08:51:06Z</time>
      </trkpt>
      <trkpt lat="46.35062" lon="2.89364">
        <ele>386</ele>
        <time>2018-10-21T08:51:08Z</time>
      </trkpt>
      <trkpt lat="46.35067" lon="2.89354">
        <ele>386.1</ele>
        <time>2018-10-21T08:51:10Z</time>
      </trkpt>
      <trkpt lat="46.35073" lon="2.89344">
        <ele>386.2</ele>
        <time>2018-10-21T08:51:12Z</time>
      </trkpt>
      <trkpt lat="46.35078" lon="2.89335">
        <ele>386.5</ele>
        <time>2018-10-21T08:51:14Z</time>
      </trkpt>
      <trkpt lat="46.35084" lon="2.89326">
        <ele>386.6</ele>
        <time>2018-10-21T08:51:16Z</time>
      </trkpt>
      <trkpt lat="46.35088" lon="2.89316">
        <ele>386.6</ele>
        <time>2018-10-21T08:51:18Z</time>
      </trkpt>
      <trkpt lat="46.35088" lon="2.89303">
        <ele>386.4</ele>
        <time>2018-10-21T08:51:20Z</time>
      </trkpt>
      <trkpt lat="46.35088" lon="2.89296">
        <ele>386.4</ele>
        <time>2018-10-21T08:51:21Z</time>
      </trkpt>
      <trkpt lat="46.35086" lon="2.89288">
        <ele>386.4</ele>
        <time>2018-10-21T08:51:22Z</time>
      </trkpt>
      <trkpt lat="46.35085" lon="2.89281">
        <ele>386.3</ele>
        <time>2018-10-21T08:51:23Z</time>
      </trkpt>
      <trkpt lat="46.35083" lon="2.89273">
        <ele>385.9</ele>
        <time>2018-10-21T08:51:24Z</time>
      </trkpt>
      <trkpt lat="46.35081" lon="2.89265">
        <ele>385.6</ele>
        <time>2018-10-21T08:51:25Z</time>
      </trkpt>
      <trkpt lat="46.35079" lon="2.89256">
        <ele>385.4</ele>
        <time>2018-10-21T08:51:26Z</time>
      </trkpt>
      <trkpt lat="46.35076" lon="2.89247">
        <ele>385.2</ele>
        <time>2018-10-21T08:51:27Z</time>
      </trkpt>
      <trkpt lat="46.35074" lon="2.89239">
        <ele>385</ele>
        <time>2018-10-21T08:51:28Z</time>
      </trkpt>
      <trkpt lat="46.35072" lon="2.8923">
        <ele>384.7</ele>
        <time>2018-10-21T08:51:29Z</time>
      </trkpt>
      <trkpt lat="46.3507" lon="2.89221">
        <ele>384.4</ele>
        <time>2018-10-21T08:51:30Z</time>
      </trkpt>
      <trkpt lat="46.35068" lon="2.89211">
        <ele>384.9</ele>
        <time>2018-10-21T08:51:31Z</time>
      </trkpt>
      <trkpt lat="46.35066" lon="2.89202">
        <ele>385.2</ele>
        <time>2018-10-21T08:51:32Z</time>
      </trkpt>
      <trkpt lat="46.35064" lon="2.89193">
        <ele>385.4</ele>
        <time>2018-10-21T08:51:33Z</time>
      </trkpt>
      <trkpt lat="46.35062" lon="2.89184">
        <ele>384.9</ele>
        <time>2018-10-21T08:51:34Z</time>
      </trkpt>
      <trkpt lat="46.3506" lon="2.89175">
        <ele>384.5</ele>
        <time>2018-10-21T08:51:35Z</time>
      </trkpt>
      <trkpt lat="46.35057" lon="2.89166">
        <ele>384</ele>
        <time>2018-10-21T08:51:36Z</time>
      </trkpt>
      <trkpt lat="46.35055" lon="2.89157">
        <ele>383.7</ele>
        <time>2018-10-21T08:51:37Z</time>
      </trkpt>
      <trkpt lat="46.35053" lon="2.89149">
        <ele>382.8</ele>
        <time>2018-10-21T08:51:38Z</time>
      </trkpt>
      <trkpt lat="46.3505" lon="2.89139">
        <ele>382.2</ele>
        <time>2018-10-21T08:51:39Z</time>
      </trkpt>
      <trkpt lat="46.35048" lon="2.8913">
        <ele>381.8</ele>
        <time>2018-10-21T08:51:40Z</time>
      </trkpt>
      <trkpt lat="46.35046" lon="2.89121">
        <ele>381.9</ele>
        <time>2018-10-21T08:51:41Z</time>
      </trkpt>
      <trkpt lat="46.35044" lon="2.89112">
        <ele>382</ele>
        <time>2018-10-21T08:51:42Z</time>
      </trkpt>
      <trkpt lat="46.35041" lon="2.89102">
        <ele>381.7</ele>
        <time>2018-10-21T08:51:43Z</time>
      </trkpt>
      <trkpt lat="46.35039" lon="2.89093">
        <ele>381.5</ele>
        <time>2018-10-21T08:51:44Z</time>
      </trkpt>
      <trkpt lat="46.35036" lon="2.89083">
        <ele>381.4</ele>
        <time>2018-10-21T08:51:45Z</time>
      </trkpt>
      <trkpt lat="46.35034" lon="2.89073">
        <ele>381</ele>
        <time>2018-10-21T08:51:46Z</time>
      </trkpt>
      <trkpt lat="46.35031" lon="2.89063">
        <ele>380.8</ele>
        <time>2018-10-21T08:51:47Z</time>
      </trkpt>
      <trkpt lat="46.35029" lon="2.89054">
        <ele>379.9</ele>
        <time>2018-10-21T08:51:48Z</time>
      </trkpt>
      <trkpt lat="46.35026" lon="2.89044">
        <ele>379.3</ele>
        <time>2018-10-21T08:51:49Z</time>
      </trkpt>
      <trkpt lat="46.35023" lon="2.89033">
        <ele>379.1</ele>
        <time>2018-10-21T08:51:50Z</time>
      </trkpt>
      <trkpt lat="46.3502" lon="2.89023">
        <ele>378.9</ele>
        <time>2018-10-21T08:51:51Z</time>
      </trkpt>
      <trkpt lat="46.35018" lon="2.89013">
        <ele>378.7</ele>
        <time>2018-10-21T08:51:52Z</time>
      </trkpt>
      <trkpt lat="46.35015" lon="2.89002">
        <ele>378.5</ele>
        <time>2018-10-21T08:51:53Z</time>
      </trkpt>
      <trkpt lat="46.35012" lon="2.88991">
        <ele>378.3</ele>
        <time>2018-10-21T08:51:54Z</time>
      </trkpt>
      <trkpt lat="46.35009" lon="2.8898">
        <ele>377.9</ele>
        <time>2018-10-21T08:51:55Z</time>
      </trkpt>
      <trkpt lat="46.35006" lon="2.88969">
        <ele>377.5</ele>
        <time>2018-10-21T08:51:56Z</time>
      </trkpt>
      <trkpt lat="46.35003" lon="2.88957">
        <ele>377.3</ele>
        <time>2018-10-21T08:51:57Z</time>
      </trkpt>
      <trkpt lat="46.34999" lon="2.88946">
        <ele>377.2</ele>
        <time>2018-10-21T08:51:58Z</time>
      </trkpt>
      <trkpt lat="46.34996" lon="2.88935">
        <ele>377</ele>
        <time>2018-10-21T08:51:59Z</time>
      </trkpt>
      <trkpt lat="46.34993" lon="2.88923">
        <ele>376.6</ele>
        <time>2018-10-21T08:52:00Z</time>
      </trkpt>
      <trkpt lat="46.3499" lon="2.88911">
        <ele>376.3</ele>
        <time>2018-10-21T08:52:01Z</time>
      </trkpt>
      <trkpt lat="46.34987" lon="2.88899">
        <ele>375.6</ele>
        <time>2018-10-21T08:52:02Z</time>
      </trkpt>
      <trkpt lat="46.34983" lon="2.88887">
        <ele>375</ele>
        <time>2018-10-21T08:52:03Z</time>
      </trkpt>
      <trkpt lat="46.3498" lon="2.88875">
        <ele>374.6</ele>
        <time>2018-10-21T08:52:04Z</time>
      </trkpt>
      <trkpt lat="46.34977" lon="2.88863">
        <ele>374.1</ele>
        <time>2018-10-21T08:52:05Z</time>
      </trkpt>
      <trkpt lat="46.34973" lon="2.88851">
        <ele>373.7</ele>
        <time>2018-10-21T08:52:06Z</time>
      </trkpt>
      <trkpt lat="46.3497" lon="2.88838">
        <ele>373.1</ele>
        <time>2018-10-21T08:52:07Z</time>
      </trkpt>
      <trkpt lat="46.34966" lon="2.88825">
        <ele>372.6</ele>
        <time>2018-10-21T08:52:08Z</time>
      </trkpt>
      <trkpt lat="46.34963" lon="2.88813">
        <ele>372.1</ele>
        <time>2018-10-21T08:52:09Z</time>
      </trkpt>
      <trkpt lat="46.3496" lon="2.88799">
        <ele>371.7</ele>
        <time>2018-10-21T08:52:10Z</time>
      </trkpt>
      <trkpt lat="46.34958" lon="2.88786">
        <ele>371.4</ele>
        <time>2018-10-21T08:52:11Z</time>
      </trkpt>
      <trkpt lat="46.34956" lon="2.88772">
        <ele>370.4</ele>
        <time>2018-10-21T08:52:12Z</time>
      </trkpt>
      <trkpt lat="46.34954" lon="2.88757">
        <ele>369.7</ele>
        <time>2018-10-21T08:52:13Z</time>
      </trkpt>
      <trkpt lat="46.34954" lon="2.88743">
        <ele>369</ele>
        <time>2018-10-21T08:52:14Z</time>
      </trkpt>
      <trkpt lat="46.34954" lon="2.88728">
        <ele>368.4</ele>
        <time>2018-10-21T08:52:15Z</time>
      </trkpt>
      <trkpt lat="46.34954" lon="2.88713">
        <ele>368</ele>
        <time>2018-10-21T08:52:16Z</time>
      </trkpt>
      <trkpt lat="46.34955" lon="2.88698">
        <ele>367.7</ele>
        <time>2018-10-21T08:52:17Z</time>
      </trkpt>
      <trkpt lat="46.34956" lon="2.88683">
        <ele>367.4</ele>
        <time>2018-10-21T08:52:18Z</time>
      </trkpt>
      <trkpt lat="46.34957" lon="2.88667">
        <ele>366.2</ele>
        <time>2018-10-21T08:52:19Z</time>
      </trkpt>
      <trkpt lat="46.34958" lon="2.88651">
        <ele>365.2</ele>
        <time>2018-10-21T08:52:20Z</time>
      </trkpt>
      <trkpt lat="46.34958" lon="2.88634">
        <ele>364.4</ele>
        <time>2018-10-21T08:52:21Z</time>
      </trkpt>
      <trkpt lat="46.34959" lon="2.88617">
        <ele>363.8</ele>
        <time>2018-10-21T08:52:22Z</time>
      </trkpt>
      <trkpt lat="46.3496" lon="2.88601">
        <ele>363.3</ele>
        <time>2018-10-21T08:52:23Z</time>
      </trkpt>
      <trkpt lat="46.34961" lon="2.88584">
        <ele>362.6</ele>
        <time>2018-10-21T08:52:24Z</time>
      </trkpt>
      <trkpt lat="46.34963" lon="2.88567">
        <ele>362</ele>
        <time>2018-10-21T08:52:25Z</time>
      </trkpt>
      <trkpt lat="46.34964" lon="2.8855">
        <ele>360.7</ele>
        <time>2018-10-21T08:52:26Z</time>
      </trkpt>
      <trkpt lat="46.34965" lon="2.88533">
        <ele>359.8</ele>
        <time>2018-10-21T08:52:27Z</time>
      </trkpt>
      <trkpt lat="46.34965" lon="2.88515">
        <ele>358.5</ele>
        <time>2018-10-21T08:52:28Z</time>
      </trkpt>
      <trkpt lat="46.34965" lon="2.88498">
        <ele>357.6</ele>
        <time>2018-10-21T08:52:29Z</time>
      </trkpt>
      <trkpt lat="46.34963" lon="2.88481">
        <ele>356.8</ele>
        <time>2018-10-21T08:52:30Z</time>
      </trkpt>
      <trkpt lat="46.34961" lon="2.88465">
        <ele>355.6</ele>
        <time>2018-10-21T08:52:31Z</time>
      </trkpt>
      <trkpt lat="46.34959" lon="2.88448">
        <ele>354.6</ele>
        <time>2018-10-21T08:52:32Z</time>
      </trkpt>
      <trkpt lat="46.34957" lon="2.88432">
        <ele>353.9</ele>
        <time>2018-10-21T08:52:33Z</time>
      </trkpt>
      <trkpt lat="46.34954" lon="2.88416">
        <ele>353.4</ele>
        <time>2018-10-21T08:52:34Z</time>
      </trkpt>
      <trkpt lat="46.34952" lon="2.884">
        <ele>353</ele>
        <time>2018-10-21T08:52:35Z</time>
      </trkpt>
      <trkpt lat="46.3495" lon="2.88386">
        <ele>352.3</ele>
        <time>2018-10-21T08:52:36Z</time>
      </trkpt>
      <trkpt lat="46.34948" lon="2.88373">
        <ele>351.7</ele>
        <time>2018-10-21T08:52:37Z</time>
      </trkpt>
      <trkpt lat="46.34947" lon="2.88364">
        <ele>351.1</ele>
        <time>2018-10-21T08:52:38Z</time>
      </trkpt>
      <trkpt lat="46.34947" lon="2.88357">
        <ele>350.6</ele>
        <time>2018-10-21T08:52:39Z</time>
      </trkpt>
      <trkpt lat="46.3495" lon="2.88351">
        <ele>349.5</ele>
        <time>2018-10-21T08:52:40Z</time>
      </trkpt>
      <trkpt lat="46.34954" lon="2.88348">
        <ele>348.7</ele>
        <time>2018-10-21T08:52:41Z</time>
      </trkpt>
      <trkpt lat="46.34959" lon="2.88347">
        <ele>348.1</ele>
        <time>2018-10-21T08:52:42Z</time>
      </trkpt>
      <trkpt lat="46.34964" lon="2.88346">
        <ele>347.7</ele>
        <time>2018-10-21T08:52:43Z</time>
      </trkpt>
      <trkpt lat="46.3497" lon="2.88345">
        <ele>347.5</ele>
        <time>2018-10-21T08:52:44Z</time>
      </trkpt>
      <trkpt lat="46.34976" lon="2.88342">
        <ele>347.7</ele>
        <time>2018-10-21T08:52:45Z</time>
      </trkpt>
      <trkpt lat="46.34983" lon="2.8834">
        <ele>347.9</ele>
        <time>2018-10-21T08:52:46Z</time>
      </trkpt>
      <trkpt lat="46.34989" lon="2.88338">
        <ele>347.5</ele>
        <time>2018-10-21T08:52:47Z</time>
      </trkpt>
      <trkpt lat="46.34997" lon="2.88335">
        <ele>347.2</ele>
        <time>2018-10-21T08:52:48Z</time>
      </trkpt>
      <trkpt lat="46.35005" lon="2.88333">
        <ele>347</ele>
        <time>2018-10-21T08:52:49Z</time>
      </trkpt>
      <trkpt lat="46.35014" lon="2.88332">
        <ele>346.4</ele>
        <time>2018-10-21T08:52:50Z</time>
      </trkpt>
      <trkpt lat="46.35024" lon="2.88333">
        <ele>346</ele>
        <time>2018-10-21T08:52:51Z</time>
      </trkpt>
      <trkpt lat="46.35035" lon="2.88334">
        <ele>344.1</ele>
        <time>2018-10-21T08:52:52Z</time>
      </trkpt>
      <trkpt lat="46.35046" lon="2.88334">
        <ele>342.7</ele>
        <time>2018-10-21T08:52:53Z</time>
      </trkpt>
      <trkpt lat="46.35056" lon="2.88334">
        <ele>341.7</ele>
        <time>2018-10-21T08:52:54Z</time>
      </trkpt>
      <trkpt lat="46.35067" lon="2.88333">
        <ele>341</ele>
        <time>2018-10-21T08:52:55Z</time>
      </trkpt>
      <trkpt lat="46.35076" lon="2.88333">
        <ele>340.5</ele>
        <time>2018-10-21T08:52:56Z</time>
      </trkpt>
      <trkpt lat="46.35085" lon="2.88334">
        <ele>339.8</ele>
        <time>2018-10-21T08:52:57Z</time>
      </trkpt>
      <trkpt lat="46.35093" lon="2.88336">
        <ele>339.4</ele>
        <time>2018-10-21T08:52:58Z</time>
      </trkpt>
      <trkpt lat="46.35099" lon="2.88337">
        <ele>339.7</ele>
        <time>2018-10-21T08:52:59Z</time>
      </trkpt>
      <trkpt lat="46.35105" lon="2.88339">
        <ele>340</ele>
        <time>2018-10-21T08:53:00Z</time>
      </trkpt>
      <trkpt lat="46.35113" lon="2.88341">
        <ele>340.9</ele>
        <time>2018-10-21T08:53:02Z</time>
      </trkpt>
      <trkpt lat="46.35119" lon="2.88343">
        <ele>341.7</ele>
        <time>2018-10-21T08:53:04Z</time>
      </trkpt>
      <trkpt lat="46.35125" lon="2.88345">
        <ele>342.1</ele>
        <time>2018-10-21T08:53:06Z</time>
      </trkpt>
      <trkpt lat="46.35134" lon="2.88347">
        <ele>342.9</ele>
        <time>2018-10-21T08:53:09Z</time>
      </trkpt>
      <trkpt lat="46.35142" lon="2.8835">
        <ele>344.2</ele>
        <time>2018-10-21T08:53:12Z</time>
      </trkpt>
      <trkpt lat="46.3515" lon="2.88353">
        <ele>344.8</ele>
        <time>2018-10-21T08:53:15Z</time>
      </trkpt>
      <trkpt lat="46.35158" lon="2.88356">
        <ele>345.8</ele>
        <time>2018-10-21T08:53:18Z</time>
      </trkpt>
      <trkpt lat="46.35165" lon="2.88361">
        <ele>346.5</ele>
        <time>2018-10-21T08:53:21Z</time>
      </trkpt>
      <trkpt lat="46.35173" lon="2.88366">
        <ele>347.3</ele>
        <time>2018-10-21T08:53:24Z</time>
      </trkpt>
      <trkpt lat="46.3518" lon="2.88372">
        <ele>348.4</ele>
        <time>2018-10-21T08:53:27Z</time>
      </trkpt>
      <trkpt lat="46.35187" lon="2.88378">
        <ele>348.6</ele>
        <time>2018-10-21T08:53:30Z</time>
      </trkpt>
      <trkpt lat="46.35194" lon="2.88385">
        <ele>349.5</ele>
        <time>2018-10-21T08:53:33Z</time>
      </trkpt>
      <trkpt lat="46.35202" lon="2.88391">
        <ele>350.4</ele>
        <time>2018-10-21T08:53:36Z</time>
      </trkpt>
      <trkpt lat="46.35207" lon="2.88396">
        <ele>351.2</ele>
        <time>2018-10-21T08:53:38Z</time>
      </trkpt>
      <trkpt lat="46.35215" lon="2.88401">
        <ele>352.3</ele>
        <time>2018-10-21T08:53:41Z</time>
      </trkpt>
      <trkpt lat="46.35222" lon="2.88406">
        <ele>353.2</ele>
        <time>2018-10-21T08:53:44Z</time>
      </trkpt>
      <trkpt lat="46.35229" lon="2.88411">
        <ele>352.9</ele>
        <time>2018-10-21T08:53:47Z</time>
      </trkpt>
      <trkpt lat="46.35232" lon="2.88413">
        <ele>352.9</ele>
        <time>2018-10-21T08:53:48Z</time>
      </trkpt>
      <trkpt lat="46.35244" lon="2.88423">
        <ele>354.4</ele>
        <time>2018-10-21T08:53:53Z</time>
      </trkpt>
      <trkpt lat="46.35251" lon="2.88429">
        <ele>354.2</ele>
        <time>2018-10-21T08:53:56Z</time>
      </trkpt>
      <trkpt lat="46.35259" lon="2.88433">
        <ele>355.3</ele>
        <time>2018-10-21T08:53:59Z</time>
      </trkpt>
      <trkpt lat="46.35267" lon="2.88438">
        <ele>355.8</ele>
        <time>2018-10-21T08:54:02Z</time>
      </trkpt>
      <trkpt lat="46.35275" lon="2.88441">
        <ele>356.4</ele>
        <time>2018-10-21T08:54:05Z</time>
      </trkpt>
      <trkpt lat="46.35281" lon="2.88442">
        <ele>355.9</ele>
        <time>2018-10-21T08:54:07Z</time>
      </trkpt>
      <trkpt lat="46.35289" lon="2.88441">
        <ele>356.4</ele>
        <time>2018-10-21T08:54:09Z</time>
      </trkpt>
      <trkpt lat="46.35296" lon="2.88441">
        <ele>356.6</ele>
        <time>2018-10-21T08:54:11Z</time>
      </trkpt>
      <trkpt lat="46.35305" lon="2.8844">
        <ele>356.5</ele>
        <time>2018-10-21T08:54:13Z</time>
      </trkpt>
      <trkpt lat="46.35309" lon="2.88439">
        <ele>356.4</ele>
        <time>2018-10-21T08:54:14Z</time>
      </trkpt>
      <trkpt lat="46.35314" lon="2.88439">
        <ele>356.3</ele>
        <time>2018-10-21T08:54:15Z</time>
      </trkpt>
      <trkpt lat="46.35319" lon="2.8844">
        <ele>356.3</ele>
        <time>2018-10-21T08:54:16Z</time>
      </trkpt>
      <trkpt lat="46.35324" lon="2.88441">
        <ele>356.3</ele>
        <time>2018-10-21T08:54:17Z</time>
      </trkpt>
      <trkpt lat="46.35329" lon="2.88443">
        <ele>356</ele>
        <time>2018-10-21T08:54:18Z</time>
      </trkpt>
      <trkpt lat="46.35334" lon="2.88445">
        <ele>355.8</ele>
        <time>2018-10-21T08:54:19Z</time>
      </trkpt>
      <trkpt lat="46.3534" lon="2.88448">
        <ele>355.6</ele>
        <time>2018-10-21T08:54:20Z</time>
      </trkpt>
      <trkpt lat="46.35346" lon="2.88452">
        <ele>355.4</ele>
        <time>2018-10-21T08:54:21Z</time>
      </trkpt>
      <trkpt lat="46.35351" lon="2.88456">
        <ele>355.3</ele>
        <time>2018-10-21T08:54:22Z</time>
      </trkpt>
      <trkpt lat="46.35357" lon="2.8846">
        <ele>354.8</ele>
        <time>2018-10-21T08:54:23Z</time>
      </trkpt>
      <trkpt lat="46.35363" lon="2.88465">
        <ele>354.5</ele>
        <time>2018-10-21T08:54:24Z</time>
      </trkpt>
      <trkpt lat="46.35368" lon="2.88469">
        <ele>353.8</ele>
        <time>2018-10-21T08:54:25Z</time>
      </trkpt>
      <trkpt lat="46.35374" lon="2.88474">
        <ele>353.3</ele>
        <time>2018-10-21T08:54:26Z</time>
      </trkpt>
      <trkpt lat="46.35379" lon="2.88479">
        <ele>352.8</ele>
        <time>2018-10-21T08:54:27Z</time>
      </trkpt>
      <trkpt lat="46.35386" lon="2.88484">
        <ele>352.3</ele>
        <time>2018-10-21T08:54:28Z</time>
      </trkpt>
      <trkpt lat="46.35393" lon="2.88486">
        <ele>351.9</ele>
        <time>2018-10-21T08:54:29Z</time>
      </trkpt>
      <trkpt lat="46.354" lon="2.88485">
        <ele>351.1</ele>
        <time>2018-10-21T08:54:30Z</time>
      </trkpt>
      <trkpt lat="46.35406" lon="2.88481">
        <ele>350.5</ele>
        <time>2018-10-21T08:54:31Z</time>
      </trkpt>
      <trkpt lat="46.3541" lon="2.88473">
        <ele>349.7</ele>
        <time>2018-10-21T08:54:32Z</time>
      </trkpt>
      <trkpt lat="46.35412" lon="2.88464">
        <ele>349.1</ele>
        <time>2018-10-21T08:54:33Z</time>
      </trkpt>
      <trkpt lat="46.35413" lon="2.88456">
        <ele>348.6</ele>
        <time>2018-10-21T08:54:34Z</time>
      </trkpt>
      <trkpt lat="46.35413" lon="2.88448">
        <ele>348.2</ele>
        <time>2018-10-21T08:54:35Z</time>
      </trkpt>
      <trkpt lat="46.35413" lon="2.88441">
        <ele>347.9</ele>
        <time>2018-10-21T08:54:36Z</time>
      </trkpt>
      <trkpt lat="46.35414" lon="2.88434">
        <ele>348</ele>
        <time>2018-10-21T08:54:37Z</time>
      </trkpt>
      <trkpt lat="46.35417" lon="2.88423">
        <ele>348.2</ele>
        <time>2018-10-21T08:54:39Z</time>
      </trkpt>
      <trkpt lat="46.35421" lon="2.88414">
        <ele>348.3</ele>
        <time>2018-10-21T08:54:41Z</time>
      </trkpt>
      <trkpt lat="46.35426" lon="2.88408">
        <ele>348.4</ele>
        <time>2018-10-21T08:54:43Z</time>
      </trkpt>
      <trkpt lat="46.35433" lon="2.88402">
        <ele>348.9</ele>
        <time>2018-10-21T08:54:46Z</time>
      </trkpt>
      <trkpt lat="46.3544" lon="2.884">
        <ele>350</ele>
        <time>2018-10-21T08:54:49Z</time>
      </trkpt>
      <trkpt lat="46.35443" lon="2.884">
        <ele>350.2</ele>
        <time>2018-10-21T08:54:50Z</time>
      </trkpt>
      <trkpt lat="46.35452" lon="2.88413">
        <ele>353.2</ele>
        <time>2018-10-21T08:54:58Z</time>
      </trkpt>
      <trkpt lat="46.35453" lon="2.88424">
        <ele>353.7</ele>
        <time>2018-10-21T08:55:02Z</time>
      </trkpt>
      <trkpt lat="46.35454" lon="2.88436">
        <ele>354.9</ele>
        <time>2018-10-21T08:55:06Z</time>
      </trkpt>
      <trkpt lat="46.35454" lon="2.88445">
        <ele>356</ele>
        <time>2018-10-21T08:55:09Z</time>
      </trkpt>
      <trkpt lat="46.35455" lon="2.88456">
        <ele>356.1</ele>
        <time>2018-10-21T08:55:12Z</time>
      </trkpt>
      <trkpt lat="46.35455" lon="2.88467">
        <ele>357.3</ele>
        <time>2018-10-21T08:55:15Z</time>
      </trkpt>
      <trkpt lat="46.35456" lon="2.88478">
        <ele>357.8</ele>
        <time>2018-10-21T08:55:18Z</time>
      </trkpt>
      <trkpt lat="46.35457" lon="2.88489">
        <ele>358.5</ele>
        <time>2018-10-21T08:55:21Z</time>
      </trkpt>
      <trkpt lat="46.3546" lon="2.885">
        <ele>358.8</ele>
        <time>2018-10-21T08:55:24Z</time>
      </trkpt>
      <trkpt lat="46.35464" lon="2.8851">
        <ele>359</ele>
        <time>2018-10-21T08:55:27Z</time>
      </trkpt>
      <trkpt lat="46.35468" lon="2.8852">
        <ele>359.7</ele>
        <time>2018-10-21T08:55:30Z</time>
      </trkpt>
      <trkpt lat="46.35474" lon="2.8853">
        <ele>360.6</ele>
        <time>2018-10-21T08:55:33Z</time>
      </trkpt>
      <trkpt lat="46.3548" lon="2.88538">
        <ele>361.3</ele>
        <time>2018-10-21T08:55:36Z</time>
      </trkpt>
      <trkpt lat="46.35487" lon="2.88544">
        <ele>360.8</ele>
        <time>2018-10-21T08:55:39Z</time>
      </trkpt>
      <trkpt lat="46.35495" lon="2.88548">
        <ele>361.4</ele>
        <time>2018-10-21T08:55:42Z</time>
      </trkpt>
      <trkpt lat="46.35504" lon="2.8855">
        <ele>361.5</ele>
        <time>2018-10-21T08:55:45Z</time>
      </trkpt>
      <trkpt lat="46.35512" lon="2.88552">
        <ele>362.6</ele>
        <time>2018-10-21T08:55:48Z</time>
      </trkpt>
      <trkpt lat="46.3552" lon="2.88554">
        <ele>363</ele>
        <time>2018-10-21T08:55:51Z</time>
      </trkpt>
      <trkpt lat="46.35523" lon="2.88555">
        <ele>362.8</ele>
        <time>2018-10-21T08:55:52Z</time>
      </trkpt>
      <trkpt lat="46.35536" lon="2.88558">
        <ele>364</ele>
        <time>2018-10-21T08:55:57Z</time>
      </trkpt>
      <trkpt lat="46.35544" lon="2.8856">
        <ele>364.5</ele>
        <time>2018-10-21T08:56:00Z</time>
      </trkpt>
      <trkpt lat="46.35552" lon="2.88562">
        <ele>364.9</ele>
        <time>2018-10-21T08:56:03Z</time>
      </trkpt>
      <trkpt lat="46.35561" lon="2.88565">
        <ele>365.6</ele>
        <time>2018-10-21T08:56:06Z</time>
      </trkpt>
      <trkpt lat="46.35569" lon="2.88568">
        <ele>365.6</ele>
        <time>2018-10-21T08:56:09Z</time>
      </trkpt>
      <trkpt lat="46.35577" lon="2.8857">
        <ele>365.9</ele>
        <time>2018-10-21T08:56:12Z</time>
      </trkpt>
      <trkpt lat="46.35586" lon="2.88566">
        <ele>366.7</ele>
        <time>2018-10-21T08:56:15Z</time>
      </trkpt>
      <trkpt lat="46.35592" lon="2.88563">
        <ele>367.1</ele>
        <time>2018-10-21T08:56:17Z</time>
      </trkpt>
      <trkpt lat="46.35598" lon="2.88561">
        <ele>366.9</ele>
        <time>2018-10-21T08:56:19Z</time>
      </trkpt>
      <trkpt lat="46.35604" lon="2.88558">
        <ele>366.7</ele>
        <time>2018-10-21T08:56:21Z</time>
      </trkpt>
      <trkpt lat="46.3561" lon="2.88555">
        <ele>367.1</ele>
        <time>2018-10-21T08:56:23Z</time>
      </trkpt>
      <trkpt lat="46.35615" lon="2.88551">
        <ele>368.1</ele>
        <time>2018-10-21T08:56:25Z</time>
      </trkpt>
      <trkpt lat="46.35621" lon="2.88547">
        <ele>368.6</ele>
        <time>2018-10-21T08:56:27Z</time>
      </trkpt>
      <trkpt lat="46.35628" lon="2.88544">
        <ele>368.9</ele>
        <time>2018-10-21T08:56:29Z</time>
      </trkpt>
      <trkpt lat="46.35635" lon="2.88542">
        <ele>368.6</ele>
        <time>2018-10-21T08:56:31Z</time>
      </trkpt>
      <trkpt lat="46.35641" lon="2.8854">
        <ele>367.9</ele>
        <time>2018-10-21T08:56:33Z</time>
      </trkpt>
      <trkpt lat="46.35649" lon="2.88537">
        <ele>369.2</ele>
        <time>2018-10-21T08:56:36Z</time>
      </trkpt>
      <trkpt lat="46.35658" lon="2.88534">
        <ele>369.6</ele>
        <time>2018-10-21T08:56:39Z</time>
      </trkpt>
      <trkpt lat="46.35666" lon="2.88531">
        <ele>370.8</ele>
        <time>2018-10-21T08:56:42Z</time>
      </trkpt>
      <trkpt lat="46.35674" lon="2.88536">
        <ele>371.2</ele>
        <time>2018-10-21T08:56:45Z</time>
      </trkpt>
      <trkpt lat="46.35678" lon="2.88543">
        <ele>371.3</ele>
        <time>2018-10-21T08:56:47Z</time>
      </trkpt>
      <trkpt lat="46.35687" lon="2.88547">
        <ele>371.5</ele>
        <time>2018-10-21T08:56:50Z</time>
      </trkpt>
      <trkpt lat="46.35692" lon="2.88546">
        <ele>371.5</ele>
        <time>2018-10-21T08:56:52Z</time>
      </trkpt>
      <trkpt lat="46.35698" lon="2.88543">
        <ele>372.3</ele>
        <time>2018-10-21T08:56:54Z</time>
      </trkpt>
      <trkpt lat="46.35702" lon="2.88542">
        <ele>372.5</ele>
        <time>2018-10-21T08:56:55Z</time>
      </trkpt>
      <trkpt lat="46.3571" lon="2.88536">
        <ele>372.8</ele>
        <time>2018-10-21T08:56:58Z</time>
      </trkpt>
      <trkpt lat="46.35715" lon="2.8853">
        <ele>373</ele>
        <time>2018-10-21T08:57:00Z</time>
      </trkpt>
      <trkpt lat="46.3572" lon="2.88525">
        <ele>373.1</ele>
        <time>2018-10-21T08:57:02Z</time>
      </trkpt>
      <trkpt lat="46.35726" lon="2.8852">
        <ele>373</ele>
        <time>2018-10-21T08:57:04Z</time>
      </trkpt>
      <trkpt lat="46.35732" lon="2.88515">
        <ele>372.8</ele>
        <time>2018-10-21T08:57:06Z</time>
      </trkpt>
      <trkpt lat="46.35738" lon="2.88509">
        <ele>372.6</ele>
        <time>2018-10-21T08:57:08Z</time>
      </trkpt>
      <trkpt lat="46.35745" lon="2.88504">
        <ele>373</ele>
        <time>2018-10-21T08:57:10Z</time>
      </trkpt>
      <trkpt lat="46.35751" lon="2.88499">
        <ele>373.3</ele>
        <time>2018-10-21T08:57:12Z</time>
      </trkpt>
      <trkpt lat="46.35758" lon="2.88494">
        <ele>373.8</ele>
        <time>2018-10-21T08:57:14Z</time>
      </trkpt>
      <trkpt lat="46.35765" lon="2.88488">
        <ele>374.5</ele>
        <time>2018-10-21T08:57:16Z</time>
      </trkpt>
      <trkpt lat="46.35771" lon="2.88481">
        <ele>374.5</ele>
        <time>2018-10-21T08:57:18Z</time>
      </trkpt>
      <trkpt lat="46.35778" lon="2.88472">
        <ele>374.3</ele>
        <time>2018-10-21T08:57:20Z</time>
      </trkpt>
      <trkpt lat="46.35781" lon="2.8846">
        <ele>373.7</ele>
        <time>2018-10-21T08:57:22Z</time>
      </trkpt>
      <trkpt lat="46.35779" lon="2.88449">
        <ele>373.3</ele>
        <time>2018-10-21T08:57:24Z</time>
      </trkpt>
      <trkpt lat="46.35772" lon="2.8844">
        <ele>372.7</ele>
        <time>2018-10-21T08:57:26Z</time>
      </trkpt>
      <trkpt lat="46.35769" lon="2.88435">
        <ele>372.3</ele>
        <time>2018-10-21T08:57:27Z</time>
      </trkpt>
      <trkpt lat="46.35765" lon="2.88431">
        <ele>372</ele>
        <time>2018-10-21T08:57:28Z</time>
      </trkpt>
      <trkpt lat="46.35762" lon="2.88426">
        <ele>372.2</ele>
        <time>2018-10-21T08:57:29Z</time>
      </trkpt>
      <trkpt lat="46.35758" lon="2.88421">
        <ele>372.3</ele>
        <time>2018-10-21T08:57:30Z</time>
      </trkpt>
      <trkpt lat="46.35755" lon="2.88415">
        <ele>372.5</ele>
        <time>2018-10-21T08:57:31Z</time>
      </trkpt>
      <trkpt lat="46.35753" lon="2.88409">
        <ele>372.7</ele>
        <time>2018-10-21T08:57:32Z</time>
      </trkpt>
      <trkpt lat="46.35751" lon="2.88402">
        <ele>372.3</ele>
        <time>2018-10-21T08:57:33Z</time>
      </trkpt>
      <trkpt lat="46.3575" lon="2.88394">
        <ele>372</ele>
        <time>2018-10-21T08:57:34Z</time>
      </trkpt>
      <trkpt lat="46.3575" lon="2.88387">
        <ele>371.7</ele>
        <time>2018-10-21T08:57:35Z</time>
      </trkpt>
      <trkpt lat="46.3575" lon="2.88379">
        <ele>371.6</ele>
        <time>2018-10-21T08:57:36Z</time>
      </trkpt>
      <trkpt lat="46.35749" lon="2.88372">
        <ele>371.6</ele>
        <time>2018-10-21T08:57:37Z</time>
      </trkpt>
      <trkpt lat="46.35749" lon="2.88365">
        <ele>371.7</ele>
        <time>2018-10-21T08:57:38Z</time>
      </trkpt>
      <trkpt lat="46.35748" lon="2.88357">
        <ele>371.8</ele>
        <time>2018-10-21T08:57:39Z</time>
      </trkpt>
      <trkpt lat="46.35748" lon="2.88349">
        <ele>371.4</ele>
        <time>2018-10-21T08:57:40Z</time>
      </trkpt>
      <trkpt lat="46.35748" lon="2.88341">
        <ele>371.1</ele>
        <time>2018-10-21T08:57:41Z</time>
      </trkpt>
      <trkpt lat="46.35747" lon="2.88333">
        <ele>370.9</ele>
        <time>2018-10-21T08:57:42Z</time>
      </trkpt>
      <trkpt lat="46.35748" lon="2.88325">
        <ele>370.7</ele>
        <time>2018-10-21T08:57:43Z</time>
      </trkpt>
      <trkpt lat="46.35748" lon="2.88317">
        <ele>370.5</ele>
        <time>2018-10-21T08:57:44Z</time>
      </trkpt>
      <trkpt lat="46.35748" lon="2.8831">
        <ele>370.2</ele>
        <time>2018-10-21T08:57:45Z</time>
      </trkpt>
      <trkpt lat="46.35749" lon="2.88302">
        <ele>370.1</ele>
        <time>2018-10-21T08:57:46Z</time>
      </trkpt>
      <trkpt lat="46.35749" lon="2.88294">
        <ele>370</ele>
        <time>2018-10-21T08:57:47Z</time>
      </trkpt>
      <trkpt lat="46.3575" lon="2.88286">
        <ele>370.4</ele>
        <time>2018-10-21T08:57:48Z</time>
      </trkpt>
      <trkpt lat="46.3575" lon="2.88278">
        <ele>370.7</ele>
        <time>2018-10-21T08:57:49Z</time>
      </trkpt>
      <trkpt lat="46.3575" lon="2.8827">
        <ele>370.6</ele>
        <time>2018-10-21T08:57:50Z</time>
      </trkpt>
      <trkpt lat="46.3575" lon="2.88262">
        <ele>370.6</ele>
        <time>2018-10-21T08:57:51Z</time>
      </trkpt>
      <trkpt lat="46.3575" lon="2.88255">
        <ele>370.3</ele>
        <time>2018-10-21T08:57:52Z</time>
      </trkpt>
      <trkpt lat="46.35751" lon="2.88247">
        <ele>370.1</ele>
        <time>2018-10-21T08:57:53Z</time>
      </trkpt>
      <trkpt lat="46.35751" lon="2.88239">
        <ele>369.9</ele>
        <time>2018-10-21T08:57:54Z</time>
      </trkpt>
      <trkpt lat="46.35752" lon="2.88232">
        <ele>369.7</ele>
        <time>2018-10-21T08:57:55Z</time>
      </trkpt>
      <trkpt lat="46.35752" lon="2.88224">
        <ele>369.5</ele>
        <time>2018-10-21T08:57:56Z</time>
      </trkpt>
      <trkpt lat="46.35753" lon="2.88216">
        <ele>369.2</ele>
        <time>2018-10-21T08:57:57Z</time>
      </trkpt>
      <trkpt lat="46.35753" lon="2.88208">
        <ele>368.9</ele>
        <time>2018-10-21T08:57:58Z</time>
      </trkpt>
      <trkpt lat="46.35754" lon="2.882">
        <ele>368.8</ele>
        <time>2018-10-21T08:57:59Z</time>
      </trkpt>
      <trkpt lat="46.35754" lon="2.88192">
        <ele>368.7</ele>
        <time>2018-10-21T08:58:00Z</time>
      </trkpt>
      <trkpt lat="46.35755" lon="2.88184">
        <ele>368.6</ele>
        <time>2018-10-21T08:58:01Z</time>
      </trkpt>
      <trkpt lat="46.35755" lon="2.88177">
        <ele>368.4</ele>
        <time>2018-10-21T08:58:02Z</time>
      </trkpt>
      <trkpt lat="46.35756" lon="2.88169">
        <ele>368.2</ele>
        <time>2018-10-21T08:58:03Z</time>
      </trkpt>
      <trkpt lat="46.35756" lon="2.88162">
        <ele>368</ele>
        <time>2018-10-21T08:58:04Z</time>
      </trkpt>
      <trkpt lat="46.35757" lon="2.88154">
        <ele>367.9</ele>
        <time>2018-10-21T08:58:05Z</time>
      </trkpt>
      <trkpt lat="46.35757" lon="2.88147">
        <ele>367.8</ele>
        <time>2018-10-21T08:58:06Z</time>
      </trkpt>
      <trkpt lat="46.35758" lon="2.88139">
        <ele>367.8</ele>
        <time>2018-10-21T08:58:07Z</time>
      </trkpt>
      <trkpt lat="46.35758" lon="2.88132">
        <ele>367.8</ele>
        <time>2018-10-21T08:58:08Z</time>
      </trkpt>
      <trkpt lat="46.35759" lon="2.88125">
        <ele>367.2</ele>
        <time>2018-10-21T08:58:09Z</time>
      </trkpt>
      <trkpt lat="46.35759" lon="2.88117">
        <ele>366.7</ele>
        <time>2018-10-21T08:58:10Z</time>
      </trkpt>
      <trkpt lat="46.3576" lon="2.88109">
        <ele>366.7</ele>
        <time>2018-10-21T08:58:11Z</time>
      </trkpt>
      <trkpt lat="46.35761" lon="2.88101">
        <ele>366.7</ele>
        <time>2018-10-21T08:58:12Z</time>
      </trkpt>
      <trkpt lat="46.35762" lon="2.88093">
        <ele>366.7</ele>
        <time>2018-10-21T08:58:13Z</time>
      </trkpt>
      <trkpt lat="46.35763" lon="2.88085">
        <ele>366.7</ele>
        <time>2018-10-21T08:58:14Z</time>
      </trkpt>
      <trkpt lat="46.35764" lon="2.88076">
        <ele>366.6</ele>
        <time>2018-10-21T08:58:15Z</time>
      </trkpt>
      <trkpt lat="46.35765" lon="2.88068">
        <ele>366.5</ele>
        <time>2018-10-21T08:58:16Z</time>
      </trkpt>
      <trkpt lat="46.35766" lon="2.88059">
        <ele>366.3</ele>
        <time>2018-10-21T08:58:17Z</time>
      </trkpt>
      <trkpt lat="46.35767" lon="2.88051">
        <ele>366.2</ele>
        <time>2018-10-21T08:58:18Z</time>
      </trkpt>
      <trkpt lat="46.35768" lon="2.88042">
        <ele>366.2</ele>
        <time>2018-10-21T08:58:19Z</time>
      </trkpt>
      <trkpt lat="46.35769" lon="2.88033">
        <ele>366.1</ele>
        <time>2018-10-21T08:58:20Z</time>
      </trkpt>
      <trkpt lat="46.35769" lon="2.88025">
        <ele>365.6</ele>
        <time>2018-10-21T08:58:21Z</time>
      </trkpt>
      <trkpt lat="46.3577" lon="2.88017">
        <ele>365.2</ele>
        <time>2018-10-21T08:58:22Z</time>
      </trkpt>
      <trkpt lat="46.35771" lon="2.88008">
        <ele>365</ele>
        <time>2018-10-21T08:58:23Z</time>
      </trkpt>
      <trkpt lat="46.35772" lon="2.88">
        <ele>364.9</ele>
        <time>2018-10-21T08:58:24Z</time>
      </trkpt>
      <trkpt lat="46.35774" lon="2.87991">
        <ele>364.9</ele>
        <time>2018-10-21T08:58:25Z</time>
      </trkpt>
      <trkpt lat="46.35775" lon="2.87981">
        <ele>363.8</ele>
        <time>2018-10-21T08:58:26Z</time>
      </trkpt>
      <trkpt lat="46.35776" lon="2.87972">
        <ele>363</ele>
        <time>2018-10-21T08:58:27Z</time>
      </trkpt>
      <trkpt lat="46.35778" lon="2.87962">
        <ele>362.5</ele>
        <time>2018-10-21T08:58:28Z</time>
      </trkpt>
      <trkpt lat="46.3578" lon="2.87951">
        <ele>362.1</ele>
        <time>2018-10-21T08:58:29Z</time>
      </trkpt>
      <trkpt lat="46.35781" lon="2.8794">
        <ele>361.7</ele>
        <time>2018-10-21T08:58:30Z</time>
      </trkpt>
      <trkpt lat="46.35783" lon="2.8793">
        <ele>361.4</ele>
        <time>2018-10-21T08:58:31Z</time>
      </trkpt>
      <trkpt lat="46.35784" lon="2.87918">
        <ele>361.1</ele>
        <time>2018-10-21T08:58:32Z</time>
      </trkpt>
      <trkpt lat="46.35786" lon="2.87907">
        <ele>360.9</ele>
        <time>2018-10-21T08:58:33Z</time>
      </trkpt>
      <trkpt lat="46.35787" lon="2.87895">
        <ele>360.8</ele>
        <time>2018-10-21T08:58:34Z</time>
      </trkpt>
      <trkpt lat="46.35787" lon="2.87883">
        <ele>360.3</ele>
        <time>2018-10-21T08:58:35Z</time>
      </trkpt>
      <trkpt lat="46.35787" lon="2.87871">
        <ele>359.9</ele>
        <time>2018-10-21T08:58:36Z</time>
      </trkpt>
      <trkpt lat="46.35786" lon="2.87859">
        <ele>359.7</ele>
        <time>2018-10-21T08:58:37Z</time>
      </trkpt>
      <trkpt lat="46.35785" lon="2.87847">
        <ele>358.8</ele>
        <time>2018-10-21T08:58:38Z</time>
      </trkpt>
      <trkpt lat="46.35784" lon="2.87834">
        <ele>358.1</ele>
        <time>2018-10-21T08:58:39Z</time>
      </trkpt>
      <trkpt lat="46.35782" lon="2.87821">
        <ele>357.6</ele>
        <time>2018-10-21T08:58:40Z</time>
      </trkpt>
      <trkpt lat="46.35781" lon="2.87808">
        <ele>357.2</ele>
        <time>2018-10-21T08:58:41Z</time>
      </trkpt>
      <trkpt lat="46.3578" lon="2.87795">
        <ele>356.2</ele>
        <time>2018-10-21T08:58:42Z</time>
      </trkpt>
      <trkpt lat="46.35778" lon="2.87781">
        <ele>355.5</ele>
        <time>2018-10-21T08:58:43Z</time>
      </trkpt>
      <trkpt lat="46.35777" lon="2.87768">
        <ele>354.9</ele>
        <time>2018-10-21T08:58:44Z</time>
      </trkpt>
      <trkpt lat="46.35776" lon="2.87754">
        <ele>354.1</ele>
        <time>2018-10-21T08:58:45Z</time>
      </trkpt>
      <trkpt lat="46.35775" lon="2.87742">
        <ele>353.5</ele>
        <time>2018-10-21T08:58:46Z</time>
      </trkpt>
      <trkpt lat="46.35773" lon="2.8773">
        <ele>352.6</ele>
        <time>2018-10-21T08:58:47Z</time>
      </trkpt>
      <trkpt lat="46.35772" lon="2.8772">
        <ele>351.9</ele>
        <time>2018-10-21T08:58:48Z</time>
      </trkpt>
      <trkpt lat="46.35771" lon="2.8771">
        <ele>350.8</ele>
        <time>2018-10-21T08:58:49Z</time>
      </trkpt>
      <trkpt lat="46.35772" lon="2.87699">
        <ele>349.9</ele>
        <time>2018-10-21T08:58:50Z</time>
      </trkpt>
      <trkpt lat="46.35775" lon="2.87689">
        <ele>349.2</ele>
        <time>2018-10-21T08:58:51Z</time>
      </trkpt>
      <trkpt lat="46.35779" lon="2.87679">
        <ele>348.6</ele>
        <time>2018-10-21T08:58:52Z</time>
      </trkpt>
      <trkpt lat="46.35783" lon="2.8767">
        <ele>348.2</ele>
        <time>2018-10-21T08:58:53Z</time>
      </trkpt>
      <trkpt lat="46.35787" lon="2.87659">
        <ele>347.4</ele>
        <time>2018-10-21T08:58:54Z</time>
      </trkpt>
      <trkpt lat="46.35792" lon="2.87649">
        <ele>346.8</ele>
        <time>2018-10-21T08:58:55Z</time>
      </trkpt>
      <trkpt lat="46.35796" lon="2.87638">
        <ele>346.3</ele>
        <time>2018-10-21T08:58:56Z</time>
      </trkpt>
      <trkpt lat="46.35801" lon="2.87627">
        <ele>345.7</ele>
        <time>2018-10-21T08:58:57Z</time>
      </trkpt>
      <trkpt lat="46.35805" lon="2.87616">
        <ele>345.2</ele>
        <time>2018-10-21T08:58:58Z</time>
      </trkpt>
      <trkpt lat="46.3581" lon="2.87604">
        <ele>344.2</ele>
        <time>2018-10-21T08:58:59Z</time>
      </trkpt>
      <trkpt lat="46.35815" lon="2.87593">
        <ele>343.5</ele>
        <time>2018-10-21T08:59:00Z</time>
      </trkpt>
      <trkpt lat="46.3582" lon="2.87581">
        <ele>342.7</ele>
        <time>2018-10-21T08:59:01Z</time>
      </trkpt>
      <trkpt lat="46.35825" lon="2.87569">
        <ele>342.1</ele>
        <time>2018-10-21T08:59:02Z</time>
      </trkpt>
      <trkpt lat="46.35831" lon="2.87557">
        <ele>341.7</ele>
        <time>2018-10-21T08:59:03Z</time>
      </trkpt>
      <trkpt lat="46.35836" lon="2.87545">
        <ele>340.7</ele>
        <time>2018-10-21T08:59:04Z</time>
      </trkpt>
      <trkpt lat="46.35841" lon="2.87533">
        <ele>340</ele>
        <time>2018-10-21T08:59:05Z</time>
      </trkpt>
      <trkpt lat="46.35846" lon="2.8752">
        <ele>339</ele>
        <time>2018-10-21T08:59:06Z</time>
      </trkpt>
      <trkpt lat="46.35848" lon="2.87506">
        <ele>338.3</ele>
        <time>2018-10-21T08:59:07Z</time>
      </trkpt>
      <trkpt lat="46.35849" lon="2.87492">
        <ele>337.2</ele>
        <time>2018-10-21T08:59:08Z</time>
      </trkpt>
      <trkpt lat="46.3585" lon="2.87478">
        <ele>336.4</ele>
        <time>2018-10-21T08:59:09Z</time>
      </trkpt>
      <trkpt lat="46.35852" lon="2.87465">
        <ele>335.8</ele>
        <time>2018-10-21T08:59:10Z</time>
      </trkpt>
      <trkpt lat="46.35854" lon="2.87451">
        <ele>334.7</ele>
        <time>2018-10-21T08:59:11Z</time>
      </trkpt>
      <trkpt lat="46.35856" lon="2.87437">
        <ele>333.9</ele>
        <time>2018-10-21T08:59:12Z</time>
      </trkpt>
      <trkpt lat="46.35859" lon="2.87424">
        <ele>332.9</ele>
        <time>2018-10-21T08:59:13Z</time>
      </trkpt>
      <trkpt lat="46.35862" lon="2.8741">
        <ele>332.1</ele>
        <time>2018-10-21T08:59:14Z</time>
      </trkpt>
      <trkpt lat="46.35863" lon="2.87395">
        <ele>331.5</ele>
        <time>2018-10-21T08:59:15Z</time>
      </trkpt>
      <trkpt lat="46.35863" lon="2.8738">
        <ele>330.3</ele>
        <time>2018-10-21T08:59:16Z</time>
      </trkpt>
      <trkpt lat="46.35863" lon="2.87365">
        <ele>329.5</ele>
        <time>2018-10-21T08:59:17Z</time>
      </trkpt>
      <trkpt lat="46.35863" lon="2.87349">
        <ele>327.9</ele>
        <time>2018-10-21T08:59:18Z</time>
      </trkpt>
      <trkpt lat="46.35863" lon="2.87333">
        <ele>326.7</ele>
        <time>2018-10-21T08:59:19Z</time>
      </trkpt>
      <trkpt lat="46.35863" lon="2.87316">
        <ele>324.9</ele>
        <time>2018-10-21T08:59:20Z</time>
      </trkpt>
      <trkpt lat="46.35863" lon="2.87298">
        <ele>323.5</ele>
        <time>2018-10-21T08:59:21Z</time>
      </trkpt>
      <trkpt lat="46.35863" lon="2.87281">
        <ele>322.5</ele>
        <time>2018-10-21T08:59:22Z</time>
      </trkpt>
      <trkpt lat="46.35863" lon="2.87264">
        <ele>321</ele>
        <time>2018-10-21T08:59:23Z</time>
      </trkpt>
      <trkpt lat="46.35863" lon="2.87248">
        <ele>319.9</ele>
        <time>2018-10-21T08:59:24Z</time>
      </trkpt>
      <trkpt lat="46.35863" lon="2.87233">
        <ele>318.7</ele>
        <time>2018-10-21T08:59:25Z</time>
      </trkpt>
      <trkpt lat="46.35862" lon="2.87218">
        <ele>317.8</ele>
        <time>2018-10-21T08:59:26Z</time>
      </trkpt>
      <trkpt lat="46.35861" lon="2.87203">
        <ele>317.1</ele>
        <time>2018-10-21T08:59:27Z</time>
      </trkpt>
      <trkpt lat="46.35858" lon="2.87188">
        <ele>316.4</ele>
        <time>2018-10-21T08:59:28Z</time>
      </trkpt>
      <trkpt lat="46.35855" lon="2.87173">
        <ele>315.8</ele>
        <time>2018-10-21T08:59:29Z</time>
      </trkpt>
      <trkpt lat="46.35851" lon="2.87159">
        <ele>314.8</ele>
        <time>2018-10-21T08:59:30Z</time>
      </trkpt>
      <trkpt lat="46.35849" lon="2.87146">
        <ele>313.9</ele>
        <time>2018-10-21T08:59:31Z</time>
      </trkpt>
      <trkpt lat="46.35847" lon="2.87134">
        <ele>312.4</ele>
        <time>2018-10-21T08:59:32Z</time>
      </trkpt>
      <trkpt lat="46.35847" lon="2.87123">
        <ele>311.3</ele>
        <time>2018-10-21T08:59:33Z</time>
      </trkpt>
      <trkpt lat="46.35849" lon="2.87113">
        <ele>310.4</ele>
        <time>2018-10-21T08:59:34Z</time>
      </trkpt>
      <trkpt lat="46.35853" lon="2.87106">
        <ele>308.8</ele>
        <time>2018-10-21T08:59:35Z</time>
      </trkpt>
      <trkpt lat="46.3586" lon="2.87104">
        <ele>307</ele>
        <time>2018-10-21T08:59:37Z</time>
      </trkpt>
      <trkpt lat="46.35867" lon="2.87108">
        <ele>306.5</ele>
        <time>2018-10-21T08:59:40Z</time>
      </trkpt>
      <trkpt lat="46.35874" lon="2.87112">
        <ele>306.3</ele>
        <time>2018-10-21T08:59:43Z</time>
      </trkpt>
      <trkpt lat="46.3588" lon="2.87118">
        <ele>307.1</ele>
        <time>2018-10-21T08:59:45Z</time>
      </trkpt>
      <trkpt lat="46.35886" lon="2.87124">
        <ele>307.3</ele>
        <time>2018-10-21T08:59:47Z</time>
      </trkpt>
      <trkpt lat="46.35892" lon="2.87131">
        <ele>307.3</ele>
        <time>2018-10-21T08:59:49Z</time>
      </trkpt>
      <trkpt lat="46.35897" lon="2.87138">
        <ele>307.5</ele>
        <time>2018-10-21T08:59:51Z</time>
      </trkpt>
      <trkpt lat="46.35901" lon="2.87147">
        <ele>307.7</ele>
        <time>2018-10-21T08:59:53Z</time>
      </trkpt>
      <trkpt lat="46.35906" lon="2.87155">
        <ele>307.4</ele>
        <time>2018-10-21T08:59:55Z</time>
      </trkpt>
      <trkpt lat="46.3591" lon="2.87164">
        <ele>307.8</ele>
        <time>2018-10-21T08:59:57Z</time>
      </trkpt>
      <trkpt lat="46.35914" lon="2.87172">
        <ele>308</ele>
        <time>2018-10-21T08:59:59Z</time>
      </trkpt>
      <trkpt lat="46.35915" lon="2.87177">
        <ele>308</ele>
        <time>2018-10-21T09:00:00Z</time>
      </trkpt>
      <trkpt lat="46.3592" lon="2.87191">
        <ele>308.2</ele>
        <time>2018-10-21T09:00:03Z</time>
      </trkpt>
      <trkpt lat="46.35924" lon="2.87199">
        <ele>307.9</ele>
        <time>2018-10-21T09:00:05Z</time>
      </trkpt>
      <trkpt lat="46.35928" lon="2.87208">
        <ele>308.5</ele>
        <time>2018-10-21T09:00:07Z</time>
      </trkpt>
      <trkpt lat="46.35932" lon="2.87217">
        <ele>309.4</ele>
        <time>2018-10-21T09:00:09Z</time>
      </trkpt>
      <trkpt lat="46.35937" lon="2.87225">
        <ele>309.7</ele>
        <time>2018-10-21T09:00:11Z</time>
      </trkpt>
      <trkpt lat="46.35941" lon="2.87233">
        <ele>309.7</ele>
        <time>2018-10-21T09:00:13Z</time>
      </trkpt>
      <trkpt lat="46.35946" lon="2.87241">
        <ele>309.6</ele>
        <time>2018-10-21T09:00:15Z</time>
      </trkpt>
      <trkpt lat="46.3595" lon="2.87249">
        <ele>309.5</ele>
        <time>2018-10-21T09:00:17Z</time>
      </trkpt>
      <trkpt lat="46.35955" lon="2.87257">
        <ele>310.1</ele>
        <time>2018-10-21T09:00:19Z</time>
      </trkpt>
      <trkpt lat="46.35959" lon="2.87266">
        <ele>310.4</ele>
        <time>2018-10-21T09:00:21Z</time>
      </trkpt>
      <trkpt lat="46.35963" lon="2.87274">
        <ele>311.4</ele>
        <time>2018-10-21T09:00:23Z</time>
      </trkpt>
      <trkpt lat="46.35967" lon="2.87282">
        <ele>311.3</ele>
        <time>2018-10-21T09:00:25Z</time>
      </trkpt>
      <trkpt lat="46.35971" lon="2.8729">
        <ele>311.2</ele>
        <time>2018-10-21T09:00:27Z</time>
      </trkpt>
      <trkpt lat="46.35975" lon="2.87299">
        <ele>311.3</ele>
        <time>2018-10-21T09:00:29Z</time>
      </trkpt>
      <trkpt lat="46.35979" lon="2.87308">
        <ele>311.2</ele>
        <time>2018-10-21T09:00:31Z</time>
      </trkpt>
      <trkpt lat="46.35984" lon="2.87316">
        <ele>310.6</ele>
        <time>2018-10-21T09:00:33Z</time>
      </trkpt>
      <trkpt lat="46.35989" lon="2.87324">
        <ele>310.4</ele>
        <time>2018-10-21T09:00:35Z</time>
      </trkpt>
      <trkpt lat="46.35994" lon="2.87332">
        <ele>310.2</ele>
        <time>2018-10-21T09:00:37Z</time>
      </trkpt>
      <trkpt lat="46.35999" lon="2.87339">
        <ele>310.1</ele>
        <time>2018-10-21T09:00:39Z</time>
      </trkpt>
      <trkpt lat="46.36004" lon="2.87346">
        <ele>310.4</ele>
        <time>2018-10-21T09:00:41Z</time>
      </trkpt>
      <trkpt lat="46.36009" lon="2.87353">
        <ele>310.8</ele>
        <time>2018-10-21T09:00:43Z</time>
      </trkpt>
      <trkpt lat="46.36014" lon="2.8736">
        <ele>311</ele>
        <time>2018-10-21T09:00:45Z</time>
      </trkpt>
      <trkpt lat="46.36019" lon="2.87366">
        <ele>311.4</ele>
        <time>2018-10-21T09:00:47Z</time>
      </trkpt>
      <trkpt lat="46.36024" lon="2.87373">
        <ele>311.6</ele>
        <time>2018-10-21T09:00:49Z</time>
      </trkpt>
      <trkpt lat="46.3603" lon="2.87378">
        <ele>312.1</ele>
        <time>2018-10-21T09:00:51Z</time>
      </trkpt>
      <trkpt lat="46.36035" lon="2.87383">
        <ele>312.9</ele>
        <time>2018-10-21T09:00:53Z</time>
      </trkpt>
      <trkpt lat="46.36041" lon="2.87386">
        <ele>313.6</ele>
        <time>2018-10-21T09:00:55Z</time>
      </trkpt>
      <trkpt lat="46.36046" lon="2.87389">
        <ele>313.8</ele>
        <time>2018-10-21T09:00:57Z</time>
      </trkpt>
      <trkpt lat="46.36052" lon="2.87393">
        <ele>314.6</ele>
        <time>2018-10-21T09:00:59Z</time>
      </trkpt>
      <trkpt lat="46.36058" lon="2.87398">
        <ele>314.8</ele>
        <time>2018-10-21T09:01:01Z</time>
      </trkpt>
      <trkpt lat="46.36061" lon="2.87402">
        <ele>314.8</ele>
        <time>2018-10-21T09:01:02Z</time>
      </trkpt>
      <trkpt lat="46.36071" lon="2.87413">
        <ele>313.9</ele>
        <time>2018-10-21T09:01:05Z</time>
      </trkpt>
      <trkpt lat="46.36078" lon="2.87422">
        <ele>313.5</ele>
        <time>2018-10-21T09:01:07Z</time>
      </trkpt>
      <trkpt lat="46.36081" lon="2.87426">
        <ele>313.2</ele>
        <time>2018-10-21T09:01:08Z</time>
      </trkpt>
      <trkpt lat="46.36084" lon="2.87431">
        <ele>313</ele>
        <time>2018-10-21T09:01:09Z</time>
      </trkpt>
      <trkpt lat="46.36088" lon="2.87435">
        <ele>312.7</ele>
        <time>2018-10-21T09:01:10Z</time>
      </trkpt>
      <trkpt lat="46.36091" lon="2.8744">
        <ele>312.6</ele>
        <time>2018-10-21T09:01:11Z</time>
      </trkpt>
      <trkpt lat="46.36094" lon="2.87445">
        <ele>313.2</ele>
        <time>2018-10-21T09:01:12Z</time>
      </trkpt>
      <trkpt lat="46.36098" lon="2.87449">
        <ele>313.7</ele>
        <time>2018-10-21T09:01:13Z</time>
      </trkpt>
      <trkpt lat="46.36104" lon="2.87458">
        <ele>314.2</ele>
        <time>2018-10-21T09:01:15Z</time>
      </trkpt>
      <trkpt lat="46.3611" lon="2.87465">
        <ele>314</ele>
        <time>2018-10-21T09:01:17Z</time>
      </trkpt>
      <trkpt lat="46.36116" lon="2.87471">
        <ele>313.4</ele>
        <time>2018-10-21T09:01:19Z</time>
      </trkpt>
      <trkpt lat="46.36123" lon="2.87475">
        <ele>312.9</ele>
        <time>2018-10-21T09:01:21Z</time>
      </trkpt>
      <trkpt lat="46.3613" lon="2.87479">
        <ele>313.1</ele>
        <time>2018-10-21T09:01:23Z</time>
      </trkpt>
      <trkpt lat="46.36136" lon="2.87483">
        <ele>313.5</ele>
        <time>2018-10-21T09:01:25Z</time>
      </trkpt>
      <trkpt lat="46.36142" lon="2.87487">
        <ele>314</ele>
        <time>2018-10-21T09:01:27Z</time>
      </trkpt>
      <trkpt lat="46.36147" lon="2.87491">
        <ele>314.5</ele>
        <time>2018-10-21T09:01:29Z</time>
      </trkpt>
      <trkpt lat="46.36153" lon="2.87495">
        <ele>315</ele>
        <time>2018-10-21T09:01:31Z</time>
      </trkpt>
      <trkpt lat="46.36158" lon="2.875">
        <ele>315.6</ele>
        <time>2018-10-21T09:01:33Z</time>
      </trkpt>
      <trkpt lat="46.36164" lon="2.87505">
        <ele>315.6</ele>
        <time>2018-10-21T09:01:35Z</time>
      </trkpt>
      <trkpt lat="46.3617" lon="2.87511">
        <ele>316.4</ele>
        <time>2018-10-21T09:01:38Z</time>
      </trkpt>
      <trkpt lat="46.36176" lon="2.87518">
        <ele>317.3</ele>
        <time>2018-10-21T09:01:41Z</time>
      </trkpt>
      <trkpt lat="46.36181" lon="2.87524">
        <ele>318.1</ele>
        <time>2018-10-21T09:01:43Z</time>
      </trkpt>
      <trkpt lat="46.36188" lon="2.87533">
        <ele>318.9</ele>
        <time>2018-10-21T09:01:46Z</time>
      </trkpt>
      <trkpt lat="46.36194" lon="2.87541">
        <ele>319.5</ele>
        <time>2018-10-21T09:01:49Z</time>
      </trkpt>
      <trkpt lat="46.36199" lon="2.8755">
        <ele>320.2</ele>
        <time>2018-10-21T09:01:52Z</time>
      </trkpt>
      <trkpt lat="46.36206" lon="2.87559">
        <ele>321.1</ele>
        <time>2018-10-21T09:01:55Z</time>
      </trkpt>
      <trkpt lat="46.3621" lon="2.87566">
        <ele>321.4</ele>
        <time>2018-10-21T09:01:57Z</time>
      </trkpt>
      <trkpt lat="46.36216" lon="2.87575">
        <ele>321.1</ele>
        <time>2018-10-21T09:02:00Z</time>
      </trkpt>
      <trkpt lat="46.36222" lon="2.87584">
        <ele>321.6</ele>
        <time>2018-10-21T09:02:03Z</time>
      </trkpt>
      <trkpt lat="46.36224" lon="2.87587">
        <ele>321.9</ele>
        <time>2018-10-21T09:02:04Z</time>
      </trkpt>
      <trkpt lat="46.36233" lon="2.87603">
        <ele>322.4</ele>
        <time>2018-10-21T09:02:09Z</time>
      </trkpt>
      <trkpt lat="46.36237" lon="2.87614">
        <ele>322.7</ele>
        <time>2018-10-21T09:02:12Z</time>
      </trkpt>
      <trkpt lat="46.36242" lon="2.87625">
        <ele>323</ele>
        <time>2018-10-21T09:02:15Z</time>
      </trkpt>
      <trkpt lat="46.36246" lon="2.87635">
        <ele>323.7</ele>
        <time>2018-10-21T09:02:18Z</time>
      </trkpt>
      <trkpt lat="46.3625" lon="2.87646">
        <ele>323.7</ele>
        <time>2018-10-21T09:02:21Z</time>
      </trkpt>
      <trkpt lat="46.36253" lon="2.87654">
        <ele>324.1</ele>
        <time>2018-10-21T09:02:23Z</time>
      </trkpt>
      <trkpt lat="46.36257" lon="2.87662">
        <ele>324.1</ele>
        <time>2018-10-21T09:02:25Z</time>
      </trkpt>
      <trkpt lat="46.3626" lon="2.8767">
        <ele>324.4</ele>
        <time>2018-10-21T09:02:27Z</time>
      </trkpt>
      <trkpt lat="46.36263" lon="2.87678">
        <ele>324.4</ele>
        <time>2018-10-21T09:02:29Z</time>
      </trkpt>
      <trkpt lat="46.36266" lon="2.87687">
        <ele>324.7</ele>
        <time>2018-10-21T09:02:31Z</time>
      </trkpt>
      <trkpt lat="46.36267" lon="2.87695">
        <ele>324.9</ele>
        <time>2018-10-21T09:02:33Z</time>
      </trkpt>
      <trkpt lat="46.36267" lon="2.87704">
        <ele>324.8</ele>
        <time>2018-10-21T09:02:35Z</time>
      </trkpt>
      <trkpt lat="46.36268" lon="2.87713">
        <ele>324.2</ele>
        <time>2018-10-21T09:02:37Z</time>
      </trkpt>
      <trkpt lat="46.36271" lon="2.87721">
        <ele>324.4</ele>
        <time>2018-10-21T09:02:39Z</time>
      </trkpt>
      <trkpt lat="46.36276" lon="2.87732">
        <ele>324.2</ele>
        <time>2018-10-21T09:02:41Z</time>
      </trkpt>
      <trkpt lat="46.36278" lon="2.87738">
        <ele>324.2</ele>
        <time>2018-10-21T09:02:42Z</time>
      </trkpt>
      <trkpt lat="46.3628" lon="2.87744">
        <ele>324</ele>
        <time>2018-10-21T09:02:43Z</time>
      </trkpt>
      <trkpt lat="46.36282" lon="2.8775">
        <ele>324</ele>
        <time>2018-10-21T09:02:44Z</time>
      </trkpt>
      <trkpt lat="46.36285" lon="2.87755">
        <ele>324.2</ele>
        <time>2018-10-21T09:02:45Z</time>
      </trkpt>
      <trkpt lat="46.36287" lon="2.87761">
        <ele>324.3</ele>
        <time>2018-10-21T09:02:46Z</time>
      </trkpt>
      <trkpt lat="46.3629" lon="2.87767">
        <ele>324.4</ele>
        <time>2018-10-21T09:02:47Z</time>
      </trkpt>
      <trkpt lat="46.36292" lon="2.87773">
        <ele>324.3</ele>
        <time>2018-10-21T09:02:48Z</time>
      </trkpt>
      <trkpt lat="46.36295" lon="2.87779">
        <ele>324.1</ele>
        <time>2018-10-21T09:02:49Z</time>
      </trkpt>
      <trkpt lat="46.36297" lon="2.87784">
        <ele>324.2</ele>
        <time>2018-10-21T09:02:50Z</time>
      </trkpt>
      <trkpt lat="46.363" lon="2.8779">
        <ele>324.3</ele>
        <time>2018-10-21T09:02:51Z</time>
      </trkpt>
      <trkpt lat="46.36303" lon="2.87795">
        <ele>323.9</ele>
        <time>2018-10-21T09:02:52Z</time>
      </trkpt>
      <trkpt lat="46.36306" lon="2.878">
        <ele>323.7</ele>
        <time>2018-10-21T09:02:53Z</time>
      </trkpt>
      <trkpt lat="46.36312" lon="2.8781">
        <ele>323.7</ele>
        <time>2018-10-21T09:02:55Z</time>
      </trkpt>
      <trkpt lat="46.36318" lon="2.87819">
        <ele>323.9</ele>
        <time>2018-10-21T09:02:57Z</time>
      </trkpt>
      <trkpt lat="46.36324" lon="2.87828">
        <ele>323.8</ele>
        <time>2018-10-21T09:02:59Z</time>
      </trkpt>
      <trkpt lat="46.36329" lon="2.87836">
        <ele>323.6</ele>
        <time>2018-10-21T09:03:01Z</time>
      </trkpt>
      <trkpt lat="46.36332" lon="2.87846">
        <ele>323.5</ele>
        <time>2018-10-21T09:03:03Z</time>
      </trkpt>
      <trkpt lat="46.36333" lon="2.87855">
        <ele>324</ele>
        <time>2018-10-21T09:03:05Z</time>
      </trkpt>
      <trkpt lat="46.36334" lon="2.8786">
        <ele>324.1</ele>
        <time>2018-10-21T09:03:06Z</time>
      </trkpt>
      <trkpt lat="46.36335" lon="2.87874">
        <ele>324.5</ele>
        <time>2018-10-21T09:03:09Z</time>
      </trkpt>
      <trkpt lat="46.36336" lon="2.87883">
        <ele>325.4</ele>
        <time>2018-10-21T09:03:11Z</time>
      </trkpt>
      <trkpt lat="46.36339" lon="2.87896">
        <ele>326.2</ele>
        <time>2018-10-21T09:03:14Z</time>
      </trkpt>
      <trkpt lat="46.36341" lon="2.87907">
        <ele>327</ele>
        <time>2018-10-21T09:03:17Z</time>
      </trkpt>
      <trkpt lat="46.36343" lon="2.87918">
        <ele>327.4</ele>
        <time>2018-10-21T09:03:20Z</time>
      </trkpt>
      <trkpt lat="46.36344" lon="2.8793">
        <ele>327.8</ele>
        <time>2018-10-21T09:03:23Z</time>
      </trkpt>
      <trkpt lat="46.36346" lon="2.87941">
        <ele>328.6</ele>
        <time>2018-10-21T09:03:26Z</time>
      </trkpt>
      <trkpt lat="46.36348" lon="2.87952">
        <ele>329.2</ele>
        <time>2018-10-21T09:03:29Z</time>
      </trkpt>
      <trkpt lat="46.36351" lon="2.87962">
        <ele>329.7</ele>
        <time>2018-10-21T09:03:32Z</time>
      </trkpt>
      <trkpt lat="46.36353" lon="2.87972">
        <ele>330.1</ele>
        <time>2018-10-21T09:03:35Z</time>
      </trkpt>
      <trkpt lat="46.36358" lon="2.87982">
        <ele>329.9</ele>
        <time>2018-10-21T09:03:38Z</time>
      </trkpt>
      <trkpt lat="46.36363" lon="2.87992">
        <ele>330.4</ele>
        <time>2018-10-21T09:03:41Z</time>
      </trkpt>
      <trkpt lat="46.36368" lon="2.88002">
        <ele>331.7</ele>
        <time>2018-10-21T09:03:44Z</time>
      </trkpt>
      <trkpt lat="46.36374" lon="2.88011">
        <ele>332.4</ele>
        <time>2018-10-21T09:03:47Z</time>
      </trkpt>
      <trkpt lat="46.36379" lon="2.88021">
        <ele>333.3</ele>
        <time>2018-10-21T09:03:50Z</time>
      </trkpt>
      <trkpt lat="46.36384" lon="2.88032">
        <ele>333.2</ele>
        <time>2018-10-21T09:03:53Z</time>
      </trkpt>
      <trkpt lat="46.3639" lon="2.88041">
        <ele>334.8</ele>
        <time>2018-10-21T09:03:56Z</time>
      </trkpt>
      <trkpt lat="46.36393" lon="2.88047">
        <ele>335.2</ele>
        <time>2018-10-21T09:03:58Z</time>
      </trkpt>
      <trkpt lat="46.36398" lon="2.88054">
        <ele>335.5</ele>
        <time>2018-10-21T09:04:00Z</time>
      </trkpt>
      <trkpt lat="46.36402" lon="2.8806">
        <ele>335.9</ele>
        <time>2018-10-21T09:04:02Z</time>
      </trkpt>
      <trkpt lat="46.36407" lon="2.88065">
        <ele>336</ele>
        <time>2018-10-21T09:04:04Z</time>
      </trkpt>
      <trkpt lat="46.36412" lon="2.8807">
        <ele>336.3</ele>
        <time>2018-10-21T09:04:06Z</time>
      </trkpt>
      <trkpt lat="46.36418" lon="2.88076">
        <ele>336.7</ele>
        <time>2018-10-21T09:04:08Z</time>
      </trkpt>
      <trkpt lat="46.3642" lon="2.88079">
        <ele>336.9</ele>
        <time>2018-10-21T09:04:09Z</time>
      </trkpt>
      <trkpt lat="46.36429" lon="2.88089">
        <ele>337.2</ele>
        <time>2018-10-21T09:04:12Z</time>
      </trkpt>
      <trkpt lat="46.36436" lon="2.88096">
        <ele>337</ele>
        <time>2018-10-21T09:04:14Z</time>
      </trkpt>
      <trkpt lat="46.36443" lon="2.88103">
        <ele>336.8</ele>
        <time>2018-10-21T09:04:16Z</time>
      </trkpt>
      <trkpt lat="46.3645" lon="2.8811">
        <ele>337.1</ele>
        <time>2018-10-21T09:04:18Z</time>
      </trkpt>
      <trkpt lat="46.36456" lon="2.88118">
        <ele>337.4</ele>
        <time>2018-10-21T09:04:20Z</time>
      </trkpt>
      <trkpt lat="46.36463" lon="2.88125">
        <ele>337.5</ele>
        <time>2018-10-21T09:04:22Z</time>
      </trkpt>
      <trkpt lat="46.3647" lon="2.88134">
        <ele>337.1</ele>
        <time>2018-10-21T09:04:24Z</time>
      </trkpt>
      <trkpt lat="46.36475" lon="2.88143">
        <ele>336.5</ele>
        <time>2018-10-21T09:04:26Z</time>
      </trkpt>
      <trkpt lat="46.3648" lon="2.88153">
        <ele>336.8</ele>
        <time>2018-10-21T09:04:28Z</time>
      </trkpt>
      <trkpt lat="46.36485" lon="2.88163">
        <ele>337.3</ele>
        <time>2018-10-21T09:04:30Z</time>
      </trkpt>
      <trkpt lat="46.36488" lon="2.88173">
        <ele>337.1</ele>
        <time>2018-10-21T09:04:32Z</time>
      </trkpt>
      <trkpt lat="46.36493" lon="2.88184">
        <ele>336.8</ele>
        <time>2018-10-21T09:04:34Z</time>
      </trkpt>
      <trkpt lat="46.36497" lon="2.88194">
        <ele>337.3</ele>
        <time>2018-10-21T09:04:36Z</time>
      </trkpt>
      <trkpt lat="46.36502" lon="2.88205">
        <ele>336.8</ele>
        <time>2018-10-21T09:04:38Z</time>
      </trkpt>
      <trkpt lat="46.36507" lon="2.88215">
        <ele>336.5</ele>
        <time>2018-10-21T09:04:40Z</time>
      </trkpt>
      <trkpt lat="46.36513" lon="2.88225">
        <ele>336.7</ele>
        <time>2018-10-21T09:04:42Z</time>
      </trkpt>
      <trkpt lat="46.36519" lon="2.88235">
        <ele>336.8</ele>
        <time>2018-10-21T09:04:44Z</time>
      </trkpt>
      <trkpt lat="46.36522" lon="2.88239">
        <ele>336.8</ele>
        <time>2018-10-21T09:04:45Z</time>
      </trkpt>
      <trkpt lat="46.36525" lon="2.88244">
        <ele>336.7</ele>
        <time>2018-10-21T09:04:46Z</time>
      </trkpt>
      <trkpt lat="46.36529" lon="2.88248">
        <ele>336.6</ele>
        <time>2018-10-21T09:04:47Z</time>
      </trkpt>
      <trkpt lat="46.36533" lon="2.88252">
        <ele>336.5</ele>
        <time>2018-10-21T09:04:48Z</time>
      </trkpt>
      <trkpt lat="46.36537" lon="2.88255">
        <ele>336.5</ele>
        <time>2018-10-21T09:04:49Z</time>
      </trkpt>
      <trkpt lat="46.36542" lon="2.88258">
        <ele>336.4</ele>
        <time>2018-10-21T09:04:50Z</time>
      </trkpt>
      <trkpt lat="46.36547" lon="2.88261">
        <ele>336.1</ele>
        <time>2018-10-21T09:04:51Z</time>
      </trkpt>
      <trkpt lat="46.36552" lon="2.88263">
        <ele>335.9</ele>
        <time>2018-10-21T09:04:52Z</time>
      </trkpt>
      <trkpt lat="46.36556" lon="2.88265">
        <ele>335.7</ele>
        <time>2018-10-21T09:04:53Z</time>
      </trkpt>
      <trkpt lat="46.36561" lon="2.88268">
        <ele>335.6</ele>
        <time>2018-10-21T09:04:54Z</time>
      </trkpt>
      <trkpt lat="46.36566" lon="2.8827">
        <ele>335.6</ele>
        <time>2018-10-21T09:04:55Z</time>
      </trkpt>
      <trkpt lat="46.36571" lon="2.88273">
        <ele>335.8</ele>
        <time>2018-10-21T09:04:56Z</time>
      </trkpt>
      <trkpt lat="46.36575" lon="2.88275">
        <ele>335.9</ele>
        <time>2018-10-21T09:04:57Z</time>
      </trkpt>
      <trkpt lat="46.3658" lon="2.88277">
        <ele>336</ele>
        <time>2018-10-21T09:04:58Z</time>
      </trkpt>
      <trkpt lat="46.36585" lon="2.88279">
        <ele>336</ele>
        <time>2018-10-21T09:04:59Z</time>
      </trkpt>
      <trkpt lat="46.36589" lon="2.88282">
        <ele>336</ele>
        <time>2018-10-21T09:05:00Z</time>
      </trkpt>
      <trkpt lat="46.36594" lon="2.88284">
        <ele>335.9</ele>
        <time>2018-10-21T09:05:01Z</time>
      </trkpt>
      <trkpt lat="46.36598" lon="2.88286">
        <ele>335.9</ele>
        <time>2018-10-21T09:05:02Z</time>
      </trkpt>
      <trkpt lat="46.36602" lon="2.88289">
        <ele>336.1</ele>
        <time>2018-10-21T09:05:03Z</time>
      </trkpt>
      <trkpt lat="46.36607" lon="2.88292">
        <ele>336.3</ele>
        <time>2018-10-21T09:05:04Z</time>
      </trkpt>
      <trkpt lat="46.36611" lon="2.88295">
        <ele>336.4</ele>
        <time>2018-10-21T09:05:05Z</time>
      </trkpt>
      <trkpt lat="46.36615" lon="2.88298">
        <ele>336.3</ele>
        <time>2018-10-21T09:05:06Z</time>
      </trkpt>
      <trkpt lat="46.36619" lon="2.88301">
        <ele>336.1</ele>
        <time>2018-10-21T09:05:07Z</time>
      </trkpt>
      <trkpt lat="46.36623" lon="2.88305">
        <ele>336.5</ele>
        <time>2018-10-21T09:05:08Z</time>
      </trkpt>
      <trkpt lat="46.36626" lon="2.88309">
        <ele>336.7</ele>
        <time>2018-10-21T09:05:09Z</time>
      </trkpt>
      <trkpt lat="46.3663" lon="2.88313">
        <ele>336.5</ele>
        <time>2018-10-21T09:05:10Z</time>
      </trkpt>
      <trkpt lat="46.36641" lon="2.88324">
        <ele>336.4</ele>
        <time>2018-10-21T09:05:13Z</time>
      </trkpt>
      <trkpt lat="46.36645" lon="2.88328">
        <ele>336.6</ele>
        <time>2018-10-21T09:05:14Z</time>
      </trkpt>
      <trkpt lat="46.36648" lon="2.88332">
        <ele>336.4</ele>
        <time>2018-10-21T09:05:15Z</time>
      </trkpt>
      <trkpt lat="46.36652" lon="2.88335">
        <ele>336.3</ele>
        <time>2018-10-21T09:05:16Z</time>
      </trkpt>
      <trkpt lat="46.36656" lon="2.88339">
        <ele>336.2</ele>
        <time>2018-10-21T09:05:17Z</time>
      </trkpt>
      <trkpt lat="46.36663" lon="2.88346">
        <ele>336</ele>
        <time>2018-10-21T09:05:19Z</time>
      </trkpt>
      <trkpt lat="46.3667" lon="2.88353">
        <ele>336.5</ele>
        <time>2018-10-21T09:05:21Z</time>
      </trkpt>
      <trkpt lat="46.36677" lon="2.8836">
        <ele>336.8</ele>
        <time>2018-10-21T09:05:23Z</time>
      </trkpt>
      <trkpt lat="46.36683" lon="2.88364">
        <ele>337</ele>
        <time>2018-10-21T09:05:25Z</time>
      </trkpt>
      <trkpt lat="46.3669" lon="2.8836">
        <ele>337.1</ele>
        <time>2018-10-21T09:05:27Z</time>
      </trkpt>
      <trkpt lat="46.36694" lon="2.88356">
        <ele>337.1</ele>
        <time>2018-10-21T09:05:28Z</time>
      </trkpt>
      <trkpt lat="46.36697" lon="2.88351">
        <ele>337.1</ele>
        <time>2018-10-21T09:05:29Z</time>
      </trkpt>
      <trkpt lat="46.36701" lon="2.88345">
        <ele>337.2</ele>
        <time>2018-10-21T09:05:30Z</time>
      </trkpt>
      <trkpt lat="46.36704" lon="2.88339">
        <ele>337.2</ele>
        <time>2018-10-21T09:05:31Z</time>
      </trkpt>
      <trkpt lat="46.36708" lon="2.88333">
        <ele>337.3</ele>
        <time>2018-10-21T09:05:32Z</time>
      </trkpt>
      <trkpt lat="46.36711" lon="2.88328">
        <ele>337.4</ele>
        <time>2018-10-21T09:05:33Z</time>
      </trkpt>
      <trkpt lat="46.36714" lon="2.88322">
        <ele>337</ele>
        <time>2018-10-21T09:05:34Z</time>
      </trkpt>
      <trkpt lat="46.36717" lon="2.88316">
        <ele>336.7</ele>
        <time>2018-10-21T09:05:35Z</time>
      </trkpt>
      <trkpt lat="46.3672" lon="2.88311">
        <ele>336.5</ele>
        <time>2018-10-21T09:05:36Z</time>
      </trkpt>
      <trkpt lat="46.36723" lon="2.88306">
        <ele>336.8</ele>
        <time>2018-10-21T09:05:37Z</time>
      </trkpt>
      <trkpt lat="46.36728" lon="2.88296">
        <ele>336.6</ele>
        <time>2018-10-21T09:05:39Z</time>
      </trkpt>
      <trkpt lat="46.36734" lon="2.88286">
        <ele>336</ele>
        <time>2018-10-21T09:05:41Z</time>
      </trkpt>
      <trkpt lat="46.36739" lon="2.88277">
        <ele>335.6</ele>
        <time>2018-10-21T09:05:43Z</time>
      </trkpt>
      <trkpt lat="46.36742" lon="2.88272">
        <ele>335.7</ele>
        <time>2018-10-21T09:05:44Z</time>
      </trkpt>
      <trkpt lat="46.36745" lon="2.88266">
        <ele>335.7</ele>
        <time>2018-10-21T09:05:45Z</time>
      </trkpt>
      <trkpt lat="46.36748" lon="2.88261">
        <ele>335.8</ele>
        <time>2018-10-21T09:05:46Z</time>
      </trkpt>
      <trkpt lat="46.36751" lon="2.88256">
        <ele>335.8</ele>
        <time>2018-10-21T09:05:47Z</time>
      </trkpt>
      <trkpt lat="46.36754" lon="2.8825">
        <ele>335.9</ele>
        <time>2018-10-21T09:05:48Z</time>
      </trkpt>
      <trkpt lat="46.36757" lon="2.88244">
        <ele>335.4</ele>
        <time>2018-10-21T09:05:49Z</time>
      </trkpt>
      <trkpt lat="46.3676" lon="2.88238">
        <ele>335</ele>
        <time>2018-10-21T09:05:50Z</time>
      </trkpt>
      <trkpt lat="46.36762" lon="2.88233">
        <ele>335</ele>
        <time>2018-10-21T09:05:51Z</time>
      </trkpt>
      <trkpt lat="46.36765" lon="2.88227">
        <ele>335</ele>
        <time>2018-10-21T09:05:52Z</time>
      </trkpt>
      <trkpt lat="46.36768" lon="2.88221">
        <ele>335</ele>
        <time>2018-10-21T09:05:53Z</time>
      </trkpt>
      <trkpt lat="46.36771" lon="2.88215">
        <ele>335</ele>
        <time>2018-10-21T09:05:54Z</time>
      </trkpt>
      <trkpt lat="46.36774" lon="2.88209">
        <ele>335</ele>
        <time>2018-10-21T09:05:55Z</time>
      </trkpt>
      <trkpt lat="46.36777" lon="2.88203">
        <ele>335.1</ele>
        <time>2018-10-21T09:05:56Z</time>
      </trkpt>
      <trkpt lat="46.3678" lon="2.88197">
        <ele>335.1</ele>
        <time>2018-10-21T09:05:57Z</time>
      </trkpt>
      <trkpt lat="46.36783" lon="2.88191">
        <ele>335.1</ele>
        <time>2018-10-21T09:05:58Z</time>
      </trkpt>
      <trkpt lat="46.36786" lon="2.88185">
        <ele>335.1</ele>
        <time>2018-10-21T09:05:59Z</time>
      </trkpt>
      <trkpt lat="46.36789" lon="2.88179">
        <ele>334.8</ele>
        <time>2018-10-21T09:06:00Z</time>
      </trkpt>
      <trkpt lat="46.36792" lon="2.88173">
        <ele>334.6</ele>
        <time>2018-10-21T09:06:01Z</time>
      </trkpt>
      <trkpt lat="46.36795" lon="2.88167">
        <ele>334.4</ele>
        <time>2018-10-21T09:06:02Z</time>
      </trkpt>
      <trkpt lat="46.36798" lon="2.88161">
        <ele>334.3</ele>
        <time>2018-10-21T09:06:03Z</time>
      </trkpt>
      <trkpt lat="46.36801" lon="2.88156">
        <ele>334.3</ele>
        <time>2018-10-21T09:06:04Z</time>
      </trkpt>
      <trkpt lat="46.36804" lon="2.8815">
        <ele>333.8</ele>
        <time>2018-10-21T09:06:05Z</time>
      </trkpt>
      <trkpt lat="46.36806" lon="2.88144">
        <ele>333.5</ele>
        <time>2018-10-21T09:06:06Z</time>
      </trkpt>
      <trkpt lat="46.36809" lon="2.88139">
        <ele>333.3</ele>
        <time>2018-10-21T09:06:07Z</time>
      </trkpt>
      <trkpt lat="46.36812" lon="2.88133">
        <ele>333.3</ele>
        <time>2018-10-21T09:06:08Z</time>
      </trkpt>
      <trkpt lat="46.36815" lon="2.88128">
        <ele>333.4</ele>
        <time>2018-10-21T09:06:09Z</time>
      </trkpt>
      <trkpt lat="46.36818" lon="2.88123">
        <ele>333.2</ele>
        <time>2018-10-21T09:06:10Z</time>
      </trkpt>
      <trkpt lat="46.36821" lon="2.88116">
        <ele>333</ele>
        <time>2018-10-21T09:06:11Z</time>
      </trkpt>
      <trkpt lat="46.36824" lon="2.8811">
        <ele>333.1</ele>
        <time>2018-10-21T09:06:12Z</time>
      </trkpt>
      <trkpt lat="46.36826" lon="2.88104">
        <ele>333.1</ele>
        <time>2018-10-21T09:06:13Z</time>
      </trkpt>
      <trkpt lat="46.36829" lon="2.88097">
        <ele>333.1</ele>
        <time>2018-10-21T09:06:14Z</time>
      </trkpt>
      <trkpt lat="46.36832" lon="2.88091">
        <ele>333.1</ele>
        <time>2018-10-21T09:06:15Z</time>
      </trkpt>
      <trkpt lat="46.36835" lon="2.88085">
        <ele>333</ele>
        <time>2018-10-21T09:06:16Z</time>
      </trkpt>
      <trkpt lat="46.36838" lon="2.8808">
        <ele>333</ele>
        <time>2018-10-21T09:06:17Z</time>
      </trkpt>
      <trkpt lat="46.3684" lon="2.88074">
        <ele>333</ele>
        <time>2018-10-21T09:06:18Z</time>
      </trkpt>
      <trkpt lat="46.36843" lon="2.88068">
        <ele>333.3</ele>
        <time>2018-10-21T09:06:19Z</time>
      </trkpt>
      <trkpt lat="46.36848" lon="2.88058">
        <ele>333.7</ele>
        <time>2018-10-21T09:06:21Z</time>
      </trkpt>
      <trkpt lat="46.36852" lon="2.88047">
        <ele>333.4</ele>
        <time>2018-10-21T09:06:23Z</time>
      </trkpt>
      <trkpt lat="46.36858" lon="2.88037">
        <ele>333.3</ele>
        <time>2018-10-21T09:06:25Z</time>
      </trkpt>
      <trkpt lat="46.3686" lon="2.88031">
        <ele>333.3</ele>
        <time>2018-10-21T09:06:26Z</time>
      </trkpt>
      <trkpt lat="46.36863" lon="2.88026">
        <ele>333.4</ele>
        <time>2018-10-21T09:06:27Z</time>
      </trkpt>
      <trkpt lat="46.36865" lon="2.8802">
        <ele>333.5</ele>
        <time>2018-10-21T09:06:28Z</time>
      </trkpt>
      <trkpt lat="46.3687" lon="2.8801">
        <ele>332.6</ele>
        <time>2018-10-21T09:06:30Z</time>
      </trkpt>
      <trkpt lat="46.36875" lon="2.88">
        <ele>333.1</ele>
        <time>2018-10-21T09:06:32Z</time>
      </trkpt>
      <trkpt lat="46.36879" lon="2.8799">
        <ele>333.2</ele>
        <time>2018-10-21T09:06:34Z</time>
      </trkpt>
      <trkpt lat="46.36884" lon="2.87979">
        <ele>333.3</ele>
        <time>2018-10-21T09:06:36Z</time>
      </trkpt>
      <trkpt lat="46.36889" lon="2.8797">
        <ele>333.4</ele>
        <time>2018-10-21T09:06:38Z</time>
      </trkpt>
      <trkpt lat="46.36893" lon="2.8796">
        <ele>333.5</ele>
        <time>2018-10-21T09:06:40Z</time>
      </trkpt>
      <trkpt lat="46.36898" lon="2.8795">
        <ele>333.4</ele>
        <time>2018-10-21T09:06:42Z</time>
      </trkpt>
      <trkpt lat="46.36902" lon="2.8794">
        <ele>333.6</ele>
        <time>2018-10-21T09:06:44Z</time>
      </trkpt>
      <trkpt lat="46.36906" lon="2.87931">
        <ele>334.1</ele>
        <time>2018-10-21T09:06:46Z</time>
      </trkpt>
      <trkpt lat="46.3691" lon="2.87922">
        <ele>334.7</ele>
        <time>2018-10-21T09:06:48Z</time>
      </trkpt>
      <trkpt lat="46.36914" lon="2.87912">
        <ele>334.9</ele>
        <time>2018-10-21T09:06:50Z</time>
      </trkpt>
      <trkpt lat="46.36918" lon="2.87903">
        <ele>335.1</ele>
        <time>2018-10-21T09:06:52Z</time>
      </trkpt>
      <trkpt lat="46.36922" lon="2.87893">
        <ele>335.1</ele>
        <time>2018-10-21T09:06:54Z</time>
      </trkpt>
      <trkpt lat="46.36927" lon="2.87883">
        <ele>335.6</ele>
        <time>2018-10-21T09:06:56Z</time>
      </trkpt>
      <trkpt lat="46.36931" lon="2.87873">
        <ele>335.7</ele>
        <time>2018-10-21T09:06:58Z</time>
      </trkpt>
      <trkpt lat="46.36935" lon="2.87862">
        <ele>335.7</ele>
        <time>2018-10-21T09:07:00Z</time>
      </trkpt>
      <trkpt lat="46.36938" lon="2.87851">
        <ele>335.7</ele>
        <time>2018-10-21T09:07:02Z</time>
      </trkpt>
      <trkpt lat="46.36942" lon="2.8784">
        <ele>335.7</ele>
        <time>2018-10-21T09:07:04Z</time>
      </trkpt>
      <trkpt lat="46.36945" lon="2.87829">
        <ele>335.5</ele>
        <time>2018-10-21T09:07:06Z</time>
      </trkpt>
      <trkpt lat="46.36948" lon="2.87818">
        <ele>335.7</ele>
        <time>2018-10-21T09:07:08Z</time>
      </trkpt>
      <trkpt lat="46.3695" lon="2.87806">
        <ele>336</ele>
        <time>2018-10-21T09:07:10Z</time>
      </trkpt>
      <trkpt lat="46.36952" lon="2.87795">
        <ele>336.3</ele>
        <time>2018-10-21T09:07:12Z</time>
      </trkpt>
      <trkpt lat="46.36953" lon="2.8779">
        <ele>336.3</ele>
        <time>2018-10-21T09:07:13Z</time>
      </trkpt>
      <trkpt lat="46.36955" lon="2.87776">
        <ele>335.7</ele>
        <time>2018-10-21T09:07:16Z</time>
      </trkpt>
      <trkpt lat="46.36956" lon="2.87767">
        <ele>336.2</ele>
        <time>2018-10-21T09:07:18Z</time>
      </trkpt>
      <trkpt lat="46.36951" lon="2.87757">
        <ele>336.3</ele>
        <time>2018-10-21T09:07:20Z</time>
      </trkpt>
      <trkpt lat="46.36948" lon="2.87752">
        <ele>336.3</ele>
        <time>2018-10-21T09:07:21Z</time>
      </trkpt>
      <trkpt lat="46.36945" lon="2.87748">
        <ele>336.4</ele>
        <time>2018-10-21T09:07:22Z</time>
      </trkpt>
      <trkpt lat="46.36941" lon="2.87744">
        <ele>336.4</ele>
        <time>2018-10-21T09:07:23Z</time>
      </trkpt>
      <trkpt lat="46.36938" lon="2.8774">
        <ele>336.4</ele>
        <time>2018-10-21T09:07:24Z</time>
      </trkpt>
      <trkpt lat="46.36934" lon="2.87736">
        <ele>336.3</ele>
        <time>2018-10-21T09:07:25Z</time>
      </trkpt>
      <trkpt lat="46.3693" lon="2.87731">
        <ele>336.4</ele>
        <time>2018-10-21T09:07:26Z</time>
      </trkpt>
      <trkpt lat="46.36926" lon="2.87727">
        <ele>336.4</ele>
        <time>2018-10-21T09:07:27Z</time>
      </trkpt>
      <trkpt lat="46.36922" lon="2.87722">
        <ele>336.4</ele>
        <time>2018-10-21T09:07:28Z</time>
      </trkpt>
      <trkpt lat="46.36918" lon="2.87717">
        <ele>336.5</ele>
        <time>2018-10-21T09:07:29Z</time>
      </trkpt>
      <trkpt lat="46.36915" lon="2.87712">
        <ele>336.6</ele>
        <time>2018-10-21T09:07:30Z</time>
      </trkpt>
      <trkpt lat="46.3691" lon="2.87707">
        <ele>336.4</ele>
        <time>2018-10-21T09:07:31Z</time>
      </trkpt>
      <trkpt lat="46.36906" lon="2.87702">
        <ele>336.2</ele>
        <time>2018-10-21T09:07:32Z</time>
      </trkpt>
      <trkpt lat="46.36902" lon="2.87697">
        <ele>336.1</ele>
        <time>2018-10-21T09:07:33Z</time>
      </trkpt>
      <trkpt lat="46.36897" lon="2.87692">
        <ele>336.1</ele>
        <time>2018-10-21T09:07:34Z</time>
      </trkpt>
      <trkpt lat="46.36893" lon="2.87686">
        <ele>336.1</ele>
        <time>2018-10-21T09:07:35Z</time>
      </trkpt>
      <trkpt lat="46.36888" lon="2.87681">
        <ele>335.6</ele>
        <time>2018-10-21T09:07:36Z</time>
      </trkpt>
      <trkpt lat="46.36884" lon="2.87675">
        <ele>335.3</ele>
        <time>2018-10-21T09:07:37Z</time>
      </trkpt>
      <trkpt lat="46.36879" lon="2.8767">
        <ele>335.4</ele>
        <time>2018-10-21T09:07:38Z</time>
      </trkpt>
      <trkpt lat="46.36875" lon="2.87666">
        <ele>335.4</ele>
        <time>2018-10-21T09:07:39Z</time>
      </trkpt>
      <trkpt lat="46.36871" lon="2.87661">
        <ele>335.5</ele>
        <time>2018-10-21T09:07:40Z</time>
      </trkpt>
      <trkpt lat="46.36866" lon="2.87656">
        <ele>335.2</ele>
        <time>2018-10-21T09:07:41Z</time>
      </trkpt>
      <trkpt lat="46.36862" lon="2.8765">
        <ele>335</ele>
        <time>2018-10-21T09:07:42Z</time>
      </trkpt>
      <trkpt lat="46.36858" lon="2.87645">
        <ele>334.9</ele>
        <time>2018-10-21T09:07:43Z</time>
      </trkpt>
      <trkpt lat="46.36854" lon="2.8764">
        <ele>334.9</ele>
        <time>2018-10-21T09:07:44Z</time>
      </trkpt>
      <trkpt lat="46.36849" lon="2.87635">
        <ele>334.5</ele>
        <time>2018-10-21T09:07:45Z</time>
      </trkpt>
      <trkpt lat="46.36845" lon="2.8763">
        <ele>334.2</ele>
        <time>2018-10-21T09:07:46Z</time>
      </trkpt>
      <trkpt lat="46.36841" lon="2.87625">
        <ele>334</ele>
        <time>2018-10-21T09:07:47Z</time>
      </trkpt>
      <trkpt lat="46.36837" lon="2.8762">
        <ele>333.9</ele>
        <time>2018-10-21T09:07:48Z</time>
      </trkpt>
      <trkpt lat="46.36834" lon="2.87614">
        <ele>333.8</ele>
        <time>2018-10-21T09:07:49Z</time>
      </trkpt>
      <trkpt lat="46.3683" lon="2.87609">
        <ele>333.5</ele>
        <time>2018-10-21T09:07:50Z</time>
      </trkpt>
      <trkpt lat="46.36826" lon="2.87604">
        <ele>333.3</ele>
        <time>2018-10-21T09:07:51Z</time>
      </trkpt>
      <trkpt lat="46.36823" lon="2.87598">
        <ele>333</ele>
        <time>2018-10-21T09:07:52Z</time>
      </trkpt>
      <trkpt lat="46.3682" lon="2.87592">
        <ele>332.8</ele>
        <time>2018-10-21T09:07:53Z</time>
      </trkpt>
      <trkpt lat="46.36816" lon="2.87586">
        <ele>332.6</ele>
        <time>2018-10-21T09:07:54Z</time>
      </trkpt>
      <trkpt lat="46.36814" lon="2.87579">
        <ele>332.5</ele>
        <time>2018-10-21T09:07:55Z</time>
      </trkpt>
      <trkpt lat="46.36811" lon="2.87573">
        <ele>332.5</ele>
        <time>2018-10-21T09:07:56Z</time>
      </trkpt>
      <trkpt lat="46.36808" lon="2.87566">
        <ele>332.8</ele>
        <time>2018-10-21T09:07:57Z</time>
      </trkpt>
      <trkpt lat="46.36806" lon="2.87559">
        <ele>333</ele>
        <time>2018-10-21T09:07:58Z</time>
      </trkpt>
      <trkpt lat="46.36802" lon="2.87553">
        <ele>333</ele>
        <time>2018-10-21T09:07:59Z</time>
      </trkpt>
      <trkpt lat="46.36799" lon="2.87547">
        <ele>333</ele>
        <time>2018-10-21T09:08:00Z</time>
      </trkpt>
      <trkpt lat="46.36796" lon="2.87542">
        <ele>333</ele>
        <time>2018-10-21T09:08:01Z</time>
      </trkpt>
      <trkpt lat="46.36793" lon="2.87536">
        <ele>332.7</ele>
        <time>2018-10-21T09:08:02Z</time>
      </trkpt>
      <trkpt lat="46.36789" lon="2.87531">
        <ele>332.5</ele>
        <time>2018-10-21T09:08:03Z</time>
      </trkpt>
      <trkpt lat="46.36783" lon="2.87522">
        <ele>332.8</ele>
        <time>2018-10-21T09:08:05Z</time>
      </trkpt>
      <trkpt lat="46.36777" lon="2.87514">
        <ele>332.5</ele>
        <time>2018-10-21T09:08:07Z</time>
      </trkpt>
      <trkpt lat="46.36771" lon="2.87507">
        <ele>332.4</ele>
        <time>2018-10-21T09:08:09Z</time>
      </trkpt>
      <trkpt lat="46.36764" lon="2.87499">
        <ele>332.2</ele>
        <time>2018-10-21T09:08:11Z</time>
      </trkpt>
      <trkpt lat="46.36759" lon="2.87491">
        <ele>332</ele>
        <time>2018-10-21T09:08:13Z</time>
      </trkpt>
      <trkpt lat="46.36756" lon="2.87487">
        <ele>331.8</ele>
        <time>2018-10-21T09:08:14Z</time>
      </trkpt>
      <trkpt lat="46.36747" lon="2.87475">
        <ele>331.6</ele>
        <time>2018-10-21T09:08:17Z</time>
      </trkpt>
      <trkpt lat="46.3674" lon="2.87467">
        <ele>331.9</ele>
        <time>2018-10-21T09:08:19Z</time>
      </trkpt>
      <trkpt lat="46.36734" lon="2.87459">
        <ele>332.3</ele>
        <time>2018-10-21T09:08:21Z</time>
      </trkpt>
      <trkpt lat="46.36728" lon="2.8745">
        <ele>332.7</ele>
        <time>2018-10-21T09:08:23Z</time>
      </trkpt>
      <trkpt lat="46.36722" lon="2.87442">
        <ele>333</ele>
        <time>2018-10-21T09:08:25Z</time>
      </trkpt>
      <trkpt lat="46.36715" lon="2.87433">
        <ele>332.6</ele>
        <time>2018-10-21T09:08:27Z</time>
      </trkpt>
      <trkpt lat="46.36712" lon="2.87428">
        <ele>332.8</ele>
        <time>2018-10-21T09:08:28Z</time>
      </trkpt>
      <trkpt lat="46.36708" lon="2.87423">
        <ele>332.9</ele>
        <time>2018-10-21T09:08:29Z</time>
      </trkpt>
      <trkpt lat="46.36705" lon="2.87418">
        <ele>332.6</ele>
        <time>2018-10-21T09:08:30Z</time>
      </trkpt>
      <trkpt lat="46.36701" lon="2.87413">
        <ele>332.5</ele>
        <time>2018-10-21T09:08:31Z</time>
      </trkpt>
      <trkpt lat="46.36698" lon="2.87407">
        <ele>332.3</ele>
        <time>2018-10-21T09:08:32Z</time>
      </trkpt>
      <trkpt lat="46.36694" lon="2.87402">
        <ele>332</ele>
        <time>2018-10-21T09:08:33Z</time>
      </trkpt>
      <trkpt lat="46.3669" lon="2.87396">
        <ele>331.8</ele>
        <time>2018-10-21T09:08:34Z</time>
      </trkpt>
      <trkpt lat="46.36687" lon="2.8739">
        <ele>331.9</ele>
        <time>2018-10-21T09:08:35Z</time>
      </trkpt>
      <trkpt lat="46.36683" lon="2.87385">
        <ele>331.9</ele>
        <time>2018-10-21T09:08:36Z</time>
      </trkpt>
      <trkpt lat="46.3668" lon="2.87379">
        <ele>332</ele>
        <time>2018-10-21T09:08:37Z</time>
      </trkpt>
      <trkpt lat="46.36676" lon="2.87374">
        <ele>331.9</ele>
        <time>2018-10-21T09:08:38Z</time>
      </trkpt>
      <trkpt lat="46.36673" lon="2.8737">
        <ele>331.8</ele>
        <time>2018-10-21T09:08:39Z</time>
      </trkpt>
      <trkpt lat="46.36669" lon="2.87365">
        <ele>331.9</ele>
        <time>2018-10-21T09:08:40Z</time>
      </trkpt>
      <trkpt lat="46.36666" lon="2.8736">
        <ele>331.9</ele>
        <time>2018-10-21T09:08:41Z</time>
      </trkpt>
      <trkpt lat="46.36662" lon="2.87356">
        <ele>331.8</ele>
        <time>2018-10-21T09:08:42Z</time>
      </trkpt>
      <trkpt lat="46.36658" lon="2.87351">
        <ele>331.7</ele>
        <time>2018-10-21T09:08:43Z</time>
      </trkpt>
      <trkpt lat="46.36655" lon="2.87347">
        <ele>331.6</ele>
        <time>2018-10-21T09:08:44Z</time>
      </trkpt>
      <trkpt lat="46.36652" lon="2.87342">
        <ele>331.3</ele>
        <time>2018-10-21T09:08:45Z</time>
      </trkpt>
      <trkpt lat="46.36646" lon="2.87332">
        <ele>331.4</ele>
        <time>2018-10-21T09:08:47Z</time>
      </trkpt>
      <trkpt lat="46.36641" lon="2.87323">
        <ele>331.7</ele>
        <time>2018-10-21T09:08:49Z</time>
      </trkpt>
      <trkpt lat="46.36635" lon="2.87313">
        <ele>331.3</ele>
        <time>2018-10-21T09:08:51Z</time>
      </trkpt>
      <trkpt lat="46.3663" lon="2.87304">
        <ele>331.4</ele>
        <time>2018-10-21T09:08:53Z</time>
      </trkpt>
      <trkpt lat="46.36625" lon="2.87294">
        <ele>331.7</ele>
        <time>2018-10-21T09:08:55Z</time>
      </trkpt>
      <trkpt lat="46.3662" lon="2.87285">
        <ele>331.7</ele>
        <time>2018-10-21T09:08:57Z</time>
      </trkpt>
      <trkpt lat="46.36614" lon="2.87276">
        <ele>331.9</ele>
        <time>2018-10-21T09:08:59Z</time>
      </trkpt>
      <trkpt lat="46.36609" lon="2.87267">
        <ele>332</ele>
        <time>2018-10-21T09:09:01Z</time>
      </trkpt>
      <trkpt lat="46.36604" lon="2.87258">
        <ele>331.9</ele>
        <time>2018-10-21T09:09:03Z</time>
      </trkpt>
      <trkpt lat="46.36599" lon="2.87249">
        <ele>332.1</ele>
        <time>2018-10-21T09:09:05Z</time>
      </trkpt>
      <trkpt lat="46.36594" lon="2.87239">
        <ele>332.4</ele>
        <time>2018-10-21T09:09:07Z</time>
      </trkpt>
      <trkpt lat="46.36589" lon="2.87229">
        <ele>332.3</ele>
        <time>2018-10-21T09:09:09Z</time>
      </trkpt>
      <trkpt lat="46.36586" lon="2.87224">
        <ele>332.2</ele>
        <time>2018-10-21T09:09:10Z</time>
      </trkpt>
      <trkpt lat="46.36583" lon="2.87219">
        <ele>332.2</ele>
        <time>2018-10-21T09:09:11Z</time>
      </trkpt>
      <trkpt lat="46.3658" lon="2.87213">
        <ele>332.2</ele>
        <time>2018-10-21T09:09:12Z</time>
      </trkpt>
      <trkpt lat="46.36578" lon="2.87207">
        <ele>332.3</ele>
        <time>2018-10-21T09:09:13Z</time>
      </trkpt>
      <trkpt lat="46.36575" lon="2.87201">
        <ele>332.4</ele>
        <time>2018-10-21T09:09:14Z</time>
      </trkpt>
      <trkpt lat="46.36572" lon="2.87195">
        <ele>332.5</ele>
        <time>2018-10-21T09:09:15Z</time>
      </trkpt>
      <trkpt lat="46.36569" lon="2.87189">
        <ele>332.3</ele>
        <time>2018-10-21T09:09:16Z</time>
      </trkpt>
      <trkpt lat="46.36566" lon="2.87184">
        <ele>332.2</ele>
        <time>2018-10-21T09:09:17Z</time>
      </trkpt>
      <trkpt lat="46.36563" lon="2.87178">
        <ele>332.1</ele>
        <time>2018-10-21T09:09:18Z</time>
      </trkpt>
      <trkpt lat="46.36559" lon="2.87172">
        <ele>332</ele>
        <time>2018-10-21T09:09:19Z</time>
      </trkpt>
      <trkpt lat="46.36556" lon="2.87167">
        <ele>331.5</ele>
        <time>2018-10-21T09:09:20Z</time>
      </trkpt>
      <trkpt lat="46.36553" lon="2.87161">
        <ele>331.1</ele>
        <time>2018-10-21T09:09:21Z</time>
      </trkpt>
      <trkpt lat="46.3655" lon="2.87155">
        <ele>330.8</ele>
        <time>2018-10-21T09:09:22Z</time>
      </trkpt>
      <trkpt lat="46.36546" lon="2.8715">
        <ele>330.6</ele>
        <time>2018-10-21T09:09:23Z</time>
      </trkpt>
      <trkpt lat="46.36543" lon="2.87144">
        <ele>330.4</ele>
        <time>2018-10-21T09:09:24Z</time>
      </trkpt>
      <trkpt lat="46.36539" lon="2.87138">
        <ele>330.5</ele>
        <time>2018-10-21T09:09:25Z</time>
      </trkpt>
      <trkpt lat="46.36535" lon="2.87132">
        <ele>330.6</ele>
        <time>2018-10-21T09:09:26Z</time>
      </trkpt>
      <trkpt lat="46.36532" lon="2.87126">
        <ele>330.7</ele>
        <time>2018-10-21T09:09:27Z</time>
      </trkpt>
      <trkpt lat="46.36528" lon="2.8712">
        <ele>330.6</ele>
        <time>2018-10-21T09:09:28Z</time>
      </trkpt>
      <trkpt lat="46.36524" lon="2.87115">
        <ele>330.6</ele>
        <time>2018-10-21T09:09:29Z</time>
      </trkpt>
      <trkpt lat="46.36521" lon="2.87109">
        <ele>330.6</ele>
        <time>2018-10-21T09:09:30Z</time>
      </trkpt>
      <trkpt lat="46.36517" lon="2.87104">
        <ele>330.6</ele>
        <time>2018-10-21T09:09:31Z</time>
      </trkpt>
      <trkpt lat="46.36514" lon="2.87099">
        <ele>330.4</ele>
        <time>2018-10-21T09:09:32Z</time>
      </trkpt>
      <trkpt lat="46.36511" lon="2.87094">
        <ele>330.3</ele>
        <time>2018-10-21T09:09:33Z</time>
      </trkpt>
      <trkpt lat="46.36507" lon="2.87089">
        <ele>330.2</ele>
        <time>2018-10-21T09:09:34Z</time>
      </trkpt>
      <trkpt lat="46.36504" lon="2.87084">
        <ele>329.9</ele>
        <time>2018-10-21T09:09:35Z</time>
      </trkpt>
      <trkpt lat="46.36499" lon="2.87073">
        <ele>329.8</ele>
        <time>2018-10-21T09:09:37Z</time>
      </trkpt>
      <trkpt lat="46.36497" lon="2.87067">
        <ele>329.8</ele>
        <time>2018-10-21T09:09:38Z</time>
      </trkpt>
      <trkpt lat="46.36495" lon="2.87062">
        <ele>329.9</ele>
        <time>2018-10-21T09:09:39Z</time>
      </trkpt>
      <trkpt lat="46.3649" lon="2.8705">
        <ele>329.2</ele>
        <time>2018-10-21T09:09:41Z</time>
      </trkpt>
      <trkpt lat="46.36488" lon="2.87045">
        <ele>329.1</ele>
        <time>2018-10-21T09:09:42Z</time>
      </trkpt>
      <trkpt lat="46.36485" lon="2.87039">
        <ele>329.1</ele>
        <time>2018-10-21T09:09:43Z</time>
      </trkpt>
      <trkpt lat="46.36483" lon="2.87034">
        <ele>329.2</ele>
        <time>2018-10-21T09:09:44Z</time>
      </trkpt>
      <trkpt lat="46.3648" lon="2.87029">
        <ele>329.4</ele>
        <time>2018-10-21T09:09:45Z</time>
      </trkpt>
      <trkpt lat="46.36473" lon="2.8702">
        <ele>329.3</ele>
        <time>2018-10-21T09:09:47Z</time>
      </trkpt>
      <trkpt lat="46.36465" lon="2.87013">
        <ele>329.5</ele>
        <time>2018-10-21T09:09:49Z</time>
      </trkpt>
      <trkpt lat="46.36458" lon="2.87006">
        <ele>329.8</ele>
        <time>2018-10-21T09:09:51Z</time>
      </trkpt>
      <trkpt lat="46.36454" lon="2.87004">
        <ele>329.9</ele>
        <time>2018-10-21T09:09:52Z</time>
      </trkpt>
      <trkpt lat="46.3645" lon="2.87001">
        <ele>330</ele>
        <time>2018-10-21T09:09:53Z</time>
      </trkpt>
      <trkpt lat="46.36446" lon="2.86998">
        <ele>329.7</ele>
        <time>2018-10-21T09:09:54Z</time>
      </trkpt>
      <trkpt lat="46.36441" lon="2.86996">
        <ele>329.6</ele>
        <time>2018-10-21T09:09:55Z</time>
      </trkpt>
      <trkpt lat="46.36437" lon="2.86993">
        <ele>329.3</ele>
        <time>2018-10-21T09:09:56Z</time>
      </trkpt>
      <trkpt lat="46.36433" lon="2.8699">
        <ele>329.1</ele>
        <time>2018-10-21T09:09:57Z</time>
      </trkpt>
      <trkpt lat="46.36429" lon="2.86987">
        <ele>328.9</ele>
        <time>2018-10-21T09:09:58Z</time>
      </trkpt>
      <trkpt lat="46.36425" lon="2.86983">
        <ele>329</ele>
        <time>2018-10-21T09:09:59Z</time>
      </trkpt>
      <trkpt lat="46.36421" lon="2.8698">
        <ele>329</ele>
        <time>2018-10-21T09:10:00Z</time>
      </trkpt>
      <trkpt lat="46.36416" lon="2.86977">
        <ele>328.9</ele>
        <time>2018-10-21T09:10:01Z</time>
      </trkpt>
      <trkpt lat="46.36412" lon="2.86974">
        <ele>328.8</ele>
        <time>2018-10-21T09:10:02Z</time>
      </trkpt>
      <trkpt lat="46.36408" lon="2.86971">
        <ele>329.3</ele>
        <time>2018-10-21T09:10:03Z</time>
      </trkpt>
      <trkpt lat="46.36404" lon="2.86967">
        <ele>329.7</ele>
        <time>2018-10-21T09:10:04Z</time>
      </trkpt>
      <trkpt lat="46.364" lon="2.86964">
        <ele>329.9</ele>
        <time>2018-10-21T09:10:05Z</time>
      </trkpt>
      <trkpt lat="46.36396" lon="2.86961">
        <ele>329.8</ele>
        <time>2018-10-21T09:10:06Z</time>
      </trkpt>
      <trkpt lat="46.36392" lon="2.86958">
        <ele>329.6</ele>
        <time>2018-10-21T09:10:07Z</time>
      </trkpt>
      <trkpt lat="46.36387" lon="2.86955">
        <ele>329.3</ele>
        <time>2018-10-21T09:10:08Z</time>
      </trkpt>
      <trkpt lat="46.36383" lon="2.86952">
        <ele>329</ele>
        <time>2018-10-21T09:10:09Z</time>
      </trkpt>
      <trkpt lat="46.36378" lon="2.86948">
        <ele>328.6</ele>
        <time>2018-10-21T09:10:10Z</time>
      </trkpt>
      <trkpt lat="46.36373" lon="2.86945">
        <ele>328.4</ele>
        <time>2018-10-21T09:10:11Z</time>
      </trkpt>
      <trkpt lat="46.36368" lon="2.86943">
        <ele>328.2</ele>
        <time>2018-10-21T09:10:12Z</time>
      </trkpt>
      <trkpt lat="46.36363" lon="2.8694">
        <ele>328.1</ele>
        <time>2018-10-21T09:10:13Z</time>
      </trkpt>
      <trkpt lat="46.36358" lon="2.86938">
        <ele>328</ele>
        <time>2018-10-21T09:10:14Z</time>
      </trkpt>
      <trkpt lat="46.36353" lon="2.86935">
        <ele>328.2</ele>
        <time>2018-10-21T09:10:15Z</time>
      </trkpt>
      <trkpt lat="46.36348" lon="2.86932">
        <ele>328.4</ele>
        <time>2018-10-21T09:10:16Z</time>
      </trkpt>
      <trkpt lat="46.36343" lon="2.86929">
        <ele>328.5</ele>
        <time>2018-10-21T09:10:17Z</time>
      </trkpt>
      <trkpt lat="46.36339" lon="2.86926">
        <ele>328.1</ele>
        <time>2018-10-21T09:10:18Z</time>
      </trkpt>
      <trkpt lat="46.36334" lon="2.86923">
        <ele>327.8</ele>
        <time>2018-10-21T09:10:19Z</time>
      </trkpt>
      <trkpt lat="46.36329" lon="2.8692">
        <ele>327.7</ele>
        <time>2018-10-21T09:10:20Z</time>
      </trkpt>
      <trkpt lat="46.36325" lon="2.86916">
        <ele>327.6</ele>
        <time>2018-10-21T09:10:21Z</time>
      </trkpt>
      <trkpt lat="46.36321" lon="2.86913">
        <ele>327.6</ele>
        <time>2018-10-21T09:10:22Z</time>
      </trkpt>
      <trkpt lat="46.36317" lon="2.86909">
        <ele>327.6</ele>
        <time>2018-10-21T09:10:23Z</time>
      </trkpt>
      <trkpt lat="46.36312" lon="2.86905">
        <ele>327.6</ele>
        <time>2018-10-21T09:10:24Z</time>
      </trkpt>
      <trkpt lat="46.36309" lon="2.86902">
        <ele>327.6</ele>
        <time>2018-10-21T09:10:25Z</time>
      </trkpt>
      <trkpt lat="46.36301" lon="2.86895">
        <ele>327.8</ele>
        <time>2018-10-21T09:10:27Z</time>
      </trkpt>
      <trkpt lat="46.36294" lon="2.86889">
        <ele>328.1</ele>
        <time>2018-10-21T09:10:29Z</time>
      </trkpt>
      <trkpt lat="46.36288" lon="2.86882">
        <ele>328.3</ele>
        <time>2018-10-21T09:10:31Z</time>
      </trkpt>
      <trkpt lat="46.36281" lon="2.86876">
        <ele>328</ele>
        <time>2018-10-21T09:10:33Z</time>
      </trkpt>
      <trkpt lat="46.36275" lon="2.8687">
        <ele>327.7</ele>
        <time>2018-10-21T09:10:35Z</time>
      </trkpt>
      <trkpt lat="46.36269" lon="2.86864">
        <ele>327.6</ele>
        <time>2018-10-21T09:10:37Z</time>
      </trkpt>
      <trkpt lat="46.36263" lon="2.86859">
        <ele>328</ele>
        <time>2018-10-21T09:10:39Z</time>
      </trkpt>
      <trkpt lat="46.36255" lon="2.86854">
        <ele>328.9</ele>
        <time>2018-10-21T09:10:42Z</time>
      </trkpt>
      <trkpt lat="46.36248" lon="2.86851">
        <ele>330.3</ele>
        <time>2018-10-21T09:10:45Z</time>
      </trkpt>
      <trkpt lat="46.36241" lon="2.86846">
        <ele>331.3</ele>
        <time>2018-10-21T09:10:48Z</time>
      </trkpt>
      <trkpt lat="46.36233" lon="2.86843">
        <ele>331.8</ele>
        <time>2018-10-21T09:10:51Z</time>
      </trkpt>
      <trkpt lat="46.36225" lon="2.8684">
        <ele>331.9</ele>
        <time>2018-10-21T09:10:54Z</time>
      </trkpt>
      <trkpt lat="46.36217" lon="2.86836">
        <ele>332.9</ele>
        <time>2018-10-21T09:10:57Z</time>
      </trkpt>
      <trkpt lat="46.3621" lon="2.86832">
        <ele>333.6</ele>
        <time>2018-10-21T09:11:00Z</time>
      </trkpt>
      <trkpt lat="46.36202" lon="2.86828">
        <ele>334.4</ele>
        <time>2018-10-21T09:11:03Z</time>
      </trkpt>
      <trkpt lat="46.36195" lon="2.86822">
        <ele>335.5</ele>
        <time>2018-10-21T09:11:06Z</time>
      </trkpt>
      <trkpt lat="46.36189" lon="2.86817">
        <ele>335.4</ele>
        <time>2018-10-21T09:11:09Z</time>
      </trkpt>
      <trkpt lat="46.36182" lon="2.86812">
        <ele>336.6</ele>
        <time>2018-10-21T09:11:12Z</time>
      </trkpt>
      <trkpt lat="46.36174" lon="2.86807">
        <ele>337.2</ele>
        <time>2018-10-21T09:11:15Z</time>
      </trkpt>
      <trkpt lat="46.36169" lon="2.86803">
        <ele>337.4</ele>
        <time>2018-10-21T09:11:17Z</time>
      </trkpt>
      <trkpt lat="46.36166" lon="2.86802">
        <ele>337.6</ele>
        <time>2018-10-21T09:11:18Z</time>
      </trkpt>
      <trkpt lat="46.36153" lon="2.86792">
        <ele>338.1</ele>
        <time>2018-10-21T09:11:23Z</time>
      </trkpt>
      <trkpt lat="46.36147" lon="2.86787">
        <ele>337.8</ele>
        <time>2018-10-21T09:11:26Z</time>
      </trkpt>
      <trkpt lat="46.36141" lon="2.86783">
        <ele>338.7</ele>
        <time>2018-10-21T09:11:28Z</time>
      </trkpt>
      <trkpt lat="46.36135" lon="2.86778">
        <ele>338.8</ele>
        <time>2018-10-21T09:11:30Z</time>
      </trkpt>
      <trkpt lat="46.36128" lon="2.86773">
        <ele>338.7</ele>
        <time>2018-10-21T09:11:32Z</time>
      </trkpt>
      <trkpt lat="46.36121" lon="2.86768">
        <ele>338.5</ele>
        <time>2018-10-21T09:11:34Z</time>
      </trkpt>
      <trkpt lat="46.36114" lon="2.86763">
        <ele>338.2</ele>
        <time>2018-10-21T09:11:36Z</time>
      </trkpt>
      <trkpt lat="46.36109" lon="2.8676">
        <ele>338</ele>
        <time>2018-10-21T09:11:37Z</time>
      </trkpt>
      <trkpt lat="46.36104" lon="2.86757">
        <ele>337.9</ele>
        <time>2018-10-21T09:11:38Z</time>
      </trkpt>
      <trkpt lat="46.36099" lon="2.86755">
        <ele>337.6</ele>
        <time>2018-10-21T09:11:39Z</time>
      </trkpt>
      <trkpt lat="46.36094" lon="2.86752">
        <ele>337.4</ele>
        <time>2018-10-21T09:11:40Z</time>
      </trkpt>
      <trkpt lat="46.36089" lon="2.86749">
        <ele>337.1</ele>
        <time>2018-10-21T09:11:41Z</time>
      </trkpt>
      <trkpt lat="46.36083" lon="2.86747">
        <ele>336.8</ele>
        <time>2018-10-21T09:11:42Z</time>
      </trkpt>
      <trkpt lat="46.36078" lon="2.86743">
        <ele>336</ele>
        <time>2018-10-21T09:11:43Z</time>
      </trkpt>
      <trkpt lat="46.36072" lon="2.8674">
        <ele>335.4</ele>
        <time>2018-10-21T09:11:44Z</time>
      </trkpt>
      <trkpt lat="46.36067" lon="2.86736">
        <ele>334.9</ele>
        <time>2018-10-21T09:11:45Z</time>
      </trkpt>
      <trkpt lat="46.36061" lon="2.86732">
        <ele>334.7</ele>
        <time>2018-10-21T09:11:46Z</time>
      </trkpt>
      <trkpt lat="46.36055" lon="2.86728">
        <ele>334.5</ele>
        <time>2018-10-21T09:11:47Z</time>
      </trkpt>
      <trkpt lat="46.36049" lon="2.86725">
        <ele>334.1</ele>
        <time>2018-10-21T09:11:48Z</time>
      </trkpt>
      <trkpt lat="46.36044" lon="2.8672">
        <ele>333.8</ele>
        <time>2018-10-21T09:11:49Z</time>
      </trkpt>
      <trkpt lat="46.36038" lon="2.86715">
        <ele>333.5</ele>
        <time>2018-10-21T09:11:50Z</time>
      </trkpt>
      <trkpt lat="46.36033" lon="2.8671">
        <ele>333.2</ele>
        <time>2018-10-21T09:11:51Z</time>
      </trkpt>
      <trkpt lat="46.36029" lon="2.86704">
        <ele>333</ele>
        <time>2018-10-21T09:11:52Z</time>
      </trkpt>
      <trkpt lat="46.36024" lon="2.86698">
        <ele>332.5</ele>
        <time>2018-10-21T09:11:53Z</time>
      </trkpt>
      <trkpt lat="46.36019" lon="2.86692">
        <ele>332</ele>
        <time>2018-10-21T09:11:54Z</time>
      </trkpt>
      <trkpt lat="46.36015" lon="2.86685">
        <ele>331.6</ele>
        <time>2018-10-21T09:11:55Z</time>
      </trkpt>
      <trkpt lat="46.3601" lon="2.86678">
        <ele>331.3</ele>
        <time>2018-10-21T09:11:56Z</time>
      </trkpt>
      <trkpt lat="46.36006" lon="2.86672">
        <ele>331.1</ele>
        <time>2018-10-21T09:11:57Z</time>
      </trkpt>
      <trkpt lat="46.36001" lon="2.86665">
        <ele>330.6</ele>
        <time>2018-10-21T09:11:58Z</time>
      </trkpt>
      <trkpt lat="46.35997" lon="2.86658">
        <ele>330.2</ele>
        <time>2018-10-21T09:11:59Z</time>
      </trkpt>
      <trkpt lat="46.35993" lon="2.86651">
        <ele>329.7</ele>
        <time>2018-10-21T09:12:00Z</time>
      </trkpt>
      <trkpt lat="46.35989" lon="2.86646">
        <ele>329.3</ele>
        <time>2018-10-21T09:12:01Z</time>
      </trkpt>
      <trkpt lat="46.35984" lon="2.86637">
        <ele>328.9</ele>
        <time>2018-10-21T09:12:03Z</time>
      </trkpt>
      <trkpt lat="46.35979" lon="2.8663">
        <ele>328.5</ele>
        <time>2018-10-21T09:12:05Z</time>
      </trkpt>
      <trkpt lat="46.35975" lon="2.86628">
        <ele>328.2</ele>
        <time>2018-10-21T09:12:06Z</time>
      </trkpt>
      <trkpt lat="46.3597" lon="2.86627">
        <ele>327.6</ele>
        <time>2018-10-21T09:12:07Z</time>
      </trkpt>
      <trkpt lat="46.35965" lon="2.86627">
        <ele>327.1</ele>
        <time>2018-10-21T09:12:08Z</time>
      </trkpt>
      <trkpt lat="46.35959" lon="2.86629">
        <ele>326.8</ele>
        <time>2018-10-21T09:12:09Z</time>
      </trkpt>
      <trkpt lat="46.35952" lon="2.8663">
        <ele>326.3</ele>
        <time>2018-10-21T09:12:10Z</time>
      </trkpt>
      <trkpt lat="46.35945" lon="2.86631">
        <ele>325.9</ele>
        <time>2018-10-21T09:12:11Z</time>
      </trkpt>
      <trkpt lat="46.35938" lon="2.86632">
        <ele>324.9</ele>
        <time>2018-10-21T09:12:12Z</time>
      </trkpt>
      <trkpt lat="46.3593" lon="2.86632">
        <ele>324.2</ele>
        <time>2018-10-21T09:12:13Z</time>
      </trkpt>
      <trkpt lat="46.35922" lon="2.86633">
        <ele>323.6</ele>
        <time>2018-10-21T09:12:14Z</time>
      </trkpt>
      <trkpt lat="46.35913" lon="2.86633">
        <ele>323.2</ele>
        <time>2018-10-21T09:12:15Z</time>
      </trkpt>
      <trkpt lat="46.35904" lon="2.86633">
        <ele>322.9</ele>
        <time>2018-10-21T09:12:16Z</time>
      </trkpt>
      <trkpt lat="46.35895" lon="2.86634">
        <ele>321.9</ele>
        <time>2018-10-21T09:12:17Z</time>
      </trkpt>
      <trkpt lat="46.35885" lon="2.86637">
        <ele>321.1</ele>
        <time>2018-10-21T09:12:18Z</time>
      </trkpt>
      <trkpt lat="46.35876" lon="2.86641">
        <ele>319.6</ele>
        <time>2018-10-21T09:12:19Z</time>
      </trkpt>
      <trkpt lat="46.35867" lon="2.86645">
        <ele>318.5</ele>
        <time>2018-10-21T09:12:20Z</time>
      </trkpt>
      <trkpt lat="46.35858" lon="2.86649">
        <ele>317.7</ele>
        <time>2018-10-21T09:12:21Z</time>
      </trkpt>
      <trkpt lat="46.35848" lon="2.86653">
        <ele>316.7</ele>
        <time>2018-10-21T09:12:22Z</time>
      </trkpt>
      <trkpt lat="46.35838" lon="2.86657">
        <ele>316</ele>
        <time>2018-10-21T09:12:23Z</time>
      </trkpt>
      <trkpt lat="46.35827" lon="2.8666">
        <ele>315.4</ele>
        <time>2018-10-21T09:12:24Z</time>
      </trkpt>
      <trkpt lat="46.35817" lon="2.86663">
        <ele>315</ele>
        <time>2018-10-21T09:12:25Z</time>
      </trkpt>
      <trkpt lat="46.35806" lon="2.86665">
        <ele>313.5</ele>
        <time>2018-10-21T09:12:26Z</time>
      </trkpt>
      <trkpt lat="46.35796" lon="2.86667">
        <ele>312.4</ele>
        <time>2018-10-21T09:12:27Z</time>
      </trkpt>
      <trkpt lat="46.35786" lon="2.86669">
        <ele>311.5</ele>
        <time>2018-10-21T09:12:28Z</time>
      </trkpt>
      <trkpt lat="46.35778" lon="2.86671">
        <ele>310.8</ele>
        <time>2018-10-21T09:12:29Z</time>
      </trkpt>
      <trkpt lat="46.35769" lon="2.86673">
        <ele>310.2</ele>
        <time>2018-10-21T09:12:30Z</time>
      </trkpt>
      <trkpt lat="46.35761" lon="2.86676">
        <ele>309.3</ele>
        <time>2018-10-21T09:12:31Z</time>
      </trkpt>
      <trkpt lat="46.35752" lon="2.8668">
        <ele>308.6</ele>
        <time>2018-10-21T09:12:32Z</time>
      </trkpt>
      <trkpt lat="46.35743" lon="2.86684">
        <ele>307.2</ele>
        <time>2018-10-21T09:12:33Z</time>
      </trkpt>
      <trkpt lat="46.35735" lon="2.86687">
        <ele>306.1</ele>
        <time>2018-10-21T09:12:34Z</time>
      </trkpt>
      <trkpt lat="46.35727" lon="2.86689">
        <ele>305.3</ele>
        <time>2018-10-21T09:12:35Z</time>
      </trkpt>
      <trkpt lat="46.35721" lon="2.86689">
        <ele>304</ele>
        <time>2018-10-21T09:12:36Z</time>
      </trkpt>
      <trkpt lat="46.35714" lon="2.86688">
        <ele>303</ele>
        <time>2018-10-21T09:12:37Z</time>
      </trkpt>
      <trkpt lat="46.35707" lon="2.86685">
        <ele>301.9</ele>
        <time>2018-10-21T09:12:38Z</time>
      </trkpt>
      <trkpt lat="46.357" lon="2.86681">
        <ele>301.1</ele>
        <time>2018-10-21T09:12:39Z</time>
      </trkpt>
      <trkpt lat="46.35693" lon="2.86675">
        <ele>300.5</ele>
        <time>2018-10-21T09:12:40Z</time>
      </trkpt>
      <trkpt lat="46.35686" lon="2.86668">
        <ele>299</ele>
        <time>2018-10-21T09:12:41Z</time>
      </trkpt>
      <trkpt lat="46.35677" lon="2.86661">
        <ele>297.8</ele>
        <time>2018-10-21T09:12:42Z</time>
      </trkpt>
      <trkpt lat="46.35668" lon="2.86652">
        <ele>296</ele>
        <time>2018-10-21T09:12:43Z</time>
      </trkpt>
      <trkpt lat="46.35659" lon="2.86644">
        <ele>294.6</ele>
        <time>2018-10-21T09:12:44Z</time>
      </trkpt>
      <trkpt lat="46.35649" lon="2.86636">
        <ele>292.7</ele>
        <time>2018-10-21T09:12:45Z</time>
      </trkpt>
      <trkpt lat="46.35639" lon="2.86628">
        <ele>291.2</ele>
        <time>2018-10-21T09:12:46Z</time>
      </trkpt>
      <trkpt lat="46.3563" lon="2.8662">
        <ele>290.1</ele>
        <time>2018-10-21T09:12:47Z</time>
      </trkpt>
      <trkpt lat="46.35622" lon="2.86611">
        <ele>289.2</ele>
        <time>2018-10-21T09:12:48Z</time>
      </trkpt>
      <trkpt lat="46.35615" lon="2.866">
        <ele>288.4</ele>
        <time>2018-10-21T09:12:49Z</time>
      </trkpt>
      <trkpt lat="46.35609" lon="2.86589">
        <ele>287.5</ele>
        <time>2018-10-21T09:12:50Z</time>
      </trkpt>
      <trkpt lat="46.35604" lon="2.8658">
        <ele>286.9</ele>
        <time>2018-10-21T09:12:51Z</time>
      </trkpt>
      <trkpt lat="46.35601" lon="2.86573">
        <ele>286.2</ele>
        <time>2018-10-21T09:12:52Z</time>
      </trkpt>
      <trkpt lat="46.356" lon="2.86563">
        <ele>285.2</ele>
        <time>2018-10-21T09:12:54Z</time>
      </trkpt>
      <trkpt lat="46.35598" lon="2.86551">
        <ele>284.5</ele>
        <time>2018-10-21T09:13:03Z</time>
      </trkpt>
      <trkpt lat="46.35594" lon="2.8654">
        <ele>285.4</ele>
        <time>2018-10-21T09:13:15Z</time>
      </trkpt>
      <trkpt lat="46.35589" lon="2.86532">
        <ele>283.6</ele>
        <time>2018-10-21T09:13:24Z</time>
      </trkpt>
      <trkpt lat="46.35588" lon="2.8653">
        <ele>283.4</ele>
        <time>2018-10-21T09:13:25Z</time>
      </trkpt>
      <trkpt lat="46.35581" lon="2.8651">
        <ele>284.4</ele>
        <time>2018-10-21T09:13:31Z</time>
      </trkpt>
      <trkpt lat="46.35576" lon="2.865">
        <ele>284.8</ele>
        <time>2018-10-21T09:13:34Z</time>
      </trkpt>
      <trkpt lat="46.35573" lon="2.86489">
        <ele>285.2</ele>
        <time>2018-10-21T09:13:37Z</time>
      </trkpt>
      <trkpt lat="46.35568" lon="2.86478">
        <ele>286.2</ele>
        <time>2018-10-21T09:13:41Z</time>
      </trkpt>
      <trkpt lat="46.35565" lon="2.86468">
        <ele>287.5</ele>
        <time>2018-10-21T09:13:45Z</time>
      </trkpt>
      <trkpt lat="46.3556" lon="2.86456">
        <ele>289.4</ele>
        <time>2018-10-21T09:13:50Z</time>
      </trkpt>
      <trkpt lat="46.35556" lon="2.86445">
        <ele>291.4</ele>
        <time>2018-10-21T09:13:55Z</time>
      </trkpt>
      <trkpt lat="46.35552" lon="2.86435">
        <ele>292.6</ele>
        <time>2018-10-21T09:13:59Z</time>
      </trkpt>
      <trkpt lat="46.35549" lon="2.86426">
        <ele>293.5</ele>
        <time>2018-10-21T09:14:03Z</time>
      </trkpt>
      <trkpt lat="46.35545" lon="2.86416">
        <ele>294.9</ele>
        <time>2018-10-21T09:14:07Z</time>
      </trkpt>
      <trkpt lat="46.35542" lon="2.86404">
        <ele>296.4</ele>
        <time>2018-10-21T09:14:12Z</time>
      </trkpt>
      <trkpt lat="46.35543" lon="2.86392">
        <ele>297.9</ele>
        <time>2018-10-21T09:14:17Z</time>
      </trkpt>
      <trkpt lat="46.35548" lon="2.86383">
        <ele>297.5</ele>
        <time>2018-10-21T09:14:21Z</time>
      </trkpt>
      <trkpt lat="46.35553" lon="2.86378">
        <ele>297.7</ele>
        <time>2018-10-21T09:14:23Z</time>
      </trkpt>
      <trkpt lat="46.35559" lon="2.86371">
        <ele>297.8</ele>
        <time>2018-10-21T09:14:25Z</time>
      </trkpt>
      <trkpt lat="46.35562" lon="2.86367">
        <ele>297.7</ele>
        <time>2018-10-21T09:14:26Z</time>
      </trkpt>
      <trkpt lat="46.3557" lon="2.8636">
        <ele>297.5</ele>
        <time>2018-10-21T09:14:28Z</time>
      </trkpt>
      <trkpt lat="46.35574" lon="2.86357">
        <ele>297.3</ele>
        <time>2018-10-21T09:14:29Z</time>
      </trkpt>
      <trkpt lat="46.35577" lon="2.86353">
        <ele>297.2</ele>
        <time>2018-10-21T09:14:30Z</time>
      </trkpt>
      <trkpt lat="46.35584" lon="2.86344">
        <ele>296.9</ele>
        <time>2018-10-21T09:14:32Z</time>
      </trkpt>
      <trkpt lat="46.3559" lon="2.86336">
        <ele>296.5</ele>
        <time>2018-10-21T09:14:34Z</time>
      </trkpt>
      <trkpt lat="46.35596" lon="2.86329">
        <ele>296.2</ele>
        <time>2018-10-21T09:14:36Z</time>
      </trkpt>
      <trkpt lat="46.356" lon="2.8632">
        <ele>295.9</ele>
        <time>2018-10-21T09:14:38Z</time>
      </trkpt>
      <trkpt lat="46.35604" lon="2.86312">
        <ele>295.9</ele>
        <time>2018-10-21T09:14:40Z</time>
      </trkpt>
      <trkpt lat="46.35608" lon="2.86303">
        <ele>296.2</ele>
        <time>2018-10-21T09:14:42Z</time>
      </trkpt>
      <trkpt lat="46.35609" lon="2.86294">
        <ele>296.7</ele>
        <time>2018-10-21T09:14:44Z</time>
      </trkpt>
      <trkpt lat="46.3561" lon="2.86286">
        <ele>297.2</ele>
        <time>2018-10-21T09:14:46Z</time>
      </trkpt>
      <trkpt lat="46.35608" lon="2.86273">
        <ele>297.2</ele>
        <time>2018-10-21T09:14:49Z</time>
      </trkpt>
      <trkpt lat="46.35608" lon="2.86261">
        <ele>297.8</ele>
        <time>2018-10-21T09:14:52Z</time>
      </trkpt>
      <trkpt lat="46.35608" lon="2.86249">
        <ele>298.4</ele>
        <time>2018-10-21T09:14:55Z</time>
      </trkpt>
      <trkpt lat="46.3561" lon="2.8624">
        <ele>299</ele>
        <time>2018-10-21T09:14:58Z</time>
      </trkpt>
      <trkpt lat="46.35611" lon="2.86229">
        <ele>299.6</ele>
        <time>2018-10-21T09:15:01Z</time>
      </trkpt>
      <trkpt lat="46.35612" lon="2.86219">
        <ele>301</ele>
        <time>2018-10-21T09:15:04Z</time>
      </trkpt>
      <trkpt lat="46.35613" lon="2.86207">
        <ele>301.6</ele>
        <time>2018-10-21T09:15:07Z</time>
      </trkpt>
      <trkpt lat="46.35613" lon="2.86195">
        <ele>302.8</ele>
        <time>2018-10-21T09:15:11Z</time>
      </trkpt>
      <trkpt lat="46.35612" lon="2.86182">
        <ele>304</ele>
        <time>2018-10-21T09:15:15Z</time>
      </trkpt>
      <trkpt lat="46.3561" lon="2.86171">
        <ele>305</ele>
        <time>2018-10-21T09:15:19Z</time>
      </trkpt>
      <trkpt lat="46.35606" lon="2.86162">
        <ele>306.2</ele>
        <time>2018-10-21T09:15:23Z</time>
      </trkpt>
      <trkpt lat="46.35601" lon="2.86151">
        <ele>307.5</ele>
        <time>2018-10-21T09:15:28Z</time>
      </trkpt>
      <trkpt lat="46.356" lon="2.86149">
        <ele>307.8</ele>
        <time>2018-10-21T09:15:29Z</time>
      </trkpt>
      <trkpt lat="46.35593" lon="2.86132">
        <ele>308.4</ele>
        <time>2018-10-21T09:15:36Z</time>
      </trkpt>
      <trkpt lat="46.35589" lon="2.86124">
        <ele>310.7</ele>
        <time>2018-10-21T09:15:40Z</time>
      </trkpt>
      <trkpt lat="46.35584" lon="2.86115">
        <ele>311.3</ele>
        <time>2018-10-21T09:15:44Z</time>
      </trkpt>
      <trkpt lat="46.3558" lon="2.86107">
        <ele>311.3</ele>
        <time>2018-10-21T09:15:48Z</time>
      </trkpt>
      <trkpt lat="46.35575" lon="2.86098">
        <ele>313.4</ele>
        <time>2018-10-21T09:15:52Z</time>
      </trkpt>
      <trkpt lat="46.35571" lon="2.86089">
        <ele>314.6</ele>
        <time>2018-10-21T09:15:58Z</time>
      </trkpt>
      <trkpt lat="46.35565" lon="2.86081">
        <ele>316</ele>
        <time>2018-10-21T09:16:04Z</time>
      </trkpt>
      <trkpt lat="46.35559" lon="2.86073">
        <ele>317.3</ele>
        <time>2018-10-21T09:16:10Z</time>
      </trkpt>
      <trkpt lat="46.35552" lon="2.86066">
        <ele>318.1</ele>
        <time>2018-10-21T09:16:19Z</time>
      </trkpt>
      <trkpt lat="46.35545" lon="2.86058">
        <ele>318.2</ele>
        <time>2018-10-21T09:16:24Z</time>
      </trkpt>
      <trkpt lat="46.35539" lon="2.86053">
        <ele>319</ele>
        <time>2018-10-21T09:16:28Z</time>
      </trkpt>
      <trkpt lat="46.35533" lon="2.86044">
        <ele>320</ele>
        <time>2018-10-21T09:16:32Z</time>
      </trkpt>
      <trkpt lat="46.35531" lon="2.86042">
        <ele>320</ele>
        <time>2018-10-21T09:16:33Z</time>
      </trkpt>
      <trkpt lat="46.35523" lon="2.86027">
        <ele>321</ele>
        <time>2018-10-21T09:16:39Z</time>
      </trkpt>
      <trkpt lat="46.35519" lon="2.86019">
        <ele>322.1</ele>
        <time>2018-10-21T09:16:42Z</time>
      </trkpt>
      <trkpt lat="46.35514" lon="2.86011">
        <ele>323.1</ele>
        <time>2018-10-21T09:16:45Z</time>
      </trkpt>
      <trkpt lat="46.35508" lon="2.86002">
        <ele>323.5</ele>
        <time>2018-10-21T09:16:48Z</time>
      </trkpt>
      <trkpt lat="46.35504" lon="2.85994">
        <ele>323.6</ele>
        <time>2018-10-21T09:16:51Z</time>
      </trkpt>
      <trkpt lat="46.35498" lon="2.85986">
        <ele>323.6</ele>
        <time>2018-10-21T09:16:54Z</time>
      </trkpt>
      <trkpt lat="46.35493" lon="2.85977">
        <ele>324.4</ele>
        <time>2018-10-21T09:16:57Z</time>
      </trkpt>
      <trkpt lat="46.35487" lon="2.85967">
        <ele>325.5</ele>
        <time>2018-10-21T09:17:00Z</time>
      </trkpt>
      <trkpt lat="46.35481" lon="2.85959">
        <ele>325.9</ele>
        <time>2018-10-21T09:17:03Z</time>
      </trkpt>
      <trkpt lat="46.35475" lon="2.8595">
        <ele>326.1</ele>
        <time>2018-10-21T09:17:06Z</time>
      </trkpt>
      <trkpt lat="46.35471" lon="2.85943">
        <ele>326.6</ele>
        <time>2018-10-21T09:17:08Z</time>
      </trkpt>
      <trkpt lat="46.35467" lon="2.85936">
        <ele>327</ele>
        <time>2018-10-21T09:17:10Z</time>
      </trkpt>
      <trkpt lat="46.35462" lon="2.8593">
        <ele>327.2</ele>
        <time>2018-10-21T09:17:12Z</time>
      </trkpt>
      <trkpt lat="46.35458" lon="2.85923">
        <ele>327.5</ele>
        <time>2018-10-21T09:17:14Z</time>
      </trkpt>
      <trkpt lat="46.35453" lon="2.85916">
        <ele>327.9</ele>
        <time>2018-10-21T09:17:16Z</time>
      </trkpt>
      <trkpt lat="46.35449" lon="2.85909">
        <ele>328</ele>
        <time>2018-10-21T09:17:18Z</time>
      </trkpt>
      <trkpt lat="46.35445" lon="2.85902">
        <ele>328.9</ele>
        <time>2018-10-21T09:17:20Z</time>
      </trkpt>
      <trkpt lat="46.3544" lon="2.85895">
        <ele>329.2</ele>
        <time>2018-10-21T09:17:22Z</time>
      </trkpt>
      <trkpt lat="46.35436" lon="2.85888">
        <ele>329</ele>
        <time>2018-10-21T09:17:24Z</time>
      </trkpt>
      <trkpt lat="46.35432" lon="2.85882">
        <ele>329.1</ele>
        <time>2018-10-21T09:17:26Z</time>
      </trkpt>
      <trkpt lat="46.35427" lon="2.85875">
        <ele>329.3</ele>
        <time>2018-10-21T09:17:28Z</time>
      </trkpt>
      <trkpt lat="46.35429" lon="2.85863">
        <ele>329.7</ele>
        <time>2018-10-21T09:17:31Z</time>
      </trkpt>
      <trkpt lat="46.35435" lon="2.85858">
        <ele>329.4</ele>
        <time>2018-10-21T09:17:33Z</time>
      </trkpt>
      <trkpt lat="46.35439" lon="2.85854">
        <ele>329.2</ele>
        <time>2018-10-21T09:17:34Z</time>
      </trkpt>
      <trkpt lat="46.35449" lon="2.85842">
        <ele>329.4</ele>
        <time>2018-10-21T09:17:37Z</time>
      </trkpt>
      <trkpt lat="46.35452" lon="2.85838">
        <ele>329.7</ele>
        <time>2018-10-21T09:17:38Z</time>
      </trkpt>
      <trkpt lat="46.35456" lon="2.85833">
        <ele>330</ele>
        <time>2018-10-21T09:17:39Z</time>
      </trkpt>
      <trkpt lat="46.35459" lon="2.85828">
        <ele>330.1</ele>
        <time>2018-10-21T09:17:40Z</time>
      </trkpt>
      <trkpt lat="46.35463" lon="2.85823">
        <ele>329.8</ele>
        <time>2018-10-21T09:17:41Z</time>
      </trkpt>
      <trkpt lat="46.35466" lon="2.85819">
        <ele>329.5</ele>
        <time>2018-10-21T09:17:42Z</time>
      </trkpt>
      <trkpt lat="46.3547" lon="2.85813">
        <ele>329.4</ele>
        <time>2018-10-21T09:17:43Z</time>
      </trkpt>
      <trkpt lat="46.35474" lon="2.85808">
        <ele>329.4</ele>
        <time>2018-10-21T09:17:44Z</time>
      </trkpt>
      <trkpt lat="46.35477" lon="2.85803">
        <ele>329.1</ele>
        <time>2018-10-21T09:17:45Z</time>
      </trkpt>
      <trkpt lat="46.35481" lon="2.85798">
        <ele>329</ele>
        <time>2018-10-21T09:17:46Z</time>
      </trkpt>
      <trkpt lat="46.35485" lon="2.85792">
        <ele>328.8</ele>
        <time>2018-10-21T09:17:47Z</time>
      </trkpt>
      <trkpt lat="46.35489" lon="2.85787">
        <ele>328.8</ele>
        <time>2018-10-21T09:17:48Z</time>
      </trkpt>
      <trkpt lat="46.35494" lon="2.85781">
        <ele>328.8</ele>
        <time>2018-10-21T09:17:49Z</time>
      </trkpt>
      <trkpt lat="46.35498" lon="2.85775">
        <ele>328.6</ele>
        <time>2018-10-21T09:17:50Z</time>
      </trkpt>
      <trkpt lat="46.35503" lon="2.85769">
        <ele>328.4</ele>
        <time>2018-10-21T09:17:51Z</time>
      </trkpt>
      <trkpt lat="46.35507" lon="2.85763">
        <ele>327.7</ele>
        <time>2018-10-21T09:17:52Z</time>
      </trkpt>
      <trkpt lat="46.35512" lon="2.85756">
        <ele>327.2</ele>
        <time>2018-10-21T09:17:53Z</time>
      </trkpt>
      <trkpt lat="46.35517" lon="2.85749">
        <ele>326.8</ele>
        <time>2018-10-21T09:17:54Z</time>
      </trkpt>
      <trkpt lat="46.35522" lon="2.85742">
        <ele>326.1</ele>
        <time>2018-10-21T09:17:55Z</time>
      </trkpt>
      <trkpt lat="46.35527" lon="2.85735">
        <ele>325.6</ele>
        <time>2018-10-21T09:17:56Z</time>
      </trkpt>
      <trkpt lat="46.35532" lon="2.85728">
        <ele>325.3</ele>
        <time>2018-10-21T09:17:57Z</time>
      </trkpt>
      <trkpt lat="46.35538" lon="2.85721">
        <ele>325</ele>
        <time>2018-10-21T09:17:58Z</time>
      </trkpt>
      <trkpt lat="46.35543" lon="2.85713">
        <ele>324.8</ele>
        <time>2018-10-21T09:17:59Z</time>
      </trkpt>
      <trkpt lat="46.35549" lon="2.85706">
        <ele>324.5</ele>
        <time>2018-10-21T09:18:00Z</time>
      </trkpt>
      <trkpt lat="46.35554" lon="2.85698">
        <ele>324.2</ele>
        <time>2018-10-21T09:18:01Z</time>
      </trkpt>
      <trkpt lat="46.3556" lon="2.8569">
        <ele>323.6</ele>
        <time>2018-10-21T09:18:02Z</time>
      </trkpt>
      <trkpt lat="46.35566" lon="2.85682">
        <ele>323.1</ele>
        <time>2018-10-21T09:18:03Z</time>
      </trkpt>
      <trkpt lat="46.35571" lon="2.85675">
        <ele>323</ele>
        <time>2018-10-21T09:18:04Z</time>
      </trkpt>
      <trkpt lat="46.35577" lon="2.85667">
        <ele>322.9</ele>
        <time>2018-10-21T09:18:05Z</time>
      </trkpt>
      <trkpt lat="46.35583" lon="2.8566">
        <ele>322.9</ele>
        <time>2018-10-21T09:18:06Z</time>
      </trkpt>
      <trkpt lat="46.35588" lon="2.85652">
        <ele>322.5</ele>
        <time>2018-10-21T09:18:07Z</time>
      </trkpt>
      <trkpt lat="46.35594" lon="2.85644">
        <ele>322.2</ele>
        <time>2018-10-21T09:18:08Z</time>
      </trkpt>
      <trkpt lat="46.35599" lon="2.85637">
        <ele>322</ele>
        <time>2018-10-21T09:18:09Z</time>
      </trkpt>
      <trkpt lat="46.35604" lon="2.8563">
        <ele>321.9</ele>
        <time>2018-10-21T09:18:10Z</time>
      </trkpt>
      <trkpt lat="46.3561" lon="2.85623">
        <ele>321.9</ele>
        <time>2018-10-21T09:18:11Z</time>
      </trkpt>
      <trkpt lat="46.35615" lon="2.85616">
        <ele>321.2</ele>
        <time>2018-10-21T09:18:12Z</time>
      </trkpt>
      <trkpt lat="46.35619" lon="2.85609">
        <ele>320.8</ele>
        <time>2018-10-21T09:18:13Z</time>
      </trkpt>
      <trkpt lat="46.35624" lon="2.85602">
        <ele>320.6</ele>
        <time>2018-10-21T09:18:14Z</time>
      </trkpt>
      <trkpt lat="46.35627" lon="2.85594">
        <ele>320.5</ele>
        <time>2018-10-21T09:18:15Z</time>
      </trkpt>
      <trkpt lat="46.35631" lon="2.85587">
        <ele>320.8</ele>
        <time>2018-10-21T09:18:16Z</time>
      </trkpt>
      <trkpt lat="46.35634" lon="2.8558">
        <ele>321.1</ele>
        <time>2018-10-21T09:18:17Z</time>
      </trkpt>
      <trkpt lat="46.35637" lon="2.85573">
        <ele>321.2</ele>
        <time>2018-10-21T09:18:18Z</time>
      </trkpt>
      <trkpt lat="46.35641" lon="2.85566">
        <ele>320.5</ele>
        <time>2018-10-21T09:18:19Z</time>
      </trkpt>
      <trkpt lat="46.35643" lon="2.85558">
        <ele>319.9</ele>
        <time>2018-10-21T09:18:20Z</time>
      </trkpt>
      <trkpt lat="46.35646" lon="2.85551">
        <ele>320</ele>
        <time>2018-10-21T09:18:21Z</time>
      </trkpt>
      <trkpt lat="46.35649" lon="2.85544">
        <ele>320</ele>
        <time>2018-10-21T09:18:22Z</time>
      </trkpt>
      <trkpt lat="46.35652" lon="2.85538">
        <ele>320.2</ele>
        <time>2018-10-21T09:18:23Z</time>
      </trkpt>
      <trkpt lat="46.35655" lon="2.85531">
        <ele>320.3</ele>
        <time>2018-10-21T09:18:24Z</time>
      </trkpt>
      <trkpt lat="46.35658" lon="2.85524">
        <ele>320.4</ele>
        <time>2018-10-21T09:18:25Z</time>
      </trkpt>
      <trkpt lat="46.3566" lon="2.85518">
        <ele>320.2</ele>
        <time>2018-10-21T09:18:26Z</time>
      </trkpt>
      <trkpt lat="46.35663" lon="2.85511">
        <ele>320</ele>
        <time>2018-10-21T09:18:27Z</time>
      </trkpt>
      <trkpt lat="46.35666" lon="2.85504">
        <ele>320.1</ele>
        <time>2018-10-21T09:18:28Z</time>
      </trkpt>
      <trkpt lat="46.35669" lon="2.85498">
        <ele>320.2</ele>
        <time>2018-10-21T09:18:29Z</time>
      </trkpt>
      <trkpt lat="46.35671" lon="2.85491">
        <ele>320.2</ele>
        <time>2018-10-21T09:18:30Z</time>
      </trkpt>
      <trkpt lat="46.35674" lon="2.85484">
        <ele>320.5</ele>
        <time>2018-10-21T09:18:31Z</time>
      </trkpt>
      <trkpt lat="46.35677" lon="2.85478">
        <ele>320.6</ele>
        <time>2018-10-21T09:18:32Z</time>
      </trkpt>
      <trkpt lat="46.35679" lon="2.85471">
        <ele>320.2</ele>
        <time>2018-10-21T09:18:33Z</time>
      </trkpt>
      <trkpt lat="46.35682" lon="2.85464">
        <ele>319.8</ele>
        <time>2018-10-21T09:18:34Z</time>
      </trkpt>
      <trkpt lat="46.35685" lon="2.85458">
        <ele>319.8</ele>
        <time>2018-10-21T09:18:35Z</time>
      </trkpt>
      <trkpt lat="46.35688" lon="2.85451">
        <ele>319.8</ele>
        <time>2018-10-21T09:18:36Z</time>
      </trkpt>
      <trkpt lat="46.3569" lon="2.85445">
        <ele>319.7</ele>
        <time>2018-10-21T09:18:37Z</time>
      </trkpt>
      <trkpt lat="46.35693" lon="2.85438">
        <ele>319.6</ele>
        <time>2018-10-21T09:18:38Z</time>
      </trkpt>
      <trkpt lat="46.35696" lon="2.85432">
        <ele>319.5</ele>
        <time>2018-10-21T09:18:39Z</time>
      </trkpt>
      <trkpt lat="46.35698" lon="2.85425">
        <ele>319.3</ele>
        <time>2018-10-21T09:18:40Z</time>
      </trkpt>
      <trkpt lat="46.35701" lon="2.85419">
        <ele>319.1</ele>
        <time>2018-10-21T09:18:41Z</time>
      </trkpt>
      <trkpt lat="46.35704" lon="2.85412">
        <ele>319.2</ele>
        <time>2018-10-21T09:18:42Z</time>
      </trkpt>
      <trkpt lat="46.35706" lon="2.85405">
        <ele>319.3</ele>
        <time>2018-10-21T09:18:43Z</time>
      </trkpt>
      <trkpt lat="46.35709" lon="2.85399">
        <ele>319.3</ele>
        <time>2018-10-21T09:18:44Z</time>
      </trkpt>
      <trkpt lat="46.35711" lon="2.85392">
        <ele>319.3</ele>
        <time>2018-10-21T09:18:45Z</time>
      </trkpt>
      <trkpt lat="46.35714" lon="2.85386">
        <ele>319.3</ele>
        <time>2018-10-21T09:18:46Z</time>
      </trkpt>
      <trkpt lat="46.35717" lon="2.8538">
        <ele>319</ele>
        <time>2018-10-21T09:18:47Z</time>
      </trkpt>
      <trkpt lat="46.3572" lon="2.85373">
        <ele>318.8</ele>
        <time>2018-10-21T09:18:48Z</time>
      </trkpt>
      <trkpt lat="46.35723" lon="2.85368">
        <ele>318.6</ele>
        <time>2018-10-21T09:18:49Z</time>
      </trkpt>
      <trkpt lat="46.35726" lon="2.85362">
        <ele>319.3</ele>
        <time>2018-10-21T09:18:50Z</time>
      </trkpt>
      <trkpt lat="46.35729" lon="2.85356">
        <ele>319.8</ele>
        <time>2018-10-21T09:18:51Z</time>
      </trkpt>
      <trkpt lat="46.35733" lon="2.85351">
        <ele>319.3</ele>
        <time>2018-10-21T09:18:52Z</time>
      </trkpt>
      <trkpt lat="46.35736" lon="2.85347">
        <ele>319</ele>
        <time>2018-10-21T09:18:53Z</time>
      </trkpt>
      <trkpt lat="46.3574" lon="2.85342">
        <ele>318.7</ele>
        <time>2018-10-21T09:18:54Z</time>
      </trkpt>
      <trkpt lat="46.35743" lon="2.85338">
        <ele>318.5</ele>
        <time>2018-10-21T09:18:55Z</time>
      </trkpt>
      <trkpt lat="46.35751" lon="2.85331">
        <ele>318.6</ele>
        <time>2018-10-21T09:18:57Z</time>
      </trkpt>
      <trkpt lat="46.35755" lon="2.85327">
        <ele>318.8</ele>
        <time>2018-10-21T09:18:58Z</time>
      </trkpt>
      <trkpt lat="46.35762" lon="2.8532">
        <ele>318.6</ele>
        <time>2018-10-21T09:19:00Z</time>
      </trkpt>
      <trkpt lat="46.35769" lon="2.85313">
        <ele>318.7</ele>
        <time>2018-10-21T09:19:02Z</time>
      </trkpt>
      <trkpt lat="46.35776" lon="2.85306">
        <ele>319.2</ele>
        <time>2018-10-21T09:19:04Z</time>
      </trkpt>
      <trkpt lat="46.35784" lon="2.85299">
        <ele>319.8</ele>
        <time>2018-10-21T09:19:06Z</time>
      </trkpt>
      <trkpt lat="46.35791" lon="2.85292">
        <ele>320.1</ele>
        <time>2018-10-21T09:19:08Z</time>
      </trkpt>
      <trkpt lat="46.35798" lon="2.85286">
        <ele>320.2</ele>
        <time>2018-10-21T09:19:10Z</time>
      </trkpt>
      <trkpt lat="46.35805" lon="2.85279">
        <ele>321</ele>
        <time>2018-10-21T09:19:12Z</time>
      </trkpt>
      <trkpt lat="46.35812" lon="2.85272">
        <ele>321.2</ele>
        <time>2018-10-21T09:19:14Z</time>
      </trkpt>
      <trkpt lat="46.35819" lon="2.85265">
        <ele>321.6</ele>
        <time>2018-10-21T09:19:16Z</time>
      </trkpt>
      <trkpt lat="46.35826" lon="2.85259">
        <ele>321.8</ele>
        <time>2018-10-21T09:19:18Z</time>
      </trkpt>
      <trkpt lat="46.35833" lon="2.85252">
        <ele>321.7</ele>
        <time>2018-10-21T09:19:20Z</time>
      </trkpt>
      <trkpt lat="46.3584" lon="2.85246">
        <ele>321.9</ele>
        <time>2018-10-21T09:19:22Z</time>
      </trkpt>
      <trkpt lat="46.35846" lon="2.85239">
        <ele>322.3</ele>
        <time>2018-10-21T09:19:24Z</time>
      </trkpt>
      <trkpt lat="46.35853" lon="2.85233">
        <ele>322.6</ele>
        <time>2018-10-21T09:19:26Z</time>
      </trkpt>
      <trkpt lat="46.3586" lon="2.85226">
        <ele>322.8</ele>
        <time>2018-10-21T09:19:28Z</time>
      </trkpt>
      <trkpt lat="46.35867" lon="2.8522">
        <ele>323.2</ele>
        <time>2018-10-21T09:19:30Z</time>
      </trkpt>
      <trkpt lat="46.35874" lon="2.85214">
        <ele>323.5</ele>
        <time>2018-10-21T09:19:32Z</time>
      </trkpt>
      <trkpt lat="46.35881" lon="2.85207">
        <ele>323.6</ele>
        <time>2018-10-21T09:19:34Z</time>
      </trkpt>
      <trkpt lat="46.35887" lon="2.85201">
        <ele>324.1</ele>
        <time>2018-10-21T09:19:36Z</time>
      </trkpt>
      <trkpt lat="46.35891" lon="2.85198">
        <ele>324.3</ele>
        <time>2018-10-21T09:19:37Z</time>
      </trkpt>
      <trkpt lat="46.35901" lon="2.85188">
        <ele>324.8</ele>
        <time>2018-10-21T09:19:40Z</time>
      </trkpt>
      <trkpt lat="46.35907" lon="2.85182">
        <ele>325.4</ele>
        <time>2018-10-21T09:19:42Z</time>
      </trkpt>
      <trkpt lat="46.35914" lon="2.85175">
        <ele>325.7</ele>
        <time>2018-10-21T09:19:44Z</time>
      </trkpt>
      <trkpt lat="46.3592" lon="2.85169">
        <ele>325.6</ele>
        <time>2018-10-21T09:19:46Z</time>
      </trkpt>
      <trkpt lat="46.35927" lon="2.85162">
        <ele>325.9</ele>
        <time>2018-10-21T09:19:48Z</time>
      </trkpt>
      <trkpt lat="46.35933" lon="2.85155">
        <ele>325.1</ele>
        <time>2018-10-21T09:19:50Z</time>
      </trkpt>
      <trkpt lat="46.35939" lon="2.85149">
        <ele>325.3</ele>
        <time>2018-10-21T09:19:52Z</time>
      </trkpt>
      <trkpt lat="46.35944" lon="2.85142">
        <ele>326.2</ele>
        <time>2018-10-21T09:19:54Z</time>
      </trkpt>
      <trkpt lat="46.3595" lon="2.85136">
        <ele>327.2</ele>
        <time>2018-10-21T09:19:56Z</time>
      </trkpt>
      <trkpt lat="46.35954" lon="2.8513">
        <ele>327.7</ele>
        <time>2018-10-21T09:19:58Z</time>
      </trkpt>
      <trkpt lat="46.35959" lon="2.85124">
        <ele>328</ele>
        <time>2018-10-21T09:20:00Z</time>
      </trkpt>
      <trkpt lat="46.35964" lon="2.85118">
        <ele>328.5</ele>
        <time>2018-10-21T09:20:02Z</time>
      </trkpt>
      <trkpt lat="46.3597" lon="2.85111">
        <ele>329.1</ele>
        <time>2018-10-21T09:20:04Z</time>
      </trkpt>
      <trkpt lat="46.35976" lon="2.85105">
        <ele>329.6</ele>
        <time>2018-10-21T09:20:06Z</time>
      </trkpt>
      <trkpt lat="46.35982" lon="2.851">
        <ele>330.2</ele>
        <time>2018-10-21T09:20:08Z</time>
      </trkpt>
      <trkpt lat="46.35988" lon="2.85095">
        <ele>330.6</ele>
        <time>2018-10-21T09:20:10Z</time>
      </trkpt>
      <trkpt lat="46.35994" lon="2.85089">
        <ele>330.2</ele>
        <time>2018-10-21T09:20:12Z</time>
      </trkpt>
      <trkpt lat="46.36" lon="2.85084">
        <ele>330.4</ele>
        <time>2018-10-21T09:20:14Z</time>
      </trkpt>
      <trkpt lat="46.36006" lon="2.85078">
        <ele>330.5</ele>
        <time>2018-10-21T09:20:16Z</time>
      </trkpt>
      <trkpt lat="46.36013" lon="2.85072">
        <ele>330.8</ele>
        <time>2018-10-21T09:20:18Z</time>
      </trkpt>
      <trkpt lat="46.36019" lon="2.85065">
        <ele>331.4</ele>
        <time>2018-10-21T09:20:20Z</time>
      </trkpt>
      <trkpt lat="46.36025" lon="2.85059">
        <ele>331.5</ele>
        <time>2018-10-21T09:20:22Z</time>
      </trkpt>
      <trkpt lat="46.36031" lon="2.85052">
        <ele>331.3</ele>
        <time>2018-10-21T09:20:24Z</time>
      </trkpt>
      <trkpt lat="46.36038" lon="2.85045">
        <ele>331.4</ele>
        <time>2018-10-21T09:20:26Z</time>
      </trkpt>
      <trkpt lat="46.36044" lon="2.85039">
        <ele>331.9</ele>
        <time>2018-10-21T09:20:28Z</time>
      </trkpt>
      <trkpt lat="46.3605" lon="2.85032">
        <ele>332</ele>
        <time>2018-10-21T09:20:30Z</time>
      </trkpt>
      <trkpt lat="46.36056" lon="2.85027">
        <ele>332</ele>
        <time>2018-10-21T09:20:32Z</time>
      </trkpt>
      <trkpt lat="46.36063" lon="2.85021">
        <ele>332</ele>
        <time>2018-10-21T09:20:34Z</time>
      </trkpt>
      <trkpt lat="46.3607" lon="2.85015">
        <ele>332</ele>
        <time>2018-10-21T09:20:36Z</time>
      </trkpt>
      <trkpt lat="46.36076" lon="2.85009">
        <ele>332.8</ele>
        <time>2018-10-21T09:20:38Z</time>
      </trkpt>
      <trkpt lat="46.3608" lon="2.85005">
        <ele>332.9</ele>
        <time>2018-10-21T09:20:39Z</time>
      </trkpt>
      <trkpt lat="46.36089" lon="2.84996">
        <ele>333.1</ele>
        <time>2018-10-21T09:20:42Z</time>
      </trkpt>
      <trkpt lat="46.36096" lon="2.84989">
        <ele>333.1</ele>
        <time>2018-10-21T09:20:44Z</time>
      </trkpt>
      <trkpt lat="46.36102" lon="2.84981">
        <ele>333.5</ele>
        <time>2018-10-21T09:20:46Z</time>
      </trkpt>
      <trkpt lat="46.36108" lon="2.84974">
        <ele>334</ele>
        <time>2018-10-21T09:20:48Z</time>
      </trkpt>
      <trkpt lat="46.36114" lon="2.84965">
        <ele>334.2</ele>
        <time>2018-10-21T09:20:50Z</time>
      </trkpt>
      <trkpt lat="46.36119" lon="2.84956">
        <ele>334.7</ele>
        <time>2018-10-21T09:20:52Z</time>
      </trkpt>
      <trkpt lat="46.36124" lon="2.84947">
        <ele>335</ele>
        <time>2018-10-21T09:20:54Z</time>
      </trkpt>
      <trkpt lat="46.36129" lon="2.84937">
        <ele>334.7</ele>
        <time>2018-10-21T09:20:56Z</time>
      </trkpt>
      <trkpt lat="46.36134" lon="2.84928">
        <ele>334.3</ele>
        <time>2018-10-21T09:20:58Z</time>
      </trkpt>
      <trkpt lat="46.36139" lon="2.84919">
        <ele>334.1</ele>
        <time>2018-10-21T09:21:00Z</time>
      </trkpt>
      <trkpt lat="46.36145" lon="2.84911">
        <ele>334.6</ele>
        <time>2018-10-21T09:21:02Z</time>
      </trkpt>
      <trkpt lat="46.36151" lon="2.84904">
        <ele>334.7</ele>
        <time>2018-10-21T09:21:04Z</time>
      </trkpt>
      <trkpt lat="46.36156" lon="2.84895">
        <ele>335.4</ele>
        <time>2018-10-21T09:21:06Z</time>
      </trkpt>
      <trkpt lat="46.36161" lon="2.84886">
        <ele>335.7</ele>
        <time>2018-10-21T09:21:08Z</time>
      </trkpt>
      <trkpt lat="46.36166" lon="2.84877">
        <ele>335.5</ele>
        <time>2018-10-21T09:21:10Z</time>
      </trkpt>
      <trkpt lat="46.3617" lon="2.84868">
        <ele>335.2</ele>
        <time>2018-10-21T09:21:12Z</time>
      </trkpt>
      <trkpt lat="46.36175" lon="2.84858">
        <ele>335.7</ele>
        <time>2018-10-21T09:21:14Z</time>
      </trkpt>
      <trkpt lat="46.36179" lon="2.84848">
        <ele>336.1</ele>
        <time>2018-10-21T09:21:16Z</time>
      </trkpt>
      <trkpt lat="46.36183" lon="2.84839">
        <ele>336.6</ele>
        <time>2018-10-21T09:21:18Z</time>
      </trkpt>
      <trkpt lat="46.36188" lon="2.8483">
        <ele>336.8</ele>
        <time>2018-10-21T09:21:20Z</time>
      </trkpt>
      <trkpt lat="46.36192" lon="2.8482">
        <ele>337</ele>
        <time>2018-10-21T09:21:22Z</time>
      </trkpt>
      <trkpt lat="46.36197" lon="2.8481">
        <ele>337.2</ele>
        <time>2018-10-21T09:21:24Z</time>
      </trkpt>
      <trkpt lat="46.36202" lon="2.84802">
        <ele>337.3</ele>
        <time>2018-10-21T09:21:26Z</time>
      </trkpt>
      <trkpt lat="46.36208" lon="2.84792">
        <ele>337.5</ele>
        <time>2018-10-21T09:21:28Z</time>
      </trkpt>
      <trkpt lat="46.36213" lon="2.84783">
        <ele>337.5</ele>
        <time>2018-10-21T09:21:30Z</time>
      </trkpt>
      <trkpt lat="46.36219" lon="2.84774">
        <ele>337.7</ele>
        <time>2018-10-21T09:21:32Z</time>
      </trkpt>
      <trkpt lat="46.36222" lon="2.84769">
        <ele>337.9</ele>
        <time>2018-10-21T09:21:33Z</time>
      </trkpt>
      <trkpt lat="46.36225" lon="2.84764">
        <ele>337.8</ele>
        <time>2018-10-21T09:21:34Z</time>
      </trkpt>
      <trkpt lat="46.36228" lon="2.84759">
        <ele>337.7</ele>
        <time>2018-10-21T09:21:35Z</time>
      </trkpt>
      <trkpt lat="46.36231" lon="2.84753">
        <ele>337.6</ele>
        <time>2018-10-21T09:21:36Z</time>
      </trkpt>
      <trkpt lat="46.36233" lon="2.84747">
        <ele>337.6</ele>
        <time>2018-10-21T09:21:37Z</time>
      </trkpt>
      <trkpt lat="46.36236" lon="2.84742">
        <ele>337.6</ele>
        <time>2018-10-21T09:21:38Z</time>
      </trkpt>
      <trkpt lat="46.36239" lon="2.84736">
        <ele>337.6</ele>
        <time>2018-10-21T09:21:39Z</time>
      </trkpt>
      <trkpt lat="46.36242" lon="2.8473">
        <ele>337.5</ele>
        <time>2018-10-21T09:21:40Z</time>
      </trkpt>
      <trkpt lat="46.36245" lon="2.84724">
        <ele>337</ele>
        <time>2018-10-21T09:21:41Z</time>
      </trkpt>
      <trkpt lat="46.36248" lon="2.84718">
        <ele>336.7</ele>
        <time>2018-10-21T09:21:42Z</time>
      </trkpt>
      <trkpt lat="46.36251" lon="2.84713">
        <ele>336.1</ele>
        <time>2018-10-21T09:21:43Z</time>
      </trkpt>
      <trkpt lat="46.36254" lon="2.84706">
        <ele>335.6</ele>
        <time>2018-10-21T09:21:44Z</time>
      </trkpt>
      <trkpt lat="46.36257" lon="2.847">
        <ele>335.3</ele>
        <time>2018-10-21T09:21:45Z</time>
      </trkpt>
      <trkpt lat="46.3626" lon="2.84693">
        <ele>335.4</ele>
        <time>2018-10-21T09:21:46Z</time>
      </trkpt>
      <trkpt lat="46.36264" lon="2.84686">
        <ele>335.4</ele>
        <time>2018-10-21T09:21:47Z</time>
      </trkpt>
      <trkpt lat="46.36267" lon="2.84679">
        <ele>335.6</ele>
        <time>2018-10-21T09:21:48Z</time>
      </trkpt>
      <trkpt lat="46.36271" lon="2.84672">
        <ele>335.6</ele>
        <time>2018-10-21T09:21:49Z</time>
      </trkpt>
      <trkpt lat="46.36274" lon="2.84665">
        <ele>335.7</ele>
        <time>2018-10-21T09:21:50Z</time>
      </trkpt>
      <trkpt lat="46.36277" lon="2.84658">
        <ele>335.9</ele>
        <time>2018-10-21T09:21:51Z</time>
      </trkpt>
      <trkpt lat="46.3628" lon="2.84651">
        <ele>336</ele>
        <time>2018-10-21T09:21:52Z</time>
      </trkpt>
      <trkpt lat="46.36283" lon="2.84644">
        <ele>335.6</ele>
        <time>2018-10-21T09:21:53Z</time>
      </trkpt>
      <trkpt lat="46.36286" lon="2.84637">
        <ele>335.2</ele>
        <time>2018-10-21T09:21:54Z</time>
      </trkpt>
      <trkpt lat="46.36289" lon="2.8463">
        <ele>335.1</ele>
        <time>2018-10-21T09:21:55Z</time>
      </trkpt>
      <trkpt lat="46.36292" lon="2.84623">
        <ele>335</ele>
        <time>2018-10-21T09:21:56Z</time>
      </trkpt>
      <trkpt lat="46.36295" lon="2.84616">
        <ele>335</ele>
        <time>2018-10-21T09:21:57Z</time>
      </trkpt>
      <trkpt lat="46.36298" lon="2.84609">
        <ele>334.8</ele>
        <time>2018-10-21T09:21:58Z</time>
      </trkpt>
      <trkpt lat="46.36301" lon="2.84602">
        <ele>334.6</ele>
        <time>2018-10-21T09:21:59Z</time>
      </trkpt>
      <trkpt lat="46.36304" lon="2.84594">
        <ele>333.9</ele>
        <time>2018-10-21T09:22:00Z</time>
      </trkpt>
      <trkpt lat="46.36308" lon="2.84586">
        <ele>333.4</ele>
        <time>2018-10-21T09:22:01Z</time>
      </trkpt>
      <trkpt lat="46.36311" lon="2.84578">
        <ele>333</ele>
        <time>2018-10-21T09:22:02Z</time>
      </trkpt>
      <trkpt lat="46.36314" lon="2.8457">
        <ele>332.6</ele>
        <time>2018-10-21T09:22:03Z</time>
      </trkpt>
      <trkpt lat="46.36318" lon="2.84561">
        <ele>332.4</ele>
        <time>2018-10-21T09:22:04Z</time>
      </trkpt>
      <trkpt lat="46.36322" lon="2.84552">
        <ele>331.9</ele>
        <time>2018-10-21T09:22:05Z</time>
      </trkpt>
      <trkpt lat="46.36325" lon="2.84543">
        <ele>331.5</ele>
        <time>2018-10-21T09:22:06Z</time>
      </trkpt>
      <trkpt lat="46.36329" lon="2.84534">
        <ele>331</ele>
        <time>2018-10-21T09:22:07Z</time>
      </trkpt>
      <trkpt lat="46.36333" lon="2.84524">
        <ele>330.7</ele>
        <time>2018-10-21T09:22:08Z</time>
      </trkpt>
      <trkpt lat="46.36336" lon="2.84516">
        <ele>330.4</ele>
        <time>2018-10-21T09:22:09Z</time>
      </trkpt>
      <trkpt lat="46.36339" lon="2.84507">
        <ele>330</ele>
        <time>2018-10-21T09:22:10Z</time>
      </trkpt>
      <trkpt lat="46.3634" lon="2.84498">
        <ele>329.7</ele>
        <time>2018-10-21T09:22:11Z</time>
      </trkpt>
      <trkpt lat="46.36341" lon="2.84488">
        <ele>328.7</ele>
        <time>2018-10-21T09:22:12Z</time>
      </trkpt>
      <trkpt lat="46.36341" lon="2.84478">
        <ele>327.9</ele>
        <time>2018-10-21T09:22:13Z</time>
      </trkpt>
      <trkpt lat="46.36342" lon="2.84468">
        <ele>327.4</ele>
        <time>2018-10-21T09:22:14Z</time>
      </trkpt>
      <trkpt lat="46.36342" lon="2.84458">
        <ele>327</ele>
        <time>2018-10-21T09:22:15Z</time>
      </trkpt>
      <trkpt lat="46.36342" lon="2.84448">
        <ele>326.8</ele>
        <time>2018-10-21T09:22:16Z</time>
      </trkpt>
      <trkpt lat="46.36342" lon="2.84437">
        <ele>326.1</ele>
        <time>2018-10-21T09:22:17Z</time>
      </trkpt>
      <trkpt lat="46.36343" lon="2.84427">
        <ele>325.7</ele>
        <time>2018-10-21T09:22:18Z</time>
      </trkpt>
      <trkpt lat="46.36344" lon="2.84417">
        <ele>325.1</ele>
        <time>2018-10-21T09:22:19Z</time>
      </trkpt>
      <trkpt lat="46.36345" lon="2.84408">
        <ele>324.6</ele>
        <time>2018-10-21T09:22:20Z</time>
      </trkpt>
      <trkpt lat="46.36345" lon="2.84398">
        <ele>324.3</ele>
        <time>2018-10-21T09:22:21Z</time>
      </trkpt>
      <trkpt lat="46.36346" lon="2.84389">
        <ele>324.8</ele>
        <time>2018-10-21T09:22:22Z</time>
      </trkpt>
      <trkpt lat="46.36348" lon="2.84381">
        <ele>325.1</ele>
        <time>2018-10-21T09:22:23Z</time>
      </trkpt>
      <trkpt lat="46.36349" lon="2.84373">
        <ele>325.2</ele>
        <time>2018-10-21T09:22:24Z</time>
      </trkpt>
      <trkpt lat="46.36352" lon="2.84366">
        <ele>325.3</ele>
        <time>2018-10-21T09:22:25Z</time>
      </trkpt>
      <trkpt lat="46.36354" lon="2.84359">
        <ele>324.7</ele>
        <time>2018-10-21T09:22:26Z</time>
      </trkpt>
      <trkpt lat="46.36356" lon="2.84352">
        <ele>324.2</ele>
        <time>2018-10-21T09:22:27Z</time>
      </trkpt>
      <trkpt lat="46.36359" lon="2.84345">
        <ele>323.9</ele>
        <time>2018-10-21T09:22:28Z</time>
      </trkpt>
      <trkpt lat="46.36362" lon="2.84338">
        <ele>323.9</ele>
        <time>2018-10-21T09:22:29Z</time>
      </trkpt>
      <trkpt lat="46.36365" lon="2.84332">
        <ele>323.9</ele>
        <time>2018-10-21T09:22:30Z</time>
      </trkpt>
      <trkpt lat="46.36369" lon="2.84325">
        <ele>323.7</ele>
        <time>2018-10-21T09:22:31Z</time>
      </trkpt>
      <trkpt lat="46.36372" lon="2.84319">
        <ele>323.5</ele>
        <time>2018-10-21T09:22:32Z</time>
      </trkpt>
      <trkpt lat="46.36375" lon="2.84312">
        <ele>323.5</ele>
        <time>2018-10-21T09:22:33Z</time>
      </trkpt>
      <trkpt lat="46.36377" lon="2.84305">
        <ele>323.5</ele>
        <time>2018-10-21T09:22:34Z</time>
      </trkpt>
      <trkpt lat="46.3638" lon="2.84299">
        <ele>323.5</ele>
        <time>2018-10-21T09:22:35Z</time>
      </trkpt>
      <trkpt lat="46.36383" lon="2.84293">
        <ele>323.7</ele>
        <time>2018-10-21T09:22:36Z</time>
      </trkpt>
      <trkpt lat="46.36386" lon="2.84287">
        <ele>323.8</ele>
        <time>2018-10-21T09:22:37Z</time>
      </trkpt>
      <trkpt lat="46.36388" lon="2.8428">
        <ele>323.6</ele>
        <time>2018-10-21T09:22:38Z</time>
      </trkpt>
      <trkpt lat="46.36391" lon="2.84274">
        <ele>323.4</ele>
        <time>2018-10-21T09:22:39Z</time>
      </trkpt>
      <trkpt lat="46.36393" lon="2.84268">
        <ele>323.3</ele>
        <time>2018-10-21T09:22:40Z</time>
      </trkpt>
      <trkpt lat="46.36395" lon="2.84261">
        <ele>323.5</ele>
        <time>2018-10-21T09:22:41Z</time>
      </trkpt>
      <trkpt lat="46.36397" lon="2.84255">
        <ele>323.8</ele>
        <time>2018-10-21T09:22:42Z</time>
      </trkpt>
      <trkpt lat="46.36399" lon="2.84248">
        <ele>323.4</ele>
        <time>2018-10-21T09:22:43Z</time>
      </trkpt>
      <trkpt lat="46.36401" lon="2.84241">
        <ele>323.2</ele>
        <time>2018-10-21T09:22:44Z</time>
      </trkpt>
      <trkpt lat="46.36403" lon="2.84234">
        <ele>323.3</ele>
        <time>2018-10-21T09:22:45Z</time>
      </trkpt>
      <trkpt lat="46.36404" lon="2.84227">
        <ele>323.4</ele>
        <time>2018-10-21T09:22:46Z</time>
      </trkpt>
      <trkpt lat="46.36405" lon="2.8422">
        <ele>323.4</ele>
        <time>2018-10-21T09:22:47Z</time>
      </trkpt>
      <trkpt lat="46.36406" lon="2.84214">
        <ele>323.8</ele>
        <time>2018-10-21T09:22:48Z</time>
      </trkpt>
      <trkpt lat="46.36408" lon="2.84207">
        <ele>324</ele>
        <time>2018-10-21T09:22:49Z</time>
      </trkpt>
      <trkpt lat="46.36409" lon="2.84201">
        <ele>323.9</ele>
        <time>2018-10-21T09:22:50Z</time>
      </trkpt>
      <trkpt lat="46.36411" lon="2.84195">
        <ele>323.7</ele>
        <time>2018-10-21T09:22:51Z</time>
      </trkpt>
      <trkpt lat="46.36414" lon="2.84189">
        <ele>324.3</ele>
        <time>2018-10-21T09:22:52Z</time>
      </trkpt>
      <trkpt lat="46.36417" lon="2.84183">
        <ele>324.7</ele>
        <time>2018-10-21T09:22:53Z</time>
      </trkpt>
      <trkpt lat="46.3642" lon="2.84178">
        <ele>325</ele>
        <time>2018-10-21T09:22:54Z</time>
      </trkpt>
      <trkpt lat="46.36423" lon="2.84173">
        <ele>324.9</ele>
        <time>2018-10-21T09:22:55Z</time>
      </trkpt>
      <trkpt lat="46.36427" lon="2.84168">
        <ele>324.8</ele>
        <time>2018-10-21T09:22:56Z</time>
      </trkpt>
      <trkpt lat="46.36431" lon="2.84163">
        <ele>324.9</ele>
        <time>2018-10-21T09:22:57Z</time>
      </trkpt>
      <trkpt lat="46.36435" lon="2.84157">
        <ele>325</ele>
        <time>2018-10-21T09:22:58Z</time>
      </trkpt>
      <trkpt lat="46.36438" lon="2.84152">
        <ele>325.1</ele>
        <time>2018-10-21T09:22:59Z</time>
      </trkpt>
      <trkpt lat="46.36443" lon="2.84149">
        <ele>325.1</ele>
        <time>2018-10-21T09:23:00Z</time>
      </trkpt>
      <trkpt lat="46.36447" lon="2.84146">
        <ele>325.1</ele>
        <time>2018-10-21T09:23:01Z</time>
      </trkpt>
      <trkpt lat="46.36452" lon="2.84145">
        <ele>325.1</ele>
        <time>2018-10-21T09:23:02Z</time>
      </trkpt>
      <trkpt lat="46.36457" lon="2.84144">
        <ele>325.1</ele>
        <time>2018-10-21T09:23:03Z</time>
      </trkpt>
      <trkpt lat="46.36461" lon="2.84143">
        <ele>325</ele>
        <time>2018-10-21T09:23:04Z</time>
      </trkpt>
      <trkpt lat="46.36466" lon="2.84142">
        <ele>324.9</ele>
        <time>2018-10-21T09:23:05Z</time>
      </trkpt>
      <trkpt lat="46.36471" lon="2.84141">
        <ele>324.9</ele>
        <time>2018-10-21T09:23:06Z</time>
      </trkpt>
      <trkpt lat="46.36475" lon="2.8414">
        <ele>324.6</ele>
        <time>2018-10-21T09:23:07Z</time>
      </trkpt>
      <trkpt lat="46.3648" lon="2.84138">
        <ele>324.5</ele>
        <time>2018-10-21T09:23:08Z</time>
      </trkpt>
      <trkpt lat="46.36484" lon="2.84137">
        <ele>324.2</ele>
        <time>2018-10-21T09:23:09Z</time>
      </trkpt>
      <trkpt lat="46.36489" lon="2.84136">
        <ele>324</ele>
        <time>2018-10-21T09:23:10Z</time>
      </trkpt>
      <trkpt lat="46.36493" lon="2.84135">
        <ele>323.8</ele>
        <time>2018-10-21T09:23:11Z</time>
      </trkpt>
      <trkpt lat="46.36498" lon="2.84134">
        <ele>324</ele>
        <time>2018-10-21T09:23:12Z</time>
      </trkpt>
      <trkpt lat="46.36502" lon="2.84133">
        <ele>324</ele>
        <time>2018-10-21T09:23:13Z</time>
      </trkpt>
      <trkpt lat="46.36507" lon="2.84132">
        <ele>324.4</ele>
        <time>2018-10-21T09:23:14Z</time>
      </trkpt>
      <trkpt lat="46.36511" lon="2.84131">
        <ele>324.7</ele>
        <time>2018-10-21T09:23:15Z</time>
      </trkpt>
      <trkpt lat="46.36516" lon="2.84131">
        <ele>324.8</ele>
        <time>2018-10-21T09:23:16Z</time>
      </trkpt>
      <trkpt lat="46.36525" lon="2.8413">
        <ele>324.9</ele>
        <time>2018-10-21T09:23:18Z</time>
      </trkpt>
      <trkpt lat="46.36534" lon="2.84129">
        <ele>324.7</ele>
        <time>2018-10-21T09:23:20Z</time>
      </trkpt>
      <trkpt lat="46.36542" lon="2.84128">
        <ele>323.7</ele>
        <time>2018-10-21T09:23:22Z</time>
      </trkpt>
      <trkpt lat="46.36551" lon="2.84127">
        <ele>323.6</ele>
        <time>2018-10-21T09:23:24Z</time>
      </trkpt>
      <trkpt lat="46.36555" lon="2.84127">
        <ele>323.6</ele>
        <time>2018-10-21T09:23:25Z</time>
      </trkpt>
      <trkpt lat="46.3656" lon="2.84127">
        <ele>323.8</ele>
        <time>2018-10-21T09:23:26Z</time>
      </trkpt>
      <trkpt lat="46.36565" lon="2.84127">
        <ele>324</ele>
        <time>2018-10-21T09:23:27Z</time>
      </trkpt>
      <trkpt lat="46.36569" lon="2.84126">
        <ele>323.6</ele>
        <time>2018-10-21T09:23:28Z</time>
      </trkpt>
      <trkpt lat="46.36574" lon="2.84124">
        <ele>323.4</ele>
        <time>2018-10-21T09:23:29Z</time>
      </trkpt>
      <trkpt lat="46.36579" lon="2.84122">
        <ele>323.2</ele>
        <time>2018-10-21T09:23:30Z</time>
      </trkpt>
      <trkpt lat="46.36584" lon="2.8412">
        <ele>323.3</ele>
        <time>2018-10-21T09:23:31Z</time>
      </trkpt>
      <trkpt lat="46.36588" lon="2.84117">
        <ele>323.4</ele>
        <time>2018-10-21T09:23:32Z</time>
      </trkpt>
      <trkpt lat="46.36593" lon="2.84113">
        <ele>322.9</ele>
        <time>2018-10-21T09:23:33Z</time>
      </trkpt>
      <trkpt lat="46.36597" lon="2.84109">
        <ele>322.5</ele>
        <time>2018-10-21T09:23:34Z</time>
      </trkpt>
      <trkpt lat="46.36601" lon="2.84103">
        <ele>322.1</ele>
        <time>2018-10-21T09:23:35Z</time>
      </trkpt>
      <trkpt lat="46.36605" lon="2.84098">
        <ele>321.7</ele>
        <time>2018-10-21T09:23:36Z</time>
      </trkpt>
      <trkpt lat="46.36608" lon="2.84092">
        <ele>321.5</ele>
        <time>2018-10-21T09:23:37Z</time>
      </trkpt>
      <trkpt lat="46.3661" lon="2.84086">
        <ele>321.3</ele>
        <time>2018-10-21T09:23:38Z</time>
      </trkpt>
      <trkpt lat="46.36613" lon="2.84081">
        <ele>321.2</ele>
        <time>2018-10-21T09:23:39Z</time>
      </trkpt>
      <trkpt lat="46.36615" lon="2.84075">
        <ele>321</ele>
        <time>2018-10-21T09:23:40Z</time>
      </trkpt>
      <trkpt lat="46.36617" lon="2.84068">
        <ele>320.8</ele>
        <time>2018-10-21T09:23:41Z</time>
      </trkpt>
      <trkpt lat="46.3662" lon="2.84062">
        <ele>320.7</ele>
        <time>2018-10-21T09:23:42Z</time>
      </trkpt>
      <trkpt lat="46.36623" lon="2.84055">
        <ele>320.5</ele>
        <time>2018-10-21T09:23:43Z</time>
      </trkpt>
      <trkpt lat="46.36625" lon="2.84049">
        <ele>320.4</ele>
        <time>2018-10-21T09:23:44Z</time>
      </trkpt>
      <trkpt lat="46.36629" lon="2.84043">
        <ele>320.4</ele>
        <time>2018-10-21T09:23:45Z</time>
      </trkpt>
      <trkpt lat="46.36633" lon="2.84037">
        <ele>320.4</ele>
        <time>2018-10-21T09:23:46Z</time>
      </trkpt>
      <trkpt lat="46.36636" lon="2.8403">
        <ele>320.1</ele>
        <time>2018-10-21T09:23:47Z</time>
      </trkpt>
      <trkpt lat="46.3664" lon="2.84023">
        <ele>319.9</ele>
        <time>2018-10-21T09:23:48Z</time>
      </trkpt>
      <trkpt lat="46.36644" lon="2.84016">
        <ele>319.8</ele>
        <time>2018-10-21T09:23:49Z</time>
      </trkpt>
      <trkpt lat="46.36648" lon="2.84009">
        <ele>319.3</ele>
        <time>2018-10-21T09:23:50Z</time>
      </trkpt>
      <trkpt lat="46.36652" lon="2.84001">
        <ele>319</ele>
        <time>2018-10-21T09:23:51Z</time>
      </trkpt>
      <trkpt lat="46.36656" lon="2.83994">
        <ele>318.7</ele>
        <time>2018-10-21T09:23:52Z</time>
      </trkpt>
      <trkpt lat="46.3666" lon="2.83986">
        <ele>318.4</ele>
        <time>2018-10-21T09:23:53Z</time>
      </trkpt>
      <trkpt lat="46.36665" lon="2.83981">
        <ele>318.1</ele>
        <time>2018-10-21T09:23:54Z</time>
      </trkpt>
      <trkpt lat="46.36671" lon="2.83976">
        <ele>318</ele>
        <time>2018-10-21T09:23:55Z</time>
      </trkpt>
      <trkpt lat="46.36678" lon="2.83972">
        <ele>317.8</ele>
        <time>2018-10-21T09:23:56Z</time>
      </trkpt>
      <trkpt lat="46.36685" lon="2.83969">
        <ele>317.1</ele>
        <time>2018-10-21T09:23:57Z</time>
      </trkpt>
      <trkpt lat="46.36693" lon="2.83966">
        <ele>316.5</ele>
        <time>2018-10-21T09:23:58Z</time>
      </trkpt>
      <trkpt lat="46.367" lon="2.83964">
        <ele>315.8</ele>
        <time>2018-10-21T09:23:59Z</time>
      </trkpt>
      <trkpt lat="46.36707" lon="2.83963">
        <ele>315.2</ele>
        <time>2018-10-21T09:24:00Z</time>
      </trkpt>
      <trkpt lat="46.36714" lon="2.83962">
        <ele>314.8</ele>
        <time>2018-10-21T09:24:01Z</time>
      </trkpt>
      <trkpt lat="46.36721" lon="2.8396">
        <ele>314.2</ele>
        <time>2018-10-21T09:24:02Z</time>
      </trkpt>
      <trkpt lat="46.36728" lon="2.83957">
        <ele>313.8</ele>
        <time>2018-10-21T09:24:03Z</time>
      </trkpt>
      <trkpt lat="46.36736" lon="2.83954">
        <ele>313.4</ele>
        <time>2018-10-21T09:24:04Z</time>
      </trkpt>
      <trkpt lat="46.36744" lon="2.83951">
        <ele>313.1</ele>
        <time>2018-10-21T09:24:05Z</time>
      </trkpt>
      <trkpt lat="46.36752" lon="2.83948">
        <ele>312.2</ele>
        <time>2018-10-21T09:24:06Z</time>
      </trkpt>
      <trkpt lat="46.3676" lon="2.83944">
        <ele>311.6</ele>
        <time>2018-10-21T09:24:07Z</time>
      </trkpt>
      <trkpt lat="46.36768" lon="2.8394">
        <ele>311.1</ele>
        <time>2018-10-21T09:24:08Z</time>
      </trkpt>
      <trkpt lat="46.36776" lon="2.83936">
        <ele>310.6</ele>
        <time>2018-10-21T09:24:09Z</time>
      </trkpt>
      <trkpt lat="46.36785" lon="2.83933">
        <ele>310.2</ele>
        <time>2018-10-21T09:24:10Z</time>
      </trkpt>
      <trkpt lat="46.36793" lon="2.8393">
        <ele>309.4</ele>
        <time>2018-10-21T09:24:11Z</time>
      </trkpt>
      <trkpt lat="46.36801" lon="2.83927">
        <ele>308.8</ele>
        <time>2018-10-21T09:24:12Z</time>
      </trkpt>
      <trkpt lat="46.36808" lon="2.83924">
        <ele>308.4</ele>
        <time>2018-10-21T09:24:13Z</time>
      </trkpt>
      <trkpt lat="46.36814" lon="2.8392">
        <ele>308.2</ele>
        <time>2018-10-21T09:24:14Z</time>
      </trkpt>
      <trkpt lat="46.3682" lon="2.83917">
        <ele>308</ele>
        <time>2018-10-21T09:24:15Z</time>
      </trkpt>
      <trkpt lat="46.36826" lon="2.83915">
        <ele>307</ele>
        <time>2018-10-21T09:24:16Z</time>
      </trkpt>
      <trkpt lat="46.36832" lon="2.83912">
        <ele>305.6</ele>
        <time>2018-10-21T09:24:18Z</time>
      </trkpt>
      <trkpt lat="46.36839" lon="2.83909">
        <ele>304.9</ele>
        <time>2018-10-21T09:24:20Z</time>
      </trkpt>
      <trkpt lat="46.36844" lon="2.83907">
        <ele>304.6</ele>
        <time>2018-10-21T09:24:21Z</time>
      </trkpt>
      <trkpt lat="46.36848" lon="2.83905">
        <ele>304.4</ele>
        <time>2018-10-21T09:24:22Z</time>
      </trkpt>
      <trkpt lat="46.36854" lon="2.83903">
        <ele>303.5</ele>
        <time>2018-10-21T09:24:23Z</time>
      </trkpt>
      <trkpt lat="46.36859" lon="2.83901">
        <ele>302.9</ele>
        <time>2018-10-21T09:24:24Z</time>
      </trkpt>
      <trkpt lat="46.36865" lon="2.83899">
        <ele>302.6</ele>
        <time>2018-10-21T09:24:25Z</time>
      </trkpt>
      <trkpt lat="46.3687" lon="2.83897">
        <ele>302.4</ele>
        <time>2018-10-21T09:24:26Z</time>
      </trkpt>
      <trkpt lat="46.36876" lon="2.83895">
        <ele>302.2</ele>
        <time>2018-10-21T09:24:27Z</time>
      </trkpt>
      <trkpt lat="46.36881" lon="2.83892">
        <ele>302</ele>
        <time>2018-10-21T09:24:28Z</time>
      </trkpt>
      <trkpt lat="46.36887" lon="2.8389">
        <ele>301.9</ele>
        <time>2018-10-21T09:24:29Z</time>
      </trkpt>
      <trkpt lat="46.36892" lon="2.83888">
        <ele>301.7</ele>
        <time>2018-10-21T09:24:30Z</time>
      </trkpt>
      <trkpt lat="46.36898" lon="2.83886">
        <ele>301.5</ele>
        <time>2018-10-21T09:24:31Z</time>
      </trkpt>
      <trkpt lat="46.36903" lon="2.83885">
        <ele>301.4</ele>
        <time>2018-10-21T09:24:32Z</time>
      </trkpt>
      <trkpt lat="46.36908" lon="2.83883">
        <ele>301.7</ele>
        <time>2018-10-21T09:24:33Z</time>
      </trkpt>
      <trkpt lat="46.36913" lon="2.83882">
        <ele>302</ele>
        <time>2018-10-21T09:24:34Z</time>
      </trkpt>
      <trkpt lat="46.36918" lon="2.83881">
        <ele>301.8</ele>
        <time>2018-10-21T09:24:35Z</time>
      </trkpt>
      <trkpt lat="46.36923" lon="2.8388">
        <ele>301.7</ele>
        <time>2018-10-21T09:24:36Z</time>
      </trkpt>
      <trkpt lat="46.36928" lon="2.83879">
        <ele>301.6</ele>
        <time>2018-10-21T09:24:37Z</time>
      </trkpt>
      <trkpt lat="46.36933" lon="2.83877">
        <ele>301.6</ele>
        <time>2018-10-21T09:24:38Z</time>
      </trkpt>
      <trkpt lat="46.36938" lon="2.83876">
        <ele>301.6</ele>
        <time>2018-10-21T09:24:39Z</time>
      </trkpt>
      <trkpt lat="46.36942" lon="2.83875">
        <ele>301.9</ele>
        <time>2018-10-21T09:24:40Z</time>
      </trkpt>
      <trkpt lat="46.36947" lon="2.83873">
        <ele>302.1</ele>
        <time>2018-10-21T09:24:41Z</time>
      </trkpt>
      <trkpt lat="46.36952" lon="2.83871">
        <ele>301.9</ele>
        <time>2018-10-21T09:24:42Z</time>
      </trkpt>
      <trkpt lat="46.36956" lon="2.83869">
        <ele>301.7</ele>
        <time>2018-10-21T09:24:43Z</time>
      </trkpt>
      <trkpt lat="46.36961" lon="2.83867">
        <ele>302.1</ele>
        <time>2018-10-21T09:24:44Z</time>
      </trkpt>
      <trkpt lat="46.36965" lon="2.83864">
        <ele>302.3</ele>
        <time>2018-10-21T09:24:45Z</time>
      </trkpt>
      <trkpt lat="46.36969" lon="2.83862">
        <ele>302.5</ele>
        <time>2018-10-21T09:24:46Z</time>
      </trkpt>
      <trkpt lat="46.36974" lon="2.83859">
        <ele>302.2</ele>
        <time>2018-10-21T09:24:47Z</time>
      </trkpt>
      <trkpt lat="46.36978" lon="2.83856">
        <ele>302</ele>
        <time>2018-10-21T09:24:48Z</time>
      </trkpt>
      <trkpt lat="46.36982" lon="2.83853">
        <ele>302.4</ele>
        <time>2018-10-21T09:24:49Z</time>
      </trkpt>
      <trkpt lat="46.36986" lon="2.8385">
        <ele>302.6</ele>
        <time>2018-10-21T09:24:50Z</time>
      </trkpt>
      <trkpt lat="46.36994" lon="2.83845">
        <ele>302.6</ele>
        <time>2018-10-21T09:24:52Z</time>
      </trkpt>
      <trkpt lat="46.36999" lon="2.83842">
        <ele>302.4</ele>
        <time>2018-10-21T09:24:53Z</time>
      </trkpt>
      <trkpt lat="46.37006" lon="2.83837">
        <ele>301.8</ele>
        <time>2018-10-21T09:24:55Z</time>
      </trkpt>
      <trkpt lat="46.37014" lon="2.83831">
        <ele>301.8</ele>
        <time>2018-10-21T09:24:57Z</time>
      </trkpt>
      <trkpt lat="46.37022" lon="2.83826">
        <ele>302.1</ele>
        <time>2018-10-21T09:24:59Z</time>
      </trkpt>
      <trkpt lat="46.3703" lon="2.83821">
        <ele>302.3</ele>
        <time>2018-10-21T09:25:01Z</time>
      </trkpt>
      <trkpt lat="46.37038" lon="2.83816">
        <ele>302.3</ele>
        <time>2018-10-21T09:25:03Z</time>
      </trkpt>
      <trkpt lat="46.37045" lon="2.83812">
        <ele>302.8</ele>
        <time>2018-10-21T09:25:05Z</time>
      </trkpt>
      <trkpt lat="46.37053" lon="2.83808">
        <ele>303.2</ele>
        <time>2018-10-21T09:25:07Z</time>
      </trkpt>
      <trkpt lat="46.3706" lon="2.83803">
        <ele>303.3</ele>
        <time>2018-10-21T09:25:09Z</time>
      </trkpt>
      <trkpt lat="46.37067" lon="2.83799">
        <ele>303.8</ele>
        <time>2018-10-21T09:25:11Z</time>
      </trkpt>
      <trkpt lat="46.37075" lon="2.83795">
        <ele>303.9</ele>
        <time>2018-10-21T09:25:13Z</time>
      </trkpt>
      <trkpt lat="46.37082" lon="2.83791">
        <ele>303.9</ele>
        <time>2018-10-21T09:25:15Z</time>
      </trkpt>
      <trkpt lat="46.37089" lon="2.83787">
        <ele>304.1</ele>
        <time>2018-10-21T09:25:17Z</time>
      </trkpt>
      <trkpt lat="46.37096" lon="2.83784">
        <ele>304.7</ele>
        <time>2018-10-21T09:25:19Z</time>
      </trkpt>
      <trkpt lat="46.37103" lon="2.83781">
        <ele>305.1</ele>
        <time>2018-10-21T09:25:21Z</time>
      </trkpt>
      <trkpt lat="46.37111" lon="2.83776">
        <ele>305.5</ele>
        <time>2018-10-21T09:25:23Z</time>
      </trkpt>
      <trkpt lat="46.37118" lon="2.83772">
        <ele>305.8</ele>
        <time>2018-10-21T09:25:25Z</time>
      </trkpt>
      <trkpt lat="46.37126" lon="2.83769">
        <ele>305.8</ele>
        <time>2018-10-21T09:25:27Z</time>
      </trkpt>
      <trkpt lat="46.37133" lon="2.83767">
        <ele>305.7</ele>
        <time>2018-10-21T09:25:29Z</time>
      </trkpt>
      <trkpt lat="46.37141" lon="2.83765">
        <ele>306</ele>
        <time>2018-10-21T09:25:31Z</time>
      </trkpt>
      <trkpt lat="46.37148" lon="2.83764">
        <ele>308</ele>
        <time>2018-10-21T09:25:33Z</time>
      </trkpt>
      <trkpt lat="46.37155" lon="2.83763">
        <ele>308.2</ele>
        <time>2018-10-21T09:25:35Z</time>
      </trkpt>
      <trkpt lat="46.37162" lon="2.83762">
        <ele>308</ele>
        <time>2018-10-21T09:25:37Z</time>
      </trkpt>
      <trkpt lat="46.3717" lon="2.83761">
        <ele>307.8</ele>
        <time>2018-10-21T09:25:39Z</time>
      </trkpt>
      <trkpt lat="46.37178" lon="2.83761">
        <ele>307.7</ele>
        <time>2018-10-21T09:25:41Z</time>
      </trkpt>
      <trkpt lat="46.37185" lon="2.83759">
        <ele>307.9</ele>
        <time>2018-10-21T09:25:43Z</time>
      </trkpt>
      <trkpt lat="46.37189" lon="2.83758">
        <ele>308.5</ele>
        <time>2018-10-21T09:25:44Z</time>
      </trkpt>
      <trkpt lat="46.372" lon="2.83756">
        <ele>309.6</ele>
        <time>2018-10-21T09:25:47Z</time>
      </trkpt>
      <trkpt lat="46.37208" lon="2.83756">
        <ele>309.9</ele>
        <time>2018-10-21T09:25:49Z</time>
      </trkpt>
      <trkpt lat="46.37216" lon="2.83755">
        <ele>309.7</ele>
        <time>2018-10-21T09:25:51Z</time>
      </trkpt>
      <trkpt lat="46.37224" lon="2.83754">
        <ele>309.6</ele>
        <time>2018-10-21T09:25:53Z</time>
      </trkpt>
      <trkpt lat="46.37232" lon="2.83754">
        <ele>309.7</ele>
        <time>2018-10-21T09:25:55Z</time>
      </trkpt>
      <trkpt lat="46.3724" lon="2.83754">
        <ele>309.5</ele>
        <time>2018-10-21T09:25:57Z</time>
      </trkpt>
      <trkpt lat="46.37248" lon="2.83755">
        <ele>309.5</ele>
        <time>2018-10-21T09:25:59Z</time>
      </trkpt>
      <trkpt lat="46.37255" lon="2.83756">
        <ele>309.6</ele>
        <time>2018-10-21T09:26:01Z</time>
      </trkpt>
      <trkpt lat="46.37262" lon="2.83756">
        <ele>310.2</ele>
        <time>2018-10-21T09:26:03Z</time>
      </trkpt>
      <trkpt lat="46.37269" lon="2.83756">
        <ele>310.9</ele>
        <time>2018-10-21T09:26:05Z</time>
      </trkpt>
      <trkpt lat="46.37276" lon="2.83755">
        <ele>311.4</ele>
        <time>2018-10-21T09:26:07Z</time>
      </trkpt>
      <trkpt lat="46.37283" lon="2.83755">
        <ele>311.1</ele>
        <time>2018-10-21T09:26:09Z</time>
      </trkpt>
      <trkpt lat="46.3729" lon="2.83755">
        <ele>311.2</ele>
        <time>2018-10-21T09:26:11Z</time>
      </trkpt>
      <trkpt lat="46.37296" lon="2.83754">
        <ele>311.1</ele>
        <time>2018-10-21T09:26:13Z</time>
      </trkpt>
      <trkpt lat="46.37303" lon="2.83753">
        <ele>311.3</ele>
        <time>2018-10-21T09:26:15Z</time>
      </trkpt>
      <trkpt lat="46.37309" lon="2.83753">
        <ele>311.6</ele>
        <time>2018-10-21T09:26:17Z</time>
      </trkpt>
      <trkpt lat="46.37316" lon="2.83753">
        <ele>311.7</ele>
        <time>2018-10-21T09:26:19Z</time>
      </trkpt>
      <trkpt lat="46.37322" lon="2.83753">
        <ele>312.1</ele>
        <time>2018-10-21T09:26:21Z</time>
      </trkpt>
      <trkpt lat="46.37329" lon="2.83752">
        <ele>313</ele>
        <time>2018-10-21T09:26:23Z</time>
      </trkpt>
      <trkpt lat="46.37335" lon="2.83752">
        <ele>313</ele>
        <time>2018-10-21T09:26:25Z</time>
      </trkpt>
      <trkpt lat="46.37342" lon="2.83752">
        <ele>313.3</ele>
        <time>2018-10-21T09:26:27Z</time>
      </trkpt>
      <trkpt lat="46.37349" lon="2.83752">
        <ele>313.7</ele>
        <time>2018-10-21T09:26:29Z</time>
      </trkpt>
      <trkpt lat="46.37355" lon="2.83752">
        <ele>314</ele>
        <time>2018-10-21T09:26:31Z</time>
      </trkpt>
      <trkpt lat="46.37362" lon="2.83752">
        <ele>314.2</ele>
        <time>2018-10-21T09:26:33Z</time>
      </trkpt>
      <trkpt lat="46.37369" lon="2.83752">
        <ele>314.8</ele>
        <time>2018-10-21T09:26:35Z</time>
      </trkpt>
      <trkpt lat="46.37377" lon="2.83751">
        <ele>315.3</ele>
        <time>2018-10-21T09:26:37Z</time>
      </trkpt>
      <trkpt lat="46.37384" lon="2.83751">
        <ele>316.1</ele>
        <time>2018-10-21T09:26:39Z</time>
      </trkpt>
      <trkpt lat="46.37392" lon="2.83751">
        <ele>316.7</ele>
        <time>2018-10-21T09:26:41Z</time>
      </trkpt>
      <trkpt lat="46.37399" lon="2.83751">
        <ele>317.1</ele>
        <time>2018-10-21T09:26:43Z</time>
      </trkpt>
      <trkpt lat="46.37406" lon="2.83751">
        <ele>317.6</ele>
        <time>2018-10-21T09:26:45Z</time>
      </trkpt>
      <trkpt lat="46.3741" lon="2.83751">
        <ele>317.4</ele>
        <time>2018-10-21T09:26:46Z</time>
      </trkpt>
      <trkpt lat="46.37422" lon="2.83751">
        <ele>317.4</ele>
        <time>2018-10-21T09:26:49Z</time>
      </trkpt>
      <trkpt lat="46.3743" lon="2.83751">
        <ele>317.6</ele>
        <time>2018-10-21T09:26:51Z</time>
      </trkpt>
      <trkpt lat="46.37438" lon="2.83752">
        <ele>317.4</ele>
        <time>2018-10-21T09:26:53Z</time>
      </trkpt>
      <trkpt lat="46.37446" lon="2.83753">
        <ele>316.9</ele>
        <time>2018-10-21T09:26:55Z</time>
      </trkpt>
      <trkpt lat="46.37455" lon="2.83756">
        <ele>316.6</ele>
        <time>2018-10-21T09:26:57Z</time>
      </trkpt>
      <trkpt lat="46.37463" lon="2.8376">
        <ele>316.7</ele>
        <time>2018-10-21T09:26:59Z</time>
      </trkpt>
      <trkpt lat="46.37468" lon="2.83762">
        <ele>316.8</ele>
        <time>2018-10-21T09:27:00Z</time>
      </trkpt>
      <trkpt lat="46.37472" lon="2.83764">
        <ele>316.9</ele>
        <time>2018-10-21T09:27:01Z</time>
      </trkpt>
      <trkpt lat="46.37476" lon="2.83767">
        <ele>316.9</ele>
        <time>2018-10-21T09:27:02Z</time>
      </trkpt>
      <trkpt lat="46.37481" lon="2.83769">
        <ele>316.8</ele>
        <time>2018-10-21T09:27:03Z</time>
      </trkpt>
      <trkpt lat="46.37485" lon="2.83772">
        <ele>316.8</ele>
        <time>2018-10-21T09:27:04Z</time>
      </trkpt>
      <trkpt lat="46.3749" lon="2.83774">
        <ele>316.8</ele>
        <time>2018-10-21T09:27:05Z</time>
      </trkpt>
      <trkpt lat="46.37494" lon="2.83776">
        <ele>316.8</ele>
        <time>2018-10-21T09:27:06Z</time>
      </trkpt>
      <trkpt lat="46.37499" lon="2.83779">
        <ele>316.9</ele>
        <time>2018-10-21T09:27:07Z</time>
      </trkpt>
      <trkpt lat="46.37504" lon="2.83782">
        <ele>317</ele>
        <time>2018-10-21T09:27:08Z</time>
      </trkpt>
      <trkpt lat="46.37509" lon="2.83785">
        <ele>317.1</ele>
        <time>2018-10-21T09:27:09Z</time>
      </trkpt>
      <trkpt lat="46.37514" lon="2.83789">
        <ele>316.6</ele>
        <time>2018-10-21T09:27:10Z</time>
      </trkpt>
      <trkpt lat="46.3752" lon="2.83793">
        <ele>316.3</ele>
        <time>2018-10-21T09:27:11Z</time>
      </trkpt>
      <trkpt lat="46.37525" lon="2.83796">
        <ele>315.9</ele>
        <time>2018-10-21T09:27:12Z</time>
      </trkpt>
      <trkpt lat="46.37531" lon="2.838">
        <ele>315.6</ele>
        <time>2018-10-21T09:27:13Z</time>
      </trkpt>
      <trkpt lat="46.37536" lon="2.83803">
        <ele>315</ele>
        <time>2018-10-21T09:27:14Z</time>
      </trkpt>
      <trkpt lat="46.37542" lon="2.83807">
        <ele>314.7</ele>
        <time>2018-10-21T09:27:15Z</time>
      </trkpt>
      <trkpt lat="46.37548" lon="2.83811">
        <ele>314.4</ele>
        <time>2018-10-21T09:27:16Z</time>
      </trkpt>
      <trkpt lat="46.37553" lon="2.83815">
        <ele>314.2</ele>
        <time>2018-10-21T09:27:17Z</time>
      </trkpt>
      <trkpt lat="46.37559" lon="2.83818">
        <ele>314</ele>
        <time>2018-10-21T09:27:18Z</time>
      </trkpt>
      <trkpt lat="46.37565" lon="2.83822">
        <ele>313.6</ele>
        <time>2018-10-21T09:27:19Z</time>
      </trkpt>
      <trkpt lat="46.37571" lon="2.83826">
        <ele>313.4</ele>
        <time>2018-10-21T09:27:20Z</time>
      </trkpt>
      <trkpt lat="46.37577" lon="2.8383">
        <ele>313.2</ele>
        <time>2018-10-21T09:27:21Z</time>
      </trkpt>
      <trkpt lat="46.37583" lon="2.83835">
        <ele>313</ele>
        <time>2018-10-21T09:27:22Z</time>
      </trkpt>
      <trkpt lat="46.37589" lon="2.83839">
        <ele>312.8</ele>
        <time>2018-10-21T09:27:23Z</time>
      </trkpt>
      <trkpt lat="46.37595" lon="2.83844">
        <ele>312.3</ele>
        <time>2018-10-21T09:27:24Z</time>
      </trkpt>
      <trkpt lat="46.37601" lon="2.83849">
        <ele>311.9</ele>
        <time>2018-10-21T09:27:25Z</time>
      </trkpt>
      <trkpt lat="46.37607" lon="2.83853">
        <ele>311.9</ele>
        <time>2018-10-21T09:27:26Z</time>
      </trkpt>
      <trkpt lat="46.37613" lon="2.83858">
        <ele>311.9</ele>
        <time>2018-10-21T09:27:27Z</time>
      </trkpt>
      <trkpt lat="46.37619" lon="2.83863">
        <ele>311.9</ele>
        <time>2018-10-21T09:27:28Z</time>
      </trkpt>
      <trkpt lat="46.37625" lon="2.83867">
        <ele>311.3</ele>
        <time>2018-10-21T09:27:29Z</time>
      </trkpt>
      <trkpt lat="46.37631" lon="2.83872">
        <ele>310.9</ele>
        <time>2018-10-21T09:27:30Z</time>
      </trkpt>
      <trkpt lat="46.37637" lon="2.83875">
        <ele>310.6</ele>
        <time>2018-10-21T09:27:31Z</time>
      </trkpt>
      <trkpt lat="46.37644" lon="2.83879">
        <ele>310.5</ele>
        <time>2018-10-21T09:27:32Z</time>
      </trkpt>
      <trkpt lat="46.3765" lon="2.83881">
        <ele>309.8</ele>
        <time>2018-10-21T09:27:33Z</time>
      </trkpt>
      <trkpt lat="46.37656" lon="2.83883">
        <ele>309.3</ele>
        <time>2018-10-21T09:27:34Z</time>
      </trkpt>
      <trkpt lat="46.37663" lon="2.83885">
        <ele>308.9</ele>
        <time>2018-10-21T09:27:35Z</time>
      </trkpt>
      <trkpt lat="46.37669" lon="2.83887">
        <ele>308.7</ele>
        <time>2018-10-21T09:27:36Z</time>
      </trkpt>
      <trkpt lat="46.37676" lon="2.83889">
        <ele>308.6</ele>
        <time>2018-10-21T09:27:37Z</time>
      </trkpt>
      <trkpt lat="46.37682" lon="2.83891">
        <ele>308.4</ele>
        <time>2018-10-21T09:27:38Z</time>
      </trkpt>
      <trkpt lat="46.37689" lon="2.83893">
        <ele>308.3</ele>
        <time>2018-10-21T09:27:39Z</time>
      </trkpt>
      <trkpt lat="46.37695" lon="2.83895">
        <ele>308.1</ele>
        <time>2018-10-21T09:27:40Z</time>
      </trkpt>
      <trkpt lat="46.37702" lon="2.83896">
        <ele>308.1</ele>
        <time>2018-10-21T09:27:41Z</time>
      </trkpt>
      <trkpt lat="46.37708" lon="2.83898">
        <ele>308.1</ele>
        <time>2018-10-21T09:27:42Z</time>
      </trkpt>
      <trkpt lat="46.37714" lon="2.839">
        <ele>307.8</ele>
        <time>2018-10-21T09:27:43Z</time>
      </trkpt>
      <trkpt lat="46.37721" lon="2.83902">
        <ele>307.6</ele>
        <time>2018-10-21T09:27:44Z</time>
      </trkpt>
      <trkpt lat="46.37727" lon="2.83905">
        <ele>307</ele>
        <time>2018-10-21T09:27:45Z</time>
      </trkpt>
      <trkpt lat="46.37734" lon="2.83907">
        <ele>306.6</ele>
        <time>2018-10-21T09:27:46Z</time>
      </trkpt>
      <trkpt lat="46.3774" lon="2.83908">
        <ele>306.2</ele>
        <time>2018-10-21T09:27:47Z</time>
      </trkpt>
      <trkpt lat="46.37747" lon="2.83909">
        <ele>306</ele>
        <time>2018-10-21T09:27:48Z</time>
      </trkpt>
      <trkpt lat="46.37754" lon="2.8391">
        <ele>305.7</ele>
        <time>2018-10-21T09:27:49Z</time>
      </trkpt>
      <trkpt lat="46.3776" lon="2.8391">
        <ele>305.5</ele>
        <time>2018-10-21T09:27:50Z</time>
      </trkpt>
      <trkpt lat="46.37767" lon="2.8391">
        <ele>305.3</ele>
        <time>2018-10-21T09:27:51Z</time>
      </trkpt>
      <trkpt lat="46.37773" lon="2.83911">
        <ele>305.2</ele>
        <time>2018-10-21T09:27:52Z</time>
      </trkpt>
      <trkpt lat="46.3778" lon="2.83911">
        <ele>305</ele>
        <time>2018-10-21T09:27:53Z</time>
      </trkpt>
      <trkpt lat="46.37786" lon="2.83911">
        <ele>304.8</ele>
        <time>2018-10-21T09:27:54Z</time>
      </trkpt>
      <trkpt lat="46.37793" lon="2.83911">
        <ele>304.6</ele>
        <time>2018-10-21T09:27:55Z</time>
      </trkpt>
      <trkpt lat="46.37799" lon="2.83911">
        <ele>304.4</ele>
        <time>2018-10-21T09:27:56Z</time>
      </trkpt>
      <trkpt lat="46.37805" lon="2.83911">
        <ele>304.4</ele>
        <time>2018-10-21T09:27:57Z</time>
      </trkpt>
      <trkpt lat="46.37811" lon="2.83911">
        <ele>304.4</ele>
        <time>2018-10-21T09:27:58Z</time>
      </trkpt>
      <trkpt lat="46.37817" lon="2.83911">
        <ele>304.4</ele>
        <time>2018-10-21T09:27:59Z</time>
      </trkpt>
      <trkpt lat="46.37823" lon="2.83912">
        <ele>304</ele>
        <time>2018-10-21T09:28:00Z</time>
      </trkpt>
      <trkpt lat="46.37828" lon="2.83915">
        <ele>303.7</ele>
        <time>2018-10-21T09:28:01Z</time>
      </trkpt>
      <trkpt lat="46.37832" lon="2.83921">
        <ele>303.6</ele>
        <time>2018-10-21T09:28:02Z</time>
      </trkpt>
      <trkpt lat="46.37834" lon="2.83929">
        <ele>303.5</ele>
        <time>2018-10-21T09:28:03Z</time>
      </trkpt>
      <trkpt lat="46.37835" lon="2.83938">
        <ele>302.7</ele>
        <time>2018-10-21T09:28:04Z</time>
      </trkpt>
      <trkpt lat="46.37836" lon="2.83947">
        <ele>302.1</ele>
        <time>2018-10-21T09:28:05Z</time>
      </trkpt>
      <trkpt lat="46.37837" lon="2.83957">
        <ele>301.7</ele>
        <time>2018-10-21T09:28:06Z</time>
      </trkpt>
      <trkpt lat="46.37838" lon="2.83967">
        <ele>301.2</ele>
        <time>2018-10-21T09:28:07Z</time>
      </trkpt>
      <trkpt lat="46.37838" lon="2.83977">
        <ele>300.8</ele>
        <time>2018-10-21T09:28:08Z</time>
      </trkpt>
      <trkpt lat="46.37839" lon="2.83988">
        <ele>300.6</ele>
        <time>2018-10-21T09:28:09Z</time>
      </trkpt>
      <trkpt lat="46.3784" lon="2.83999">
        <ele>300.4</ele>
        <time>2018-10-21T09:28:10Z</time>
      </trkpt>
      <trkpt lat="46.3784" lon="2.84009">
        <ele>300.2</ele>
        <time>2018-10-21T09:28:11Z</time>
      </trkpt>
      <trkpt lat="46.37841" lon="2.8402">
        <ele>299.9</ele>
        <time>2018-10-21T09:28:12Z</time>
      </trkpt>
      <trkpt lat="46.37841" lon="2.84032">
        <ele>299.6</ele>
        <time>2018-10-21T09:28:13Z</time>
      </trkpt>
      <trkpt lat="46.3784" lon="2.84044">
        <ele>297.9</ele>
        <time>2018-10-21T09:28:14Z</time>
      </trkpt>
      <trkpt lat="46.37838" lon="2.84058">
        <ele>296.6</ele>
        <time>2018-10-21T09:28:15Z</time>
      </trkpt>
      <trkpt lat="46.37836" lon="2.84072">
        <ele>295.1</ele>
        <time>2018-10-21T09:28:16Z</time>
      </trkpt>
      <trkpt lat="46.37833" lon="2.84086">
        <ele>293.9</ele>
        <time>2018-10-21T09:28:17Z</time>
      </trkpt>
      <trkpt lat="46.37832" lon="2.84099">
        <ele>293.1</ele>
        <time>2018-10-21T09:28:18Z</time>
      </trkpt>
      <trkpt lat="46.37832" lon="2.84113">
        <ele>292.4</ele>
        <time>2018-10-21T09:28:19Z</time>
      </trkpt>
      <trkpt lat="46.37831" lon="2.84123">
        <ele>291.8</ele>
        <time>2018-10-21T09:28:20Z</time>
      </trkpt>
      <trkpt lat="46.3783" lon="2.84132">
        <ele>291</ele>
        <time>2018-10-21T09:28:21Z</time>
      </trkpt>
      <trkpt lat="46.37829" lon="2.84141">
        <ele>290.3</ele>
        <time>2018-10-21T09:28:22Z</time>
      </trkpt>
      <trkpt lat="46.37831" lon="2.8413">
        <ele>288.9</ele>
        <time>2018-10-21T09:28:35Z</time>
      </trkpt>
      <trkpt lat="46.37832" lon="2.84118">
        <ele>288.7</ele>
        <time>2018-10-21T09:28:38Z</time>
      </trkpt>
      <trkpt lat="46.37833" lon="2.84106">
        <ele>288.9</ele>
        <time>2018-10-21T09:28:41Z</time>
      </trkpt>
      <trkpt lat="46.37833" lon="2.84094">
        <ele>288.9</ele>
        <time>2018-10-21T09:28:44Z</time>
      </trkpt>
      <trkpt lat="46.37835" lon="2.84085">
        <ele>288.9</ele>
        <time>2018-10-21T09:28:46Z</time>
      </trkpt>
      <trkpt lat="46.37837" lon="2.84074">
        <ele>289.2</ele>
        <time>2018-10-21T09:28:49Z</time>
      </trkpt>
      <trkpt lat="46.37837" lon="2.8407">
        <ele>289.3</ele>
        <time>2018-10-21T09:28:50Z</time>
      </trkpt>
      <trkpt lat="46.37836" lon="2.84072">
        <ele>290.6</ele>
        <time>2018-10-21T09:29:07Z</time>
      </trkpt>
      <trkpt lat="46.37834" lon="2.84084">
        <ele>290.1</ele>
        <time>2018-10-21T09:29:09Z</time>
      </trkpt>
      <trkpt lat="46.37832" lon="2.84096">
        <ele>289.5</ele>
        <time>2018-10-21T09:29:11Z</time>
      </trkpt>
      <trkpt lat="46.37831" lon="2.84108">
        <ele>289.3</ele>
        <time>2018-10-21T09:29:13Z</time>
      </trkpt>
      <trkpt lat="46.3783" lon="2.8412">
        <ele>289.3</ele>
        <time>2018-10-21T09:29:15Z</time>
      </trkpt>
      <trkpt lat="46.37829" lon="2.84132">
        <ele>289.1</ele>
        <time>2018-10-21T09:29:17Z</time>
      </trkpt>
      <trkpt lat="46.37828" lon="2.84139">
        <ele>289.5</ele>
        <time>2018-10-21T09:29:18Z</time>
      </trkpt>
      <trkpt lat="46.37828" lon="2.84146">
        <ele>289.8</ele>
        <time>2018-10-21T09:29:19Z</time>
      </trkpt>
      <trkpt lat="46.37827" lon="2.84152">
        <ele>290</ele>
        <time>2018-10-21T09:29:20Z</time>
      </trkpt>
      <trkpt lat="46.37826" lon="2.84159">
        <ele>289.9</ele>
        <time>2018-10-21T09:29:21Z</time>
      </trkpt>
      <trkpt lat="46.37824" lon="2.84166">
        <ele>289.9</ele>
        <time>2018-10-21T09:29:22Z</time>
      </trkpt>
      <trkpt lat="46.37823" lon="2.84173">
        <ele>289.2</ele>
        <time>2018-10-21T09:29:23Z</time>
      </trkpt>
      <trkpt lat="46.37822" lon="2.84181">
        <ele>288.7</ele>
        <time>2018-10-21T09:29:24Z</time>
      </trkpt>
      <trkpt lat="46.37821" lon="2.84189">
        <ele>288.4</ele>
        <time>2018-10-21T09:29:25Z</time>
      </trkpt>
      <trkpt lat="46.37821" lon="2.84198">
        <ele>288.2</ele>
        <time>2018-10-21T09:29:26Z</time>
      </trkpt>
      <trkpt lat="46.3782" lon="2.84207">
        <ele>288.1</ele>
        <time>2018-10-21T09:29:27Z</time>
      </trkpt>
      <trkpt lat="46.37819" lon="2.84217">
        <ele>287.2</ele>
        <time>2018-10-21T09:29:28Z</time>
      </trkpt>
      <trkpt lat="46.37817" lon="2.84227">
        <ele>286.4</ele>
        <time>2018-10-21T09:29:29Z</time>
      </trkpt>
      <trkpt lat="46.37815" lon="2.84236">
        <ele>285.9</ele>
        <time>2018-10-21T09:29:30Z</time>
      </trkpt>
      <trkpt lat="46.37812" lon="2.84246">
        <ele>285.6</ele>
        <time>2018-10-21T09:29:31Z</time>
      </trkpt>
      <trkpt lat="46.37809" lon="2.84256">
        <ele>285.3</ele>
        <time>2018-10-21T09:29:32Z</time>
      </trkpt>
      <trkpt lat="46.37806" lon="2.84265">
        <ele>284.1</ele>
        <time>2018-10-21T09:29:33Z</time>
      </trkpt>
      <trkpt lat="46.37802" lon="2.84273">
        <ele>283.1</ele>
        <time>2018-10-21T09:29:34Z</time>
      </trkpt>
      <trkpt lat="46.37798" lon="2.84281">
        <ele>281.6</ele>
        <time>2018-10-21T09:29:35Z</time>
      </trkpt>
      <trkpt lat="46.37795" lon="2.8429">
        <ele>280.5</ele>
        <time>2018-10-21T09:29:36Z</time>
      </trkpt>
      <trkpt lat="46.37794" lon="2.843">
        <ele>279.4</ele>
        <time>2018-10-21T09:29:37Z</time>
      </trkpt>
      <trkpt lat="46.37793" lon="2.84311">
        <ele>278.6</ele>
        <time>2018-10-21T09:29:38Z</time>
      </trkpt>
      <trkpt lat="46.37793" lon="2.84321">
        <ele>278</ele>
        <time>2018-10-21T09:29:39Z</time>
      </trkpt>
      <trkpt lat="46.37794" lon="2.84331">
        <ele>276.5</ele>
        <time>2018-10-21T09:29:40Z</time>
      </trkpt>
      <trkpt lat="46.37795" lon="2.8434">
        <ele>275.4</ele>
        <time>2018-10-21T09:29:41Z</time>
      </trkpt>
      <trkpt lat="46.37796" lon="2.8435">
        <ele>273.9</ele>
        <time>2018-10-21T09:29:42Z</time>
      </trkpt>
      <trkpt lat="46.37798" lon="2.84359">
        <ele>272.8</ele>
        <time>2018-10-21T09:29:43Z</time>
      </trkpt>
      <trkpt lat="46.378" lon="2.84368">
        <ele>271</ele>
        <time>2018-10-21T09:29:44Z</time>
      </trkpt>
      <trkpt lat="46.37803" lon="2.84376">
        <ele>269.6</ele>
        <time>2018-10-21T09:29:45Z</time>
      </trkpt>
      <trkpt lat="46.37806" lon="2.84383">
        <ele>268.6</ele>
        <time>2018-10-21T09:29:46Z</time>
      </trkpt>
      <trkpt lat="46.37808" lon="2.84392">
        <ele>267.2</ele>
        <time>2018-10-21T09:29:47Z</time>
      </trkpt>
      <trkpt lat="46.3781" lon="2.844">
        <ele>266</ele>
        <time>2018-10-21T09:29:48Z</time>
      </trkpt>
      <trkpt lat="46.3781" lon="2.84413">
        <ele>260.8</ele>
        <time>2018-10-21T09:29:52Z</time>
      </trkpt>
      <trkpt lat="46.3781" lon="2.84414">
        <ele>260.1</ele>
        <time>2018-10-21T09:29:53Z</time>
      </trkpt>
      <trkpt lat="46.37814" lon="2.84436">
        <ele>258.8</ele>
        <time>2018-10-21T09:30:10Z</time>
      </trkpt>
      <trkpt lat="46.3782" lon="2.84442">
        <ele>259.3</ele>
        <time>2018-10-21T09:30:13Z</time>
      </trkpt>
      <trkpt lat="46.37827" lon="2.84448">
        <ele>259.5</ele>
        <time>2018-10-21T09:30:16Z</time>
      </trkpt>
      <trkpt lat="46.37835" lon="2.84452">
        <ele>260</ele>
        <time>2018-10-21T09:30:19Z</time>
      </trkpt>
      <trkpt lat="46.37842" lon="2.84454">
        <ele>259.9</ele>
        <time>2018-10-21T09:30:22Z</time>
      </trkpt>
      <trkpt lat="46.3785" lon="2.84457">
        <ele>260.9</ele>
        <time>2018-10-21T09:30:26Z</time>
      </trkpt>
      <trkpt lat="46.37858" lon="2.84459">
        <ele>261.5</ele>
        <time>2018-10-21T09:30:30Z</time>
      </trkpt>
      <trkpt lat="46.37866" lon="2.84457">
        <ele>262.6</ele>
        <time>2018-10-21T09:30:35Z</time>
      </trkpt>
      <trkpt lat="46.37874" lon="2.84454">
        <ele>263.3</ele>
        <time>2018-10-21T09:30:39Z</time>
      </trkpt>
      <trkpt lat="46.37882" lon="2.8445">
        <ele>264.1</ele>
        <time>2018-10-21T09:30:43Z</time>
      </trkpt>
      <trkpt lat="46.37889" lon="2.84444">
        <ele>265.1</ele>
        <time>2018-10-21T09:30:47Z</time>
      </trkpt>
      <trkpt lat="46.37893" lon="2.84434">
        <ele>266</ele>
        <time>2018-10-21T09:30:52Z</time>
      </trkpt>
      <trkpt lat="46.37897" lon="2.84424">
        <ele>267.7</ele>
        <time>2018-10-21T09:30:57Z</time>
      </trkpt>
      <trkpt lat="46.37897" lon="2.84421">
        <ele>267.8</ele>
        <time>2018-10-21T09:30:58Z</time>
      </trkpt>
      <trkpt lat="46.379" lon="2.84401">
        <ele>269.1</ele>
        <time>2018-10-21T09:31:06Z</time>
      </trkpt>
      <trkpt lat="46.37899" lon="2.84389">
        <ele>270.2</ele>
        <time>2018-10-21T09:31:11Z</time>
      </trkpt>
      <trkpt lat="46.37898" lon="2.84377">
        <ele>270.6</ele>
        <time>2018-10-21T09:31:15Z</time>
      </trkpt>
      <trkpt lat="46.37898" lon="2.84366">
        <ele>272.3</ele>
        <time>2018-10-21T09:31:19Z</time>
      </trkpt>
      <trkpt lat="46.37898" lon="2.84355">
        <ele>274.7</ele>
        <time>2018-10-21T09:31:23Z</time>
      </trkpt>
      <trkpt lat="46.37898" lon="2.84344">
        <ele>275.4</ele>
        <time>2018-10-21T09:31:27Z</time>
      </trkpt>
      <trkpt lat="46.379" lon="2.84335">
        <ele>276.5</ele>
        <time>2018-10-21T09:31:31Z</time>
      </trkpt>
      <trkpt lat="46.37907" lon="2.84329">
        <ele>277.1</ele>
        <time>2018-10-21T09:31:36Z</time>
      </trkpt>
      <trkpt lat="46.37915" lon="2.84334">
        <ele>279</ele>
        <time>2018-10-21T09:31:41Z</time>
      </trkpt>
      <trkpt lat="46.3792" lon="2.84341">
        <ele>279.7</ele>
        <time>2018-10-21T09:31:45Z</time>
      </trkpt>
      <trkpt lat="46.37924" lon="2.84352">
        <ele>280.4</ele>
        <time>2018-10-21T09:31:51Z</time>
      </trkpt>
      <trkpt lat="46.37929" lon="2.84361">
        <ele>281.5</ele>
        <time>2018-10-21T09:31:57Z</time>
      </trkpt>
      <trkpt lat="46.37933" lon="2.84371">
        <ele>282.8</ele>
        <time>2018-10-21T09:32:03Z</time>
      </trkpt>
      <trkpt lat="46.37934" lon="2.84372">
        <ele>282.9</ele>
        <time>2018-10-21T09:32:04Z</time>
      </trkpt>
      <trkpt lat="46.37944" lon="2.84388">
        <ele>284.8</ele>
        <time>2018-10-21T09:32:15Z</time>
      </trkpt>
      <trkpt lat="46.37951" lon="2.84393">
        <ele>286.6</ele>
        <time>2018-10-21T09:32:21Z</time>
      </trkpt>
      <trkpt lat="46.37959" lon="2.84394">
        <ele>287.9</ele>
        <time>2018-10-21T09:32:27Z</time>
      </trkpt>
      <trkpt lat="46.37966" lon="2.84399">
        <ele>288.7</ele>
        <time>2018-10-21T09:32:36Z</time>
      </trkpt>
      <trkpt lat="46.37973" lon="2.84402">
        <ele>288.5</ele>
        <time>2018-10-21T09:32:41Z</time>
      </trkpt>
      <trkpt lat="46.37981" lon="2.84406">
        <ele>289.7</ele>
        <time>2018-10-21T09:32:45Z</time>
      </trkpt>
      <trkpt lat="46.3799" lon="2.84409">
        <ele>290.8</ele>
        <time>2018-10-21T09:32:49Z</time>
      </trkpt>
      <trkpt lat="46.37996" lon="2.84413">
        <ele>291.9</ele>
        <time>2018-10-21T09:32:52Z</time>
      </trkpt>
      <trkpt lat="46.38002" lon="2.84421">
        <ele>292.7</ele>
        <time>2018-10-21T09:32:56Z</time>
      </trkpt>
      <trkpt lat="46.38003" lon="2.84432">
        <ele>293.7</ele>
        <time>2018-10-21T09:33:00Z</time>
      </trkpt>
      <trkpt lat="46.38003" lon="2.84442">
        <ele>294.4</ele>
        <time>2018-10-21T09:33:03Z</time>
      </trkpt>
      <trkpt lat="46.38002" lon="2.84452">
        <ele>294.9</ele>
        <time>2018-10-21T09:33:06Z</time>
      </trkpt>
      <trkpt lat="46.38002" lon="2.84455">
        <ele>295</ele>
        <time>2018-10-21T09:33:07Z</time>
      </trkpt>
      <trkpt lat="46.38002" lon="2.84472">
        <ele>296</ele>
        <time>2018-10-21T09:33:12Z</time>
      </trkpt>
      <trkpt lat="46.38004" lon="2.84485">
        <ele>296.4</ele>
        <time>2018-10-21T09:33:16Z</time>
      </trkpt>
      <trkpt lat="46.38006" lon="2.84497">
        <ele>297.9</ele>
        <time>2018-10-21T09:33:19Z</time>
      </trkpt>
      <trkpt lat="46.38008" lon="2.84509">
        <ele>298.6</ele>
        <time>2018-10-21T09:33:22Z</time>
      </trkpt>
      <trkpt lat="46.3801" lon="2.84521">
        <ele>298.3</ele>
        <time>2018-10-21T09:33:25Z</time>
      </trkpt>
      <trkpt lat="46.38012" lon="2.84533">
        <ele>298</ele>
        <time>2018-10-21T09:33:28Z</time>
      </trkpt>
      <trkpt lat="46.38015" lon="2.84544">
        <ele>298.7</ele>
        <time>2018-10-21T09:33:31Z</time>
      </trkpt>
      <trkpt lat="46.38019" lon="2.84556">
        <ele>298.7</ele>
        <time>2018-10-21T09:33:34Z</time>
      </trkpt>
      <trkpt lat="46.38022" lon="2.84567">
        <ele>299.2</ele>
        <time>2018-10-21T09:33:37Z</time>
      </trkpt>
      <trkpt lat="46.38025" lon="2.84579">
        <ele>299.7</ele>
        <time>2018-10-21T09:33:40Z</time>
      </trkpt>
      <trkpt lat="46.38028" lon="2.84591">
        <ele>300.2</ele>
        <time>2018-10-21T09:33:43Z</time>
      </trkpt>
      <trkpt lat="46.3803" lon="2.84604">
        <ele>300.9</ele>
        <time>2018-10-21T09:33:46Z</time>
      </trkpt>
      <trkpt lat="46.38031" lon="2.84616">
        <ele>301.6</ele>
        <time>2018-10-21T09:33:49Z</time>
      </trkpt>
      <trkpt lat="46.38033" lon="2.84629">
        <ele>302.5</ele>
        <time>2018-10-21T09:33:52Z</time>
      </trkpt>
      <trkpt lat="46.38034" lon="2.84642">
        <ele>302.7</ele>
        <time>2018-10-21T09:33:55Z</time>
      </trkpt>
      <trkpt lat="46.38034" lon="2.84654">
        <ele>303.2</ele>
        <time>2018-10-21T09:33:58Z</time>
      </trkpt>
      <trkpt lat="46.38034" lon="2.84666">
        <ele>303.6</ele>
        <time>2018-10-21T09:34:01Z</time>
      </trkpt>
      <trkpt lat="46.38033" lon="2.84675">
        <ele>303.5</ele>
        <time>2018-10-21T09:34:03Z</time>
      </trkpt>
      <trkpt lat="46.38032" lon="2.84684">
        <ele>303.6</ele>
        <time>2018-10-21T09:34:05Z</time>
      </trkpt>
      <trkpt lat="46.38031" lon="2.84693">
        <ele>303.7</ele>
        <time>2018-10-21T09:34:07Z</time>
      </trkpt>
      <trkpt lat="46.38031" lon="2.84697">
        <ele>303.9</ele>
        <time>2018-10-21T09:34:08Z</time>
      </trkpt>
      <trkpt lat="46.38029" lon="2.8471">
        <ele>304.3</ele>
        <time>2018-10-21T09:34:11Z</time>
      </trkpt>
      <trkpt lat="46.38028" lon="2.84719">
        <ele>304.4</ele>
        <time>2018-10-21T09:34:13Z</time>
      </trkpt>
      <trkpt lat="46.38026" lon="2.84727">
        <ele>305.1</ele>
        <time>2018-10-21T09:34:15Z</time>
      </trkpt>
      <trkpt lat="46.38025" lon="2.84737">
        <ele>306.1</ele>
        <time>2018-10-21T09:34:17Z</time>
      </trkpt>
      <trkpt lat="46.38023" lon="2.84746">
        <ele>306.2</ele>
        <time>2018-10-21T09:34:19Z</time>
      </trkpt>
      <trkpt lat="46.38022" lon="2.84756">
        <ele>306.4</ele>
        <time>2018-10-21T09:34:21Z</time>
      </trkpt>
      <trkpt lat="46.38021" lon="2.84765">
        <ele>306.7</ele>
        <time>2018-10-21T09:34:23Z</time>
      </trkpt>
      <trkpt lat="46.3802" lon="2.84774">
        <ele>307</ele>
        <time>2018-10-21T09:34:25Z</time>
      </trkpt>
      <trkpt lat="46.38018" lon="2.84783">
        <ele>307</ele>
        <time>2018-10-21T09:34:27Z</time>
      </trkpt>
      <trkpt lat="46.38017" lon="2.84792">
        <ele>307</ele>
        <time>2018-10-21T09:34:29Z</time>
      </trkpt>
      <trkpt lat="46.38016" lon="2.84801">
        <ele>307.9</ele>
        <time>2018-10-21T09:34:31Z</time>
      </trkpt>
      <trkpt lat="46.38017" lon="2.8481">
        <ele>308.4</ele>
        <time>2018-10-21T09:34:33Z</time>
      </trkpt>
      <trkpt lat="46.3802" lon="2.84817">
        <ele>308.8</ele>
        <time>2018-10-21T09:34:35Z</time>
      </trkpt>
      <trkpt lat="46.38025" lon="2.84823">
        <ele>309.3</ele>
        <time>2018-10-21T09:34:37Z</time>
      </trkpt>
      <trkpt lat="46.38031" lon="2.84828">
        <ele>309.5</ele>
        <time>2018-10-21T09:34:39Z</time>
      </trkpt>
      <trkpt lat="46.38038" lon="2.84833">
        <ele>309.4</ele>
        <time>2018-10-21T09:34:41Z</time>
      </trkpt>
      <trkpt lat="46.38044" lon="2.84839">
        <ele>309.3</ele>
        <time>2018-10-21T09:34:43Z</time>
      </trkpt>
      <trkpt lat="46.38052" lon="2.84845">
        <ele>309</ele>
        <time>2018-10-21T09:34:45Z</time>
      </trkpt>
      <trkpt lat="46.38056" lon="2.84848">
        <ele>309.1</ele>
        <time>2018-10-21T09:34:46Z</time>
      </trkpt>
      <trkpt lat="46.38061" lon="2.84852">
        <ele>309.2</ele>
        <time>2018-10-21T09:34:47Z</time>
      </trkpt>
      <trkpt lat="46.38065" lon="2.84855">
        <ele>309.2</ele>
        <time>2018-10-21T09:34:48Z</time>
      </trkpt>
      <trkpt lat="46.38069" lon="2.8486">
        <ele>309</ele>
        <time>2018-10-21T09:34:49Z</time>
      </trkpt>
      <trkpt lat="46.38074" lon="2.84864">
        <ele>308.9</ele>
        <time>2018-10-21T09:34:50Z</time>
      </trkpt>
      <trkpt lat="46.38079" lon="2.84868">
        <ele>308.8</ele>
        <time>2018-10-21T09:34:51Z</time>
      </trkpt>
      <trkpt lat="46.38084" lon="2.84872">
        <ele>308.6</ele>
        <time>2018-10-21T09:34:52Z</time>
      </trkpt>
      <trkpt lat="46.38089" lon="2.84876">
        <ele>308.6</ele>
        <time>2018-10-21T09:34:53Z</time>
      </trkpt>
      <trkpt lat="46.38095" lon="2.84881">
        <ele>308.3</ele>
        <time>2018-10-21T09:34:54Z</time>
      </trkpt>
      <trkpt lat="46.38101" lon="2.84885">
        <ele>308.1</ele>
        <time>2018-10-21T09:34:55Z</time>
      </trkpt>
      <trkpt lat="46.38106" lon="2.8489">
        <ele>307.3</ele>
        <time>2018-10-21T09:34:56Z</time>
      </trkpt>
      <trkpt lat="46.38112" lon="2.84895">
        <ele>306.6</ele>
        <time>2018-10-21T09:34:57Z</time>
      </trkpt>
      <trkpt lat="46.38117" lon="2.84899">
        <ele>306.1</ele>
        <time>2018-10-21T09:34:58Z</time>
      </trkpt>
      <trkpt lat="46.38125" lon="2.84898">
        <ele>305.4</ele>
        <time>2018-10-21T09:35:00Z</time>
      </trkpt>
      <trkpt lat="46.38128" lon="2.84892">
        <ele>305</ele>
        <time>2018-10-21T09:35:01Z</time>
      </trkpt>
      <trkpt lat="46.3813" lon="2.84886">
        <ele>304.6</ele>
        <time>2018-10-21T09:35:02Z</time>
      </trkpt>
      <trkpt lat="46.38133" lon="2.84879">
        <ele>304.3</ele>
        <time>2018-10-21T09:35:03Z</time>
      </trkpt>
      <trkpt lat="46.38136" lon="2.84872">
        <ele>304.1</ele>
        <time>2018-10-21T09:35:04Z</time>
      </trkpt>
      <trkpt lat="46.3814" lon="2.84864">
        <ele>303.9</ele>
        <time>2018-10-21T09:35:05Z</time>
      </trkpt>
      <trkpt lat="46.38143" lon="2.84856">
        <ele>303.7</ele>
        <time>2018-10-21T09:35:06Z</time>
      </trkpt>
      <trkpt lat="46.38146" lon="2.84848">
        <ele>303.5</ele>
        <time>2018-10-21T09:35:07Z</time>
      </trkpt>
      <trkpt lat="46.3815" lon="2.84839">
        <ele>303.2</ele>
        <time>2018-10-21T09:35:08Z</time>
      </trkpt>
      <trkpt lat="46.38153" lon="2.8483">
        <ele>303</ele>
        <time>2018-10-21T09:35:09Z</time>
      </trkpt>
      <trkpt lat="46.38157" lon="2.84822">
        <ele>302.2</ele>
        <time>2018-10-21T09:35:10Z</time>
      </trkpt>
      <trkpt lat="46.38161" lon="2.84813">
        <ele>301.5</ele>
        <time>2018-10-21T09:35:11Z</time>
      </trkpt>
      <trkpt lat="46.38165" lon="2.84805">
        <ele>301.4</ele>
        <time>2018-10-21T09:35:12Z</time>
      </trkpt>
      <trkpt lat="46.38169" lon="2.84796">
        <ele>301.4</ele>
        <time>2018-10-21T09:35:13Z</time>
      </trkpt>
      <trkpt lat="46.38172" lon="2.84787">
        <ele>301.3</ele>
        <time>2018-10-21T09:35:14Z</time>
      </trkpt>
      <trkpt lat="46.38176" lon="2.84777">
        <ele>300.5</ele>
        <time>2018-10-21T09:35:15Z</time>
      </trkpt>
      <trkpt lat="46.38179" lon="2.84768">
        <ele>300</ele>
        <time>2018-10-21T09:35:16Z</time>
      </trkpt>
      <trkpt lat="46.38182" lon="2.84758">
        <ele>299.7</ele>
        <time>2018-10-21T09:35:17Z</time>
      </trkpt>
      <trkpt lat="46.38184" lon="2.84748">
        <ele>299.6</ele>
        <time>2018-10-21T09:35:18Z</time>
      </trkpt>
      <trkpt lat="46.38186" lon="2.84738">
        <ele>299.5</ele>
        <time>2018-10-21T09:35:19Z</time>
      </trkpt>
      <trkpt lat="46.38187" lon="2.84728">
        <ele>299.1</ele>
        <time>2018-10-21T09:35:20Z</time>
      </trkpt>
      <trkpt lat="46.38189" lon="2.84717">
        <ele>298.9</ele>
        <time>2018-10-21T09:35:21Z</time>
      </trkpt>
      <trkpt lat="46.38191" lon="2.84707">
        <ele>298.5</ele>
        <time>2018-10-21T09:35:22Z</time>
      </trkpt>
      <trkpt lat="46.38193" lon="2.84697">
        <ele>298.2</ele>
        <time>2018-10-21T09:35:23Z</time>
      </trkpt>
      <trkpt lat="46.38196" lon="2.84688">
        <ele>297.5</ele>
        <time>2018-10-21T09:35:24Z</time>
      </trkpt>
      <trkpt lat="46.38198" lon="2.84678">
        <ele>297</ele>
        <time>2018-10-21T09:35:25Z</time>
      </trkpt>
      <trkpt lat="46.382" lon="2.84668">
        <ele>296.6</ele>
        <time>2018-10-21T09:35:26Z</time>
      </trkpt>
      <trkpt lat="46.38202" lon="2.84659">
        <ele>296.7</ele>
        <time>2018-10-21T09:35:27Z</time>
      </trkpt>
      <trkpt lat="46.38204" lon="2.84649">
        <ele>296.7</ele>
        <time>2018-10-21T09:35:28Z</time>
      </trkpt>
      <trkpt lat="46.38206" lon="2.8464">
        <ele>296.3</ele>
        <time>2018-10-21T09:35:29Z</time>
      </trkpt>
      <trkpt lat="46.38208" lon="2.8463">
        <ele>296</ele>
        <time>2018-10-21T09:35:30Z</time>
      </trkpt>
      <trkpt lat="46.38209" lon="2.84621">
        <ele>295.6</ele>
        <time>2018-10-21T09:35:31Z</time>
      </trkpt>
      <trkpt lat="46.38211" lon="2.84612">
        <ele>295.3</ele>
        <time>2018-10-21T09:35:32Z</time>
      </trkpt>
      <trkpt lat="46.38213" lon="2.84604">
        <ele>295.1</ele>
        <time>2018-10-21T09:35:33Z</time>
      </trkpt>
      <trkpt lat="46.38215" lon="2.84595">
        <ele>295.1</ele>
        <time>2018-10-21T09:35:34Z</time>
      </trkpt>
      <trkpt lat="46.38218" lon="2.84588">
        <ele>295</ele>
        <time>2018-10-21T09:35:35Z</time>
      </trkpt>
      <trkpt lat="46.38222" lon="2.84581">
        <ele>294.3</ele>
        <time>2018-10-21T09:35:36Z</time>
      </trkpt>
      <trkpt lat="46.38227" lon="2.84574">
        <ele>293.8</ele>
        <time>2018-10-21T09:35:37Z</time>
      </trkpt>
      <trkpt lat="46.38233" lon="2.84568">
        <ele>293.4</ele>
        <time>2018-10-21T09:35:38Z</time>
      </trkpt>
      <trkpt lat="46.38238" lon="2.84562">
        <ele>293.1</ele>
        <time>2018-10-21T09:35:39Z</time>
      </trkpt>
      <trkpt lat="46.38243" lon="2.84555">
        <ele>292.9</ele>
        <time>2018-10-21T09:35:40Z</time>
      </trkpt>
      <trkpt lat="46.38249" lon="2.84548">
        <ele>292.3</ele>
        <time>2018-10-21T09:35:41Z</time>
      </trkpt>
      <trkpt lat="46.38255" lon="2.84542">
        <ele>291.7</ele>
        <time>2018-10-21T09:35:42Z</time>
      </trkpt>
      <trkpt lat="46.3826" lon="2.84535">
        <ele>291.4</ele>
        <time>2018-10-21T09:35:43Z</time>
      </trkpt>
      <trkpt lat="46.38266" lon="2.84529">
        <ele>291.2</ele>
        <time>2018-10-21T09:35:44Z</time>
      </trkpt>
      <trkpt lat="46.38272" lon="2.84523">
        <ele>291</ele>
        <time>2018-10-21T09:35:45Z</time>
      </trkpt>
      <trkpt lat="46.38278" lon="2.84516">
        <ele>290.7</ele>
        <time>2018-10-21T09:35:46Z</time>
      </trkpt>
      <trkpt lat="46.38284" lon="2.8451">
        <ele>290.4</ele>
        <time>2018-10-21T09:35:47Z</time>
      </trkpt>
      <trkpt lat="46.3829" lon="2.84504">
        <ele>289.8</ele>
        <time>2018-10-21T09:35:48Z</time>
      </trkpt>
      <trkpt lat="46.38296" lon="2.84498">
        <ele>289.3</ele>
        <time>2018-10-21T09:35:49Z</time>
      </trkpt>
      <trkpt lat="46.38302" lon="2.84492">
        <ele>289</ele>
        <time>2018-10-21T09:35:50Z</time>
      </trkpt>
      <trkpt lat="46.38308" lon="2.84487">
        <ele>288.7</ele>
        <time>2018-10-21T09:35:51Z</time>
      </trkpt>
      <trkpt lat="46.38314" lon="2.84481">
        <ele>288.5</ele>
        <time>2018-10-21T09:35:52Z</time>
      </trkpt>
      <trkpt lat="46.38321" lon="2.84476">
        <ele>288</ele>
        <time>2018-10-21T09:35:53Z</time>
      </trkpt>
      <trkpt lat="46.38328" lon="2.84471">
        <ele>287.6</ele>
        <time>2018-10-21T09:35:54Z</time>
      </trkpt>
      <trkpt lat="46.38336" lon="2.84466">
        <ele>286.7</ele>
        <time>2018-10-21T09:35:55Z</time>
      </trkpt>
      <trkpt lat="46.38345" lon="2.84461">
        <ele>286.1</ele>
        <time>2018-10-21T09:35:56Z</time>
      </trkpt>
      <trkpt lat="46.38353" lon="2.84455">
        <ele>285.6</ele>
        <time>2018-10-21T09:35:57Z</time>
      </trkpt>
      <trkpt lat="46.38362" lon="2.84449">
        <ele>284.4</ele>
        <time>2018-10-21T09:35:58Z</time>
      </trkpt>
      <trkpt lat="46.3837" lon="2.84442">
        <ele>283.5</ele>
        <time>2018-10-21T09:35:59Z</time>
      </trkpt>
      <trkpt lat="46.38379" lon="2.84436">
        <ele>282.4</ele>
        <time>2018-10-21T09:36:00Z</time>
      </trkpt>
      <trkpt lat="46.38387" lon="2.84429">
        <ele>281.6</ele>
        <time>2018-10-21T09:36:01Z</time>
      </trkpt>
      <trkpt lat="46.38395" lon="2.84422">
        <ele>280.8</ele>
        <time>2018-10-21T09:36:02Z</time>
      </trkpt>
      <trkpt lat="46.38402" lon="2.84416">
        <ele>280.2</ele>
        <time>2018-10-21T09:36:03Z</time>
      </trkpt>
      <trkpt lat="46.38409" lon="2.84411">
        <ele>279.8</ele>
        <time>2018-10-21T09:36:04Z</time>
      </trkpt>
      <trkpt lat="46.38415" lon="2.84406">
        <ele>278.5</ele>
        <time>2018-10-21T09:36:05Z</time>
      </trkpt>
      <trkpt lat="46.38421" lon="2.844">
        <ele>277.5</ele>
        <time>2018-10-21T09:36:06Z</time>
      </trkpt>
      <trkpt lat="46.38425" lon="2.84393">
        <ele>276.1</ele>
        <time>2018-10-21T09:36:07Z</time>
      </trkpt>
      <trkpt lat="46.38429" lon="2.84385">
        <ele>275</ele>
        <time>2018-10-21T09:36:08Z</time>
      </trkpt>
      <trkpt lat="46.38433" lon="2.84377">
        <ele>273.7</ele>
        <time>2018-10-21T09:36:09Z</time>
      </trkpt>
      <trkpt lat="46.38437" lon="2.84367">
        <ele>272.8</ele>
        <time>2018-10-21T09:36:10Z</time>
      </trkpt>
      <trkpt lat="46.38442" lon="2.84357">
        <ele>272</ele>
        <time>2018-10-21T09:36:11Z</time>
      </trkpt>
      <trkpt lat="46.38449" lon="2.84348">
        <ele>270.6</ele>
        <time>2018-10-21T09:36:12Z</time>
      </trkpt>
      <trkpt lat="46.38456" lon="2.84338">
        <ele>269.6</ele>
        <time>2018-10-21T09:36:13Z</time>
      </trkpt>
      <trkpt lat="46.38463" lon="2.84329">
        <ele>268.4</ele>
        <time>2018-10-21T09:36:14Z</time>
      </trkpt>
      <trkpt lat="46.38471" lon="2.84319">
        <ele>267.4</ele>
        <time>2018-10-21T09:36:15Z</time>
      </trkpt>
      <trkpt lat="46.38478" lon="2.84309">
        <ele>266.8</ele>
        <time>2018-10-21T09:36:16Z</time>
      </trkpt>
      <trkpt lat="46.38486" lon="2.84299">
        <ele>265.5</ele>
        <time>2018-10-21T09:36:17Z</time>
      </trkpt>
      <trkpt lat="46.38493" lon="2.8429">
        <ele>264.6</ele>
        <time>2018-10-21T09:36:18Z</time>
      </trkpt>
      <trkpt lat="46.385" lon="2.84281">
        <ele>262.9</ele>
        <time>2018-10-21T09:36:19Z</time>
      </trkpt>
      <trkpt lat="46.38507" lon="2.84271">
        <ele>261.7</ele>
        <time>2018-10-21T09:36:20Z</time>
      </trkpt>
      <trkpt lat="46.38513" lon="2.84263">
        <ele>260.3</ele>
        <time>2018-10-21T09:36:21Z</time>
      </trkpt>
      <trkpt lat="46.38518" lon="2.84254">
        <ele>259.2</ele>
        <time>2018-10-21T09:36:22Z</time>
      </trkpt>
      <trkpt lat="46.38521" lon="2.84246">
        <ele>258.4</ele>
        <time>2018-10-21T09:36:23Z</time>
      </trkpt>
      <trkpt lat="46.38524" lon="2.84238">
        <ele>257.1</ele>
        <time>2018-10-21T09:36:24Z</time>
      </trkpt>
      <trkpt lat="46.38529" lon="2.84233">
        <ele>256.2</ele>
        <time>2018-10-21T09:36:25Z</time>
      </trkpt>
      <trkpt lat="46.38534" lon="2.84229">
        <ele>255.2</ele>
        <time>2018-10-21T09:36:26Z</time>
      </trkpt>
      <trkpt lat="46.3854" lon="2.84228">
        <ele>254.4</ele>
        <time>2018-10-21T09:36:27Z</time>
      </trkpt>
      <trkpt lat="46.38545" lon="2.84229">
        <ele>253.8</ele>
        <time>2018-10-21T09:36:28Z</time>
      </trkpt>
      <trkpt lat="46.3855" lon="2.84229">
        <ele>253.3</ele>
        <time>2018-10-21T09:36:29Z</time>
      </trkpt>
      <trkpt lat="46.38555" lon="2.84229">
        <ele>253</ele>
        <time>2018-10-21T09:36:30Z</time>
      </trkpt>
      <trkpt lat="46.3856" lon="2.84229">
        <ele>252.8</ele>
        <time>2018-10-21T09:36:31Z</time>
      </trkpt>
      <trkpt lat="46.38565" lon="2.84229">
        <ele>252.7</ele>
        <time>2018-10-21T09:36:32Z</time>
      </trkpt>
      <trkpt lat="46.3857" lon="2.84229">
        <ele>252.6</ele>
        <time>2018-10-21T09:36:33Z</time>
      </trkpt>
      <trkpt lat="46.38575" lon="2.84229">
        <ele>252.5</ele>
        <time>2018-10-21T09:36:34Z</time>
      </trkpt>
      <trkpt lat="46.38579" lon="2.84229">
        <ele>252.5</ele>
        <time>2018-10-21T09:36:35Z</time>
      </trkpt>
      <trkpt lat="46.38588" lon="2.84231">
        <ele>253.4</ele>
        <time>2018-10-21T09:36:37Z</time>
      </trkpt>
      <trkpt lat="46.38595" lon="2.84232">
        <ele>253.3</ele>
        <time>2018-10-21T09:36:39Z</time>
      </trkpt>
      <trkpt lat="46.38603" lon="2.84233">
        <ele>253.9</ele>
        <time>2018-10-21T09:36:41Z</time>
      </trkpt>
      <trkpt lat="46.38611" lon="2.84233">
        <ele>254.4</ele>
        <time>2018-10-21T09:36:43Z</time>
      </trkpt>
      <trkpt lat="46.38619" lon="2.84236">
        <ele>254.7</ele>
        <time>2018-10-21T09:36:45Z</time>
      </trkpt>
      <trkpt lat="46.38628" lon="2.84239">
        <ele>254.9</ele>
        <time>2018-10-21T09:36:47Z</time>
      </trkpt>
      <trkpt lat="46.38636" lon="2.84245">
        <ele>255</ele>
        <time>2018-10-21T09:36:49Z</time>
      </trkpt>
      <trkpt lat="46.38643" lon="2.84252">
        <ele>254.9</ele>
        <time>2018-10-21T09:36:51Z</time>
      </trkpt>
      <trkpt lat="46.3865" lon="2.84258">
        <ele>254.2</ele>
        <time>2018-10-21T09:36:53Z</time>
      </trkpt>
      <trkpt lat="46.38656" lon="2.84265">
        <ele>254.3</ele>
        <time>2018-10-21T09:36:55Z</time>
      </trkpt>
      <trkpt lat="46.38663" lon="2.84269">
        <ele>254.7</ele>
        <time>2018-10-21T09:36:57Z</time>
      </trkpt>
      <trkpt lat="46.3867" lon="2.84273">
        <ele>255</ele>
        <time>2018-10-21T09:36:59Z</time>
      </trkpt>
      <trkpt lat="46.38675" lon="2.84276">
        <ele>255.1</ele>
        <time>2018-10-21T09:37:01Z</time>
      </trkpt>
      <trkpt lat="46.38681" lon="2.84281">
        <ele>255</ele>
        <time>2018-10-21T09:37:03Z</time>
      </trkpt>
      <trkpt lat="46.38686" lon="2.84285">
        <ele>255.6</ele>
        <time>2018-10-21T09:37:05Z</time>
      </trkpt>
      <trkpt lat="46.38692" lon="2.84289">
        <ele>255.8</ele>
        <time>2018-10-21T09:37:07Z</time>
      </trkpt>
      <trkpt lat="46.38698" lon="2.84293">
        <ele>255.8</ele>
        <time>2018-10-21T09:37:09Z</time>
      </trkpt>
      <trkpt lat="46.38704" lon="2.84296">
        <ele>256</ele>
        <time>2018-10-21T09:37:11Z</time>
      </trkpt>
      <trkpt lat="46.38706" lon="2.84298">
        <ele>256.2</ele>
        <time>2018-10-21T09:37:12Z</time>
      </trkpt>
      <trkpt lat="46.38715" lon="2.84303">
        <ele>257.2</ele>
        <time>2018-10-21T09:37:15Z</time>
      </trkpt>
      <trkpt lat="46.3872" lon="2.84306">
        <ele>258.2</ele>
        <time>2018-10-21T09:37:17Z</time>
      </trkpt>
      <trkpt lat="46.38726" lon="2.84311">
        <ele>258.7</ele>
        <time>2018-10-21T09:37:19Z</time>
      </trkpt>
      <trkpt lat="46.38733" lon="2.84319">
        <ele>259.4</ele>
        <time>2018-10-21T09:37:22Z</time>
      </trkpt>
      <trkpt lat="46.38738" lon="2.84329">
        <ele>260.9</ele>
        <time>2018-10-21T09:37:25Z</time>
      </trkpt>
      <trkpt lat="46.38741" lon="2.84341">
        <ele>262</ele>
        <time>2018-10-21T09:37:28Z</time>
      </trkpt>
      <trkpt lat="46.38743" lon="2.8435">
        <ele>262.5</ele>
        <time>2018-10-21T09:37:30Z</time>
      </trkpt>
      <trkpt lat="46.38745" lon="2.84358">
        <ele>263</ele>
        <time>2018-10-21T09:37:32Z</time>
      </trkpt>
      <trkpt lat="46.38747" lon="2.84367">
        <ele>263.4</ele>
        <time>2018-10-21T09:37:34Z</time>
      </trkpt>
      <trkpt lat="46.38749" lon="2.84376">
        <ele>263.2</ele>
        <time>2018-10-21T09:37:36Z</time>
      </trkpt>
      <trkpt lat="46.38751" lon="2.84385">
        <ele>263.8</ele>
        <time>2018-10-21T09:37:38Z</time>
      </trkpt>
      <trkpt lat="46.38753" lon="2.84394">
        <ele>263.8</ele>
        <time>2018-10-21T09:37:40Z</time>
      </trkpt>
      <trkpt lat="46.38756" lon="2.84403">
        <ele>264.1</ele>
        <time>2018-10-21T09:37:42Z</time>
      </trkpt>
      <trkpt lat="46.38759" lon="2.84412">
        <ele>264.8</ele>
        <time>2018-10-21T09:37:44Z</time>
      </trkpt>
      <trkpt lat="46.38762" lon="2.8442">
        <ele>265.2</ele>
        <time>2018-10-21T09:37:46Z</time>
      </trkpt>
      <trkpt lat="46.38765" lon="2.84428">
        <ele>265.8</ele>
        <time>2018-10-21T09:37:48Z</time>
      </trkpt>
      <trkpt lat="46.38769" lon="2.84436">
        <ele>266.4</ele>
        <time>2018-10-21T09:37:50Z</time>
      </trkpt>
      <trkpt lat="46.38773" lon="2.84445">
        <ele>266.9</ele>
        <time>2018-10-21T09:37:52Z</time>
      </trkpt>
      <trkpt lat="46.38777" lon="2.84452">
        <ele>267.5</ele>
        <time>2018-10-21T09:37:54Z</time>
      </trkpt>
      <trkpt lat="46.38781" lon="2.8446">
        <ele>267.7</ele>
        <time>2018-10-21T09:37:56Z</time>
      </trkpt>
      <trkpt lat="46.38785" lon="2.84468">
        <ele>267.7</ele>
        <time>2018-10-21T09:37:58Z</time>
      </trkpt>
      <trkpt lat="46.38788" lon="2.84475">
        <ele>268.4</ele>
        <time>2018-10-21T09:38:00Z</time>
      </trkpt>
      <trkpt lat="46.38792" lon="2.84483">
        <ele>268.6</ele>
        <time>2018-10-21T09:38:02Z</time>
      </trkpt>
      <trkpt lat="46.38796" lon="2.84491">
        <ele>269.1</ele>
        <time>2018-10-21T09:38:04Z</time>
      </trkpt>
      <trkpt lat="46.388" lon="2.845">
        <ele>269.6</ele>
        <time>2018-10-21T09:38:06Z</time>
      </trkpt>
      <trkpt lat="46.38804" lon="2.84508">
        <ele>270.2</ele>
        <time>2018-10-21T09:38:08Z</time>
      </trkpt>
      <trkpt lat="46.38808" lon="2.84516">
        <ele>270.7</ele>
        <time>2018-10-21T09:38:10Z</time>
      </trkpt>
      <trkpt lat="46.38812" lon="2.84524">
        <ele>271.2</ele>
        <time>2018-10-21T09:38:12Z</time>
      </trkpt>
      <trkpt lat="46.38814" lon="2.84528">
        <ele>271.2</ele>
        <time>2018-10-21T09:38:13Z</time>
      </trkpt>
      <trkpt lat="46.38821" lon="2.8454">
        <ele>271.4</ele>
        <time>2018-10-21T09:38:16Z</time>
      </trkpt>
      <trkpt lat="46.38824" lon="2.84548">
        <ele>271.5</ele>
        <time>2018-10-21T09:38:18Z</time>
      </trkpt>
      <trkpt lat="46.38828" lon="2.84556">
        <ele>271.7</ele>
        <time>2018-10-21T09:38:20Z</time>
      </trkpt>
      <trkpt lat="46.38831" lon="2.84564">
        <ele>272.2</ele>
        <time>2018-10-21T09:38:22Z</time>
      </trkpt>
      <trkpt lat="46.38836" lon="2.84572">
        <ele>272.7</ele>
        <time>2018-10-21T09:38:24Z</time>
      </trkpt>
      <trkpt lat="46.3884" lon="2.8458">
        <ele>272.8</ele>
        <time>2018-10-21T09:38:26Z</time>
      </trkpt>
      <trkpt lat="46.38844" lon="2.84587">
        <ele>273.5</ele>
        <time>2018-10-21T09:38:28Z</time>
      </trkpt>
      <trkpt lat="46.38848" lon="2.84595">
        <ele>273.8</ele>
        <time>2018-10-21T09:38:30Z</time>
      </trkpt>
      <trkpt lat="46.38851" lon="2.84602">
        <ele>274</ele>
        <time>2018-10-21T09:38:32Z</time>
      </trkpt>
      <trkpt lat="46.38855" lon="2.84609">
        <ele>274.2</ele>
        <time>2018-10-21T09:38:34Z</time>
      </trkpt>
      <trkpt lat="46.38859" lon="2.84616">
        <ele>274.4</ele>
        <time>2018-10-21T09:38:36Z</time>
      </trkpt>
      <trkpt lat="46.38862" lon="2.84623">
        <ele>274.5</ele>
        <time>2018-10-21T09:38:38Z</time>
      </trkpt>
      <trkpt lat="46.38866" lon="2.8463">
        <ele>274.8</ele>
        <time>2018-10-21T09:38:40Z</time>
      </trkpt>
      <trkpt lat="46.3887" lon="2.84637">
        <ele>275.3</ele>
        <time>2018-10-21T09:38:42Z</time>
      </trkpt>
      <trkpt lat="46.38875" lon="2.84647">
        <ele>275.8</ele>
        <time>2018-10-21T09:38:45Z</time>
      </trkpt>
      <trkpt lat="46.3888" lon="2.84657">
        <ele>276.9</ele>
        <time>2018-10-21T09:38:48Z</time>
      </trkpt>
      <trkpt lat="46.38886" lon="2.84666">
        <ele>277.5</ele>
        <time>2018-10-21T09:38:51Z</time>
      </trkpt>
      <trkpt lat="46.3889" lon="2.84674">
        <ele>277.9</ele>
        <time>2018-10-21T09:38:53Z</time>
      </trkpt>
      <trkpt lat="46.38893" lon="2.84682">
        <ele>278.2</ele>
        <time>2018-10-21T09:38:55Z</time>
      </trkpt>
      <trkpt lat="46.38896" lon="2.8469">
        <ele>278.6</ele>
        <time>2018-10-21T09:38:57Z</time>
      </trkpt>
      <trkpt lat="46.389" lon="2.84698">
        <ele>278.4</ele>
        <time>2018-10-21T09:38:59Z</time>
      </trkpt>
      <trkpt lat="46.38905" lon="2.84707">
        <ele>278.3</ele>
        <time>2018-10-21T09:39:01Z</time>
      </trkpt>
      <trkpt lat="46.38909" lon="2.84715">
        <ele>277.9</ele>
        <time>2018-10-21T09:39:03Z</time>
      </trkpt>
      <trkpt lat="46.38913" lon="2.84724">
        <ele>277.8</ele>
        <time>2018-10-21T09:39:05Z</time>
      </trkpt>
      <trkpt lat="46.38917" lon="2.84733">
        <ele>278</ele>
        <time>2018-10-21T09:39:07Z</time>
      </trkpt>
      <trkpt lat="46.38922" lon="2.84741">
        <ele>277.4</ele>
        <time>2018-10-21T09:39:09Z</time>
      </trkpt>
      <trkpt lat="46.38927" lon="2.8475">
        <ele>278.2</ele>
        <time>2018-10-21T09:39:11Z</time>
      </trkpt>
      <trkpt lat="46.38931" lon="2.84759">
        <ele>278.5</ele>
        <time>2018-10-21T09:39:13Z</time>
      </trkpt>
      <trkpt lat="46.38933" lon="2.84763">
        <ele>278.6</ele>
        <time>2018-10-21T09:39:14Z</time>
      </trkpt>
      <trkpt lat="46.38939" lon="2.84775">
        <ele>279.1</ele>
        <time>2018-10-21T09:39:17Z</time>
      </trkpt>
      <trkpt lat="46.38944" lon="2.84784">
        <ele>279.2</ele>
        <time>2018-10-21T09:39:19Z</time>
      </trkpt>
      <trkpt lat="46.38948" lon="2.84793">
        <ele>279.3</ele>
        <time>2018-10-21T09:39:21Z</time>
      </trkpt>
      <trkpt lat="46.38952" lon="2.84802">
        <ele>279.6</ele>
        <time>2018-10-21T09:39:23Z</time>
      </trkpt>
      <trkpt lat="46.38957" lon="2.84811">
        <ele>279.6</ele>
        <time>2018-10-21T09:39:25Z</time>
      </trkpt>
      <trkpt lat="46.38962" lon="2.8482">
        <ele>279.9</ele>
        <time>2018-10-21T09:39:27Z</time>
      </trkpt>
      <trkpt lat="46.38967" lon="2.84829">
        <ele>280.5</ele>
        <time>2018-10-21T09:39:29Z</time>
      </trkpt>
      <trkpt lat="46.38972" lon="2.84838">
        <ele>280.6</ele>
        <time>2018-10-21T09:39:31Z</time>
      </trkpt>
      <trkpt lat="46.38977" lon="2.84847">
        <ele>280.4</ele>
        <time>2018-10-21T09:39:33Z</time>
      </trkpt>
      <trkpt lat="46.38983" lon="2.84856">
        <ele>280.9</ele>
        <time>2018-10-21T09:39:35Z</time>
      </trkpt>
      <trkpt lat="46.38988" lon="2.84865">
        <ele>281</ele>
        <time>2018-10-21T09:39:37Z</time>
      </trkpt>
      <trkpt lat="46.38994" lon="2.84875">
        <ele>281.2</ele>
        <time>2018-10-21T09:39:39Z</time>
      </trkpt>
      <trkpt lat="46.39" lon="2.84884">
        <ele>281.4</ele>
        <time>2018-10-21T09:39:41Z</time>
      </trkpt>
      <trkpt lat="46.39007" lon="2.84892">
        <ele>281.2</ele>
        <time>2018-10-21T09:39:43Z</time>
      </trkpt>
      <trkpt lat="46.39014" lon="2.849">
        <ele>280.8</ele>
        <time>2018-10-21T09:39:45Z</time>
      </trkpt>
      <trkpt lat="46.3902" lon="2.84908">
        <ele>281.6</ele>
        <time>2018-10-21T09:39:47Z</time>
      </trkpt>
      <trkpt lat="46.39027" lon="2.84916">
        <ele>281.7</ele>
        <time>2018-10-21T09:39:49Z</time>
      </trkpt>
      <trkpt lat="46.39034" lon="2.84923">
        <ele>281.9</ele>
        <time>2018-10-21T09:39:51Z</time>
      </trkpt>
      <trkpt lat="46.39041" lon="2.84929">
        <ele>282.2</ele>
        <time>2018-10-21T09:39:53Z</time>
      </trkpt>
      <trkpt lat="46.39048" lon="2.84936">
        <ele>282.5</ele>
        <time>2018-10-21T09:39:55Z</time>
      </trkpt>
      <trkpt lat="46.39055" lon="2.84942">
        <ele>282.7</ele>
        <time>2018-10-21T09:39:57Z</time>
      </trkpt>
      <trkpt lat="46.39062" lon="2.84949">
        <ele>281.9</ele>
        <time>2018-10-21T09:39:59Z</time>
      </trkpt>
      <trkpt lat="46.39069" lon="2.84955">
        <ele>282.2</ele>
        <time>2018-10-21T09:40:01Z</time>
      </trkpt>
      <trkpt lat="46.39075" lon="2.84962">
        <ele>282.4</ele>
        <time>2018-10-21T09:40:03Z</time>
      </trkpt>
      <trkpt lat="46.39082" lon="2.84968">
        <ele>283.1</ele>
        <time>2018-10-21T09:40:05Z</time>
      </trkpt>
      <trkpt lat="46.39089" lon="2.84975">
        <ele>283.4</ele>
        <time>2018-10-21T09:40:07Z</time>
      </trkpt>
      <trkpt lat="46.39096" lon="2.84982">
        <ele>283.4</ele>
        <time>2018-10-21T09:40:09Z</time>
      </trkpt>
      <trkpt lat="46.39103" lon="2.84988">
        <ele>283.6</ele>
        <time>2018-10-21T09:40:11Z</time>
      </trkpt>
      <trkpt lat="46.39111" lon="2.84993">
        <ele>283.9</ele>
        <time>2018-10-21T09:40:13Z</time>
      </trkpt>
      <trkpt lat="46.39118" lon="2.84998">
        <ele>284.6</ele>
        <time>2018-10-21T09:40:15Z</time>
      </trkpt>
      <trkpt lat="46.39122" lon="2.85">
        <ele>285</ele>
        <time>2018-10-21T09:40:16Z</time>
      </trkpt>
      <trkpt lat="46.39134" lon="2.85005">
        <ele>285.4</ele>
        <time>2018-10-21T09:40:19Z</time>
      </trkpt>
      <trkpt lat="46.39141" lon="2.8501">
        <ele>285.5</ele>
        <time>2018-10-21T09:40:21Z</time>
      </trkpt>
      <trkpt lat="46.39148" lon="2.85018">
        <ele>285.7</ele>
        <time>2018-10-21T09:40:23Z</time>
      </trkpt>
      <trkpt lat="46.3915" lon="2.85029">
        <ele>286.4</ele>
        <time>2018-10-21T09:40:25Z</time>
      </trkpt>
      <trkpt lat="46.39148" lon="2.85041">
        <ele>286</ele>
        <time>2018-10-21T09:40:27Z</time>
      </trkpt>
      <trkpt lat="46.39147" lon="2.85053">
        <ele>286.1</ele>
        <time>2018-10-21T09:40:29Z</time>
      </trkpt>
      <trkpt lat="46.39146" lon="2.85065">
        <ele>286.3</ele>
        <time>2018-10-21T09:40:31Z</time>
      </trkpt>
      <trkpt lat="46.39146" lon="2.85077">
        <ele>286.6</ele>
        <time>2018-10-21T09:40:33Z</time>
      </trkpt>
      <trkpt lat="46.39146" lon="2.85087">
        <ele>286.6</ele>
        <time>2018-10-21T09:40:35Z</time>
      </trkpt>
      <trkpt lat="46.39146" lon="2.85096">
        <ele>286.5</ele>
        <time>2018-10-21T09:40:37Z</time>
      </trkpt>
      <trkpt lat="46.39146" lon="2.85107">
        <ele>287</ele>
        <time>2018-10-21T09:40:39Z</time>
      </trkpt>
      <trkpt lat="46.39145" lon="2.85117">
        <ele>287.3</ele>
        <time>2018-10-21T09:40:41Z</time>
      </trkpt>
      <trkpt lat="46.39146" lon="2.85127">
        <ele>287</ele>
        <time>2018-10-21T09:40:43Z</time>
      </trkpt>
      <trkpt lat="46.39146" lon="2.85137">
        <ele>286.8</ele>
        <time>2018-10-21T09:40:45Z</time>
      </trkpt>
      <trkpt lat="46.39146" lon="2.85147">
        <ele>286.8</ele>
        <time>2018-10-21T09:40:47Z</time>
      </trkpt>
      <trkpt lat="46.39147" lon="2.85158">
        <ele>286.8</ele>
        <time>2018-10-21T09:40:49Z</time>
      </trkpt>
      <trkpt lat="46.39147" lon="2.8517">
        <ele>287.9</ele>
        <time>2018-10-21T09:40:51Z</time>
      </trkpt>
      <trkpt lat="46.39147" lon="2.85181">
        <ele>287.4</ele>
        <time>2018-10-21T09:40:53Z</time>
      </trkpt>
      <trkpt lat="46.39147" lon="2.85192">
        <ele>287.6</ele>
        <time>2018-10-21T09:40:55Z</time>
      </trkpt>
      <trkpt lat="46.39147" lon="2.85203">
        <ele>287.8</ele>
        <time>2018-10-21T09:40:57Z</time>
      </trkpt>
      <trkpt lat="46.39147" lon="2.85214">
        <ele>288.2</ele>
        <time>2018-10-21T09:40:59Z</time>
      </trkpt>
      <trkpt lat="46.39148" lon="2.85225">
        <ele>288.6</ele>
        <time>2018-10-21T09:41:01Z</time>
      </trkpt>
      <trkpt lat="46.39148" lon="2.85236">
        <ele>289.2</ele>
        <time>2018-10-21T09:41:03Z</time>
      </trkpt>
      <trkpt lat="46.39148" lon="2.85248">
        <ele>288.7</ele>
        <time>2018-10-21T09:41:05Z</time>
      </trkpt>
      <trkpt lat="46.39148" lon="2.85257">
        <ele>288.7</ele>
        <time>2018-10-21T09:41:07Z</time>
      </trkpt>
      <trkpt lat="46.39148" lon="2.85269">
        <ele>288.8</ele>
        <time>2018-10-21T09:41:09Z</time>
      </trkpt>
      <trkpt lat="46.39148" lon="2.85279">
        <ele>288.5</ele>
        <time>2018-10-21T09:41:11Z</time>
      </trkpt>
      <trkpt lat="46.39148" lon="2.85288">
        <ele>288.2</ele>
        <time>2018-10-21T09:41:13Z</time>
      </trkpt>
      <trkpt lat="46.39148" lon="2.85298">
        <ele>288.8</ele>
        <time>2018-10-21T09:41:15Z</time>
      </trkpt>
      <trkpt lat="46.39147" lon="2.85309">
        <ele>288.6</ele>
        <time>2018-10-21T09:41:17Z</time>
      </trkpt>
      <trkpt lat="46.39147" lon="2.85314">
        <ele>288.9</ele>
        <time>2018-10-21T09:41:18Z</time>
      </trkpt>
      <trkpt lat="46.39146" lon="2.8533">
        <ele>289.3</ele>
        <time>2018-10-21T09:41:21Z</time>
      </trkpt>
      <trkpt lat="46.39145" lon="2.85341">
        <ele>289.5</ele>
        <time>2018-10-21T09:41:23Z</time>
      </trkpt>
      <trkpt lat="46.39144" lon="2.85352">
        <ele>289.5</ele>
        <time>2018-10-21T09:41:25Z</time>
      </trkpt>
      <trkpt lat="46.39143" lon="2.85362">
        <ele>289.3</ele>
        <time>2018-10-21T09:41:27Z</time>
      </trkpt>
      <trkpt lat="46.39141" lon="2.85374">
        <ele>289.8</ele>
        <time>2018-10-21T09:41:29Z</time>
      </trkpt>
      <trkpt lat="46.39141" lon="2.85385">
        <ele>289.6</ele>
        <time>2018-10-21T09:41:31Z</time>
      </trkpt>
      <trkpt lat="46.3914" lon="2.85396">
        <ele>289.7</ele>
        <time>2018-10-21T09:41:33Z</time>
      </trkpt>
      <trkpt lat="46.39138" lon="2.85407">
        <ele>289.9</ele>
        <time>2018-10-21T09:41:35Z</time>
      </trkpt>
      <trkpt lat="46.39136" lon="2.85418">
        <ele>290.5</ele>
        <time>2018-10-21T09:41:37Z</time>
      </trkpt>
      <trkpt lat="46.39134" lon="2.85429">
        <ele>291.2</ele>
        <time>2018-10-21T09:41:39Z</time>
      </trkpt>
      <trkpt lat="46.39132" lon="2.8544">
        <ele>291.2</ele>
        <time>2018-10-21T09:41:41Z</time>
      </trkpt>
      <trkpt lat="46.3913" lon="2.85451">
        <ele>291.1</ele>
        <time>2018-10-21T09:41:43Z</time>
      </trkpt>
      <trkpt lat="46.39128" lon="2.85462">
        <ele>291</ele>
        <time>2018-10-21T09:41:45Z</time>
      </trkpt>
      <trkpt lat="46.39125" lon="2.85474">
        <ele>291.2</ele>
        <time>2018-10-21T09:41:47Z</time>
      </trkpt>
      <trkpt lat="46.39124" lon="2.8548">
        <ele>291.4</ele>
        <time>2018-10-21T09:41:48Z</time>
      </trkpt>
      <trkpt lat="46.39122" lon="2.85493">
        <ele>291.5</ele>
        <time>2018-10-21T09:41:50Z</time>
      </trkpt>
      <trkpt lat="46.39119" lon="2.85505">
        <ele>291.8</ele>
        <time>2018-10-21T09:41:52Z</time>
      </trkpt>
      <trkpt lat="46.39118" lon="2.85511">
        <ele>292</ele>
        <time>2018-10-21T09:41:53Z</time>
      </trkpt>
      <trkpt lat="46.39116" lon="2.85518">
        <ele>291.9</ele>
        <time>2018-10-21T09:41:54Z</time>
      </trkpt>
      <trkpt lat="46.39115" lon="2.85524">
        <ele>291.9</ele>
        <time>2018-10-21T09:41:55Z</time>
      </trkpt>
      <trkpt lat="46.39113" lon="2.8553">
        <ele>292.1</ele>
        <time>2018-10-21T09:41:56Z</time>
      </trkpt>
      <trkpt lat="46.39112" lon="2.85537">
        <ele>292.2</ele>
        <time>2018-10-21T09:41:57Z</time>
      </trkpt>
      <trkpt lat="46.39111" lon="2.85543">
        <ele>292.3</ele>
        <time>2018-10-21T09:41:58Z</time>
      </trkpt>
      <trkpt lat="46.39107" lon="2.85555">
        <ele>292</ele>
        <time>2018-10-21T09:42:00Z</time>
      </trkpt>
      <trkpt lat="46.39104" lon="2.85567">
        <ele>292.4</ele>
        <time>2018-10-21T09:42:02Z</time>
      </trkpt>
      <trkpt lat="46.39101" lon="2.85573">
        <ele>292.5</ele>
        <time>2018-10-21T09:42:03Z</time>
      </trkpt>
      <trkpt lat="46.39099" lon="2.8558">
        <ele>292.6</ele>
        <time>2018-10-21T09:42:04Z</time>
      </trkpt>
      <trkpt lat="46.39097" lon="2.85586">
        <ele>292.6</ele>
        <time>2018-10-21T09:42:05Z</time>
      </trkpt>
      <trkpt lat="46.39096" lon="2.85592">
        <ele>292.8</ele>
        <time>2018-10-21T09:42:06Z</time>
      </trkpt>
      <trkpt lat="46.39094" lon="2.85598">
        <ele>293</ele>
        <time>2018-10-21T09:42:07Z</time>
      </trkpt>
      <trkpt lat="46.39092" lon="2.85604">
        <ele>293.2</ele>
        <time>2018-10-21T09:42:08Z</time>
      </trkpt>
      <trkpt lat="46.3909" lon="2.8561">
        <ele>293.4</ele>
        <time>2018-10-21T09:42:09Z</time>
      </trkpt>
      <trkpt lat="46.39088" lon="2.85617">
        <ele>293.5</ele>
        <time>2018-10-21T09:42:10Z</time>
      </trkpt>
      <trkpt lat="46.39086" lon="2.85623">
        <ele>293.6</ele>
        <time>2018-10-21T09:42:11Z</time>
      </trkpt>
      <trkpt lat="46.39083" lon="2.85629">
        <ele>293.7</ele>
        <time>2018-10-21T09:42:12Z</time>
      </trkpt>
      <trkpt lat="46.39081" lon="2.85636">
        <ele>293.3</ele>
        <time>2018-10-21T09:42:13Z</time>
      </trkpt>
      <trkpt lat="46.39078" lon="2.85642">
        <ele>293</ele>
        <time>2018-10-21T09:42:14Z</time>
      </trkpt>
      <trkpt lat="46.39076" lon="2.85648">
        <ele>293</ele>
        <time>2018-10-21T09:42:15Z</time>
      </trkpt>
      <trkpt lat="46.39073" lon="2.85655">
        <ele>292.9</ele>
        <time>2018-10-21T09:42:16Z</time>
      </trkpt>
      <trkpt lat="46.39071" lon="2.85661">
        <ele>292.9</ele>
        <time>2018-10-21T09:42:17Z</time>
      </trkpt>
      <trkpt lat="46.39068" lon="2.85667">
        <ele>293.3</ele>
        <time>2018-10-21T09:42:18Z</time>
      </trkpt>
      <trkpt lat="46.39066" lon="2.85673">
        <ele>293.5</ele>
        <time>2018-10-21T09:42:19Z</time>
      </trkpt>
      <trkpt lat="46.39063" lon="2.85679">
        <ele>293.8</ele>
        <time>2018-10-21T09:42:20Z</time>
      </trkpt>
      <trkpt lat="46.39061" lon="2.85685">
        <ele>294.1</ele>
        <time>2018-10-21T09:42:21Z</time>
      </trkpt>
      <trkpt lat="46.39058" lon="2.8569">
        <ele>294.2</ele>
        <time>2018-10-21T09:42:22Z</time>
      </trkpt>
      <trkpt lat="46.39055" lon="2.85696">
        <ele>294.5</ele>
        <time>2018-10-21T09:42:23Z</time>
      </trkpt>
      <trkpt lat="46.39053" lon="2.85702">
        <ele>294.6</ele>
        <time>2018-10-21T09:42:24Z</time>
      </trkpt>
      <trkpt lat="46.39051" lon="2.85708">
        <ele>294.5</ele>
        <time>2018-10-21T09:42:25Z</time>
      </trkpt>
      <trkpt lat="46.39048" lon="2.85713">
        <ele>294.3</ele>
        <time>2018-10-21T09:42:26Z</time>
      </trkpt>
      <trkpt lat="46.39043" lon="2.85724">
        <ele>294.8</ele>
        <time>2018-10-21T09:42:28Z</time>
      </trkpt>
      <trkpt lat="46.39039" lon="2.85733">
        <ele>295.1</ele>
        <time>2018-10-21T09:42:30Z</time>
      </trkpt>
      <trkpt lat="46.39043" lon="2.85744">
        <ele>295.4</ele>
        <time>2018-10-21T09:42:33Z</time>
      </trkpt>
      <trkpt lat="46.3905" lon="2.85744">
        <ele>296</ele>
        <time>2018-10-21T09:42:35Z</time>
      </trkpt>
      <trkpt lat="46.39056" lon="2.85745">
        <ele>295.9</ele>
        <time>2018-10-21T09:42:37Z</time>
      </trkpt>
      <trkpt lat="46.39063" lon="2.85746">
        <ele>295.6</ele>
        <time>2018-10-21T09:42:39Z</time>
      </trkpt>
      <trkpt lat="46.3907" lon="2.8575">
        <ele>295.4</ele>
        <time>2018-10-21T09:42:41Z</time>
      </trkpt>
      <trkpt lat="46.39078" lon="2.8575">
        <ele>294.9</ele>
        <time>2018-10-21T09:42:43Z</time>
      </trkpt>
      <trkpt lat="46.39085" lon="2.85748">
        <ele>294.9</ele>
        <time>2018-10-21T09:42:45Z</time>
      </trkpt>
      <trkpt lat="46.39093" lon="2.85744">
        <ele>294.4</ele>
        <time>2018-10-21T09:42:47Z</time>
      </trkpt>
      <trkpt lat="46.39098" lon="2.85742">
        <ele>294.3</ele>
        <time>2018-10-21T09:42:48Z</time>
      </trkpt>
      <trkpt lat="46.39103" lon="2.85741">
        <ele>294.4</ele>
        <time>2018-10-21T09:42:49Z</time>
      </trkpt>
      <trkpt lat="46.39107" lon="2.85739">
        <ele>294.5</ele>
        <time>2018-10-21T09:42:50Z</time>
      </trkpt>
      <trkpt lat="46.39113" lon="2.85737">
        <ele>294.1</ele>
        <time>2018-10-21T09:42:51Z</time>
      </trkpt>
      <trkpt lat="46.39118" lon="2.85735">
        <ele>293.8</ele>
        <time>2018-10-21T09:42:52Z</time>
      </trkpt>
      <trkpt lat="46.39123" lon="2.85733">
        <ele>293.5</ele>
        <time>2018-10-21T09:42:53Z</time>
      </trkpt>
      <trkpt lat="46.39128" lon="2.85731">
        <ele>293.4</ele>
        <time>2018-10-21T09:42:54Z</time>
      </trkpt>
      <trkpt lat="46.39134" lon="2.85729">
        <ele>293.2</ele>
        <time>2018-10-21T09:42:55Z</time>
      </trkpt>
      <trkpt lat="46.39139" lon="2.85727">
        <ele>293.1</ele>
        <time>2018-10-21T09:42:56Z</time>
      </trkpt>
      <trkpt lat="46.39145" lon="2.85725">
        <ele>293.1</ele>
        <time>2018-10-21T09:42:57Z</time>
      </trkpt>
      <trkpt lat="46.39151" lon="2.85723">
        <ele>293.3</ele>
        <time>2018-10-21T09:42:58Z</time>
      </trkpt>
      <trkpt lat="46.39157" lon="2.8572">
        <ele>293.5</ele>
        <time>2018-10-21T09:42:59Z</time>
      </trkpt>
      <trkpt lat="46.39163" lon="2.85718">
        <ele>293.7</ele>
        <time>2018-10-21T09:43:00Z</time>
      </trkpt>
      <trkpt lat="46.39168" lon="2.85715">
        <ele>293.5</ele>
        <time>2018-10-21T09:43:01Z</time>
      </trkpt>
      <trkpt lat="46.39174" lon="2.85713">
        <ele>293.4</ele>
        <time>2018-10-21T09:43:02Z</time>
      </trkpt>
      <trkpt lat="46.3918" lon="2.85711">
        <ele>293.3</ele>
        <time>2018-10-21T09:43:03Z</time>
      </trkpt>
      <trkpt lat="46.39185" lon="2.85709">
        <ele>293.3</ele>
        <time>2018-10-21T09:43:04Z</time>
      </trkpt>
      <trkpt lat="46.39191" lon="2.85707">
        <ele>293.1</ele>
        <time>2018-10-21T09:43:05Z</time>
      </trkpt>
      <trkpt lat="46.39197" lon="2.85705">
        <ele>292.9</ele>
        <time>2018-10-21T09:43:06Z</time>
      </trkpt>
      <trkpt lat="46.39204" lon="2.85703">
        <ele>292.8</ele>
        <time>2018-10-21T09:43:07Z</time>
      </trkpt>
      <trkpt lat="46.3921" lon="2.85702">
        <ele>292.6</ele>
        <time>2018-10-21T09:43:08Z</time>
      </trkpt>
      <trkpt lat="46.39216" lon="2.85699">
        <ele>292.5</ele>
        <time>2018-10-21T09:43:09Z</time>
      </trkpt>
      <trkpt lat="46.39222" lon="2.85697">
        <ele>292</ele>
        <time>2018-10-21T09:43:10Z</time>
      </trkpt>
      <trkpt lat="46.39228" lon="2.85695">
        <ele>291.6</ele>
        <time>2018-10-21T09:43:11Z</time>
      </trkpt>
      <trkpt lat="46.39235" lon="2.85693">
        <ele>291.1</ele>
        <time>2018-10-21T09:43:12Z</time>
      </trkpt>
      <trkpt lat="46.39241" lon="2.85691">
        <ele>290.8</ele>
        <time>2018-10-21T09:43:13Z</time>
      </trkpt>
      <trkpt lat="46.39247" lon="2.85689">
        <ele>290.5</ele>
        <time>2018-10-21T09:43:14Z</time>
      </trkpt>
      <trkpt lat="46.39254" lon="2.85688">
        <ele>290.7</ele>
        <time>2018-10-21T09:43:15Z</time>
      </trkpt>
      <trkpt lat="46.3926" lon="2.85686">
        <ele>290.8</ele>
        <time>2018-10-21T09:43:16Z</time>
      </trkpt>
      <trkpt lat="46.39267" lon="2.85685">
        <ele>290.5</ele>
        <time>2018-10-21T09:43:17Z</time>
      </trkpt>
      <trkpt lat="46.39274" lon="2.85683">
        <ele>290.2</ele>
        <time>2018-10-21T09:43:18Z</time>
      </trkpt>
      <trkpt lat="46.3928" lon="2.85683">
        <ele>290</ele>
        <time>2018-10-21T09:43:19Z</time>
      </trkpt>
      <trkpt lat="46.39287" lon="2.85682">
        <ele>289.5</ele>
        <time>2018-10-21T09:43:20Z</time>
      </trkpt>
      <trkpt lat="46.39294" lon="2.85681">
        <ele>289.2</ele>
        <time>2018-10-21T09:43:21Z</time>
      </trkpt>
      <trkpt lat="46.393" lon="2.85681">
        <ele>289.5</ele>
        <time>2018-10-21T09:43:22Z</time>
      </trkpt>
      <trkpt lat="46.39307" lon="2.8568">
        <ele>289.8</ele>
        <time>2018-10-21T09:43:23Z</time>
      </trkpt>
      <trkpt lat="46.39314" lon="2.8568">
        <ele>289.4</ele>
        <time>2018-10-21T09:43:24Z</time>
      </trkpt>
      <trkpt lat="46.39321" lon="2.85679">
        <ele>289.1</ele>
        <time>2018-10-21T09:43:25Z</time>
      </trkpt>
      <trkpt lat="46.39329" lon="2.85678">
        <ele>288.8</ele>
        <time>2018-10-21T09:43:26Z</time>
      </trkpt>
      <trkpt lat="46.39336" lon="2.85678">
        <ele>288.2</ele>
        <time>2018-10-21T09:43:27Z</time>
      </trkpt>
      <trkpt lat="46.39343" lon="2.85677">
        <ele>287.7</ele>
        <time>2018-10-21T09:43:28Z</time>
      </trkpt>
      <trkpt lat="46.3935" lon="2.85677">
        <ele>287.1</ele>
        <time>2018-10-21T09:43:29Z</time>
      </trkpt>
      <trkpt lat="46.39358" lon="2.85676">
        <ele>286.7</ele>
        <time>2018-10-21T09:43:30Z</time>
      </trkpt>
      <trkpt lat="46.39365" lon="2.85676">
        <ele>286.5</ele>
        <time>2018-10-21T09:43:31Z</time>
      </trkpt>
      <trkpt lat="46.39373" lon="2.85676">
        <ele>286.4</ele>
        <time>2018-10-21T09:43:32Z</time>
      </trkpt>
      <trkpt lat="46.3938" lon="2.85675">
        <ele>286.3</ele>
        <time>2018-10-21T09:43:33Z</time>
      </trkpt>
      <trkpt lat="46.39388" lon="2.85675">
        <ele>286</ele>
        <time>2018-10-21T09:43:34Z</time>
      </trkpt>
      <trkpt lat="46.39395" lon="2.85675">
        <ele>285.9</ele>
        <time>2018-10-21T09:43:35Z</time>
      </trkpt>
      <trkpt lat="46.39403" lon="2.85674">
        <ele>285.8</ele>
        <time>2018-10-21T09:43:36Z</time>
      </trkpt>
      <trkpt lat="46.3941" lon="2.85673">
        <ele>285.7</ele>
        <time>2018-10-21T09:43:37Z</time>
      </trkpt>
      <trkpt lat="46.39418" lon="2.85673">
        <ele>285.7</ele>
        <time>2018-10-21T09:43:38Z</time>
      </trkpt>
      <trkpt lat="46.39425" lon="2.85672">
        <ele>285.5</ele>
        <time>2018-10-21T09:43:39Z</time>
      </trkpt>
      <trkpt lat="46.39432" lon="2.85672">
        <ele>285.4</ele>
        <time>2018-10-21T09:43:40Z</time>
      </trkpt>
      <trkpt lat="46.39439" lon="2.85671">
        <ele>285</ele>
        <time>2018-10-21T09:43:41Z</time>
      </trkpt>
      <trkpt lat="46.39447" lon="2.85671">
        <ele>284.8</ele>
        <time>2018-10-21T09:43:42Z</time>
      </trkpt>
      <trkpt lat="46.39454" lon="2.8567">
        <ele>284.9</ele>
        <time>2018-10-21T09:43:43Z</time>
      </trkpt>
      <trkpt lat="46.3946" lon="2.8567">
        <ele>285.1</ele>
        <time>2018-10-21T09:43:44Z</time>
      </trkpt>
      <trkpt lat="46.39467" lon="2.85669">
        <ele>285.2</ele>
        <time>2018-10-21T09:43:45Z</time>
      </trkpt>
      <trkpt lat="46.39474" lon="2.85669">
        <ele>284.7</ele>
        <time>2018-10-21T09:43:46Z</time>
      </trkpt>
      <trkpt lat="46.39481" lon="2.85668">
        <ele>284.4</ele>
        <time>2018-10-21T09:43:47Z</time>
      </trkpt>
      <trkpt lat="46.39487" lon="2.85668">
        <ele>284</ele>
        <time>2018-10-21T09:43:48Z</time>
      </trkpt>
      <trkpt lat="46.39494" lon="2.85668">
        <ele>283.8</ele>
        <time>2018-10-21T09:43:49Z</time>
      </trkpt>
      <trkpt lat="46.395" lon="2.85668">
        <ele>283.9</ele>
        <time>2018-10-21T09:43:50Z</time>
      </trkpt>
      <trkpt lat="46.39506" lon="2.85668">
        <ele>283.9</ele>
        <time>2018-10-21T09:43:51Z</time>
      </trkpt>
      <trkpt lat="46.39512" lon="2.85668">
        <ele>283.9</ele>
        <time>2018-10-21T09:43:52Z</time>
      </trkpt>
      <trkpt lat="46.39518" lon="2.85668">
        <ele>283.6</ele>
        <time>2018-10-21T09:43:53Z</time>
      </trkpt>
      <trkpt lat="46.39524" lon="2.85669">
        <ele>283.3</ele>
        <time>2018-10-21T09:43:54Z</time>
      </trkpt>
      <trkpt lat="46.3953" lon="2.85669">
        <ele>283.1</ele>
        <time>2018-10-21T09:43:55Z</time>
      </trkpt>
      <trkpt lat="46.39536" lon="2.8567">
        <ele>283</ele>
        <time>2018-10-21T09:43:56Z</time>
      </trkpt>
      <trkpt lat="46.39542" lon="2.85671">
        <ele>282.9</ele>
        <time>2018-10-21T09:43:57Z</time>
      </trkpt>
      <trkpt lat="46.39548" lon="2.85671">
        <ele>283.2</ele>
        <time>2018-10-21T09:43:58Z</time>
      </trkpt>
      <trkpt lat="46.39553" lon="2.85672">
        <ele>283.4</ele>
        <time>2018-10-21T09:43:59Z</time>
      </trkpt>
      <trkpt lat="46.39559" lon="2.85672">
        <ele>283.1</ele>
        <time>2018-10-21T09:44:00Z</time>
      </trkpt>
      <trkpt lat="46.39565" lon="2.85673">
        <ele>282.8</ele>
        <time>2018-10-21T09:44:01Z</time>
      </trkpt>
      <trkpt lat="46.3957" lon="2.85673">
        <ele>282.6</ele>
        <time>2018-10-21T09:44:02Z</time>
      </trkpt>
      <trkpt lat="46.39575" lon="2.85673">
        <ele>282.5</ele>
        <time>2018-10-21T09:44:03Z</time>
      </trkpt>
      <trkpt lat="46.39581" lon="2.85673">
        <ele>282.3</ele>
        <time>2018-10-21T09:44:04Z</time>
      </trkpt>
      <trkpt lat="46.39586" lon="2.85674">
        <ele>282.2</ele>
        <time>2018-10-21T09:44:05Z</time>
      </trkpt>
      <trkpt lat="46.39591" lon="2.85674">
        <ele>282.1</ele>
        <time>2018-10-21T09:44:06Z</time>
      </trkpt>
      <trkpt lat="46.39596" lon="2.85673">
        <ele>281.7</ele>
        <time>2018-10-21T09:44:07Z</time>
      </trkpt>
      <trkpt lat="46.39601" lon="2.85673">
        <ele>281.4</ele>
        <time>2018-10-21T09:44:08Z</time>
      </trkpt>
      <trkpt lat="46.39605" lon="2.85673">
        <ele>281.5</ele>
        <time>2018-10-21T09:44:09Z</time>
      </trkpt>
      <trkpt lat="46.3961" lon="2.85672">
        <ele>281.6</ele>
        <time>2018-10-21T09:44:10Z</time>
      </trkpt>
      <trkpt lat="46.39615" lon="2.85671">
        <ele>281.7</ele>
        <time>2018-10-21T09:44:11Z</time>
      </trkpt>
      <trkpt lat="46.39621" lon="2.85669">
        <ele>281.9</ele>
        <time>2018-10-21T09:44:12Z</time>
      </trkpt>
      <trkpt lat="46.39626" lon="2.85668">
        <ele>282</ele>
        <time>2018-10-21T09:44:13Z</time>
      </trkpt>
      <trkpt lat="46.39632" lon="2.85666">
        <ele>281.8</ele>
        <time>2018-10-21T09:44:14Z</time>
      </trkpt>
      <trkpt lat="46.39637" lon="2.85665">
        <ele>281.6</ele>
        <time>2018-10-21T09:44:15Z</time>
      </trkpt>
      <trkpt lat="46.39642" lon="2.85663">
        <ele>281.5</ele>
        <time>2018-10-21T09:44:16Z</time>
      </trkpt>
      <trkpt lat="46.39648" lon="2.85661">
        <ele>281.3</ele>
        <time>2018-10-21T09:44:17Z</time>
      </trkpt>
      <trkpt lat="46.39653" lon="2.8566">
        <ele>281.2</ele>
        <time>2018-10-21T09:44:18Z</time>
      </trkpt>
      <trkpt lat="46.39659" lon="2.85658">
        <ele>280.9</ele>
        <time>2018-10-21T09:44:19Z</time>
      </trkpt>
      <trkpt lat="46.39665" lon="2.85656">
        <ele>280.7</ele>
        <time>2018-10-21T09:44:20Z</time>
      </trkpt>
      <trkpt lat="46.39672" lon="2.85654">
        <ele>280.3</ele>
        <time>2018-10-21T09:44:21Z</time>
      </trkpt>
      <trkpt lat="46.39679" lon="2.85652">
        <ele>280.1</ele>
        <time>2018-10-21T09:44:22Z</time>
      </trkpt>
      <trkpt lat="46.39686" lon="2.85652">
        <ele>279.9</ele>
        <time>2018-10-21T09:44:23Z</time>
      </trkpt>
      <trkpt lat="46.39693" lon="2.85651">
        <ele>280.3</ele>
        <time>2018-10-21T09:44:24Z</time>
      </trkpt>
      <trkpt lat="46.39699" lon="2.85649">
        <ele>280.7</ele>
        <time>2018-10-21T09:44:25Z</time>
      </trkpt>
      <trkpt lat="46.39706" lon="2.85647">
        <ele>280.6</ele>
        <time>2018-10-21T09:44:26Z</time>
      </trkpt>
      <trkpt lat="46.39712" lon="2.85645">
        <ele>280.6</ele>
        <time>2018-10-21T09:44:27Z</time>
      </trkpt>
      <trkpt lat="46.39718" lon="2.85644">
        <ele>280.3</ele>
        <time>2018-10-21T09:44:28Z</time>
      </trkpt>
      <trkpt lat="46.39724" lon="2.85642">
        <ele>280.1</ele>
        <time>2018-10-21T09:44:29Z</time>
      </trkpt>
      <trkpt lat="46.39731" lon="2.8564">
        <ele>280</ele>
        <time>2018-10-21T09:44:30Z</time>
      </trkpt>
      <trkpt lat="46.39737" lon="2.85639">
        <ele>280.1</ele>
        <time>2018-10-21T09:44:31Z</time>
      </trkpt>
      <trkpt lat="46.39742" lon="2.85637">
        <ele>280.2</ele>
        <time>2018-10-21T09:44:32Z</time>
      </trkpt>
      <trkpt lat="46.39748" lon="2.85635">
        <ele>279.7</ele>
        <time>2018-10-21T09:44:33Z</time>
      </trkpt>
      <trkpt lat="46.39754" lon="2.85633">
        <ele>279.3</ele>
        <time>2018-10-21T09:44:34Z</time>
      </trkpt>
      <trkpt lat="46.3976" lon="2.85631">
        <ele>279</ele>
        <time>2018-10-21T09:44:35Z</time>
      </trkpt>
      <trkpt lat="46.39765" lon="2.85629">
        <ele>278.7</ele>
        <time>2018-10-21T09:44:36Z</time>
      </trkpt>
      <trkpt lat="46.39771" lon="2.85627">
        <ele>278.5</ele>
        <time>2018-10-21T09:44:37Z</time>
      </trkpt>
      <trkpt lat="46.39776" lon="2.85625">
        <ele>278.7</ele>
        <time>2018-10-21T09:44:38Z</time>
      </trkpt>
      <trkpt lat="46.39781" lon="2.85622">
        <ele>278.9</ele>
        <time>2018-10-21T09:44:39Z</time>
      </trkpt>
      <trkpt lat="46.39786" lon="2.8562">
        <ele>278.5</ele>
        <time>2018-10-21T09:44:40Z</time>
      </trkpt>
      <trkpt lat="46.39791" lon="2.85617">
        <ele>278.3</ele>
        <time>2018-10-21T09:44:41Z</time>
      </trkpt>
      <trkpt lat="46.39797" lon="2.85616">
        <ele>278.1</ele>
        <time>2018-10-21T09:44:42Z</time>
      </trkpt>
      <trkpt lat="46.39802" lon="2.85619">
        <ele>278.1</ele>
        <time>2018-10-21T09:44:43Z</time>
      </trkpt>
      <trkpt lat="46.39806" lon="2.85625">
        <ele>278</ele>
        <time>2018-10-21T09:44:44Z</time>
      </trkpt>
      <trkpt lat="46.39808" lon="2.85631">
        <ele>277.7</ele>
        <time>2018-10-21T09:44:45Z</time>
      </trkpt>
      <trkpt lat="46.39809" lon="2.85638">
        <ele>277.4</ele>
        <time>2018-10-21T09:44:46Z</time>
      </trkpt>
      <trkpt lat="46.39812" lon="2.8565">
        <ele>277.1</ele>
        <time>2018-10-21T09:44:48Z</time>
      </trkpt>
      <trkpt lat="46.39815" lon="2.8566">
        <ele>277.3</ele>
        <time>2018-10-21T09:44:50Z</time>
      </trkpt>
      <trkpt lat="46.3982" lon="2.85667">
        <ele>277.7</ele>
        <time>2018-10-21T09:44:52Z</time>
      </trkpt>
      <trkpt lat="46.39827" lon="2.85673">
        <ele>278</ele>
        <time>2018-10-21T09:44:55Z</time>
      </trkpt>
      <trkpt lat="46.39829" lon="2.85684">
        <ele>277.9</ele>
        <time>2018-10-21T09:44:59Z</time>
      </trkpt>
      <trkpt lat="46.39832" lon="2.85696">
        <ele>277.6</ele>
        <time>2018-10-21T09:45:03Z</time>
      </trkpt>
      <trkpt lat="46.39838" lon="2.85695">
        <ele>276.3</ele>
        <time>2018-10-21T09:45:20Z</time>
      </trkpt>
      <trkpt lat="46.39838" lon="2.85695">
        <ele>276.3</ele>
        <time>2018-10-21T09:45:20Z</time>
      </trkpt>
    </trkseg>
  </trk>
</gpx>